<?xml version="1.0" encoding="UTF-8" standalone="no" ?>
<gpx xmlns="http://www.topografix.com/GPX/1/1" xmlns:xsi="http://www.w3.org/2001/XMLSchema-instance" xsi:schemaLocation="http://www.topografix.com/GPX/1/1 http://www.topografix.com/GPX/1/1/gpx.xsd" version="1.1" creator="VisuGPX - https://www.visugpx.com">
  <metadata>
    <name>autour de chez nous</name>
    <desc><![CDATA[autour de chez nous]]></desc>
  </metadata>
  <trk>
    <name><![CDATA[01/05/2014 9:22]]></name>
    <desc><![CDATA[]]></desc>
    <trkseg>
      <trkpt lat="47.51811" lon="6.77472">
        <ele>408.7</ele>
        <time>2014-05-01T07:22:17.702Z</time>
      </trkpt>
      <trkpt lat="47.51807" lon="6.77471">
        <ele>426.2</ele>
        <time>2014-05-01T07:22:19.708Z</time>
      </trkpt>
      <trkpt lat="47.51798" lon="6.77486">
        <ele>398</ele>
        <time>2014-05-01T07:22:21.708Z</time>
      </trkpt>
      <trkpt lat="47.51795" lon="6.77463">
        <ele>375.2</ele>
        <time>2014-05-01T07:22:22.702Z</time>
      </trkpt>
      <trkpt lat="47.51789" lon="6.77468">
        <ele>342.6</ele>
        <time>2014-05-01T07:22:23.676Z</time>
      </trkpt>
      <trkpt lat="47.51793" lon="6.77472">
        <ele>366.5</ele>
        <time>2014-05-01T07:22:25.692Z</time>
      </trkpt>
      <trkpt lat="47.51798" lon="6.77467">
        <ele>371.8</ele>
        <time>2014-05-01T07:22:26.695Z</time>
      </trkpt>
      <trkpt lat="47.51793" lon="6.77469">
        <ele>364</ele>
        <time>2014-05-01T07:22:27.695Z</time>
      </trkpt>
      <trkpt lat="47.518" lon="6.77471">
        <ele>363.8</ele>
        <time>2014-05-01T07:22:28.692Z</time>
      </trkpt>
      <trkpt lat="47.51787" lon="6.77478">
        <ele>344.1</ele>
        <time>2014-05-01T07:22:29.682Z</time>
      </trkpt>
      <trkpt lat="47.51791" lon="6.77478">
        <ele>352.3</ele>
        <time>2014-05-01T07:22:30.681Z</time>
      </trkpt>
      <trkpt lat="47.51791" lon="6.77469">
        <ele>368.4</ele>
        <time>2014-05-01T07:22:31.682Z</time>
      </trkpt>
      <trkpt lat="47.51796" lon="6.77466">
        <ele>376.6</ele>
        <time>2014-05-01T07:22:32.684Z</time>
      </trkpt>
      <trkpt lat="47.51799" lon="6.77459">
        <ele>370.6</ele>
        <time>2014-05-01T07:22:33.679Z</time>
      </trkpt>
      <trkpt lat="47.51801" lon="6.77467">
        <ele>385</ele>
        <time>2014-05-01T07:22:34.675Z</time>
      </trkpt>
      <trkpt lat="47.518" lon="6.77466">
        <ele>361.9</ele>
        <time>2014-05-01T07:22:35.687Z</time>
      </trkpt>
      <trkpt lat="47.51805" lon="6.77473">
        <ele>353.9</ele>
        <time>2014-05-01T07:22:36.677Z</time>
      </trkpt>
      <trkpt lat="47.51807" lon="6.77478">
        <ele>364</ele>
        <time>2014-05-01T07:22:37.677Z</time>
      </trkpt>
      <trkpt lat="47.51811" lon="6.77466">
        <ele>387.3</ele>
        <time>2014-05-01T07:22:38.682Z</time>
      </trkpt>
      <trkpt lat="47.51805" lon="6.77469">
        <ele>388.7</ele>
        <time>2014-05-01T07:22:39.688Z</time>
      </trkpt>
      <trkpt lat="47.51806" lon="6.77477">
        <ele>414</ele>
        <time>2014-05-01T07:22:40.690Z</time>
      </trkpt>
      <trkpt lat="47.5182" lon="6.77478">
        <ele>434</ele>
        <time>2014-05-01T07:22:41.688Z</time>
      </trkpt>
      <trkpt lat="47.51796" lon="6.77498">
        <ele>408.4</ele>
        <time>2014-05-01T07:22:42.000Z</time>
      </trkpt>
      <trkpt lat="47.51797" lon="6.77494">
        <ele>395.5</ele>
        <time>2014-05-01T07:23:05.000Z</time>
      </trkpt>
      <trkpt lat="47.51795" lon="6.77489">
        <ele>360</ele>
        <time>2014-05-01T07:23:13.000Z</time>
      </trkpt>
      <trkpt lat="47.51791" lon="6.77485">
        <ele>324.6</ele>
        <time>2014-05-01T07:27:14.000Z</time>
      </trkpt>
      <trkpt lat="47.51791" lon="6.77482">
        <ele>328.1</ele>
        <time>2014-05-01T07:27:15.000Z</time>
      </trkpt>
      <trkpt lat="47.51793" lon="6.77479">
        <ele>333.1</ele>
        <time>2014-05-01T07:27:17.000Z</time>
      </trkpt>
      <trkpt lat="47.51797" lon="6.77477">
        <ele>340.2</ele>
        <time>2014-05-01T07:27:18.000Z</time>
      </trkpt>
      <trkpt lat="47.51801" lon="6.77478">
        <ele>366.5</ele>
        <time>2014-05-01T07:27:25.000Z</time>
      </trkpt>
      <trkpt lat="47.51801" lon="6.77476">
        <ele>369.6</ele>
        <time>2014-05-01T07:27:26.000Z</time>
      </trkpt>
      <trkpt lat="47.51802" lon="6.77482">
        <ele>392.5</ele>
        <time>2014-05-01T07:28:05.000Z</time>
      </trkpt>
      <trkpt lat="47.51807" lon="6.77483">
        <ele>397.9</ele>
        <time>2014-05-01T07:28:13.000Z</time>
      </trkpt>
      <trkpt lat="47.5181" lon="6.77488">
        <ele>397.7</ele>
        <time>2014-05-01T07:28:15.000Z</time>
      </trkpt>
      <trkpt lat="47.51812" lon="6.77491">
        <ele>399.5</ele>
        <time>2014-05-01T07:28:16.000Z</time>
      </trkpt>
      <trkpt lat="47.51815" lon="6.77494">
        <ele>399.2</ele>
        <time>2014-05-01T07:28:17.000Z</time>
      </trkpt>
      <trkpt lat="47.51818" lon="6.77496">
        <ele>398.4</ele>
        <time>2014-05-01T07:28:18.000Z</time>
      </trkpt>
      <trkpt lat="47.51821" lon="6.77498">
        <ele>398.7</ele>
        <time>2014-05-01T07:28:19.000Z</time>
      </trkpt>
      <trkpt lat="47.51825" lon="6.77499">
        <ele>399.4</ele>
        <time>2014-05-01T07:28:20.000Z</time>
      </trkpt>
      <trkpt lat="47.51829" lon="6.775">
        <ele>399.4</ele>
        <time>2014-05-01T07:28:21.000Z</time>
      </trkpt>
      <trkpt lat="47.51833" lon="6.77501">
        <ele>399.6</ele>
        <time>2014-05-01T07:28:22.000Z</time>
      </trkpt>
      <trkpt lat="47.51837" lon="6.77502">
        <ele>399.5</ele>
        <time>2014-05-01T07:28:23.000Z</time>
      </trkpt>
      <trkpt lat="47.51841" lon="6.77502">
        <ele>399</ele>
        <time>2014-05-01T07:28:24.000Z</time>
      </trkpt>
      <trkpt lat="47.51845" lon="6.77502">
        <ele>399.2</ele>
        <time>2014-05-01T07:28:25.000Z</time>
      </trkpt>
      <trkpt lat="47.51848" lon="6.77502">
        <ele>399.4</ele>
        <time>2014-05-01T07:28:26.000Z</time>
      </trkpt>
      <trkpt lat="47.51851" lon="6.77501">
        <ele>399.8</ele>
        <time>2014-05-01T07:28:27.000Z</time>
      </trkpt>
      <trkpt lat="47.51854" lon="6.77499">
        <ele>399.6</ele>
        <time>2014-05-01T07:28:28.000Z</time>
      </trkpt>
      <trkpt lat="47.51856" lon="6.77494">
        <ele>399.4</ele>
        <time>2014-05-01T07:28:29.999Z</time>
      </trkpt>
      <trkpt lat="47.51857" lon="6.77491">
        <ele>399.8</ele>
        <time>2014-05-01T07:28:31.001Z</time>
      </trkpt>
      <trkpt lat="47.51859" lon="6.77486">
        <ele>397.9</ele>
        <time>2014-05-01T07:28:49.000Z</time>
      </trkpt>
      <trkpt lat="47.51859" lon="6.77485">
        <ele>396.9</ele>
        <time>2014-05-01T07:28:50.000Z</time>
      </trkpt>
      <trkpt lat="47.51859" lon="6.77491">
        <ele>395.4</ele>
        <time>2014-05-01T07:29:28.000Z</time>
      </trkpt>
      <trkpt lat="47.51859" lon="6.77492">
        <ele>395.6</ele>
        <time>2014-05-01T07:29:29.000Z</time>
      </trkpt>
      <trkpt lat="47.51858" lon="6.77497">
        <ele>401.3</ele>
        <time>2014-05-01T07:30:20.000Z</time>
      </trkpt>
      <trkpt lat="47.51857" lon="6.77498">
        <ele>400.4</ele>
        <time>2014-05-01T07:30:21.000Z</time>
      </trkpt>
      <trkpt lat="47.51858" lon="6.77492">
        <ele>398.3</ele>
        <time>2014-05-01T07:33:38.000Z</time>
      </trkpt>
      <trkpt lat="47.51858" lon="6.77491">
        <ele>396.9</ele>
        <time>2014-05-01T07:33:39.000Z</time>
      </trkpt>
      <trkpt lat="47.51854" lon="6.77494">
        <ele>398.8</ele>
        <time>2014-05-01T07:34:02.000Z</time>
      </trkpt>
      <trkpt lat="47.51854" lon="6.77495">
        <ele>399.1</ele>
        <time>2014-05-01T07:34:03.000Z</time>
      </trkpt>
      <trkpt lat="47.51858" lon="6.77496">
        <ele>398.6</ele>
        <time>2014-05-01T07:34:15.000Z</time>
      </trkpt>
      <trkpt lat="47.51859" lon="6.77496">
        <ele>398.8</ele>
        <time>2014-05-01T07:34:16.000Z</time>
      </trkpt>
      <trkpt lat="47.51863" lon="6.77499">
        <ele>400.3</ele>
        <time>2014-05-01T07:34:18.000Z</time>
      </trkpt>
      <trkpt lat="47.51866" lon="6.775">
        <ele>400.9</ele>
        <time>2014-05-01T07:34:19.000Z</time>
      </trkpt>
      <trkpt lat="47.51869" lon="6.77502">
        <ele>401</ele>
        <time>2014-05-01T07:34:20.000Z</time>
      </trkpt>
      <trkpt lat="47.51873" lon="6.77504">
        <ele>401.6</ele>
        <time>2014-05-01T07:34:21.000Z</time>
      </trkpt>
      <trkpt lat="47.51877" lon="6.77506">
        <ele>401.4</ele>
        <time>2014-05-01T07:34:22.000Z</time>
      </trkpt>
      <trkpt lat="47.51881" lon="6.77507">
        <ele>401.9</ele>
        <time>2014-05-01T07:34:23.000Z</time>
      </trkpt>
      <trkpt lat="47.51886" lon="6.77508">
        <ele>401.6</ele>
        <time>2014-05-01T07:34:24.000Z</time>
      </trkpt>
      <trkpt lat="47.5189" lon="6.77508">
        <ele>401.7</ele>
        <time>2014-05-01T07:34:25.000Z</time>
      </trkpt>
      <trkpt lat="47.51893" lon="6.77509">
        <ele>401.5</ele>
        <time>2014-05-01T07:34:26.000Z</time>
      </trkpt>
      <trkpt lat="47.51897" lon="6.7751">
        <ele>401.2</ele>
        <time>2014-05-01T07:34:27.000Z</time>
      </trkpt>
      <trkpt lat="47.51901" lon="6.77511">
        <ele>399.9</ele>
        <time>2014-05-01T07:34:28.000Z</time>
      </trkpt>
      <trkpt lat="47.51904" lon="6.77513">
        <ele>400.2</ele>
        <time>2014-05-01T07:34:29.000Z</time>
      </trkpt>
      <trkpt lat="47.51907" lon="6.77514">
        <ele>400.5</ele>
        <time>2014-05-01T07:34:30.000Z</time>
      </trkpt>
      <trkpt lat="47.51909" lon="6.77515">
        <ele>401.4</ele>
        <time>2014-05-01T07:34:31.000Z</time>
      </trkpt>
      <trkpt lat="47.51912" lon="6.77516">
        <ele>401.5</ele>
        <time>2014-05-01T07:34:32.000Z</time>
      </trkpt>
      <trkpt lat="47.51915" lon="6.77516">
        <ele>401.7</ele>
        <time>2014-05-01T07:34:33.000Z</time>
      </trkpt>
      <trkpt lat="47.51917" lon="6.77517">
        <ele>401.4</ele>
        <time>2014-05-01T07:34:34.000Z</time>
      </trkpt>
      <trkpt lat="47.5192" lon="6.77518">
        <ele>401.6</ele>
        <time>2014-05-01T07:34:35.000Z</time>
      </trkpt>
      <trkpt lat="47.51922" lon="6.77518">
        <ele>402.1</ele>
        <time>2014-05-01T07:34:36.000Z</time>
      </trkpt>
      <trkpt lat="47.51924" lon="6.77519">
        <ele>402.6</ele>
        <time>2014-05-01T07:34:37.000Z</time>
      </trkpt>
      <trkpt lat="47.51927" lon="6.77519">
        <ele>403.2</ele>
        <time>2014-05-01T07:34:38.000Z</time>
      </trkpt>
      <trkpt lat="47.51929" lon="6.7752">
        <ele>403.1</ele>
        <time>2014-05-01T07:34:39.000Z</time>
      </trkpt>
      <trkpt lat="47.51931" lon="6.7752">
        <ele>402.6</ele>
        <time>2014-05-01T07:34:40.000Z</time>
      </trkpt>
      <trkpt lat="47.51934" lon="6.7752">
        <ele>402.8</ele>
        <time>2014-05-01T07:34:41.000Z</time>
      </trkpt>
      <trkpt lat="47.51937" lon="6.77521">
        <ele>402.7</ele>
        <time>2014-05-01T07:34:42.000Z</time>
      </trkpt>
      <trkpt lat="47.5194" lon="6.77522">
        <ele>402</ele>
        <time>2014-05-01T07:34:43.000Z</time>
      </trkpt>
      <trkpt lat="47.51943" lon="6.77522">
        <ele>401.5</ele>
        <time>2014-05-01T07:34:44.000Z</time>
      </trkpt>
      <trkpt lat="47.51946" lon="6.77523">
        <ele>401.3</ele>
        <time>2014-05-01T07:34:45.000Z</time>
      </trkpt>
      <trkpt lat="47.51949" lon="6.77523">
        <ele>400.8</ele>
        <time>2014-05-01T07:34:46.000Z</time>
      </trkpt>
      <trkpt lat="47.51952" lon="6.77524">
        <ele>401.3</ele>
        <time>2014-05-01T07:34:47.000Z</time>
      </trkpt>
      <trkpt lat="47.51955" lon="6.77525">
        <ele>401.6</ele>
        <time>2014-05-01T07:34:48.000Z</time>
      </trkpt>
      <trkpt lat="47.51959" lon="6.77525">
        <ele>401.5</ele>
        <time>2014-05-01T07:34:49.000Z</time>
      </trkpt>
      <trkpt lat="47.51962" lon="6.77526">
        <ele>401.3</ele>
        <time>2014-05-01T07:34:50.000Z</time>
      </trkpt>
      <trkpt lat="47.51966" lon="6.77526">
        <ele>401</ele>
        <time>2014-05-01T07:34:51.000Z</time>
      </trkpt>
      <trkpt lat="47.5197" lon="6.77527">
        <ele>401.1</ele>
        <time>2014-05-01T07:34:52.000Z</time>
      </trkpt>
      <trkpt lat="47.51973" lon="6.77528">
        <ele>401</ele>
        <time>2014-05-01T07:34:53.000Z</time>
      </trkpt>
      <trkpt lat="47.51977" lon="6.77528">
        <ele>401.7</ele>
        <time>2014-05-01T07:34:54.000Z</time>
      </trkpt>
      <trkpt lat="47.5198" lon="6.77529">
        <ele>401.3</ele>
        <time>2014-05-01T07:34:55.000Z</time>
      </trkpt>
      <trkpt lat="47.51984" lon="6.7753">
        <ele>400.8</ele>
        <time>2014-05-01T07:34:56.000Z</time>
      </trkpt>
      <trkpt lat="47.51987" lon="6.77531">
        <ele>400.9</ele>
        <time>2014-05-01T07:34:57.000Z</time>
      </trkpt>
      <trkpt lat="47.5199" lon="6.77531">
        <ele>401.4</ele>
        <time>2014-05-01T07:34:58.000Z</time>
      </trkpt>
      <trkpt lat="47.51994" lon="6.77532">
        <ele>402.7</ele>
        <time>2014-05-01T07:34:59.000Z</time>
      </trkpt>
      <trkpt lat="47.51997" lon="6.77533">
        <ele>403.3</ele>
        <time>2014-05-01T07:35:00.000Z</time>
      </trkpt>
      <trkpt lat="47.52" lon="6.77534">
        <ele>403.9</ele>
        <time>2014-05-01T07:35:01.000Z</time>
      </trkpt>
      <trkpt lat="47.52003" lon="6.77536">
        <ele>403.8</ele>
        <time>2014-05-01T07:35:02.000Z</time>
      </trkpt>
      <trkpt lat="47.52006" lon="6.77537">
        <ele>404.2</ele>
        <time>2014-05-01T07:35:03.000Z</time>
      </trkpt>
      <trkpt lat="47.52009" lon="6.77539">
        <ele>405</ele>
        <time>2014-05-01T07:35:04.000Z</time>
      </trkpt>
      <trkpt lat="47.52013" lon="6.7754">
        <ele>405.3</ele>
        <time>2014-05-01T07:35:05.000Z</time>
      </trkpt>
      <trkpt lat="47.52039" lon="6.77544">
        <ele>405.3</ele>
        <time>2014-05-01T07:35:13.000Z</time>
      </trkpt>
      <trkpt lat="47.52042" lon="6.77544">
        <ele>404.7</ele>
        <time>2014-05-01T07:35:14.000Z</time>
      </trkpt>
      <trkpt lat="47.52046" lon="6.77543">
        <ele>403.5</ele>
        <time>2014-05-01T07:35:15.000Z</time>
      </trkpt>
      <trkpt lat="47.52049" lon="6.77544">
        <ele>403.5</ele>
        <time>2014-05-01T07:35:16.000Z</time>
      </trkpt>
      <trkpt lat="47.52053" lon="6.77544">
        <ele>403.9</ele>
        <time>2014-05-01T07:35:17.000Z</time>
      </trkpt>
      <trkpt lat="47.52056" lon="6.77545">
        <ele>403.7</ele>
        <time>2014-05-01T07:35:18.000Z</time>
      </trkpt>
      <trkpt lat="47.52059" lon="6.77546">
        <ele>403.8</ele>
        <time>2014-05-01T07:35:19.000Z</time>
      </trkpt>
      <trkpt lat="47.52063" lon="6.77547">
        <ele>404</ele>
        <time>2014-05-01T07:35:20.000Z</time>
      </trkpt>
      <trkpt lat="47.52066" lon="6.77548">
        <ele>403.2</ele>
        <time>2014-05-01T07:35:21.000Z</time>
      </trkpt>
      <trkpt lat="47.52069" lon="6.77549">
        <ele>403.1</ele>
        <time>2014-05-01T07:35:22.000Z</time>
      </trkpt>
      <trkpt lat="47.52073" lon="6.7755">
        <ele>402.8</ele>
        <time>2014-05-01T07:35:23.000Z</time>
      </trkpt>
      <trkpt lat="47.52077" lon="6.77551">
        <ele>403.4</ele>
        <time>2014-05-01T07:35:24.000Z</time>
      </trkpt>
      <trkpt lat="47.5208" lon="6.77551">
        <ele>403.4</ele>
        <time>2014-05-01T07:35:25.000Z</time>
      </trkpt>
      <trkpt lat="47.52083" lon="6.77552">
        <ele>401.9</ele>
        <time>2014-05-01T07:35:26.000Z</time>
      </trkpt>
      <trkpt lat="47.52087" lon="6.77554">
        <ele>401.2</ele>
        <time>2014-05-01T07:35:27.000Z</time>
      </trkpt>
      <trkpt lat="47.5209" lon="6.77557">
        <ele>401.6</ele>
        <time>2014-05-01T07:35:28.000Z</time>
      </trkpt>
      <trkpt lat="47.52092" lon="6.77561">
        <ele>403.1</ele>
        <time>2014-05-01T07:35:29.000Z</time>
      </trkpt>
      <trkpt lat="47.52093" lon="6.77565">
        <ele>403.4</ele>
        <time>2014-05-01T07:35:30.000Z</time>
      </trkpt>
      <trkpt lat="47.52094" lon="6.7757">
        <ele>403.7</ele>
        <time>2014-05-01T07:35:31.000Z</time>
      </trkpt>
      <trkpt lat="47.52094" lon="6.77576">
        <ele>406.7</ele>
        <time>2014-05-01T07:35:32.000Z</time>
      </trkpt>
      <trkpt lat="47.52094" lon="6.77581">
        <ele>407.2</ele>
        <time>2014-05-01T07:35:33.000Z</time>
      </trkpt>
      <trkpt lat="47.52093" lon="6.77586">
        <ele>406.3</ele>
        <time>2014-05-01T07:35:34.000Z</time>
      </trkpt>
      <trkpt lat="47.52093" lon="6.77592">
        <ele>405.2</ele>
        <time>2014-05-01T07:35:35.000Z</time>
      </trkpt>
      <trkpt lat="47.52093" lon="6.77598">
        <ele>404.3</ele>
        <time>2014-05-01T07:35:36.000Z</time>
      </trkpt>
      <trkpt lat="47.52093" lon="6.77604">
        <ele>402.5</ele>
        <time>2014-05-01T07:35:37.000Z</time>
      </trkpt>
      <trkpt lat="47.52093" lon="6.77611">
        <ele>403.6</ele>
        <time>2014-05-01T07:35:38.000Z</time>
      </trkpt>
      <trkpt lat="47.52092" lon="6.77617">
        <ele>403.6</ele>
        <time>2014-05-01T07:35:39.000Z</time>
      </trkpt>
      <trkpt lat="47.52092" lon="6.77623">
        <ele>402.8</ele>
        <time>2014-05-01T07:35:40.000Z</time>
      </trkpt>
      <trkpt lat="47.52092" lon="6.77629">
        <ele>402.8</ele>
        <time>2014-05-01T07:35:41.000Z</time>
      </trkpt>
      <trkpt lat="47.52092" lon="6.77635">
        <ele>402.4</ele>
        <time>2014-05-01T07:35:42.000Z</time>
      </trkpt>
      <trkpt lat="47.52092" lon="6.7764">
        <ele>402.7</ele>
        <time>2014-05-01T07:35:43.000Z</time>
      </trkpt>
      <trkpt lat="47.52092" lon="6.77646">
        <ele>403.6</ele>
        <time>2014-05-01T07:35:44.000Z</time>
      </trkpt>
      <trkpt lat="47.52092" lon="6.77652">
        <ele>403.9</ele>
        <time>2014-05-01T07:35:45.000Z</time>
      </trkpt>
      <trkpt lat="47.52092" lon="6.77657">
        <ele>404.4</ele>
        <time>2014-05-01T07:35:46.000Z</time>
      </trkpt>
      <trkpt lat="47.52092" lon="6.77662">
        <ele>405.2</ele>
        <time>2014-05-01T07:35:47.000Z</time>
      </trkpt>
      <trkpt lat="47.52092" lon="6.77666">
        <ele>405.3</ele>
        <time>2014-05-01T07:35:48.000Z</time>
      </trkpt>
      <trkpt lat="47.52093" lon="6.7767">
        <ele>405.7</ele>
        <time>2014-05-01T07:35:49.000Z</time>
      </trkpt>
      <trkpt lat="47.52094" lon="6.77673">
        <ele>405.7</ele>
        <time>2014-05-01T07:35:50.000Z</time>
      </trkpt>
      <trkpt lat="47.52097" lon="6.77674">
        <ele>404.8</ele>
        <time>2014-05-01T07:35:51.000Z</time>
      </trkpt>
      <trkpt lat="47.52101" lon="6.77674">
        <ele>403.1</ele>
        <time>2014-05-01T07:35:52.000Z</time>
      </trkpt>
      <trkpt lat="47.5211" lon="6.77665">
        <ele>403.7</ele>
        <time>2014-05-01T07:35:53.000Z</time>
      </trkpt>
      <trkpt lat="47.52114" lon="6.77662">
        <ele>403</ele>
        <time>2014-05-01T07:35:54.000Z</time>
      </trkpt>
      <trkpt lat="47.52119" lon="6.7766">
        <ele>402.1</ele>
        <time>2014-05-01T07:35:55.000Z</time>
      </trkpt>
      <trkpt lat="47.52124" lon="6.77657">
        <ele>401.8</ele>
        <time>2014-05-01T07:35:56.000Z</time>
      </trkpt>
      <trkpt lat="47.5213" lon="6.77655">
        <ele>401.5</ele>
        <time>2014-05-01T07:35:57.000Z</time>
      </trkpt>
      <trkpt lat="47.52136" lon="6.7765">
        <ele>400.7</ele>
        <time>2014-05-01T07:35:58.000Z</time>
      </trkpt>
      <trkpt lat="47.52142" lon="6.77647">
        <ele>399.4</ele>
        <time>2014-05-01T07:35:59.000Z</time>
      </trkpt>
      <trkpt lat="47.52148" lon="6.77643">
        <ele>399.3</ele>
        <time>2014-05-01T07:36:00.000Z</time>
      </trkpt>
      <trkpt lat="47.52153" lon="6.77641">
        <ele>399.2</ele>
        <time>2014-05-01T07:36:01.000Z</time>
      </trkpt>
      <trkpt lat="47.52158" lon="6.77638">
        <ele>398.5</ele>
        <time>2014-05-01T07:36:02.000Z</time>
      </trkpt>
      <trkpt lat="47.52162" lon="6.77635">
        <ele>395.1</ele>
        <time>2014-05-01T07:36:03.000Z</time>
      </trkpt>
      <trkpt lat="47.52167" lon="6.7763">
        <ele>395.2</ele>
        <time>2014-05-01T07:36:04.000Z</time>
      </trkpt>
      <trkpt lat="47.52173" lon="6.77626">
        <ele>395.3</ele>
        <time>2014-05-01T07:36:05.000Z</time>
      </trkpt>
      <trkpt lat="47.52209" lon="6.776">
        <ele>395.4</ele>
        <time>2014-05-01T07:36:13.000Z</time>
      </trkpt>
      <trkpt lat="47.52214" lon="6.77597">
        <ele>394.6</ele>
        <time>2014-05-01T07:36:14.000Z</time>
      </trkpt>
      <trkpt lat="47.52219" lon="6.77593">
        <ele>395.1</ele>
        <time>2014-05-01T07:36:15.000Z</time>
      </trkpt>
      <trkpt lat="47.52224" lon="6.77589">
        <ele>395.8</ele>
        <time>2014-05-01T07:36:16.000Z</time>
      </trkpt>
      <trkpt lat="47.52229" lon="6.77586">
        <ele>395.4</ele>
        <time>2014-05-01T07:36:17.000Z</time>
      </trkpt>
      <trkpt lat="47.52233" lon="6.77584">
        <ele>395.2</ele>
        <time>2014-05-01T07:36:18.000Z</time>
      </trkpt>
      <trkpt lat="47.52236" lon="6.77581">
        <ele>395.4</ele>
        <time>2014-05-01T07:36:19.000Z</time>
      </trkpt>
      <trkpt lat="47.52241" lon="6.7758">
        <ele>396.2</ele>
        <time>2014-05-01T07:36:20.000Z</time>
      </trkpt>
      <trkpt lat="47.52245" lon="6.77578">
        <ele>396.5</ele>
        <time>2014-05-01T07:36:21.000Z</time>
      </trkpt>
      <trkpt lat="47.5225" lon="6.77575">
        <ele>397.2</ele>
        <time>2014-05-01T07:36:22.000Z</time>
      </trkpt>
      <trkpt lat="47.52254" lon="6.77572">
        <ele>396.4</ele>
        <time>2014-05-01T07:36:23.000Z</time>
      </trkpt>
      <trkpt lat="47.52258" lon="6.7757">
        <ele>396.5</ele>
        <time>2014-05-01T07:36:24.000Z</time>
      </trkpt>
      <trkpt lat="47.52262" lon="6.77567">
        <ele>396.9</ele>
        <time>2014-05-01T07:36:25.000Z</time>
      </trkpt>
      <trkpt lat="47.52267" lon="6.77563">
        <ele>396.7</ele>
        <time>2014-05-01T07:36:26.000Z</time>
      </trkpt>
      <trkpt lat="47.52271" lon="6.7756">
        <ele>396.3</ele>
        <time>2014-05-01T07:36:27.000Z</time>
      </trkpt>
      <trkpt lat="47.52275" lon="6.77557">
        <ele>395.7</ele>
        <time>2014-05-01T07:36:28.000Z</time>
      </trkpt>
      <trkpt lat="47.5228" lon="6.77554">
        <ele>395.5</ele>
        <time>2014-05-01T07:36:29.000Z</time>
      </trkpt>
      <trkpt lat="47.52284" lon="6.7755">
        <ele>395</ele>
        <time>2014-05-01T07:36:30.000Z</time>
      </trkpt>
      <trkpt lat="47.52287" lon="6.77547">
        <ele>394.8</ele>
        <time>2014-05-01T07:36:31.000Z</time>
      </trkpt>
      <trkpt lat="47.52292" lon="6.77545">
        <ele>395.1</ele>
        <time>2014-05-01T07:36:32.000Z</time>
      </trkpt>
      <trkpt lat="47.52295" lon="6.77544">
        <ele>394</ele>
        <time>2014-05-01T07:36:33.000Z</time>
      </trkpt>
      <trkpt lat="47.52298" lon="6.77541">
        <ele>393.2</ele>
        <time>2014-05-01T07:36:34.000Z</time>
      </trkpt>
      <trkpt lat="47.52302" lon="6.77538">
        <ele>392.5</ele>
        <time>2014-05-01T07:36:35.000Z</time>
      </trkpt>
      <trkpt lat="47.52306" lon="6.77536">
        <ele>393.2</ele>
        <time>2014-05-01T07:36:36.000Z</time>
      </trkpt>
      <trkpt lat="47.5231" lon="6.77533">
        <ele>393.2</ele>
        <time>2014-05-01T07:36:37.000Z</time>
      </trkpt>
      <trkpt lat="47.52314" lon="6.7753">
        <ele>394.2</ele>
        <time>2014-05-01T07:36:38.000Z</time>
      </trkpt>
      <trkpt lat="47.52317" lon="6.77527">
        <ele>394.4</ele>
        <time>2014-05-01T07:36:39.000Z</time>
      </trkpt>
      <trkpt lat="47.52321" lon="6.77524">
        <ele>395.1</ele>
        <time>2014-05-01T07:36:40.000Z</time>
      </trkpt>
      <trkpt lat="47.52325" lon="6.77522">
        <ele>395.1</ele>
        <time>2014-05-01T07:36:41.000Z</time>
      </trkpt>
      <trkpt lat="47.52328" lon="6.7752">
        <ele>394.6</ele>
        <time>2014-05-01T07:36:42.000Z</time>
      </trkpt>
      <trkpt lat="47.52332" lon="6.77518">
        <ele>394.4</ele>
        <time>2014-05-01T07:36:43.000Z</time>
      </trkpt>
      <trkpt lat="47.52335" lon="6.77515">
        <ele>395.2</ele>
        <time>2014-05-01T07:36:44.000Z</time>
      </trkpt>
      <trkpt lat="47.52338" lon="6.77512">
        <ele>395.5</ele>
        <time>2014-05-01T07:36:45.000Z</time>
      </trkpt>
      <trkpt lat="47.52341" lon="6.7751">
        <ele>395.7</ele>
        <time>2014-05-01T07:36:46.000Z</time>
      </trkpt>
      <trkpt lat="47.52345" lon="6.77507">
        <ele>395.6</ele>
        <time>2014-05-01T07:36:47.000Z</time>
      </trkpt>
      <trkpt lat="47.52348" lon="6.77504">
        <ele>396.2</ele>
        <time>2014-05-01T07:36:48.000Z</time>
      </trkpt>
      <trkpt lat="47.52352" lon="6.77502">
        <ele>396.5</ele>
        <time>2014-05-01T07:36:49.000Z</time>
      </trkpt>
      <trkpt lat="47.52355" lon="6.775">
        <ele>396.4</ele>
        <time>2014-05-01T07:36:50.000Z</time>
      </trkpt>
      <trkpt lat="47.52359" lon="6.77498">
        <ele>396.3</ele>
        <time>2014-05-01T07:36:51.000Z</time>
      </trkpt>
      <trkpt lat="47.52363" lon="6.77496">
        <ele>396.3</ele>
        <time>2014-05-01T07:36:52.000Z</time>
      </trkpt>
      <trkpt lat="47.52366" lon="6.77494">
        <ele>396.1</ele>
        <time>2014-05-01T07:36:53.000Z</time>
      </trkpt>
      <trkpt lat="47.52369" lon="6.77492">
        <ele>395.7</ele>
        <time>2014-05-01T07:36:54.000Z</time>
      </trkpt>
      <trkpt lat="47.52372" lon="6.7749">
        <ele>396.3</ele>
        <time>2014-05-01T07:36:55.000Z</time>
      </trkpt>
      <trkpt lat="47.52376" lon="6.77488">
        <ele>395.6</ele>
        <time>2014-05-01T07:36:56.000Z</time>
      </trkpt>
      <trkpt lat="47.5238" lon="6.77486">
        <ele>395.9</ele>
        <time>2014-05-01T07:36:57.000Z</time>
      </trkpt>
      <trkpt lat="47.52384" lon="6.77484">
        <ele>396.7</ele>
        <time>2014-05-01T07:36:58.000Z</time>
      </trkpt>
      <trkpt lat="47.52387" lon="6.77481">
        <ele>397.2</ele>
        <time>2014-05-01T07:36:59.000Z</time>
      </trkpt>
      <trkpt lat="47.52392" lon="6.77477">
        <ele>396.7</ele>
        <time>2014-05-01T07:37:00.000Z</time>
      </trkpt>
      <trkpt lat="47.52396" lon="6.77474">
        <ele>397.4</ele>
        <time>2014-05-01T07:37:01.000Z</time>
      </trkpt>
      <trkpt lat="47.524" lon="6.77472">
        <ele>397.1</ele>
        <time>2014-05-01T07:37:02.000Z</time>
      </trkpt>
      <trkpt lat="47.52403" lon="6.7747">
        <ele>396.8</ele>
        <time>2014-05-01T07:37:03.000Z</time>
      </trkpt>
      <trkpt lat="47.52409" lon="6.77464">
        <ele>395.1</ele>
        <time>2014-05-01T07:37:04.000Z</time>
      </trkpt>
      <trkpt lat="47.52412" lon="6.77463">
        <ele>396.3</ele>
        <time>2014-05-01T07:37:05.000Z</time>
      </trkpt>
      <trkpt lat="47.52434" lon="6.77465">
        <ele>398.6</ele>
        <time>2014-05-01T07:37:13.000Z</time>
      </trkpt>
      <trkpt lat="47.52436" lon="6.77467">
        <ele>398.3</ele>
        <time>2014-05-01T07:37:14.000Z</time>
      </trkpt>
      <trkpt lat="47.52439" lon="6.77466">
        <ele>398.2</ele>
        <time>2014-05-01T07:37:15.000Z</time>
      </trkpt>
      <trkpt lat="47.52442" lon="6.77468">
        <ele>396.5</ele>
        <time>2014-05-01T07:37:16.000Z</time>
      </trkpt>
      <trkpt lat="47.52444" lon="6.77469">
        <ele>397.2</ele>
        <time>2014-05-01T07:37:17.000Z</time>
      </trkpt>
      <trkpt lat="47.52448" lon="6.77471">
        <ele>396.2</ele>
        <time>2014-05-01T07:37:19.000Z</time>
      </trkpt>
      <trkpt lat="47.5245" lon="6.77472">
        <ele>395.2</ele>
        <time>2014-05-01T07:37:20.000Z</time>
      </trkpt>
      <trkpt lat="47.52454" lon="6.77473">
        <ele>395.5</ele>
        <time>2014-05-01T07:37:22.000Z</time>
      </trkpt>
      <trkpt lat="47.52457" lon="6.77473">
        <ele>402.2</ele>
        <time>2014-05-01T07:37:23.000Z</time>
      </trkpt>
      <trkpt lat="47.5246" lon="6.77474">
        <ele>405.6</ele>
        <time>2014-05-01T07:37:24.000Z</time>
      </trkpt>
      <trkpt lat="47.52464" lon="6.77474">
        <ele>405.5</ele>
        <time>2014-05-01T07:37:25.000Z</time>
      </trkpt>
      <trkpt lat="47.52468" lon="6.77474">
        <ele>406.5</ele>
        <time>2014-05-01T07:37:26.000Z</time>
      </trkpt>
      <trkpt lat="47.52471" lon="6.77473">
        <ele>407.6</ele>
        <time>2014-05-01T07:37:27.000Z</time>
      </trkpt>
      <trkpt lat="47.52476" lon="6.77473">
        <ele>408</ele>
        <time>2014-05-01T07:37:28.000Z</time>
      </trkpt>
      <trkpt lat="47.5248" lon="6.77472">
        <ele>408.6</ele>
        <time>2014-05-01T07:37:29.000Z</time>
      </trkpt>
      <trkpt lat="47.52484" lon="6.77471">
        <ele>409</ele>
        <time>2014-05-01T07:37:30.000Z</time>
      </trkpt>
      <trkpt lat="47.52488" lon="6.7747">
        <ele>409</ele>
        <time>2014-05-01T07:37:31.000Z</time>
      </trkpt>
      <trkpt lat="47.52492" lon="6.7747">
        <ele>407.6</ele>
        <time>2014-05-01T07:37:32.000Z</time>
      </trkpt>
      <trkpt lat="47.52495" lon="6.77471">
        <ele>408.5</ele>
        <time>2014-05-01T07:37:33.000Z</time>
      </trkpt>
      <trkpt lat="47.52497" lon="6.77473">
        <ele>406.8</ele>
        <time>2014-05-01T07:37:34.000Z</time>
      </trkpt>
      <trkpt lat="47.52499" lon="6.77476">
        <ele>406</ele>
        <time>2014-05-01T07:37:35.000Z</time>
      </trkpt>
      <trkpt lat="47.52501" lon="6.7748">
        <ele>404.8</ele>
        <time>2014-05-01T07:37:36.000Z</time>
      </trkpt>
      <trkpt lat="47.52504" lon="6.77483">
        <ele>406.2</ele>
        <time>2014-05-01T07:37:37.000Z</time>
      </trkpt>
      <trkpt lat="47.52506" lon="6.77484">
        <ele>403.3</ele>
        <time>2014-05-01T07:37:38.000Z</time>
      </trkpt>
      <trkpt lat="47.52509" lon="6.77485">
        <ele>401.1</ele>
        <time>2014-05-01T07:37:39.000Z</time>
      </trkpt>
      <trkpt lat="47.52513" lon="6.77484">
        <ele>402.9</ele>
        <time>2014-05-01T07:37:40.000Z</time>
      </trkpt>
      <trkpt lat="47.52516" lon="6.77483">
        <ele>403.7</ele>
        <time>2014-05-01T07:37:41.000Z</time>
      </trkpt>
      <trkpt lat="47.5252" lon="6.77482">
        <ele>404.4</ele>
        <time>2014-05-01T07:37:42.000Z</time>
      </trkpt>
      <trkpt lat="47.52523" lon="6.7748">
        <ele>402.8</ele>
        <time>2014-05-01T07:37:43.000Z</time>
      </trkpt>
      <trkpt lat="47.52526" lon="6.77477">
        <ele>403</ele>
        <time>2014-05-01T07:37:44.000Z</time>
      </trkpt>
      <trkpt lat="47.5253" lon="6.77476">
        <ele>404.2</ele>
        <time>2014-05-01T07:37:45.000Z</time>
      </trkpt>
      <trkpt lat="47.52532" lon="6.77474">
        <ele>404.3</ele>
        <time>2014-05-01T07:37:46.000Z</time>
      </trkpt>
      <trkpt lat="47.52535" lon="6.77473">
        <ele>404.4</ele>
        <time>2014-05-01T07:37:47.000Z</time>
      </trkpt>
      <trkpt lat="47.52537" lon="6.77471">
        <ele>404.7</ele>
        <time>2014-05-01T07:37:48.000Z</time>
      </trkpt>
      <trkpt lat="47.5254" lon="6.7747">
        <ele>404.7</ele>
        <time>2014-05-01T07:37:49.000Z</time>
      </trkpt>
      <trkpt lat="47.52543" lon="6.7747">
        <ele>404.4</ele>
        <time>2014-05-01T07:37:50.000Z</time>
      </trkpt>
      <trkpt lat="47.52545" lon="6.77472">
        <ele>404.7</ele>
        <time>2014-05-01T07:37:51.000Z</time>
      </trkpt>
      <trkpt lat="47.52548" lon="6.77474">
        <ele>405</ele>
        <time>2014-05-01T07:37:52.000Z</time>
      </trkpt>
      <trkpt lat="47.5255" lon="6.77475">
        <ele>404.7</ele>
        <time>2014-05-01T07:37:53.000Z</time>
      </trkpt>
      <trkpt lat="47.52552" lon="6.77477">
        <ele>404.8</ele>
        <time>2014-05-01T07:37:54.000Z</time>
      </trkpt>
      <trkpt lat="47.52554" lon="6.77478">
        <ele>404.7</ele>
        <time>2014-05-01T07:37:55.000Z</time>
      </trkpt>
      <trkpt lat="47.52556" lon="6.77479">
        <ele>405</ele>
        <time>2014-05-01T07:37:56.000Z</time>
      </trkpt>
      <trkpt lat="47.52559" lon="6.7748">
        <ele>405.9</ele>
        <time>2014-05-01T07:37:57.000Z</time>
      </trkpt>
      <trkpt lat="47.52562" lon="6.7748">
        <ele>405.6</ele>
        <time>2014-05-01T07:37:58.000Z</time>
      </trkpt>
      <trkpt lat="47.52565" lon="6.7748">
        <ele>403.9</ele>
        <time>2014-05-01T07:37:59.000Z</time>
      </trkpt>
      <trkpt lat="47.52568" lon="6.77481">
        <ele>404.5</ele>
        <time>2014-05-01T07:38:00.000Z</time>
      </trkpt>
      <trkpt lat="47.52571" lon="6.77482">
        <ele>405.5</ele>
        <time>2014-05-01T07:38:01.000Z</time>
      </trkpt>
      <trkpt lat="47.52574" lon="6.77482">
        <ele>405.6</ele>
        <time>2014-05-01T07:38:02.000Z</time>
      </trkpt>
      <trkpt lat="47.52576" lon="6.77483">
        <ele>405.9</ele>
        <time>2014-05-01T07:38:03.000Z</time>
      </trkpt>
      <trkpt lat="47.52579" lon="6.77483">
        <ele>405.4</ele>
        <time>2014-05-01T07:38:04.000Z</time>
      </trkpt>
      <trkpt lat="47.52581" lon="6.77484">
        <ele>405.9</ele>
        <time>2014-05-01T07:38:05.000Z</time>
      </trkpt>
      <trkpt lat="47.52601" lon="6.77501">
        <ele>404.1</ele>
        <time>2014-05-01T07:38:13.000Z</time>
      </trkpt>
      <trkpt lat="47.52603" lon="6.77502">
        <ele>403.9</ele>
        <time>2014-05-01T07:38:14.000Z</time>
      </trkpt>
      <trkpt lat="47.52606" lon="6.775">
        <ele>402.6</ele>
        <time>2014-05-01T07:38:15.000Z</time>
      </trkpt>
      <trkpt lat="47.52609" lon="6.77498">
        <ele>403.2</ele>
        <time>2014-05-01T07:38:16.000Z</time>
      </trkpt>
      <trkpt lat="47.52611" lon="6.77494">
        <ele>405</ele>
        <time>2014-05-01T07:38:17.000Z</time>
      </trkpt>
      <trkpt lat="47.52613" lon="6.77491">
        <ele>406.4</ele>
        <time>2014-05-01T07:38:18.000Z</time>
      </trkpt>
      <trkpt lat="47.52615" lon="6.77487">
        <ele>404.5</ele>
        <time>2014-05-01T07:38:19.000Z</time>
      </trkpt>
      <trkpt lat="47.52618" lon="6.77483">
        <ele>404</ele>
        <time>2014-05-01T07:38:20.000Z</time>
      </trkpt>
      <trkpt lat="47.5262" lon="6.7748">
        <ele>403.6</ele>
        <time>2014-05-01T07:38:21.000Z</time>
      </trkpt>
      <trkpt lat="47.52622" lon="6.77475">
        <ele>404.4</ele>
        <time>2014-05-01T07:38:22.000Z</time>
      </trkpt>
      <trkpt lat="47.52624" lon="6.7747">
        <ele>405.1</ele>
        <time>2014-05-01T07:38:23.000Z</time>
      </trkpt>
      <trkpt lat="47.52626" lon="6.77466">
        <ele>404.5</ele>
        <time>2014-05-01T07:38:24.000Z</time>
      </trkpt>
      <trkpt lat="47.52629" lon="6.77462">
        <ele>405.2</ele>
        <time>2014-05-01T07:38:25.000Z</time>
      </trkpt>
      <trkpt lat="47.52632" lon="6.77458">
        <ele>404.9</ele>
        <time>2014-05-01T07:38:26.000Z</time>
      </trkpt>
      <trkpt lat="47.52635" lon="6.77456">
        <ele>405.2</ele>
        <time>2014-05-01T07:38:27.000Z</time>
      </trkpt>
      <trkpt lat="47.52638" lon="6.77454">
        <ele>405.8</ele>
        <time>2014-05-01T07:38:28.000Z</time>
      </trkpt>
      <trkpt lat="47.5264" lon="6.77452">
        <ele>406.3</ele>
        <time>2014-05-01T07:38:29.000Z</time>
      </trkpt>
      <trkpt lat="47.52643" lon="6.77452">
        <ele>407</ele>
        <time>2014-05-01T07:38:30.000Z</time>
      </trkpt>
      <trkpt lat="47.52645" lon="6.77451">
        <ele>408.9</ele>
        <time>2014-05-01T07:38:31.000Z</time>
      </trkpt>
      <trkpt lat="47.52648" lon="6.77448">
        <ele>406.5</ele>
        <time>2014-05-01T07:38:33.000Z</time>
      </trkpt>
      <trkpt lat="47.52649" lon="6.77447">
        <ele>406.4</ele>
        <time>2014-05-01T07:38:34.000Z</time>
      </trkpt>
      <trkpt lat="47.52653" lon="6.77445">
        <ele>406.4</ele>
        <time>2014-05-01T07:38:37.000Z</time>
      </trkpt>
      <trkpt lat="47.52655" lon="6.77444">
        <ele>406.5</ele>
        <time>2014-05-01T07:38:38.000Z</time>
      </trkpt>
      <trkpt lat="47.52657" lon="6.77444">
        <ele>406.5</ele>
        <time>2014-05-01T07:38:39.000Z</time>
      </trkpt>
      <trkpt lat="47.5266" lon="6.77443">
        <ele>407.9</ele>
        <time>2014-05-01T07:38:40.000Z</time>
      </trkpt>
      <trkpt lat="47.52663" lon="6.77444">
        <ele>408.8</ele>
        <time>2014-05-01T07:38:41.000Z</time>
      </trkpt>
      <trkpt lat="47.52665" lon="6.77445">
        <ele>408.3</ele>
        <time>2014-05-01T07:38:42.000Z</time>
      </trkpt>
      <trkpt lat="47.52668" lon="6.77447">
        <ele>412</ele>
        <time>2014-05-01T07:38:43.000Z</time>
      </trkpt>
      <trkpt lat="47.5267" lon="6.77448">
        <ele>412.7</ele>
        <time>2014-05-01T07:38:44.000Z</time>
      </trkpt>
      <trkpt lat="47.52673" lon="6.7745">
        <ele>413.8</ele>
        <time>2014-05-01T07:38:45.000Z</time>
      </trkpt>
      <trkpt lat="47.52675" lon="6.77451">
        <ele>412.8</ele>
        <time>2014-05-01T07:38:46.000Z</time>
      </trkpt>
      <trkpt lat="47.52678" lon="6.77454">
        <ele>416.4</ele>
        <time>2014-05-01T07:38:48.000Z</time>
      </trkpt>
      <trkpt lat="47.5268" lon="6.77457">
        <ele>413.9</ele>
        <time>2014-05-01T07:38:49.000Z</time>
      </trkpt>
      <trkpt lat="47.52681" lon="6.7746">
        <ele>412.1</ele>
        <time>2014-05-01T07:38:50.000Z</time>
      </trkpt>
      <trkpt lat="47.52682" lon="6.77463">
        <ele>412.1</ele>
        <time>2014-05-01T07:38:51.000Z</time>
      </trkpt>
      <trkpt lat="47.52683" lon="6.77469">
        <ele>419.3</ele>
        <time>2014-05-01T07:38:53.000Z</time>
      </trkpt>
      <trkpt lat="47.52684" lon="6.77471">
        <ele>419.9</ele>
        <time>2014-05-01T07:38:54.000Z</time>
      </trkpt>
      <trkpt lat="47.52687" lon="6.77475">
        <ele>416.1</ele>
        <time>2014-05-01T07:38:56.000Z</time>
      </trkpt>
      <trkpt lat="47.52689" lon="6.77477">
        <ele>411.7</ele>
        <time>2014-05-01T07:38:57.000Z</time>
      </trkpt>
      <trkpt lat="47.52691" lon="6.77478">
        <ele>410.7</ele>
        <time>2014-05-01T07:38:58.000Z</time>
      </trkpt>
      <trkpt lat="47.52694" lon="6.77478">
        <ele>410.6</ele>
        <time>2014-05-01T07:38:59.000Z</time>
      </trkpt>
      <trkpt lat="47.52697" lon="6.77479">
        <ele>411</ele>
        <time>2014-05-01T07:39:00.000Z</time>
      </trkpt>
      <trkpt lat="47.52701" lon="6.7748">
        <ele>409.5</ele>
        <time>2014-05-01T07:39:01.000Z</time>
      </trkpt>
      <trkpt lat="47.52703" lon="6.77481">
        <ele>408.3</ele>
        <time>2014-05-01T07:39:02.000Z</time>
      </trkpt>
      <trkpt lat="47.52707" lon="6.77484">
        <ele>408.5</ele>
        <time>2014-05-01T07:39:03.000Z</time>
      </trkpt>
      <trkpt lat="47.52709" lon="6.77486">
        <ele>410.4</ele>
        <time>2014-05-01T07:39:04.000Z</time>
      </trkpt>
      <trkpt lat="47.52712" lon="6.77488">
        <ele>411</ele>
        <time>2014-05-01T07:39:05.000Z</time>
      </trkpt>
      <trkpt lat="47.52735" lon="6.77499">
        <ele>405.2</ele>
        <time>2014-05-01T07:39:13.000Z</time>
      </trkpt>
      <trkpt lat="47.52739" lon="6.77501">
        <ele>405.6</ele>
        <time>2014-05-01T07:39:14.000Z</time>
      </trkpt>
      <trkpt lat="47.52742" lon="6.77503">
        <ele>404.4</ele>
        <time>2014-05-01T07:39:15.000Z</time>
      </trkpt>
      <trkpt lat="47.52746" lon="6.77506">
        <ele>403.3</ele>
        <time>2014-05-01T07:39:17.000Z</time>
      </trkpt>
      <trkpt lat="47.52747" lon="6.77507">
        <ele>403.5</ele>
        <time>2014-05-01T07:39:18.000Z</time>
      </trkpt>
      <trkpt lat="47.52749" lon="6.7751">
        <ele>403.1</ele>
        <time>2014-05-01T07:39:19.000Z</time>
      </trkpt>
      <trkpt lat="47.52751" lon="6.77513">
        <ele>403.5</ele>
        <time>2014-05-01T07:39:20.000Z</time>
      </trkpt>
      <trkpt lat="47.52754" lon="6.77517">
        <ele>403</ele>
        <time>2014-05-01T07:39:21.000Z</time>
      </trkpt>
      <trkpt lat="47.52757" lon="6.77521">
        <ele>402.3</ele>
        <time>2014-05-01T07:39:22.000Z</time>
      </trkpt>
      <trkpt lat="47.5276" lon="6.77524">
        <ele>400.9</ele>
        <time>2014-05-01T07:39:23.000Z</time>
      </trkpt>
      <trkpt lat="47.52764" lon="6.77526">
        <ele>400.2</ele>
        <time>2014-05-01T07:39:24.000Z</time>
      </trkpt>
      <trkpt lat="47.52767" lon="6.77528">
        <ele>400.4</ele>
        <time>2014-05-01T07:39:25.000Z</time>
      </trkpt>
      <trkpt lat="47.52771" lon="6.77529">
        <ele>401.1</ele>
        <time>2014-05-01T07:39:26.000Z</time>
      </trkpt>
      <trkpt lat="47.52775" lon="6.7753">
        <ele>400.1</ele>
        <time>2014-05-01T07:39:27.000Z</time>
      </trkpt>
      <trkpt lat="47.52779" lon="6.77532">
        <ele>399.9</ele>
        <time>2014-05-01T07:39:28.000Z</time>
      </trkpt>
      <trkpt lat="47.52783" lon="6.77533">
        <ele>398.7</ele>
        <time>2014-05-01T07:39:29.000Z</time>
      </trkpt>
      <trkpt lat="47.52786" lon="6.77535">
        <ele>398.5</ele>
        <time>2014-05-01T07:39:30.000Z</time>
      </trkpt>
      <trkpt lat="47.52789" lon="6.77538">
        <ele>398.7</ele>
        <time>2014-05-01T07:39:31.000Z</time>
      </trkpt>
      <trkpt lat="47.52792" lon="6.7754">
        <ele>400.4</ele>
        <time>2014-05-01T07:39:32.000Z</time>
      </trkpt>
      <trkpt lat="47.52795" lon="6.77542">
        <ele>401.5</ele>
        <time>2014-05-01T07:39:33.000Z</time>
      </trkpt>
      <trkpt lat="47.52798" lon="6.77544">
        <ele>401.3</ele>
        <time>2014-05-01T07:39:34.000Z</time>
      </trkpt>
      <trkpt lat="47.52801" lon="6.77546">
        <ele>402</ele>
        <time>2014-05-01T07:39:35.000Z</time>
      </trkpt>
      <trkpt lat="47.52804" lon="6.77548">
        <ele>402.6</ele>
        <time>2014-05-01T07:39:36.000Z</time>
      </trkpt>
      <trkpt lat="47.52807" lon="6.7755">
        <ele>404</ele>
        <time>2014-05-01T07:39:37.000Z</time>
      </trkpt>
      <trkpt lat="47.5281" lon="6.77552">
        <ele>405.8</ele>
        <time>2014-05-01T07:39:38.000Z</time>
      </trkpt>
      <trkpt lat="47.52813" lon="6.77554">
        <ele>405.5</ele>
        <time>2014-05-01T07:39:39.000Z</time>
      </trkpt>
      <trkpt lat="47.52817" lon="6.77556">
        <ele>405.4</ele>
        <time>2014-05-01T07:39:40.000Z</time>
      </trkpt>
      <trkpt lat="47.5282" lon="6.77558">
        <ele>406.1</ele>
        <time>2014-05-01T07:39:41.000Z</time>
      </trkpt>
      <trkpt lat="47.52823" lon="6.77559">
        <ele>406.7</ele>
        <time>2014-05-01T07:39:42.000Z</time>
      </trkpt>
      <trkpt lat="47.52826" lon="6.7756">
        <ele>406.7</ele>
        <time>2014-05-01T07:39:43.000Z</time>
      </trkpt>
      <trkpt lat="47.5283" lon="6.77561">
        <ele>408.3</ele>
        <time>2014-05-01T07:39:44.000Z</time>
      </trkpt>
      <trkpt lat="47.52832" lon="6.77562">
        <ele>408.8</ele>
        <time>2014-05-01T07:39:45.000Z</time>
      </trkpt>
      <trkpt lat="47.52835" lon="6.77564">
        <ele>409.3</ele>
        <time>2014-05-01T07:39:46.000Z</time>
      </trkpt>
      <trkpt lat="47.52837" lon="6.77566">
        <ele>408.8</ele>
        <time>2014-05-01T07:39:47.000Z</time>
      </trkpt>
      <trkpt lat="47.52839" lon="6.77568">
        <ele>408.5</ele>
        <time>2014-05-01T07:39:48.000Z</time>
      </trkpt>
      <trkpt lat="47.52842" lon="6.77569">
        <ele>410.1</ele>
        <time>2014-05-01T07:39:49.000Z</time>
      </trkpt>
      <trkpt lat="47.52845" lon="6.77568">
        <ele>410.8</ele>
        <time>2014-05-01T07:39:50.000Z</time>
      </trkpt>
      <trkpt lat="47.52848" lon="6.77568">
        <ele>411.8</ele>
        <time>2014-05-01T07:39:51.000Z</time>
      </trkpt>
      <trkpt lat="47.52852" lon="6.77567">
        <ele>412.1</ele>
        <time>2014-05-01T07:39:52.000Z</time>
      </trkpt>
      <trkpt lat="47.52855" lon="6.77567">
        <ele>412.8</ele>
        <time>2014-05-01T07:39:53.000Z</time>
      </trkpt>
      <trkpt lat="47.52859" lon="6.77567">
        <ele>412.6</ele>
        <time>2014-05-01T07:39:54.000Z</time>
      </trkpt>
      <trkpt lat="47.52863" lon="6.77567">
        <ele>413.4</ele>
        <time>2014-05-01T07:39:55.000Z</time>
      </trkpt>
      <trkpt lat="47.52867" lon="6.77568">
        <ele>414</ele>
        <time>2014-05-01T07:39:56.000Z</time>
      </trkpt>
      <trkpt lat="47.52871" lon="6.77568">
        <ele>413.8</ele>
        <time>2014-05-01T07:39:57.000Z</time>
      </trkpt>
      <trkpt lat="47.52874" lon="6.77569">
        <ele>413.4</ele>
        <time>2014-05-01T07:39:58.000Z</time>
      </trkpt>
      <trkpt lat="47.52878" lon="6.77569">
        <ele>413.9</ele>
        <time>2014-05-01T07:39:59.000Z</time>
      </trkpt>
      <trkpt lat="47.52881" lon="6.77568">
        <ele>414.7</ele>
        <time>2014-05-01T07:40:00.000Z</time>
      </trkpt>
      <trkpt lat="47.52884" lon="6.77568">
        <ele>414.6</ele>
        <time>2014-05-01T07:40:01.000Z</time>
      </trkpt>
      <trkpt lat="47.52887" lon="6.77568">
        <ele>414.9</ele>
        <time>2014-05-01T07:40:02.000Z</time>
      </trkpt>
      <trkpt lat="47.52891" lon="6.77569">
        <ele>416.1</ele>
        <time>2014-05-01T07:40:03.000Z</time>
      </trkpt>
      <trkpt lat="47.52894" lon="6.77568">
        <ele>416.5</ele>
        <time>2014-05-01T07:40:04.000Z</time>
      </trkpt>
      <trkpt lat="47.52897" lon="6.77568">
        <ele>415.7</ele>
        <time>2014-05-01T07:40:05.000Z</time>
      </trkpt>
      <trkpt lat="47.52929" lon="6.77563">
        <ele>413</ele>
        <time>2014-05-01T07:40:13.000Z</time>
      </trkpt>
      <trkpt lat="47.52932" lon="6.77563">
        <ele>412.3</ele>
        <time>2014-05-01T07:40:14.000Z</time>
      </trkpt>
      <trkpt lat="47.52936" lon="6.77564">
        <ele>411.1</ele>
        <time>2014-05-01T07:40:15.000Z</time>
      </trkpt>
      <trkpt lat="47.52939" lon="6.77565">
        <ele>410.4</ele>
        <time>2014-05-01T07:40:16.000Z</time>
      </trkpt>
      <trkpt lat="47.52943" lon="6.77566">
        <ele>411</ele>
        <time>2014-05-01T07:40:17.000Z</time>
      </trkpt>
      <trkpt lat="47.52946" lon="6.77566">
        <ele>410.8</ele>
        <time>2014-05-01T07:40:18.000Z</time>
      </trkpt>
      <trkpt lat="47.52949" lon="6.77567">
        <ele>411.9</ele>
        <time>2014-05-01T07:40:19.000Z</time>
      </trkpt>
      <trkpt lat="47.52953" lon="6.77568">
        <ele>411.4</ele>
        <time>2014-05-01T07:40:20.000Z</time>
      </trkpt>
      <trkpt lat="47.52956" lon="6.77569">
        <ele>412.1</ele>
        <time>2014-05-01T07:40:21.000Z</time>
      </trkpt>
      <trkpt lat="47.52959" lon="6.77569">
        <ele>412</ele>
        <time>2014-05-01T07:40:22.000Z</time>
      </trkpt>
      <trkpt lat="47.52961" lon="6.77569">
        <ele>411.7</ele>
        <time>2014-05-01T07:40:23.000Z</time>
      </trkpt>
      <trkpt lat="47.52964" lon="6.7757">
        <ele>412.8</ele>
        <time>2014-05-01T07:40:24.000Z</time>
      </trkpt>
      <trkpt lat="47.52966" lon="6.77571">
        <ele>412.9</ele>
        <time>2014-05-01T07:40:25.000Z</time>
      </trkpt>
      <trkpt lat="47.52968" lon="6.77572">
        <ele>414.5</ele>
        <time>2014-05-01T07:40:26.000Z</time>
      </trkpt>
      <trkpt lat="47.52971" lon="6.77573">
        <ele>415.7</ele>
        <time>2014-05-01T07:40:27.000Z</time>
      </trkpt>
      <trkpt lat="47.52973" lon="6.77575">
        <ele>414.6</ele>
        <time>2014-05-01T07:40:28.000Z</time>
      </trkpt>
      <trkpt lat="47.52976" lon="6.77576">
        <ele>413.8</ele>
        <time>2014-05-01T07:40:29.000Z</time>
      </trkpt>
      <trkpt lat="47.52979" lon="6.77576">
        <ele>416.5</ele>
        <time>2014-05-01T07:40:30.000Z</time>
      </trkpt>
      <trkpt lat="47.52981" lon="6.77577">
        <ele>418</ele>
        <time>2014-05-01T07:40:31.000Z</time>
      </trkpt>
      <trkpt lat="47.52984" lon="6.77577">
        <ele>418</ele>
        <time>2014-05-01T07:40:32.000Z</time>
      </trkpt>
      <trkpt lat="47.52986" lon="6.77577">
        <ele>418.2</ele>
        <time>2014-05-01T07:40:33.000Z</time>
      </trkpt>
      <trkpt lat="47.52988" lon="6.77578">
        <ele>417.1</ele>
        <time>2014-05-01T07:40:34.000Z</time>
      </trkpt>
      <trkpt lat="47.52991" lon="6.77579">
        <ele>417.3</ele>
        <time>2014-05-01T07:40:35.000Z</time>
      </trkpt>
      <trkpt lat="47.52994" lon="6.77581">
        <ele>419.6</ele>
        <time>2014-05-01T07:40:36.000Z</time>
      </trkpt>
      <trkpt lat="47.52996" lon="6.77582">
        <ele>420.5</ele>
        <time>2014-05-01T07:40:37.000Z</time>
      </trkpt>
      <trkpt lat="47.52999" lon="6.77584">
        <ele>419.6</ele>
        <time>2014-05-01T07:40:38.000Z</time>
      </trkpt>
      <trkpt lat="47.53002" lon="6.77585">
        <ele>418.5</ele>
        <time>2014-05-01T07:40:39.000Z</time>
      </trkpt>
      <trkpt lat="47.53005" lon="6.77586">
        <ele>418</ele>
        <time>2014-05-01T07:40:40.000Z</time>
      </trkpt>
      <trkpt lat="47.53008" lon="6.77586">
        <ele>416.6</ele>
        <time>2014-05-01T07:40:41.000Z</time>
      </trkpt>
      <trkpt lat="47.53012" lon="6.77587">
        <ele>416.9</ele>
        <time>2014-05-01T07:40:42.000Z</time>
      </trkpt>
      <trkpt lat="47.53015" lon="6.77587">
        <ele>417.6</ele>
        <time>2014-05-01T07:40:43.000Z</time>
      </trkpt>
      <trkpt lat="47.53018" lon="6.77588">
        <ele>417.4</ele>
        <time>2014-05-01T07:40:44.000Z</time>
      </trkpt>
      <trkpt lat="47.53021" lon="6.77588">
        <ele>417.2</ele>
        <time>2014-05-01T07:40:45.000Z</time>
      </trkpt>
      <trkpt lat="47.53024" lon="6.77588">
        <ele>417.4</ele>
        <time>2014-05-01T07:40:46.000Z</time>
      </trkpt>
      <trkpt lat="47.53027" lon="6.77589">
        <ele>418.3</ele>
        <time>2014-05-01T07:40:47.000Z</time>
      </trkpt>
      <trkpt lat="47.53031" lon="6.7759">
        <ele>418.8</ele>
        <time>2014-05-01T07:40:48.000Z</time>
      </trkpt>
      <trkpt lat="47.53034" lon="6.77591">
        <ele>422</ele>
        <time>2014-05-01T07:40:49.000Z</time>
      </trkpt>
      <trkpt lat="47.53038" lon="6.77592">
        <ele>421.4</ele>
        <time>2014-05-01T07:40:50.000Z</time>
      </trkpt>
      <trkpt lat="47.53041" lon="6.77594">
        <ele>419.9</ele>
        <time>2014-05-01T07:40:51.000Z</time>
      </trkpt>
      <trkpt lat="47.53045" lon="6.77595">
        <ele>419.1</ele>
        <time>2014-05-01T07:40:52.000Z</time>
      </trkpt>
      <trkpt lat="47.5305" lon="6.77597">
        <ele>417.9</ele>
        <time>2014-05-01T07:40:53.000Z</time>
      </trkpt>
      <trkpt lat="47.53054" lon="6.77598">
        <ele>417.7</ele>
        <time>2014-05-01T07:40:54.000Z</time>
      </trkpt>
      <trkpt lat="47.53058" lon="6.77599">
        <ele>419.7</ele>
        <time>2014-05-01T07:40:55.000Z</time>
      </trkpt>
      <trkpt lat="47.53062" lon="6.776">
        <ele>420.5</ele>
        <time>2014-05-01T07:40:56.000Z</time>
      </trkpt>
      <trkpt lat="47.53066" lon="6.77601">
        <ele>421.3</ele>
        <time>2014-05-01T07:40:57.000Z</time>
      </trkpt>
      <trkpt lat="47.5307" lon="6.77601">
        <ele>419.7</ele>
        <time>2014-05-01T07:40:58.000Z</time>
      </trkpt>
      <trkpt lat="47.53073" lon="6.77601">
        <ele>419.8</ele>
        <time>2014-05-01T07:40:59.000Z</time>
      </trkpt>
      <trkpt lat="47.53075" lon="6.77601">
        <ele>421.7</ele>
        <time>2014-05-01T07:41:00.000Z</time>
      </trkpt>
      <trkpt lat="47.53077" lon="6.77601">
        <ele>422</ele>
        <time>2014-05-01T07:41:01.000Z</time>
      </trkpt>
      <trkpt lat="47.5308" lon="6.77601">
        <ele>423.3</ele>
        <time>2014-05-01T07:41:02.000Z</time>
      </trkpt>
      <trkpt lat="47.53083" lon="6.77601">
        <ele>424.3</ele>
        <time>2014-05-01T07:41:03.000Z</time>
      </trkpt>
      <trkpt lat="47.53086" lon="6.77602">
        <ele>425.8</ele>
        <time>2014-05-01T07:41:04.000Z</time>
      </trkpt>
      <trkpt lat="47.53088" lon="6.77602">
        <ele>427.2</ele>
        <time>2014-05-01T07:41:05.000Z</time>
      </trkpt>
      <trkpt lat="47.53112" lon="6.776">
        <ele>430.6</ele>
        <time>2014-05-01T07:41:13.000Z</time>
      </trkpt>
      <trkpt lat="47.53116" lon="6.77599">
        <ele>429.2</ele>
        <time>2014-05-01T07:41:14.000Z</time>
      </trkpt>
      <trkpt lat="47.5312" lon="6.77596">
        <ele>424.9</ele>
        <time>2014-05-01T07:41:15.000Z</time>
      </trkpt>
      <trkpt lat="47.53124" lon="6.77594">
        <ele>424.1</ele>
        <time>2014-05-01T07:41:16.000Z</time>
      </trkpt>
      <trkpt lat="47.53128" lon="6.77592">
        <ele>423</ele>
        <time>2014-05-01T07:41:17.000Z</time>
      </trkpt>
      <trkpt lat="47.53133" lon="6.7759">
        <ele>421.8</ele>
        <time>2014-05-01T07:41:18.000Z</time>
      </trkpt>
      <trkpt lat="47.53137" lon="6.77587">
        <ele>421.4</ele>
        <time>2014-05-01T07:41:19.000Z</time>
      </trkpt>
      <trkpt lat="47.53142" lon="6.77585">
        <ele>420.4</ele>
        <time>2014-05-01T07:41:20.000Z</time>
      </trkpt>
      <trkpt lat="47.53145" lon="6.77575">
        <ele>415.5</ele>
        <time>2014-05-01T07:41:21.000Z</time>
      </trkpt>
      <trkpt lat="47.53148" lon="6.7757">
        <ele>413.3</ele>
        <time>2014-05-01T07:41:22.000Z</time>
      </trkpt>
      <trkpt lat="47.53151" lon="6.77566">
        <ele>413.1</ele>
        <time>2014-05-01T07:41:23.000Z</time>
      </trkpt>
      <trkpt lat="47.53158" lon="6.77563">
        <ele>409.7</ele>
        <time>2014-05-01T07:41:24.000Z</time>
      </trkpt>
      <trkpt lat="47.53163" lon="6.7756">
        <ele>409.1</ele>
        <time>2014-05-01T07:41:25.000Z</time>
      </trkpt>
      <trkpt lat="47.53168" lon="6.77557">
        <ele>406</ele>
        <time>2014-05-01T07:41:26.000Z</time>
      </trkpt>
      <trkpt lat="47.53173" lon="6.77553">
        <ele>403.7</ele>
        <time>2014-05-01T07:41:27.000Z</time>
      </trkpt>
      <trkpt lat="47.53179" lon="6.77548">
        <ele>403</ele>
        <time>2014-05-01T07:41:28.000Z</time>
      </trkpt>
      <trkpt lat="47.5318" lon="6.77546">
        <ele>403.4</ele>
        <time>2014-05-01T07:41:29.000Z</time>
      </trkpt>
      <trkpt lat="47.53185" lon="6.77541">
        <ele>401.9</ele>
        <time>2014-05-01T07:41:30.000Z</time>
      </trkpt>
      <trkpt lat="47.53189" lon="6.77532">
        <ele>400.7</ele>
        <time>2014-05-01T07:41:31.000Z</time>
      </trkpt>
      <trkpt lat="47.53194" lon="6.77528">
        <ele>399.9</ele>
        <time>2014-05-01T07:41:32.000Z</time>
      </trkpt>
      <trkpt lat="47.53198" lon="6.77522">
        <ele>398.7</ele>
        <time>2014-05-01T07:41:33.000Z</time>
      </trkpt>
      <trkpt lat="47.53202" lon="6.77516">
        <ele>397.5</ele>
        <time>2014-05-01T07:41:34.000Z</time>
      </trkpt>
      <trkpt lat="47.53205" lon="6.77511">
        <ele>397.2</ele>
        <time>2014-05-01T07:41:35.000Z</time>
      </trkpt>
      <trkpt lat="47.53208" lon="6.77503">
        <ele>394.9</ele>
        <time>2014-05-01T07:41:36.000Z</time>
      </trkpt>
      <trkpt lat="47.5321" lon="6.77494">
        <ele>394</ele>
        <time>2014-05-01T07:41:37.000Z</time>
      </trkpt>
      <trkpt lat="47.53212" lon="6.77487">
        <ele>393.9</ele>
        <time>2014-05-01T07:41:38.000Z</time>
      </trkpt>
      <trkpt lat="47.53215" lon="6.77477">
        <ele>393.7</ele>
        <time>2014-05-01T07:41:39.000Z</time>
      </trkpt>
      <trkpt lat="47.53221" lon="6.77469">
        <ele>393.6</ele>
        <time>2014-05-01T07:41:40.000Z</time>
      </trkpt>
      <trkpt lat="47.53227" lon="6.7746">
        <ele>392.7</ele>
        <time>2014-05-01T07:41:41.000Z</time>
      </trkpt>
      <trkpt lat="47.53232" lon="6.77451">
        <ele>392.3</ele>
        <time>2014-05-01T07:41:42.000Z</time>
      </trkpt>
      <trkpt lat="47.53235" lon="6.77442">
        <ele>391.3</ele>
        <time>2014-05-01T07:41:43.000Z</time>
      </trkpt>
      <trkpt lat="47.5324" lon="6.77434">
        <ele>390.7</ele>
        <time>2014-05-01T07:41:44.000Z</time>
      </trkpt>
      <trkpt lat="47.53244" lon="6.77426">
        <ele>390.9</ele>
        <time>2014-05-01T07:41:45.000Z</time>
      </trkpt>
      <trkpt lat="47.53249" lon="6.77419">
        <ele>390</ele>
        <time>2014-05-01T07:41:46.000Z</time>
      </trkpt>
      <trkpt lat="47.53252" lon="6.77413">
        <ele>388.6</ele>
        <time>2014-05-01T07:41:47.000Z</time>
      </trkpt>
      <trkpt lat="47.53257" lon="6.77407">
        <ele>387.7</ele>
        <time>2014-05-01T07:41:48.000Z</time>
      </trkpt>
      <trkpt lat="47.53262" lon="6.77401">
        <ele>387.4</ele>
        <time>2014-05-01T07:41:49.000Z</time>
      </trkpt>
      <trkpt lat="47.53266" lon="6.77399">
        <ele>386.9</ele>
        <time>2014-05-01T07:41:50.000Z</time>
      </trkpt>
      <trkpt lat="47.53269" lon="6.77395">
        <ele>385.7</ele>
        <time>2014-05-01T07:41:51.000Z</time>
      </trkpt>
      <trkpt lat="47.53272" lon="6.77389">
        <ele>385.4</ele>
        <time>2014-05-01T07:41:52.000Z</time>
      </trkpt>
      <trkpt lat="47.53276" lon="6.77382">
        <ele>385</ele>
        <time>2014-05-01T07:41:53.000Z</time>
      </trkpt>
      <trkpt lat="47.53279" lon="6.77372">
        <ele>384.2</ele>
        <time>2014-05-01T07:41:54.000Z</time>
      </trkpt>
      <trkpt lat="47.53282" lon="6.77364">
        <ele>383.7</ele>
        <time>2014-05-01T07:41:55.000Z</time>
      </trkpt>
      <trkpt lat="47.53284" lon="6.77358">
        <ele>383.8</ele>
        <time>2014-05-01T07:41:56.000Z</time>
      </trkpt>
      <trkpt lat="47.53291" lon="6.77353">
        <ele>383.6</ele>
        <time>2014-05-01T07:41:57.000Z</time>
      </trkpt>
      <trkpt lat="47.53297" lon="6.77348">
        <ele>383.8</ele>
        <time>2014-05-01T07:41:58.000Z</time>
      </trkpt>
      <trkpt lat="47.533" lon="6.77347">
        <ele>381.4</ele>
        <time>2014-05-01T07:41:59.000Z</time>
      </trkpt>
      <trkpt lat="47.53304" lon="6.77344">
        <ele>379.5</ele>
        <time>2014-05-01T07:42:00.000Z</time>
      </trkpt>
      <trkpt lat="47.53307" lon="6.77339">
        <ele>378.6</ele>
        <time>2014-05-01T07:42:01.000Z</time>
      </trkpt>
      <trkpt lat="47.53313" lon="6.77333">
        <ele>376.8</ele>
        <time>2014-05-01T07:42:02.000Z</time>
      </trkpt>
      <trkpt lat="47.53318" lon="6.77329">
        <ele>374.8</ele>
        <time>2014-05-01T07:42:03.000Z</time>
      </trkpt>
      <trkpt lat="47.53323" lon="6.77323">
        <ele>372.3</ele>
        <time>2014-05-01T07:42:04.000Z</time>
      </trkpt>
      <trkpt lat="47.53328" lon="6.7732">
        <ele>372.8</ele>
        <time>2014-05-01T07:42:05.000Z</time>
      </trkpt>
      <trkpt lat="47.53353" lon="6.77279">
        <ele>371.7</ele>
        <time>2014-05-01T07:42:13.000Z</time>
      </trkpt>
      <trkpt lat="47.53353" lon="6.77271">
        <ele>372.9</ele>
        <time>2014-05-01T07:42:14.000Z</time>
      </trkpt>
      <trkpt lat="47.53353" lon="6.77266">
        <ele>370</ele>
        <time>2014-05-01T07:42:15.000Z</time>
      </trkpt>
      <trkpt lat="47.53358" lon="6.77255">
        <ele>368.6</ele>
        <time>2014-05-01T07:42:16.000Z</time>
      </trkpt>
      <trkpt lat="47.5336" lon="6.77251">
        <ele>367.9</ele>
        <time>2014-05-01T07:42:17.000Z</time>
      </trkpt>
      <trkpt lat="47.53362" lon="6.77247">
        <ele>366.6</ele>
        <time>2014-05-01T07:42:18.000Z</time>
      </trkpt>
      <trkpt lat="47.53364" lon="6.77243">
        <ele>366.6</ele>
        <time>2014-05-01T07:42:19.000Z</time>
      </trkpt>
      <trkpt lat="47.53366" lon="6.77238">
        <ele>366.9</ele>
        <time>2014-05-01T07:42:20.000Z</time>
      </trkpt>
      <trkpt lat="47.53368" lon="6.77234">
        <ele>365.2</ele>
        <time>2014-05-01T07:42:21.000Z</time>
      </trkpt>
      <trkpt lat="47.5337" lon="6.7723">
        <ele>365.2</ele>
        <time>2014-05-01T07:42:22.000Z</time>
      </trkpt>
      <trkpt lat="47.53373" lon="6.77226">
        <ele>369.7</ele>
        <time>2014-05-01T07:42:24.000Z</time>
      </trkpt>
      <trkpt lat="47.53375" lon="6.77225">
        <ele>369.9</ele>
        <time>2014-05-01T07:42:25.000Z</time>
      </trkpt>
      <trkpt lat="47.53378" lon="6.77226">
        <ele>368.2</ele>
        <time>2014-05-01T07:42:27.000Z</time>
      </trkpt>
      <trkpt lat="47.53379" lon="6.77227">
        <ele>367.1</ele>
        <time>2014-05-01T07:42:28.000Z</time>
      </trkpt>
      <trkpt lat="47.53381" lon="6.7723">
        <ele>365.8</ele>
        <time>2014-05-01T07:42:31.000Z</time>
      </trkpt>
      <trkpt lat="47.53383" lon="6.77231">
        <ele>364.4</ele>
        <time>2014-05-01T07:42:32.000Z</time>
      </trkpt>
      <trkpt lat="47.53387" lon="6.7723">
        <ele>364.9</ele>
        <time>2014-05-01T07:42:35.000Z</time>
      </trkpt>
      <trkpt lat="47.53387" lon="6.77228">
        <ele>365.3</ele>
        <time>2014-05-01T07:42:36.000Z</time>
      </trkpt>
      <trkpt lat="47.53388" lon="6.77223">
        <ele>366.6</ele>
        <time>2014-05-01T07:42:38.000Z</time>
      </trkpt>
      <trkpt lat="47.53388" lon="6.77221">
        <ele>367.7</ele>
        <time>2014-05-01T07:42:39.000Z</time>
      </trkpt>
      <trkpt lat="47.53388" lon="6.77214">
        <ele>366.3</ele>
        <time>2014-05-01T07:42:40.000Z</time>
      </trkpt>
      <trkpt lat="47.53388" lon="6.77211">
        <ele>366.7</ele>
        <time>2014-05-01T07:42:40.999Z</time>
      </trkpt>
      <trkpt lat="47.53388" lon="6.77205">
        <ele>367.1</ele>
        <time>2014-05-01T07:42:42.000Z</time>
      </trkpt>
      <trkpt lat="47.53388" lon="6.77201">
        <ele>367.5</ele>
        <time>2014-05-01T07:42:43.000Z</time>
      </trkpt>
      <trkpt lat="47.53389" lon="6.77196">
        <ele>363.9</ele>
        <time>2014-05-01T07:42:44.000Z</time>
      </trkpt>
      <trkpt lat="47.5339" lon="6.77191">
        <ele>361.8</ele>
        <time>2014-05-01T07:42:45.000Z</time>
      </trkpt>
      <trkpt lat="47.53392" lon="6.77185">
        <ele>362.1</ele>
        <time>2014-05-01T07:42:46.000Z</time>
      </trkpt>
      <trkpt lat="47.53393" lon="6.7718">
        <ele>361.9</ele>
        <time>2014-05-01T07:42:47.000Z</time>
      </trkpt>
      <trkpt lat="47.53394" lon="6.77175">
        <ele>363.1</ele>
        <time>2014-05-01T07:42:48.000Z</time>
      </trkpt>
      <trkpt lat="47.53396" lon="6.7717">
        <ele>362.2</ele>
        <time>2014-05-01T07:42:49.000Z</time>
      </trkpt>
      <trkpt lat="47.53397" lon="6.77166">
        <ele>362</ele>
        <time>2014-05-01T07:42:50.000Z</time>
      </trkpt>
      <trkpt lat="47.53397" lon="6.77162">
        <ele>360.7</ele>
        <time>2014-05-01T07:42:51.000Z</time>
      </trkpt>
      <trkpt lat="47.53398" lon="6.77157">
        <ele>359.4</ele>
        <time>2014-05-01T07:42:52.000Z</time>
      </trkpt>
      <trkpt lat="47.53399" lon="6.77152">
        <ele>358.5</ele>
        <time>2014-05-01T07:42:53.000Z</time>
      </trkpt>
      <trkpt lat="47.53399" lon="6.77147">
        <ele>358.5</ele>
        <time>2014-05-01T07:42:54.000Z</time>
      </trkpt>
      <trkpt lat="47.53399" lon="6.77142">
        <ele>358.1</ele>
        <time>2014-05-01T07:42:55.000Z</time>
      </trkpt>
      <trkpt lat="47.53399" lon="6.77138">
        <ele>357</ele>
        <time>2014-05-01T07:42:56.000Z</time>
      </trkpt>
      <trkpt lat="47.53398" lon="6.77135">
        <ele>357.2</ele>
        <time>2014-05-01T07:42:57.000Z</time>
      </trkpt>
      <trkpt lat="47.53397" lon="6.77129">
        <ele>356.8</ele>
        <time>2014-05-01T07:42:59.000Z</time>
      </trkpt>
      <trkpt lat="47.53396" lon="6.77125">
        <ele>356.8</ele>
        <time>2014-05-01T07:43:00.000Z</time>
      </trkpt>
      <trkpt lat="47.53395" lon="6.7712">
        <ele>363.7</ele>
        <time>2014-05-01T07:43:02.000Z</time>
      </trkpt>
      <trkpt lat="47.53394" lon="6.77119">
        <ele>364.7</ele>
        <time>2014-05-01T07:43:03.000Z</time>
      </trkpt>
      <trkpt lat="47.53393" lon="6.77116">
        <ele>367.9</ele>
        <time>2014-05-01T07:43:05.000Z</time>
      </trkpt>
      <trkpt lat="47.5339" lon="6.77098">
        <ele>382.8</ele>
        <time>2014-05-01T07:43:13.000Z</time>
      </trkpt>
      <trkpt lat="47.5339" lon="6.77095">
        <ele>382.2</ele>
        <time>2014-05-01T07:43:14.000Z</time>
      </trkpt>
      <trkpt lat="47.5339" lon="6.77091">
        <ele>379.3</ele>
        <time>2014-05-01T07:43:15.000Z</time>
      </trkpt>
      <trkpt lat="47.53389" lon="6.77086">
        <ele>379.8</ele>
        <time>2014-05-01T07:43:16.000Z</time>
      </trkpt>
      <trkpt lat="47.53389" lon="6.77082">
        <ele>379.2</ele>
        <time>2014-05-01T07:43:17.000Z</time>
      </trkpt>
      <trkpt lat="47.53388" lon="6.77078">
        <ele>378.8</ele>
        <time>2014-05-01T07:43:18.000Z</time>
      </trkpt>
      <trkpt lat="47.53388" lon="6.77074">
        <ele>378.3</ele>
        <time>2014-05-01T07:43:19.000Z</time>
      </trkpt>
      <trkpt lat="47.53387" lon="6.7707">
        <ele>382.3</ele>
        <time>2014-05-01T07:43:20.000Z</time>
      </trkpt>
      <trkpt lat="47.53386" lon="6.77067">
        <ele>385</ele>
        <time>2014-05-01T07:43:21.000Z</time>
      </trkpt>
      <trkpt lat="47.53386" lon="6.77062">
        <ele>383.9</ele>
        <time>2014-05-01T07:43:22.000Z</time>
      </trkpt>
      <trkpt lat="47.53386" lon="6.77057">
        <ele>384.5</ele>
        <time>2014-05-01T07:43:23.000Z</time>
      </trkpt>
      <trkpt lat="47.53386" lon="6.77053">
        <ele>383.1</ele>
        <time>2014-05-01T07:43:24.000Z</time>
      </trkpt>
      <trkpt lat="47.53386" lon="6.77049">
        <ele>382.6</ele>
        <time>2014-05-01T07:43:25.000Z</time>
      </trkpt>
      <trkpt lat="47.53386" lon="6.77045">
        <ele>383.9</ele>
        <time>2014-05-01T07:43:26.000Z</time>
      </trkpt>
      <trkpt lat="47.53387" lon="6.77041">
        <ele>382.7</ele>
        <time>2014-05-01T07:43:27.000Z</time>
      </trkpt>
      <trkpt lat="47.53387" lon="6.77036">
        <ele>381.8</ele>
        <time>2014-05-01T07:43:28.000Z</time>
      </trkpt>
      <trkpt lat="47.53388" lon="6.77032">
        <ele>383.1</ele>
        <time>2014-05-01T07:43:29.000Z</time>
      </trkpt>
      <trkpt lat="47.53389" lon="6.77028">
        <ele>383.1</ele>
        <time>2014-05-01T07:43:30.000Z</time>
      </trkpt>
      <trkpt lat="47.53389" lon="6.77024">
        <ele>383.3</ele>
        <time>2014-05-01T07:43:31.000Z</time>
      </trkpt>
      <trkpt lat="47.5339" lon="6.7702">
        <ele>383.3</ele>
        <time>2014-05-01T07:43:32.000Z</time>
      </trkpt>
      <trkpt lat="47.5339" lon="6.77017">
        <ele>383.2</ele>
        <time>2014-05-01T07:43:33.000Z</time>
      </trkpt>
      <trkpt lat="47.5339" lon="6.77014">
        <ele>383.4</ele>
        <time>2014-05-01T07:43:34.000Z</time>
      </trkpt>
      <trkpt lat="47.5339" lon="6.77009">
        <ele>382.5</ele>
        <time>2014-05-01T07:43:35.000Z</time>
      </trkpt>
      <trkpt lat="47.53388" lon="6.77005">
        <ele>376.5</ele>
        <time>2014-05-01T07:43:37.000Z</time>
      </trkpt>
      <trkpt lat="47.53387" lon="6.77003">
        <ele>377.8</ele>
        <time>2014-05-01T07:43:38.000Z</time>
      </trkpt>
      <trkpt lat="47.53385" lon="6.77">
        <ele>382.4</ele>
        <time>2014-05-01T07:43:40.000Z</time>
      </trkpt>
      <trkpt lat="47.53383" lon="6.76997">
        <ele>380.1</ele>
        <time>2014-05-01T07:43:41.000Z</time>
      </trkpt>
      <trkpt lat="47.53381" lon="6.76993">
        <ele>380.7</ele>
        <time>2014-05-01T07:43:43.000Z</time>
      </trkpt>
      <trkpt lat="47.53381" lon="6.76991">
        <ele>381.2</ele>
        <time>2014-05-01T07:43:44.001Z</time>
      </trkpt>
      <trkpt lat="47.53379" lon="6.76984">
        <ele>377.6</ele>
        <time>2014-05-01T07:43:46.000Z</time>
      </trkpt>
      <trkpt lat="47.53379" lon="6.7698">
        <ele>377.3</ele>
        <time>2014-05-01T07:43:47.000Z</time>
      </trkpt>
      <trkpt lat="47.53379" lon="6.76975">
        <ele>378.2</ele>
        <time>2014-05-01T07:43:48.000Z</time>
      </trkpt>
      <trkpt lat="47.53379" lon="6.7697">
        <ele>380.8</ele>
        <time>2014-05-01T07:43:49.000Z</time>
      </trkpt>
      <trkpt lat="47.53379" lon="6.76965">
        <ele>378.2</ele>
        <time>2014-05-01T07:43:50.000Z</time>
      </trkpt>
      <trkpt lat="47.53379" lon="6.76961">
        <ele>379.6</ele>
        <time>2014-05-01T07:43:51.000Z</time>
      </trkpt>
      <trkpt lat="47.53379" lon="6.76954">
        <ele>382.1</ele>
        <time>2014-05-01T07:43:53.000Z</time>
      </trkpt>
      <trkpt lat="47.53378" lon="6.76952">
        <ele>382.2</ele>
        <time>2014-05-01T07:43:54.000Z</time>
      </trkpt>
      <trkpt lat="47.53376" lon="6.76947">
        <ele>381</ele>
        <time>2014-05-01T07:43:56.000Z</time>
      </trkpt>
      <trkpt lat="47.53374" lon="6.76944">
        <ele>380.5</ele>
        <time>2014-05-01T07:43:57.000Z</time>
      </trkpt>
      <trkpt lat="47.53373" lon="6.76941">
        <ele>379.8</ele>
        <time>2014-05-01T07:43:58.000Z</time>
      </trkpt>
      <trkpt lat="47.53371" lon="6.76938">
        <ele>379.1</ele>
        <time>2014-05-01T07:43:59.000Z</time>
      </trkpt>
      <trkpt lat="47.53369" lon="6.76936">
        <ele>378.4</ele>
        <time>2014-05-01T07:44:00.000Z</time>
      </trkpt>
      <trkpt lat="47.53368" lon="6.76933">
        <ele>377.4</ele>
        <time>2014-05-01T07:44:01.000Z</time>
      </trkpt>
      <trkpt lat="47.53366" lon="6.76929">
        <ele>381.1</ele>
        <time>2014-05-01T07:44:03.000Z</time>
      </trkpt>
      <trkpt lat="47.53366" lon="6.76927">
        <ele>381.8</ele>
        <time>2014-05-01T07:44:04.000Z</time>
      </trkpt>
      <trkpt lat="47.53365" lon="6.76924">
        <ele>381.8</ele>
        <time>2014-05-01T07:44:05.000Z</time>
      </trkpt>
      <trkpt lat="47.53366" lon="6.7691">
        <ele>383.8</ele>
        <time>2014-05-01T07:44:13.000Z</time>
      </trkpt>
      <trkpt lat="47.53365" lon="6.76905">
        <ele>384</ele>
        <time>2014-05-01T07:44:17.000Z</time>
      </trkpt>
      <trkpt lat="47.53364" lon="6.76902">
        <ele>384</ele>
        <time>2014-05-01T07:44:18.000Z</time>
      </trkpt>
      <trkpt lat="47.53364" lon="6.76899">
        <ele>382.5</ele>
        <time>2014-05-01T07:44:19.000Z</time>
      </trkpt>
      <trkpt lat="47.53364" lon="6.76896">
        <ele>381.3</ele>
        <time>2014-05-01T07:44:20.000Z</time>
      </trkpt>
      <trkpt lat="47.53364" lon="6.76892">
        <ele>381.2</ele>
        <time>2014-05-01T07:44:21.000Z</time>
      </trkpt>
      <trkpt lat="47.53365" lon="6.76887">
        <ele>381.5</ele>
        <time>2014-05-01T07:44:22.000Z</time>
      </trkpt>
      <trkpt lat="47.53366" lon="6.76881">
        <ele>383.5</ele>
        <time>2014-05-01T07:44:24.000Z</time>
      </trkpt>
      <trkpt lat="47.53366" lon="6.76879">
        <ele>382.8</ele>
        <time>2014-05-01T07:44:25.000Z</time>
      </trkpt>
      <trkpt lat="47.53366" lon="6.76875">
        <ele>380.8</ele>
        <time>2014-05-01T07:44:27.001Z</time>
      </trkpt>
      <trkpt lat="47.53365" lon="6.76872">
        <ele>380.3</ele>
        <time>2014-05-01T07:44:28.000Z</time>
      </trkpt>
      <trkpt lat="47.53364" lon="6.76866">
        <ele>383.9</ele>
        <time>2014-05-01T07:44:30.000Z</time>
      </trkpt>
      <trkpt lat="47.53364" lon="6.76864">
        <ele>383.4</ele>
        <time>2014-05-01T07:44:31.001Z</time>
      </trkpt>
      <trkpt lat="47.53364" lon="6.76858">
        <ele>385.8</ele>
        <time>2014-05-01T07:44:33.000Z</time>
      </trkpt>
      <trkpt lat="47.53365" lon="6.76856">
        <ele>382.3</ele>
        <time>2014-05-01T07:44:34.000Z</time>
      </trkpt>
      <trkpt lat="47.53364" lon="6.7685">
        <ele>388.1</ele>
        <time>2014-05-01T07:44:41.000Z</time>
      </trkpt>
      <trkpt lat="47.53364" lon="6.76848">
        <ele>388.3</ele>
        <time>2014-05-01T07:44:42.000Z</time>
      </trkpt>
      <trkpt lat="47.53366" lon="6.76843">
        <ele>387.8</ele>
        <time>2014-05-01T07:44:44.000Z</time>
      </trkpt>
      <trkpt lat="47.53367" lon="6.7684">
        <ele>388.7</ele>
        <time>2014-05-01T07:44:45.000Z</time>
      </trkpt>
      <trkpt lat="47.53368" lon="6.76835">
        <ele>389.4</ele>
        <time>2014-05-01T07:44:47.000Z</time>
      </trkpt>
      <trkpt lat="47.53368" lon="6.76832">
        <ele>389.3</ele>
        <time>2014-05-01T07:44:48.000Z</time>
      </trkpt>
      <trkpt lat="47.5337" lon="6.76828">
        <ele>391</ele>
        <time>2014-05-01T07:44:50.000Z</time>
      </trkpt>
      <trkpt lat="47.53371" lon="6.76825">
        <ele>390.1</ele>
        <time>2014-05-01T07:44:51.000Z</time>
      </trkpt>
      <trkpt lat="47.53373" lon="6.76822">
        <ele>390.8</ele>
        <time>2014-05-01T07:44:52.000Z</time>
      </trkpt>
      <trkpt lat="47.53375" lon="6.76819">
        <ele>393.3</ele>
        <time>2014-05-01T07:44:53.000Z</time>
      </trkpt>
      <trkpt lat="47.53377" lon="6.76816">
        <ele>392.6</ele>
        <time>2014-05-01T07:44:54.000Z</time>
      </trkpt>
      <trkpt lat="47.53378" lon="6.76813">
        <ele>392.4</ele>
        <time>2014-05-01T07:44:55.000Z</time>
      </trkpt>
      <trkpt lat="47.5338" lon="6.7681">
        <ele>393.1</ele>
        <time>2014-05-01T07:44:56.000Z</time>
      </trkpt>
      <trkpt lat="47.53382" lon="6.76807">
        <ele>395.5</ele>
        <time>2014-05-01T07:44:57.000Z</time>
      </trkpt>
      <trkpt lat="47.53385" lon="6.76802">
        <ele>395.1</ele>
        <time>2014-05-01T07:44:59.000Z</time>
      </trkpt>
      <trkpt lat="47.53387" lon="6.76801">
        <ele>394.2</ele>
        <time>2014-05-01T07:45:00.000Z</time>
      </trkpt>
      <trkpt lat="47.53391" lon="6.76798">
        <ele>392.8</ele>
        <time>2014-05-01T07:45:02.000Z</time>
      </trkpt>
      <trkpt lat="47.53392" lon="6.76797">
        <ele>392.8</ele>
        <time>2014-05-01T07:45:03.000Z</time>
      </trkpt>
      <trkpt lat="47.53393" lon="6.76795">
        <ele>394.2</ele>
        <time>2014-05-01T07:45:05.000Z</time>
      </trkpt>
      <trkpt lat="47.53395" lon="6.76784">
        <ele>394.5</ele>
        <time>2014-05-01T07:45:13.000Z</time>
      </trkpt>
      <trkpt lat="47.53395" lon="6.7678">
        <ele>397.7</ele>
        <time>2014-05-01T07:45:15.000Z</time>
      </trkpt>
      <trkpt lat="47.53395" lon="6.76777">
        <ele>397.7</ele>
        <time>2014-05-01T07:45:16.000Z</time>
      </trkpt>
      <trkpt lat="47.53395" lon="6.76772">
        <ele>399.2</ele>
        <time>2014-05-01T07:45:18.000Z</time>
      </trkpt>
      <trkpt lat="47.53395" lon="6.76769">
        <ele>398.2</ele>
        <time>2014-05-01T07:45:19.000Z</time>
      </trkpt>
      <trkpt lat="47.53395" lon="6.76765">
        <ele>398</ele>
        <time>2014-05-01T07:45:20.000Z</time>
      </trkpt>
      <trkpt lat="47.53396" lon="6.76763">
        <ele>398.8</ele>
        <time>2014-05-01T07:45:21.000Z</time>
      </trkpt>
      <trkpt lat="47.53398" lon="6.76758">
        <ele>399.3</ele>
        <time>2014-05-01T07:45:24.000Z</time>
      </trkpt>
      <trkpt lat="47.53398" lon="6.76756">
        <ele>400.1</ele>
        <time>2014-05-01T07:45:25.000Z</time>
      </trkpt>
      <trkpt lat="47.53398" lon="6.76751">
        <ele>400.5</ele>
        <time>2014-05-01T07:45:31.000Z</time>
      </trkpt>
      <trkpt lat="47.53398" lon="6.76749">
        <ele>400.4</ele>
        <time>2014-05-01T07:45:32.000Z</time>
      </trkpt>
      <trkpt lat="47.53398" lon="6.76744">
        <ele>401</ele>
        <time>2014-05-01T07:45:36.000Z</time>
      </trkpt>
      <trkpt lat="47.53399" lon="6.76742">
        <ele>400.8</ele>
        <time>2014-05-01T07:45:37.000Z</time>
      </trkpt>
      <trkpt lat="47.534" lon="6.76737">
        <ele>402.9</ele>
        <time>2014-05-01T07:45:43.000Z</time>
      </trkpt>
      <trkpt lat="47.53401" lon="6.76735">
        <ele>404.2</ele>
        <time>2014-05-01T07:45:44.000Z</time>
      </trkpt>
      <trkpt lat="47.53402" lon="6.7673">
        <ele>404.1</ele>
        <time>2014-05-01T07:45:48.000Z</time>
      </trkpt>
      <trkpt lat="47.53402" lon="6.76728">
        <ele>404.2</ele>
        <time>2014-05-01T07:45:49.000Z</time>
      </trkpt>
      <trkpt lat="47.53403" lon="6.76722">
        <ele>405.7</ele>
        <time>2014-05-01T07:45:57.000Z</time>
      </trkpt>
      <trkpt lat="47.53403" lon="6.7672">
        <ele>404.8</ele>
        <time>2014-05-01T07:45:58.000Z</time>
      </trkpt>
      <trkpt lat="47.53404" lon="6.76714">
        <ele>405</ele>
        <time>2014-05-01T07:46:02.000Z</time>
      </trkpt>
      <trkpt lat="47.53404" lon="6.76712">
        <ele>404.2</ele>
        <time>2014-05-01T07:46:03.000Z</time>
      </trkpt>
      <trkpt lat="47.53405" lon="6.7671">
        <ele>402</ele>
        <time>2014-05-01T07:46:05.000Z</time>
      </trkpt>
      <trkpt lat="47.53404" lon="6.767">
        <ele>402.9</ele>
        <time>2014-05-01T07:46:13.000Z</time>
      </trkpt>
      <trkpt lat="47.53406" lon="6.76694">
        <ele>403.9</ele>
        <time>2014-05-01T07:46:15.000Z</time>
      </trkpt>
      <trkpt lat="47.53406" lon="6.76693">
        <ele>405.5</ele>
        <time>2014-05-01T07:46:16.000Z</time>
      </trkpt>
      <trkpt lat="47.53406" lon="6.76687">
        <ele>403.6</ele>
        <time>2014-05-01T07:46:20.000Z</time>
      </trkpt>
      <trkpt lat="47.53407" lon="6.76685">
        <ele>402.2</ele>
        <time>2014-05-01T07:46:21.000Z</time>
      </trkpt>
      <trkpt lat="47.53409" lon="6.7668">
        <ele>400.6</ele>
        <time>2014-05-01T07:46:23.000Z</time>
      </trkpt>
      <trkpt lat="47.53409" lon="6.76678">
        <ele>401.2</ele>
        <time>2014-05-01T07:46:24.000Z</time>
      </trkpt>
      <trkpt lat="47.53412" lon="6.76673">
        <ele>401.9</ele>
        <time>2014-05-01T07:46:36.000Z</time>
      </trkpt>
      <trkpt lat="47.53412" lon="6.76672">
        <ele>402.8</ele>
        <time>2014-05-01T07:46:37.000Z</time>
      </trkpt>
      <trkpt lat="47.53414" lon="6.76667">
        <ele>405.2</ele>
        <time>2014-05-01T07:46:41.000Z</time>
      </trkpt>
      <trkpt lat="47.53414" lon="6.76665">
        <ele>405.9</ele>
        <time>2014-05-01T07:46:42.000Z</time>
      </trkpt>
      <trkpt lat="47.53418" lon="6.76661">
        <ele>404.4</ele>
        <time>2014-05-01T07:46:46.000Z</time>
      </trkpt>
      <trkpt lat="47.53419" lon="6.7666">
        <ele>402.7</ele>
        <time>2014-05-01T07:46:47.000Z</time>
      </trkpt>
      <trkpt lat="47.53421" lon="6.76657">
        <ele>402.7</ele>
        <time>2014-05-01T07:46:49.000Z</time>
      </trkpt>
      <trkpt lat="47.53422" lon="6.76655">
        <ele>404.1</ele>
        <time>2014-05-01T07:46:50.000Z</time>
      </trkpt>
      <trkpt lat="47.53425" lon="6.76651">
        <ele>405.3</ele>
        <time>2014-05-01T07:46:52.000Z</time>
      </trkpt>
      <trkpt lat="47.53426" lon="6.7665">
        <ele>405.3</ele>
        <time>2014-05-01T07:46:53.000Z</time>
      </trkpt>
      <trkpt lat="47.53429" lon="6.76646">
        <ele>405.5</ele>
        <time>2014-05-01T07:46:57.000Z</time>
      </trkpt>
      <trkpt lat="47.5343" lon="6.76645">
        <ele>405</ele>
        <time>2014-05-01T07:46:58.000Z</time>
      </trkpt>
      <trkpt lat="47.53433" lon="6.7664">
        <ele>407.6</ele>
        <time>2014-05-01T07:47:01.000Z</time>
      </trkpt>
      <trkpt lat="47.53434" lon="6.76638">
        <ele>408.6</ele>
        <time>2014-05-01T07:47:02.000Z</time>
      </trkpt>
      <trkpt lat="47.53437" lon="6.76634">
        <ele>407.9</ele>
        <time>2014-05-01T07:47:04.000Z</time>
      </trkpt>
      <trkpt lat="47.53444" lon="6.76621">
        <ele>408.7</ele>
        <time>2014-05-01T07:47:11.813Z</time>
      </trkpt>
      <trkpt lat="47.53447" lon="6.76617">
        <ele>416.2</ele>
        <time>2014-05-01T07:47:19.000Z</time>
      </trkpt>
      <trkpt lat="47.53447" lon="6.76616">
        <ele>417.8</ele>
        <time>2014-05-01T07:47:20.000Z</time>
      </trkpt>
      <trkpt lat="47.53448" lon="6.76611">
        <ele>418.9</ele>
        <time>2014-05-01T07:47:23.000Z</time>
      </trkpt>
      <trkpt lat="47.53449" lon="6.76608">
        <ele>418.7</ele>
        <time>2014-05-01T07:47:24.000Z</time>
      </trkpt>
      <trkpt lat="47.5345" lon="6.76604">
        <ele>419</ele>
        <time>2014-05-01T07:47:26.000Z</time>
      </trkpt>
      <trkpt lat="47.5345" lon="6.76601">
        <ele>419.3</ele>
        <time>2014-05-01T07:47:27.000Z</time>
      </trkpt>
      <trkpt lat="47.53451" lon="6.76597">
        <ele>418.5</ele>
        <time>2014-05-01T07:47:28.000Z</time>
      </trkpt>
      <trkpt lat="47.53452" lon="6.76594">
        <ele>416.5</ele>
        <time>2014-05-01T07:47:29.000Z</time>
      </trkpt>
      <trkpt lat="47.53453" lon="6.76589">
        <ele>416.6</ele>
        <time>2014-05-01T07:47:31.000Z</time>
      </trkpt>
      <trkpt lat="47.53453" lon="6.76586">
        <ele>415.5</ele>
        <time>2014-05-01T07:47:32.000Z</time>
      </trkpt>
      <trkpt lat="47.53453" lon="6.76581">
        <ele>416.1</ele>
        <time>2014-05-01T07:47:35.000Z</time>
      </trkpt>
      <trkpt lat="47.53453" lon="6.76578">
        <ele>417</ele>
        <time>2014-05-01T07:47:36.000Z</time>
      </trkpt>
      <trkpt lat="47.53455" lon="6.76572">
        <ele>420</ele>
        <time>2014-05-01T07:47:39.000Z</time>
      </trkpt>
      <trkpt lat="47.53456" lon="6.7657">
        <ele>420.1</ele>
        <time>2014-05-01T07:47:40.000Z</time>
      </trkpt>
      <trkpt lat="47.53457" lon="6.76563">
        <ele>426.1</ele>
        <time>2014-05-01T07:47:44.000Z</time>
      </trkpt>
      <trkpt lat="47.53457" lon="6.76562">
        <ele>427.7</ele>
        <time>2014-05-01T07:47:45.000Z</time>
      </trkpt>
      <trkpt lat="47.53457" lon="6.76557">
        <ele>427.6</ele>
        <time>2014-05-01T07:47:47.000Z</time>
      </trkpt>
      <trkpt lat="47.53458" lon="6.76554">
        <ele>426.9</ele>
        <time>2014-05-01T07:47:48.000Z</time>
      </trkpt>
      <trkpt lat="47.53459" lon="6.76551">
        <ele>427.6</ele>
        <time>2014-05-01T07:47:49.000Z</time>
      </trkpt>
      <trkpt lat="47.5346" lon="6.76548">
        <ele>426.9</ele>
        <time>2014-05-01T07:47:50.000Z</time>
      </trkpt>
      <trkpt lat="47.53463" lon="6.76542">
        <ele>424.2</ele>
        <time>2014-05-01T07:47:52.000Z</time>
      </trkpt>
      <trkpt lat="47.53464" lon="6.7654">
        <ele>423</ele>
        <time>2014-05-01T07:47:53.000Z</time>
      </trkpt>
      <trkpt lat="47.53466" lon="6.76536">
        <ele>421.6</ele>
        <time>2014-05-01T07:47:54.000Z</time>
      </trkpt>
      <trkpt lat="47.53467" lon="6.76533">
        <ele>420.7</ele>
        <time>2014-05-01T07:47:55.000Z</time>
      </trkpt>
      <trkpt lat="47.53469" lon="6.76529">
        <ele>423.8</ele>
        <time>2014-05-01T07:47:56.000Z</time>
      </trkpt>
      <trkpt lat="47.5347" lon="6.76526">
        <ele>424.8</ele>
        <time>2014-05-01T07:47:57.000Z</time>
      </trkpt>
      <trkpt lat="47.53472" lon="6.76523">
        <ele>424.8</ele>
        <time>2014-05-01T07:47:58.000Z</time>
      </trkpt>
      <trkpt lat="47.53473" lon="6.7652">
        <ele>425.7</ele>
        <time>2014-05-01T07:47:59.000Z</time>
      </trkpt>
      <trkpt lat="47.53475" lon="6.76514">
        <ele>422</ele>
        <time>2014-05-01T07:48:01.000Z</time>
      </trkpt>
      <trkpt lat="47.53475" lon="6.7651">
        <ele>420.4</ele>
        <time>2014-05-01T07:48:02.000Z</time>
      </trkpt>
      <trkpt lat="47.53476" lon="6.76504">
        <ele>418.6</ele>
        <time>2014-05-01T07:48:04.000Z</time>
      </trkpt>
      <trkpt lat="47.53478" lon="6.76491">
        <ele>417.3</ele>
        <time>2014-05-01T07:48:08.000Z</time>
      </trkpt>
      <trkpt lat="47.53479" lon="6.76486">
        <ele>417.6</ele>
        <time>2014-05-01T07:48:09.000Z</time>
      </trkpt>
      <trkpt lat="47.5348" lon="6.76482">
        <ele>418.9</ele>
        <time>2014-05-01T07:48:10.000Z</time>
      </trkpt>
      <trkpt lat="47.53481" lon="6.76479">
        <ele>420</ele>
        <time>2014-05-01T07:48:11.000Z</time>
      </trkpt>
      <trkpt lat="47.53482" lon="6.76476">
        <ele>419.5</ele>
        <time>2014-05-01T07:48:12.000Z</time>
      </trkpt>
      <trkpt lat="47.53484" lon="6.7647">
        <ele>419.9</ele>
        <time>2014-05-01T07:48:14.000Z</time>
      </trkpt>
      <trkpt lat="47.53484" lon="6.76466">
        <ele>419.6</ele>
        <time>2014-05-01T07:48:15.000Z</time>
      </trkpt>
      <trkpt lat="47.53485" lon="6.76463">
        <ele>419.2</ele>
        <time>2014-05-01T07:48:16.000Z</time>
      </trkpt>
      <trkpt lat="47.53485" lon="6.76458">
        <ele>418.3</ele>
        <time>2014-05-01T07:48:17.000Z</time>
      </trkpt>
      <trkpt lat="47.53486" lon="6.76453">
        <ele>419.3</ele>
        <time>2014-05-01T07:48:18.000Z</time>
      </trkpt>
      <trkpt lat="47.53487" lon="6.76449">
        <ele>421.2</ele>
        <time>2014-05-01T07:48:19.000Z</time>
      </trkpt>
      <trkpt lat="47.53488" lon="6.76445">
        <ele>421.9</ele>
        <time>2014-05-01T07:48:20.000Z</time>
      </trkpt>
      <trkpt lat="47.53489" lon="6.76442">
        <ele>421.9</ele>
        <time>2014-05-01T07:48:21.000Z</time>
      </trkpt>
      <trkpt lat="47.53489" lon="6.76439">
        <ele>422.1</ele>
        <time>2014-05-01T07:48:22.000Z</time>
      </trkpt>
      <trkpt lat="47.5349" lon="6.76436">
        <ele>422.1</ele>
        <time>2014-05-01T07:48:23.000Z</time>
      </trkpt>
      <trkpt lat="47.53491" lon="6.76432">
        <ele>421.9</ele>
        <time>2014-05-01T07:48:24.000Z</time>
      </trkpt>
      <trkpt lat="47.53492" lon="6.76429">
        <ele>421.9</ele>
        <time>2014-05-01T07:48:25.000Z</time>
      </trkpt>
      <trkpt lat="47.53493" lon="6.76422">
        <ele>422.1</ele>
        <time>2014-05-01T07:48:27.000Z</time>
      </trkpt>
      <trkpt lat="47.53494" lon="6.76419">
        <ele>422.1</ele>
        <time>2014-05-01T07:48:28.000Z</time>
      </trkpt>
      <trkpt lat="47.53495" lon="6.76415">
        <ele>422.5</ele>
        <time>2014-05-01T07:48:29.000Z</time>
      </trkpt>
      <trkpt lat="47.53496" lon="6.76412">
        <ele>422.9</ele>
        <time>2014-05-01T07:48:30.000Z</time>
      </trkpt>
      <trkpt lat="47.53499" lon="6.76407">
        <ele>423.2</ele>
        <time>2014-05-01T07:48:32.000Z</time>
      </trkpt>
      <trkpt lat="47.535" lon="6.76404">
        <ele>422.4</ele>
        <time>2014-05-01T07:48:33.000Z</time>
      </trkpt>
      <trkpt lat="47.53501" lon="6.76401">
        <ele>421.8</ele>
        <time>2014-05-01T07:48:34.000Z</time>
      </trkpt>
      <trkpt lat="47.53501" lon="6.76398">
        <ele>423.3</ele>
        <time>2014-05-01T07:48:35.000Z</time>
      </trkpt>
      <trkpt lat="47.53503" lon="6.76391">
        <ele>424.3</ele>
        <time>2014-05-01T07:48:37.000Z</time>
      </trkpt>
      <trkpt lat="47.53503" lon="6.76388">
        <ele>424.1</ele>
        <time>2014-05-01T07:48:38.000Z</time>
      </trkpt>
      <trkpt lat="47.53503" lon="6.76385">
        <ele>423.7</ele>
        <time>2014-05-01T07:48:39.000Z</time>
      </trkpt>
      <trkpt lat="47.53504" lon="6.76381">
        <ele>424.1</ele>
        <time>2014-05-01T07:48:40.000Z</time>
      </trkpt>
      <trkpt lat="47.53504" lon="6.76377">
        <ele>425.3</ele>
        <time>2014-05-01T07:48:41.000Z</time>
      </trkpt>
      <trkpt lat="47.53505" lon="6.76374">
        <ele>429</ele>
        <time>2014-05-01T07:48:42.000Z</time>
      </trkpt>
      <trkpt lat="47.53507" lon="6.76369">
        <ele>431.8</ele>
        <time>2014-05-01T07:48:44.000Z</time>
      </trkpt>
      <trkpt lat="47.53508" lon="6.76367">
        <ele>431.8</ele>
        <time>2014-05-01T07:48:45.000Z</time>
      </trkpt>
      <trkpt lat="47.5351" lon="6.76361">
        <ele>431.5</ele>
        <time>2014-05-01T07:48:47.000Z</time>
      </trkpt>
      <trkpt lat="47.53511" lon="6.76357">
        <ele>431.5</ele>
        <time>2014-05-01T07:48:48.000Z</time>
      </trkpt>
      <trkpt lat="47.53512" lon="6.76351">
        <ele>431.9</ele>
        <time>2014-05-01T07:48:50.000Z</time>
      </trkpt>
      <trkpt lat="47.53513" lon="6.76348">
        <ele>432</ele>
        <time>2014-05-01T07:48:51.000Z</time>
      </trkpt>
      <trkpt lat="47.53514" lon="6.76342">
        <ele>431.8</ele>
        <time>2014-05-01T07:48:53.000Z</time>
      </trkpt>
      <trkpt lat="47.53514" lon="6.76339">
        <ele>431.8</ele>
        <time>2014-05-01T07:48:54.000Z</time>
      </trkpt>
      <trkpt lat="47.53515" lon="6.76333">
        <ele>432.2</ele>
        <time>2014-05-01T07:48:56.000Z</time>
      </trkpt>
      <trkpt lat="47.53515" lon="6.7633">
        <ele>431.9</ele>
        <time>2014-05-01T07:48:57.000Z</time>
      </trkpt>
      <trkpt lat="47.53516" lon="6.76324">
        <ele>431.7</ele>
        <time>2014-05-01T07:48:59.000Z</time>
      </trkpt>
      <trkpt lat="47.53516" lon="6.7632">
        <ele>432</ele>
        <time>2014-05-01T07:49:00.000Z</time>
      </trkpt>
      <trkpt lat="47.53516" lon="6.76317">
        <ele>432.2</ele>
        <time>2014-05-01T07:49:01.000Z</time>
      </trkpt>
      <trkpt lat="47.53517" lon="6.76313">
        <ele>431.3</ele>
        <time>2014-05-01T07:49:02.000Z</time>
      </trkpt>
      <trkpt lat="47.53517" lon="6.7631">
        <ele>431.3</ele>
        <time>2014-05-01T07:49:03.000Z</time>
      </trkpt>
      <trkpt lat="47.53518" lon="6.76307">
        <ele>431.9</ele>
        <time>2014-05-01T07:49:04.000Z</time>
      </trkpt>
      <trkpt lat="47.53518" lon="6.76304">
        <ele>433</ele>
        <time>2014-05-01T07:49:05.000Z</time>
      </trkpt>
      <trkpt lat="47.53521" lon="6.76278">
        <ele>427.8</ele>
        <time>2014-05-01T07:49:13.000Z</time>
      </trkpt>
      <trkpt lat="47.53522" lon="6.76273">
        <ele>427.9</ele>
        <time>2014-05-01T07:49:14.000Z</time>
      </trkpt>
      <trkpt lat="47.53522" lon="6.76268">
        <ele>427.9</ele>
        <time>2014-05-01T07:49:15.000Z</time>
      </trkpt>
      <trkpt lat="47.53523" lon="6.76263">
        <ele>427.2</ele>
        <time>2014-05-01T07:49:16.000Z</time>
      </trkpt>
      <trkpt lat="47.53523" lon="6.76259">
        <ele>427.4</ele>
        <time>2014-05-01T07:49:17.000Z</time>
      </trkpt>
      <trkpt lat="47.53523" lon="6.76255">
        <ele>427.5</ele>
        <time>2014-05-01T07:49:18.000Z</time>
      </trkpt>
      <trkpt lat="47.53523" lon="6.76251">
        <ele>426.8</ele>
        <time>2014-05-01T07:49:19.000Z</time>
      </trkpt>
      <trkpt lat="47.53523" lon="6.76247">
        <ele>426.6</ele>
        <time>2014-05-01T07:49:20.000Z</time>
      </trkpt>
      <trkpt lat="47.53524" lon="6.76242">
        <ele>425.2</ele>
        <time>2014-05-01T07:49:21.000Z</time>
      </trkpt>
      <trkpt lat="47.53525" lon="6.76238">
        <ele>425</ele>
        <time>2014-05-01T07:49:22.000Z</time>
      </trkpt>
      <trkpt lat="47.53526" lon="6.76234">
        <ele>426.6</ele>
        <time>2014-05-01T07:49:23.000Z</time>
      </trkpt>
      <trkpt lat="47.53527" lon="6.76229">
        <ele>426.4</ele>
        <time>2014-05-01T07:49:24.000Z</time>
      </trkpt>
      <trkpt lat="47.53528" lon="6.76224">
        <ele>427.5</ele>
        <time>2014-05-01T07:49:25.000Z</time>
      </trkpt>
      <trkpt lat="47.53528" lon="6.76219">
        <ele>429.1</ele>
        <time>2014-05-01T07:49:26.000Z</time>
      </trkpt>
      <trkpt lat="47.53529" lon="6.76215">
        <ele>430.2</ele>
        <time>2014-05-01T07:49:27.000Z</time>
      </trkpt>
      <trkpt lat="47.53529" lon="6.76209">
        <ele>431.2</ele>
        <time>2014-05-01T07:49:29.000Z</time>
      </trkpt>
      <trkpt lat="47.53529" lon="6.76206">
        <ele>431.8</ele>
        <time>2014-05-01T07:49:30.000Z</time>
      </trkpt>
      <trkpt lat="47.5353" lon="6.76203">
        <ele>431.2</ele>
        <time>2014-05-01T07:49:31.000Z</time>
      </trkpt>
      <trkpt lat="47.5353" lon="6.76199">
        <ele>430.4</ele>
        <time>2014-05-01T07:49:32.000Z</time>
      </trkpt>
      <trkpt lat="47.53531" lon="6.76194">
        <ele>429</ele>
        <time>2014-05-01T07:49:33.000Z</time>
      </trkpt>
      <trkpt lat="47.53533" lon="6.76188">
        <ele>428.2</ele>
        <time>2014-05-01T07:49:34.000Z</time>
      </trkpt>
      <trkpt lat="47.53535" lon="6.76181">
        <ele>427</ele>
        <time>2014-05-01T07:49:35.000Z</time>
      </trkpt>
      <trkpt lat="47.53537" lon="6.76175">
        <ele>426.6</ele>
        <time>2014-05-01T07:49:36.000Z</time>
      </trkpt>
      <trkpt lat="47.53539" lon="6.7617">
        <ele>426.6</ele>
        <time>2014-05-01T07:49:37.000Z</time>
      </trkpt>
      <trkpt lat="47.53541" lon="6.76166">
        <ele>426.5</ele>
        <time>2014-05-01T07:49:38.000Z</time>
      </trkpt>
      <trkpt lat="47.53542" lon="6.76161">
        <ele>428.4</ele>
        <time>2014-05-01T07:49:40.000Z</time>
      </trkpt>
      <trkpt lat="47.53542" lon="6.76158">
        <ele>429.5</ele>
        <time>2014-05-01T07:49:41.000Z</time>
      </trkpt>
      <trkpt lat="47.53541" lon="6.76153">
        <ele>431</ele>
        <time>2014-05-01T07:49:43.000Z</time>
      </trkpt>
      <trkpt lat="47.53541" lon="6.7615">
        <ele>429.8</ele>
        <time>2014-05-01T07:49:44.000Z</time>
      </trkpt>
      <trkpt lat="47.53541" lon="6.76146">
        <ele>430.5</ele>
        <time>2014-05-01T07:49:45.000Z</time>
      </trkpt>
      <trkpt lat="47.53542" lon="6.76142">
        <ele>431.3</ele>
        <time>2014-05-01T07:49:46.000Z</time>
      </trkpt>
      <trkpt lat="47.53544" lon="6.76139">
        <ele>431</ele>
        <time>2014-05-01T07:49:47.000Z</time>
      </trkpt>
      <trkpt lat="47.53545" lon="6.76135">
        <ele>430.2</ele>
        <time>2014-05-01T07:49:48.000Z</time>
      </trkpt>
      <trkpt lat="47.53546" lon="6.76131">
        <ele>427.6</ele>
        <time>2014-05-01T07:49:49.000Z</time>
      </trkpt>
      <trkpt lat="47.53547" lon="6.76127">
        <ele>427.3</ele>
        <time>2014-05-01T07:49:50.000Z</time>
      </trkpt>
      <trkpt lat="47.53548" lon="6.76122">
        <ele>427.5</ele>
        <time>2014-05-01T07:49:51.000Z</time>
      </trkpt>
      <trkpt lat="47.53549" lon="6.76117">
        <ele>428.2</ele>
        <time>2014-05-01T07:49:52.000Z</time>
      </trkpt>
      <trkpt lat="47.5355" lon="6.76112">
        <ele>428</ele>
        <time>2014-05-01T07:49:53.000Z</time>
      </trkpt>
      <trkpt lat="47.53551" lon="6.76108">
        <ele>428.6</ele>
        <time>2014-05-01T07:49:54.000Z</time>
      </trkpt>
      <trkpt lat="47.53551" lon="6.76103">
        <ele>428.9</ele>
        <time>2014-05-01T07:49:55.000Z</time>
      </trkpt>
      <trkpt lat="47.53552" lon="6.76098">
        <ele>427.7</ele>
        <time>2014-05-01T07:49:56.000Z</time>
      </trkpt>
      <trkpt lat="47.53552" lon="6.76094">
        <ele>429.1</ele>
        <time>2014-05-01T07:49:57.000Z</time>
      </trkpt>
      <trkpt lat="47.53552" lon="6.76089">
        <ele>428.8</ele>
        <time>2014-05-01T07:49:58.000Z</time>
      </trkpt>
      <trkpt lat="47.53552" lon="6.76085">
        <ele>427.9</ele>
        <time>2014-05-01T07:49:59.000Z</time>
      </trkpt>
      <trkpt lat="47.53552" lon="6.76081">
        <ele>428.5</ele>
        <time>2014-05-01T07:50:00.000Z</time>
      </trkpt>
      <trkpt lat="47.53552" lon="6.76077">
        <ele>428.6</ele>
        <time>2014-05-01T07:50:01.000Z</time>
      </trkpt>
      <trkpt lat="47.53552" lon="6.76074">
        <ele>427.7</ele>
        <time>2014-05-01T07:50:02.000Z</time>
      </trkpt>
      <trkpt lat="47.53553" lon="6.76067">
        <ele>436.2</ele>
        <time>2014-05-01T07:50:04.000Z</time>
      </trkpt>
      <trkpt lat="47.5356" lon="6.76037">
        <ele>431</ele>
        <time>2014-05-01T07:50:11.830Z</time>
      </trkpt>
      <trkpt lat="47.53562" lon="6.76031">
        <ele>430.8</ele>
        <time>2014-05-01T07:50:14.000Z</time>
      </trkpt>
      <trkpt lat="47.53563" lon="6.76029">
        <ele>430.8</ele>
        <time>2014-05-01T07:50:15.000Z</time>
      </trkpt>
      <trkpt lat="47.53564" lon="6.76024">
        <ele>430.7</ele>
        <time>2014-05-01T07:50:17.000Z</time>
      </trkpt>
      <trkpt lat="47.53565" lon="6.76022">
        <ele>430.6</ele>
        <time>2014-05-01T07:50:18.000Z</time>
      </trkpt>
      <trkpt lat="47.53567" lon="6.76017">
        <ele>430.7</ele>
        <time>2014-05-01T07:50:21.000Z</time>
      </trkpt>
      <trkpt lat="47.53567" lon="6.76015">
        <ele>430.6</ele>
        <time>2014-05-01T07:50:22.000Z</time>
      </trkpt>
      <trkpt lat="47.53568" lon="6.7601">
        <ele>430.6</ele>
        <time>2014-05-01T07:50:24.000Z</time>
      </trkpt>
      <trkpt lat="47.53569" lon="6.76003">
        <ele>430.1</ele>
        <time>2014-05-01T07:50:25.000Z</time>
      </trkpt>
      <trkpt lat="47.53573" lon="6.75973">
        <ele>432.9</ele>
        <time>2014-05-01T07:50:26.000Z</time>
      </trkpt>
      <trkpt lat="47.53574" lon="6.75968">
        <ele>432.4</ele>
        <time>2014-05-01T07:50:27.000Z</time>
      </trkpt>
      <trkpt lat="47.53574" lon="6.75966">
        <ele>430.4</ele>
        <time>2014-05-01T07:50:28.000Z</time>
      </trkpt>
      <trkpt lat="47.53574" lon="6.75961">
        <ele>428.1</ele>
        <time>2014-05-01T07:50:29.000Z</time>
      </trkpt>
      <trkpt lat="47.53574" lon="6.75958">
        <ele>427.1</ele>
        <time>2014-05-01T07:50:30.000Z</time>
      </trkpt>
      <trkpt lat="47.53575" lon="6.75954">
        <ele>429.8</ele>
        <time>2014-05-01T07:50:31.000Z</time>
      </trkpt>
      <trkpt lat="47.53575" lon="6.7595">
        <ele>430.7</ele>
        <time>2014-05-01T07:50:32.000Z</time>
      </trkpt>
      <trkpt lat="47.53576" lon="6.75946">
        <ele>430.8</ele>
        <time>2014-05-01T07:50:33.000Z</time>
      </trkpt>
      <trkpt lat="47.53577" lon="6.75941">
        <ele>430.1</ele>
        <time>2014-05-01T07:50:34.000Z</time>
      </trkpt>
      <trkpt lat="47.53578" lon="6.75937">
        <ele>429.5</ele>
        <time>2014-05-01T07:50:35.000Z</time>
      </trkpt>
      <trkpt lat="47.53579" lon="6.75934">
        <ele>429.3</ele>
        <time>2014-05-01T07:50:36.000Z</time>
      </trkpt>
      <trkpt lat="47.5358" lon="6.75928">
        <ele>426.9</ele>
        <time>2014-05-01T07:50:37.000Z</time>
      </trkpt>
      <trkpt lat="47.53581" lon="6.75922">
        <ele>423</ele>
        <time>2014-05-01T07:50:37.999Z</time>
      </trkpt>
      <trkpt lat="47.53583" lon="6.75917">
        <ele>421.2</ele>
        <time>2014-05-01T07:50:39.000Z</time>
      </trkpt>
      <trkpt lat="47.53583" lon="6.75911">
        <ele>417.9</ele>
        <time>2014-05-01T07:50:40.000Z</time>
      </trkpt>
      <trkpt lat="47.53584" lon="6.75907">
        <ele>418.5</ele>
        <time>2014-05-01T07:50:41.000Z</time>
      </trkpt>
      <trkpt lat="47.53584" lon="6.75903">
        <ele>418.6</ele>
        <time>2014-05-01T07:50:42.000Z</time>
      </trkpt>
      <trkpt lat="47.53583" lon="6.75898">
        <ele>415.2</ele>
        <time>2014-05-01T07:50:45.000Z</time>
      </trkpt>
      <trkpt lat="47.53581" lon="6.75897">
        <ele>414.8</ele>
        <time>2014-05-01T07:50:46.000Z</time>
      </trkpt>
      <trkpt lat="47.53579" lon="6.75896">
        <ele>413.8</ele>
        <time>2014-05-01T07:50:48.000Z</time>
      </trkpt>
      <trkpt lat="47.53577" lon="6.75894">
        <ele>417.8</ele>
        <time>2014-05-01T07:50:49.000Z</time>
      </trkpt>
      <trkpt lat="47.53574" lon="6.7589">
        <ele>419.3</ele>
        <time>2014-05-01T07:50:51.000Z</time>
      </trkpt>
      <trkpt lat="47.53572" lon="6.75887">
        <ele>419.9</ele>
        <time>2014-05-01T07:50:52.000Z</time>
      </trkpt>
      <trkpt lat="47.5357" lon="6.75885">
        <ele>419.3</ele>
        <time>2014-05-01T07:50:53.000Z</time>
      </trkpt>
      <trkpt lat="47.53569" lon="6.75882">
        <ele>419.4</ele>
        <time>2014-05-01T07:50:54.000Z</time>
      </trkpt>
      <trkpt lat="47.53567" lon="6.7588">
        <ele>419.2</ele>
        <time>2014-05-01T07:50:55.000Z</time>
      </trkpt>
      <trkpt lat="47.53565" lon="6.75878">
        <ele>418.9</ele>
        <time>2014-05-01T07:50:56.000Z</time>
      </trkpt>
      <trkpt lat="47.53563" lon="6.75876">
        <ele>417.6</ele>
        <time>2014-05-01T07:50:57.000Z</time>
      </trkpt>
      <trkpt lat="47.53561" lon="6.75875">
        <ele>417.4</ele>
        <time>2014-05-01T07:50:58.000Z</time>
      </trkpt>
      <trkpt lat="47.53558" lon="6.75873">
        <ele>416.4</ele>
        <time>2014-05-01T07:50:59.000Z</time>
      </trkpt>
      <trkpt lat="47.53555" lon="6.75872">
        <ele>415.2</ele>
        <time>2014-05-01T07:51:00.000Z</time>
      </trkpt>
      <trkpt lat="47.53551" lon="6.75871">
        <ele>414.7</ele>
        <time>2014-05-01T07:51:01.000Z</time>
      </trkpt>
      <trkpt lat="47.53548" lon="6.75869">
        <ele>413.6</ele>
        <time>2014-05-01T07:51:02.000Z</time>
      </trkpt>
      <trkpt lat="47.53544" lon="6.75868">
        <ele>413.2</ele>
        <time>2014-05-01T07:51:03.000Z</time>
      </trkpt>
      <trkpt lat="47.5354" lon="6.75867">
        <ele>412.5</ele>
        <time>2014-05-01T07:51:04.000Z</time>
      </trkpt>
      <trkpt lat="47.53536" lon="6.75865">
        <ele>412.6</ele>
        <time>2014-05-01T07:51:05.000Z</time>
      </trkpt>
      <trkpt lat="47.53503" lon="6.75848">
        <ele>411.2</ele>
        <time>2014-05-01T07:51:13.000Z</time>
      </trkpt>
      <trkpt lat="47.53499" lon="6.75845">
        <ele>411.5</ele>
        <time>2014-05-01T07:51:14.000Z</time>
      </trkpt>
      <trkpt lat="47.53493" lon="6.75842">
        <ele>409.4</ele>
        <time>2014-05-01T07:51:15.000Z</time>
      </trkpt>
      <trkpt lat="47.53489" lon="6.75839">
        <ele>408.8</ele>
        <time>2014-05-01T07:51:16.000Z</time>
      </trkpt>
      <trkpt lat="47.53486" lon="6.75835">
        <ele>406.9</ele>
        <time>2014-05-01T07:51:17.000Z</time>
      </trkpt>
      <trkpt lat="47.53484" lon="6.75831">
        <ele>409</ele>
        <time>2014-05-01T07:51:18.000Z</time>
      </trkpt>
      <trkpt lat="47.53482" lon="6.75828">
        <ele>408.7</ele>
        <time>2014-05-01T07:51:19.000Z</time>
      </trkpt>
      <trkpt lat="47.53481" lon="6.75824">
        <ele>402.9</ele>
        <time>2014-05-01T07:51:20.000Z</time>
      </trkpt>
      <trkpt lat="47.53479" lon="6.75822">
        <ele>400.3</ele>
        <time>2014-05-01T07:51:21.000Z</time>
      </trkpt>
      <trkpt lat="47.53478" lon="6.75817">
        <ele>399.1</ele>
        <time>2014-05-01T07:51:23.000Z</time>
      </trkpt>
      <trkpt lat="47.53477" lon="6.75813">
        <ele>398.5</ele>
        <time>2014-05-01T07:51:24.000Z</time>
      </trkpt>
      <trkpt lat="47.53476" lon="6.75809">
        <ele>399</ele>
        <time>2014-05-01T07:51:25.000Z</time>
      </trkpt>
      <trkpt lat="47.53475" lon="6.75803">
        <ele>402.9</ele>
        <time>2014-05-01T07:51:26.000Z</time>
      </trkpt>
      <trkpt lat="47.53475" lon="6.75797">
        <ele>405</ele>
        <time>2014-05-01T07:51:27.000Z</time>
      </trkpt>
      <trkpt lat="47.53474" lon="6.75791">
        <ele>405.5</ele>
        <time>2014-05-01T07:51:28.000Z</time>
      </trkpt>
      <trkpt lat="47.53474" lon="6.75784">
        <ele>405.8</ele>
        <time>2014-05-01T07:51:29.000Z</time>
      </trkpt>
      <trkpt lat="47.53474" lon="6.75778">
        <ele>406.1</ele>
        <time>2014-05-01T07:51:30.000Z</time>
      </trkpt>
      <trkpt lat="47.53474" lon="6.75772">
        <ele>405</ele>
        <time>2014-05-01T07:51:31.000Z</time>
      </trkpt>
      <trkpt lat="47.53473" lon="6.75766">
        <ele>405.9</ele>
        <time>2014-05-01T07:51:32.000Z</time>
      </trkpt>
      <trkpt lat="47.53474" lon="6.7576">
        <ele>407.6</ele>
        <time>2014-05-01T07:51:33.000Z</time>
      </trkpt>
      <trkpt lat="47.53474" lon="6.75754">
        <ele>408.1</ele>
        <time>2014-05-01T07:51:34.000Z</time>
      </trkpt>
      <trkpt lat="47.53474" lon="6.75749">
        <ele>406.1</ele>
        <time>2014-05-01T07:51:35.000Z</time>
      </trkpt>
      <trkpt lat="47.53474" lon="6.75743">
        <ele>404.7</ele>
        <time>2014-05-01T07:51:36.000Z</time>
      </trkpt>
      <trkpt lat="47.53474" lon="6.75737">
        <ele>403.5</ele>
        <time>2014-05-01T07:51:37.000Z</time>
      </trkpt>
      <trkpt lat="47.53474" lon="6.7573">
        <ele>404</ele>
        <time>2014-05-01T07:51:38.000Z</time>
      </trkpt>
      <trkpt lat="47.53473" lon="6.75722">
        <ele>403.8</ele>
        <time>2014-05-01T07:51:39.000Z</time>
      </trkpt>
      <trkpt lat="47.53472" lon="6.75715">
        <ele>400.4</ele>
        <time>2014-05-01T07:51:40.000Z</time>
      </trkpt>
      <trkpt lat="47.5347" lon="6.75709">
        <ele>399.4</ele>
        <time>2014-05-01T07:51:41.000Z</time>
      </trkpt>
      <trkpt lat="47.53468" lon="6.75704">
        <ele>397.8</ele>
        <time>2014-05-01T07:51:42.000Z</time>
      </trkpt>
      <trkpt lat="47.53467" lon="6.75699">
        <ele>397.1</ele>
        <time>2014-05-01T07:51:43.000Z</time>
      </trkpt>
      <trkpt lat="47.53466" lon="6.75694">
        <ele>396.5</ele>
        <time>2014-05-01T07:51:44.000Z</time>
      </trkpt>
      <trkpt lat="47.53465" lon="6.75689">
        <ele>397</ele>
        <time>2014-05-01T07:51:45.000Z</time>
      </trkpt>
      <trkpt lat="47.53464" lon="6.75684">
        <ele>397</ele>
        <time>2014-05-01T07:51:46.000Z</time>
      </trkpt>
      <trkpt lat="47.53464" lon="6.7568">
        <ele>396.2</ele>
        <time>2014-05-01T07:51:47.000Z</time>
      </trkpt>
      <trkpt lat="47.53463" lon="6.75675">
        <ele>394.5</ele>
        <time>2014-05-01T07:51:48.000Z</time>
      </trkpt>
      <trkpt lat="47.53463" lon="6.7567">
        <ele>394.1</ele>
        <time>2014-05-01T07:51:49.000Z</time>
      </trkpt>
      <trkpt lat="47.53463" lon="6.75665">
        <ele>393.2</ele>
        <time>2014-05-01T07:51:50.000Z</time>
      </trkpt>
      <trkpt lat="47.53463" lon="6.75659">
        <ele>392.5</ele>
        <time>2014-05-01T07:51:51.000Z</time>
      </trkpt>
      <trkpt lat="47.53462" lon="6.75653">
        <ele>389.6</ele>
        <time>2014-05-01T07:51:52.000Z</time>
      </trkpt>
      <trkpt lat="47.53462" lon="6.75647">
        <ele>388.3</ele>
        <time>2014-05-01T07:51:53.000Z</time>
      </trkpt>
      <trkpt lat="47.53462" lon="6.75642">
        <ele>386.6</ele>
        <time>2014-05-01T07:51:54.000Z</time>
      </trkpt>
      <trkpt lat="47.5346" lon="6.75637">
        <ele>388</ele>
        <time>2014-05-01T07:51:55.000Z</time>
      </trkpt>
      <trkpt lat="47.53457" lon="6.75634">
        <ele>388</ele>
        <time>2014-05-01T07:51:56.000Z</time>
      </trkpt>
      <trkpt lat="47.53453" lon="6.75631">
        <ele>387.4</ele>
        <time>2014-05-01T07:51:57.000Z</time>
      </trkpt>
      <trkpt lat="47.53449" lon="6.75631">
        <ele>386.7</ele>
        <time>2014-05-01T07:51:58.000Z</time>
      </trkpt>
      <trkpt lat="47.53444" lon="6.75632">
        <ele>385.7</ele>
        <time>2014-05-01T07:51:59.000Z</time>
      </trkpt>
      <trkpt lat="47.5344" lon="6.75633">
        <ele>384.9</ele>
        <time>2014-05-01T07:52:00.000Z</time>
      </trkpt>
      <trkpt lat="47.53436" lon="6.75635">
        <ele>384.4</ele>
        <time>2014-05-01T07:52:01.000Z</time>
      </trkpt>
      <trkpt lat="47.53433" lon="6.75637">
        <ele>384.1</ele>
        <time>2014-05-01T07:52:02.000Z</time>
      </trkpt>
      <trkpt lat="47.5343" lon="6.75638">
        <ele>383.8</ele>
        <time>2014-05-01T07:52:03.000Z</time>
      </trkpt>
      <trkpt lat="47.53426" lon="6.75639">
        <ele>383.3</ele>
        <time>2014-05-01T07:52:04.000Z</time>
      </trkpt>
      <trkpt lat="47.53421" lon="6.75641">
        <ele>383.3</ele>
        <time>2014-05-01T07:52:05.000Z</time>
      </trkpt>
      <trkpt lat="47.53378" lon="6.7565">
        <ele>385.7</ele>
        <time>2014-05-01T07:52:13.000Z</time>
      </trkpt>
      <trkpt lat="47.53372" lon="6.75654">
        <ele>384.9</ele>
        <time>2014-05-01T07:52:14.000Z</time>
      </trkpt>
      <trkpt lat="47.53365" lon="6.75655">
        <ele>385.1</ele>
        <time>2014-05-01T07:52:15.000Z</time>
      </trkpt>
      <trkpt lat="47.53359" lon="6.75657">
        <ele>385.5</ele>
        <time>2014-05-01T07:52:16.000Z</time>
      </trkpt>
      <trkpt lat="47.53352" lon="6.75658">
        <ele>386.5</ele>
        <time>2014-05-01T07:52:17.000Z</time>
      </trkpt>
      <trkpt lat="47.53346" lon="6.75659">
        <ele>387.4</ele>
        <time>2014-05-01T07:52:18.000Z</time>
      </trkpt>
      <trkpt lat="47.5334" lon="6.7566">
        <ele>387.4</ele>
        <time>2014-05-01T07:52:19.000Z</time>
      </trkpt>
      <trkpt lat="47.53333" lon="6.7566">
        <ele>388</ele>
        <time>2014-05-01T07:52:20.000Z</time>
      </trkpt>
      <trkpt lat="47.53328" lon="6.7566">
        <ele>387.4</ele>
        <time>2014-05-01T07:52:21.000Z</time>
      </trkpt>
      <trkpt lat="47.53324" lon="6.75664">
        <ele>387.7</ele>
        <time>2014-05-01T07:52:22.000Z</time>
      </trkpt>
      <trkpt lat="47.53317" lon="6.75667">
        <ele>386.8</ele>
        <time>2014-05-01T07:52:23.000Z</time>
      </trkpt>
      <trkpt lat="47.53311" lon="6.7567">
        <ele>386.6</ele>
        <time>2014-05-01T07:52:24.000Z</time>
      </trkpt>
      <trkpt lat="47.53306" lon="6.75669">
        <ele>386.4</ele>
        <time>2014-05-01T07:52:25.000Z</time>
      </trkpt>
      <trkpt lat="47.53301" lon="6.7567">
        <ele>386.3</ele>
        <time>2014-05-01T07:52:26.000Z</time>
      </trkpt>
      <trkpt lat="47.53296" lon="6.75673">
        <ele>385.9</ele>
        <time>2014-05-01T07:52:27.000Z</time>
      </trkpt>
      <trkpt lat="47.53291" lon="6.75675">
        <ele>384.7</ele>
        <time>2014-05-01T07:52:28.000Z</time>
      </trkpt>
      <trkpt lat="47.53286" lon="6.75675">
        <ele>387.9</ele>
        <time>2014-05-01T07:52:29.000Z</time>
      </trkpt>
      <trkpt lat="47.53282" lon="6.75678">
        <ele>388.1</ele>
        <time>2014-05-01T07:52:30.000Z</time>
      </trkpt>
      <trkpt lat="47.53278" lon="6.75679">
        <ele>387.3</ele>
        <time>2014-05-01T07:52:31.000Z</time>
      </trkpt>
      <trkpt lat="47.53273" lon="6.75679">
        <ele>386.2</ele>
        <time>2014-05-01T07:52:32.000Z</time>
      </trkpt>
      <trkpt lat="47.53268" lon="6.7568">
        <ele>386.6</ele>
        <time>2014-05-01T07:52:33.000Z</time>
      </trkpt>
      <trkpt lat="47.53264" lon="6.75681">
        <ele>386.7</ele>
        <time>2014-05-01T07:52:34.000Z</time>
      </trkpt>
      <trkpt lat="47.5326" lon="6.75681">
        <ele>387.3</ele>
        <time>2014-05-01T07:52:35.000Z</time>
      </trkpt>
      <trkpt lat="47.53254" lon="6.75681">
        <ele>386.6</ele>
        <time>2014-05-01T07:52:36.000Z</time>
      </trkpt>
      <trkpt lat="47.53249" lon="6.7568">
        <ele>385.9</ele>
        <time>2014-05-01T07:52:37.000Z</time>
      </trkpt>
      <trkpt lat="47.53244" lon="6.7568">
        <ele>386</ele>
        <time>2014-05-01T07:52:38.000Z</time>
      </trkpt>
      <trkpt lat="47.53239" lon="6.7568">
        <ele>386</ele>
        <time>2014-05-01T07:52:39.000Z</time>
      </trkpt>
      <trkpt lat="47.53234" lon="6.75679">
        <ele>388.2</ele>
        <time>2014-05-01T07:52:40.000Z</time>
      </trkpt>
      <trkpt lat="47.53229" lon="6.75679">
        <ele>389.6</ele>
        <time>2014-05-01T07:52:41.000Z</time>
      </trkpt>
      <trkpt lat="47.53223" lon="6.7568">
        <ele>390</ele>
        <time>2014-05-01T07:52:42.000Z</time>
      </trkpt>
      <trkpt lat="47.53218" lon="6.75677">
        <ele>390.1</ele>
        <time>2014-05-01T07:52:43.000Z</time>
      </trkpt>
      <trkpt lat="47.53213" lon="6.75675">
        <ele>390</ele>
        <time>2014-05-01T07:52:44.000Z</time>
      </trkpt>
      <trkpt lat="47.53209" lon="6.75675">
        <ele>388.5</ele>
        <time>2014-05-01T07:52:45.000Z</time>
      </trkpt>
      <trkpt lat="47.53204" lon="6.75674">
        <ele>388.1</ele>
        <time>2014-05-01T07:52:46.000Z</time>
      </trkpt>
      <trkpt lat="47.532" lon="6.75673">
        <ele>388.5</ele>
        <time>2014-05-01T07:52:47.000Z</time>
      </trkpt>
      <trkpt lat="47.53195" lon="6.75671">
        <ele>389</ele>
        <time>2014-05-01T07:52:48.000Z</time>
      </trkpt>
      <trkpt lat="47.5319" lon="6.75669">
        <ele>389.4</ele>
        <time>2014-05-01T07:52:49.000Z</time>
      </trkpt>
      <trkpt lat="47.53185" lon="6.7567">
        <ele>389.2</ele>
        <time>2014-05-01T07:52:50.000Z</time>
      </trkpt>
      <trkpt lat="47.53179" lon="6.7567">
        <ele>388.9</ele>
        <time>2014-05-01T07:52:51.000Z</time>
      </trkpt>
      <trkpt lat="47.53174" lon="6.75669">
        <ele>388.4</ele>
        <time>2014-05-01T07:52:52.000Z</time>
      </trkpt>
      <trkpt lat="47.5317" lon="6.75671">
        <ele>384.9</ele>
        <time>2014-05-01T07:52:53.000Z</time>
      </trkpt>
      <trkpt lat="47.53166" lon="6.75669">
        <ele>384.3</ele>
        <time>2014-05-01T07:52:54.000Z</time>
      </trkpt>
      <trkpt lat="47.53161" lon="6.75667">
        <ele>383.8</ele>
        <time>2014-05-01T07:52:55.000Z</time>
      </trkpt>
      <trkpt lat="47.53157" lon="6.75665">
        <ele>384.4</ele>
        <time>2014-05-01T07:52:56.000Z</time>
      </trkpt>
      <trkpt lat="47.53152" lon="6.75663">
        <ele>383.9</ele>
        <time>2014-05-01T07:52:57.000Z</time>
      </trkpt>
      <trkpt lat="47.53148" lon="6.75661">
        <ele>385</ele>
        <time>2014-05-01T07:52:58.000Z</time>
      </trkpt>
      <trkpt lat="47.53143" lon="6.75658">
        <ele>384.9</ele>
        <time>2014-05-01T07:52:59.000Z</time>
      </trkpt>
      <trkpt lat="47.53138" lon="6.75655">
        <ele>384.9</ele>
        <time>2014-05-01T07:53:00.000Z</time>
      </trkpt>
      <trkpt lat="47.53133" lon="6.75651">
        <ele>385.1</ele>
        <time>2014-05-01T07:53:01.000Z</time>
      </trkpt>
      <trkpt lat="47.5313" lon="6.75648">
        <ele>384.7</ele>
        <time>2014-05-01T07:53:02.000Z</time>
      </trkpt>
      <trkpt lat="47.53126" lon="6.75646">
        <ele>385.2</ele>
        <time>2014-05-01T07:53:03.000Z</time>
      </trkpt>
      <trkpt lat="47.53123" lon="6.75642">
        <ele>385.1</ele>
        <time>2014-05-01T07:53:04.000Z</time>
      </trkpt>
      <trkpt lat="47.53118" lon="6.75639">
        <ele>384.3</ele>
        <time>2014-05-01T07:53:05.000Z</time>
      </trkpt>
      <trkpt lat="47.53089" lon="6.75614">
        <ele>379.2</ele>
        <time>2014-05-01T07:53:13.000Z</time>
      </trkpt>
      <trkpt lat="47.53084" lon="6.75609">
        <ele>378.4</ele>
        <time>2014-05-01T07:53:14.000Z</time>
      </trkpt>
      <trkpt lat="47.53077" lon="6.75605">
        <ele>378.4</ele>
        <time>2014-05-01T07:53:15.000Z</time>
      </trkpt>
      <trkpt lat="47.53072" lon="6.75601">
        <ele>378.7</ele>
        <time>2014-05-01T07:53:16.000Z</time>
      </trkpt>
      <trkpt lat="47.53068" lon="6.75598">
        <ele>378.7</ele>
        <time>2014-05-01T07:53:17.000Z</time>
      </trkpt>
      <trkpt lat="47.53062" lon="6.75596">
        <ele>378</ele>
        <time>2014-05-01T07:53:18.000Z</time>
      </trkpt>
      <trkpt lat="47.53056" lon="6.75594">
        <ele>377.4</ele>
        <time>2014-05-01T07:53:19.000Z</time>
      </trkpt>
      <trkpt lat="47.5305" lon="6.7559">
        <ele>377.9</ele>
        <time>2014-05-01T07:53:20.000Z</time>
      </trkpt>
      <trkpt lat="47.53044" lon="6.75589">
        <ele>378.1</ele>
        <time>2014-05-01T07:53:21.000Z</time>
      </trkpt>
      <trkpt lat="47.53038" lon="6.75587">
        <ele>377.9</ele>
        <time>2014-05-01T07:53:22.000Z</time>
      </trkpt>
      <trkpt lat="47.53032" lon="6.75586">
        <ele>377.4</ele>
        <time>2014-05-01T07:53:23.000Z</time>
      </trkpt>
      <trkpt lat="47.53026" lon="6.75585">
        <ele>377.5</ele>
        <time>2014-05-01T07:53:24.000Z</time>
      </trkpt>
      <trkpt lat="47.53021" lon="6.75584">
        <ele>377.2</ele>
        <time>2014-05-01T07:53:25.000Z</time>
      </trkpt>
      <trkpt lat="47.53017" lon="6.75586">
        <ele>376.5</ele>
        <time>2014-05-01T07:53:26.000Z</time>
      </trkpt>
      <trkpt lat="47.53011" lon="6.75585">
        <ele>375.1</ele>
        <time>2014-05-01T07:53:27.000Z</time>
      </trkpt>
      <trkpt lat="47.53006" lon="6.75587">
        <ele>375.2</ele>
        <time>2014-05-01T07:53:28.000Z</time>
      </trkpt>
      <trkpt lat="47.53002" lon="6.75586">
        <ele>374.6</ele>
        <time>2014-05-01T07:53:29.000Z</time>
      </trkpt>
      <trkpt lat="47.52998" lon="6.75582">
        <ele>374.6</ele>
        <time>2014-05-01T07:53:30.000Z</time>
      </trkpt>
      <trkpt lat="47.52995" lon="6.75579">
        <ele>374.9</ele>
        <time>2014-05-01T07:53:31.000Z</time>
      </trkpt>
      <trkpt lat="47.52992" lon="6.75576">
        <ele>374.1</ele>
        <time>2014-05-01T07:53:32.000Z</time>
      </trkpt>
      <trkpt lat="47.5299" lon="6.7557">
        <ele>373.2</ele>
        <time>2014-05-01T07:53:35.000Z</time>
      </trkpt>
      <trkpt lat="47.52991" lon="6.75567">
        <ele>374.6</ele>
        <time>2014-05-01T07:53:36.000Z</time>
      </trkpt>
      <trkpt lat="47.52992" lon="6.75561">
        <ele>375.7</ele>
        <time>2014-05-01T07:53:39.000Z</time>
      </trkpt>
      <trkpt lat="47.52993" lon="6.7556">
        <ele>376</ele>
        <time>2014-05-01T07:53:40.000Z</time>
      </trkpt>
      <trkpt lat="47.52992" lon="6.75555">
        <ele>375.1</ele>
        <time>2014-05-01T07:53:42.000Z</time>
      </trkpt>
      <trkpt lat="47.52992" lon="6.75553">
        <ele>376</ele>
        <time>2014-05-01T07:53:43.000Z</time>
      </trkpt>
      <trkpt lat="47.5299" lon="6.75549">
        <ele>377.5</ele>
        <time>2014-05-01T07:53:44.000Z</time>
      </trkpt>
      <trkpt lat="47.52989" lon="6.75546">
        <ele>377.1</ele>
        <time>2014-05-01T07:53:45.000Z</time>
      </trkpt>
      <trkpt lat="47.52987" lon="6.75543">
        <ele>376.9</ele>
        <time>2014-05-01T07:53:46.000Z</time>
      </trkpt>
      <trkpt lat="47.52986" lon="6.7554">
        <ele>376.7</ele>
        <time>2014-05-01T07:53:47.000Z</time>
      </trkpt>
      <trkpt lat="47.52984" lon="6.75536">
        <ele>377.1</ele>
        <time>2014-05-01T07:53:48.000Z</time>
      </trkpt>
      <trkpt lat="47.52982" lon="6.75533">
        <ele>376.7</ele>
        <time>2014-05-01T07:53:49.000Z</time>
      </trkpt>
      <trkpt lat="47.52981" lon="6.75527">
        <ele>376</ele>
        <time>2014-05-01T07:53:51.000Z</time>
      </trkpt>
      <trkpt lat="47.5298" lon="6.75524">
        <ele>375.9</ele>
        <time>2014-05-01T07:53:52.000Z</time>
      </trkpt>
      <trkpt lat="47.5298" lon="6.7552">
        <ele>374.4</ele>
        <time>2014-05-01T07:53:53.000Z</time>
      </trkpt>
      <trkpt lat="47.52981" lon="6.75516">
        <ele>374.7</ele>
        <time>2014-05-01T07:53:54.000Z</time>
      </trkpt>
      <trkpt lat="47.52981" lon="6.75512">
        <ele>373.9</ele>
        <time>2014-05-01T07:53:55.000Z</time>
      </trkpt>
      <trkpt lat="47.5298" lon="6.7551">
        <ele>377.2</ele>
        <time>2014-05-01T07:53:56.000Z</time>
      </trkpt>
      <trkpt lat="47.52976" lon="6.75506">
        <ele>380.4</ele>
        <time>2014-05-01T07:53:59.000Z</time>
      </trkpt>
      <trkpt lat="47.52975" lon="6.75505">
        <ele>380.6</ele>
        <time>2014-05-01T07:54:00.000Z</time>
      </trkpt>
      <trkpt lat="47.52973" lon="6.75499">
        <ele>378.7</ele>
        <time>2014-05-01T07:54:02.000Z</time>
      </trkpt>
      <trkpt lat="47.52973" lon="6.75495">
        <ele>379.3</ele>
        <time>2014-05-01T07:54:03.000Z</time>
      </trkpt>
      <trkpt lat="47.52973" lon="6.75492">
        <ele>377.5</ele>
        <time>2014-05-01T07:54:04.000Z</time>
      </trkpt>
      <trkpt lat="47.52974" lon="6.75487">
        <ele>377.6</ele>
        <time>2014-05-01T07:54:05.000Z</time>
      </trkpt>
      <trkpt lat="47.52981" lon="6.75466">
        <ele>383</ele>
        <time>2014-05-01T07:54:13.000Z</time>
      </trkpt>
      <trkpt lat="47.52982" lon="6.75462">
        <ele>383.4</ele>
        <time>2014-05-01T07:54:14.000Z</time>
      </trkpt>
      <trkpt lat="47.52984" lon="6.75459">
        <ele>385.4</ele>
        <time>2014-05-01T07:54:15.000Z</time>
      </trkpt>
      <trkpt lat="47.52984" lon="6.75453">
        <ele>385</ele>
        <time>2014-05-01T07:54:18.000Z</time>
      </trkpt>
      <trkpt lat="47.52984" lon="6.75451">
        <ele>384.3</ele>
        <time>2014-05-01T07:54:19.000Z</time>
      </trkpt>
      <trkpt lat="47.52985" lon="6.75446">
        <ele>384.3</ele>
        <time>2014-05-01T07:54:21.000Z</time>
      </trkpt>
      <trkpt lat="47.52986" lon="6.75443">
        <ele>384.6</ele>
        <time>2014-05-01T07:54:22.000Z</time>
      </trkpt>
      <trkpt lat="47.52986" lon="6.75439">
        <ele>386.1</ele>
        <time>2014-05-01T07:54:23.000Z</time>
      </trkpt>
      <trkpt lat="47.52986" lon="6.75435">
        <ele>387.1</ele>
        <time>2014-05-01T07:54:24.000Z</time>
      </trkpt>
      <trkpt lat="47.52985" lon="6.7543">
        <ele>385.1</ele>
        <time>2014-05-01T07:54:26.000Z</time>
      </trkpt>
      <trkpt lat="47.52986" lon="6.75428">
        <ele>385.2</ele>
        <time>2014-05-01T07:54:27.000Z</time>
      </trkpt>
      <trkpt lat="47.52988" lon="6.75424">
        <ele>381.6</ele>
        <time>2014-05-01T07:54:29.000Z</time>
      </trkpt>
      <trkpt lat="47.52989" lon="6.75422">
        <ele>382.8</ele>
        <time>2014-05-01T07:54:30.000Z</time>
      </trkpt>
      <trkpt lat="47.52991" lon="6.75416">
        <ele>383.4</ele>
        <time>2014-05-01T07:54:32.000Z</time>
      </trkpt>
      <trkpt lat="47.52992" lon="6.75414">
        <ele>383.4</ele>
        <time>2014-05-01T07:54:33.000Z</time>
      </trkpt>
      <trkpt lat="47.52994" lon="6.75408">
        <ele>384.2</ele>
        <time>2014-05-01T07:54:35.000Z</time>
      </trkpt>
      <trkpt lat="47.52994" lon="6.75406">
        <ele>384.5</ele>
        <time>2014-05-01T07:54:36.001Z</time>
      </trkpt>
      <trkpt lat="47.52996" lon="6.75401">
        <ele>386.3</ele>
        <time>2014-05-01T07:54:38.000Z</time>
      </trkpt>
      <trkpt lat="47.52998" lon="6.75399">
        <ele>386.4</ele>
        <time>2014-05-01T07:54:39.000Z</time>
      </trkpt>
      <trkpt lat="47.53001" lon="6.75395">
        <ele>386</ele>
        <time>2014-05-01T07:54:41.000Z</time>
      </trkpt>
      <trkpt lat="47.53003" lon="6.75393">
        <ele>385.3</ele>
        <time>2014-05-01T07:54:42.000Z</time>
      </trkpt>
      <trkpt lat="47.53006" lon="6.75392">
        <ele>389.5</ele>
        <time>2014-05-01T07:54:49.000Z</time>
      </trkpt>
      <trkpt lat="47.53008" lon="6.75391">
        <ele>390.5</ele>
        <time>2014-05-01T07:54:50.000Z</time>
      </trkpt>
      <trkpt lat="47.53009" lon="6.7539">
        <ele>391.6</ele>
        <time>2014-05-01T07:54:51.000Z</time>
      </trkpt>
      <trkpt lat="47.53012" lon="6.75387">
        <ele>388</ele>
        <time>2014-05-01T07:54:52.000Z</time>
      </trkpt>
      <trkpt lat="47.53015" lon="6.75385">
        <ele>387.2</ele>
        <time>2014-05-01T07:54:53.000Z</time>
      </trkpt>
      <trkpt lat="47.53017" lon="6.75384">
        <ele>387</ele>
        <time>2014-05-01T07:54:53.999Z</time>
      </trkpt>
      <trkpt lat="47.53021" lon="6.75382">
        <ele>391.9</ele>
        <time>2014-05-01T07:54:57.000Z</time>
      </trkpt>
      <trkpt lat="47.53022" lon="6.75382">
        <ele>393</ele>
        <time>2014-05-01T07:54:58.000Z</time>
      </trkpt>
      <trkpt lat="47.53025" lon="6.75382">
        <ele>396.1</ele>
        <time>2014-05-01T07:55:00.000Z</time>
      </trkpt>
      <trkpt lat="47.53027" lon="6.75382">
        <ele>397.4</ele>
        <time>2014-05-01T07:55:01.000Z</time>
      </trkpt>
      <trkpt lat="47.5303" lon="6.75382">
        <ele>396.8</ele>
        <time>2014-05-01T07:55:03.000Z</time>
      </trkpt>
      <trkpt lat="47.53032" lon="6.75381">
        <ele>396.4</ele>
        <time>2014-05-01T07:55:04.000Z</time>
      </trkpt>
      <trkpt lat="47.53034" lon="6.75378">
        <ele>394.2</ele>
        <time>2014-05-01T07:55:05.000Z</time>
      </trkpt>
      <trkpt lat="47.53041" lon="6.75371">
        <ele>392.5</ele>
        <time>2014-05-01T07:55:08.000Z</time>
      </trkpt>
      <trkpt lat="47.53043" lon="6.75368">
        <ele>392.9</ele>
        <time>2014-05-01T07:55:09.000Z</time>
      </trkpt>
      <trkpt lat="47.53047" lon="6.75362">
        <ele>390.7</ele>
        <time>2014-05-01T07:55:10.000Z</time>
      </trkpt>
      <trkpt lat="47.53049" lon="6.75359">
        <ele>390</ele>
        <time>2014-05-01T07:55:11.000Z</time>
      </trkpt>
      <trkpt lat="47.53052" lon="6.75357">
        <ele>391.1</ele>
        <time>2014-05-01T07:55:12.000Z</time>
      </trkpt>
      <trkpt lat="47.53053" lon="6.75354">
        <ele>390.4</ele>
        <time>2014-05-01T07:55:13.000Z</time>
      </trkpt>
      <trkpt lat="47.53055" lon="6.7535">
        <ele>389.3</ele>
        <time>2014-05-01T07:55:14.000Z</time>
      </trkpt>
      <trkpt lat="47.53057" lon="6.75346">
        <ele>386.5</ele>
        <time>2014-05-01T07:55:15.000Z</time>
      </trkpt>
      <trkpt lat="47.5306" lon="6.75343">
        <ele>384.3</ele>
        <time>2014-05-01T07:55:16.000Z</time>
      </trkpt>
      <trkpt lat="47.53062" lon="6.75339">
        <ele>384.5</ele>
        <time>2014-05-01T07:55:17.000Z</time>
      </trkpt>
      <trkpt lat="47.53065" lon="6.75334">
        <ele>384</ele>
        <time>2014-05-01T07:55:18.000Z</time>
      </trkpt>
      <trkpt lat="47.53068" lon="6.7533">
        <ele>383.4</ele>
        <time>2014-05-01T07:55:19.000Z</time>
      </trkpt>
      <trkpt lat="47.5307" lon="6.75327">
        <ele>383.3</ele>
        <time>2014-05-01T07:55:20.000Z</time>
      </trkpt>
      <trkpt lat="47.53073" lon="6.75323">
        <ele>381.4</ele>
        <time>2014-05-01T07:55:22.000Z</time>
      </trkpt>
      <trkpt lat="47.53074" lon="6.75322">
        <ele>381.4</ele>
        <time>2014-05-01T07:55:23.000Z</time>
      </trkpt>
      <trkpt lat="47.53078" lon="6.75319">
        <ele>382.9</ele>
        <time>2014-05-01T07:55:25.000Z</time>
      </trkpt>
      <trkpt lat="47.5308" lon="6.75318">
        <ele>384.3</ele>
        <time>2014-05-01T07:55:26.000Z</time>
      </trkpt>
      <trkpt lat="47.53083" lon="6.75315">
        <ele>390.3</ele>
        <time>2014-05-01T07:55:29.000Z</time>
      </trkpt>
      <trkpt lat="47.53084" lon="6.75313">
        <ele>388.1</ele>
        <time>2014-05-01T07:55:30.000Z</time>
      </trkpt>
      <trkpt lat="47.53086" lon="6.75311">
        <ele>387.1</ele>
        <time>2014-05-01T07:55:31.000Z</time>
      </trkpt>
      <trkpt lat="47.53088" lon="6.75308">
        <ele>384.6</ele>
        <time>2014-05-01T07:55:32.000Z</time>
      </trkpt>
      <trkpt lat="47.5309" lon="6.75306">
        <ele>383.6</ele>
        <time>2014-05-01T07:55:33.000Z</time>
      </trkpt>
      <trkpt lat="47.53093" lon="6.75304">
        <ele>384.9</ele>
        <time>2014-05-01T07:55:34.000Z</time>
      </trkpt>
      <trkpt lat="47.53094" lon="6.75301">
        <ele>386.5</ele>
        <time>2014-05-01T07:55:35.000Z</time>
      </trkpt>
      <trkpt lat="47.53096" lon="6.75299">
        <ele>383.6</ele>
        <time>2014-05-01T07:55:36.000Z</time>
      </trkpt>
      <trkpt lat="47.53098" lon="6.75296">
        <ele>381.7</ele>
        <time>2014-05-01T07:55:37.000Z</time>
      </trkpt>
      <trkpt lat="47.531" lon="6.75294">
        <ele>381.5</ele>
        <time>2014-05-01T07:55:38.000Z</time>
      </trkpt>
      <trkpt lat="47.53102" lon="6.75292">
        <ele>383.6</ele>
        <time>2014-05-01T07:55:39.000Z</time>
      </trkpt>
      <trkpt lat="47.53104" lon="6.75291">
        <ele>385.3</ele>
        <time>2014-05-01T07:55:40.000Z</time>
      </trkpt>
      <trkpt lat="47.53108" lon="6.7529">
        <ele>384.1</ele>
        <time>2014-05-01T07:55:42.000Z</time>
      </trkpt>
      <trkpt lat="47.53109" lon="6.7529">
        <ele>383.6</ele>
        <time>2014-05-01T07:55:43.001Z</time>
      </trkpt>
      <trkpt lat="47.53113" lon="6.75289">
        <ele>382.8</ele>
        <time>2014-05-01T07:55:46.000Z</time>
      </trkpt>
      <trkpt lat="47.53115" lon="6.75289">
        <ele>382</ele>
        <time>2014-05-01T07:55:47.000Z</time>
      </trkpt>
      <trkpt lat="47.53119" lon="6.75287">
        <ele>383.8</ele>
        <time>2014-05-01T07:55:50.000Z</time>
      </trkpt>
      <trkpt lat="47.5312" lon="6.75285">
        <ele>383.9</ele>
        <time>2014-05-01T07:55:51.000Z</time>
      </trkpt>
      <trkpt lat="47.53124" lon="6.75281">
        <ele>387.5</ele>
        <time>2014-05-01T07:55:53.000Z</time>
      </trkpt>
      <trkpt lat="47.53125" lon="6.75279">
        <ele>387.8</ele>
        <time>2014-05-01T07:55:54.000Z</time>
      </trkpt>
      <trkpt lat="47.53128" lon="6.75276">
        <ele>388</ele>
        <time>2014-05-01T07:55:56.000Z</time>
      </trkpt>
      <trkpt lat="47.53129" lon="6.75275">
        <ele>388.7</ele>
        <time>2014-05-01T07:55:57.000Z</time>
      </trkpt>
      <trkpt lat="47.53133" lon="6.75272">
        <ele>391.4</ele>
        <time>2014-05-01T07:55:59.000Z</time>
      </trkpt>
      <trkpt lat="47.53134" lon="6.75271">
        <ele>392.2</ele>
        <time>2014-05-01T07:56:00.000Z</time>
      </trkpt>
      <trkpt lat="47.53137" lon="6.7527">
        <ele>397.8</ele>
        <time>2014-05-01T07:56:05.000Z</time>
      </trkpt>
      <trkpt lat="47.53143" lon="6.7526">
        <ele>398.5</ele>
        <time>2014-05-01T07:56:13.000Z</time>
      </trkpt>
      <trkpt lat="47.53147" lon="6.7526">
        <ele>399.4</ele>
        <time>2014-05-01T07:56:17.000Z</time>
      </trkpt>
      <trkpt lat="47.53148" lon="6.75259">
        <ele>402.3</ele>
        <time>2014-05-01T07:56:18.000Z</time>
      </trkpt>
      <trkpt lat="47.5315" lon="6.75257">
        <ele>402.5</ele>
        <time>2014-05-01T07:56:19.000Z</time>
      </trkpt>
      <trkpt lat="47.53152" lon="6.75256">
        <ele>403.5</ele>
        <time>2014-05-01T07:56:20.000Z</time>
      </trkpt>
      <trkpt lat="47.53155" lon="6.75257">
        <ele>405.7</ele>
        <time>2014-05-01T07:56:22.000Z</time>
      </trkpt>
      <trkpt lat="47.53156" lon="6.75258">
        <ele>404.8</ele>
        <time>2014-05-01T07:56:23.000Z</time>
      </trkpt>
      <trkpt lat="47.53159" lon="6.7526">
        <ele>405.6</ele>
        <time>2014-05-01T07:56:26.000Z</time>
      </trkpt>
      <trkpt lat="47.53161" lon="6.75258">
        <ele>404.7</ele>
        <time>2014-05-01T07:56:27.000Z</time>
      </trkpt>
      <trkpt lat="47.53165" lon="6.75255">
        <ele>403.9</ele>
        <time>2014-05-01T07:56:29.000Z</time>
      </trkpt>
      <trkpt lat="47.53166" lon="6.75254">
        <ele>403.2</ele>
        <time>2014-05-01T07:56:30.000Z</time>
      </trkpt>
      <trkpt lat="47.5317" lon="6.7525">
        <ele>407.8</ele>
        <time>2014-05-01T07:56:33.000Z</time>
      </trkpt>
      <trkpt lat="47.5317" lon="6.75248">
        <ele>406.4</ele>
        <time>2014-05-01T07:56:34.000Z</time>
      </trkpt>
      <trkpt lat="47.53171" lon="6.75244">
        <ele>406.1</ele>
        <time>2014-05-01T07:56:38.000Z</time>
      </trkpt>
      <trkpt lat="47.53172" lon="6.75242">
        <ele>403.7</ele>
        <time>2014-05-01T07:56:39.000Z</time>
      </trkpt>
      <trkpt lat="47.53174" lon="6.7524">
        <ele>402</ele>
        <time>2014-05-01T07:56:40.000Z</time>
      </trkpt>
      <trkpt lat="47.53177" lon="6.75239">
        <ele>400.8</ele>
        <time>2014-05-01T07:56:41.000Z</time>
      </trkpt>
      <trkpt lat="47.53181" lon="6.75236">
        <ele>400.4</ele>
        <time>2014-05-01T07:56:43.000Z</time>
      </trkpt>
      <trkpt lat="47.53184" lon="6.75234">
        <ele>401</ele>
        <time>2014-05-01T07:56:44.000Z</time>
      </trkpt>
      <trkpt lat="47.53188" lon="6.75234">
        <ele>401.2</ele>
        <time>2014-05-01T07:56:47.000Z</time>
      </trkpt>
      <trkpt lat="47.5319" lon="6.75233">
        <ele>399.9</ele>
        <time>2014-05-01T07:56:48.000Z</time>
      </trkpt>
      <trkpt lat="47.53194" lon="6.75232">
        <ele>399.7</ele>
        <time>2014-05-01T07:56:51.000Z</time>
      </trkpt>
      <trkpt lat="47.53195" lon="6.75233">
        <ele>398.8</ele>
        <time>2014-05-01T07:56:52.000Z</time>
      </trkpt>
      <trkpt lat="47.53199" lon="6.75232">
        <ele>399.7</ele>
        <time>2014-05-01T07:56:54.999Z</time>
      </trkpt>
      <trkpt lat="47.53201" lon="6.7523">
        <ele>400.6</ele>
        <time>2014-05-01T07:56:56.000Z</time>
      </trkpt>
      <trkpt lat="47.53204" lon="6.75228">
        <ele>402.6</ele>
        <time>2014-05-01T07:56:58.000Z</time>
      </trkpt>
      <trkpt lat="47.53206" lon="6.75226">
        <ele>403.3</ele>
        <time>2014-05-01T07:56:59.000Z</time>
      </trkpt>
      <trkpt lat="47.53209" lon="6.75224">
        <ele>403.4</ele>
        <time>2014-05-01T07:57:01.000Z</time>
      </trkpt>
      <trkpt lat="47.53211" lon="6.75224">
        <ele>403.2</ele>
        <time>2014-05-01T07:57:02.000Z</time>
      </trkpt>
      <trkpt lat="47.53214" lon="6.75223">
        <ele>402.1</ele>
        <time>2014-05-01T07:57:04.000Z</time>
      </trkpt>
      <trkpt lat="47.53216" lon="6.75223">
        <ele>401.7</ele>
        <time>2014-05-01T07:57:05.000Z</time>
      </trkpt>
      <trkpt lat="47.53224" lon="6.75219">
        <ele>410.9</ele>
        <time>2014-05-01T07:57:13.000Z</time>
      </trkpt>
      <trkpt lat="47.53228" lon="6.75216">
        <ele>411.1</ele>
        <time>2014-05-01T07:57:16.000Z</time>
      </trkpt>
      <trkpt lat="47.53229" lon="6.75215">
        <ele>411.2</ele>
        <time>2014-05-01T07:57:16.999Z</time>
      </trkpt>
      <trkpt lat="47.53232" lon="6.75213">
        <ele>409.4</ele>
        <time>2014-05-01T07:57:18.000Z</time>
      </trkpt>
      <trkpt lat="47.53234" lon="6.75211">
        <ele>411.6</ele>
        <time>2014-05-01T07:57:19.000Z</time>
      </trkpt>
      <trkpt lat="47.53237" lon="6.75208">
        <ele>414.4</ele>
        <time>2014-05-01T07:57:20.999Z</time>
      </trkpt>
      <trkpt lat="47.53238" lon="6.75207">
        <ele>415.2</ele>
        <time>2014-05-01T07:57:22.000Z</time>
      </trkpt>
      <trkpt lat="47.53241" lon="6.75205">
        <ele>418.6</ele>
        <time>2014-05-01T07:57:25.000Z</time>
      </trkpt>
      <trkpt lat="47.53242" lon="6.75204">
        <ele>420.6</ele>
        <time>2014-05-01T07:57:26.000Z</time>
      </trkpt>
      <trkpt lat="47.53245" lon="6.752">
        <ele>421.5</ele>
        <time>2014-05-01T07:57:28.000Z</time>
      </trkpt>
      <trkpt lat="47.53247" lon="6.75199">
        <ele>418.2</ele>
        <time>2014-05-01T07:57:29.000Z</time>
      </trkpt>
      <trkpt lat="47.53251" lon="6.75199">
        <ele>418.6</ele>
        <time>2014-05-01T07:57:31.000Z</time>
      </trkpt>
      <trkpt lat="47.53253" lon="6.752">
        <ele>419.8</ele>
        <time>2014-05-01T07:57:32.000Z</time>
      </trkpt>
      <trkpt lat="47.53256" lon="6.75203">
        <ele>419.4</ele>
        <time>2014-05-01T07:57:34.000Z</time>
      </trkpt>
      <trkpt lat="47.53258" lon="6.75203">
        <ele>418.1</ele>
        <time>2014-05-01T07:57:35.000Z</time>
      </trkpt>
      <trkpt lat="47.53261" lon="6.75201">
        <ele>414</ele>
        <time>2014-05-01T07:57:37.000Z</time>
      </trkpt>
      <trkpt lat="47.53264" lon="6.752">
        <ele>413</ele>
        <time>2014-05-01T07:57:38.000Z</time>
      </trkpt>
      <trkpt lat="47.53268" lon="6.75197">
        <ele>415.7</ele>
        <time>2014-05-01T07:57:40.000Z</time>
      </trkpt>
      <trkpt lat="47.5327" lon="6.75196">
        <ele>417.3</ele>
        <time>2014-05-01T07:57:41.000Z</time>
      </trkpt>
      <trkpt lat="47.53273" lon="6.75193">
        <ele>418.8</ele>
        <time>2014-05-01T07:57:43.000Z</time>
      </trkpt>
      <trkpt lat="47.53275" lon="6.75192">
        <ele>419.8</ele>
        <time>2014-05-01T07:57:44.000Z</time>
      </trkpt>
      <trkpt lat="47.53279" lon="6.75189">
        <ele>423.7</ele>
        <time>2014-05-01T07:57:46.001Z</time>
      </trkpt>
      <trkpt lat="47.5328" lon="6.75186">
        <ele>425.1</ele>
        <time>2014-05-01T07:57:47.000Z</time>
      </trkpt>
      <trkpt lat="47.53282" lon="6.7519">
        <ele>427.2</ele>
        <time>2014-05-01T07:57:51.000Z</time>
      </trkpt>
      <trkpt lat="47.53283" lon="6.75192">
        <ele>425.7</ele>
        <time>2014-05-01T07:57:52.000Z</time>
      </trkpt>
      <trkpt lat="47.53288" lon="6.75193">
        <ele>429.4</ele>
        <time>2014-05-01T07:57:55.000Z</time>
      </trkpt>
      <trkpt lat="47.53289" lon="6.75193">
        <ele>429.6</ele>
        <time>2014-05-01T07:57:56.000Z</time>
      </trkpt>
      <trkpt lat="47.53292" lon="6.75192">
        <ele>428.6</ele>
        <time>2014-05-01T07:57:58.001Z</time>
      </trkpt>
      <trkpt lat="47.53295" lon="6.75189">
        <ele>432.4</ele>
        <time>2014-05-01T07:57:59.000Z</time>
      </trkpt>
      <trkpt lat="47.53297" lon="6.75188">
        <ele>432.6</ele>
        <time>2014-05-01T07:58:00.000Z</time>
      </trkpt>
      <trkpt lat="47.533" lon="6.75186">
        <ele>432.1</ele>
        <time>2014-05-01T07:58:01.000Z</time>
      </trkpt>
      <trkpt lat="47.53303" lon="6.75184">
        <ele>437.5</ele>
        <time>2014-05-01T07:58:02.999Z</time>
      </trkpt>
      <trkpt lat="47.53305" lon="6.75183">
        <ele>437.3</ele>
        <time>2014-05-01T07:58:04.000Z</time>
      </trkpt>
      <trkpt lat="47.53306" lon="6.75183">
        <ele>437.4</ele>
        <time>2014-05-01T07:58:05.000Z</time>
      </trkpt>
      <trkpt lat="47.53318" lon="6.75178">
        <ele>438.9</ele>
        <time>2014-05-01T07:58:13.000Z</time>
      </trkpt>
      <trkpt lat="47.53321" lon="6.75177">
        <ele>441.2</ele>
        <time>2014-05-01T07:58:14.000Z</time>
      </trkpt>
      <trkpt lat="47.53324" lon="6.75177">
        <ele>439.2</ele>
        <time>2014-05-01T07:58:15.000Z</time>
      </trkpt>
      <trkpt lat="47.53326" lon="6.75175">
        <ele>439.7</ele>
        <time>2014-05-01T07:58:16.000Z</time>
      </trkpt>
      <trkpt lat="47.53328" lon="6.75173">
        <ele>439.4</ele>
        <time>2014-05-01T07:58:17.000Z</time>
      </trkpt>
      <trkpt lat="47.53331" lon="6.7517">
        <ele>439</ele>
        <time>2014-05-01T07:58:18.000Z</time>
      </trkpt>
      <trkpt lat="47.53333" lon="6.75167">
        <ele>439.5</ele>
        <time>2014-05-01T07:58:19.000Z</time>
      </trkpt>
      <trkpt lat="47.53336" lon="6.75165">
        <ele>439.7</ele>
        <time>2014-05-01T07:58:20.000Z</time>
      </trkpt>
      <trkpt lat="47.53337" lon="6.75164">
        <ele>438.8</ele>
        <time>2014-05-01T07:58:21.000Z</time>
      </trkpt>
      <trkpt lat="47.5334" lon="6.75168">
        <ele>436.7</ele>
        <time>2014-05-01T07:58:24.000Z</time>
      </trkpt>
      <trkpt lat="47.53342" lon="6.75169">
        <ele>435.5</ele>
        <time>2014-05-01T07:58:25.000Z</time>
      </trkpt>
      <trkpt lat="47.53346" lon="6.75171">
        <ele>434.7</ele>
        <time>2014-05-01T07:58:27.000Z</time>
      </trkpt>
      <trkpt lat="47.53348" lon="6.75171">
        <ele>433.9</ele>
        <time>2014-05-01T07:58:28.000Z</time>
      </trkpt>
      <trkpt lat="47.53351" lon="6.7517">
        <ele>432.7</ele>
        <time>2014-05-01T07:58:29.000Z</time>
      </trkpt>
      <trkpt lat="47.53353" lon="6.7517">
        <ele>433.3</ele>
        <time>2014-05-01T07:58:30.000Z</time>
      </trkpt>
      <trkpt lat="47.53356" lon="6.7517">
        <ele>430.8</ele>
        <time>2014-05-01T07:58:31.000Z</time>
      </trkpt>
      <trkpt lat="47.53358" lon="6.7517">
        <ele>430.3</ele>
        <time>2014-05-01T07:58:32.000Z</time>
      </trkpt>
      <trkpt lat="47.53361" lon="6.75171">
        <ele>429.6</ele>
        <time>2014-05-01T07:58:33.000Z</time>
      </trkpt>
      <trkpt lat="47.53363" lon="6.75172">
        <ele>429.7</ele>
        <time>2014-05-01T07:58:34.000Z</time>
      </trkpt>
      <trkpt lat="47.53365" lon="6.75173">
        <ele>428.7</ele>
        <time>2014-05-01T07:58:35.000Z</time>
      </trkpt>
      <trkpt lat="47.53367" lon="6.75174">
        <ele>428.5</ele>
        <time>2014-05-01T07:58:36.000Z</time>
      </trkpt>
      <trkpt lat="47.5337" lon="6.75175">
        <ele>427.8</ele>
        <time>2014-05-01T07:58:37.000Z</time>
      </trkpt>
      <trkpt lat="47.53372" lon="6.75176">
        <ele>427</ele>
        <time>2014-05-01T07:58:38.000Z</time>
      </trkpt>
      <trkpt lat="47.53373" lon="6.75177">
        <ele>427.1</ele>
        <time>2014-05-01T07:58:38.999Z</time>
      </trkpt>
      <trkpt lat="47.53377" lon="6.75177">
        <ele>428.2</ele>
        <time>2014-05-01T07:58:40.000Z</time>
      </trkpt>
      <trkpt lat="47.5338" lon="6.75177">
        <ele>427</ele>
        <time>2014-05-01T07:58:41.000Z</time>
      </trkpt>
      <trkpt lat="47.53383" lon="6.75177">
        <ele>423.8</ele>
        <time>2014-05-01T07:58:42.000Z</time>
      </trkpt>
      <trkpt lat="47.53385" lon="6.75176">
        <ele>421.3</ele>
        <time>2014-05-01T07:58:43.000Z</time>
      </trkpt>
      <trkpt lat="47.53388" lon="6.75176">
        <ele>420.8</ele>
        <time>2014-05-01T07:58:44.000Z</time>
      </trkpt>
      <trkpt lat="47.53392" lon="6.75175">
        <ele>419.5</ele>
        <time>2014-05-01T07:58:46.000Z</time>
      </trkpt>
      <trkpt lat="47.53394" lon="6.75174">
        <ele>417.8</ele>
        <time>2014-05-01T07:58:47.000Z</time>
      </trkpt>
      <trkpt lat="47.53398" lon="6.75173">
        <ele>417</ele>
        <time>2014-05-01T07:58:50.000Z</time>
      </trkpt>
      <trkpt lat="47.534" lon="6.75173">
        <ele>418.1</ele>
        <time>2014-05-01T07:58:51.000Z</time>
      </trkpt>
      <trkpt lat="47.53403" lon="6.75173">
        <ele>420.4</ele>
        <time>2014-05-01T07:58:53.000Z</time>
      </trkpt>
      <trkpt lat="47.53405" lon="6.75173">
        <ele>420</ele>
        <time>2014-05-01T07:58:54.000Z</time>
      </trkpt>
      <trkpt lat="47.53408" lon="6.75175">
        <ele>419.3</ele>
        <time>2014-05-01T07:58:56.000Z</time>
      </trkpt>
      <trkpt lat="47.5341" lon="6.75176">
        <ele>418.7</ele>
        <time>2014-05-01T07:58:57.000Z</time>
      </trkpt>
      <trkpt lat="47.53414" lon="6.75178">
        <ele>420.2</ele>
        <time>2014-05-01T07:58:59.000Z</time>
      </trkpt>
      <trkpt lat="47.53415" lon="6.75179">
        <ele>420.3</ele>
        <time>2014-05-01T07:59:00.000Z</time>
      </trkpt>
      <trkpt lat="47.53419" lon="6.75181">
        <ele>420.2</ele>
        <time>2014-05-01T07:59:02.000Z</time>
      </trkpt>
      <trkpt lat="47.53421" lon="6.75182">
        <ele>420.5</ele>
        <time>2014-05-01T07:59:03.000Z</time>
      </trkpt>
      <trkpt lat="47.53423" lon="6.75183">
        <ele>421.6</ele>
        <time>2014-05-01T07:59:05.000Z</time>
      </trkpt>
      <trkpt lat="47.53435" lon="6.75179">
        <ele>421</ele>
        <time>2014-05-01T07:59:13.000Z</time>
      </trkpt>
      <trkpt lat="47.53439" lon="6.75179">
        <ele>422.4</ele>
        <time>2014-05-01T07:59:17.000Z</time>
      </trkpt>
      <trkpt lat="47.53441" lon="6.75178">
        <ele>418.5</ele>
        <time>2014-05-01T07:59:18.000Z</time>
      </trkpt>
      <trkpt lat="47.53444" lon="6.75177">
        <ele>418.6</ele>
        <time>2014-05-01T07:59:19.000Z</time>
      </trkpt>
      <trkpt lat="47.53447" lon="6.75175">
        <ele>418.2</ele>
        <time>2014-05-01T07:59:20.000Z</time>
      </trkpt>
      <trkpt lat="47.5345" lon="6.75175">
        <ele>416.1</ele>
        <time>2014-05-01T07:59:21.000Z</time>
      </trkpt>
      <trkpt lat="47.53453" lon="6.75173">
        <ele>414.4</ele>
        <time>2014-05-01T07:59:22.000Z</time>
      </trkpt>
      <trkpt lat="47.53455" lon="6.75177">
        <ele>416.9</ele>
        <time>2014-05-01T07:59:25.000Z</time>
      </trkpt>
      <trkpt lat="47.53456" lon="6.75177">
        <ele>414.5</ele>
        <time>2014-05-01T07:59:26.000Z</time>
      </trkpt>
      <trkpt lat="47.5346" lon="6.75179">
        <ele>412.2</ele>
        <time>2014-05-01T07:59:29.000Z</time>
      </trkpt>
      <trkpt lat="47.53462" lon="6.75179">
        <ele>413.3</ele>
        <time>2014-05-01T07:59:30.000Z</time>
      </trkpt>
      <trkpt lat="47.53466" lon="6.75177">
        <ele>415.8</ele>
        <time>2014-05-01T07:59:33.000Z</time>
      </trkpt>
      <trkpt lat="47.53467" lon="6.75177">
        <ele>417</ele>
        <time>2014-05-01T07:59:34.000Z</time>
      </trkpt>
      <trkpt lat="47.53471" lon="6.75178">
        <ele>417.9</ele>
        <time>2014-05-01T07:59:37.000Z</time>
      </trkpt>
      <trkpt lat="47.53472" lon="6.75178">
        <ele>415.7</ele>
        <time>2014-05-01T07:59:38.000Z</time>
      </trkpt>
      <trkpt lat="47.53476" lon="6.75179">
        <ele>416</ele>
        <time>2014-05-01T07:59:42.000Z</time>
      </trkpt>
      <trkpt lat="47.53478" lon="6.75179">
        <ele>415.1</ele>
        <time>2014-05-01T07:59:43.000Z</time>
      </trkpt>
      <trkpt lat="47.53482" lon="6.75178">
        <ele>418.5</ele>
        <time>2014-05-01T07:59:45.000Z</time>
      </trkpt>
      <trkpt lat="47.53483" lon="6.75178">
        <ele>417.5</ele>
        <time>2014-05-01T07:59:46.000Z</time>
      </trkpt>
      <trkpt lat="47.53486" lon="6.75177">
        <ele>420.6</ele>
        <time>2014-05-01T07:59:49.000Z</time>
      </trkpt>
      <trkpt lat="47.53488" lon="6.75176">
        <ele>421.2</ele>
        <time>2014-05-01T07:59:50.000Z</time>
      </trkpt>
      <trkpt lat="47.53491" lon="6.75172">
        <ele>419</ele>
        <time>2014-05-01T07:59:52.000Z</time>
      </trkpt>
      <trkpt lat="47.53492" lon="6.75172">
        <ele>419</ele>
        <time>2014-05-01T07:59:53.000Z</time>
      </trkpt>
      <trkpt lat="47.53496" lon="6.75174">
        <ele>418.7</ele>
        <time>2014-05-01T07:59:56.000Z</time>
      </trkpt>
      <trkpt lat="47.53498" lon="6.75174">
        <ele>418.6</ele>
        <time>2014-05-01T07:59:57.000Z</time>
      </trkpt>
      <trkpt lat="47.53501" lon="6.75176">
        <ele>417.8</ele>
        <time>2014-05-01T07:59:59.000Z</time>
      </trkpt>
      <trkpt lat="47.53503" lon="6.75175">
        <ele>417.7</ele>
        <time>2014-05-01T08:00:00.000Z</time>
      </trkpt>
      <trkpt lat="47.53507" lon="6.75175">
        <ele>417.6</ele>
        <time>2014-05-01T08:00:02.000Z</time>
      </trkpt>
      <trkpt lat="47.5351" lon="6.75175">
        <ele>418.4</ele>
        <time>2014-05-01T08:00:03.000Z</time>
      </trkpt>
      <trkpt lat="47.53513" lon="6.75175">
        <ele>419.6</ele>
        <time>2014-05-01T08:00:05.000Z</time>
      </trkpt>
      <trkpt lat="47.53521" lon="6.75176">
        <ele>420.7</ele>
        <time>2014-05-01T08:00:13.000Z</time>
      </trkpt>
      <trkpt lat="47.53525" lon="6.75177">
        <ele>427.1</ele>
        <time>2014-05-01T08:00:40.000Z</time>
      </trkpt>
      <trkpt lat="47.53526" lon="6.75176">
        <ele>428.2</ele>
        <time>2014-05-01T08:00:41.000Z</time>
      </trkpt>
      <trkpt lat="47.5353" lon="6.75176">
        <ele>430</ele>
        <time>2014-05-01T08:00:43.000Z</time>
      </trkpt>
      <trkpt lat="47.53531" lon="6.75176">
        <ele>431.5</ele>
        <time>2014-05-01T08:00:44.000Z</time>
      </trkpt>
      <trkpt lat="47.53534" lon="6.75178">
        <ele>433.2</ele>
        <time>2014-05-01T08:00:47.000Z</time>
      </trkpt>
      <trkpt lat="47.53536" lon="6.7518">
        <ele>433.6</ele>
        <time>2014-05-01T08:00:48.000Z</time>
      </trkpt>
      <trkpt lat="47.5354" lon="6.75182">
        <ele>435</ele>
        <time>2014-05-01T08:00:51.000Z</time>
      </trkpt>
      <trkpt lat="47.53541" lon="6.75183">
        <ele>435</ele>
        <time>2014-05-01T08:00:52.000Z</time>
      </trkpt>
      <trkpt lat="47.53545" lon="6.75186">
        <ele>434.2</ele>
        <time>2014-05-01T08:00:55.000Z</time>
      </trkpt>
      <trkpt lat="47.53546" lon="6.75187">
        <ele>436.5</ele>
        <time>2014-05-01T08:00:56.000Z</time>
      </trkpt>
      <trkpt lat="47.5355" lon="6.75189">
        <ele>435.1</ele>
        <time>2014-05-01T08:00:59.000Z</time>
      </trkpt>
      <trkpt lat="47.53551" lon="6.75191">
        <ele>434.2</ele>
        <time>2014-05-01T08:01:00.000Z</time>
      </trkpt>
      <trkpt lat="47.53554" lon="6.75195">
        <ele>434</ele>
        <time>2014-05-01T08:01:02.000Z</time>
      </trkpt>
      <trkpt lat="47.53555" lon="6.75196">
        <ele>433.5</ele>
        <time>2014-05-01T08:01:03.000Z</time>
      </trkpt>
      <trkpt lat="47.53558" lon="6.75198">
        <ele>437.5</ele>
        <time>2014-05-01T08:01:05.000Z</time>
      </trkpt>
      <trkpt lat="47.53565" lon="6.75199">
        <ele>438.4</ele>
        <time>2014-05-01T08:01:13.000Z</time>
      </trkpt>
      <trkpt lat="47.53569" lon="6.75199">
        <ele>431.7</ele>
        <time>2014-05-01T08:01:19.000Z</time>
      </trkpt>
      <trkpt lat="47.53571" lon="6.75199">
        <ele>432.3</ele>
        <time>2014-05-01T08:01:20.000Z</time>
      </trkpt>
      <trkpt lat="47.53575" lon="6.75202">
        <ele>430.5</ele>
        <time>2014-05-01T08:02:21.000Z</time>
      </trkpt>
      <trkpt lat="47.53576" lon="6.75203">
        <ele>435.2</ele>
        <time>2014-05-01T08:02:22.000Z</time>
      </trkpt>
      <trkpt lat="47.5358" lon="6.75204">
        <ele>437.5</ele>
        <time>2014-05-01T08:02:28.000Z</time>
      </trkpt>
      <trkpt lat="47.53581" lon="6.75203">
        <ele>440</ele>
        <time>2014-05-01T08:02:29.000Z</time>
      </trkpt>
      <trkpt lat="47.53585" lon="6.75204">
        <ele>440.3</ele>
        <time>2014-05-01T08:02:32.000Z</time>
      </trkpt>
      <trkpt lat="47.53587" lon="6.75207">
        <ele>439.8</ele>
        <time>2014-05-01T08:02:33.000Z</time>
      </trkpt>
      <trkpt lat="47.5359" lon="6.75209">
        <ele>439.5</ele>
        <time>2014-05-01T08:02:34.000Z</time>
      </trkpt>
      <trkpt lat="47.53592" lon="6.75212">
        <ele>441</ele>
        <time>2014-05-01T08:02:35.000Z</time>
      </trkpt>
      <trkpt lat="47.53594" lon="6.75214">
        <ele>441.6</ele>
        <time>2014-05-01T08:02:36.000Z</time>
      </trkpt>
      <trkpt lat="47.53596" lon="6.75216">
        <ele>441.7</ele>
        <time>2014-05-01T08:02:37.000Z</time>
      </trkpt>
      <trkpt lat="47.536" lon="6.7522">
        <ele>439.5</ele>
        <time>2014-05-01T08:02:39.000Z</time>
      </trkpt>
      <trkpt lat="47.53601" lon="6.75222">
        <ele>439</ele>
        <time>2014-05-01T08:02:40.000Z</time>
      </trkpt>
      <trkpt lat="47.53603" lon="6.75224">
        <ele>438.2</ele>
        <time>2014-05-01T08:02:41.000Z</time>
      </trkpt>
      <trkpt lat="47.53605" lon="6.75227">
        <ele>437.2</ele>
        <time>2014-05-01T08:02:42.000Z</time>
      </trkpt>
      <trkpt lat="47.53607" lon="6.75231">
        <ele>437.2</ele>
        <time>2014-05-01T08:02:44.000Z</time>
      </trkpt>
      <trkpt lat="47.53609" lon="6.75233">
        <ele>437.4</ele>
        <time>2014-05-01T08:02:45.000Z</time>
      </trkpt>
      <trkpt lat="47.53611" lon="6.75238">
        <ele>436.9</ele>
        <time>2014-05-01T08:02:48.000Z</time>
      </trkpt>
      <trkpt lat="47.53612" lon="6.75239">
        <ele>437.5</ele>
        <time>2014-05-01T08:02:49.000Z</time>
      </trkpt>
      <trkpt lat="47.53615" lon="6.75241">
        <ele>435.3</ele>
        <time>2014-05-01T08:02:52.000Z</time>
      </trkpt>
      <trkpt lat="47.53617" lon="6.75241">
        <ele>434.4</ele>
        <time>2014-05-01T08:02:53.000Z</time>
      </trkpt>
      <trkpt lat="47.53619" lon="6.75241">
        <ele>433.5</ele>
        <time>2014-05-01T08:02:54.000Z</time>
      </trkpt>
      <trkpt lat="47.53622" lon="6.7524">
        <ele>432.9</ele>
        <time>2014-05-01T08:02:55.000Z</time>
      </trkpt>
      <trkpt lat="47.53624" lon="6.7524">
        <ele>432</ele>
        <time>2014-05-01T08:02:56.000Z</time>
      </trkpt>
      <trkpt lat="47.53626" lon="6.75239">
        <ele>431.9</ele>
        <time>2014-05-01T08:02:57.000Z</time>
      </trkpt>
      <trkpt lat="47.5363" lon="6.75238">
        <ele>432.3</ele>
        <time>2014-05-01T08:02:59.000Z</time>
      </trkpt>
      <trkpt lat="47.53632" lon="6.75237">
        <ele>432.8</ele>
        <time>2014-05-01T08:03:00.000Z</time>
      </trkpt>
      <trkpt lat="47.53635" lon="6.75234">
        <ele>430.8</ele>
        <time>2014-05-01T08:03:04.000Z</time>
      </trkpt>
      <trkpt lat="47.53636" lon="6.75234">
        <ele>430.9</ele>
        <time>2014-05-01T08:03:05.000Z</time>
      </trkpt>
      <trkpt lat="47.53642" lon="6.75233">
        <ele>422.5</ele>
        <time>2014-05-01T08:03:13.000Z</time>
      </trkpt>
      <trkpt lat="47.53645" lon="6.75236">
        <ele>433.5</ele>
        <time>2014-05-01T08:03:18.000Z</time>
      </trkpt>
      <trkpt lat="47.53646" lon="6.75236">
        <ele>435.6</ele>
        <time>2014-05-01T08:03:19.000Z</time>
      </trkpt>
      <trkpt lat="47.5365" lon="6.7524">
        <ele>437.3</ele>
        <time>2014-05-01T08:03:23.000Z</time>
      </trkpt>
      <trkpt lat="47.53651" lon="6.75239">
        <ele>437.4</ele>
        <time>2014-05-01T08:03:24.000Z</time>
      </trkpt>
      <trkpt lat="47.53654" lon="6.75237">
        <ele>440.7</ele>
        <time>2014-05-01T08:03:29.000Z</time>
      </trkpt>
      <trkpt lat="47.53656" lon="6.75235">
        <ele>441.5</ele>
        <time>2014-05-01T08:03:30.000Z</time>
      </trkpt>
      <trkpt lat="47.53657" lon="6.75232">
        <ele>440.2</ele>
        <time>2014-05-01T08:03:31.000Z</time>
      </trkpt>
      <trkpt lat="47.53659" lon="6.75228">
        <ele>440</ele>
        <time>2014-05-01T08:03:32.000Z</time>
      </trkpt>
      <trkpt lat="47.5366" lon="6.75224">
        <ele>442</ele>
        <time>2014-05-01T08:03:33.000Z</time>
      </trkpt>
      <trkpt lat="47.53662" lon="6.75219">
        <ele>442.9</ele>
        <time>2014-05-01T08:03:34.000Z</time>
      </trkpt>
      <trkpt lat="47.53664" lon="6.75215">
        <ele>443.5</ele>
        <time>2014-05-01T08:03:35.000Z</time>
      </trkpt>
      <trkpt lat="47.53666" lon="6.7521">
        <ele>442.6</ele>
        <time>2014-05-01T08:03:36.000Z</time>
      </trkpt>
      <trkpt lat="47.53668" lon="6.75206">
        <ele>443.2</ele>
        <time>2014-05-01T08:03:37.000Z</time>
      </trkpt>
      <trkpt lat="47.53669" lon="6.75202">
        <ele>443.6</ele>
        <time>2014-05-01T08:03:38.000Z</time>
      </trkpt>
      <trkpt lat="47.5367" lon="6.75198">
        <ele>444.2</ele>
        <time>2014-05-01T08:03:39.000Z</time>
      </trkpt>
      <trkpt lat="47.53671" lon="6.75196">
        <ele>445.4</ele>
        <time>2014-05-01T08:03:40.000Z</time>
      </trkpt>
      <trkpt lat="47.53674" lon="6.75191">
        <ele>444.1</ele>
        <time>2014-05-01T08:03:42.000Z</time>
      </trkpt>
      <trkpt lat="47.53676" lon="6.75189">
        <ele>442.9</ele>
        <time>2014-05-01T08:03:43.000Z</time>
      </trkpt>
      <trkpt lat="47.53678" lon="6.75186">
        <ele>441.8</ele>
        <time>2014-05-01T08:03:45.000Z</time>
      </trkpt>
      <trkpt lat="47.53679" lon="6.75184">
        <ele>442.8</ele>
        <time>2014-05-01T08:03:46.000Z</time>
      </trkpt>
      <trkpt lat="47.53681" lon="6.75179">
        <ele>444.3</ele>
        <time>2014-05-01T08:03:49.000Z</time>
      </trkpt>
      <trkpt lat="47.53682" lon="6.75177">
        <ele>443.3</ele>
        <time>2014-05-01T08:03:50.000Z</time>
      </trkpt>
      <trkpt lat="47.53684" lon="6.75173">
        <ele>444.2</ele>
        <time>2014-05-01T08:03:52.000Z</time>
      </trkpt>
      <trkpt lat="47.53685" lon="6.75171">
        <ele>443.9</ele>
        <time>2014-05-01T08:03:53.000Z</time>
      </trkpt>
      <trkpt lat="47.53688" lon="6.75166">
        <ele>444.9</ele>
        <time>2014-05-01T08:03:55.000Z</time>
      </trkpt>
      <trkpt lat="47.53689" lon="6.75164">
        <ele>445.2</ele>
        <time>2014-05-01T08:03:56.000Z</time>
      </trkpt>
      <trkpt lat="47.53691" lon="6.75159">
        <ele>444.7</ele>
        <time>2014-05-01T08:03:58.000Z</time>
      </trkpt>
      <trkpt lat="47.53692" lon="6.75157">
        <ele>444</ele>
        <time>2014-05-01T08:03:59.000Z</time>
      </trkpt>
      <trkpt lat="47.53693" lon="6.75152">
        <ele>444.4</ele>
        <time>2014-05-01T08:04:01.000Z</time>
      </trkpt>
      <trkpt lat="47.53694" lon="6.7515">
        <ele>443.7</ele>
        <time>2014-05-01T08:04:02.000Z</time>
      </trkpt>
      <trkpt lat="47.53695" lon="6.75147">
        <ele>444.2</ele>
        <time>2014-05-01T08:04:03.000Z</time>
      </trkpt>
      <trkpt lat="47.53696" lon="6.75145">
        <ele>445.8</ele>
        <time>2014-05-01T08:04:04.000Z</time>
      </trkpt>
      <trkpt lat="47.53698" lon="6.75142">
        <ele>447.9</ele>
        <time>2014-05-01T08:04:05.000Z</time>
      </trkpt>
      <trkpt lat="47.53706" lon="6.75117">
        <ele>448.4</ele>
        <time>2014-05-01T08:04:13.000Z</time>
      </trkpt>
      <trkpt lat="47.53708" lon="6.75114">
        <ele>449</ele>
        <time>2014-05-01T08:04:14.000Z</time>
      </trkpt>
      <trkpt lat="47.5371" lon="6.75111">
        <ele>449.8</ele>
        <time>2014-05-01T08:04:15.000Z</time>
      </trkpt>
      <trkpt lat="47.53712" lon="6.75109">
        <ele>449.8</ele>
        <time>2014-05-01T08:04:16.000Z</time>
      </trkpt>
      <trkpt lat="47.53714" lon="6.75106">
        <ele>448.4</ele>
        <time>2014-05-01T08:04:17.000Z</time>
      </trkpt>
      <trkpt lat="47.53715" lon="6.75104">
        <ele>447.6</ele>
        <time>2014-05-01T08:04:18.000Z</time>
      </trkpt>
      <trkpt lat="47.53717" lon="6.75101">
        <ele>447.4</ele>
        <time>2014-05-01T08:04:19.000Z</time>
      </trkpt>
      <trkpt lat="47.53718" lon="6.75097">
        <ele>447.1</ele>
        <time>2014-05-01T08:04:20.000Z</time>
      </trkpt>
      <trkpt lat="47.53719" lon="6.75094">
        <ele>445.8</ele>
        <time>2014-05-01T08:04:21.000Z</time>
      </trkpt>
      <trkpt lat="47.53721" lon="6.75089">
        <ele>443.7</ele>
        <time>2014-05-01T08:04:23.000Z</time>
      </trkpt>
      <trkpt lat="47.53722" lon="6.75085">
        <ele>443.3</ele>
        <time>2014-05-01T08:04:24.000Z</time>
      </trkpt>
      <trkpt lat="47.53724" lon="6.75081">
        <ele>441.8</ele>
        <time>2014-05-01T08:04:25.000Z</time>
      </trkpt>
      <trkpt lat="47.53726" lon="6.75076">
        <ele>439.9</ele>
        <time>2014-05-01T08:04:26.000Z</time>
      </trkpt>
      <trkpt lat="47.53728" lon="6.75071">
        <ele>440</ele>
        <time>2014-05-01T08:04:27.000Z</time>
      </trkpt>
      <trkpt lat="47.5373" lon="6.75064">
        <ele>439.3</ele>
        <time>2014-05-01T08:04:28.000Z</time>
      </trkpt>
      <trkpt lat="47.5373" lon="6.75059">
        <ele>439.2</ele>
        <time>2014-05-01T08:04:29.000Z</time>
      </trkpt>
      <trkpt lat="47.5373" lon="6.75053">
        <ele>439.3</ele>
        <time>2014-05-01T08:04:30.000Z</time>
      </trkpt>
      <trkpt lat="47.53729" lon="6.75048">
        <ele>440</ele>
        <time>2014-05-01T08:04:31.000Z</time>
      </trkpt>
      <trkpt lat="47.53727" lon="6.75043">
        <ele>439.9</ele>
        <time>2014-05-01T08:04:32.000Z</time>
      </trkpt>
      <trkpt lat="47.53725" lon="6.75037">
        <ele>440.1</ele>
        <time>2014-05-01T08:04:33.000Z</time>
      </trkpt>
      <trkpt lat="47.53724" lon="6.75032">
        <ele>439.7</ele>
        <time>2014-05-01T08:04:34.000Z</time>
      </trkpt>
      <trkpt lat="47.53723" lon="6.75025">
        <ele>439</ele>
        <time>2014-05-01T08:04:35.000Z</time>
      </trkpt>
      <trkpt lat="47.53724" lon="6.75005">
        <ele>440.5</ele>
        <time>2014-05-01T08:04:36.000Z</time>
      </trkpt>
      <trkpt lat="47.53723" lon="6.74997">
        <ele>440.2</ele>
        <time>2014-05-01T08:04:37.000Z</time>
      </trkpt>
      <trkpt lat="47.53725" lon="6.74986">
        <ele>438.6</ele>
        <time>2014-05-01T08:04:38.000Z</time>
      </trkpt>
      <trkpt lat="47.53725" lon="6.74978">
        <ele>437.5</ele>
        <time>2014-05-01T08:04:39.000Z</time>
      </trkpt>
      <trkpt lat="47.53723" lon="6.7497">
        <ele>437.2</ele>
        <time>2014-05-01T08:04:40.000Z</time>
      </trkpt>
      <trkpt lat="47.53721" lon="6.74962">
        <ele>437.4</ele>
        <time>2014-05-01T08:04:41.000Z</time>
      </trkpt>
      <trkpt lat="47.5372" lon="6.74955">
        <ele>437.3</ele>
        <time>2014-05-01T08:04:42.000Z</time>
      </trkpt>
      <trkpt lat="47.53719" lon="6.74945">
        <ele>437.9</ele>
        <time>2014-05-01T08:04:43.000Z</time>
      </trkpt>
      <trkpt lat="47.53716" lon="6.74935">
        <ele>437.9</ele>
        <time>2014-05-01T08:04:44.000Z</time>
      </trkpt>
      <trkpt lat="47.53713" lon="6.74929">
        <ele>437.2</ele>
        <time>2014-05-01T08:04:45.000Z</time>
      </trkpt>
      <trkpt lat="47.53711" lon="6.74921">
        <ele>436.4</ele>
        <time>2014-05-01T08:04:46.000Z</time>
      </trkpt>
      <trkpt lat="47.53709" lon="6.74913">
        <ele>436.8</ele>
        <time>2014-05-01T08:04:47.000Z</time>
      </trkpt>
      <trkpt lat="47.53705" lon="6.7491">
        <ele>435.6</ele>
        <time>2014-05-01T08:04:48.000Z</time>
      </trkpt>
      <trkpt lat="47.53704" lon="6.749">
        <ele>434.4</ele>
        <time>2014-05-01T08:04:49.000Z</time>
      </trkpt>
      <trkpt lat="47.53703" lon="6.74892">
        <ele>433.2</ele>
        <time>2014-05-01T08:04:50.000Z</time>
      </trkpt>
      <trkpt lat="47.537" lon="6.74885">
        <ele>432.4</ele>
        <time>2014-05-01T08:04:51.000Z</time>
      </trkpt>
      <trkpt lat="47.53702" lon="6.74876">
        <ele>431.3</ele>
        <time>2014-05-01T08:04:52.000Z</time>
      </trkpt>
      <trkpt lat="47.53703" lon="6.74865">
        <ele>429.9</ele>
        <time>2014-05-01T08:04:53.000Z</time>
      </trkpt>
      <trkpt lat="47.53702" lon="6.74858">
        <ele>430.6</ele>
        <time>2014-05-01T08:04:54.000Z</time>
      </trkpt>
      <trkpt lat="47.53701" lon="6.74851">
        <ele>431.5</ele>
        <time>2014-05-01T08:04:55.000Z</time>
      </trkpt>
      <trkpt lat="47.53699" lon="6.74847">
        <ele>431.4</ele>
        <time>2014-05-01T08:04:56.000Z</time>
      </trkpt>
      <trkpt lat="47.53698" lon="6.74841">
        <ele>431.4</ele>
        <time>2014-05-01T08:04:57.000Z</time>
      </trkpt>
      <trkpt lat="47.53694" lon="6.74835">
        <ele>428.5</ele>
        <time>2014-05-01T08:04:58.000Z</time>
      </trkpt>
      <trkpt lat="47.53691" lon="6.74829">
        <ele>428</ele>
        <time>2014-05-01T08:04:59.000Z</time>
      </trkpt>
      <trkpt lat="47.5369" lon="6.74823">
        <ele>427.8</ele>
        <time>2014-05-01T08:05:00.000Z</time>
      </trkpt>
      <trkpt lat="47.5369" lon="6.74817">
        <ele>428</ele>
        <time>2014-05-01T08:05:01.000Z</time>
      </trkpt>
      <trkpt lat="47.53689" lon="6.7481">
        <ele>427.6</ele>
        <time>2014-05-01T08:05:02.000Z</time>
      </trkpt>
      <trkpt lat="47.53687" lon="6.74802">
        <ele>427.3</ele>
        <time>2014-05-01T08:05:03.000Z</time>
      </trkpt>
      <trkpt lat="47.53688" lon="6.74791">
        <ele>431.1</ele>
        <time>2014-05-01T08:05:04.000Z</time>
      </trkpt>
      <trkpt lat="47.53687" lon="6.74783">
        <ele>433.3</ele>
        <time>2014-05-01T08:05:05.000Z</time>
      </trkpt>
      <trkpt lat="47.53673" lon="6.74742">
        <ele>425.4</ele>
        <time>2014-05-01T08:05:13.000Z</time>
      </trkpt>
      <trkpt lat="47.53674" lon="6.74737">
        <ele>426.1</ele>
        <time>2014-05-01T08:05:15.000Z</time>
      </trkpt>
      <trkpt lat="47.53674" lon="6.74735">
        <ele>425.2</ele>
        <time>2014-05-01T08:05:16.000Z</time>
      </trkpt>
      <trkpt lat="47.53676" lon="6.7473">
        <ele>428</ele>
        <time>2014-05-01T08:05:18.000Z</time>
      </trkpt>
      <trkpt lat="47.53678" lon="6.74723">
        <ele>428.7</ele>
        <time>2014-05-01T08:05:19.000Z</time>
      </trkpt>
      <trkpt lat="47.53679" lon="6.74719">
        <ele>428.4</ele>
        <time>2014-05-01T08:05:20.000Z</time>
      </trkpt>
      <trkpt lat="47.53679" lon="6.74715">
        <ele>426.9</ele>
        <time>2014-05-01T08:05:21.000Z</time>
      </trkpt>
      <trkpt lat="47.53678" lon="6.74711">
        <ele>426</ele>
        <time>2014-05-01T08:05:22.000Z</time>
      </trkpt>
      <trkpt lat="47.53678" lon="6.74707">
        <ele>425.9</ele>
        <time>2014-05-01T08:05:23.001Z</time>
      </trkpt>
      <trkpt lat="47.53677" lon="6.74703">
        <ele>425.5</ele>
        <time>2014-05-01T08:05:24.001Z</time>
      </trkpt>
      <trkpt lat="47.53676" lon="6.74697">
        <ele>424.6</ele>
        <time>2014-05-01T08:05:25.000Z</time>
      </trkpt>
      <trkpt lat="47.53676" lon="6.74689">
        <ele>424.5</ele>
        <time>2014-05-01T08:05:26.000Z</time>
      </trkpt>
      <trkpt lat="47.53675" lon="6.74683">
        <ele>428.4</ele>
        <time>2014-05-01T08:05:27.000Z</time>
      </trkpt>
      <trkpt lat="47.53674" lon="6.74676">
        <ele>430</ele>
        <time>2014-05-01T08:05:28.000Z</time>
      </trkpt>
      <trkpt lat="47.53671" lon="6.74661">
        <ele>427.7</ele>
        <time>2014-05-01T08:05:29.000Z</time>
      </trkpt>
      <trkpt lat="47.53668" lon="6.74656">
        <ele>428.4</ele>
        <time>2014-05-01T08:05:30.000Z</time>
      </trkpt>
      <trkpt lat="47.53665" lon="6.74653">
        <ele>428</ele>
        <time>2014-05-01T08:05:31.000Z</time>
      </trkpt>
      <trkpt lat="47.53665" lon="6.74646">
        <ele>427.5</ele>
        <time>2014-05-01T08:05:32.000Z</time>
      </trkpt>
      <trkpt lat="47.53665" lon="6.74638">
        <ele>427.1</ele>
        <time>2014-05-01T08:05:33.000Z</time>
      </trkpt>
      <trkpt lat="47.53665" lon="6.74631">
        <ele>426.6</ele>
        <time>2014-05-01T08:05:34.000Z</time>
      </trkpt>
      <trkpt lat="47.53665" lon="6.7462">
        <ele>426.1</ele>
        <time>2014-05-01T08:05:35.000Z</time>
      </trkpt>
      <trkpt lat="47.53665" lon="6.74612">
        <ele>426</ele>
        <time>2014-05-01T08:05:36.001Z</time>
      </trkpt>
      <trkpt lat="47.53665" lon="6.74603">
        <ele>425.5</ele>
        <time>2014-05-01T08:05:37.000Z</time>
      </trkpt>
      <trkpt lat="47.53664" lon="6.74598">
        <ele>425.1</ele>
        <time>2014-05-01T08:05:38.000Z</time>
      </trkpt>
      <trkpt lat="47.53665" lon="6.7459">
        <ele>425.8</ele>
        <time>2014-05-01T08:05:39.000Z</time>
      </trkpt>
      <trkpt lat="47.53662" lon="6.74583">
        <ele>425.1</ele>
        <time>2014-05-01T08:05:40.000Z</time>
      </trkpt>
      <trkpt lat="47.53661" lon="6.74576">
        <ele>424.1</ele>
        <time>2014-05-01T08:05:41.000Z</time>
      </trkpt>
      <trkpt lat="47.53659" lon="6.74568">
        <ele>421.9</ele>
        <time>2014-05-01T08:05:42.000Z</time>
      </trkpt>
      <trkpt lat="47.53656" lon="6.74561">
        <ele>419.4</ele>
        <time>2014-05-01T08:05:43.000Z</time>
      </trkpt>
      <trkpt lat="47.53654" lon="6.74554">
        <ele>416.2</ele>
        <time>2014-05-01T08:05:44.000Z</time>
      </trkpt>
      <trkpt lat="47.53653" lon="6.74547">
        <ele>413.8</ele>
        <time>2014-05-01T08:05:45.000Z</time>
      </trkpt>
      <trkpt lat="47.53651" lon="6.74539">
        <ele>412.6</ele>
        <time>2014-05-01T08:05:46.000Z</time>
      </trkpt>
      <trkpt lat="47.53651" lon="6.74533">
        <ele>413.7</ele>
        <time>2014-05-01T08:05:47.000Z</time>
      </trkpt>
      <trkpt lat="47.53651" lon="6.74527">
        <ele>414.2</ele>
        <time>2014-05-01T08:05:48.000Z</time>
      </trkpt>
      <trkpt lat="47.5365" lon="6.74524">
        <ele>413.3</ele>
        <time>2014-05-01T08:05:49.000Z</time>
      </trkpt>
      <trkpt lat="47.53648" lon="6.74519">
        <ele>412.8</ele>
        <time>2014-05-01T08:05:50.000Z</time>
      </trkpt>
      <trkpt lat="47.53648" lon="6.74513">
        <ele>412.9</ele>
        <time>2014-05-01T08:05:51.000Z</time>
      </trkpt>
      <trkpt lat="47.53648" lon="6.7451">
        <ele>414.8</ele>
        <time>2014-05-01T08:05:52.000Z</time>
      </trkpt>
      <trkpt lat="47.53647" lon="6.74506">
        <ele>415.3</ele>
        <time>2014-05-01T08:05:53.000Z</time>
      </trkpt>
      <trkpt lat="47.53647" lon="6.74503">
        <ele>415.4</ele>
        <time>2014-05-01T08:05:54.000Z</time>
      </trkpt>
      <trkpt lat="47.53645" lon="6.74497">
        <ele>413.6</ele>
        <time>2014-05-01T08:05:55.000Z</time>
      </trkpt>
      <trkpt lat="47.53643" lon="6.74492">
        <ele>411.9</ele>
        <time>2014-05-01T08:05:56.000Z</time>
      </trkpt>
      <trkpt lat="47.53641" lon="6.74487">
        <ele>412</ele>
        <time>2014-05-01T08:05:57.000Z</time>
      </trkpt>
      <trkpt lat="47.53639" lon="6.74483">
        <ele>410.9</ele>
        <time>2014-05-01T08:05:58.000Z</time>
      </trkpt>
      <trkpt lat="47.53633" lon="6.74476">
        <ele>408.6</ele>
        <time>2014-05-01T08:05:59.000Z</time>
      </trkpt>
      <trkpt lat="47.5363" lon="6.74472">
        <ele>406.8</ele>
        <time>2014-05-01T08:06:00.000Z</time>
      </trkpt>
      <trkpt lat="47.53628" lon="6.74467">
        <ele>406</ele>
        <time>2014-05-01T08:06:01.000Z</time>
      </trkpt>
      <trkpt lat="47.53626" lon="6.74463">
        <ele>405.7</ele>
        <time>2014-05-01T08:06:02.000Z</time>
      </trkpt>
      <trkpt lat="47.53624" lon="6.74457">
        <ele>404.6</ele>
        <time>2014-05-01T08:06:03.000Z</time>
      </trkpt>
      <trkpt lat="47.53624" lon="6.7445">
        <ele>404.7</ele>
        <time>2014-05-01T08:06:04.000Z</time>
      </trkpt>
      <trkpt lat="47.53623" lon="6.74447">
        <ele>404.9</ele>
        <time>2014-05-01T08:06:05.000Z</time>
      </trkpt>
      <trkpt lat="47.53623" lon="6.74414">
        <ele>406.1</ele>
        <time>2014-05-01T08:06:13.000Z</time>
      </trkpt>
      <trkpt lat="47.53622" lon="6.74409">
        <ele>405.9</ele>
        <time>2014-05-01T08:06:14.000Z</time>
      </trkpt>
      <trkpt lat="47.5362" lon="6.74403">
        <ele>405.7</ele>
        <time>2014-05-01T08:06:15.000Z</time>
      </trkpt>
      <trkpt lat="47.53619" lon="6.74397">
        <ele>405.7</ele>
        <time>2014-05-01T08:06:16.000Z</time>
      </trkpt>
      <trkpt lat="47.53618" lon="6.74383">
        <ele>406.9</ele>
        <time>2014-05-01T08:06:17.000Z</time>
      </trkpt>
      <trkpt lat="47.53617" lon="6.74374">
        <ele>407.4</ele>
        <time>2014-05-01T08:06:18.000Z</time>
      </trkpt>
      <trkpt lat="47.53616" lon="6.74365">
        <ele>405.8</ele>
        <time>2014-05-01T08:06:19.000Z</time>
      </trkpt>
      <trkpt lat="47.53613" lon="6.74356">
        <ele>405</ele>
        <time>2014-05-01T08:06:20.000Z</time>
      </trkpt>
      <trkpt lat="47.53611" lon="6.74346">
        <ele>404</ele>
        <time>2014-05-01T08:06:21.000Z</time>
      </trkpt>
      <trkpt lat="47.53607" lon="6.74337">
        <ele>403.2</ele>
        <time>2014-05-01T08:06:22.000Z</time>
      </trkpt>
      <trkpt lat="47.53605" lon="6.7433">
        <ele>402.7</ele>
        <time>2014-05-01T08:06:23.000Z</time>
      </trkpt>
      <trkpt lat="47.53604" lon="6.74322">
        <ele>401.3</ele>
        <time>2014-05-01T08:06:24.000Z</time>
      </trkpt>
      <trkpt lat="47.53598" lon="6.74315">
        <ele>396.1</ele>
        <time>2014-05-01T08:06:25.000Z</time>
      </trkpt>
      <trkpt lat="47.53595" lon="6.74306">
        <ele>393.9</ele>
        <time>2014-05-01T08:06:26.000Z</time>
      </trkpt>
      <trkpt lat="47.53593" lon="6.74297">
        <ele>392.7</ele>
        <time>2014-05-01T08:06:27.000Z</time>
      </trkpt>
      <trkpt lat="47.53591" lon="6.74288">
        <ele>392.4</ele>
        <time>2014-05-01T08:06:28.000Z</time>
      </trkpt>
      <trkpt lat="47.53591" lon="6.74278">
        <ele>391.8</ele>
        <time>2014-05-01T08:06:29.000Z</time>
      </trkpt>
      <trkpt lat="47.5359" lon="6.74269">
        <ele>391.3</ele>
        <time>2014-05-01T08:06:30.000Z</time>
      </trkpt>
      <trkpt lat="47.53588" lon="6.74258">
        <ele>389.8</ele>
        <time>2014-05-01T08:06:31.000Z</time>
      </trkpt>
      <trkpt lat="47.53587" lon="6.7425">
        <ele>388.2</ele>
        <time>2014-05-01T08:06:32.000Z</time>
      </trkpt>
      <trkpt lat="47.53588" lon="6.74241">
        <ele>388.7</ele>
        <time>2014-05-01T08:06:33.000Z</time>
      </trkpt>
      <trkpt lat="47.53587" lon="6.74232">
        <ele>388.5</ele>
        <time>2014-05-01T08:06:34.000Z</time>
      </trkpt>
      <trkpt lat="47.53585" lon="6.74224">
        <ele>389.6</ele>
        <time>2014-05-01T08:06:35.000Z</time>
      </trkpt>
      <trkpt lat="47.53583" lon="6.74216">
        <ele>390</ele>
        <time>2014-05-01T08:06:36.000Z</time>
      </trkpt>
      <trkpt lat="47.5358" lon="6.74208">
        <ele>389.4</ele>
        <time>2014-05-01T08:06:37.000Z</time>
      </trkpt>
      <trkpt lat="47.5358" lon="6.74198">
        <ele>389</ele>
        <time>2014-05-01T08:06:38.000Z</time>
      </trkpt>
      <trkpt lat="47.5358" lon="6.7419">
        <ele>387.2</ele>
        <time>2014-05-01T08:06:39.000Z</time>
      </trkpt>
      <trkpt lat="47.53578" lon="6.74181">
        <ele>386.6</ele>
        <time>2014-05-01T08:06:40.000Z</time>
      </trkpt>
      <trkpt lat="47.53576" lon="6.74174">
        <ele>385.9</ele>
        <time>2014-05-01T08:06:41.000Z</time>
      </trkpt>
      <trkpt lat="47.53577" lon="6.74163">
        <ele>385.3</ele>
        <time>2014-05-01T08:06:42.000Z</time>
      </trkpt>
      <trkpt lat="47.53577" lon="6.74153">
        <ele>384.8</ele>
        <time>2014-05-01T08:06:43.000Z</time>
      </trkpt>
      <trkpt lat="47.53578" lon="6.74142">
        <ele>385.1</ele>
        <time>2014-05-01T08:06:44.000Z</time>
      </trkpt>
      <trkpt lat="47.53581" lon="6.7413">
        <ele>385.6</ele>
        <time>2014-05-01T08:06:45.000Z</time>
      </trkpt>
      <trkpt lat="47.53582" lon="6.74122">
        <ele>385.5</ele>
        <time>2014-05-01T08:06:46.000Z</time>
      </trkpt>
      <trkpt lat="47.53583" lon="6.74113">
        <ele>385.2</ele>
        <time>2014-05-01T08:06:47.000Z</time>
      </trkpt>
      <trkpt lat="47.53584" lon="6.74106">
        <ele>384</ele>
        <time>2014-05-01T08:06:48.000Z</time>
      </trkpt>
      <trkpt lat="47.53585" lon="6.74098">
        <ele>383.8</ele>
        <time>2014-05-01T08:06:49.000Z</time>
      </trkpt>
      <trkpt lat="47.53586" lon="6.74091">
        <ele>383.6</ele>
        <time>2014-05-01T08:06:50.000Z</time>
      </trkpt>
      <trkpt lat="47.53587" lon="6.7408">
        <ele>382.7</ele>
        <time>2014-05-01T08:06:51.000Z</time>
      </trkpt>
      <trkpt lat="47.53587" lon="6.74072">
        <ele>383</ele>
        <time>2014-05-01T08:06:52.000Z</time>
      </trkpt>
      <trkpt lat="47.53587" lon="6.74063">
        <ele>383.1</ele>
        <time>2014-05-01T08:06:53.000Z</time>
      </trkpt>
      <trkpt lat="47.53588" lon="6.74054">
        <ele>383.6</ele>
        <time>2014-05-01T08:06:54.000Z</time>
      </trkpt>
      <trkpt lat="47.53589" lon="6.74047">
        <ele>384.1</ele>
        <time>2014-05-01T08:06:55.000Z</time>
      </trkpt>
      <trkpt lat="47.5359" lon="6.7404">
        <ele>383.9</ele>
        <time>2014-05-01T08:06:56.000Z</time>
      </trkpt>
      <trkpt lat="47.5359" lon="6.74035">
        <ele>384.3</ele>
        <time>2014-05-01T08:06:57.000Z</time>
      </trkpt>
      <trkpt lat="47.53591" lon="6.74031">
        <ele>384.2</ele>
        <time>2014-05-01T08:06:58.000Z</time>
      </trkpt>
      <trkpt lat="47.53594" lon="6.74026">
        <ele>387.5</ele>
        <time>2014-05-01T08:06:59.000Z</time>
      </trkpt>
      <trkpt lat="47.53595" lon="6.74017">
        <ele>388.1</ele>
        <time>2014-05-01T08:07:00.000Z</time>
      </trkpt>
      <trkpt lat="47.53594" lon="6.74013">
        <ele>390.2</ele>
        <time>2014-05-01T08:07:01.000Z</time>
      </trkpt>
      <trkpt lat="47.53595" lon="6.74009">
        <ele>390.5</ele>
        <time>2014-05-01T08:07:02.000Z</time>
      </trkpt>
      <trkpt lat="47.53596" lon="6.74004">
        <ele>391.2</ele>
        <time>2014-05-01T08:07:03.000Z</time>
      </trkpt>
      <trkpt lat="47.53596" lon="6.73999">
        <ele>391.6</ele>
        <time>2014-05-01T08:07:04.000Z</time>
      </trkpt>
      <trkpt lat="47.53598" lon="6.73992">
        <ele>392.8</ele>
        <time>2014-05-01T08:07:05.000Z</time>
      </trkpt>
      <trkpt lat="47.53612" lon="6.73956">
        <ele>396</ele>
        <time>2014-05-01T08:07:13.000Z</time>
      </trkpt>
      <trkpt lat="47.53614" lon="6.73953">
        <ele>395</ele>
        <time>2014-05-01T08:07:14.000Z</time>
      </trkpt>
      <trkpt lat="47.53617" lon="6.73951">
        <ele>394.2</ele>
        <time>2014-05-01T08:07:15.000Z</time>
      </trkpt>
      <trkpt lat="47.53621" lon="6.73948">
        <ele>395.5</ele>
        <time>2014-05-01T08:07:16.000Z</time>
      </trkpt>
      <trkpt lat="47.53624" lon="6.73946">
        <ele>397.9</ele>
        <time>2014-05-01T08:07:17.000Z</time>
      </trkpt>
      <trkpt lat="47.53626" lon="6.73944">
        <ele>398.4</ele>
        <time>2014-05-01T08:07:18.000Z</time>
      </trkpt>
      <trkpt lat="47.53629" lon="6.73944">
        <ele>398.4</ele>
        <time>2014-05-01T08:07:19.000Z</time>
      </trkpt>
      <trkpt lat="47.53631" lon="6.73942">
        <ele>396.8</ele>
        <time>2014-05-01T08:07:20.000Z</time>
      </trkpt>
      <trkpt lat="47.53633" lon="6.7394">
        <ele>397.5</ele>
        <time>2014-05-01T08:07:21.000Z</time>
      </trkpt>
      <trkpt lat="47.53635" lon="6.73936">
        <ele>395.7</ele>
        <time>2014-05-01T08:07:22.000Z</time>
      </trkpt>
      <trkpt lat="47.53635" lon="6.7393">
        <ele>393.5</ele>
        <time>2014-05-01T08:07:23.000Z</time>
      </trkpt>
      <trkpt lat="47.53635" lon="6.73923">
        <ele>391.2</ele>
        <time>2014-05-01T08:07:24.000Z</time>
      </trkpt>
      <trkpt lat="47.53635" lon="6.73916">
        <ele>391.6</ele>
        <time>2014-05-01T08:07:25.000Z</time>
      </trkpt>
      <trkpt lat="47.53634" lon="6.7391">
        <ele>392.2</ele>
        <time>2014-05-01T08:07:26.000Z</time>
      </trkpt>
      <trkpt lat="47.53633" lon="6.73904">
        <ele>393.1</ele>
        <time>2014-05-01T08:07:27.000Z</time>
      </trkpt>
      <trkpt lat="47.53631" lon="6.73899">
        <ele>393.4</ele>
        <time>2014-05-01T08:07:28.000Z</time>
      </trkpt>
      <trkpt lat="47.5363" lon="6.73893">
        <ele>399.5</ele>
        <time>2014-05-01T08:07:29.000Z</time>
      </trkpt>
      <trkpt lat="47.53629" lon="6.73888">
        <ele>399.2</ele>
        <time>2014-05-01T08:07:30.000Z</time>
      </trkpt>
      <trkpt lat="47.53627" lon="6.73883">
        <ele>397</ele>
        <time>2014-05-01T08:07:31.000Z</time>
      </trkpt>
      <trkpt lat="47.53625" lon="6.73879">
        <ele>396</ele>
        <time>2014-05-01T08:07:32.000Z</time>
      </trkpt>
      <trkpt lat="47.53624" lon="6.73875">
        <ele>395.4</ele>
        <time>2014-05-01T08:07:33.000Z</time>
      </trkpt>
      <trkpt lat="47.53622" lon="6.7387">
        <ele>395.2</ele>
        <time>2014-05-01T08:07:34.000Z</time>
      </trkpt>
      <trkpt lat="47.53622" lon="6.73864">
        <ele>394.6</ele>
        <time>2014-05-01T08:07:35.000Z</time>
      </trkpt>
      <trkpt lat="47.53626" lon="6.73854">
        <ele>396.7</ele>
        <time>2014-05-01T08:07:36.000Z</time>
      </trkpt>
      <trkpt lat="47.53626" lon="6.73849">
        <ele>398.2</ele>
        <time>2014-05-01T08:07:37.000Z</time>
      </trkpt>
      <trkpt lat="47.53623" lon="6.73844">
        <ele>399.5</ele>
        <time>2014-05-01T08:07:38.000Z</time>
      </trkpt>
      <trkpt lat="47.53621" lon="6.73836">
        <ele>398.8</ele>
        <time>2014-05-01T08:07:39.000Z</time>
      </trkpt>
      <trkpt lat="47.53624" lon="6.73826">
        <ele>397.5</ele>
        <time>2014-05-01T08:07:40.000Z</time>
      </trkpt>
      <trkpt lat="47.53626" lon="6.73819">
        <ele>397.7</ele>
        <time>2014-05-01T08:07:41.000Z</time>
      </trkpt>
      <trkpt lat="47.53626" lon="6.7381">
        <ele>396.9</ele>
        <time>2014-05-01T08:07:42.000Z</time>
      </trkpt>
      <trkpt lat="47.53624" lon="6.73799">
        <ele>395.3</ele>
        <time>2014-05-01T08:07:43.000Z</time>
      </trkpt>
      <trkpt lat="47.53623" lon="6.73791">
        <ele>394.8</ele>
        <time>2014-05-01T08:07:44.000Z</time>
      </trkpt>
      <trkpt lat="47.5362" lon="6.73786">
        <ele>394.7</ele>
        <time>2014-05-01T08:07:45.000Z</time>
      </trkpt>
      <trkpt lat="47.53616" lon="6.73781">
        <ele>394.8</ele>
        <time>2014-05-01T08:07:46.000Z</time>
      </trkpt>
      <trkpt lat="47.53614" lon="6.73767">
        <ele>394</ele>
        <time>2014-05-01T08:07:47.000Z</time>
      </trkpt>
      <trkpt lat="47.5361" lon="6.73764">
        <ele>393.9</ele>
        <time>2014-05-01T08:07:48.000Z</time>
      </trkpt>
      <trkpt lat="47.53608" lon="6.73758">
        <ele>392.6</ele>
        <time>2014-05-01T08:07:49.000Z</time>
      </trkpt>
      <trkpt lat="47.53607" lon="6.73753">
        <ele>392.7</ele>
        <time>2014-05-01T08:07:49.999Z</time>
      </trkpt>
      <trkpt lat="47.53606" lon="6.7375">
        <ele>392.6</ele>
        <time>2014-05-01T08:07:51.000Z</time>
      </trkpt>
      <trkpt lat="47.53605" lon="6.73746">
        <ele>392</ele>
        <time>2014-05-01T08:07:52.000Z</time>
      </trkpt>
      <trkpt lat="47.53615" lon="6.73729">
        <ele>398.1</ele>
        <time>2014-05-01T08:07:53.000Z</time>
      </trkpt>
      <trkpt lat="47.53618" lon="6.73723">
        <ele>401.4</ele>
        <time>2014-05-01T08:07:53.999Z</time>
      </trkpt>
      <trkpt lat="47.53616" lon="6.7371">
        <ele>399.5</ele>
        <time>2014-05-01T08:07:55.000Z</time>
      </trkpt>
      <trkpt lat="47.53613" lon="6.73706">
        <ele>402.3</ele>
        <time>2014-05-01T08:07:56.000Z</time>
      </trkpt>
      <trkpt lat="47.53612" lon="6.73698">
        <ele>402.5</ele>
        <time>2014-05-01T08:07:57.000Z</time>
      </trkpt>
      <trkpt lat="47.5361" lon="6.73692">
        <ele>402.7</ele>
        <time>2014-05-01T08:07:58.000Z</time>
      </trkpt>
      <trkpt lat="47.53611" lon="6.73684">
        <ele>402.1</ele>
        <time>2014-05-01T08:07:59.000Z</time>
      </trkpt>
      <trkpt lat="47.53613" lon="6.73674">
        <ele>401.9</ele>
        <time>2014-05-01T08:08:00.000Z</time>
      </trkpt>
      <trkpt lat="47.53614" lon="6.73667">
        <ele>402.5</ele>
        <time>2014-05-01T08:08:01.000Z</time>
      </trkpt>
      <trkpt lat="47.53614" lon="6.7366">
        <ele>400.8</ele>
        <time>2014-05-01T08:08:02.000Z</time>
      </trkpt>
      <trkpt lat="47.53608" lon="6.73657">
        <ele>401.3</ele>
        <time>2014-05-01T08:08:03.000Z</time>
      </trkpt>
      <trkpt lat="47.53607" lon="6.73652">
        <ele>401.8</ele>
        <time>2014-05-01T08:08:04.000Z</time>
      </trkpt>
      <trkpt lat="47.53603" lon="6.73645">
        <ele>399.3</ele>
        <time>2014-05-01T08:08:05.000Z</time>
      </trkpt>
      <trkpt lat="47.53617" lon="6.73586">
        <ele>398.3</ele>
        <time>2014-05-01T08:08:13.000Z</time>
      </trkpt>
      <trkpt lat="47.53616" lon="6.73569">
        <ele>396</ele>
        <time>2014-05-01T08:08:14.000Z</time>
      </trkpt>
      <trkpt lat="47.53614" lon="6.73564">
        <ele>396.2</ele>
        <time>2014-05-01T08:08:15.000Z</time>
      </trkpt>
      <trkpt lat="47.53608" lon="6.7356">
        <ele>398.2</ele>
        <time>2014-05-01T08:08:16.000Z</time>
      </trkpt>
      <trkpt lat="47.53606" lon="6.73544">
        <ele>397.6</ele>
        <time>2014-05-01T08:08:17.000Z</time>
      </trkpt>
      <trkpt lat="47.53601" lon="6.73539">
        <ele>394.7</ele>
        <time>2014-05-01T08:08:18.000Z</time>
      </trkpt>
      <trkpt lat="47.53598" lon="6.73534">
        <ele>394.9</ele>
        <time>2014-05-01T08:08:19.000Z</time>
      </trkpt>
      <trkpt lat="47.53592" lon="6.7353">
        <ele>392.9</ele>
        <time>2014-05-01T08:08:20.000Z</time>
      </trkpt>
      <trkpt lat="47.53589" lon="6.73524">
        <ele>391.9</ele>
        <time>2014-05-01T08:08:21.000Z</time>
      </trkpt>
      <trkpt lat="47.53587" lon="6.73519">
        <ele>391.2</ele>
        <time>2014-05-01T08:08:22.000Z</time>
      </trkpt>
      <trkpt lat="47.53584" lon="6.73513">
        <ele>390</ele>
        <time>2014-05-01T08:08:23.000Z</time>
      </trkpt>
      <trkpt lat="47.53583" lon="6.73506">
        <ele>388.9</ele>
        <time>2014-05-01T08:08:24.000Z</time>
      </trkpt>
      <trkpt lat="47.53582" lon="6.7349">
        <ele>388.9</ele>
        <time>2014-05-01T08:08:25.000Z</time>
      </trkpt>
      <trkpt lat="47.53581" lon="6.73483">
        <ele>388.3</ele>
        <time>2014-05-01T08:08:26.000Z</time>
      </trkpt>
      <trkpt lat="47.53583" lon="6.7347">
        <ele>385.9</ele>
        <time>2014-05-01T08:08:27.000Z</time>
      </trkpt>
      <trkpt lat="47.53583" lon="6.73461">
        <ele>385.3</ele>
        <time>2014-05-01T08:08:28.000Z</time>
      </trkpt>
      <trkpt lat="47.53583" lon="6.73452">
        <ele>385.8</ele>
        <time>2014-05-01T08:08:29.000Z</time>
      </trkpt>
      <trkpt lat="47.53582" lon="6.73445">
        <ele>385.8</ele>
        <time>2014-05-01T08:08:30.000Z</time>
      </trkpt>
      <trkpt lat="47.53582" lon="6.73436">
        <ele>385.1</ele>
        <time>2014-05-01T08:08:31.000Z</time>
      </trkpt>
      <trkpt lat="47.53582" lon="6.73426">
        <ele>385.7</ele>
        <time>2014-05-01T08:08:32.000Z</time>
      </trkpt>
      <trkpt lat="47.53579" lon="6.73417">
        <ele>383.8</ele>
        <time>2014-05-01T08:08:33.000Z</time>
      </trkpt>
      <trkpt lat="47.53578" lon="6.73408">
        <ele>383.8</ele>
        <time>2014-05-01T08:08:34.000Z</time>
      </trkpt>
      <trkpt lat="47.53578" lon="6.734">
        <ele>382.9</ele>
        <time>2014-05-01T08:08:35.000Z</time>
      </trkpt>
      <trkpt lat="47.53577" lon="6.73392">
        <ele>380.9</ele>
        <time>2014-05-01T08:08:36.000Z</time>
      </trkpt>
      <trkpt lat="47.53577" lon="6.73384">
        <ele>379</ele>
        <time>2014-05-01T08:08:37.000Z</time>
      </trkpt>
      <trkpt lat="47.53576" lon="6.73377">
        <ele>378.3</ele>
        <time>2014-05-01T08:08:38.000Z</time>
      </trkpt>
      <trkpt lat="47.53576" lon="6.73371">
        <ele>377.7</ele>
        <time>2014-05-01T08:08:39.000Z</time>
      </trkpt>
      <trkpt lat="47.53578" lon="6.73364">
        <ele>377.8</ele>
        <time>2014-05-01T08:08:40.000Z</time>
      </trkpt>
      <trkpt lat="47.53579" lon="6.73355">
        <ele>377.7</ele>
        <time>2014-05-01T08:08:41.000Z</time>
      </trkpt>
      <trkpt lat="47.53579" lon="6.73347">
        <ele>376</ele>
        <time>2014-05-01T08:08:42.000Z</time>
      </trkpt>
      <trkpt lat="47.53578" lon="6.73336">
        <ele>375.3</ele>
        <time>2014-05-01T08:08:43.000Z</time>
      </trkpt>
      <trkpt lat="47.53579" lon="6.73328">
        <ele>376.1</ele>
        <time>2014-05-01T08:08:44.000Z</time>
      </trkpt>
      <trkpt lat="47.53579" lon="6.7332">
        <ele>375.8</ele>
        <time>2014-05-01T08:08:45.000Z</time>
      </trkpt>
      <trkpt lat="47.53578" lon="6.73313">
        <ele>375.5</ele>
        <time>2014-05-01T08:08:46.000Z</time>
      </trkpt>
      <trkpt lat="47.53578" lon="6.73306">
        <ele>375.6</ele>
        <time>2014-05-01T08:08:47.000Z</time>
      </trkpt>
      <trkpt lat="47.53577" lon="6.733">
        <ele>376.7</ele>
        <time>2014-05-01T08:08:48.000Z</time>
      </trkpt>
      <trkpt lat="47.53575" lon="6.73294">
        <ele>376.2</ele>
        <time>2014-05-01T08:08:49.000Z</time>
      </trkpt>
      <trkpt lat="47.53575" lon="6.73288">
        <ele>376.6</ele>
        <time>2014-05-01T08:08:50.000Z</time>
      </trkpt>
      <trkpt lat="47.53573" lon="6.73283">
        <ele>375</ele>
        <time>2014-05-01T08:08:51.000Z</time>
      </trkpt>
      <trkpt lat="47.53574" lon="6.73272">
        <ele>375.2</ele>
        <time>2014-05-01T08:08:52.000Z</time>
      </trkpt>
      <trkpt lat="47.53576" lon="6.73264">
        <ele>376</ele>
        <time>2014-05-01T08:08:53.000Z</time>
      </trkpt>
      <trkpt lat="47.53574" lon="6.73258">
        <ele>376.7</ele>
        <time>2014-05-01T08:08:54.000Z</time>
      </trkpt>
      <trkpt lat="47.53574" lon="6.73251">
        <ele>376.5</ele>
        <time>2014-05-01T08:08:55.000Z</time>
      </trkpt>
      <trkpt lat="47.53574" lon="6.73243">
        <ele>376</ele>
        <time>2014-05-01T08:08:56.000Z</time>
      </trkpt>
      <trkpt lat="47.53573" lon="6.73238">
        <ele>375.8</ele>
        <time>2014-05-01T08:08:57.000Z</time>
      </trkpt>
      <trkpt lat="47.53572" lon="6.7323">
        <ele>376.9</ele>
        <time>2014-05-01T08:08:58.000Z</time>
      </trkpt>
      <trkpt lat="47.53571" lon="6.73221">
        <ele>378.2</ele>
        <time>2014-05-01T08:08:59.000Z</time>
      </trkpt>
      <trkpt lat="47.53569" lon="6.73213">
        <ele>378.3</ele>
        <time>2014-05-01T08:09:00.000Z</time>
      </trkpt>
      <trkpt lat="47.53568" lon="6.73204">
        <ele>379.7</ele>
        <time>2014-05-01T08:09:01.000Z</time>
      </trkpt>
      <trkpt lat="47.53567" lon="6.73197">
        <ele>379.6</ele>
        <time>2014-05-01T08:09:02.000Z</time>
      </trkpt>
      <trkpt lat="47.53567" lon="6.73189">
        <ele>379.5</ele>
        <time>2014-05-01T08:09:03.000Z</time>
      </trkpt>
      <trkpt lat="47.53567" lon="6.73181">
        <ele>381.2</ele>
        <time>2014-05-01T08:09:04.000Z</time>
      </trkpt>
      <trkpt lat="47.53567" lon="6.73173">
        <ele>380.8</ele>
        <time>2014-05-01T08:09:04.999Z</time>
      </trkpt>
      <trkpt lat="47.53562" lon="6.73116">
        <ele>381.7</ele>
        <time>2014-05-01T08:09:13.000Z</time>
      </trkpt>
      <trkpt lat="47.53561" lon="6.73106">
        <ele>379.8</ele>
        <time>2014-05-01T08:09:14.000Z</time>
      </trkpt>
      <trkpt lat="47.5356" lon="6.73099">
        <ele>378.9</ele>
        <time>2014-05-01T08:09:15.000Z</time>
      </trkpt>
      <trkpt lat="47.53558" lon="6.73092">
        <ele>379</ele>
        <time>2014-05-01T08:09:16.000Z</time>
      </trkpt>
      <trkpt lat="47.53556" lon="6.73084">
        <ele>379.7</ele>
        <time>2014-05-01T08:09:17.000Z</time>
      </trkpt>
      <trkpt lat="47.53553" lon="6.73077">
        <ele>379.3</ele>
        <time>2014-05-01T08:09:18.000Z</time>
      </trkpt>
      <trkpt lat="47.53552" lon="6.73069">
        <ele>378.5</ele>
        <time>2014-05-01T08:09:19.000Z</time>
      </trkpt>
      <trkpt lat="47.53551" lon="6.73061">
        <ele>377.6</ele>
        <time>2014-05-01T08:09:20.000Z</time>
      </trkpt>
      <trkpt lat="47.53554" lon="6.73051">
        <ele>375.1</ele>
        <time>2014-05-01T08:09:21.000Z</time>
      </trkpt>
      <trkpt lat="47.53556" lon="6.7304">
        <ele>373.8</ele>
        <time>2014-05-01T08:09:22.000Z</time>
      </trkpt>
      <trkpt lat="47.53559" lon="6.73031">
        <ele>373.4</ele>
        <time>2014-05-01T08:09:23.000Z</time>
      </trkpt>
      <trkpt lat="47.53559" lon="6.73023">
        <ele>371.6</ele>
        <time>2014-05-01T08:09:24.000Z</time>
      </trkpt>
      <trkpt lat="47.53555" lon="6.73017">
        <ele>372.1</ele>
        <time>2014-05-01T08:09:25.000Z</time>
      </trkpt>
      <trkpt lat="47.53553" lon="6.7301">
        <ele>372.4</ele>
        <time>2014-05-01T08:09:26.000Z</time>
      </trkpt>
      <trkpt lat="47.53551" lon="6.73003">
        <ele>371.7</ele>
        <time>2014-05-01T08:09:27.000Z</time>
      </trkpt>
      <trkpt lat="47.5355" lon="6.72995">
        <ele>372</ele>
        <time>2014-05-01T08:09:28.000Z</time>
      </trkpt>
      <trkpt lat="47.53546" lon="6.72987">
        <ele>371.6</ele>
        <time>2014-05-01T08:09:29.000Z</time>
      </trkpt>
      <trkpt lat="47.53545" lon="6.7298">
        <ele>370.7</ele>
        <time>2014-05-01T08:09:30.000Z</time>
      </trkpt>
      <trkpt lat="47.53543" lon="6.72972">
        <ele>370.5</ele>
        <time>2014-05-01T08:09:31.000Z</time>
      </trkpt>
      <trkpt lat="47.53541" lon="6.72962">
        <ele>368.2</ele>
        <time>2014-05-01T08:09:32.000Z</time>
      </trkpt>
      <trkpt lat="47.5354" lon="6.72952">
        <ele>366.5</ele>
        <time>2014-05-01T08:09:33.000Z</time>
      </trkpt>
      <trkpt lat="47.53538" lon="6.72945">
        <ele>366.3</ele>
        <time>2014-05-01T08:09:34.000Z</time>
      </trkpt>
      <trkpt lat="47.53536" lon="6.72937">
        <ele>366</ele>
        <time>2014-05-01T08:09:35.000Z</time>
      </trkpt>
      <trkpt lat="47.53534" lon="6.72928">
        <ele>365.7</ele>
        <time>2014-05-01T08:09:36.000Z</time>
      </trkpt>
      <trkpt lat="47.53533" lon="6.72919">
        <ele>365.2</ele>
        <time>2014-05-01T08:09:37.000Z</time>
      </trkpt>
      <trkpt lat="47.53531" lon="6.72911">
        <ele>365.2</ele>
        <time>2014-05-01T08:09:38.000Z</time>
      </trkpt>
      <trkpt lat="47.5353" lon="6.72902">
        <ele>364.2</ele>
        <time>2014-05-01T08:09:39.000Z</time>
      </trkpt>
      <trkpt lat="47.53529" lon="6.72894">
        <ele>363.6</ele>
        <time>2014-05-01T08:09:40.000Z</time>
      </trkpt>
      <trkpt lat="47.53528" lon="6.72886">
        <ele>363.3</ele>
        <time>2014-05-01T08:09:41.000Z</time>
      </trkpt>
      <trkpt lat="47.53526" lon="6.72878">
        <ele>363.2</ele>
        <time>2014-05-01T08:09:42.000Z</time>
      </trkpt>
      <trkpt lat="47.53525" lon="6.72872">
        <ele>363.4</ele>
        <time>2014-05-01T08:09:43.000Z</time>
      </trkpt>
      <trkpt lat="47.53524" lon="6.72865">
        <ele>363.2</ele>
        <time>2014-05-01T08:09:44.000Z</time>
      </trkpt>
      <trkpt lat="47.53523" lon="6.72857">
        <ele>363.4</ele>
        <time>2014-05-01T08:09:45.000Z</time>
      </trkpt>
      <trkpt lat="47.53522" lon="6.7285">
        <ele>362.7</ele>
        <time>2014-05-01T08:09:46.000Z</time>
      </trkpt>
      <trkpt lat="47.53521" lon="6.72844">
        <ele>362.5</ele>
        <time>2014-05-01T08:09:47.000Z</time>
      </trkpt>
      <trkpt lat="47.5352" lon="6.72837">
        <ele>362.5</ele>
        <time>2014-05-01T08:09:48.000Z</time>
      </trkpt>
      <trkpt lat="47.5352" lon="6.72829">
        <ele>362.7</ele>
        <time>2014-05-01T08:09:49.000Z</time>
      </trkpt>
      <trkpt lat="47.53519" lon="6.72821">
        <ele>362.6</ele>
        <time>2014-05-01T08:09:50.000Z</time>
      </trkpt>
      <trkpt lat="47.53519" lon="6.72815">
        <ele>363.2</ele>
        <time>2014-05-01T08:09:51.000Z</time>
      </trkpt>
      <trkpt lat="47.53515" lon="6.72807">
        <ele>362.6</ele>
        <time>2014-05-01T08:09:52.000Z</time>
      </trkpt>
      <trkpt lat="47.53513" lon="6.72799">
        <ele>362</ele>
        <time>2014-05-01T08:09:53.000Z</time>
      </trkpt>
      <trkpt lat="47.53512" lon="6.72791">
        <ele>362</ele>
        <time>2014-05-01T08:09:54.000Z</time>
      </trkpt>
      <trkpt lat="47.53511" lon="6.72783">
        <ele>362.8</ele>
        <time>2014-05-01T08:09:55.000Z</time>
      </trkpt>
      <trkpt lat="47.53509" lon="6.72776">
        <ele>363.8</ele>
        <time>2014-05-01T08:09:56.000Z</time>
      </trkpt>
      <trkpt lat="47.53509" lon="6.72765">
        <ele>362.4</ele>
        <time>2014-05-01T08:09:57.000Z</time>
      </trkpt>
      <trkpt lat="47.53508" lon="6.72756">
        <ele>362.7</ele>
        <time>2014-05-01T08:09:58.000Z</time>
      </trkpt>
      <trkpt lat="47.53507" lon="6.72749">
        <ele>363.3</ele>
        <time>2014-05-01T08:09:59.000Z</time>
      </trkpt>
      <trkpt lat="47.53504" lon="6.72747">
        <ele>364.2</ele>
        <time>2014-05-01T08:10:00.000Z</time>
      </trkpt>
      <trkpt lat="47.53503" lon="6.72742">
        <ele>363.7</ele>
        <time>2014-05-01T08:10:01.000Z</time>
      </trkpt>
      <trkpt lat="47.53501" lon="6.72739">
        <ele>362.5</ele>
        <time>2014-05-01T08:10:02.000Z</time>
      </trkpt>
      <trkpt lat="47.53495" lon="6.72739">
        <ele>360.1</ele>
        <time>2014-05-01T08:10:03.000Z</time>
      </trkpt>
      <trkpt lat="47.53491" lon="6.72743">
        <ele>359.1</ele>
        <time>2014-05-01T08:10:04.000Z</time>
      </trkpt>
      <trkpt lat="47.53488" lon="6.72745">
        <ele>358.8</ele>
        <time>2014-05-01T08:10:05.000Z</time>
      </trkpt>
      <trkpt lat="47.53465" lon="6.72757">
        <ele>356.2</ele>
        <time>2014-05-01T08:10:13.000Z</time>
      </trkpt>
      <trkpt lat="47.53462" lon="6.72758">
        <ele>356.3</ele>
        <time>2014-05-01T08:10:14.000Z</time>
      </trkpt>
      <trkpt lat="47.5346" lon="6.7276">
        <ele>355.7</ele>
        <time>2014-05-01T08:10:15.000Z</time>
      </trkpt>
      <trkpt lat="47.53458" lon="6.72762">
        <ele>356</ele>
        <time>2014-05-01T08:10:16.000Z</time>
      </trkpt>
      <trkpt lat="47.53456" lon="6.72764">
        <ele>355.9</ele>
        <time>2014-05-01T08:10:17.000Z</time>
      </trkpt>
      <trkpt lat="47.53454" lon="6.72766">
        <ele>356.5</ele>
        <time>2014-05-01T08:10:18.000Z</time>
      </trkpt>
      <trkpt lat="47.53452" lon="6.72768">
        <ele>357.3</ele>
        <time>2014-05-01T08:10:19.000Z</time>
      </trkpt>
      <trkpt lat="47.53449" lon="6.7277">
        <ele>358.2</ele>
        <time>2014-05-01T08:10:21.000Z</time>
      </trkpt>
      <trkpt lat="47.53447" lon="6.72771">
        <ele>358.7</ele>
        <time>2014-05-01T08:10:22.000Z</time>
      </trkpt>
      <trkpt lat="47.53444" lon="6.72774">
        <ele>358.9</ele>
        <time>2014-05-01T08:10:25.000Z</time>
      </trkpt>
      <trkpt lat="47.53443" lon="6.72775">
        <ele>359.8</ele>
        <time>2014-05-01T08:10:26.000Z</time>
      </trkpt>
      <trkpt lat="47.53439" lon="6.72776">
        <ele>362.1</ele>
        <time>2014-05-01T08:10:30.000Z</time>
      </trkpt>
      <trkpt lat="47.53438" lon="6.72778">
        <ele>362.1</ele>
        <time>2014-05-01T08:10:31.000Z</time>
      </trkpt>
      <trkpt lat="47.53434" lon="6.72781">
        <ele>363.6</ele>
        <time>2014-05-01T08:10:34.000Z</time>
      </trkpt>
      <trkpt lat="47.53433" lon="6.72781">
        <ele>365.6</ele>
        <time>2014-05-01T08:10:35.000Z</time>
      </trkpt>
      <trkpt lat="47.53429" lon="6.72782">
        <ele>366.9</ele>
        <time>2014-05-01T08:10:38.000Z</time>
      </trkpt>
      <trkpt lat="47.53427" lon="6.72782">
        <ele>367.7</ele>
        <time>2014-05-01T08:10:39.000Z</time>
      </trkpt>
      <trkpt lat="47.53423" lon="6.72784">
        <ele>368.8</ele>
        <time>2014-05-01T08:10:41.000Z</time>
      </trkpt>
      <trkpt lat="47.53421" lon="6.72786">
        <ele>368.5</ele>
        <time>2014-05-01T08:10:42.000Z</time>
      </trkpt>
      <trkpt lat="47.53419" lon="6.72788">
        <ele>368.5</ele>
        <time>2014-05-01T08:10:43.000Z</time>
      </trkpt>
      <trkpt lat="47.53417" lon="6.7279">
        <ele>368.6</ele>
        <time>2014-05-01T08:10:44.000Z</time>
      </trkpt>
      <trkpt lat="47.53415" lon="6.72792">
        <ele>368.3</ele>
        <time>2014-05-01T08:10:45.000Z</time>
      </trkpt>
      <trkpt lat="47.53413" lon="6.72795">
        <ele>363.2</ele>
        <time>2014-05-01T08:10:46.000Z</time>
      </trkpt>
      <trkpt lat="47.53411" lon="6.72798">
        <ele>359.8</ele>
        <time>2014-05-01T08:10:47.000Z</time>
      </trkpt>
      <trkpt lat="47.53409" lon="6.72801">
        <ele>357.3</ele>
        <time>2014-05-01T08:10:48.000Z</time>
      </trkpt>
      <trkpt lat="47.53408" lon="6.72803">
        <ele>356</ele>
        <time>2014-05-01T08:10:49.000Z</time>
      </trkpt>
      <trkpt lat="47.53407" lon="6.72806">
        <ele>357</ele>
        <time>2014-05-01T08:10:50.000Z</time>
      </trkpt>
      <trkpt lat="47.53405" lon="6.72811">
        <ele>358.9</ele>
        <time>2014-05-01T08:10:52.000Z</time>
      </trkpt>
      <trkpt lat="47.53405" lon="6.72813">
        <ele>359.6</ele>
        <time>2014-05-01T08:10:53.000Z</time>
      </trkpt>
      <trkpt lat="47.53401" lon="6.72817">
        <ele>369.2</ele>
        <time>2014-05-01T08:10:57.000Z</time>
      </trkpt>
      <trkpt lat="47.53401" lon="6.72818">
        <ele>369.7</ele>
        <time>2014-05-01T08:10:58.000Z</time>
      </trkpt>
      <trkpt lat="47.53401" lon="6.72822">
        <ele>372.7</ele>
        <time>2014-05-01T08:11:01.000Z</time>
      </trkpt>
      <trkpt lat="47.534" lon="6.72824">
        <ele>372.5</ele>
        <time>2014-05-01T08:11:02.000Z</time>
      </trkpt>
      <trkpt lat="47.53397" lon="6.72828">
        <ele>373</ele>
        <time>2014-05-01T08:11:04.000Z</time>
      </trkpt>
      <trkpt lat="47.53395" lon="6.7283">
        <ele>372.7</ele>
        <time>2014-05-01T08:11:05.000Z</time>
      </trkpt>
      <trkpt lat="47.53388" lon="6.72845">
        <ele>367.7</ele>
        <time>2014-05-01T08:11:13.000Z</time>
      </trkpt>
      <trkpt lat="47.53384" lon="6.72848">
        <ele>367.9</ele>
        <time>2014-05-01T08:11:17.000Z</time>
      </trkpt>
      <trkpt lat="47.53383" lon="6.72849">
        <ele>368.8</ele>
        <time>2014-05-01T08:11:18.000Z</time>
      </trkpt>
      <trkpt lat="47.53382" lon="6.72852">
        <ele>366.3</ele>
        <time>2014-05-01T08:11:19.000Z</time>
      </trkpt>
      <trkpt lat="47.5338" lon="6.72855">
        <ele>364.4</ele>
        <time>2014-05-01T08:11:20.000Z</time>
      </trkpt>
      <trkpt lat="47.53378" lon="6.72859">
        <ele>363.3</ele>
        <time>2014-05-01T08:11:21.000Z</time>
      </trkpt>
      <trkpt lat="47.53377" lon="6.72862">
        <ele>363.6</ele>
        <time>2014-05-01T08:11:22.000Z</time>
      </trkpt>
      <trkpt lat="47.53376" lon="6.72865">
        <ele>365.5</ele>
        <time>2014-05-01T08:11:23.000Z</time>
      </trkpt>
      <trkpt lat="47.53374" lon="6.72868">
        <ele>366.2</ele>
        <time>2014-05-01T08:11:24.000Z</time>
      </trkpt>
      <trkpt lat="47.53374" lon="6.72872">
        <ele>366.9</ele>
        <time>2014-05-01T08:11:25.000Z</time>
      </trkpt>
      <trkpt lat="47.53373" lon="6.72875">
        <ele>366.4</ele>
        <time>2014-05-01T08:11:26.000Z</time>
      </trkpt>
      <trkpt lat="47.53372" lon="6.72879">
        <ele>366.2</ele>
        <time>2014-05-01T08:11:27.000Z</time>
      </trkpt>
      <trkpt lat="47.5337" lon="6.72883">
        <ele>367.8</ele>
        <time>2014-05-01T08:11:28.000Z</time>
      </trkpt>
      <trkpt lat="47.53368" lon="6.72887">
        <ele>368.4</ele>
        <time>2014-05-01T08:11:29.000Z</time>
      </trkpt>
      <trkpt lat="47.53366" lon="6.72891">
        <ele>369</ele>
        <time>2014-05-01T08:11:30.000Z</time>
      </trkpt>
      <trkpt lat="47.53363" lon="6.72895">
        <ele>369.4</ele>
        <time>2014-05-01T08:11:31.000Z</time>
      </trkpt>
      <trkpt lat="47.53361" lon="6.72899">
        <ele>370.1</ele>
        <time>2014-05-01T08:11:32.000Z</time>
      </trkpt>
      <trkpt lat="47.53359" lon="6.72901">
        <ele>370.2</ele>
        <time>2014-05-01T08:11:33.000Z</time>
      </trkpt>
      <trkpt lat="47.53357" lon="6.72904">
        <ele>370.3</ele>
        <time>2014-05-01T08:11:34.000Z</time>
      </trkpt>
      <trkpt lat="47.53354" lon="6.72908">
        <ele>365.5</ele>
        <time>2014-05-01T08:11:36.000Z</time>
      </trkpt>
      <trkpt lat="47.53352" lon="6.72911">
        <ele>364.8</ele>
        <time>2014-05-01T08:11:37.000Z</time>
      </trkpt>
      <trkpt lat="47.53349" lon="6.72914">
        <ele>365.9</ele>
        <time>2014-05-01T08:11:39.000Z</time>
      </trkpt>
      <trkpt lat="47.53347" lon="6.72915">
        <ele>366.4</ele>
        <time>2014-05-01T08:11:40.000Z</time>
      </trkpt>
      <trkpt lat="47.53344" lon="6.72916">
        <ele>368.5</ele>
        <time>2014-05-01T08:11:42.000Z</time>
      </trkpt>
      <trkpt lat="47.53342" lon="6.72916">
        <ele>368.7</ele>
        <time>2014-05-01T08:11:43.000Z</time>
      </trkpt>
      <trkpt lat="47.53339" lon="6.72919">
        <ele>368.9</ele>
        <time>2014-05-01T08:11:45.000Z</time>
      </trkpt>
      <trkpt lat="47.53337" lon="6.72921">
        <ele>370</ele>
        <time>2014-05-01T08:11:46.000Z</time>
      </trkpt>
      <trkpt lat="47.53334" lon="6.72923">
        <ele>373.5</ele>
        <time>2014-05-01T08:11:48.000Z</time>
      </trkpt>
      <trkpt lat="47.53332" lon="6.72924">
        <ele>374.5</ele>
        <time>2014-05-01T08:11:49.000Z</time>
      </trkpt>
      <trkpt lat="47.53328" lon="6.72925">
        <ele>379</ele>
        <time>2014-05-01T08:11:52.000Z</time>
      </trkpt>
      <trkpt lat="47.53327" lon="6.72926">
        <ele>380.4</ele>
        <time>2014-05-01T08:11:53.000Z</time>
      </trkpt>
      <trkpt lat="47.53325" lon="6.72927">
        <ele>379.5</ele>
        <time>2014-05-01T08:11:54.000Z</time>
      </trkpt>
      <trkpt lat="47.53322" lon="6.72928">
        <ele>379.9</ele>
        <time>2014-05-01T08:11:55.000Z</time>
      </trkpt>
      <trkpt lat="47.5332" lon="6.7293">
        <ele>379.8</ele>
        <time>2014-05-01T08:11:56.000Z</time>
      </trkpt>
      <trkpt lat="47.53318" lon="6.72933">
        <ele>379.5</ele>
        <time>2014-05-01T08:11:57.000Z</time>
      </trkpt>
      <trkpt lat="47.53316" lon="6.72935">
        <ele>379.7</ele>
        <time>2014-05-01T08:11:58.000Z</time>
      </trkpt>
      <trkpt lat="47.53314" lon="6.72938">
        <ele>376.7</ele>
        <time>2014-05-01T08:11:59.000Z</time>
      </trkpt>
      <trkpt lat="47.53311" lon="6.7294">
        <ele>378.2</ele>
        <time>2014-05-01T08:12:00.000Z</time>
      </trkpt>
      <trkpt lat="47.53309" lon="6.72942">
        <ele>377.7</ele>
        <time>2014-05-01T08:12:01.000Z</time>
      </trkpt>
      <trkpt lat="47.53306" lon="6.72944">
        <ele>378.6</ele>
        <time>2014-05-01T08:12:02.000Z</time>
      </trkpt>
      <trkpt lat="47.53304" lon="6.72946">
        <ele>379</ele>
        <time>2014-05-01T08:12:03.000Z</time>
      </trkpt>
      <trkpt lat="47.53301" lon="6.72947">
        <ele>379.3</ele>
        <time>2014-05-01T08:12:04.000Z</time>
      </trkpt>
      <trkpt lat="47.53299" lon="6.72949">
        <ele>379.8</ele>
        <time>2014-05-01T08:12:05.000Z</time>
      </trkpt>
      <trkpt lat="47.53283" lon="6.72958">
        <ele>379.1</ele>
        <time>2014-05-01T08:12:13.000Z</time>
      </trkpt>
      <trkpt lat="47.5328" lon="6.72961">
        <ele>379</ele>
        <time>2014-05-01T08:12:15.000Z</time>
      </trkpt>
      <trkpt lat="47.53279" lon="6.72963">
        <ele>380.3</ele>
        <time>2014-05-01T08:12:16.000Z</time>
      </trkpt>
      <trkpt lat="47.53276" lon="6.72965">
        <ele>381</ele>
        <time>2014-05-01T08:12:18.000Z</time>
      </trkpt>
      <trkpt lat="47.53273" lon="6.72967">
        <ele>380.6</ele>
        <time>2014-05-01T08:12:19.000Z</time>
      </trkpt>
      <trkpt lat="47.53271" lon="6.72969">
        <ele>381.1</ele>
        <time>2014-05-01T08:12:20.000Z</time>
      </trkpt>
      <trkpt lat="47.53268" lon="6.72971">
        <ele>382</ele>
        <time>2014-05-01T08:12:21.000Z</time>
      </trkpt>
      <trkpt lat="47.53265" lon="6.72973">
        <ele>383</ele>
        <time>2014-05-01T08:12:22.000Z</time>
      </trkpt>
      <trkpt lat="47.53262" lon="6.72975">
        <ele>383.2</ele>
        <time>2014-05-01T08:12:23.000Z</time>
      </trkpt>
      <trkpt lat="47.5326" lon="6.72977">
        <ele>383</ele>
        <time>2014-05-01T08:12:24.000Z</time>
      </trkpt>
      <trkpt lat="47.53257" lon="6.72979">
        <ele>383.3</ele>
        <time>2014-05-01T08:12:25.000Z</time>
      </trkpt>
      <trkpt lat="47.53254" lon="6.72981">
        <ele>384.4</ele>
        <time>2014-05-01T08:12:26.000Z</time>
      </trkpt>
      <trkpt lat="47.53252" lon="6.72983">
        <ele>383.8</ele>
        <time>2014-05-01T08:12:27.000Z</time>
      </trkpt>
      <trkpt lat="47.53249" lon="6.72985">
        <ele>384.3</ele>
        <time>2014-05-01T08:12:28.000Z</time>
      </trkpt>
      <trkpt lat="47.53247" lon="6.72987">
        <ele>383.3</ele>
        <time>2014-05-01T08:12:29.000Z</time>
      </trkpt>
      <trkpt lat="47.53244" lon="6.72989">
        <ele>383.8</ele>
        <time>2014-05-01T08:12:30.000Z</time>
      </trkpt>
      <trkpt lat="47.53242" lon="6.7299">
        <ele>383.6</ele>
        <time>2014-05-01T08:12:31.000Z</time>
      </trkpt>
      <trkpt lat="47.53239" lon="6.72992">
        <ele>384.1</ele>
        <time>2014-05-01T08:12:32.000Z</time>
      </trkpt>
      <trkpt lat="47.53237" lon="6.72993">
        <ele>384.9</ele>
        <time>2014-05-01T08:12:33.000Z</time>
      </trkpt>
      <trkpt lat="47.53234" lon="6.72995">
        <ele>385.2</ele>
        <time>2014-05-01T08:12:34.000Z</time>
      </trkpt>
      <trkpt lat="47.53232" lon="6.72997">
        <ele>385.3</ele>
        <time>2014-05-01T08:12:35.000Z</time>
      </trkpt>
      <trkpt lat="47.5323" lon="6.72999">
        <ele>381.7</ele>
        <time>2014-05-01T08:12:36.000Z</time>
      </trkpt>
      <trkpt lat="47.53228" lon="6.73002">
        <ele>381.2</ele>
        <time>2014-05-01T08:12:37.000Z</time>
      </trkpt>
      <trkpt lat="47.53226" lon="6.73004">
        <ele>381.3</ele>
        <time>2014-05-01T08:12:38.000Z</time>
      </trkpt>
      <trkpt lat="47.53224" lon="6.73006">
        <ele>382.1</ele>
        <time>2014-05-01T08:12:39.000Z</time>
      </trkpt>
      <trkpt lat="47.53222" lon="6.73008">
        <ele>381.8</ele>
        <time>2014-05-01T08:12:40.000Z</time>
      </trkpt>
      <trkpt lat="47.5322" lon="6.7301">
        <ele>380.9</ele>
        <time>2014-05-01T08:12:41.000Z</time>
      </trkpt>
      <trkpt lat="47.53218" lon="6.73012">
        <ele>381</ele>
        <time>2014-05-01T08:12:42.000Z</time>
      </trkpt>
      <trkpt lat="47.53215" lon="6.73014">
        <ele>381.4</ele>
        <time>2014-05-01T08:12:43.000Z</time>
      </trkpt>
      <trkpt lat="47.53213" lon="6.73015">
        <ele>381.6</ele>
        <time>2014-05-01T08:12:44.000Z</time>
      </trkpt>
      <trkpt lat="47.53211" lon="6.73017">
        <ele>381</ele>
        <time>2014-05-01T08:12:45.000Z</time>
      </trkpt>
      <trkpt lat="47.53207" lon="6.7302">
        <ele>380.4</ele>
        <time>2014-05-01T08:12:47.000Z</time>
      </trkpt>
      <trkpt lat="47.53205" lon="6.73021">
        <ele>380.5</ele>
        <time>2014-05-01T08:12:48.000Z</time>
      </trkpt>
      <trkpt lat="47.53203" lon="6.73025">
        <ele>381</ele>
        <time>2014-05-01T08:12:50.000Z</time>
      </trkpt>
      <trkpt lat="47.53202" lon="6.73027">
        <ele>381</ele>
        <time>2014-05-01T08:12:51.000Z</time>
      </trkpt>
      <trkpt lat="47.532" lon="6.73031">
        <ele>380.2</ele>
        <time>2014-05-01T08:12:53.000Z</time>
      </trkpt>
      <trkpt lat="47.53198" lon="6.73033">
        <ele>379.6</ele>
        <time>2014-05-01T08:12:54.000Z</time>
      </trkpt>
      <trkpt lat="47.53195" lon="6.73036">
        <ele>380.3</ele>
        <time>2014-05-01T08:12:56.000Z</time>
      </trkpt>
      <trkpt lat="47.53192" lon="6.73039">
        <ele>379.7</ele>
        <time>2014-05-01T08:12:57.000Z</time>
      </trkpt>
      <trkpt lat="47.5319" lon="6.73041">
        <ele>381</ele>
        <time>2014-05-01T08:12:58.000Z</time>
      </trkpt>
      <trkpt lat="47.53188" lon="6.73043">
        <ele>381.7</ele>
        <time>2014-05-01T08:12:59.000Z</time>
      </trkpt>
      <trkpt lat="47.53186" lon="6.73045">
        <ele>381.4</ele>
        <time>2014-05-01T08:13:00.000Z</time>
      </trkpt>
      <trkpt lat="47.53184" lon="6.73047">
        <ele>381.9</ele>
        <time>2014-05-01T08:13:01.000Z</time>
      </trkpt>
      <trkpt lat="47.53181" lon="6.73051">
        <ele>383.5</ele>
        <time>2014-05-01T08:13:03.000Z</time>
      </trkpt>
      <trkpt lat="47.53179" lon="6.73053">
        <ele>382.2</ele>
        <time>2014-05-01T08:13:04.000Z</time>
      </trkpt>
      <trkpt lat="47.53177" lon="6.73055">
        <ele>382.1</ele>
        <time>2014-05-01T08:13:05.000Z</time>
      </trkpt>
      <trkpt lat="47.53172" lon="6.73061">
        <ele>381.9</ele>
        <time>2014-05-01T08:13:08.000Z</time>
      </trkpt>
      <trkpt lat="47.53169" lon="6.73064">
        <ele>381.9</ele>
        <time>2014-05-01T08:13:09.000Z</time>
      </trkpt>
      <trkpt lat="47.53167" lon="6.73066">
        <ele>382.9</ele>
        <time>2014-05-01T08:13:10.000Z</time>
      </trkpt>
      <trkpt lat="47.53165" lon="6.73069">
        <ele>383.4</ele>
        <time>2014-05-01T08:13:11.000Z</time>
      </trkpt>
      <trkpt lat="47.53163" lon="6.73072">
        <ele>383.6</ele>
        <time>2014-05-01T08:13:12.000Z</time>
      </trkpt>
      <trkpt lat="47.53161" lon="6.73075">
        <ele>382.9</ele>
        <time>2014-05-01T08:13:13.000Z</time>
      </trkpt>
      <trkpt lat="47.53159" lon="6.73077">
        <ele>383.2</ele>
        <time>2014-05-01T08:13:14.000Z</time>
      </trkpt>
      <trkpt lat="47.53158" lon="6.7308">
        <ele>383.6</ele>
        <time>2014-05-01T08:13:15.000Z</time>
      </trkpt>
      <trkpt lat="47.53156" lon="6.73083">
        <ele>383.8</ele>
        <time>2014-05-01T08:13:16.000Z</time>
      </trkpt>
      <trkpt lat="47.53154" lon="6.73085">
        <ele>384.7</ele>
        <time>2014-05-01T08:13:17.000Z</time>
      </trkpt>
      <trkpt lat="47.53152" lon="6.73088">
        <ele>384.4</ele>
        <time>2014-05-01T08:13:18.000Z</time>
      </trkpt>
      <trkpt lat="47.53151" lon="6.7309">
        <ele>384.1</ele>
        <time>2014-05-01T08:13:19.000Z</time>
      </trkpt>
      <trkpt lat="47.53149" lon="6.73093">
        <ele>384.2</ele>
        <time>2014-05-01T08:13:20.000Z</time>
      </trkpt>
      <trkpt lat="47.53147" lon="6.73096">
        <ele>384.9</ele>
        <time>2014-05-01T08:13:21.000Z</time>
      </trkpt>
      <trkpt lat="47.53146" lon="6.73099">
        <ele>385.6</ele>
        <time>2014-05-01T08:13:22.000Z</time>
      </trkpt>
      <trkpt lat="47.53144" lon="6.73102">
        <ele>386</ele>
        <time>2014-05-01T08:13:23.000Z</time>
      </trkpt>
      <trkpt lat="47.53143" lon="6.73104">
        <ele>386.3</ele>
        <time>2014-05-01T08:13:24.000Z</time>
      </trkpt>
      <trkpt lat="47.53141" lon="6.73106">
        <ele>386.1</ele>
        <time>2014-05-01T08:13:25.000Z</time>
      </trkpt>
      <trkpt lat="47.53139" lon="6.73109">
        <ele>386.2</ele>
        <time>2014-05-01T08:13:26.000Z</time>
      </trkpt>
      <trkpt lat="47.53137" lon="6.73111">
        <ele>385.4</ele>
        <time>2014-05-01T08:13:27.000Z</time>
      </trkpt>
      <trkpt lat="47.53136" lon="6.73114">
        <ele>385.1</ele>
        <time>2014-05-01T08:13:28.000Z</time>
      </trkpt>
      <trkpt lat="47.53134" lon="6.73116">
        <ele>385.4</ele>
        <time>2014-05-01T08:13:29.000Z</time>
      </trkpt>
      <trkpt lat="47.53132" lon="6.73119">
        <ele>385.3</ele>
        <time>2014-05-01T08:13:30.000Z</time>
      </trkpt>
      <trkpt lat="47.5313" lon="6.73122">
        <ele>384.8</ele>
        <time>2014-05-01T08:13:31.000Z</time>
      </trkpt>
      <trkpt lat="47.53129" lon="6.73124">
        <ele>385.1</ele>
        <time>2014-05-01T08:13:32.000Z</time>
      </trkpt>
      <trkpt lat="47.53127" lon="6.73127">
        <ele>384.9</ele>
        <time>2014-05-01T08:13:33.000Z</time>
      </trkpt>
      <trkpt lat="47.53125" lon="6.7313">
        <ele>384.4</ele>
        <time>2014-05-01T08:13:34.000Z</time>
      </trkpt>
      <trkpt lat="47.53124" lon="6.73133">
        <ele>384.7</ele>
        <time>2014-05-01T08:13:35.000Z</time>
      </trkpt>
      <trkpt lat="47.53122" lon="6.73136">
        <ele>385.1</ele>
        <time>2014-05-01T08:13:36.000Z</time>
      </trkpt>
      <trkpt lat="47.5312" lon="6.73139">
        <ele>386</ele>
        <time>2014-05-01T08:13:37.000Z</time>
      </trkpt>
      <trkpt lat="47.53119" lon="6.73142">
        <ele>386</ele>
        <time>2014-05-01T08:13:38.000Z</time>
      </trkpt>
      <trkpt lat="47.53118" lon="6.73144">
        <ele>386.3</ele>
        <time>2014-05-01T08:13:39.000Z</time>
      </trkpt>
      <trkpt lat="47.53116" lon="6.73147">
        <ele>386.7</ele>
        <time>2014-05-01T08:13:40.000Z</time>
      </trkpt>
      <trkpt lat="47.53114" lon="6.7315">
        <ele>387</ele>
        <time>2014-05-01T08:13:41.000Z</time>
      </trkpt>
      <trkpt lat="47.53113" lon="6.73154">
        <ele>387.1</ele>
        <time>2014-05-01T08:13:42.000Z</time>
      </trkpt>
      <trkpt lat="47.53111" lon="6.73157">
        <ele>387</ele>
        <time>2014-05-01T08:13:43.000Z</time>
      </trkpt>
      <trkpt lat="47.5311" lon="6.73161">
        <ele>386.9</ele>
        <time>2014-05-01T08:13:44.000Z</time>
      </trkpt>
      <trkpt lat="47.53108" lon="6.73165">
        <ele>386.5</ele>
        <time>2014-05-01T08:13:45.000Z</time>
      </trkpt>
      <trkpt lat="47.53107" lon="6.7317">
        <ele>389.6</ele>
        <time>2014-05-01T08:13:46.000Z</time>
      </trkpt>
      <trkpt lat="47.53106" lon="6.73173">
        <ele>390.5</ele>
        <time>2014-05-01T08:13:47.000Z</time>
      </trkpt>
      <trkpt lat="47.53104" lon="6.73177">
        <ele>390.8</ele>
        <time>2014-05-01T08:13:48.000Z</time>
      </trkpt>
      <trkpt lat="47.53102" lon="6.73181">
        <ele>391.5</ele>
        <time>2014-05-01T08:13:49.000Z</time>
      </trkpt>
      <trkpt lat="47.531" lon="6.73185">
        <ele>390.8</ele>
        <time>2014-05-01T08:13:50.000Z</time>
      </trkpt>
      <trkpt lat="47.53098" lon="6.73189">
        <ele>390.1</ele>
        <time>2014-05-01T08:13:51.000Z</time>
      </trkpt>
      <trkpt lat="47.53096" lon="6.73193">
        <ele>389</ele>
        <time>2014-05-01T08:13:52.000Z</time>
      </trkpt>
      <trkpt lat="47.53094" lon="6.73196">
        <ele>389.1</ele>
        <time>2014-05-01T08:13:53.000Z</time>
      </trkpt>
      <trkpt lat="47.53092" lon="6.73199">
        <ele>389</ele>
        <time>2014-05-01T08:13:54.000Z</time>
      </trkpt>
      <trkpt lat="47.5309" lon="6.73202">
        <ele>389.5</ele>
        <time>2014-05-01T08:13:55.000Z</time>
      </trkpt>
      <trkpt lat="47.53088" lon="6.73206">
        <ele>389.3</ele>
        <time>2014-05-01T08:13:56.000Z</time>
      </trkpt>
      <trkpt lat="47.53086" lon="6.7321">
        <ele>388.7</ele>
        <time>2014-05-01T08:13:57.000Z</time>
      </trkpt>
      <trkpt lat="47.53084" lon="6.73214">
        <ele>388.1</ele>
        <time>2014-05-01T08:13:58.000Z</time>
      </trkpt>
      <trkpt lat="47.53082" lon="6.73218">
        <ele>388.7</ele>
        <time>2014-05-01T08:13:59.000Z</time>
      </trkpt>
      <trkpt lat="47.53079" lon="6.73222">
        <ele>388.7</ele>
        <time>2014-05-01T08:14:00.000Z</time>
      </trkpt>
      <trkpt lat="47.53077" lon="6.73227">
        <ele>387.2</ele>
        <time>2014-05-01T08:14:01.000Z</time>
      </trkpt>
      <trkpt lat="47.53075" lon="6.73231">
        <ele>386</ele>
        <time>2014-05-01T08:14:02.000Z</time>
      </trkpt>
      <trkpt lat="47.53072" lon="6.73236">
        <ele>386.5</ele>
        <time>2014-05-01T08:14:03.000Z</time>
      </trkpt>
      <trkpt lat="47.5307" lon="6.73241">
        <ele>385.8</ele>
        <time>2014-05-01T08:14:04.000Z</time>
      </trkpt>
      <trkpt lat="47.53067" lon="6.73246">
        <ele>385.8</ele>
        <time>2014-05-01T08:14:05.000Z</time>
      </trkpt>
      <trkpt lat="47.53046" lon="6.73282">
        <ele>388.1</ele>
        <time>2014-05-01T08:14:13.000Z</time>
      </trkpt>
      <trkpt lat="47.53043" lon="6.73286">
        <ele>387.6</ele>
        <time>2014-05-01T08:14:14.000Z</time>
      </trkpt>
      <trkpt lat="47.53041" lon="6.73289">
        <ele>387.8</ele>
        <time>2014-05-01T08:14:15.000Z</time>
      </trkpt>
      <trkpt lat="47.53038" lon="6.73294">
        <ele>389.1</ele>
        <time>2014-05-01T08:14:16.000Z</time>
      </trkpt>
      <trkpt lat="47.53035" lon="6.73298">
        <ele>389.5</ele>
        <time>2014-05-01T08:14:17.000Z</time>
      </trkpt>
      <trkpt lat="47.53032" lon="6.73302">
        <ele>390.3</ele>
        <time>2014-05-01T08:14:18.000Z</time>
      </trkpt>
      <trkpt lat="47.5303" lon="6.73306">
        <ele>392.7</ele>
        <time>2014-05-01T08:14:19.000Z</time>
      </trkpt>
      <trkpt lat="47.53027" lon="6.73309">
        <ele>395.2</ele>
        <time>2014-05-01T08:14:20.000Z</time>
      </trkpt>
      <trkpt lat="47.53025" lon="6.73313">
        <ele>396.6</ele>
        <time>2014-05-01T08:14:21.000Z</time>
      </trkpt>
      <trkpt lat="47.53022" lon="6.73316">
        <ele>397.8</ele>
        <time>2014-05-01T08:14:22.000Z</time>
      </trkpt>
      <trkpt lat="47.5302" lon="6.7332">
        <ele>399.3</ele>
        <time>2014-05-01T08:14:23.000Z</time>
      </trkpt>
      <trkpt lat="47.53017" lon="6.73323">
        <ele>401.3</ele>
        <time>2014-05-01T08:14:24.000Z</time>
      </trkpt>
      <trkpt lat="47.53014" lon="6.73326">
        <ele>402.6</ele>
        <time>2014-05-01T08:14:25.000Z</time>
      </trkpt>
      <trkpt lat="47.53012" lon="6.73328">
        <ele>402.9</ele>
        <time>2014-05-01T08:14:26.000Z</time>
      </trkpt>
      <trkpt lat="47.53009" lon="6.73331">
        <ele>403.2</ele>
        <time>2014-05-01T08:14:27.000Z</time>
      </trkpt>
      <trkpt lat="47.53007" lon="6.73334">
        <ele>403.8</ele>
        <time>2014-05-01T08:14:28.000Z</time>
      </trkpt>
      <trkpt lat="47.53004" lon="6.73337">
        <ele>404.7</ele>
        <time>2014-05-01T08:14:29.000Z</time>
      </trkpt>
      <trkpt lat="47.53002" lon="6.7334">
        <ele>404.1</ele>
        <time>2014-05-01T08:14:30.000Z</time>
      </trkpt>
      <trkpt lat="47.52999" lon="6.73344">
        <ele>404.2</ele>
        <time>2014-05-01T08:14:31.000Z</time>
      </trkpt>
      <trkpt lat="47.52997" lon="6.73348">
        <ele>404.7</ele>
        <time>2014-05-01T08:14:32.000Z</time>
      </trkpt>
      <trkpt lat="47.52994" lon="6.73352">
        <ele>404</ele>
        <time>2014-05-01T08:14:33.000Z</time>
      </trkpt>
      <trkpt lat="47.52992" lon="6.73357">
        <ele>403.5</ele>
        <time>2014-05-01T08:14:34.000Z</time>
      </trkpt>
      <trkpt lat="47.52989" lon="6.73361">
        <ele>403.7</ele>
        <time>2014-05-01T08:14:35.000Z</time>
      </trkpt>
      <trkpt lat="47.52987" lon="6.73365">
        <ele>404.3</ele>
        <time>2014-05-01T08:14:36.000Z</time>
      </trkpt>
      <trkpt lat="47.52985" lon="6.73369">
        <ele>404.6</ele>
        <time>2014-05-01T08:14:37.000Z</time>
      </trkpt>
      <trkpt lat="47.52982" lon="6.73373">
        <ele>404.2</ele>
        <time>2014-05-01T08:14:38.000Z</time>
      </trkpt>
      <trkpt lat="47.5298" lon="6.73376">
        <ele>402.7</ele>
        <time>2014-05-01T08:14:39.000Z</time>
      </trkpt>
      <trkpt lat="47.52978" lon="6.73379">
        <ele>400.7</ele>
        <time>2014-05-01T08:14:40.000Z</time>
      </trkpt>
      <trkpt lat="47.52976" lon="6.73381">
        <ele>400.8</ele>
        <time>2014-05-01T08:14:41.000Z</time>
      </trkpt>
      <trkpt lat="47.52973" lon="6.73383">
        <ele>400</ele>
        <time>2014-05-01T08:14:42.000Z</time>
      </trkpt>
      <trkpt lat="47.5297" lon="6.73383">
        <ele>399.8</ele>
        <time>2014-05-01T08:14:43.000Z</time>
      </trkpt>
      <trkpt lat="47.52967" lon="6.73381">
        <ele>398.6</ele>
        <time>2014-05-01T08:14:44.000Z</time>
      </trkpt>
      <trkpt lat="47.52965" lon="6.73378">
        <ele>397.8</ele>
        <time>2014-05-01T08:14:45.000Z</time>
      </trkpt>
      <trkpt lat="47.52963" lon="6.73374">
        <ele>397.4</ele>
        <time>2014-05-01T08:14:46.000Z</time>
      </trkpt>
      <trkpt lat="47.52961" lon="6.7337">
        <ele>396.3</ele>
        <time>2014-05-01T08:14:47.000Z</time>
      </trkpt>
      <trkpt lat="47.52959" lon="6.73366">
        <ele>397.1</ele>
        <time>2014-05-01T08:14:48.000Z</time>
      </trkpt>
      <trkpt lat="47.52957" lon="6.73362">
        <ele>397.5</ele>
        <time>2014-05-01T08:14:49.000Z</time>
      </trkpt>
      <trkpt lat="47.52955" lon="6.73358">
        <ele>397.7</ele>
        <time>2014-05-01T08:14:50.000Z</time>
      </trkpt>
      <trkpt lat="47.52954" lon="6.73354">
        <ele>397.5</ele>
        <time>2014-05-01T08:14:51.000Z</time>
      </trkpt>
      <trkpt lat="47.52952" lon="6.73351">
        <ele>397</ele>
        <time>2014-05-01T08:14:52.000Z</time>
      </trkpt>
      <trkpt lat="47.5295" lon="6.73347">
        <ele>396.3</ele>
        <time>2014-05-01T08:14:53.000Z</time>
      </trkpt>
      <trkpt lat="47.52948" lon="6.73342">
        <ele>397</ele>
        <time>2014-05-01T08:14:54.000Z</time>
      </trkpt>
      <trkpt lat="47.52946" lon="6.73338">
        <ele>395.5</ele>
        <time>2014-05-01T08:14:55.000Z</time>
      </trkpt>
      <trkpt lat="47.52944" lon="6.73333">
        <ele>395</ele>
        <time>2014-05-01T08:14:56.000Z</time>
      </trkpt>
      <trkpt lat="47.52942" lon="6.73327">
        <ele>394.3</ele>
        <time>2014-05-01T08:14:57.000Z</time>
      </trkpt>
      <trkpt lat="47.5294" lon="6.73322">
        <ele>393.3</ele>
        <time>2014-05-01T08:14:58.000Z</time>
      </trkpt>
      <trkpt lat="47.52937" lon="6.73317">
        <ele>392.3</ele>
        <time>2014-05-01T08:14:59.000Z</time>
      </trkpt>
      <trkpt lat="47.52935" lon="6.73311">
        <ele>391.4</ele>
        <time>2014-05-01T08:15:00.000Z</time>
      </trkpt>
      <trkpt lat="47.52933" lon="6.73305">
        <ele>391</ele>
        <time>2014-05-01T08:15:01.000Z</time>
      </trkpt>
      <trkpt lat="47.52931" lon="6.733">
        <ele>390.7</ele>
        <time>2014-05-01T08:15:02.000Z</time>
      </trkpt>
      <trkpt lat="47.52929" lon="6.73296">
        <ele>389.2</ele>
        <time>2014-05-01T08:15:03.000Z</time>
      </trkpt>
      <trkpt lat="47.52927" lon="6.73293">
        <ele>388.9</ele>
        <time>2014-05-01T08:15:04.000Z</time>
      </trkpt>
      <trkpt lat="47.52926" lon="6.73291">
        <ele>388.6</ele>
        <time>2014-05-01T08:15:05.000Z</time>
      </trkpt>
      <trkpt lat="47.52901" lon="6.73298">
        <ele>388.3</ele>
        <time>2014-05-01T08:15:13.000Z</time>
      </trkpt>
      <trkpt lat="47.52894" lon="6.73301">
        <ele>386.3</ele>
        <time>2014-05-01T08:15:14.000Z</time>
      </trkpt>
      <trkpt lat="47.52888" lon="6.73301">
        <ele>385.5</ele>
        <time>2014-05-01T08:15:15.000Z</time>
      </trkpt>
      <trkpt lat="47.52882" lon="6.73302">
        <ele>384.7</ele>
        <time>2014-05-01T08:15:16.000Z</time>
      </trkpt>
      <trkpt lat="47.52877" lon="6.73304">
        <ele>383.9</ele>
        <time>2014-05-01T08:15:17.000Z</time>
      </trkpt>
      <trkpt lat="47.52871" lon="6.73306">
        <ele>383.2</ele>
        <time>2014-05-01T08:15:18.000Z</time>
      </trkpt>
      <trkpt lat="47.52866" lon="6.73307">
        <ele>383.1</ele>
        <time>2014-05-01T08:15:19.000Z</time>
      </trkpt>
      <trkpt lat="47.52859" lon="6.73308">
        <ele>382.3</ele>
        <time>2014-05-01T08:15:20.000Z</time>
      </trkpt>
      <trkpt lat="47.52854" lon="6.7331">
        <ele>381.9</ele>
        <time>2014-05-01T08:15:21.000Z</time>
      </trkpt>
      <trkpt lat="47.5285" lon="6.73311">
        <ele>382.1</ele>
        <time>2014-05-01T08:15:22.000Z</time>
      </trkpt>
      <trkpt lat="47.52848" lon="6.73313">
        <ele>382.7</ele>
        <time>2014-05-01T08:15:23.000Z</time>
      </trkpt>
      <trkpt lat="47.52845" lon="6.73313">
        <ele>384.7</ele>
        <time>2014-05-01T08:15:24.000Z</time>
      </trkpt>
      <trkpt lat="47.52843" lon="6.73315">
        <ele>384.9</ele>
        <time>2014-05-01T08:15:25.000Z</time>
      </trkpt>
      <trkpt lat="47.52839" lon="6.73316">
        <ele>385.2</ele>
        <time>2014-05-01T08:15:26.000Z</time>
      </trkpt>
      <trkpt lat="47.52835" lon="6.73318">
        <ele>385.3</ele>
        <time>2014-05-01T08:15:27.000Z</time>
      </trkpt>
      <trkpt lat="47.52831" lon="6.73319">
        <ele>385.5</ele>
        <time>2014-05-01T08:15:28.000Z</time>
      </trkpt>
      <trkpt lat="47.52827" lon="6.73322">
        <ele>384.1</ele>
        <time>2014-05-01T08:15:29.000Z</time>
      </trkpt>
      <trkpt lat="47.52824" lon="6.73323">
        <ele>384.2</ele>
        <time>2014-05-01T08:15:30.000Z</time>
      </trkpt>
      <trkpt lat="47.5282" lon="6.73324">
        <ele>383.1</ele>
        <time>2014-05-01T08:15:31.000Z</time>
      </trkpt>
      <trkpt lat="47.52815" lon="6.73325">
        <ele>383.3</ele>
        <time>2014-05-01T08:15:32.000Z</time>
      </trkpt>
      <trkpt lat="47.5281" lon="6.73327">
        <ele>382.4</ele>
        <time>2014-05-01T08:15:33.000Z</time>
      </trkpt>
      <trkpt lat="47.52806" lon="6.73327">
        <ele>382.6</ele>
        <time>2014-05-01T08:15:34.000Z</time>
      </trkpt>
      <trkpt lat="47.52801" lon="6.7333">
        <ele>382.3</ele>
        <time>2014-05-01T08:15:35.000Z</time>
      </trkpt>
      <trkpt lat="47.52796" lon="6.73332">
        <ele>381.9</ele>
        <time>2014-05-01T08:15:36.000Z</time>
      </trkpt>
      <trkpt lat="47.52791" lon="6.73333">
        <ele>381.1</ele>
        <time>2014-05-01T08:15:37.000Z</time>
      </trkpt>
      <trkpt lat="47.52786" lon="6.73333">
        <ele>384.7</ele>
        <time>2014-05-01T08:15:38.000Z</time>
      </trkpt>
      <trkpt lat="47.52781" lon="6.73333">
        <ele>386.6</ele>
        <time>2014-05-01T08:15:39.000Z</time>
      </trkpt>
      <trkpt lat="47.52774" lon="6.73334">
        <ele>385.5</ele>
        <time>2014-05-01T08:15:40.000Z</time>
      </trkpt>
      <trkpt lat="47.52768" lon="6.73336">
        <ele>384.5</ele>
        <time>2014-05-01T08:15:41.000Z</time>
      </trkpt>
      <trkpt lat="47.52764" lon="6.7334">
        <ele>380.4</ele>
        <time>2014-05-01T08:15:42.000Z</time>
      </trkpt>
      <trkpt lat="47.5276" lon="6.73342">
        <ele>379.8</ele>
        <time>2014-05-01T08:15:43.000Z</time>
      </trkpt>
      <trkpt lat="47.52755" lon="6.73343">
        <ele>378.1</ele>
        <time>2014-05-01T08:15:44.000Z</time>
      </trkpt>
      <trkpt lat="47.52751" lon="6.73346">
        <ele>367.5</ele>
        <time>2014-05-01T08:16:32.000Z</time>
      </trkpt>
      <trkpt lat="47.52751" lon="6.73346">
        <ele>367.2</ele>
        <time>2014-05-01T08:16:33.000Z</time>
      </trkpt>
      <trkpt lat="47.52748" lon="6.7335">
        <ele>366</ele>
        <time>2014-05-01T08:16:46.000Z</time>
      </trkpt>
      <trkpt lat="47.52748" lon="6.73351">
        <ele>365.7</ele>
        <time>2014-05-01T08:16:47.000Z</time>
      </trkpt>
      <trkpt lat="47.52745" lon="6.73355">
        <ele>366.9</ele>
        <time>2014-05-01T08:16:53.000Z</time>
      </trkpt>
      <trkpt lat="47.52745" lon="6.73357">
        <ele>366.9</ele>
        <time>2014-05-01T08:16:54.000Z</time>
      </trkpt>
      <trkpt lat="47.52744" lon="6.73363">
        <ele>367.3</ele>
        <time>2014-05-01T08:16:56.000Z</time>
      </trkpt>
      <trkpt lat="47.52744" lon="6.73366">
        <ele>367.3</ele>
        <time>2014-05-01T08:16:57.000Z</time>
      </trkpt>
      <trkpt lat="47.52744" lon="6.73369">
        <ele>367.9</ele>
        <time>2014-05-01T08:16:58.000Z</time>
      </trkpt>
      <trkpt lat="47.52744" lon="6.73373">
        <ele>368.8</ele>
        <time>2014-05-01T08:16:59.000Z</time>
      </trkpt>
      <trkpt lat="47.52743" lon="6.73377">
        <ele>369.1</ele>
        <time>2014-05-01T08:17:00.000Z</time>
      </trkpt>
      <trkpt lat="47.52743" lon="6.73381">
        <ele>368.4</ele>
        <time>2014-05-01T08:17:01.000Z</time>
      </trkpt>
      <trkpt lat="47.52743" lon="6.73386">
        <ele>368.3</ele>
        <time>2014-05-01T08:17:02.000Z</time>
      </trkpt>
      <trkpt lat="47.52742" lon="6.7339">
        <ele>368.8</ele>
        <time>2014-05-01T08:17:03.000Z</time>
      </trkpt>
      <trkpt lat="47.52742" lon="6.73394">
        <ele>369.3</ele>
        <time>2014-05-01T08:17:04.000Z</time>
      </trkpt>
      <trkpt lat="47.52741" lon="6.73398">
        <ele>369.6</ele>
        <time>2014-05-01T08:17:05.000Z</time>
      </trkpt>
      <trkpt lat="47.52738" lon="6.73436">
        <ele>373.2</ele>
        <time>2014-05-01T08:17:14.000Z</time>
      </trkpt>
      <trkpt lat="47.52738" lon="6.73441">
        <ele>373.3</ele>
        <time>2014-05-01T08:17:15.000Z</time>
      </trkpt>
      <trkpt lat="47.52738" lon="6.73447">
        <ele>373</ele>
        <time>2014-05-01T08:17:16.000Z</time>
      </trkpt>
      <trkpt lat="47.52738" lon="6.73453">
        <ele>373.2</ele>
        <time>2014-05-01T08:17:17.000Z</time>
      </trkpt>
      <trkpt lat="47.52738" lon="6.73458">
        <ele>372.9</ele>
        <time>2014-05-01T08:17:18.000Z</time>
      </trkpt>
      <trkpt lat="47.52738" lon="6.73464">
        <ele>372.2</ele>
        <time>2014-05-01T08:17:19.000Z</time>
      </trkpt>
      <trkpt lat="47.52739" lon="6.7347">
        <ele>372.9</ele>
        <time>2014-05-01T08:17:20.000Z</time>
      </trkpt>
      <trkpt lat="47.52739" lon="6.73475">
        <ele>373.4</ele>
        <time>2014-05-01T08:17:21.000Z</time>
      </trkpt>
      <trkpt lat="47.52739" lon="6.7348">
        <ele>374.8</ele>
        <time>2014-05-01T08:17:22.000Z</time>
      </trkpt>
      <trkpt lat="47.5274" lon="6.73484">
        <ele>375.6</ele>
        <time>2014-05-01T08:17:23.000Z</time>
      </trkpt>
      <trkpt lat="47.52739" lon="6.73488">
        <ele>376</ele>
        <time>2014-05-01T08:17:24.000Z</time>
      </trkpt>
      <trkpt lat="47.52739" lon="6.73492">
        <ele>376.1</ele>
        <time>2014-05-01T08:17:25.000Z</time>
      </trkpt>
      <trkpt lat="47.52739" lon="6.73497">
        <ele>374</ele>
        <time>2014-05-01T08:17:26.000Z</time>
      </trkpt>
      <trkpt lat="47.52739" lon="6.73502">
        <ele>373.2</ele>
        <time>2014-05-01T08:17:27.000Z</time>
      </trkpt>
      <trkpt lat="47.5274" lon="6.73507">
        <ele>372.7</ele>
        <time>2014-05-01T08:17:28.000Z</time>
      </trkpt>
      <trkpt lat="47.52741" lon="6.73512">
        <ele>373.2</ele>
        <time>2014-05-01T08:17:29.000Z</time>
      </trkpt>
      <trkpt lat="47.52742" lon="6.73514">
        <ele>376.5</ele>
        <time>2014-05-01T08:17:30.000Z</time>
      </trkpt>
      <trkpt lat="47.52745" lon="6.73517">
        <ele>380.2</ele>
        <time>2014-05-01T08:17:32.000Z</time>
      </trkpt>
      <trkpt lat="47.52747" lon="6.73519">
        <ele>379.9</ele>
        <time>2014-05-01T08:17:33.000Z</time>
      </trkpt>
      <trkpt lat="47.5275" lon="6.7352">
        <ele>378.5</ele>
        <time>2014-05-01T08:17:34.000Z</time>
      </trkpt>
      <trkpt lat="47.52754" lon="6.73522">
        <ele>377.3</ele>
        <time>2014-05-01T08:17:35.000Z</time>
      </trkpt>
      <trkpt lat="47.52758" lon="6.73523">
        <ele>376.6</ele>
        <time>2014-05-01T08:17:36.000Z</time>
      </trkpt>
      <trkpt lat="47.52762" lon="6.73525">
        <ele>376.1</ele>
        <time>2014-05-01T08:17:37.000Z</time>
      </trkpt>
      <trkpt lat="47.52766" lon="6.73526">
        <ele>375.7</ele>
        <time>2014-05-01T08:17:38.000Z</time>
      </trkpt>
      <trkpt lat="47.52771" lon="6.73527">
        <ele>375.9</ele>
        <time>2014-05-01T08:17:39.000Z</time>
      </trkpt>
      <trkpt lat="47.52779" lon="6.73533">
        <ele>374.5</ele>
        <time>2014-05-01T08:17:40.000Z</time>
      </trkpt>
      <trkpt lat="47.52783" lon="6.73536">
        <ele>373.4</ele>
        <time>2014-05-01T08:17:41.000Z</time>
      </trkpt>
      <trkpt lat="47.52788" lon="6.73543">
        <ele>371.2</ele>
        <time>2014-05-01T08:17:42.000Z</time>
      </trkpt>
      <trkpt lat="47.52792" lon="6.73546">
        <ele>369.7</ele>
        <time>2014-05-01T08:17:43.000Z</time>
      </trkpt>
      <trkpt lat="47.52795" lon="6.73554">
        <ele>367.5</ele>
        <time>2014-05-01T08:17:44.000Z</time>
      </trkpt>
      <trkpt lat="47.52797" lon="6.73561">
        <ele>366.5</ele>
        <time>2014-05-01T08:17:45.000Z</time>
      </trkpt>
      <trkpt lat="47.52798" lon="6.73567">
        <ele>366.3</ele>
        <time>2014-05-01T08:17:46.000Z</time>
      </trkpt>
      <trkpt lat="47.528" lon="6.73575">
        <ele>363.6</ele>
        <time>2014-05-01T08:17:47.000Z</time>
      </trkpt>
      <trkpt lat="47.52799" lon="6.73584">
        <ele>362.8</ele>
        <time>2014-05-01T08:17:48.000Z</time>
      </trkpt>
      <trkpt lat="47.52799" lon="6.73591">
        <ele>361.9</ele>
        <time>2014-05-01T08:17:49.000Z</time>
      </trkpt>
      <trkpt lat="47.52796" lon="6.736">
        <ele>361.4</ele>
        <time>2014-05-01T08:17:50.000Z</time>
      </trkpt>
      <trkpt lat="47.52793" lon="6.73606">
        <ele>362.8</ele>
        <time>2014-05-01T08:17:51.000Z</time>
      </trkpt>
      <trkpt lat="47.52791" lon="6.73613">
        <ele>362.2</ele>
        <time>2014-05-01T08:17:52.000Z</time>
      </trkpt>
      <trkpt lat="47.52788" lon="6.73617">
        <ele>362.3</ele>
        <time>2014-05-01T08:17:53.000Z</time>
      </trkpt>
      <trkpt lat="47.52787" lon="6.73622">
        <ele>363.2</ele>
        <time>2014-05-01T08:17:54.000Z</time>
      </trkpt>
      <trkpt lat="47.52785" lon="6.73624">
        <ele>361.7</ele>
        <time>2014-05-01T08:17:55.000Z</time>
      </trkpt>
      <trkpt lat="47.52783" lon="6.73627">
        <ele>360.4</ele>
        <time>2014-05-01T08:17:56.000Z</time>
      </trkpt>
      <trkpt lat="47.52781" lon="6.7363">
        <ele>359.4</ele>
        <time>2014-05-01T08:17:57.000Z</time>
      </trkpt>
      <trkpt lat="47.5278" lon="6.73632">
        <ele>359.8</ele>
        <time>2014-05-01T08:17:58.000Z</time>
      </trkpt>
      <trkpt lat="47.52776" lon="6.73635">
        <ele>361.7</ele>
        <time>2014-05-01T08:18:00.000Z</time>
      </trkpt>
      <trkpt lat="47.52774" lon="6.73638">
        <ele>360.8</ele>
        <time>2014-05-01T08:18:01.000Z</time>
      </trkpt>
      <trkpt lat="47.5277" lon="6.7364">
        <ele>363.8</ele>
        <time>2014-05-01T08:18:03.000Z</time>
      </trkpt>
      <trkpt lat="47.52768" lon="6.73642">
        <ele>365.1</ele>
        <time>2014-05-01T08:18:04.000Z</time>
      </trkpt>
      <trkpt lat="47.52766" lon="6.73642">
        <ele>366.1</ele>
        <time>2014-05-01T08:18:05.000Z</time>
      </trkpt>
      <trkpt lat="47.52761" lon="6.73644">
        <ele>366.9</ele>
        <time>2014-05-01T08:18:08.000Z</time>
      </trkpt>
      <trkpt lat="47.52758" lon="6.73646">
        <ele>371</ele>
        <time>2014-05-01T08:18:10.000Z</time>
      </trkpt>
      <trkpt lat="47.52756" lon="6.73647">
        <ele>372</ele>
        <time>2014-05-01T08:18:11.000Z</time>
      </trkpt>
      <trkpt lat="47.52754" lon="6.73649">
        <ele>373.1</ele>
        <time>2014-05-01T08:18:13.000Z</time>
      </trkpt>
      <trkpt lat="47.52752" lon="6.7365">
        <ele>372.6</ele>
        <time>2014-05-01T08:18:14.000Z</time>
      </trkpt>
      <trkpt lat="47.5275" lon="6.73656">
        <ele>371</ele>
        <time>2014-05-01T08:18:16.000Z</time>
      </trkpt>
      <trkpt lat="47.52749" lon="6.73659">
        <ele>372.3</ele>
        <time>2014-05-01T08:18:17.000Z</time>
      </trkpt>
      <trkpt lat="47.52748" lon="6.73661">
        <ele>372.1</ele>
        <time>2014-05-01T08:18:18.000Z</time>
      </trkpt>
      <trkpt lat="47.52746" lon="6.73663">
        <ele>373.7</ele>
        <time>2014-05-01T08:18:19.000Z</time>
      </trkpt>
      <trkpt lat="47.52743" lon="6.73667">
        <ele>375.5</ele>
        <time>2014-05-01T08:18:21.000Z</time>
      </trkpt>
      <trkpt lat="47.52741" lon="6.73669">
        <ele>375.6</ele>
        <time>2014-05-01T08:18:22.000Z</time>
      </trkpt>
      <trkpt lat="47.5274" lon="6.73671">
        <ele>373.3</ele>
        <time>2014-05-01T08:18:23.000Z</time>
      </trkpt>
      <trkpt lat="47.52739" lon="6.73674">
        <ele>372.8</ele>
        <time>2014-05-01T08:18:24.000Z</time>
      </trkpt>
      <trkpt lat="47.52737" lon="6.7368">
        <ele>372.8</ele>
        <time>2014-05-01T08:18:26.000Z</time>
      </trkpt>
      <trkpt lat="47.52736" lon="6.73683">
        <ele>372.4</ele>
        <time>2014-05-01T08:18:27.000Z</time>
      </trkpt>
      <trkpt lat="47.52735" lon="6.73689">
        <ele>372.1</ele>
        <time>2014-05-01T08:18:29.000Z</time>
      </trkpt>
      <trkpt lat="47.52735" lon="6.73691">
        <ele>373</ele>
        <time>2014-05-01T08:18:30.000Z</time>
      </trkpt>
      <trkpt lat="47.52733" lon="6.73696">
        <ele>371.7</ele>
        <time>2014-05-01T08:18:33.000Z</time>
      </trkpt>
      <trkpt lat="47.52732" lon="6.73698">
        <ele>371.8</ele>
        <time>2014-05-01T08:18:34.000Z</time>
      </trkpt>
      <trkpt lat="47.5273" lon="6.73704">
        <ele>372.7</ele>
        <time>2014-05-01T08:18:37.000Z</time>
      </trkpt>
      <trkpt lat="47.5273" lon="6.73705">
        <ele>372.7</ele>
        <time>2014-05-01T08:18:38.000Z</time>
      </trkpt>
      <trkpt lat="47.52728" lon="6.7371">
        <ele>375.6</ele>
        <time>2014-05-01T08:18:41.000Z</time>
      </trkpt>
      <trkpt lat="47.52727" lon="6.73712">
        <ele>375.6</ele>
        <time>2014-05-01T08:18:42.000Z</time>
      </trkpt>
      <trkpt lat="47.52726" lon="6.73717">
        <ele>375.2</ele>
        <time>2014-05-01T08:18:44.000Z</time>
      </trkpt>
      <trkpt lat="47.52725" lon="6.7372">
        <ele>377.6</ele>
        <time>2014-05-01T08:18:45.000Z</time>
      </trkpt>
      <trkpt lat="47.52725" lon="6.73726">
        <ele>378.3</ele>
        <time>2014-05-01T08:18:47.000Z</time>
      </trkpt>
      <trkpt lat="47.52725" lon="6.73729">
        <ele>377.8</ele>
        <time>2014-05-01T08:18:48.000Z</time>
      </trkpt>
      <trkpt lat="47.52724" lon="6.73735">
        <ele>378.9</ele>
        <time>2014-05-01T08:18:50.000Z</time>
      </trkpt>
      <trkpt lat="47.52724" lon="6.73737">
        <ele>379.8</ele>
        <time>2014-05-01T08:18:51.000Z</time>
      </trkpt>
      <trkpt lat="47.52724" lon="6.73742">
        <ele>380.2</ele>
        <time>2014-05-01T08:18:53.000Z</time>
      </trkpt>
      <trkpt lat="47.52724" lon="6.73745">
        <ele>380.4</ele>
        <time>2014-05-01T08:18:54.000Z</time>
      </trkpt>
      <trkpt lat="47.52724" lon="6.7375">
        <ele>381.2</ele>
        <time>2014-05-01T08:18:56.000Z</time>
      </trkpt>
      <trkpt lat="47.52724" lon="6.73753">
        <ele>380.8</ele>
        <time>2014-05-01T08:18:57.000Z</time>
      </trkpt>
      <trkpt lat="47.52724" lon="6.73759">
        <ele>380.3</ele>
        <time>2014-05-01T08:18:59.000Z</time>
      </trkpt>
      <trkpt lat="47.52724" lon="6.73762">
        <ele>380.1</ele>
        <time>2014-05-01T08:19:00.000Z</time>
      </trkpt>
      <trkpt lat="47.52724" lon="6.73768">
        <ele>380.1</ele>
        <time>2014-05-01T08:19:02.000Z</time>
      </trkpt>
      <trkpt lat="47.52724" lon="6.7377">
        <ele>379.8</ele>
        <time>2014-05-01T08:19:03.000Z</time>
      </trkpt>
      <trkpt lat="47.52723" lon="6.73776">
        <ele>380.6</ele>
        <time>2014-05-01T08:19:05.000Z</time>
      </trkpt>
      <trkpt lat="47.52721" lon="6.73795">
        <ele>383.4</ele>
        <time>2014-05-01T08:19:13.000Z</time>
      </trkpt>
      <trkpt lat="47.52721" lon="6.738">
        <ele>382.9</ele>
        <time>2014-05-01T08:19:15.000Z</time>
      </trkpt>
      <trkpt lat="47.5272" lon="6.73803">
        <ele>381.9</ele>
        <time>2014-05-01T08:19:16.000Z</time>
      </trkpt>
      <trkpt lat="47.5272" lon="6.73809">
        <ele>381.6</ele>
        <time>2014-05-01T08:19:18.000Z</time>
      </trkpt>
      <trkpt lat="47.52719" lon="6.73812">
        <ele>382.1</ele>
        <time>2014-05-01T08:19:19.000Z</time>
      </trkpt>
      <trkpt lat="47.52719" lon="6.73816">
        <ele>381.4</ele>
        <time>2014-05-01T08:19:20.000Z</time>
      </trkpt>
      <trkpt lat="47.52718" lon="6.73819">
        <ele>381.4</ele>
        <time>2014-05-01T08:19:21.000Z</time>
      </trkpt>
      <trkpt lat="47.52717" lon="6.73825">
        <ele>382.4</ele>
        <time>2014-05-01T08:19:23.000Z</time>
      </trkpt>
      <trkpt lat="47.52716" lon="6.73828">
        <ele>382.5</ele>
        <time>2014-05-01T08:19:24.000Z</time>
      </trkpt>
      <trkpt lat="47.52715" lon="6.73832">
        <ele>384.3</ele>
        <time>2014-05-01T08:19:26.000Z</time>
      </trkpt>
      <trkpt lat="47.52715" lon="6.73834">
        <ele>385.3</ele>
        <time>2014-05-01T08:19:27.000Z</time>
      </trkpt>
      <trkpt lat="47.52713" lon="6.73839">
        <ele>385.3</ele>
        <time>2014-05-01T08:19:29.000Z</time>
      </trkpt>
      <trkpt lat="47.52713" lon="6.73841">
        <ele>385.7</ele>
        <time>2014-05-01T08:19:30.000Z</time>
      </trkpt>
      <trkpt lat="47.52712" lon="6.73846">
        <ele>385.6</ele>
        <time>2014-05-01T08:19:32.000Z</time>
      </trkpt>
      <trkpt lat="47.52711" lon="6.73849">
        <ele>386.3</ele>
        <time>2014-05-01T08:19:33.000Z</time>
      </trkpt>
      <trkpt lat="47.5271" lon="6.73854">
        <ele>387.8</ele>
        <time>2014-05-01T08:19:35.000Z</time>
      </trkpt>
      <trkpt lat="47.52709" lon="6.73857">
        <ele>387.6</ele>
        <time>2014-05-01T08:19:36.000Z</time>
      </trkpt>
      <trkpt lat="47.52708" lon="6.73862">
        <ele>386.9</ele>
        <time>2014-05-01T08:19:38.000Z</time>
      </trkpt>
      <trkpt lat="47.52707" lon="6.73866">
        <ele>386.8</ele>
        <time>2014-05-01T08:19:39.000Z</time>
      </trkpt>
      <trkpt lat="47.52706" lon="6.73869">
        <ele>387.2</ele>
        <time>2014-05-01T08:19:40.000Z</time>
      </trkpt>
      <trkpt lat="47.52705" lon="6.73872">
        <ele>387</ele>
        <time>2014-05-01T08:19:41.000Z</time>
      </trkpt>
      <trkpt lat="47.52704" lon="6.73877">
        <ele>387.9</ele>
        <time>2014-05-01T08:19:43.000Z</time>
      </trkpt>
      <trkpt lat="47.52703" lon="6.7388">
        <ele>389.1</ele>
        <time>2014-05-01T08:19:44.000Z</time>
      </trkpt>
      <trkpt lat="47.52702" lon="6.73885">
        <ele>389.7</ele>
        <time>2014-05-01T08:19:46.000Z</time>
      </trkpt>
      <trkpt lat="47.52701" lon="6.73887">
        <ele>390.7</ele>
        <time>2014-05-01T08:19:47.000Z</time>
      </trkpt>
      <trkpt lat="47.52699" lon="6.73893">
        <ele>391.3</ele>
        <time>2014-05-01T08:19:49.000Z</time>
      </trkpt>
      <trkpt lat="47.52699" lon="6.73896">
        <ele>391.1</ele>
        <time>2014-05-01T08:19:50.000Z</time>
      </trkpt>
      <trkpt lat="47.52697" lon="6.73901">
        <ele>390.5</ele>
        <time>2014-05-01T08:19:52.000Z</time>
      </trkpt>
      <trkpt lat="47.52696" lon="6.73904">
        <ele>389.4</ele>
        <time>2014-05-01T08:19:53.000Z</time>
      </trkpt>
      <trkpt lat="47.52694" lon="6.73909">
        <ele>390.6</ele>
        <time>2014-05-01T08:19:55.000Z</time>
      </trkpt>
      <trkpt lat="47.52693" lon="6.73912">
        <ele>390.9</ele>
        <time>2014-05-01T08:19:56.000Z</time>
      </trkpt>
      <trkpt lat="47.52692" lon="6.73917">
        <ele>390.8</ele>
        <time>2014-05-01T08:19:58.000Z</time>
      </trkpt>
      <trkpt lat="47.52691" lon="6.7392">
        <ele>390.6</ele>
        <time>2014-05-01T08:19:59.000Z</time>
      </trkpt>
      <trkpt lat="47.5269" lon="6.73926">
        <ele>386.3</ele>
        <time>2014-05-01T08:20:01.000Z</time>
      </trkpt>
      <trkpt lat="47.5269" lon="6.7393">
        <ele>385.7</ele>
        <time>2014-05-01T08:20:02.000Z</time>
      </trkpt>
      <trkpt lat="47.52689" lon="6.73933">
        <ele>385.6</ele>
        <time>2014-05-01T08:20:03.000Z</time>
      </trkpt>
      <trkpt lat="47.52688" lon="6.73936">
        <ele>385</ele>
        <time>2014-05-01T08:20:04.000Z</time>
      </trkpt>
      <trkpt lat="47.52688" lon="6.7394">
        <ele>384.9</ele>
        <time>2014-05-01T08:20:05.000Z</time>
      </trkpt>
      <trkpt lat="47.52683" lon="6.73964">
        <ele>387.1</ele>
        <time>2014-05-01T08:20:13.000Z</time>
      </trkpt>
      <trkpt lat="47.52682" lon="6.7397">
        <ele>388.7</ele>
        <time>2014-05-01T08:20:15.000Z</time>
      </trkpt>
      <trkpt lat="47.52682" lon="6.73974">
        <ele>388.2</ele>
        <time>2014-05-01T08:20:16.000Z</time>
      </trkpt>
      <trkpt lat="47.52681" lon="6.73977">
        <ele>388.9</ele>
        <time>2014-05-01T08:20:17.000Z</time>
      </trkpt>
      <trkpt lat="47.52681" lon="6.73981">
        <ele>389.1</ele>
        <time>2014-05-01T08:20:18.000Z</time>
      </trkpt>
      <trkpt lat="47.5268" lon="6.73984">
        <ele>390.7</ele>
        <time>2014-05-01T08:20:19.000Z</time>
      </trkpt>
      <trkpt lat="47.52679" lon="6.73987">
        <ele>391.8</ele>
        <time>2014-05-01T08:20:20.000Z</time>
      </trkpt>
      <trkpt lat="47.52679" lon="6.7399">
        <ele>391.7</ele>
        <time>2014-05-01T08:20:21.000Z</time>
      </trkpt>
      <trkpt lat="47.52678" lon="6.73994">
        <ele>391.9</ele>
        <time>2014-05-01T08:20:22.000Z</time>
      </trkpt>
      <trkpt lat="47.52678" lon="6.73997">
        <ele>392</ele>
        <time>2014-05-01T08:20:23.000Z</time>
      </trkpt>
      <trkpt lat="47.52678" lon="6.74001">
        <ele>392.8</ele>
        <time>2014-05-01T08:20:24.000Z</time>
      </trkpt>
      <trkpt lat="47.52677" lon="6.74005">
        <ele>392.9</ele>
        <time>2014-05-01T08:20:25.000Z</time>
      </trkpt>
      <trkpt lat="47.52677" lon="6.74008">
        <ele>392.8</ele>
        <time>2014-05-01T08:20:26.000Z</time>
      </trkpt>
      <trkpt lat="47.52677" lon="6.74012">
        <ele>393.3</ele>
        <time>2014-05-01T08:20:27.000Z</time>
      </trkpt>
      <trkpt lat="47.52676" lon="6.74015">
        <ele>394.2</ele>
        <time>2014-05-01T08:20:28.000Z</time>
      </trkpt>
      <trkpt lat="47.52675" lon="6.74019">
        <ele>393.2</ele>
        <time>2014-05-01T08:20:29.000Z</time>
      </trkpt>
      <trkpt lat="47.52673" lon="6.74022">
        <ele>392.6</ele>
        <time>2014-05-01T08:20:30.000Z</time>
      </trkpt>
      <trkpt lat="47.52671" lon="6.74026">
        <ele>391.7</ele>
        <time>2014-05-01T08:20:31.000Z</time>
      </trkpt>
      <trkpt lat="47.52669" lon="6.74031">
        <ele>392.3</ele>
        <time>2014-05-01T08:20:32.000Z</time>
      </trkpt>
      <trkpt lat="47.52666" lon="6.74035">
        <ele>392.9</ele>
        <time>2014-05-01T08:20:33.000Z</time>
      </trkpt>
      <trkpt lat="47.52664" lon="6.7404">
        <ele>391.1</ele>
        <time>2014-05-01T08:20:34.000Z</time>
      </trkpt>
      <trkpt lat="47.52661" lon="6.74045">
        <ele>391.5</ele>
        <time>2014-05-01T08:20:35.000Z</time>
      </trkpt>
      <trkpt lat="47.52658" lon="6.7405">
        <ele>392.1</ele>
        <time>2014-05-01T08:20:36.000Z</time>
      </trkpt>
      <trkpt lat="47.52655" lon="6.74054">
        <ele>393.4</ele>
        <time>2014-05-01T08:20:37.000Z</time>
      </trkpt>
      <trkpt lat="47.52652" lon="6.74057">
        <ele>393.6</ele>
        <time>2014-05-01T08:20:38.000Z</time>
      </trkpt>
      <trkpt lat="47.52649" lon="6.74064">
        <ele>393.2</ele>
        <time>2014-05-01T08:20:39.000Z</time>
      </trkpt>
      <trkpt lat="47.52645" lon="6.74069">
        <ele>392.7</ele>
        <time>2014-05-01T08:20:40.000Z</time>
      </trkpt>
      <trkpt lat="47.52643" lon="6.74073">
        <ele>392.8</ele>
        <time>2014-05-01T08:20:41.000Z</time>
      </trkpt>
      <trkpt lat="47.5264" lon="6.74078">
        <ele>392.6</ele>
        <time>2014-05-01T08:20:42.000Z</time>
      </trkpt>
      <trkpt lat="47.52637" lon="6.74082">
        <ele>392.7</ele>
        <time>2014-05-01T08:20:43.000Z</time>
      </trkpt>
      <trkpt lat="47.52633" lon="6.74087">
        <ele>392.1</ele>
        <time>2014-05-01T08:20:44.000Z</time>
      </trkpt>
      <trkpt lat="47.5263" lon="6.74092">
        <ele>390.5</ele>
        <time>2014-05-01T08:20:45.000Z</time>
      </trkpt>
      <trkpt lat="47.52627" lon="6.74096">
        <ele>390.9</ele>
        <time>2014-05-01T08:20:46.000Z</time>
      </trkpt>
      <trkpt lat="47.52624" lon="6.74101">
        <ele>391.5</ele>
        <time>2014-05-01T08:20:47.000Z</time>
      </trkpt>
      <trkpt lat="47.52621" lon="6.74105">
        <ele>391.6</ele>
        <time>2014-05-01T08:20:48.000Z</time>
      </trkpt>
      <trkpt lat="47.52618" lon="6.74109">
        <ele>391.9</ele>
        <time>2014-05-01T08:20:49.000Z</time>
      </trkpt>
      <trkpt lat="47.52615" lon="6.74113">
        <ele>392.4</ele>
        <time>2014-05-01T08:20:50.000Z</time>
      </trkpt>
      <trkpt lat="47.52612" lon="6.74117">
        <ele>393</ele>
        <time>2014-05-01T08:20:51.000Z</time>
      </trkpt>
      <trkpt lat="47.52609" lon="6.74122">
        <ele>392.2</ele>
        <time>2014-05-01T08:20:52.000Z</time>
      </trkpt>
      <trkpt lat="47.52606" lon="6.74128">
        <ele>391.8</ele>
        <time>2014-05-01T08:20:53.000Z</time>
      </trkpt>
      <trkpt lat="47.52603" lon="6.74133">
        <ele>390.4</ele>
        <time>2014-05-01T08:20:54.000Z</time>
      </trkpt>
      <trkpt lat="47.526" lon="6.74139">
        <ele>389.8</ele>
        <time>2014-05-01T08:20:55.000Z</time>
      </trkpt>
      <trkpt lat="47.52596" lon="6.74144">
        <ele>388.7</ele>
        <time>2014-05-01T08:20:56.000Z</time>
      </trkpt>
      <trkpt lat="47.52593" lon="6.74149">
        <ele>388.4</ele>
        <time>2014-05-01T08:20:57.000Z</time>
      </trkpt>
      <trkpt lat="47.5259" lon="6.74154">
        <ele>387.9</ele>
        <time>2014-05-01T08:20:58.000Z</time>
      </trkpt>
      <trkpt lat="47.52587" lon="6.74159">
        <ele>387.4</ele>
        <time>2014-05-01T08:20:59.000Z</time>
      </trkpt>
      <trkpt lat="47.52584" lon="6.74165">
        <ele>387.6</ele>
        <time>2014-05-01T08:21:00.000Z</time>
      </trkpt>
      <trkpt lat="47.52581" lon="6.74171">
        <ele>387.2</ele>
        <time>2014-05-01T08:21:01.000Z</time>
      </trkpt>
      <trkpt lat="47.52578" lon="6.74176">
        <ele>387.8</ele>
        <time>2014-05-01T08:21:02.000Z</time>
      </trkpt>
      <trkpt lat="47.52574" lon="6.74179">
        <ele>389.1</ele>
        <time>2014-05-01T08:21:03.000Z</time>
      </trkpt>
      <trkpt lat="47.52571" lon="6.74184">
        <ele>389.1</ele>
        <time>2014-05-01T08:21:04.000Z</time>
      </trkpt>
      <trkpt lat="47.52568" lon="6.7419">
        <ele>388.3</ele>
        <time>2014-05-01T08:21:05.000Z</time>
      </trkpt>
      <trkpt lat="47.52545" lon="6.74226">
        <ele>384.6</ele>
        <time>2014-05-01T08:21:13.000Z</time>
      </trkpt>
      <trkpt lat="47.52542" lon="6.74231">
        <ele>383.9</ele>
        <time>2014-05-01T08:21:14.000Z</time>
      </trkpt>
      <trkpt lat="47.5254" lon="6.74237">
        <ele>384.4</ele>
        <time>2014-05-01T08:21:15.000Z</time>
      </trkpt>
      <trkpt lat="47.52537" lon="6.74241">
        <ele>384.3</ele>
        <time>2014-05-01T08:21:16.000Z</time>
      </trkpt>
      <trkpt lat="47.52534" lon="6.74246">
        <ele>384.1</ele>
        <time>2014-05-01T08:21:17.000Z</time>
      </trkpt>
      <trkpt lat="47.52531" lon="6.7425">
        <ele>383.7</ele>
        <time>2014-05-01T08:21:18.000Z</time>
      </trkpt>
      <trkpt lat="47.52528" lon="6.74254">
        <ele>382.5</ele>
        <time>2014-05-01T08:21:19.000Z</time>
      </trkpt>
      <trkpt lat="47.52525" lon="6.74259">
        <ele>381.9</ele>
        <time>2014-05-01T08:21:20.000Z</time>
      </trkpt>
      <trkpt lat="47.52522" lon="6.74264">
        <ele>381.8</ele>
        <time>2014-05-01T08:21:21.000Z</time>
      </trkpt>
      <trkpt lat="47.52519" lon="6.74268">
        <ele>380.9</ele>
        <time>2014-05-01T08:21:22.000Z</time>
      </trkpt>
      <trkpt lat="47.52515" lon="6.74274">
        <ele>380.9</ele>
        <time>2014-05-01T08:21:23.000Z</time>
      </trkpt>
      <trkpt lat="47.52512" lon="6.74279">
        <ele>381</ele>
        <time>2014-05-01T08:21:24.000Z</time>
      </trkpt>
      <trkpt lat="47.52508" lon="6.74284">
        <ele>381.1</ele>
        <time>2014-05-01T08:21:25.000Z</time>
      </trkpt>
      <trkpt lat="47.52505" lon="6.74288">
        <ele>381.4</ele>
        <time>2014-05-01T08:21:26.000Z</time>
      </trkpt>
      <trkpt lat="47.52502" lon="6.74293">
        <ele>381.4</ele>
        <time>2014-05-01T08:21:27.000Z</time>
      </trkpt>
      <trkpt lat="47.52498" lon="6.74298">
        <ele>381.2</ele>
        <time>2014-05-01T08:21:28.000Z</time>
      </trkpt>
      <trkpt lat="47.52495" lon="6.74304">
        <ele>381.2</ele>
        <time>2014-05-01T08:21:29.000Z</time>
      </trkpt>
      <trkpt lat="47.52491" lon="6.7431">
        <ele>381.1</ele>
        <time>2014-05-01T08:21:30.000Z</time>
      </trkpt>
      <trkpt lat="47.52487" lon="6.74314">
        <ele>381.5</ele>
        <time>2014-05-01T08:21:31.000Z</time>
      </trkpt>
      <trkpt lat="47.52483" lon="6.74319">
        <ele>382</ele>
        <time>2014-05-01T08:21:32.000Z</time>
      </trkpt>
      <trkpt lat="47.5248" lon="6.74324">
        <ele>382.2</ele>
        <time>2014-05-01T08:21:33.000Z</time>
      </trkpt>
      <trkpt lat="47.52476" lon="6.74329">
        <ele>381.6</ele>
        <time>2014-05-01T08:21:34.000Z</time>
      </trkpt>
      <trkpt lat="47.52473" lon="6.74334">
        <ele>382.4</ele>
        <time>2014-05-01T08:21:35.000Z</time>
      </trkpt>
      <trkpt lat="47.52469" lon="6.74339">
        <ele>382.4</ele>
        <time>2014-05-01T08:21:36.000Z</time>
      </trkpt>
      <trkpt lat="47.52466" lon="6.74342">
        <ele>383</ele>
        <time>2014-05-01T08:21:37.000Z</time>
      </trkpt>
      <trkpt lat="47.52464" lon="6.74346">
        <ele>382.6</ele>
        <time>2014-05-01T08:21:38.000Z</time>
      </trkpt>
      <trkpt lat="47.52462" lon="6.74349">
        <ele>382</ele>
        <time>2014-05-01T08:21:39.000Z</time>
      </trkpt>
      <trkpt lat="47.52461" lon="6.74353">
        <ele>380.7</ele>
        <time>2014-05-01T08:21:40.000Z</time>
      </trkpt>
      <trkpt lat="47.52458" lon="6.74356">
        <ele>379.8</ele>
        <time>2014-05-01T08:21:42.000Z</time>
      </trkpt>
      <trkpt lat="47.52457" lon="6.74358">
        <ele>379.9</ele>
        <time>2014-05-01T08:21:43.000Z</time>
      </trkpt>
      <trkpt lat="47.52458" lon="6.74363">
        <ele>380.5</ele>
        <time>2014-05-01T08:21:45.000Z</time>
      </trkpt>
      <trkpt lat="47.52459" lon="6.74364">
        <ele>380.4</ele>
        <time>2014-05-01T08:21:46.000Z</time>
      </trkpt>
      <trkpt lat="47.52461" lon="6.74365">
        <ele>380.1</ele>
        <time>2014-05-01T08:21:47.000Z</time>
      </trkpt>
      <trkpt lat="47.52464" lon="6.74365">
        <ele>379.7</ele>
        <time>2014-05-01T08:21:48.000Z</time>
      </trkpt>
      <trkpt lat="47.52467" lon="6.74365">
        <ele>380.4</ele>
        <time>2014-05-01T08:21:49.000Z</time>
      </trkpt>
      <trkpt lat="47.5247" lon="6.74365">
        <ele>380.1</ele>
        <time>2014-05-01T08:21:50.000Z</time>
      </trkpt>
      <trkpt lat="47.52472" lon="6.74365">
        <ele>380.5</ele>
        <time>2014-05-01T08:21:51.000Z</time>
      </trkpt>
      <trkpt lat="47.52475" lon="6.74365">
        <ele>380.3</ele>
        <time>2014-05-01T08:21:52.000Z</time>
      </trkpt>
      <trkpt lat="47.52478" lon="6.74365">
        <ele>380.6</ele>
        <time>2014-05-01T08:21:53.000Z</time>
      </trkpt>
      <trkpt lat="47.52481" lon="6.74365">
        <ele>381</ele>
        <time>2014-05-01T08:21:54.000Z</time>
      </trkpt>
      <trkpt lat="47.52484" lon="6.74365">
        <ele>380.7</ele>
        <time>2014-05-01T08:21:55.000Z</time>
      </trkpt>
      <trkpt lat="47.52486" lon="6.74365">
        <ele>381</ele>
        <time>2014-05-01T08:21:56.000Z</time>
      </trkpt>
      <trkpt lat="47.52489" lon="6.74365">
        <ele>380.5</ele>
        <time>2014-05-01T08:21:57.000Z</time>
      </trkpt>
      <trkpt lat="47.52492" lon="6.74365">
        <ele>380.9</ele>
        <time>2014-05-01T08:21:58.000Z</time>
      </trkpt>
      <trkpt lat="47.52496" lon="6.74366">
        <ele>381</ele>
        <time>2014-05-01T08:21:59.000Z</time>
      </trkpt>
      <trkpt lat="47.52499" lon="6.74366">
        <ele>380.6</ele>
        <time>2014-05-01T08:22:00.000Z</time>
      </trkpt>
      <trkpt lat="47.52502" lon="6.74367">
        <ele>380.5</ele>
        <time>2014-05-01T08:22:01.000Z</time>
      </trkpt>
      <trkpt lat="47.52505" lon="6.74367">
        <ele>379.8</ele>
        <time>2014-05-01T08:22:02.000Z</time>
      </trkpt>
      <trkpt lat="47.52508" lon="6.74367">
        <ele>378.9</ele>
        <time>2014-05-01T08:22:03.000Z</time>
      </trkpt>
      <trkpt lat="47.52511" lon="6.74367">
        <ele>378.6</ele>
        <time>2014-05-01T08:22:04.000Z</time>
      </trkpt>
      <trkpt lat="47.52515" lon="6.74367">
        <ele>378.1</ele>
        <time>2014-05-01T08:22:05.000Z</time>
      </trkpt>
      <trkpt lat="47.52541" lon="6.74369">
        <ele>376.8</ele>
        <time>2014-05-01T08:22:13.000Z</time>
      </trkpt>
      <trkpt lat="47.52544" lon="6.74369">
        <ele>376.9</ele>
        <time>2014-05-01T08:22:14.000Z</time>
      </trkpt>
      <trkpt lat="47.52547" lon="6.7437">
        <ele>377.2</ele>
        <time>2014-05-01T08:22:15.000Z</time>
      </trkpt>
      <trkpt lat="47.52551" lon="6.7437">
        <ele>376.8</ele>
        <time>2014-05-01T08:22:16.000Z</time>
      </trkpt>
      <trkpt lat="47.52554" lon="6.74371">
        <ele>377.6</ele>
        <time>2014-05-01T08:22:17.000Z</time>
      </trkpt>
      <trkpt lat="47.52558" lon="6.74371">
        <ele>377.1</ele>
        <time>2014-05-01T08:22:18.000Z</time>
      </trkpt>
      <trkpt lat="47.52561" lon="6.74372">
        <ele>377</ele>
        <time>2014-05-01T08:22:19.000Z</time>
      </trkpt>
      <trkpt lat="47.52565" lon="6.74373">
        <ele>377.3</ele>
        <time>2014-05-01T08:22:20.000Z</time>
      </trkpt>
      <trkpt lat="47.52569" lon="6.74374">
        <ele>377.2</ele>
        <time>2014-05-01T08:22:21.000Z</time>
      </trkpt>
      <trkpt lat="47.52573" lon="6.74376">
        <ele>377</ele>
        <time>2014-05-01T08:22:22.000Z</time>
      </trkpt>
      <trkpt lat="47.52577" lon="6.74378">
        <ele>376.7</ele>
        <time>2014-05-01T08:22:23.000Z</time>
      </trkpt>
      <trkpt lat="47.52582" lon="6.74381">
        <ele>376.5</ele>
        <time>2014-05-01T08:22:24.000Z</time>
      </trkpt>
      <trkpt lat="47.52588" lon="6.74386">
        <ele>376</ele>
        <time>2014-05-01T08:22:25.000Z</time>
      </trkpt>
      <trkpt lat="47.52592" lon="6.74396">
        <ele>376.4</ele>
        <time>2014-05-01T08:22:26.000Z</time>
      </trkpt>
      <trkpt lat="47.52596" lon="6.74402">
        <ele>376.1</ele>
        <time>2014-05-01T08:22:27.000Z</time>
      </trkpt>
      <trkpt lat="47.52601" lon="6.74409">
        <ele>377.6</ele>
        <time>2014-05-01T08:22:28.000Z</time>
      </trkpt>
      <trkpt lat="47.52605" lon="6.74415">
        <ele>378.7</ele>
        <time>2014-05-01T08:22:29.000Z</time>
      </trkpt>
      <trkpt lat="47.5261" lon="6.7442">
        <ele>378.4</ele>
        <time>2014-05-01T08:22:30.000Z</time>
      </trkpt>
      <trkpt lat="47.52615" lon="6.74424">
        <ele>377.6</ele>
        <time>2014-05-01T08:22:31.000Z</time>
      </trkpt>
      <trkpt lat="47.52619" lon="6.74429">
        <ele>377</ele>
        <time>2014-05-01T08:22:32.000Z</time>
      </trkpt>
      <trkpt lat="47.52622" lon="6.74435">
        <ele>376.4</ele>
        <time>2014-05-01T08:22:33.000Z</time>
      </trkpt>
      <trkpt lat="47.52622" lon="6.74442">
        <ele>375.8</ele>
        <time>2014-05-01T08:22:34.000Z</time>
      </trkpt>
      <trkpt lat="47.52623" lon="6.74448">
        <ele>374.9</ele>
        <time>2014-05-01T08:22:35.000Z</time>
      </trkpt>
      <trkpt lat="47.52623" lon="6.74453">
        <ele>375.7</ele>
        <time>2014-05-01T08:22:36.000Z</time>
      </trkpt>
      <trkpt lat="47.52623" lon="6.74459">
        <ele>375.2</ele>
        <time>2014-05-01T08:22:37.000Z</time>
      </trkpt>
      <trkpt lat="47.52624" lon="6.74464">
        <ele>374.8</ele>
        <time>2014-05-01T08:22:38.000Z</time>
      </trkpt>
      <trkpt lat="47.52625" lon="6.7447">
        <ele>375.7</ele>
        <time>2014-05-01T08:22:39.000Z</time>
      </trkpt>
      <trkpt lat="47.52625" lon="6.74478">
        <ele>375.2</ele>
        <time>2014-05-01T08:22:40.000Z</time>
      </trkpt>
      <trkpt lat="47.52626" lon="6.74484">
        <ele>376</ele>
        <time>2014-05-01T08:22:41.000Z</time>
      </trkpt>
      <trkpt lat="47.52626" lon="6.7449">
        <ele>377.3</ele>
        <time>2014-05-01T08:22:42.000Z</time>
      </trkpt>
      <trkpt lat="47.52626" lon="6.74495">
        <ele>377.3</ele>
        <time>2014-05-01T08:22:43.000Z</time>
      </trkpt>
      <trkpt lat="47.52626" lon="6.74501">
        <ele>377.8</ele>
        <time>2014-05-01T08:22:44.000Z</time>
      </trkpt>
      <trkpt lat="47.52626" lon="6.74505">
        <ele>378.9</ele>
        <time>2014-05-01T08:22:45.000Z</time>
      </trkpt>
      <trkpt lat="47.52626" lon="6.7451">
        <ele>378.1</ele>
        <time>2014-05-01T08:22:46.000Z</time>
      </trkpt>
      <trkpt lat="47.52626" lon="6.74515">
        <ele>378.1</ele>
        <time>2014-05-01T08:22:47.000Z</time>
      </trkpt>
      <trkpt lat="47.52626" lon="6.7452">
        <ele>377.5</ele>
        <time>2014-05-01T08:22:48.000Z</time>
      </trkpt>
      <trkpt lat="47.52626" lon="6.74524">
        <ele>377.8</ele>
        <time>2014-05-01T08:22:49.000Z</time>
      </trkpt>
      <trkpt lat="47.52626" lon="6.74529">
        <ele>378.1</ele>
        <time>2014-05-01T08:22:50.000Z</time>
      </trkpt>
      <trkpt lat="47.52626" lon="6.74533">
        <ele>378.7</ele>
        <time>2014-05-01T08:22:51.000Z</time>
      </trkpt>
      <trkpt lat="47.52626" lon="6.74537">
        <ele>378.6</ele>
        <time>2014-05-01T08:22:52.000Z</time>
      </trkpt>
      <trkpt lat="47.52626" lon="6.74541">
        <ele>379.5</ele>
        <time>2014-05-01T08:22:53.000Z</time>
      </trkpt>
      <trkpt lat="47.52626" lon="6.74544">
        <ele>380.8</ele>
        <time>2014-05-01T08:22:54.000Z</time>
      </trkpt>
      <trkpt lat="47.52626" lon="6.74548">
        <ele>381.5</ele>
        <time>2014-05-01T08:22:55.000Z</time>
      </trkpt>
      <trkpt lat="47.52626" lon="6.74552">
        <ele>382</ele>
        <time>2014-05-01T08:22:56.000Z</time>
      </trkpt>
      <trkpt lat="47.52626" lon="6.74556">
        <ele>381.1</ele>
        <time>2014-05-01T08:22:57.000Z</time>
      </trkpt>
      <trkpt lat="47.52627" lon="6.7456">
        <ele>379.8</ele>
        <time>2014-05-01T08:22:58.000Z</time>
      </trkpt>
      <trkpt lat="47.52627" lon="6.74565">
        <ele>378.6</ele>
        <time>2014-05-01T08:22:59.000Z</time>
      </trkpt>
      <trkpt lat="47.52627" lon="6.74569">
        <ele>378.8</ele>
        <time>2014-05-01T08:23:00.000Z</time>
      </trkpt>
      <trkpt lat="47.52628" lon="6.74573">
        <ele>379.1</ele>
        <time>2014-05-01T08:23:01.000Z</time>
      </trkpt>
      <trkpt lat="47.52628" lon="6.74578">
        <ele>379.8</ele>
        <time>2014-05-01T08:23:02.000Z</time>
      </trkpt>
      <trkpt lat="47.52628" lon="6.74582">
        <ele>379.9</ele>
        <time>2014-05-01T08:23:03.000Z</time>
      </trkpt>
      <trkpt lat="47.52628" lon="6.74586">
        <ele>380</ele>
        <time>2014-05-01T08:23:04.000Z</time>
      </trkpt>
      <trkpt lat="47.52628" lon="6.74591">
        <ele>380.8</ele>
        <time>2014-05-01T08:23:05.000Z</time>
      </trkpt>
      <trkpt lat="47.52629" lon="6.74619">
        <ele>386</ele>
        <time>2014-05-01T08:23:13.000Z</time>
      </trkpt>
      <trkpt lat="47.52627" lon="6.74625">
        <ele>385.5</ele>
        <time>2014-05-01T08:23:15.000Z</time>
      </trkpt>
      <trkpt lat="47.52626" lon="6.74629">
        <ele>385.9</ele>
        <time>2014-05-01T08:23:16.000Z</time>
      </trkpt>
      <trkpt lat="47.52626" lon="6.74633">
        <ele>385.5</ele>
        <time>2014-05-01T08:23:17.000Z</time>
      </trkpt>
      <trkpt lat="47.52625" lon="6.74637">
        <ele>385.5</ele>
        <time>2014-05-01T08:23:18.000Z</time>
      </trkpt>
      <trkpt lat="47.52624" lon="6.7464">
        <ele>385.6</ele>
        <time>2014-05-01T08:23:19.000Z</time>
      </trkpt>
      <trkpt lat="47.52624" lon="6.74644">
        <ele>386</ele>
        <time>2014-05-01T08:23:20.000Z</time>
      </trkpt>
      <trkpt lat="47.52623" lon="6.74648">
        <ele>386.2</ele>
        <time>2014-05-01T08:23:21.000Z</time>
      </trkpt>
      <trkpt lat="47.52622" lon="6.74651">
        <ele>386.7</ele>
        <time>2014-05-01T08:23:22.000Z</time>
      </trkpt>
      <trkpt lat="47.52621" lon="6.74655">
        <ele>387.2</ele>
        <time>2014-05-01T08:23:23.000Z</time>
      </trkpt>
      <trkpt lat="47.5262" lon="6.74659">
        <ele>387.9</ele>
        <time>2014-05-01T08:23:24.000Z</time>
      </trkpt>
      <trkpt lat="47.52619" lon="6.74663">
        <ele>388.6</ele>
        <time>2014-05-01T08:23:25.000Z</time>
      </trkpt>
      <trkpt lat="47.52618" lon="6.74667">
        <ele>388.8</ele>
        <time>2014-05-01T08:23:26.000Z</time>
      </trkpt>
      <trkpt lat="47.52617" lon="6.74671">
        <ele>388.9</ele>
        <time>2014-05-01T08:23:27.000Z</time>
      </trkpt>
      <trkpt lat="47.52616" lon="6.74676">
        <ele>387.3</ele>
        <time>2014-05-01T08:23:28.000Z</time>
      </trkpt>
      <trkpt lat="47.52615" lon="6.7468">
        <ele>387.2</ele>
        <time>2014-05-01T08:23:29.000Z</time>
      </trkpt>
      <trkpt lat="47.52614" lon="6.74685">
        <ele>387</ele>
        <time>2014-05-01T08:23:30.000Z</time>
      </trkpt>
      <trkpt lat="47.52613" lon="6.74689">
        <ele>387.5</ele>
        <time>2014-05-01T08:23:31.000Z</time>
      </trkpt>
      <trkpt lat="47.52612" lon="6.74693">
        <ele>387.6</ele>
        <time>2014-05-01T08:23:32.000Z</time>
      </trkpt>
      <trkpt lat="47.52611" lon="6.74697">
        <ele>388</ele>
        <time>2014-05-01T08:23:33.000Z</time>
      </trkpt>
      <trkpt lat="47.52609" lon="6.74702">
        <ele>388.2</ele>
        <time>2014-05-01T08:23:34.000Z</time>
      </trkpt>
      <trkpt lat="47.52608" lon="6.74706">
        <ele>388.5</ele>
        <time>2014-05-01T08:23:35.000Z</time>
      </trkpt>
      <trkpt lat="47.52607" lon="6.7471">
        <ele>388.8</ele>
        <time>2014-05-01T08:23:36.000Z</time>
      </trkpt>
      <trkpt lat="47.52605" lon="6.74714">
        <ele>389.2</ele>
        <time>2014-05-01T08:23:37.000Z</time>
      </trkpt>
      <trkpt lat="47.52604" lon="6.74718">
        <ele>389.5</ele>
        <time>2014-05-01T08:23:38.000Z</time>
      </trkpt>
      <trkpt lat="47.52603" lon="6.74723">
        <ele>389.4</ele>
        <time>2014-05-01T08:23:39.000Z</time>
      </trkpt>
      <trkpt lat="47.52601" lon="6.74727">
        <ele>389.3</ele>
        <time>2014-05-01T08:23:40.000Z</time>
      </trkpt>
      <trkpt lat="47.52599" lon="6.74731">
        <ele>389.5</ele>
        <time>2014-05-01T08:23:41.000Z</time>
      </trkpt>
      <trkpt lat="47.52598" lon="6.74735">
        <ele>388.9</ele>
        <time>2014-05-01T08:23:42.000Z</time>
      </trkpt>
      <trkpt lat="47.52596" lon="6.74739">
        <ele>389.7</ele>
        <time>2014-05-01T08:23:43.000Z</time>
      </trkpt>
      <trkpt lat="47.52595" lon="6.74743">
        <ele>390.6</ele>
        <time>2014-05-01T08:23:44.000Z</time>
      </trkpt>
      <trkpt lat="47.52593" lon="6.74747">
        <ele>390.9</ele>
        <time>2014-05-01T08:23:45.000Z</time>
      </trkpt>
      <trkpt lat="47.52592" lon="6.74751">
        <ele>389.9</ele>
        <time>2014-05-01T08:23:46.000Z</time>
      </trkpt>
      <trkpt lat="47.52591" lon="6.74755">
        <ele>389.5</ele>
        <time>2014-05-01T08:23:47.000Z</time>
      </trkpt>
      <trkpt lat="47.5259" lon="6.74759">
        <ele>389.5</ele>
        <time>2014-05-01T08:23:48.000Z</time>
      </trkpt>
      <trkpt lat="47.52589" lon="6.74763">
        <ele>389.9</ele>
        <time>2014-05-01T08:23:49.000Z</time>
      </trkpt>
      <trkpt lat="47.52587" lon="6.74767">
        <ele>389.5</ele>
        <time>2014-05-01T08:23:50.000Z</time>
      </trkpt>
      <trkpt lat="47.52586" lon="6.74771">
        <ele>389.8</ele>
        <time>2014-05-01T08:23:51.000Z</time>
      </trkpt>
      <trkpt lat="47.52584" lon="6.74775">
        <ele>390</ele>
        <time>2014-05-01T08:23:52.000Z</time>
      </trkpt>
      <trkpt lat="47.52581" lon="6.74778">
        <ele>390.5</ele>
        <time>2014-05-01T08:23:53.000Z</time>
      </trkpt>
      <trkpt lat="47.52578" lon="6.74781">
        <ele>390.5</ele>
        <time>2014-05-01T08:23:54.000Z</time>
      </trkpt>
      <trkpt lat="47.52575" lon="6.74783">
        <ele>391.2</ele>
        <time>2014-05-01T08:23:55.000Z</time>
      </trkpt>
      <trkpt lat="47.52571" lon="6.74785">
        <ele>391.3</ele>
        <time>2014-05-01T08:23:56.000Z</time>
      </trkpt>
      <trkpt lat="47.52568" lon="6.74787">
        <ele>391.8</ele>
        <time>2014-05-01T08:23:57.000Z</time>
      </trkpt>
      <trkpt lat="47.52564" lon="6.74789">
        <ele>391.9</ele>
        <time>2014-05-01T08:23:58.000Z</time>
      </trkpt>
      <trkpt lat="47.52559" lon="6.7479">
        <ele>391.1</ele>
        <time>2014-05-01T08:23:59.000Z</time>
      </trkpt>
      <trkpt lat="47.52555" lon="6.74791">
        <ele>390.7</ele>
        <time>2014-05-01T08:24:00.000Z</time>
      </trkpt>
      <trkpt lat="47.52551" lon="6.74792">
        <ele>390.5</ele>
        <time>2014-05-01T08:24:01.000Z</time>
      </trkpt>
      <trkpt lat="47.52547" lon="6.74793">
        <ele>390.4</ele>
        <time>2014-05-01T08:24:02.000Z</time>
      </trkpt>
      <trkpt lat="47.5254" lon="6.7479">
        <ele>388.5</ele>
        <time>2014-05-01T08:24:03.000Z</time>
      </trkpt>
      <trkpt lat="47.52534" lon="6.74788">
        <ele>388.3</ele>
        <time>2014-05-01T08:24:04.000Z</time>
      </trkpt>
      <trkpt lat="47.52528" lon="6.74788">
        <ele>387.4</ele>
        <time>2014-05-01T08:24:05.000Z</time>
      </trkpt>
      <trkpt lat="47.52483" lon="6.74774">
        <ele>384.5</ele>
        <time>2014-05-01T08:24:13.000Z</time>
      </trkpt>
      <trkpt lat="47.52477" lon="6.74772">
        <ele>383</ele>
        <time>2014-05-01T08:24:14.000Z</time>
      </trkpt>
      <trkpt lat="47.52471" lon="6.74773">
        <ele>380.3</ele>
        <time>2014-05-01T08:24:15.000Z</time>
      </trkpt>
      <trkpt lat="47.52464" lon="6.74768">
        <ele>380.7</ele>
        <time>2014-05-01T08:24:16.000Z</time>
      </trkpt>
      <trkpt lat="47.52457" lon="6.74764">
        <ele>380.2</ele>
        <time>2014-05-01T08:24:17.000Z</time>
      </trkpt>
      <trkpt lat="47.52451" lon="6.7476">
        <ele>379.9</ele>
        <time>2014-05-01T08:24:18.000Z</time>
      </trkpt>
      <trkpt lat="47.52444" lon="6.74757">
        <ele>379.9</ele>
        <time>2014-05-01T08:24:19.000Z</time>
      </trkpt>
      <trkpt lat="47.52438" lon="6.74755">
        <ele>379.8</ele>
        <time>2014-05-01T08:24:20.000Z</time>
      </trkpt>
      <trkpt lat="47.52432" lon="6.74751">
        <ele>379.4</ele>
        <time>2014-05-01T08:24:21.000Z</time>
      </trkpt>
      <trkpt lat="47.52426" lon="6.74746">
        <ele>379.8</ele>
        <time>2014-05-01T08:24:22.000Z</time>
      </trkpt>
      <trkpt lat="47.5242" lon="6.74742">
        <ele>379.5</ele>
        <time>2014-05-01T08:24:23.000Z</time>
      </trkpt>
      <trkpt lat="47.52414" lon="6.74738">
        <ele>379.3</ele>
        <time>2014-05-01T08:24:24.000Z</time>
      </trkpt>
      <trkpt lat="47.52409" lon="6.74733">
        <ele>379.4</ele>
        <time>2014-05-01T08:24:25.000Z</time>
      </trkpt>
      <trkpt lat="47.52403" lon="6.74729">
        <ele>377.9</ele>
        <time>2014-05-01T08:24:26.000Z</time>
      </trkpt>
      <trkpt lat="47.52398" lon="6.74724">
        <ele>377.5</ele>
        <time>2014-05-01T08:24:26.999Z</time>
      </trkpt>
      <trkpt lat="47.52394" lon="6.7472">
        <ele>377.4</ele>
        <time>2014-05-01T08:24:28.000Z</time>
      </trkpt>
      <trkpt lat="47.52389" lon="6.74717">
        <ele>379.2</ele>
        <time>2014-05-01T08:24:29.000Z</time>
      </trkpt>
      <trkpt lat="47.52385" lon="6.74712">
        <ele>380.3</ele>
        <time>2014-05-01T08:24:30.000Z</time>
      </trkpt>
      <trkpt lat="47.52379" lon="6.74712">
        <ele>379.5</ele>
        <time>2014-05-01T08:24:31.000Z</time>
      </trkpt>
      <trkpt lat="47.52374" lon="6.74711">
        <ele>378.9</ele>
        <time>2014-05-01T08:24:32.000Z</time>
      </trkpt>
      <trkpt lat="47.52368" lon="6.74709">
        <ele>379.5</ele>
        <time>2014-05-01T08:24:33.000Z</time>
      </trkpt>
      <trkpt lat="47.52362" lon="6.74705">
        <ele>379</ele>
        <time>2014-05-01T08:24:34.000Z</time>
      </trkpt>
      <trkpt lat="47.52356" lon="6.74702">
        <ele>378.5</ele>
        <time>2014-05-01T08:24:35.000Z</time>
      </trkpt>
      <trkpt lat="47.52349" lon="6.747">
        <ele>378.7</ele>
        <time>2014-05-01T08:24:36.000Z</time>
      </trkpt>
      <trkpt lat="47.52343" lon="6.74697">
        <ele>379.2</ele>
        <time>2014-05-01T08:24:36.999Z</time>
      </trkpt>
      <trkpt lat="47.52337" lon="6.74693">
        <ele>379.1</ele>
        <time>2014-05-01T08:24:38.000Z</time>
      </trkpt>
      <trkpt lat="47.52331" lon="6.74691">
        <ele>381.2</ele>
        <time>2014-05-01T08:24:39.000Z</time>
      </trkpt>
      <trkpt lat="47.52324" lon="6.74688">
        <ele>381.2</ele>
        <time>2014-05-01T08:24:40.000Z</time>
      </trkpt>
      <trkpt lat="47.52318" lon="6.74686">
        <ele>379.8</ele>
        <time>2014-05-01T08:24:41.000Z</time>
      </trkpt>
      <trkpt lat="47.52311" lon="6.74681">
        <ele>378.6</ele>
        <time>2014-05-01T08:24:42.000Z</time>
      </trkpt>
      <trkpt lat="47.52304" lon="6.74678">
        <ele>378.1</ele>
        <time>2014-05-01T08:24:43.000Z</time>
      </trkpt>
      <trkpt lat="47.52296" lon="6.74674">
        <ele>376.5</ele>
        <time>2014-05-01T08:24:44.000Z</time>
      </trkpt>
      <trkpt lat="47.5229" lon="6.7467">
        <ele>375.6</ele>
        <time>2014-05-01T08:24:45.000Z</time>
      </trkpt>
      <trkpt lat="47.52283" lon="6.74667">
        <ele>374.4</ele>
        <time>2014-05-01T08:24:46.000Z</time>
      </trkpt>
      <trkpt lat="47.52276" lon="6.74662">
        <ele>373.1</ele>
        <time>2014-05-01T08:24:47.000Z</time>
      </trkpt>
      <trkpt lat="47.5227" lon="6.74659">
        <ele>372.4</ele>
        <time>2014-05-01T08:24:48.000Z</time>
      </trkpt>
      <trkpt lat="47.52264" lon="6.74657">
        <ele>370.7</ele>
        <time>2014-05-01T08:24:49.000Z</time>
      </trkpt>
      <trkpt lat="47.52257" lon="6.74654">
        <ele>370.5</ele>
        <time>2014-05-01T08:24:50.000Z</time>
      </trkpt>
      <trkpt lat="47.5225" lon="6.74652">
        <ele>370</ele>
        <time>2014-05-01T08:24:51.000Z</time>
      </trkpt>
      <trkpt lat="47.52243" lon="6.74648">
        <ele>370.1</ele>
        <time>2014-05-01T08:24:52.000Z</time>
      </trkpt>
      <trkpt lat="47.52235" lon="6.74645">
        <ele>367.9</ele>
        <time>2014-05-01T08:24:53.000Z</time>
      </trkpt>
      <trkpt lat="47.52229" lon="6.7464">
        <ele>367.5</ele>
        <time>2014-05-01T08:24:54.000Z</time>
      </trkpt>
      <trkpt lat="47.52224" lon="6.74637">
        <ele>367.9</ele>
        <time>2014-05-01T08:24:55.000Z</time>
      </trkpt>
      <trkpt lat="47.52218" lon="6.74634">
        <ele>366.2</ele>
        <time>2014-05-01T08:24:56.000Z</time>
      </trkpt>
      <trkpt lat="47.52214" lon="6.7463">
        <ele>364.1</ele>
        <time>2014-05-01T08:24:57.000Z</time>
      </trkpt>
      <trkpt lat="47.52209" lon="6.74629">
        <ele>362</ele>
        <time>2014-05-01T08:24:58.000Z</time>
      </trkpt>
      <trkpt lat="47.52204" lon="6.74628">
        <ele>362.1</ele>
        <time>2014-05-01T08:24:59.000Z</time>
      </trkpt>
      <trkpt lat="47.52201" lon="6.74627">
        <ele>362.8</ele>
        <time>2014-05-01T08:25:00.000Z</time>
      </trkpt>
      <trkpt lat="47.52198" lon="6.74625">
        <ele>363</ele>
        <time>2014-05-01T08:25:01.000Z</time>
      </trkpt>
      <trkpt lat="47.52195" lon="6.74626">
        <ele>363.1</ele>
        <time>2014-05-01T08:25:02.000Z</time>
      </trkpt>
      <trkpt lat="47.52191" lon="6.74629">
        <ele>362.9</ele>
        <time>2014-05-01T08:25:03.000Z</time>
      </trkpt>
      <trkpt lat="47.52189" lon="6.74632">
        <ele>363.2</ele>
        <time>2014-05-01T08:25:04.000Z</time>
      </trkpt>
      <trkpt lat="47.52183" lon="6.74633">
        <ele>361.9</ele>
        <time>2014-05-01T08:25:05.000Z</time>
      </trkpt>
      <trkpt lat="47.52154" lon="6.74655">
        <ele>361.5</ele>
        <time>2014-05-01T08:25:13.000Z</time>
      </trkpt>
      <trkpt lat="47.52146" lon="6.7466">
        <ele>361</ele>
        <time>2014-05-01T08:25:14.000Z</time>
      </trkpt>
      <trkpt lat="47.52139" lon="6.74665">
        <ele>360.8</ele>
        <time>2014-05-01T08:25:15.000Z</time>
      </trkpt>
      <trkpt lat="47.52132" lon="6.7467">
        <ele>358</ele>
        <time>2014-05-01T08:25:16.000Z</time>
      </trkpt>
      <trkpt lat="47.52127" lon="6.7467">
        <ele>359.5</ele>
        <time>2014-05-01T08:25:17.000Z</time>
      </trkpt>
      <trkpt lat="47.52121" lon="6.74672">
        <ele>359.5</ele>
        <time>2014-05-01T08:25:18.000Z</time>
      </trkpt>
      <trkpt lat="47.52116" lon="6.74676">
        <ele>359.2</ele>
        <time>2014-05-01T08:25:19.000Z</time>
      </trkpt>
      <trkpt lat="47.5211" lon="6.74677">
        <ele>359.6</ele>
        <time>2014-05-01T08:25:20.000Z</time>
      </trkpt>
      <trkpt lat="47.52104" lon="6.74679">
        <ele>358.8</ele>
        <time>2014-05-01T08:25:21.000Z</time>
      </trkpt>
      <trkpt lat="47.52099" lon="6.74685">
        <ele>356.7</ele>
        <time>2014-05-01T08:25:22.000Z</time>
      </trkpt>
      <trkpt lat="47.52096" lon="6.74691">
        <ele>356.2</ele>
        <time>2014-05-01T08:25:23.000Z</time>
      </trkpt>
      <trkpt lat="47.52091" lon="6.74695">
        <ele>355.8</ele>
        <time>2014-05-01T08:25:24.000Z</time>
      </trkpt>
      <trkpt lat="47.52086" lon="6.74699">
        <ele>355.4</ele>
        <time>2014-05-01T08:25:25.000Z</time>
      </trkpt>
      <trkpt lat="47.52081" lon="6.74703">
        <ele>354.7</ele>
        <time>2014-05-01T08:25:26.000Z</time>
      </trkpt>
      <trkpt lat="47.52076" lon="6.74707">
        <ele>357.3</ele>
        <time>2014-05-01T08:25:27.000Z</time>
      </trkpt>
      <trkpt lat="47.5207" lon="6.74712">
        <ele>356.5</ele>
        <time>2014-05-01T08:25:28.000Z</time>
      </trkpt>
      <trkpt lat="47.52064" lon="6.74717">
        <ele>355.9</ele>
        <time>2014-05-01T08:25:29.000Z</time>
      </trkpt>
      <trkpt lat="47.5206" lon="6.74719">
        <ele>355.7</ele>
        <time>2014-05-01T08:25:30.000Z</time>
      </trkpt>
      <trkpt lat="47.52054" lon="6.74723">
        <ele>354.4</ele>
        <time>2014-05-01T08:25:31.000Z</time>
      </trkpt>
      <trkpt lat="47.52047" lon="6.74727">
        <ele>352.3</ele>
        <time>2014-05-01T08:25:32.000Z</time>
      </trkpt>
      <trkpt lat="47.52042" lon="6.74728">
        <ele>351.7</ele>
        <time>2014-05-01T08:25:33.000Z</time>
      </trkpt>
      <trkpt lat="47.52035" lon="6.74729">
        <ele>351</ele>
        <time>2014-05-01T08:25:34.000Z</time>
      </trkpt>
      <trkpt lat="47.52029" lon="6.74733">
        <ele>347.1</ele>
        <time>2014-05-01T08:25:35.000Z</time>
      </trkpt>
      <trkpt lat="47.52021" lon="6.74734">
        <ele>346.2</ele>
        <time>2014-05-01T08:25:36.000Z</time>
      </trkpt>
      <trkpt lat="47.52015" lon="6.74736">
        <ele>344.9</ele>
        <time>2014-05-01T08:25:37.000Z</time>
      </trkpt>
      <trkpt lat="47.52009" lon="6.74738">
        <ele>344.2</ele>
        <time>2014-05-01T08:25:38.000Z</time>
      </trkpt>
      <trkpt lat="47.52001" lon="6.74738">
        <ele>344.2</ele>
        <time>2014-05-01T08:25:39.000Z</time>
      </trkpt>
      <trkpt lat="47.51994" lon="6.74738">
        <ele>343.4</ele>
        <time>2014-05-01T08:25:40.000Z</time>
      </trkpt>
      <trkpt lat="47.51987" lon="6.74739">
        <ele>341.8</ele>
        <time>2014-05-01T08:25:41.000Z</time>
      </trkpt>
      <trkpt lat="47.5198" lon="6.74739">
        <ele>339.9</ele>
        <time>2014-05-01T08:25:42.000Z</time>
      </trkpt>
      <trkpt lat="47.51975" lon="6.7474">
        <ele>339.3</ele>
        <time>2014-05-01T08:25:43.000Z</time>
      </trkpt>
      <trkpt lat="47.5197" lon="6.74741">
        <ele>337.5</ele>
        <time>2014-05-01T08:25:44.000Z</time>
      </trkpt>
      <trkpt lat="47.51967" lon="6.74741">
        <ele>336.8</ele>
        <time>2014-05-01T08:25:45.000Z</time>
      </trkpt>
      <trkpt lat="47.51965" lon="6.74742">
        <ele>334.8</ele>
        <time>2014-05-01T08:25:46.000Z</time>
      </trkpt>
      <trkpt lat="47.51963" lon="6.74741">
        <ele>335.4</ele>
        <time>2014-05-01T08:25:47.000Z</time>
      </trkpt>
      <trkpt lat="47.51961" lon="6.74738">
        <ele>336.8</ele>
        <time>2014-05-01T08:25:48.000Z</time>
      </trkpt>
      <trkpt lat="47.51959" lon="6.74735">
        <ele>337.5</ele>
        <time>2014-05-01T08:25:50.000Z</time>
      </trkpt>
      <trkpt lat="47.51959" lon="6.74729">
        <ele>337.6</ele>
        <time>2014-05-01T08:25:51.000Z</time>
      </trkpt>
      <trkpt lat="47.51959" lon="6.74722">
        <ele>336.9</ele>
        <time>2014-05-01T08:25:52.000Z</time>
      </trkpt>
      <trkpt lat="47.5196" lon="6.74716">
        <ele>336.2</ele>
        <time>2014-05-01T08:25:53.000Z</time>
      </trkpt>
      <trkpt lat="47.51957" lon="6.74709">
        <ele>334.6</ele>
        <time>2014-05-01T08:25:54.000Z</time>
      </trkpt>
      <trkpt lat="47.51956" lon="6.74702">
        <ele>333.6</ele>
        <time>2014-05-01T08:25:55.000Z</time>
      </trkpt>
      <trkpt lat="47.51954" lon="6.74695">
        <ele>333.5</ele>
        <time>2014-05-01T08:25:56.000Z</time>
      </trkpt>
      <trkpt lat="47.51954" lon="6.74689">
        <ele>333.9</ele>
        <time>2014-05-01T08:25:57.000Z</time>
      </trkpt>
      <trkpt lat="47.51954" lon="6.74683">
        <ele>335.5</ele>
        <time>2014-05-01T08:25:58.000Z</time>
      </trkpt>
      <trkpt lat="47.5195" lon="6.74677">
        <ele>335.9</ele>
        <time>2014-05-01T08:25:59.000Z</time>
      </trkpt>
      <trkpt lat="47.51946" lon="6.7467">
        <ele>335</ele>
        <time>2014-05-01T08:26:00.000Z</time>
      </trkpt>
      <trkpt lat="47.51942" lon="6.74663">
        <ele>334.6</ele>
        <time>2014-05-01T08:26:01.000Z</time>
      </trkpt>
      <trkpt lat="47.51937" lon="6.74657">
        <ele>333.5</ele>
        <time>2014-05-01T08:26:02.000Z</time>
      </trkpt>
      <trkpt lat="47.51933" lon="6.74651">
        <ele>332.8</ele>
        <time>2014-05-01T08:26:03.000Z</time>
      </trkpt>
      <trkpt lat="47.51928" lon="6.74644">
        <ele>333.2</ele>
        <time>2014-05-01T08:26:04.000Z</time>
      </trkpt>
      <trkpt lat="47.51922" lon="6.74638">
        <ele>334</ele>
        <time>2014-05-01T08:26:05.000Z</time>
      </trkpt>
      <trkpt lat="47.51888" lon="6.74594">
        <ele>334.7</ele>
        <time>2014-05-01T08:26:13.000Z</time>
      </trkpt>
      <trkpt lat="47.51887" lon="6.74589">
        <ele>334.4</ele>
        <time>2014-05-01T08:26:14.000Z</time>
      </trkpt>
      <trkpt lat="47.51886" lon="6.74586">
        <ele>335.5</ele>
        <time>2014-05-01T08:26:15.000Z</time>
      </trkpt>
      <trkpt lat="47.51884" lon="6.74582">
        <ele>335.5</ele>
        <time>2014-05-01T08:26:16.000Z</time>
      </trkpt>
      <trkpt lat="47.51882" lon="6.74578">
        <ele>336.2</ele>
        <time>2014-05-01T08:26:17.000Z</time>
      </trkpt>
      <trkpt lat="47.5188" lon="6.74572">
        <ele>337</ele>
        <time>2014-05-01T08:26:20.000Z</time>
      </trkpt>
      <trkpt lat="47.51879" lon="6.74571">
        <ele>335.7</ele>
        <time>2014-05-01T08:26:21.000Z</time>
      </trkpt>
      <trkpt lat="47.51875" lon="6.74573">
        <ele>338</ele>
        <time>2014-05-01T08:26:26.000Z</time>
      </trkpt>
      <trkpt lat="47.51874" lon="6.74574">
        <ele>338.5</ele>
        <time>2014-05-01T08:26:27.000Z</time>
      </trkpt>
      <trkpt lat="47.51872" lon="6.74579">
        <ele>339.4</ele>
        <time>2014-05-01T08:26:30.000Z</time>
      </trkpt>
      <trkpt lat="47.51871" lon="6.74581">
        <ele>339.3</ele>
        <time>2014-05-01T08:26:31.000Z</time>
      </trkpt>
      <trkpt lat="47.51869" lon="6.74585">
        <ele>339.3</ele>
        <time>2014-05-01T08:26:36.000Z</time>
      </trkpt>
      <trkpt lat="47.51868" lon="6.74586">
        <ele>339.6</ele>
        <time>2014-05-01T08:26:36.998Z</time>
      </trkpt>
      <trkpt lat="47.51867" lon="6.74591">
        <ele>337.8</ele>
        <time>2014-05-01T08:26:41.000Z</time>
      </trkpt>
      <trkpt lat="47.51866" lon="6.74593">
        <ele>339.5</ele>
        <time>2014-05-01T08:26:42.000Z</time>
      </trkpt>
      <trkpt lat="47.51864" lon="6.74598">
        <ele>341.3</ele>
        <time>2014-05-01T08:26:45.000Z</time>
      </trkpt>
      <trkpt lat="47.51864" lon="6.74599">
        <ele>341</ele>
        <time>2014-05-01T08:26:46.000Z</time>
      </trkpt>
      <trkpt lat="47.5186" lon="6.74601">
        <ele>341.8</ele>
        <time>2014-05-01T08:26:49.000Z</time>
      </trkpt>
      <trkpt lat="47.51858" lon="6.74602">
        <ele>342.1</ele>
        <time>2014-05-01T08:26:50.000Z</time>
      </trkpt>
      <trkpt lat="47.51855" lon="6.74606">
        <ele>343.2</ele>
        <time>2014-05-01T08:27:04.000Z</time>
      </trkpt>
      <trkpt lat="47.51855" lon="6.74606">
        <ele>343.4</ele>
        <time>2014-05-01T08:27:05.000Z</time>
      </trkpt>
      <trkpt lat="47.51851" lon="6.74605">
        <ele>350.5</ele>
        <time>2014-05-01T08:27:12.998Z</time>
      </trkpt>
      <trkpt lat="47.51851" lon="6.74604">
        <ele>352.5</ele>
        <time>2014-05-01T08:27:18.000Z</time>
      </trkpt>
      <trkpt lat="47.51847" lon="6.74606">
        <ele>352.8</ele>
        <time>2014-05-01T08:27:28.000Z</time>
      </trkpt>
      <trkpt lat="47.51846" lon="6.74606">
        <ele>353.1</ele>
        <time>2014-05-01T08:27:29.000Z</time>
      </trkpt>
      <trkpt lat="47.51842" lon="6.74609">
        <ele>353.5</ele>
        <time>2014-05-01T08:27:35.000Z</time>
      </trkpt>
      <trkpt lat="47.51842" lon="6.7461">
        <ele>352.7</ele>
        <time>2014-05-01T08:27:36.000Z</time>
      </trkpt>
      <trkpt lat="47.51837" lon="6.7461">
        <ele>353.1</ele>
        <time>2014-05-01T08:27:42.000Z</time>
      </trkpt>
      <trkpt lat="47.51837" lon="6.7461">
        <ele>352.3</ele>
        <time>2014-05-01T08:27:43.000Z</time>
      </trkpt>
      <trkpt lat="47.51833" lon="6.74611">
        <ele>351.5</ele>
        <time>2014-05-01T08:27:47.000Z</time>
      </trkpt>
      <trkpt lat="47.51831" lon="6.74613">
        <ele>348</ele>
        <time>2014-05-01T08:27:48.000Z</time>
      </trkpt>
      <trkpt lat="47.51829" lon="6.74614">
        <ele>346.1</ele>
        <time>2014-05-01T08:27:49.000Z</time>
      </trkpt>
      <trkpt lat="47.51827" lon="6.74617">
        <ele>344.9</ele>
        <time>2014-05-01T08:27:50.000Z</time>
      </trkpt>
      <trkpt lat="47.51826" lon="6.74619">
        <ele>343.6</ele>
        <time>2014-05-01T08:27:51.000Z</time>
      </trkpt>
      <trkpt lat="47.51824" lon="6.74622">
        <ele>343.4</ele>
        <time>2014-05-01T08:27:52.000Z</time>
      </trkpt>
      <trkpt lat="47.51823" lon="6.74625">
        <ele>343.7</ele>
        <time>2014-05-01T08:27:53.000Z</time>
      </trkpt>
      <trkpt lat="47.51822" lon="6.74629">
        <ele>343.5</ele>
        <time>2014-05-01T08:27:54.000Z</time>
      </trkpt>
      <trkpt lat="47.51821" lon="6.74635">
        <ele>343.5</ele>
        <time>2014-05-01T08:27:56.000Z</time>
      </trkpt>
      <trkpt lat="47.5182" lon="6.74638">
        <ele>343.1</ele>
        <time>2014-05-01T08:27:57.000Z</time>
      </trkpt>
      <trkpt lat="47.51819" lon="6.74643">
        <ele>343.7</ele>
        <time>2014-05-01T08:27:58.999Z</time>
      </trkpt>
      <trkpt lat="47.51819" lon="6.74646">
        <ele>344.6</ele>
        <time>2014-05-01T08:28:00.000Z</time>
      </trkpt>
      <trkpt lat="47.51818" lon="6.74651">
        <ele>346</ele>
        <time>2014-05-01T08:28:02.000Z</time>
      </trkpt>
      <trkpt lat="47.51818" lon="6.74655">
        <ele>347.2</ele>
        <time>2014-05-01T08:28:03.000Z</time>
      </trkpt>
      <trkpt lat="47.51818" lon="6.74661">
        <ele>347.9</ele>
        <time>2014-05-01T08:28:05.000Z</time>
      </trkpt>
      <trkpt lat="47.51814" lon="6.74682">
        <ele>351.1</ele>
        <time>2014-05-01T08:28:13.000Z</time>
      </trkpt>
      <trkpt lat="47.51812" lon="6.74683">
        <ele>351.6</ele>
        <time>2014-05-01T08:28:14.000Z</time>
      </trkpt>
      <trkpt lat="47.51808" lon="6.74682">
        <ele>350.2</ele>
        <time>2014-05-01T08:28:15.000Z</time>
      </trkpt>
      <trkpt lat="47.51806" lon="6.74683">
        <ele>349.4</ele>
        <time>2014-05-01T08:28:16.000Z</time>
      </trkpt>
      <trkpt lat="47.51803" lon="6.74682">
        <ele>348.9</ele>
        <time>2014-05-01T08:28:17.000Z</time>
      </trkpt>
      <trkpt lat="47.51801" lon="6.74682">
        <ele>348.1</ele>
        <time>2014-05-01T08:28:18.000Z</time>
      </trkpt>
      <trkpt lat="47.51798" lon="6.74682">
        <ele>347</ele>
        <time>2014-05-01T08:28:19.000Z</time>
      </trkpt>
      <trkpt lat="47.51796" lon="6.74682">
        <ele>347.5</ele>
        <time>2014-05-01T08:28:20.000Z</time>
      </trkpt>
      <trkpt lat="47.51793" lon="6.74681">
        <ele>347.4</ele>
        <time>2014-05-01T08:28:21.000Z</time>
      </trkpt>
      <trkpt lat="47.5179" lon="6.74681">
        <ele>347</ele>
        <time>2014-05-01T08:28:22.000Z</time>
      </trkpt>
      <trkpt lat="47.51788" lon="6.7468">
        <ele>346.6</ele>
        <time>2014-05-01T08:28:23.000Z</time>
      </trkpt>
      <trkpt lat="47.51785" lon="6.74678">
        <ele>346.6</ele>
        <time>2014-05-01T08:28:24.000Z</time>
      </trkpt>
      <trkpt lat="47.51783" lon="6.74677">
        <ele>346.6</ele>
        <time>2014-05-01T08:28:25.000Z</time>
      </trkpt>
      <trkpt lat="47.5178" lon="6.74677">
        <ele>347.4</ele>
        <time>2014-05-01T08:28:26.000Z</time>
      </trkpt>
      <trkpt lat="47.51778" lon="6.74676">
        <ele>348.1</ele>
        <time>2014-05-01T08:28:27.000Z</time>
      </trkpt>
      <trkpt lat="47.51775" lon="6.74676">
        <ele>347.9</ele>
        <time>2014-05-01T08:28:28.000Z</time>
      </trkpt>
      <trkpt lat="47.51772" lon="6.74676">
        <ele>347.1</ele>
        <time>2014-05-01T08:28:29.000Z</time>
      </trkpt>
      <trkpt lat="47.5177" lon="6.74675">
        <ele>347.7</ele>
        <time>2014-05-01T08:28:30.000Z</time>
      </trkpt>
      <trkpt lat="47.51767" lon="6.74675">
        <ele>346.6</ele>
        <time>2014-05-01T08:28:31.000Z</time>
      </trkpt>
      <trkpt lat="47.51764" lon="6.74675">
        <ele>346.4</ele>
        <time>2014-05-01T08:28:32.000Z</time>
      </trkpt>
      <trkpt lat="47.51762" lon="6.74674">
        <ele>347</ele>
        <time>2014-05-01T08:28:33.000Z</time>
      </trkpt>
      <trkpt lat="47.51759" lon="6.74674">
        <ele>346.8</ele>
        <time>2014-05-01T08:28:34.000Z</time>
      </trkpt>
      <trkpt lat="47.51757" lon="6.74674">
        <ele>346.3</ele>
        <time>2014-05-01T08:28:35.000Z</time>
      </trkpt>
      <trkpt lat="47.51752" lon="6.74672">
        <ele>346.9</ele>
        <time>2014-05-01T08:28:37.000Z</time>
      </trkpt>
      <trkpt lat="47.51751" lon="6.74671">
        <ele>346.9</ele>
        <time>2014-05-01T08:28:38.000Z</time>
      </trkpt>
      <trkpt lat="47.51747" lon="6.7467">
        <ele>347.1</ele>
        <time>2014-05-01T08:28:41.000Z</time>
      </trkpt>
      <trkpt lat="47.51745" lon="6.74671">
        <ele>347.3</ele>
        <time>2014-05-01T08:28:42.000Z</time>
      </trkpt>
      <trkpt lat="47.51741" lon="6.74673">
        <ele>348.9</ele>
        <time>2014-05-01T08:28:44.000Z</time>
      </trkpt>
      <trkpt lat="47.51739" lon="6.74673">
        <ele>348.5</ele>
        <time>2014-05-01T08:28:45.000Z</time>
      </trkpt>
      <trkpt lat="47.51734" lon="6.74673">
        <ele>348.9</ele>
        <time>2014-05-01T08:28:47.000Z</time>
      </trkpt>
      <trkpt lat="47.51732" lon="6.74673">
        <ele>348.6</ele>
        <time>2014-05-01T08:28:48.000Z</time>
      </trkpt>
      <trkpt lat="47.51729" lon="6.74673">
        <ele>349</ele>
        <time>2014-05-01T08:28:49.000Z</time>
      </trkpt>
      <trkpt lat="47.51726" lon="6.74673">
        <ele>350.1</ele>
        <time>2014-05-01T08:28:50.000Z</time>
      </trkpt>
      <trkpt lat="47.51723" lon="6.74673">
        <ele>349.4</ele>
        <time>2014-05-01T08:28:51.000Z</time>
      </trkpt>
      <trkpt lat="47.51719" lon="6.74673">
        <ele>349.3</ele>
        <time>2014-05-01T08:28:52.000Z</time>
      </trkpt>
      <trkpt lat="47.51716" lon="6.74673">
        <ele>349.2</ele>
        <time>2014-05-01T08:28:53.000Z</time>
      </trkpt>
      <trkpt lat="47.51713" lon="6.74672">
        <ele>349.1</ele>
        <time>2014-05-01T08:28:54.000Z</time>
      </trkpt>
      <trkpt lat="47.51709" lon="6.74672">
        <ele>348.5</ele>
        <time>2014-05-01T08:28:55.000Z</time>
      </trkpt>
      <trkpt lat="47.51706" lon="6.74671">
        <ele>348.8</ele>
        <time>2014-05-01T08:28:56.000Z</time>
      </trkpt>
      <trkpt lat="47.51703" lon="6.7467">
        <ele>348.4</ele>
        <time>2014-05-01T08:28:57.000Z</time>
      </trkpt>
      <trkpt lat="47.51699" lon="6.74669">
        <ele>348.1</ele>
        <time>2014-05-01T08:28:58.000Z</time>
      </trkpt>
      <trkpt lat="47.51695" lon="6.74669">
        <ele>348.7</ele>
        <time>2014-05-01T08:28:59.000Z</time>
      </trkpt>
      <trkpt lat="47.51692" lon="6.74668">
        <ele>348.8</ele>
        <time>2014-05-01T08:29:00.000Z</time>
      </trkpt>
      <trkpt lat="47.51688" lon="6.74668">
        <ele>348.2</ele>
        <time>2014-05-01T08:29:01.000Z</time>
      </trkpt>
      <trkpt lat="47.51684" lon="6.74667">
        <ele>347.7</ele>
        <time>2014-05-01T08:29:02.000Z</time>
      </trkpt>
      <trkpt lat="47.5168" lon="6.74667">
        <ele>347.3</ele>
        <time>2014-05-01T08:29:03.000Z</time>
      </trkpt>
      <trkpt lat="47.51677" lon="6.74668">
        <ele>348</ele>
        <time>2014-05-01T08:29:04.000Z</time>
      </trkpt>
      <trkpt lat="47.51673" lon="6.74668">
        <ele>348.2</ele>
        <time>2014-05-01T08:29:05.000Z</time>
      </trkpt>
      <trkpt lat="47.51655" lon="6.74659">
        <ele>344.4</ele>
        <time>2014-05-01T08:29:13.000Z</time>
      </trkpt>
      <trkpt lat="47.51654" lon="6.74655">
        <ele>345.2</ele>
        <time>2014-05-01T08:29:15.000Z</time>
      </trkpt>
      <trkpt lat="47.51653" lon="6.74653">
        <ele>345.2</ele>
        <time>2014-05-01T08:29:16.000Z</time>
      </trkpt>
      <trkpt lat="47.51649" lon="6.74648">
        <ele>346.7</ele>
        <time>2014-05-01T08:29:19.000Z</time>
      </trkpt>
      <trkpt lat="47.51648" lon="6.74647">
        <ele>347.4</ele>
        <time>2014-05-01T08:29:20.000Z</time>
      </trkpt>
      <trkpt lat="47.51647" lon="6.74642">
        <ele>343.3</ele>
        <time>2014-05-01T08:29:24.000Z</time>
      </trkpt>
      <trkpt lat="47.51646" lon="6.7464">
        <ele>344.6</ele>
        <time>2014-05-01T08:29:25.000Z</time>
      </trkpt>
      <trkpt lat="47.51645" lon="6.74635">
        <ele>344.1</ele>
        <time>2014-05-01T08:29:27.000Z</time>
      </trkpt>
      <trkpt lat="47.51644" lon="6.74633">
        <ele>345</ele>
        <time>2014-05-01T08:29:28.000Z</time>
      </trkpt>
      <trkpt lat="47.51641" lon="6.7463">
        <ele>346.5</ele>
        <time>2014-05-01T08:29:30.000Z</time>
      </trkpt>
      <trkpt lat="47.5164" lon="6.74628">
        <ele>347.1</ele>
        <time>2014-05-01T08:29:31.000Z</time>
      </trkpt>
      <trkpt lat="47.51637" lon="6.74624">
        <ele>347.5</ele>
        <time>2014-05-01T08:29:33.000Z</time>
      </trkpt>
      <trkpt lat="47.51636" lon="6.74622">
        <ele>346.7</ele>
        <time>2014-05-01T08:29:34.000Z</time>
      </trkpt>
      <trkpt lat="47.51635" lon="6.74617">
        <ele>348</ele>
        <time>2014-05-01T08:29:36.000Z</time>
      </trkpt>
      <trkpt lat="47.51634" lon="6.74615">
        <ele>348.8</ele>
        <time>2014-05-01T08:29:37.000Z</time>
      </trkpt>
      <trkpt lat="47.51633" lon="6.74608">
        <ele>349.8</ele>
        <time>2014-05-01T08:29:40.000Z</time>
      </trkpt>
      <trkpt lat="47.51633" lon="6.74606">
        <ele>349.7</ele>
        <time>2014-05-01T08:29:41.000Z</time>
      </trkpt>
      <trkpt lat="47.51632" lon="6.746">
        <ele>350.2</ele>
        <time>2014-05-01T08:29:44.000Z</time>
      </trkpt>
      <trkpt lat="47.51632" lon="6.74599">
        <ele>351</ele>
        <time>2014-05-01T08:29:45.000Z</time>
      </trkpt>
      <trkpt lat="47.5163" lon="6.74594">
        <ele>346.4</ele>
        <time>2014-05-01T08:29:48.000Z</time>
      </trkpt>
      <trkpt lat="47.5163" lon="6.74591">
        <ele>345.1</ele>
        <time>2014-05-01T08:29:49.000Z</time>
      </trkpt>
      <trkpt lat="47.51627" lon="6.74586">
        <ele>348.8</ele>
        <time>2014-05-01T08:29:52.000Z</time>
      </trkpt>
      <trkpt lat="47.51626" lon="6.74584">
        <ele>352.3</ele>
        <time>2014-05-01T08:29:53.000Z</time>
      </trkpt>
      <trkpt lat="47.51626" lon="6.74579">
        <ele>357.4</ele>
        <time>2014-05-01T08:29:56.000Z</time>
      </trkpt>
      <trkpt lat="47.51625" lon="6.74576">
        <ele>356.8</ele>
        <time>2014-05-01T08:29:57.000Z</time>
      </trkpt>
      <trkpt lat="47.51625" lon="6.74571">
        <ele>358.8</ele>
        <time>2014-05-01T08:29:59.000Z</time>
      </trkpt>
      <trkpt lat="47.51624" lon="6.74569">
        <ele>359.1</ele>
        <time>2014-05-01T08:30:00.000Z</time>
      </trkpt>
      <trkpt lat="47.51624" lon="6.74563">
        <ele>364.1</ele>
        <time>2014-05-01T08:30:05.000Z</time>
      </trkpt>
      <trkpt lat="47.51627" lon="6.74547">
        <ele>360.6</ele>
        <time>2014-05-01T08:30:13.000Z</time>
      </trkpt>
      <trkpt lat="47.51627" lon="6.74545">
        <ele>361</ele>
        <time>2014-05-01T08:30:14.000Z</time>
      </trkpt>
      <trkpt lat="47.51634" lon="6.7454">
        <ele>361.4</ele>
        <time>2014-05-01T08:30:15.000Z</time>
      </trkpt>
      <trkpt lat="47.51633" lon="6.74535">
        <ele>364.3</ele>
        <time>2014-05-01T08:30:18.000Z</time>
      </trkpt>
      <trkpt lat="47.51632" lon="6.74533">
        <ele>364.6</ele>
        <time>2014-05-01T08:30:19.000Z</time>
      </trkpt>
      <trkpt lat="47.5163" lon="6.74527">
        <ele>364.4</ele>
        <time>2014-05-01T08:30:22.000Z</time>
      </trkpt>
      <trkpt lat="47.5163" lon="6.74525">
        <ele>363.9</ele>
        <time>2014-05-01T08:30:23.000Z</time>
      </trkpt>
      <trkpt lat="47.51629" lon="6.74519">
        <ele>367.4</ele>
        <time>2014-05-01T08:30:26.000Z</time>
      </trkpt>
      <trkpt lat="47.51629" lon="6.74518">
        <ele>366.9</ele>
        <time>2014-05-01T08:30:27.000Z</time>
      </trkpt>
      <trkpt lat="47.51628" lon="6.74512">
        <ele>363.5</ele>
        <time>2014-05-01T08:30:32.000Z</time>
      </trkpt>
      <trkpt lat="47.51627" lon="6.74511">
        <ele>363.3</ele>
        <time>2014-05-01T08:30:33.000Z</time>
      </trkpt>
      <trkpt lat="47.51628" lon="6.74506">
        <ele>363.6</ele>
        <time>2014-05-01T08:30:40.000Z</time>
      </trkpt>
      <trkpt lat="47.51628" lon="6.74504">
        <ele>365.8</ele>
        <time>2014-05-01T08:30:41.000Z</time>
      </trkpt>
      <trkpt lat="47.51626" lon="6.74499">
        <ele>367.7</ele>
        <time>2014-05-01T08:30:44.000Z</time>
      </trkpt>
      <trkpt lat="47.51625" lon="6.74496">
        <ele>367.5</ele>
        <time>2014-05-01T08:30:45.000Z</time>
      </trkpt>
      <trkpt lat="47.51625" lon="6.7449">
        <ele>369.4</ele>
        <time>2014-05-01T08:30:47.000Z</time>
      </trkpt>
      <trkpt lat="47.51625" lon="6.74487">
        <ele>368.8</ele>
        <time>2014-05-01T08:30:48.000Z</time>
      </trkpt>
      <trkpt lat="47.51626" lon="6.74482">
        <ele>371.1</ele>
        <time>2014-05-01T08:30:50.000Z</time>
      </trkpt>
      <trkpt lat="47.51626" lon="6.7448">
        <ele>370</ele>
        <time>2014-05-01T08:30:51.000Z</time>
      </trkpt>
      <trkpt lat="47.51627" lon="6.74475">
        <ele>370</ele>
        <time>2014-05-01T08:30:53.000Z</time>
      </trkpt>
      <trkpt lat="47.51628" lon="6.74473">
        <ele>369.3</ele>
        <time>2014-05-01T08:30:54.000Z</time>
      </trkpt>
      <trkpt lat="47.51628" lon="6.74469">
        <ele>369.8</ele>
        <time>2014-05-01T08:30:55.000Z</time>
      </trkpt>
      <trkpt lat="47.51629" lon="6.74465">
        <ele>368.3</ele>
        <time>2014-05-01T08:30:56.000Z</time>
      </trkpt>
      <trkpt lat="47.51629" lon="6.74461">
        <ele>367.7</ele>
        <time>2014-05-01T08:30:57.000Z</time>
      </trkpt>
      <trkpt lat="47.51629" lon="6.74458">
        <ele>368.4</ele>
        <time>2014-05-01T08:30:58.000Z</time>
      </trkpt>
      <trkpt lat="47.51629" lon="6.74454">
        <ele>367.7</ele>
        <time>2014-05-01T08:30:59.000Z</time>
      </trkpt>
      <trkpt lat="47.5163" lon="6.7445">
        <ele>366.9</ele>
        <time>2014-05-01T08:31:00.000Z</time>
      </trkpt>
      <trkpt lat="47.5163" lon="6.74448">
        <ele>367</ele>
        <time>2014-05-01T08:31:01.000Z</time>
      </trkpt>
      <trkpt lat="47.51631" lon="6.74443">
        <ele>368.7</ele>
        <time>2014-05-01T08:31:02.000Z</time>
      </trkpt>
      <trkpt lat="47.51631" lon="6.74439">
        <ele>369.4</ele>
        <time>2014-05-01T08:31:03.000Z</time>
      </trkpt>
      <trkpt lat="47.51631" lon="6.74435">
        <ele>369.8</ele>
        <time>2014-05-01T08:31:04.000Z</time>
      </trkpt>
      <trkpt lat="47.51631" lon="6.74431">
        <ele>369.5</ele>
        <time>2014-05-01T08:31:05.000Z</time>
      </trkpt>
      <trkpt lat="47.51621" lon="6.74408">
        <ele>376.1</ele>
        <time>2014-05-01T08:31:13.000Z</time>
      </trkpt>
      <trkpt lat="47.5162" lon="6.74406">
        <ele>376.6</ele>
        <time>2014-05-01T08:31:14.000Z</time>
      </trkpt>
      <trkpt lat="47.51619" lon="6.74402">
        <ele>378.7</ele>
        <time>2014-05-01T08:31:15.000Z</time>
      </trkpt>
      <trkpt lat="47.51619" lon="6.74397">
        <ele>377.2</ele>
        <time>2014-05-01T08:31:16.000Z</time>
      </trkpt>
      <trkpt lat="47.51619" lon="6.74392">
        <ele>375.8</ele>
        <time>2014-05-01T08:31:17.000Z</time>
      </trkpt>
      <trkpt lat="47.5162" lon="6.74386">
        <ele>375.3</ele>
        <time>2014-05-01T08:31:18.000Z</time>
      </trkpt>
      <trkpt lat="47.5162" lon="6.74381">
        <ele>375.4</ele>
        <time>2014-05-01T08:31:19.000Z</time>
      </trkpt>
      <trkpt lat="47.51621" lon="6.74376">
        <ele>378.4</ele>
        <time>2014-05-01T08:31:20.000Z</time>
      </trkpt>
      <trkpt lat="47.51621" lon="6.74373">
        <ele>377.4</ele>
        <time>2014-05-01T08:31:21.000Z</time>
      </trkpt>
      <trkpt lat="47.51621" lon="6.74367">
        <ele>376.7</ele>
        <time>2014-05-01T08:31:23.000Z</time>
      </trkpt>
      <trkpt lat="47.51621" lon="6.74364">
        <ele>376.1</ele>
        <time>2014-05-01T08:31:24.000Z</time>
      </trkpt>
      <trkpt lat="47.51622" lon="6.74361">
        <ele>376</ele>
        <time>2014-05-01T08:31:25.000Z</time>
      </trkpt>
      <trkpt lat="47.51623" lon="6.74357">
        <ele>377.5</ele>
        <time>2014-05-01T08:31:26.000Z</time>
      </trkpt>
      <trkpt lat="47.51623" lon="6.74353">
        <ele>377.1</ele>
        <time>2014-05-01T08:31:27.000Z</time>
      </trkpt>
      <trkpt lat="47.51624" lon="6.74348">
        <ele>375.6</ele>
        <time>2014-05-01T08:31:28.000Z</time>
      </trkpt>
      <trkpt lat="47.51626" lon="6.74343">
        <ele>376.4</ele>
        <time>2014-05-01T08:31:29.000Z</time>
      </trkpt>
      <trkpt lat="47.51628" lon="6.74339">
        <ele>375.9</ele>
        <time>2014-05-01T08:31:30.000Z</time>
      </trkpt>
      <trkpt lat="47.5163" lon="6.74335">
        <ele>375.7</ele>
        <time>2014-05-01T08:31:31.000Z</time>
      </trkpt>
      <trkpt lat="47.51632" lon="6.7433">
        <ele>375.9</ele>
        <time>2014-05-01T08:31:32.000Z</time>
      </trkpt>
      <trkpt lat="47.51634" lon="6.74325">
        <ele>372.9</ele>
        <time>2014-05-01T08:31:33.000Z</time>
      </trkpt>
      <trkpt lat="47.51636" lon="6.74321">
        <ele>371.8</ele>
        <time>2014-05-01T08:31:34.000Z</time>
      </trkpt>
      <trkpt lat="47.51637" lon="6.74318">
        <ele>371.7</ele>
        <time>2014-05-01T08:31:35.000Z</time>
      </trkpt>
      <trkpt lat="47.51638" lon="6.74314">
        <ele>372.3</ele>
        <time>2014-05-01T08:31:36.000Z</time>
      </trkpt>
      <trkpt lat="47.51639" lon="6.74308">
        <ele>372</ele>
        <time>2014-05-01T08:31:38.000Z</time>
      </trkpt>
      <trkpt lat="47.51639" lon="6.74304">
        <ele>370.9</ele>
        <time>2014-05-01T08:31:39.000Z</time>
      </trkpt>
      <trkpt lat="47.51639" lon="6.743">
        <ele>370.8</ele>
        <time>2014-05-01T08:31:40.000Z</time>
      </trkpt>
      <trkpt lat="47.51639" lon="6.74297">
        <ele>370.2</ele>
        <time>2014-05-01T08:31:41.000Z</time>
      </trkpt>
      <trkpt lat="47.5164" lon="6.74292">
        <ele>369.7</ele>
        <time>2014-05-01T08:31:42.000Z</time>
      </trkpt>
      <trkpt lat="47.5164" lon="6.74288">
        <ele>373.1</ele>
        <time>2014-05-01T08:31:43.000Z</time>
      </trkpt>
      <trkpt lat="47.51639" lon="6.74283">
        <ele>373</ele>
        <time>2014-05-01T08:31:44.000Z</time>
      </trkpt>
      <trkpt lat="47.51639" lon="6.74279">
        <ele>372.8</ele>
        <time>2014-05-01T08:31:45.000Z</time>
      </trkpt>
      <trkpt lat="47.5164" lon="6.74274">
        <ele>374</ele>
        <time>2014-05-01T08:31:46.000Z</time>
      </trkpt>
      <trkpt lat="47.5164" lon="6.74269">
        <ele>374.8</ele>
        <time>2014-05-01T08:31:47.000Z</time>
      </trkpt>
      <trkpt lat="47.51641" lon="6.74264">
        <ele>373.4</ele>
        <time>2014-05-01T08:31:48.000Z</time>
      </trkpt>
      <trkpt lat="47.51641" lon="6.74261">
        <ele>372.5</ele>
        <time>2014-05-01T08:31:49.000Z</time>
      </trkpt>
      <trkpt lat="47.51641" lon="6.74257">
        <ele>371</ele>
        <time>2014-05-01T08:31:50.000Z</time>
      </trkpt>
      <trkpt lat="47.5164" lon="6.74254">
        <ele>370.5</ele>
        <time>2014-05-01T08:31:51.000Z</time>
      </trkpt>
      <trkpt lat="47.51639" lon="6.7425">
        <ele>373.4</ele>
        <time>2014-05-01T08:31:52.000Z</time>
      </trkpt>
      <trkpt lat="47.51638" lon="6.74246">
        <ele>372.6</ele>
        <time>2014-05-01T08:31:53.000Z</time>
      </trkpt>
      <trkpt lat="47.51638" lon="6.74242">
        <ele>372.6</ele>
        <time>2014-05-01T08:31:54.000Z</time>
      </trkpt>
      <trkpt lat="47.51638" lon="6.74238">
        <ele>371.8</ele>
        <time>2014-05-01T08:31:55.000Z</time>
      </trkpt>
      <trkpt lat="47.51637" lon="6.74235">
        <ele>371.6</ele>
        <time>2014-05-01T08:31:55.999Z</time>
      </trkpt>
      <trkpt lat="47.51639" lon="6.7423">
        <ele>372</ele>
        <time>2014-05-01T08:31:57.000Z</time>
      </trkpt>
      <trkpt lat="47.51641" lon="6.74225">
        <ele>371.8</ele>
        <time>2014-05-01T08:32:00.000Z</time>
      </trkpt>
      <trkpt lat="47.51642" lon="6.74222">
        <ele>370.4</ele>
        <time>2014-05-01T08:32:01.000Z</time>
      </trkpt>
      <trkpt lat="47.51642" lon="6.74221">
        <ele>370.3</ele>
        <time>2014-05-01T08:32:02.000Z</time>
      </trkpt>
      <trkpt lat="47.51643" lon="6.74215">
        <ele>372.3</ele>
        <time>2014-05-01T08:32:03.000Z</time>
      </trkpt>
      <trkpt lat="47.51643" lon="6.74211">
        <ele>373.2</ele>
        <time>2014-05-01T08:32:04.000Z</time>
      </trkpt>
      <trkpt lat="47.51644" lon="6.74207">
        <ele>375.5</ele>
        <time>2014-05-01T08:32:05.000Z</time>
      </trkpt>
      <trkpt lat="47.51642" lon="6.74188">
        <ele>380</ele>
        <time>2014-05-01T08:32:13.000Z</time>
      </trkpt>
      <trkpt lat="47.51642" lon="6.74186">
        <ele>377.9</ele>
        <time>2014-05-01T08:32:14.000Z</time>
      </trkpt>
      <trkpt lat="47.51643" lon="6.7418">
        <ele>377.3</ele>
        <time>2014-05-01T08:32:15.000Z</time>
      </trkpt>
      <trkpt lat="47.51644" lon="6.74176">
        <ele>375.7</ele>
        <time>2014-05-01T08:32:16.000Z</time>
      </trkpt>
      <trkpt lat="47.51645" lon="6.74171">
        <ele>375.4</ele>
        <time>2014-05-01T08:32:17.000Z</time>
      </trkpt>
      <trkpt lat="47.51646" lon="6.74168">
        <ele>374.6</ele>
        <time>2014-05-01T08:32:18.000Z</time>
      </trkpt>
      <trkpt lat="47.51647" lon="6.74162">
        <ele>376</ele>
        <time>2014-05-01T08:32:19.000Z</time>
      </trkpt>
      <trkpt lat="47.51648" lon="6.74158">
        <ele>376.5</ele>
        <time>2014-05-01T08:32:20.000Z</time>
      </trkpt>
      <trkpt lat="47.51649" lon="6.74154">
        <ele>377.7</ele>
        <time>2014-05-01T08:32:21.000Z</time>
      </trkpt>
      <trkpt lat="47.51649" lon="6.74149">
        <ele>378.6</ele>
        <time>2014-05-01T08:32:23.002Z</time>
      </trkpt>
      <trkpt lat="47.5165" lon="6.74146">
        <ele>377.6</ele>
        <time>2014-05-01T08:32:24.000Z</time>
      </trkpt>
      <trkpt lat="47.5165" lon="6.74141">
        <ele>379.4</ele>
        <time>2014-05-01T08:32:26.000Z</time>
      </trkpt>
      <trkpt lat="47.51651" lon="6.74138">
        <ele>380.3</ele>
        <time>2014-05-01T08:32:27.000Z</time>
      </trkpt>
      <trkpt lat="47.51652" lon="6.74132">
        <ele>383.1</ele>
        <time>2014-05-01T08:32:30.000Z</time>
      </trkpt>
      <trkpt lat="47.51652" lon="6.7413">
        <ele>383.4</ele>
        <time>2014-05-01T08:32:31.000Z</time>
      </trkpt>
      <trkpt lat="47.51653" lon="6.74124">
        <ele>388.3</ele>
        <time>2014-05-01T08:32:35.000Z</time>
      </trkpt>
      <trkpt lat="47.51653" lon="6.74123">
        <ele>388</ele>
        <time>2014-05-01T08:32:36.000Z</time>
      </trkpt>
      <trkpt lat="47.51656" lon="6.74118">
        <ele>391.4</ele>
        <time>2014-05-01T08:32:40.000Z</time>
      </trkpt>
      <trkpt lat="47.51656" lon="6.74116">
        <ele>390.9</ele>
        <time>2014-05-01T08:32:41.000Z</time>
      </trkpt>
      <trkpt lat="47.51659" lon="6.74113">
        <ele>390.7</ele>
        <time>2014-05-01T08:32:43.000Z</time>
      </trkpt>
      <trkpt lat="47.5166" lon="6.74111">
        <ele>390.6</ele>
        <time>2014-05-01T08:32:44.000Z</time>
      </trkpt>
      <trkpt lat="47.51662" lon="6.74107">
        <ele>390.5</ele>
        <time>2014-05-01T08:32:46.000Z</time>
      </trkpt>
      <trkpt lat="47.51662" lon="6.74105">
        <ele>390.5</ele>
        <time>2014-05-01T08:32:47.000Z</time>
      </trkpt>
      <trkpt lat="47.51665" lon="6.741">
        <ele>394.8</ele>
        <time>2014-05-01T08:32:50.000Z</time>
      </trkpt>
      <trkpt lat="47.51666" lon="6.74099">
        <ele>397</ele>
        <time>2014-05-01T08:32:51.000Z</time>
      </trkpt>
      <trkpt lat="47.51669" lon="6.74096">
        <ele>400.6</ele>
        <time>2014-05-01T08:32:53.000Z</time>
      </trkpt>
      <trkpt lat="47.5167" lon="6.74095">
        <ele>402.4</ele>
        <time>2014-05-01T08:32:53.999Z</time>
      </trkpt>
      <trkpt lat="47.51674" lon="6.74091">
        <ele>398.8</ele>
        <time>2014-05-01T08:32:54.999Z</time>
      </trkpt>
      <trkpt lat="47.51676" lon="6.74088">
        <ele>399.1</ele>
        <time>2014-05-01T08:32:56.000Z</time>
      </trkpt>
      <trkpt lat="47.51677" lon="6.74086">
        <ele>402.3</ele>
        <time>2014-05-01T08:32:57.000Z</time>
      </trkpt>
      <trkpt lat="47.51678" lon="6.74082">
        <ele>399.8</ele>
        <time>2014-05-01T08:32:58.000Z</time>
      </trkpt>
      <trkpt lat="47.51679" lon="6.74079">
        <ele>399.2</ele>
        <time>2014-05-01T08:32:59.000Z</time>
      </trkpt>
      <trkpt lat="47.5168" lon="6.74074">
        <ele>398.4</ele>
        <time>2014-05-01T08:33:00.000Z</time>
      </trkpt>
      <trkpt lat="47.51681" lon="6.74071">
        <ele>398.8</ele>
        <time>2014-05-01T08:33:03.000Z</time>
      </trkpt>
      <trkpt lat="47.51684" lon="6.74069">
        <ele>399.2</ele>
        <time>2014-05-01T08:33:04.000Z</time>
      </trkpt>
      <trkpt lat="47.51685" lon="6.74068">
        <ele>399.2</ele>
        <time>2014-05-01T08:33:05.000Z</time>
      </trkpt>
      <trkpt lat="47.51693" lon="6.74051">
        <ele>400.5</ele>
        <time>2014-05-01T08:33:13.000Z</time>
      </trkpt>
      <trkpt lat="47.51694" lon="6.74046">
        <ele>403.6</ele>
        <time>2014-05-01T08:33:16.999Z</time>
      </trkpt>
      <trkpt lat="47.51695" lon="6.74044">
        <ele>402</ele>
        <time>2014-05-01T08:33:18.001Z</time>
      </trkpt>
      <trkpt lat="47.51695" lon="6.7404">
        <ele>401.4</ele>
        <time>2014-05-01T08:33:19.000Z</time>
      </trkpt>
      <trkpt lat="47.51696" lon="6.74037">
        <ele>401.1</ele>
        <time>2014-05-01T08:33:20.000Z</time>
      </trkpt>
      <trkpt lat="47.51697" lon="6.74034">
        <ele>399.6</ele>
        <time>2014-05-01T08:33:21.000Z</time>
      </trkpt>
      <trkpt lat="47.51699" lon="6.74031">
        <ele>398.8</ele>
        <time>2014-05-01T08:33:22.000Z</time>
      </trkpt>
      <trkpt lat="47.517" lon="6.74029">
        <ele>398.4</ele>
        <time>2014-05-01T08:33:23.000Z</time>
      </trkpt>
      <trkpt lat="47.51702" lon="6.74025">
        <ele>398.3</ele>
        <time>2014-05-01T08:33:24.000Z</time>
      </trkpt>
      <trkpt lat="47.51703" lon="6.74021">
        <ele>397.9</ele>
        <time>2014-05-01T08:33:25.000Z</time>
      </trkpt>
      <trkpt lat="47.51704" lon="6.74018">
        <ele>399.1</ele>
        <time>2014-05-01T08:33:26.000Z</time>
      </trkpt>
      <trkpt lat="47.51706" lon="6.74013">
        <ele>399.8</ele>
        <time>2014-05-01T08:33:29.000Z</time>
      </trkpt>
      <trkpt lat="47.51706" lon="6.74012">
        <ele>399.6</ele>
        <time>2014-05-01T08:33:30.000Z</time>
      </trkpt>
      <trkpt lat="47.51708" lon="6.74008">
        <ele>400</ele>
        <time>2014-05-01T08:33:33.000Z</time>
      </trkpt>
      <trkpt lat="47.51709" lon="6.74006">
        <ele>401.8</ele>
        <time>2014-05-01T08:33:34.000Z</time>
      </trkpt>
      <trkpt lat="47.5171" lon="6.74001">
        <ele>402.9</ele>
        <time>2014-05-01T08:33:36.000Z</time>
      </trkpt>
      <trkpt lat="47.5171" lon="6.73999">
        <ele>402.8</ele>
        <time>2014-05-01T08:33:37.000Z</time>
      </trkpt>
      <trkpt lat="47.51712" lon="6.73994">
        <ele>405.8</ele>
        <time>2014-05-01T08:33:39.000Z</time>
      </trkpt>
      <trkpt lat="47.51712" lon="6.73992">
        <ele>405.7</ele>
        <time>2014-05-01T08:33:40.000Z</time>
      </trkpt>
      <trkpt lat="47.51715" lon="6.73987">
        <ele>407.7</ele>
        <time>2014-05-01T08:33:42.000Z</time>
      </trkpt>
      <trkpt lat="47.51716" lon="6.73985">
        <ele>409.1</ele>
        <time>2014-05-01T08:33:43.000Z</time>
      </trkpt>
      <trkpt lat="47.51718" lon="6.7398">
        <ele>407.9</ele>
        <time>2014-05-01T08:33:46.000Z</time>
      </trkpt>
      <trkpt lat="47.51718" lon="6.73978">
        <ele>409.2</ele>
        <time>2014-05-01T08:33:47.000Z</time>
      </trkpt>
      <trkpt lat="47.5172" lon="6.73973">
        <ele>410.4</ele>
        <time>2014-05-01T08:33:49.000Z</time>
      </trkpt>
      <trkpt lat="47.51721" lon="6.7397">
        <ele>409.7</ele>
        <time>2014-05-01T08:33:50.001Z</time>
      </trkpt>
      <trkpt lat="47.51723" lon="6.73965">
        <ele>408.9</ele>
        <time>2014-05-01T08:33:52.000Z</time>
      </trkpt>
      <trkpt lat="47.51723" lon="6.73963">
        <ele>408.3</ele>
        <time>2014-05-01T08:33:53.000Z</time>
      </trkpt>
      <trkpt lat="47.51724" lon="6.73957">
        <ele>409.1</ele>
        <time>2014-05-01T08:33:56.001Z</time>
      </trkpt>
      <trkpt lat="47.51725" lon="6.73955">
        <ele>410</ele>
        <time>2014-05-01T08:33:57.000Z</time>
      </trkpt>
      <trkpt lat="47.51726" lon="6.73949">
        <ele>410.9</ele>
        <time>2014-05-01T08:34:00.000Z</time>
      </trkpt>
      <trkpt lat="47.51726" lon="6.73948">
        <ele>412</ele>
        <time>2014-05-01T08:34:00.999Z</time>
      </trkpt>
      <trkpt lat="47.51725" lon="6.73945">
        <ele>419.1</ele>
        <time>2014-05-01T08:34:05.000Z</time>
      </trkpt>
      <trkpt lat="47.51724" lon="6.73941">
        <ele>415.4</ele>
        <time>2014-05-01T08:34:13.000Z</time>
      </trkpt>
      <trkpt lat="47.51725" lon="6.73935">
        <ele>412.9</ele>
        <time>2014-05-01T08:34:14.999Z</time>
      </trkpt>
      <trkpt lat="47.51727" lon="6.73929">
        <ele>414</ele>
        <time>2014-05-01T08:34:16.000Z</time>
      </trkpt>
      <trkpt lat="47.51728" lon="6.73928">
        <ele>415.4</ele>
        <time>2014-05-01T08:34:16.999Z</time>
      </trkpt>
      <trkpt lat="47.51731" lon="6.73922">
        <ele>413.1</ele>
        <time>2014-05-01T08:34:18.000Z</time>
      </trkpt>
      <trkpt lat="47.51733" lon="6.73918">
        <ele>412.3</ele>
        <time>2014-05-01T08:34:19.000Z</time>
      </trkpt>
      <trkpt lat="47.51736" lon="6.73913">
        <ele>411</ele>
        <time>2014-05-01T08:34:20.000Z</time>
      </trkpt>
      <trkpt lat="47.51738" lon="6.73908">
        <ele>411.4</ele>
        <time>2014-05-01T08:34:21.000Z</time>
      </trkpt>
      <trkpt lat="47.5174" lon="6.73906">
        <ele>411.6</ele>
        <time>2014-05-01T08:34:22.000Z</time>
      </trkpt>
      <trkpt lat="47.51743" lon="6.739">
        <ele>409</ele>
        <time>2014-05-01T08:34:23.000Z</time>
      </trkpt>
      <trkpt lat="47.51745" lon="6.73897">
        <ele>410.7</ele>
        <time>2014-05-01T08:34:24.000Z</time>
      </trkpt>
      <trkpt lat="47.51747" lon="6.73895">
        <ele>410.5</ele>
        <time>2014-05-01T08:34:24.999Z</time>
      </trkpt>
      <trkpt lat="47.51749" lon="6.73891">
        <ele>409.5</ele>
        <time>2014-05-01T08:34:26.000Z</time>
      </trkpt>
      <trkpt lat="47.51751" lon="6.73888">
        <ele>408.9</ele>
        <time>2014-05-01T08:34:27.000Z</time>
      </trkpt>
      <trkpt lat="47.51754" lon="6.73884">
        <ele>407</ele>
        <time>2014-05-01T08:34:29.000Z</time>
      </trkpt>
      <trkpt lat="47.51757" lon="6.7388">
        <ele>408.1</ele>
        <time>2014-05-01T08:34:30.000Z</time>
      </trkpt>
      <trkpt lat="47.51757" lon="6.73875">
        <ele>409.9</ele>
        <time>2014-05-01T08:34:32.000Z</time>
      </trkpt>
      <trkpt lat="47.51757" lon="6.73873">
        <ele>409.1</ele>
        <time>2014-05-01T08:34:33.000Z</time>
      </trkpt>
      <trkpt lat="47.51757" lon="6.73867">
        <ele>410.9</ele>
        <time>2014-05-01T08:34:35.000Z</time>
      </trkpt>
      <trkpt lat="47.51757" lon="6.73865">
        <ele>411.9</ele>
        <time>2014-05-01T08:34:36.000Z</time>
      </trkpt>
      <trkpt lat="47.51756" lon="6.73859">
        <ele>415.2</ele>
        <time>2014-05-01T08:34:39.000Z</time>
      </trkpt>
      <trkpt lat="47.51756" lon="6.73857">
        <ele>415.9</ele>
        <time>2014-05-01T08:34:40.000Z</time>
      </trkpt>
      <trkpt lat="47.51756" lon="6.73852">
        <ele>415.9</ele>
        <time>2014-05-01T08:34:42.000Z</time>
      </trkpt>
      <trkpt lat="47.51757" lon="6.73849">
        <ele>416.5</ele>
        <time>2014-05-01T08:34:43.000Z</time>
      </trkpt>
      <trkpt lat="47.51758" lon="6.73843">
        <ele>417.8</ele>
        <time>2014-05-01T08:34:45.000Z</time>
      </trkpt>
      <trkpt lat="47.5176" lon="6.73839">
        <ele>417.2</ele>
        <time>2014-05-01T08:34:46.000Z</time>
      </trkpt>
      <trkpt lat="47.51761" lon="6.73833">
        <ele>412.9</ele>
        <time>2014-05-01T08:34:48.000Z</time>
      </trkpt>
      <trkpt lat="47.51761" lon="6.7383">
        <ele>412.9</ele>
        <time>2014-05-01T08:34:49.000Z</time>
      </trkpt>
      <trkpt lat="47.51761" lon="6.73827">
        <ele>414.1</ele>
        <time>2014-05-01T08:34:50.000Z</time>
      </trkpt>
      <trkpt lat="47.51762" lon="6.73823">
        <ele>414.5</ele>
        <time>2014-05-01T08:34:51.000Z</time>
      </trkpt>
      <trkpt lat="47.51763" lon="6.73817">
        <ele>414.5</ele>
        <time>2014-05-01T08:34:53.000Z</time>
      </trkpt>
      <trkpt lat="47.51763" lon="6.73814">
        <ele>414</ele>
        <time>2014-05-01T08:34:54.000Z</time>
      </trkpt>
      <trkpt lat="47.51764" lon="6.73809">
        <ele>417.7</ele>
        <time>2014-05-01T08:34:56.000Z</time>
      </trkpt>
      <trkpt lat="47.51765" lon="6.73806">
        <ele>420.4</ele>
        <time>2014-05-01T08:34:57.000Z</time>
      </trkpt>
      <trkpt lat="47.51766" lon="6.738">
        <ele>422.1</ele>
        <time>2014-05-01T08:34:59.000Z</time>
      </trkpt>
      <trkpt lat="47.51766" lon="6.73797">
        <ele>422.3</ele>
        <time>2014-05-01T08:35:00.000Z</time>
      </trkpt>
      <trkpt lat="47.51765" lon="6.73791">
        <ele>421.6</ele>
        <time>2014-05-01T08:35:02.000Z</time>
      </trkpt>
      <trkpt lat="47.51765" lon="6.73787">
        <ele>421.6</ele>
        <time>2014-05-01T08:35:03.000Z</time>
      </trkpt>
      <trkpt lat="47.51764" lon="6.73784">
        <ele>420.5</ele>
        <time>2014-05-01T08:35:04.000Z</time>
      </trkpt>
      <trkpt lat="47.51763" lon="6.7378">
        <ele>420.9</ele>
        <time>2014-05-01T08:35:05.000Z</time>
      </trkpt>
      <trkpt lat="47.51763" lon="6.73759">
        <ele>421.4</ele>
        <time>2014-05-01T08:35:13.000Z</time>
      </trkpt>
      <trkpt lat="47.51762" lon="6.73754">
        <ele>420.4</ele>
        <time>2014-05-01T08:35:15.000Z</time>
      </trkpt>
      <trkpt lat="47.51762" lon="6.73751">
        <ele>420.2</ele>
        <time>2014-05-01T08:35:16.000Z</time>
      </trkpt>
      <trkpt lat="47.51763" lon="6.73747">
        <ele>422.4</ele>
        <time>2014-05-01T08:35:18.000Z</time>
      </trkpt>
      <trkpt lat="47.51764" lon="6.73745">
        <ele>425</ele>
        <time>2014-05-01T08:35:19.000Z</time>
      </trkpt>
      <trkpt lat="47.51766" lon="6.73742">
        <ele>426.2</ele>
        <time>2014-05-01T08:35:20.000Z</time>
      </trkpt>
      <trkpt lat="47.51767" lon="6.73739">
        <ele>426.5</ele>
        <time>2014-05-01T08:35:21.000Z</time>
      </trkpt>
      <trkpt lat="47.51768" lon="6.73735">
        <ele>426.7</ele>
        <time>2014-05-01T08:35:23.000Z</time>
      </trkpt>
      <trkpt lat="47.51768" lon="6.73732">
        <ele>427.7</ele>
        <time>2014-05-01T08:35:24.000Z</time>
      </trkpt>
      <trkpt lat="47.5177" lon="6.73729">
        <ele>430.4</ele>
        <time>2014-05-01T08:35:26.000Z</time>
      </trkpt>
      <trkpt lat="47.51771" lon="6.73727">
        <ele>430.1</ele>
        <time>2014-05-01T08:35:27.000Z</time>
      </trkpt>
      <trkpt lat="47.51772" lon="6.73724">
        <ele>430.3</ele>
        <time>2014-05-01T08:35:29.000Z</time>
      </trkpt>
      <trkpt lat="47.51773" lon="6.73721">
        <ele>430.8</ele>
        <time>2014-05-01T08:35:30.000Z</time>
      </trkpt>
      <trkpt lat="47.51775" lon="6.73717">
        <ele>430.9</ele>
        <time>2014-05-01T08:35:32.000Z</time>
      </trkpt>
      <trkpt lat="47.51776" lon="6.73714">
        <ele>430.1</ele>
        <time>2014-05-01T08:35:33.000Z</time>
      </trkpt>
      <trkpt lat="47.51778" lon="6.73708">
        <ele>429.4</ele>
        <time>2014-05-01T08:35:35.000Z</time>
      </trkpt>
      <trkpt lat="47.51779" lon="6.73706">
        <ele>432.4</ele>
        <time>2014-05-01T08:35:36.000Z</time>
      </trkpt>
      <trkpt lat="47.51782" lon="6.73701">
        <ele>434</ele>
        <time>2014-05-01T08:35:38.000Z</time>
      </trkpt>
      <trkpt lat="47.51783" lon="6.73699">
        <ele>434.5</ele>
        <time>2014-05-01T08:35:39.000Z</time>
      </trkpt>
      <trkpt lat="47.51785" lon="6.73693">
        <ele>435.8</ele>
        <time>2014-05-01T08:35:41.000Z</time>
      </trkpt>
      <trkpt lat="47.51786" lon="6.7369">
        <ele>435.7</ele>
        <time>2014-05-01T08:35:42.000Z</time>
      </trkpt>
      <trkpt lat="47.51787" lon="6.73684">
        <ele>435.2</ele>
        <time>2014-05-01T08:35:44.000Z</time>
      </trkpt>
      <trkpt lat="47.51787" lon="6.73682">
        <ele>435.8</ele>
        <time>2014-05-01T08:35:45.000Z</time>
      </trkpt>
      <trkpt lat="47.51787" lon="6.73676">
        <ele>436</ele>
        <time>2014-05-01T08:35:46.999Z</time>
      </trkpt>
      <trkpt lat="47.51788" lon="6.73674">
        <ele>436.4</ele>
        <time>2014-05-01T08:35:48.000Z</time>
      </trkpt>
      <trkpt lat="47.51787" lon="6.73668">
        <ele>436.1</ele>
        <time>2014-05-01T08:35:53.000Z</time>
      </trkpt>
      <trkpt lat="47.51788" lon="6.73665">
        <ele>434.5</ele>
        <time>2014-05-01T08:35:54.000Z</time>
      </trkpt>
      <trkpt lat="47.51788" lon="6.73662">
        <ele>436.1</ele>
        <time>2014-05-01T08:35:55.000Z</time>
      </trkpt>
      <trkpt lat="47.51788" lon="6.73658">
        <ele>434.8</ele>
        <time>2014-05-01T08:35:56.000Z</time>
      </trkpt>
      <trkpt lat="47.51787" lon="6.73654">
        <ele>433.6</ele>
        <time>2014-05-01T08:35:57.000Z</time>
      </trkpt>
      <trkpt lat="47.51786" lon="6.7365">
        <ele>434.2</ele>
        <time>2014-05-01T08:35:58.000Z</time>
      </trkpt>
      <trkpt lat="47.51785" lon="6.73646">
        <ele>433.9</ele>
        <time>2014-05-01T08:35:59.000Z</time>
      </trkpt>
      <trkpt lat="47.51783" lon="6.73641">
        <ele>433.9</ele>
        <time>2014-05-01T08:36:00.000Z</time>
      </trkpt>
      <trkpt lat="47.5178" lon="6.73636">
        <ele>431.7</ele>
        <time>2014-05-01T08:36:01.000Z</time>
      </trkpt>
      <trkpt lat="47.51777" lon="6.73632">
        <ele>432.3</ele>
        <time>2014-05-01T08:36:02.000Z</time>
      </trkpt>
      <trkpt lat="47.51774" lon="6.73627">
        <ele>431.2</ele>
        <time>2014-05-01T08:36:03.000Z</time>
      </trkpt>
      <trkpt lat="47.51771" lon="6.73623">
        <ele>429.6</ele>
        <time>2014-05-01T08:36:04.000Z</time>
      </trkpt>
      <trkpt lat="47.51768" lon="6.7362">
        <ele>429.7</ele>
        <time>2014-05-01T08:36:05.000Z</time>
      </trkpt>
      <trkpt lat="47.51749" lon="6.73603">
        <ele>426</ele>
        <time>2014-05-01T08:36:13.000Z</time>
      </trkpt>
      <trkpt lat="47.51746" lon="6.73602">
        <ele>423.2</ele>
        <time>2014-05-01T08:36:14.000Z</time>
      </trkpt>
      <trkpt lat="47.51742" lon="6.73602">
        <ele>421.7</ele>
        <time>2014-05-01T08:36:15.000Z</time>
      </trkpt>
      <trkpt lat="47.5174" lon="6.73603">
        <ele>421.5</ele>
        <time>2014-05-01T08:36:16.000Z</time>
      </trkpt>
      <trkpt lat="47.51737" lon="6.73603">
        <ele>420.7</ele>
        <time>2014-05-01T08:36:17.000Z</time>
      </trkpt>
      <trkpt lat="47.51735" lon="6.73603">
        <ele>419.9</ele>
        <time>2014-05-01T08:36:18.000Z</time>
      </trkpt>
      <trkpt lat="47.51732" lon="6.73602">
        <ele>419.9</ele>
        <time>2014-05-01T08:36:19.000Z</time>
      </trkpt>
      <trkpt lat="47.51729" lon="6.73601">
        <ele>419.1</ele>
        <time>2014-05-01T08:36:20.000Z</time>
      </trkpt>
      <trkpt lat="47.51725" lon="6.736">
        <ele>418.6</ele>
        <time>2014-05-01T08:36:21.000Z</time>
      </trkpt>
      <trkpt lat="47.51723" lon="6.73599">
        <ele>417.1</ele>
        <time>2014-05-01T08:36:22.000Z</time>
      </trkpt>
      <trkpt lat="47.5172" lon="6.73598">
        <ele>416.4</ele>
        <time>2014-05-01T08:36:23.000Z</time>
      </trkpt>
      <trkpt lat="47.51717" lon="6.73595">
        <ele>419.4</ele>
        <time>2014-05-01T08:36:25.000Z</time>
      </trkpt>
      <trkpt lat="47.51715" lon="6.73592">
        <ele>418.3</ele>
        <time>2014-05-01T08:36:26.000Z</time>
      </trkpt>
      <trkpt lat="47.51713" lon="6.73589">
        <ele>418</ele>
        <time>2014-05-01T08:36:27.000Z</time>
      </trkpt>
      <trkpt lat="47.51711" lon="6.73586">
        <ele>416.2</ele>
        <time>2014-05-01T08:36:28.000Z</time>
      </trkpt>
      <trkpt lat="47.51709" lon="6.73583">
        <ele>419</ele>
        <time>2014-05-01T08:36:29.000Z</time>
      </trkpt>
      <trkpt lat="47.51706" lon="6.73579">
        <ele>420.4</ele>
        <time>2014-05-01T08:36:30.000Z</time>
      </trkpt>
      <trkpt lat="47.51704" lon="6.73577">
        <ele>420.9</ele>
        <time>2014-05-01T08:36:31.000Z</time>
      </trkpt>
      <trkpt lat="47.51701" lon="6.73574">
        <ele>422.4</ele>
        <time>2014-05-01T08:36:32.000Z</time>
      </trkpt>
      <trkpt lat="47.51698" lon="6.73571">
        <ele>423.6</ele>
        <time>2014-05-01T08:36:33.000Z</time>
      </trkpt>
      <trkpt lat="47.51696" lon="6.73567">
        <ele>424.7</ele>
        <time>2014-05-01T08:36:34.000Z</time>
      </trkpt>
      <trkpt lat="47.51694" lon="6.73564">
        <ele>425.6</ele>
        <time>2014-05-01T08:36:35.000Z</time>
      </trkpt>
      <trkpt lat="47.51691" lon="6.73561">
        <ele>425.1</ele>
        <time>2014-05-01T08:36:36.000Z</time>
      </trkpt>
      <trkpt lat="47.51689" lon="6.73558">
        <ele>425.2</ele>
        <time>2014-05-01T08:36:37.000Z</time>
      </trkpt>
      <trkpt lat="47.51685" lon="6.73556">
        <ele>424.9</ele>
        <time>2014-05-01T08:36:38.000Z</time>
      </trkpt>
      <trkpt lat="47.51682" lon="6.73554">
        <ele>425</ele>
        <time>2014-05-01T08:36:39.000Z</time>
      </trkpt>
      <trkpt lat="47.51679" lon="6.73551">
        <ele>431.1</ele>
        <time>2014-05-01T08:36:40.000Z</time>
      </trkpt>
      <trkpt lat="47.51677" lon="6.73547">
        <ele>434</ele>
        <time>2014-05-01T08:36:41.000Z</time>
      </trkpt>
      <trkpt lat="47.51674" lon="6.73544">
        <ele>435.5</ele>
        <time>2014-05-01T08:36:42.000Z</time>
      </trkpt>
      <trkpt lat="47.51672" lon="6.73541">
        <ele>437</ele>
        <time>2014-05-01T08:36:43.000Z</time>
      </trkpt>
      <trkpt lat="47.51669" lon="6.73537">
        <ele>437.7</ele>
        <time>2014-05-01T08:36:44.000Z</time>
      </trkpt>
      <trkpt lat="47.51667" lon="6.73536">
        <ele>436.9</ele>
        <time>2014-05-01T08:36:45.000Z</time>
      </trkpt>
      <trkpt lat="47.51664" lon="6.73534">
        <ele>437.3</ele>
        <time>2014-05-01T08:36:46.000Z</time>
      </trkpt>
      <trkpt lat="47.51661" lon="6.73534">
        <ele>440.9</ele>
        <time>2014-05-01T08:36:47.000Z</time>
      </trkpt>
      <trkpt lat="47.51659" lon="6.73534">
        <ele>439</ele>
        <time>2014-05-01T08:36:48.000Z</time>
      </trkpt>
      <trkpt lat="47.51657" lon="6.73534">
        <ele>439.3</ele>
        <time>2014-05-01T08:36:49.000Z</time>
      </trkpt>
      <trkpt lat="47.51654" lon="6.73534">
        <ele>439.8</ele>
        <time>2014-05-01T08:36:50.000Z</time>
      </trkpt>
      <trkpt lat="47.51652" lon="6.73533">
        <ele>440.2</ele>
        <time>2014-05-01T08:36:51.000Z</time>
      </trkpt>
      <trkpt lat="47.51649" lon="6.73533">
        <ele>442</ele>
        <time>2014-05-01T08:36:52.000Z</time>
      </trkpt>
      <trkpt lat="47.51647" lon="6.73532">
        <ele>442.8</ele>
        <time>2014-05-01T08:36:53.000Z</time>
      </trkpt>
      <trkpt lat="47.51644" lon="6.73531">
        <ele>443.5</ele>
        <time>2014-05-01T08:36:54.000Z</time>
      </trkpt>
      <trkpt lat="47.51642" lon="6.7353">
        <ele>444.5</ele>
        <time>2014-05-01T08:36:55.000Z</time>
      </trkpt>
      <trkpt lat="47.51639" lon="6.73529">
        <ele>445.7</ele>
        <time>2014-05-01T08:36:56.000Z</time>
      </trkpt>
      <trkpt lat="47.51635" lon="6.73529">
        <ele>444.3</ele>
        <time>2014-05-01T08:36:58.000Z</time>
      </trkpt>
      <trkpt lat="47.51632" lon="6.73529">
        <ele>444.3</ele>
        <time>2014-05-01T08:36:59.000Z</time>
      </trkpt>
      <trkpt lat="47.5163" lon="6.73529">
        <ele>444.6</ele>
        <time>2014-05-01T08:37:00.000Z</time>
      </trkpt>
      <trkpt lat="47.51628" lon="6.73529">
        <ele>445</ele>
        <time>2014-05-01T08:37:01.000Z</time>
      </trkpt>
      <trkpt lat="47.51626" lon="6.73529">
        <ele>445.2</ele>
        <time>2014-05-01T08:37:02.000Z</time>
      </trkpt>
      <trkpt lat="47.51623" lon="6.73529">
        <ele>445.7</ele>
        <time>2014-05-01T08:37:03.000Z</time>
      </trkpt>
      <trkpt lat="47.5162" lon="6.73529">
        <ele>445.6</ele>
        <time>2014-05-01T08:37:04.000Z</time>
      </trkpt>
      <trkpt lat="47.51618" lon="6.73527">
        <ele>446.9</ele>
        <time>2014-05-01T08:37:05.000Z</time>
      </trkpt>
      <trkpt lat="47.516" lon="6.73512">
        <ele>441.1</ele>
        <time>2014-05-01T08:37:13.000Z</time>
      </trkpt>
      <trkpt lat="47.51597" lon="6.73516">
        <ele>438.9</ele>
        <time>2014-05-01T08:37:15.000Z</time>
      </trkpt>
      <trkpt lat="47.51595" lon="6.73515">
        <ele>439.4</ele>
        <time>2014-05-01T08:37:15.999Z</time>
      </trkpt>
      <trkpt lat="47.51592" lon="6.73513">
        <ele>445</ele>
        <time>2014-05-01T08:37:17.000Z</time>
      </trkpt>
      <trkpt lat="47.51589" lon="6.73513">
        <ele>445.3</ele>
        <time>2014-05-01T08:37:18.000Z</time>
      </trkpt>
      <trkpt lat="47.51586" lon="6.73512">
        <ele>445.4</ele>
        <time>2014-05-01T08:37:19.000Z</time>
      </trkpt>
      <trkpt lat="47.51583" lon="6.73512">
        <ele>445.8</ele>
        <time>2014-05-01T08:37:20.000Z</time>
      </trkpt>
      <trkpt lat="47.5158" lon="6.73512">
        <ele>446</ele>
        <time>2014-05-01T08:37:21.000Z</time>
      </trkpt>
      <trkpt lat="47.51577" lon="6.73512">
        <ele>446</ele>
        <time>2014-05-01T08:37:22.000Z</time>
      </trkpt>
      <trkpt lat="47.51575" lon="6.7351">
        <ele>446.5</ele>
        <time>2014-05-01T08:37:23.000Z</time>
      </trkpt>
      <trkpt lat="47.51572" lon="6.73508">
        <ele>447</ele>
        <time>2014-05-01T08:37:24.000Z</time>
      </trkpt>
      <trkpt lat="47.51567" lon="6.73508">
        <ele>446.8</ele>
        <time>2014-05-01T08:37:26.000Z</time>
      </trkpt>
      <trkpt lat="47.51565" lon="6.73507">
        <ele>447.1</ele>
        <time>2014-05-01T08:37:27.000Z</time>
      </trkpt>
      <trkpt lat="47.51563" lon="6.73506">
        <ele>448</ele>
        <time>2014-05-01T08:37:28.000Z</time>
      </trkpt>
      <trkpt lat="47.5156" lon="6.73505">
        <ele>448.5</ele>
        <time>2014-05-01T08:37:29.000Z</time>
      </trkpt>
      <trkpt lat="47.51557" lon="6.73504">
        <ele>448.6</ele>
        <time>2014-05-01T08:37:30.000Z</time>
      </trkpt>
      <trkpt lat="47.51554" lon="6.73503">
        <ele>448.2</ele>
        <time>2014-05-01T08:37:31.000Z</time>
      </trkpt>
      <trkpt lat="47.51551" lon="6.73502">
        <ele>446.5</ele>
        <time>2014-05-01T08:37:32.000Z</time>
      </trkpt>
      <trkpt lat="47.51548" lon="6.73501">
        <ele>446.2</ele>
        <time>2014-05-01T08:37:33.000Z</time>
      </trkpt>
      <trkpt lat="47.51545" lon="6.73501">
        <ele>446</ele>
        <time>2014-05-01T08:37:34.000Z</time>
      </trkpt>
      <trkpt lat="47.5154" lon="6.735">
        <ele>447.9</ele>
        <time>2014-05-01T08:37:35.000Z</time>
      </trkpt>
      <trkpt lat="47.51535" lon="6.73499">
        <ele>448</ele>
        <time>2014-05-01T08:37:36.000Z</time>
      </trkpt>
      <trkpt lat="47.51531" lon="6.73498">
        <ele>448</ele>
        <time>2014-05-01T08:37:37.000Z</time>
      </trkpt>
      <trkpt lat="47.51528" lon="6.73499">
        <ele>446.4</ele>
        <time>2014-05-01T08:37:38.000Z</time>
      </trkpt>
      <trkpt lat="47.51524" lon="6.73499">
        <ele>445.3</ele>
        <time>2014-05-01T08:37:39.000Z</time>
      </trkpt>
      <trkpt lat="47.51522" lon="6.73499">
        <ele>445.2</ele>
        <time>2014-05-01T08:37:40.000Z</time>
      </trkpt>
      <trkpt lat="47.51519" lon="6.73499">
        <ele>445.2</ele>
        <time>2014-05-01T08:37:41.000Z</time>
      </trkpt>
      <trkpt lat="47.51513" lon="6.73494">
        <ele>446.7</ele>
        <time>2014-05-01T08:37:42.000Z</time>
      </trkpt>
      <trkpt lat="47.51509" lon="6.73491">
        <ele>446.9</ele>
        <time>2014-05-01T08:37:43.000Z</time>
      </trkpt>
      <trkpt lat="47.51505" lon="6.73489">
        <ele>449.1</ele>
        <time>2014-05-01T08:37:44.000Z</time>
      </trkpt>
      <trkpt lat="47.51503" lon="6.73487">
        <ele>451.2</ele>
        <time>2014-05-01T08:37:45.000Z</time>
      </trkpt>
      <trkpt lat="47.515" lon="6.73486">
        <ele>452.6</ele>
        <time>2014-05-01T08:37:46.000Z</time>
      </trkpt>
      <trkpt lat="47.51497" lon="6.73486">
        <ele>452</ele>
        <time>2014-05-01T08:37:47.000Z</time>
      </trkpt>
      <trkpt lat="47.51494" lon="6.73483">
        <ele>452.7</ele>
        <time>2014-05-01T08:37:47.999Z</time>
      </trkpt>
      <trkpt lat="47.51491" lon="6.7348">
        <ele>455.2</ele>
        <time>2014-05-01T08:37:49.000Z</time>
      </trkpt>
      <trkpt lat="47.51487" lon="6.73478">
        <ele>456.4</ele>
        <time>2014-05-01T08:37:50.000Z</time>
      </trkpt>
      <trkpt lat="47.51484" lon="6.73474">
        <ele>460.3</ele>
        <time>2014-05-01T08:37:51.000Z</time>
      </trkpt>
      <trkpt lat="47.51482" lon="6.7347">
        <ele>463</ele>
        <time>2014-05-01T08:37:52.000Z</time>
      </trkpt>
      <trkpt lat="47.51479" lon="6.73469">
        <ele>461.6</ele>
        <time>2014-05-01T08:37:53.000Z</time>
      </trkpt>
      <trkpt lat="47.51476" lon="6.7347">
        <ele>458.6</ele>
        <time>2014-05-01T08:37:55.000Z</time>
      </trkpt>
      <trkpt lat="47.51474" lon="6.7347">
        <ele>458.4</ele>
        <time>2014-05-01T08:37:56.000Z</time>
      </trkpt>
      <trkpt lat="47.51471" lon="6.73471">
        <ele>458.4</ele>
        <time>2014-05-01T08:37:57.000Z</time>
      </trkpt>
      <trkpt lat="47.51469" lon="6.7347">
        <ele>458.2</ele>
        <time>2014-05-01T08:37:58.000Z</time>
      </trkpt>
      <trkpt lat="47.51465" lon="6.73469">
        <ele>458.3</ele>
        <time>2014-05-01T08:37:59.000Z</time>
      </trkpt>
      <trkpt lat="47.51461" lon="6.73469">
        <ele>457.5</ele>
        <time>2014-05-01T08:38:00.000Z</time>
      </trkpt>
      <trkpt lat="47.51457" lon="6.73469">
        <ele>457.2</ele>
        <time>2014-05-01T08:38:01.000Z</time>
      </trkpt>
      <trkpt lat="47.51453" lon="6.73469">
        <ele>457</ele>
        <time>2014-05-01T08:38:02.000Z</time>
      </trkpt>
      <trkpt lat="47.51449" lon="6.73468">
        <ele>457.5</ele>
        <time>2014-05-01T08:38:03.000Z</time>
      </trkpt>
      <trkpt lat="47.51445" lon="6.73467">
        <ele>457.7</ele>
        <time>2014-05-01T08:38:04.000Z</time>
      </trkpt>
      <trkpt lat="47.51441" lon="6.73465">
        <ele>460.6</ele>
        <time>2014-05-01T08:38:05.000Z</time>
      </trkpt>
      <trkpt lat="47.51429" lon="6.73481">
        <ele>443.3</ele>
        <time>2014-05-01T08:38:13.000Z</time>
      </trkpt>
      <trkpt lat="47.5143" lon="6.73477">
        <ele>438.9</ele>
        <time>2014-05-01T08:38:17.000Z</time>
      </trkpt>
      <trkpt lat="47.51431" lon="6.73475">
        <ele>439.7</ele>
        <time>2014-05-01T08:38:18.000Z</time>
      </trkpt>
      <trkpt lat="47.51434" lon="6.73471">
        <ele>427.9</ele>
        <time>2014-05-01T08:38:25.000Z</time>
      </trkpt>
      <trkpt lat="47.51435" lon="6.73469">
        <ele>427.5</ele>
        <time>2014-05-01T08:38:26.000Z</time>
      </trkpt>
      <trkpt lat="47.51435" lon="6.73466">
        <ele>427.3</ele>
        <time>2014-05-01T08:38:27.000Z</time>
      </trkpt>
      <trkpt lat="47.51436" lon="6.73462">
        <ele>426.3</ele>
        <time>2014-05-01T08:38:28.000Z</time>
      </trkpt>
      <trkpt lat="47.51437" lon="6.73459">
        <ele>426.5</ele>
        <time>2014-05-01T08:38:29.000Z</time>
      </trkpt>
      <trkpt lat="47.51438" lon="6.73455">
        <ele>425.6</ele>
        <time>2014-05-01T08:38:30.000Z</time>
      </trkpt>
      <trkpt lat="47.51439" lon="6.73452">
        <ele>423.6</ele>
        <time>2014-05-01T08:38:31.000Z</time>
      </trkpt>
      <trkpt lat="47.51441" lon="6.73447">
        <ele>423.9</ele>
        <time>2014-05-01T08:38:32.000Z</time>
      </trkpt>
      <trkpt lat="47.51442" lon="6.73443">
        <ele>422</ele>
        <time>2014-05-01T08:38:33.000Z</time>
      </trkpt>
      <trkpt lat="47.51443" lon="6.73438">
        <ele>421.2</ele>
        <time>2014-05-01T08:38:34.000Z</time>
      </trkpt>
      <trkpt lat="47.51444" lon="6.73434">
        <ele>420.1</ele>
        <time>2014-05-01T08:38:35.000Z</time>
      </trkpt>
      <trkpt lat="47.51445" lon="6.73429">
        <ele>419.6</ele>
        <time>2014-05-01T08:38:36.000Z</time>
      </trkpt>
      <trkpt lat="47.51446" lon="6.73425">
        <ele>418.5</ele>
        <time>2014-05-01T08:38:37.000Z</time>
      </trkpt>
      <trkpt lat="47.51446" lon="6.7342">
        <ele>416.5</ele>
        <time>2014-05-01T08:38:38.000Z</time>
      </trkpt>
      <trkpt lat="47.51446" lon="6.73416">
        <ele>414.9</ele>
        <time>2014-05-01T08:38:39.000Z</time>
      </trkpt>
      <trkpt lat="47.51446" lon="6.73411">
        <ele>416.2</ele>
        <time>2014-05-01T08:38:40.000Z</time>
      </trkpt>
      <trkpt lat="47.51446" lon="6.73407">
        <ele>416.4</ele>
        <time>2014-05-01T08:38:41.000Z</time>
      </trkpt>
      <trkpt lat="47.51447" lon="6.73403">
        <ele>417.3</ele>
        <time>2014-05-01T08:38:42.000Z</time>
      </trkpt>
      <trkpt lat="47.51448" lon="6.734">
        <ele>417.8</ele>
        <time>2014-05-01T08:38:43.000Z</time>
      </trkpt>
      <trkpt lat="47.51449" lon="6.73396">
        <ele>418.5</ele>
        <time>2014-05-01T08:38:44.000Z</time>
      </trkpt>
      <trkpt lat="47.51449" lon="6.73393">
        <ele>419</ele>
        <time>2014-05-01T08:38:45.000Z</time>
      </trkpt>
      <trkpt lat="47.5145" lon="6.73389">
        <ele>418.4</ele>
        <time>2014-05-01T08:38:46.000Z</time>
      </trkpt>
      <trkpt lat="47.5145" lon="6.73386">
        <ele>418</ele>
        <time>2014-05-01T08:38:47.000Z</time>
      </trkpt>
      <trkpt lat="47.51451" lon="6.73382">
        <ele>418.1</ele>
        <time>2014-05-01T08:38:48.000Z</time>
      </trkpt>
      <trkpt lat="47.51451" lon="6.73377">
        <ele>417.2</ele>
        <time>2014-05-01T08:38:49.000Z</time>
      </trkpt>
      <trkpt lat="47.51451" lon="6.73373">
        <ele>417.9</ele>
        <time>2014-05-01T08:38:50.000Z</time>
      </trkpt>
      <trkpt lat="47.51451" lon="6.73368">
        <ele>419.5</ele>
        <time>2014-05-01T08:38:51.000Z</time>
      </trkpt>
      <trkpt lat="47.51451" lon="6.73364">
        <ele>420.4</ele>
        <time>2014-05-01T08:38:52.000Z</time>
      </trkpt>
      <trkpt lat="47.51452" lon="6.7336">
        <ele>421.4</ele>
        <time>2014-05-01T08:38:53.000Z</time>
      </trkpt>
      <trkpt lat="47.51453" lon="6.73357">
        <ele>421</ele>
        <time>2014-05-01T08:38:54.000Z</time>
      </trkpt>
      <trkpt lat="47.51454" lon="6.73353">
        <ele>420.4</ele>
        <time>2014-05-01T08:38:55.000Z</time>
      </trkpt>
      <trkpt lat="47.51456" lon="6.7335">
        <ele>419.7</ele>
        <time>2014-05-01T08:38:56.000Z</time>
      </trkpt>
      <trkpt lat="47.51458" lon="6.73347">
        <ele>419.8</ele>
        <time>2014-05-01T08:38:57.000Z</time>
      </trkpt>
      <trkpt lat="47.51459" lon="6.73345">
        <ele>419.8</ele>
        <time>2014-05-01T08:38:58.000Z</time>
      </trkpt>
      <trkpt lat="47.5146" lon="6.73342">
        <ele>419.9</ele>
        <time>2014-05-01T08:38:59.000Z</time>
      </trkpt>
      <trkpt lat="47.51462" lon="6.73338">
        <ele>419.4</ele>
        <time>2014-05-01T08:39:00.000Z</time>
      </trkpt>
      <trkpt lat="47.51463" lon="6.73335">
        <ele>419.7</ele>
        <time>2014-05-01T08:39:01.000Z</time>
      </trkpt>
      <trkpt lat="47.51464" lon="6.73331">
        <ele>419.7</ele>
        <time>2014-05-01T08:39:02.000Z</time>
      </trkpt>
      <trkpt lat="47.51465" lon="6.73327">
        <ele>419.3</ele>
        <time>2014-05-01T08:39:03.000Z</time>
      </trkpt>
      <trkpt lat="47.51465" lon="6.73324">
        <ele>422.6</ele>
        <time>2014-05-01T08:39:04.000Z</time>
      </trkpt>
      <trkpt lat="47.51464" lon="6.73321">
        <ele>423.8</ele>
        <time>2014-05-01T08:39:05.000Z</time>
      </trkpt>
      <trkpt lat="47.51468" lon="6.73288">
        <ele>424.5</ele>
        <time>2014-05-01T08:39:13.000Z</time>
      </trkpt>
      <trkpt lat="47.51469" lon="6.73282">
        <ele>424.2</ele>
        <time>2014-05-01T08:39:14.000Z</time>
      </trkpt>
      <trkpt lat="47.51468" lon="6.73277">
        <ele>427.4</ele>
        <time>2014-05-01T08:39:15.000Z</time>
      </trkpt>
      <trkpt lat="47.51468" lon="6.73273">
        <ele>427.2</ele>
        <time>2014-05-01T08:39:16.000Z</time>
      </trkpt>
      <trkpt lat="47.51467" lon="6.7327">
        <ele>427.7</ele>
        <time>2014-05-01T08:39:17.000Z</time>
      </trkpt>
      <trkpt lat="47.51466" lon="6.73266">
        <ele>428.5</ele>
        <time>2014-05-01T08:39:19.001Z</time>
      </trkpt>
      <trkpt lat="47.51466" lon="6.73262">
        <ele>428</ele>
        <time>2014-05-01T08:39:20.001Z</time>
      </trkpt>
      <trkpt lat="47.51468" lon="6.73256">
        <ele>427.1</ele>
        <time>2014-05-01T08:39:21.000Z</time>
      </trkpt>
      <trkpt lat="47.5147" lon="6.73249">
        <ele>423.9</ele>
        <time>2014-05-01T08:39:22.000Z</time>
      </trkpt>
      <trkpt lat="47.51471" lon="6.73243">
        <ele>426.5</ele>
        <time>2014-05-01T08:39:23.000Z</time>
      </trkpt>
      <trkpt lat="47.51474" lon="6.73236">
        <ele>424.3</ele>
        <time>2014-05-01T08:39:24.000Z</time>
      </trkpt>
      <trkpt lat="47.51476" lon="6.73229">
        <ele>424</ele>
        <time>2014-05-01T08:39:25.000Z</time>
      </trkpt>
      <trkpt lat="47.51478" lon="6.73221">
        <ele>424.2</ele>
        <time>2014-05-01T08:39:26.000Z</time>
      </trkpt>
      <trkpt lat="47.5148" lon="6.73213">
        <ele>422.1</ele>
        <time>2014-05-01T08:39:27.000Z</time>
      </trkpt>
      <trkpt lat="47.51481" lon="6.73205">
        <ele>423.3</ele>
        <time>2014-05-01T08:39:28.000Z</time>
      </trkpt>
      <trkpt lat="47.51482" lon="6.732">
        <ele>423.2</ele>
        <time>2014-05-01T08:39:28.999Z</time>
      </trkpt>
      <trkpt lat="47.51483" lon="6.7319">
        <ele>423.1</ele>
        <time>2014-05-01T08:39:30.000Z</time>
      </trkpt>
      <trkpt lat="47.51484" lon="6.73185">
        <ele>423.2</ele>
        <time>2014-05-01T08:39:31.001Z</time>
      </trkpt>
      <trkpt lat="47.51487" lon="6.73175">
        <ele>423.8</ele>
        <time>2014-05-01T08:39:32.001Z</time>
      </trkpt>
      <trkpt lat="47.51489" lon="6.73168">
        <ele>425.7</ele>
        <time>2014-05-01T08:39:33.000Z</time>
      </trkpt>
      <trkpt lat="47.5149" lon="6.73163">
        <ele>427.5</ele>
        <time>2014-05-01T08:39:34.000Z</time>
      </trkpt>
      <trkpt lat="47.51494" lon="6.73144">
        <ele>426.4</ele>
        <time>2014-05-01T08:39:34.999Z</time>
      </trkpt>
      <trkpt lat="47.51494" lon="6.73137">
        <ele>426.6</ele>
        <time>2014-05-01T08:39:36.000Z</time>
      </trkpt>
      <trkpt lat="47.51492" lon="6.73134">
        <ele>424.8</ele>
        <time>2014-05-01T08:39:37.000Z</time>
      </trkpt>
      <trkpt lat="47.51491" lon="6.7313">
        <ele>424.3</ele>
        <time>2014-05-01T08:39:38.000Z</time>
      </trkpt>
      <trkpt lat="47.51493" lon="6.7312">
        <ele>428</ele>
        <time>2014-05-01T08:39:39.000Z</time>
      </trkpt>
      <trkpt lat="47.51495" lon="6.73111">
        <ele>427.1</ele>
        <time>2014-05-01T08:39:40.000Z</time>
      </trkpt>
      <trkpt lat="47.51494" lon="6.73103">
        <ele>425.8</ele>
        <time>2014-05-01T08:39:41.000Z</time>
      </trkpt>
      <trkpt lat="47.51489" lon="6.73097">
        <ele>424</ele>
        <time>2014-05-01T08:39:42.000Z</time>
      </trkpt>
      <trkpt lat="47.51487" lon="6.73091">
        <ele>421.8</ele>
        <time>2014-05-01T08:39:43.000Z</time>
      </trkpt>
      <trkpt lat="47.51486" lon="6.73086">
        <ele>421.9</ele>
        <time>2014-05-01T08:39:44.001Z</time>
      </trkpt>
      <trkpt lat="47.5149" lon="6.7308">
        <ele>427</ele>
        <time>2014-05-01T08:39:45.000Z</time>
      </trkpt>
      <trkpt lat="47.51491" lon="6.73073">
        <ele>426.7</ele>
        <time>2014-05-01T08:39:46.000Z</time>
      </trkpt>
      <trkpt lat="47.51492" lon="6.7307">
        <ele>427.1</ele>
        <time>2014-05-01T08:39:47.000Z</time>
      </trkpt>
      <trkpt lat="47.51492" lon="6.73059">
        <ele>430.6</ele>
        <time>2014-05-01T08:39:48.000Z</time>
      </trkpt>
      <trkpt lat="47.51494" lon="6.73053">
        <ele>438.3</ele>
        <time>2014-05-01T08:39:50.000Z</time>
      </trkpt>
      <trkpt lat="47.51494" lon="6.73051">
        <ele>439.4</ele>
        <time>2014-05-01T08:39:51.000Z</time>
      </trkpt>
      <trkpt lat="47.51493" lon="6.73046">
        <ele>443.1</ele>
        <time>2014-05-01T08:39:54.000Z</time>
      </trkpt>
      <trkpt lat="47.51492" lon="6.73043">
        <ele>443.3</ele>
        <time>2014-05-01T08:39:55.000Z</time>
      </trkpt>
      <trkpt lat="47.51491" lon="6.73038">
        <ele>443</ele>
        <time>2014-05-01T08:39:57.000Z</time>
      </trkpt>
      <trkpt lat="47.51491" lon="6.73035">
        <ele>442.5</ele>
        <time>2014-05-01T08:39:58.000Z</time>
      </trkpt>
      <trkpt lat="47.51489" lon="6.73031">
        <ele>441.2</ele>
        <time>2014-05-01T08:39:59.999Z</time>
      </trkpt>
      <trkpt lat="47.51488" lon="6.73027">
        <ele>442.4</ele>
        <time>2014-05-01T08:40:01.000Z</time>
      </trkpt>
      <trkpt lat="47.51487" lon="6.73021">
        <ele>442.7</ele>
        <time>2014-05-01T08:40:03.000Z</time>
      </trkpt>
      <trkpt lat="47.51487" lon="6.73017">
        <ele>442.9</ele>
        <time>2014-05-01T08:40:04.000Z</time>
      </trkpt>
      <trkpt lat="47.51487" lon="6.73014">
        <ele>443.8</ele>
        <time>2014-05-01T08:40:05.000Z</time>
      </trkpt>
      <trkpt lat="47.51487" lon="6.72993">
        <ele>439.4</ele>
        <time>2014-05-01T08:40:13.000Z</time>
      </trkpt>
      <trkpt lat="47.51486" lon="6.72988">
        <ele>440.7</ele>
        <time>2014-05-01T08:40:15.000Z</time>
      </trkpt>
      <trkpt lat="47.51486" lon="6.72986">
        <ele>441.2</ele>
        <time>2014-05-01T08:40:16.000Z</time>
      </trkpt>
      <trkpt lat="47.51487" lon="6.7298">
        <ele>447.4</ele>
        <time>2014-05-01T08:40:18.000Z</time>
      </trkpt>
      <trkpt lat="47.51487" lon="6.72977">
        <ele>452.6</ele>
        <time>2014-05-01T08:40:19.000Z</time>
      </trkpt>
      <trkpt lat="47.51488" lon="6.72975">
        <ele>455.6</ele>
        <time>2014-05-01T08:40:20.000Z</time>
      </trkpt>
      <trkpt lat="47.51485" lon="6.72968">
        <ele>460.2</ele>
        <time>2014-05-01T08:40:21.000Z</time>
      </trkpt>
      <trkpt lat="47.51486" lon="6.72962">
        <ele>458.8</ele>
        <time>2014-05-01T08:40:23.000Z</time>
      </trkpt>
      <trkpt lat="47.51481" lon="6.7296">
        <ele>458.3</ele>
        <time>2014-05-01T08:40:24.000Z</time>
      </trkpt>
      <trkpt lat="47.51479" lon="6.72957">
        <ele>457.7</ele>
        <time>2014-05-01T08:40:25.000Z</time>
      </trkpt>
      <trkpt lat="47.51479" lon="6.72953">
        <ele>458.9</ele>
        <time>2014-05-01T08:40:26.000Z</time>
      </trkpt>
      <trkpt lat="47.5148" lon="6.72948">
        <ele>460.1</ele>
        <time>2014-05-01T08:40:28.000Z</time>
      </trkpt>
      <trkpt lat="47.51477" lon="6.72945">
        <ele>461.1</ele>
        <time>2014-05-01T08:40:29.000Z</time>
      </trkpt>
      <trkpt lat="47.51476" lon="6.72939">
        <ele>462</ele>
        <time>2014-05-01T08:40:31.000Z</time>
      </trkpt>
      <trkpt lat="47.51475" lon="6.72937">
        <ele>461.8</ele>
        <time>2014-05-01T08:40:32.000Z</time>
      </trkpt>
      <trkpt lat="47.51475" lon="6.7293">
        <ele>459.5</ele>
        <time>2014-05-01T08:40:35.000Z</time>
      </trkpt>
      <trkpt lat="47.51474" lon="6.72928">
        <ele>455.8</ele>
        <time>2014-05-01T08:40:36.000Z</time>
      </trkpt>
      <trkpt lat="47.51474" lon="6.72922">
        <ele>454.5</ele>
        <time>2014-05-01T08:40:38.000Z</time>
      </trkpt>
      <trkpt lat="47.51473" lon="6.72919">
        <ele>452.9</ele>
        <time>2014-05-01T08:40:39.000Z</time>
      </trkpt>
      <trkpt lat="47.51472" lon="6.72914">
        <ele>454.7</ele>
        <time>2014-05-01T08:40:41.000Z</time>
      </trkpt>
      <trkpt lat="47.51472" lon="6.72912">
        <ele>454.2</ele>
        <time>2014-05-01T08:40:42.000Z</time>
      </trkpt>
      <trkpt lat="47.5147" lon="6.72907">
        <ele>454</ele>
        <time>2014-05-01T08:40:44.000Z</time>
      </trkpt>
      <trkpt lat="47.5147" lon="6.72905">
        <ele>461.4</ele>
        <time>2014-05-01T08:40:45.000Z</time>
      </trkpt>
      <trkpt lat="47.5147" lon="6.72901">
        <ele>464.7</ele>
        <time>2014-05-01T08:40:46.999Z</time>
      </trkpt>
      <trkpt lat="47.51467" lon="6.72898">
        <ele>464</ele>
        <time>2014-05-01T08:40:48.000Z</time>
      </trkpt>
      <trkpt lat="47.51465" lon="6.72896">
        <ele>465.5</ele>
        <time>2014-05-01T08:40:49.000Z</time>
      </trkpt>
      <trkpt lat="47.51463" lon="6.72894">
        <ele>464.3</ele>
        <time>2014-05-01T08:40:50.000Z</time>
      </trkpt>
      <trkpt lat="47.51461" lon="6.72891">
        <ele>462.6</ele>
        <time>2014-05-01T08:40:51.000Z</time>
      </trkpt>
      <trkpt lat="47.5146" lon="6.72887">
        <ele>460.8</ele>
        <time>2014-05-01T08:40:52.000Z</time>
      </trkpt>
      <trkpt lat="47.51458" lon="6.72884">
        <ele>458.1</ele>
        <time>2014-05-01T08:40:53.000Z</time>
      </trkpt>
      <trkpt lat="47.51457" lon="6.72881">
        <ele>454.7</ele>
        <time>2014-05-01T08:40:54.000Z</time>
      </trkpt>
      <trkpt lat="47.51455" lon="6.72876">
        <ele>452.4</ele>
        <time>2014-05-01T08:40:56.000Z</time>
      </trkpt>
      <trkpt lat="47.51455" lon="6.72873">
        <ele>451.9</ele>
        <time>2014-05-01T08:40:57.000Z</time>
      </trkpt>
      <trkpt lat="47.51455" lon="6.72868">
        <ele>449.3</ele>
        <time>2014-05-01T08:40:59.002Z</time>
      </trkpt>
      <trkpt lat="47.51453" lon="6.72863">
        <ele>446.4</ele>
        <time>2014-05-01T08:41:00.000Z</time>
      </trkpt>
      <trkpt lat="47.51451" lon="6.72859">
        <ele>443.6</ele>
        <time>2014-05-01T08:41:02.000Z</time>
      </trkpt>
      <trkpt lat="47.5145" lon="6.72857">
        <ele>444.2</ele>
        <time>2014-05-01T08:41:03.000Z</time>
      </trkpt>
      <trkpt lat="47.5145" lon="6.72856">
        <ele>444</ele>
        <time>2014-05-01T08:41:05.000Z</time>
      </trkpt>
      <trkpt lat="47.51444" lon="6.72836">
        <ele>429.2</ele>
        <time>2014-05-01T08:41:13.000Z</time>
      </trkpt>
      <trkpt lat="47.51443" lon="6.72831">
        <ele>429.5</ele>
        <time>2014-05-01T08:41:14.999Z</time>
      </trkpt>
      <trkpt lat="47.51444" lon="6.72825">
        <ele>431.5</ele>
        <time>2014-05-01T08:41:16.000Z</time>
      </trkpt>
      <trkpt lat="47.51443" lon="6.72818">
        <ele>432.7</ele>
        <time>2014-05-01T08:41:18.000Z</time>
      </trkpt>
      <trkpt lat="47.51442" lon="6.72812">
        <ele>434.5</ele>
        <time>2014-05-01T08:41:19.000Z</time>
      </trkpt>
      <trkpt lat="47.51441" lon="6.72807">
        <ele>436.2</ele>
        <time>2014-05-01T08:41:20.000Z</time>
      </trkpt>
      <trkpt lat="47.51441" lon="6.72802">
        <ele>436.8</ele>
        <time>2014-05-01T08:41:21.000Z</time>
      </trkpt>
      <trkpt lat="47.51441" lon="6.72796">
        <ele>437.8</ele>
        <time>2014-05-01T08:41:22.000Z</time>
      </trkpt>
      <trkpt lat="47.51442" lon="6.72792">
        <ele>438.4</ele>
        <time>2014-05-01T08:41:23.001Z</time>
      </trkpt>
      <trkpt lat="47.51442" lon="6.72786">
        <ele>441</ele>
        <time>2014-05-01T08:41:24.000Z</time>
      </trkpt>
      <trkpt lat="47.51442" lon="6.72782">
        <ele>441.9</ele>
        <time>2014-05-01T08:41:25.000Z</time>
      </trkpt>
      <trkpt lat="47.51442" lon="6.72778">
        <ele>441.7</ele>
        <time>2014-05-01T08:41:26.000Z</time>
      </trkpt>
      <trkpt lat="47.51441" lon="6.72774">
        <ele>441.7</ele>
        <time>2014-05-01T08:41:27.000Z</time>
      </trkpt>
      <trkpt lat="47.51441" lon="6.72769">
        <ele>441.4</ele>
        <time>2014-05-01T08:41:28.999Z</time>
      </trkpt>
      <trkpt lat="47.51441" lon="6.72767">
        <ele>440.1</ele>
        <time>2014-05-01T08:41:30.000Z</time>
      </trkpt>
      <trkpt lat="47.5144" lon="6.72761">
        <ele>439.9</ele>
        <time>2014-05-01T08:41:32.000Z</time>
      </trkpt>
      <trkpt lat="47.51439" lon="6.72758">
        <ele>441.2</ele>
        <time>2014-05-01T08:41:33.000Z</time>
      </trkpt>
      <trkpt lat="47.51438" lon="6.72755">
        <ele>440.2</ele>
        <time>2014-05-01T08:41:34.000Z</time>
      </trkpt>
      <trkpt lat="47.51436" lon="6.72751">
        <ele>438.3</ele>
        <time>2014-05-01T08:41:35.000Z</time>
      </trkpt>
      <trkpt lat="47.51434" lon="6.72746">
        <ele>439.7</ele>
        <time>2014-05-01T08:41:37.002Z</time>
      </trkpt>
      <trkpt lat="47.51432" lon="6.72744">
        <ele>444</ele>
        <time>2014-05-01T08:41:38.001Z</time>
      </trkpt>
      <trkpt lat="47.51431" lon="6.72741">
        <ele>448.2</ele>
        <time>2014-05-01T08:41:40.000Z</time>
      </trkpt>
      <trkpt lat="47.5143" lon="6.72739">
        <ele>448.6</ele>
        <time>2014-05-01T08:41:41.000Z</time>
      </trkpt>
      <trkpt lat="47.51427" lon="6.72734">
        <ele>449</ele>
        <time>2014-05-01T08:41:43.000Z</time>
      </trkpt>
      <trkpt lat="47.51426" lon="6.72732">
        <ele>449.3</ele>
        <time>2014-05-01T08:41:44.000Z</time>
      </trkpt>
      <trkpt lat="47.51423" lon="6.72728">
        <ele>446.9</ele>
        <time>2014-05-01T08:41:45.999Z</time>
      </trkpt>
      <trkpt lat="47.5142" lon="6.72726">
        <ele>445.9</ele>
        <time>2014-05-01T08:41:47.000Z</time>
      </trkpt>
      <trkpt lat="47.51418" lon="6.72725">
        <ele>445.6</ele>
        <time>2014-05-01T08:41:48.000Z</time>
      </trkpt>
      <trkpt lat="47.51415" lon="6.72722">
        <ele>445.5</ele>
        <time>2014-05-01T08:41:49.000Z</time>
      </trkpt>
      <trkpt lat="47.51413" lon="6.72719">
        <ele>441.7</ele>
        <time>2014-05-01T08:41:50.000Z</time>
      </trkpt>
      <trkpt lat="47.5141" lon="6.72717">
        <ele>440</ele>
        <time>2014-05-01T08:41:51.000Z</time>
      </trkpt>
      <trkpt lat="47.51408" lon="6.72715">
        <ele>438.8</ele>
        <time>2014-05-01T08:41:51.999Z</time>
      </trkpt>
      <trkpt lat="47.51403" lon="6.72715">
        <ele>438.5</ele>
        <time>2014-05-01T08:41:53.000Z</time>
      </trkpt>
      <trkpt lat="47.514" lon="6.72711">
        <ele>434.8</ele>
        <time>2014-05-01T08:41:56.000Z</time>
      </trkpt>
      <trkpt lat="47.514" lon="6.72709">
        <ele>437.2</ele>
        <time>2014-05-01T08:41:57.000Z</time>
      </trkpt>
      <trkpt lat="47.514" lon="6.72705">
        <ele>442.6</ele>
        <time>2014-05-01T08:41:59.001Z</time>
      </trkpt>
      <trkpt lat="47.51398" lon="6.727">
        <ele>442</ele>
        <time>2014-05-01T08:42:00.000Z</time>
      </trkpt>
      <trkpt lat="47.51397" lon="6.72698">
        <ele>442.1</ele>
        <time>2014-05-01T08:42:01.001Z</time>
      </trkpt>
      <trkpt lat="47.51394" lon="6.72694">
        <ele>441.5</ele>
        <time>2014-05-01T08:42:02.000Z</time>
      </trkpt>
      <trkpt lat="47.51393" lon="6.72688">
        <ele>444.3</ele>
        <time>2014-05-01T08:42:03.000Z</time>
      </trkpt>
      <trkpt lat="47.51392" lon="6.72685">
        <ele>445.1</ele>
        <time>2014-05-01T08:42:04.000Z</time>
      </trkpt>
      <trkpt lat="47.51391" lon="6.72681">
        <ele>444.7</ele>
        <time>2014-05-01T08:42:05.000Z</time>
      </trkpt>
      <trkpt lat="47.51389" lon="6.72672">
        <ele>441.7</ele>
        <time>2014-05-01T08:42:08.000Z</time>
      </trkpt>
      <trkpt lat="47.51388" lon="6.72668">
        <ele>441.8</ele>
        <time>2014-05-01T08:42:09.000Z</time>
      </trkpt>
      <trkpt lat="47.51386" lon="6.72664">
        <ele>442.4</ele>
        <time>2014-05-01T08:42:10.000Z</time>
      </trkpt>
      <trkpt lat="47.51384" lon="6.72662">
        <ele>442.3</ele>
        <time>2014-05-01T08:42:11.000Z</time>
      </trkpt>
      <trkpt lat="47.51382" lon="6.7266">
        <ele>440.4</ele>
        <time>2014-05-01T08:42:12.000Z</time>
      </trkpt>
      <trkpt lat="47.51379" lon="6.72658">
        <ele>439.3</ele>
        <time>2014-05-01T08:42:13.000Z</time>
      </trkpt>
      <trkpt lat="47.51376" lon="6.72656">
        <ele>440</ele>
        <time>2014-05-01T08:42:14.000Z</time>
      </trkpt>
      <trkpt lat="47.51374" lon="6.72654">
        <ele>444.1</ele>
        <time>2014-05-01T08:42:15.000Z</time>
      </trkpt>
      <trkpt lat="47.51371" lon="6.72651">
        <ele>447</ele>
        <time>2014-05-01T08:42:16.000Z</time>
      </trkpt>
      <trkpt lat="47.51368" lon="6.72647">
        <ele>447.1</ele>
        <time>2014-05-01T08:42:17.000Z</time>
      </trkpt>
      <trkpt lat="47.51364" lon="6.72643">
        <ele>443.9</ele>
        <time>2014-05-01T08:42:18.000Z</time>
      </trkpt>
      <trkpt lat="47.51361" lon="6.72639">
        <ele>443.5</ele>
        <time>2014-05-01T08:42:19.000Z</time>
      </trkpt>
      <trkpt lat="47.51359" lon="6.72635">
        <ele>444.2</ele>
        <time>2014-05-01T08:42:20.000Z</time>
      </trkpt>
      <trkpt lat="47.51357" lon="6.72631">
        <ele>445.3</ele>
        <time>2014-05-01T08:42:21.000Z</time>
      </trkpt>
      <trkpt lat="47.51354" lon="6.72627">
        <ele>444</ele>
        <time>2014-05-01T08:42:22.000Z</time>
      </trkpt>
      <trkpt lat="47.51351" lon="6.72622">
        <ele>443.8</ele>
        <time>2014-05-01T08:42:23.000Z</time>
      </trkpt>
      <trkpt lat="47.51349" lon="6.72618">
        <ele>443.2</ele>
        <time>2014-05-01T08:42:24.000Z</time>
      </trkpt>
      <trkpt lat="47.51344" lon="6.72613">
        <ele>443.2</ele>
        <time>2014-05-01T08:42:25.000Z</time>
      </trkpt>
      <trkpt lat="47.51341" lon="6.72611">
        <ele>445.8</ele>
        <time>2014-05-01T08:42:26.000Z</time>
      </trkpt>
      <trkpt lat="47.51338" lon="6.72608">
        <ele>446.6</ele>
        <time>2014-05-01T08:42:27.000Z</time>
      </trkpt>
      <trkpt lat="47.51335" lon="6.72606">
        <ele>444.5</ele>
        <time>2014-05-01T08:42:28.000Z</time>
      </trkpt>
      <trkpt lat="47.51333" lon="6.72605">
        <ele>444</ele>
        <time>2014-05-01T08:42:29.000Z</time>
      </trkpt>
      <trkpt lat="47.51331" lon="6.72603">
        <ele>444.1</ele>
        <time>2014-05-01T08:42:30.000Z</time>
      </trkpt>
      <trkpt lat="47.51328" lon="6.726">
        <ele>450</ele>
        <time>2014-05-01T08:42:31.000Z</time>
      </trkpt>
      <trkpt lat="47.51326" lon="6.72598">
        <ele>451.2</ele>
        <time>2014-05-01T08:42:32.000Z</time>
      </trkpt>
      <trkpt lat="47.51323" lon="6.72596">
        <ele>452.7</ele>
        <time>2014-05-01T08:42:33.000Z</time>
      </trkpt>
      <trkpt lat="47.51321" lon="6.72594">
        <ele>454.4</ele>
        <time>2014-05-01T08:42:33.999Z</time>
      </trkpt>
      <trkpt lat="47.51317" lon="6.72591">
        <ele>452.1</ele>
        <time>2014-05-01T08:42:35.000Z</time>
      </trkpt>
      <trkpt lat="47.51313" lon="6.72589">
        <ele>451.9</ele>
        <time>2014-05-01T08:42:36.000Z</time>
      </trkpt>
      <trkpt lat="47.5131" lon="6.72587">
        <ele>451.2</ele>
        <time>2014-05-01T08:42:37.000Z</time>
      </trkpt>
      <trkpt lat="47.51307" lon="6.72586">
        <ele>451.6</ele>
        <time>2014-05-01T08:42:38.000Z</time>
      </trkpt>
      <trkpt lat="47.51305" lon="6.72584">
        <ele>451.9</ele>
        <time>2014-05-01T08:42:39.000Z</time>
      </trkpt>
      <trkpt lat="47.51302" lon="6.72583">
        <ele>451</ele>
        <time>2014-05-01T08:42:40.000Z</time>
      </trkpt>
      <trkpt lat="47.513" lon="6.72582">
        <ele>451.1</ele>
        <time>2014-05-01T08:42:41.000Z</time>
      </trkpt>
      <trkpt lat="47.51298" lon="6.72581">
        <ele>451.6</ele>
        <time>2014-05-01T08:42:42.000Z</time>
      </trkpt>
      <trkpt lat="47.51296" lon="6.7258">
        <ele>450.9</ele>
        <time>2014-05-01T08:42:43.000Z</time>
      </trkpt>
      <trkpt lat="47.51293" lon="6.7258">
        <ele>450.4</ele>
        <time>2014-05-01T08:42:44.000Z</time>
      </trkpt>
      <trkpt lat="47.51289" lon="6.72579">
        <ele>450.7</ele>
        <time>2014-05-01T08:42:45.000Z</time>
      </trkpt>
      <trkpt lat="47.51286" lon="6.72579">
        <ele>448.7</ele>
        <time>2014-05-01T08:42:46.000Z</time>
      </trkpt>
      <trkpt lat="47.51282" lon="6.72579">
        <ele>447.3</ele>
        <time>2014-05-01T08:42:47.000Z</time>
      </trkpt>
      <trkpt lat="47.51277" lon="6.72578">
        <ele>445.9</ele>
        <time>2014-05-01T08:42:48.000Z</time>
      </trkpt>
      <trkpt lat="47.51273" lon="6.72577">
        <ele>445.2</ele>
        <time>2014-05-01T08:42:49.000Z</time>
      </trkpt>
      <trkpt lat="47.51269" lon="6.72575">
        <ele>445.1</ele>
        <time>2014-05-01T08:42:50.000Z</time>
      </trkpt>
      <trkpt lat="47.51265" lon="6.72573">
        <ele>444.7</ele>
        <time>2014-05-01T08:42:51.000Z</time>
      </trkpt>
      <trkpt lat="47.51261" lon="6.72571">
        <ele>445</ele>
        <time>2014-05-01T08:42:52.000Z</time>
      </trkpt>
      <trkpt lat="47.51257" lon="6.72568">
        <ele>445</ele>
        <time>2014-05-01T08:42:53.000Z</time>
      </trkpt>
      <trkpt lat="47.51256" lon="6.72567">
        <ele>443.1</ele>
        <time>2014-05-01T08:42:54.000Z</time>
      </trkpt>
      <trkpt lat="47.51253" lon="6.72564">
        <ele>443.8</ele>
        <time>2014-05-01T08:42:55.000Z</time>
      </trkpt>
      <trkpt lat="47.51248" lon="6.72561">
        <ele>443.8</ele>
        <time>2014-05-01T08:42:56.000Z</time>
      </trkpt>
      <trkpt lat="47.51243" lon="6.72561">
        <ele>442.9</ele>
        <time>2014-05-01T08:42:57.000Z</time>
      </trkpt>
      <trkpt lat="47.5124" lon="6.72561">
        <ele>442</ele>
        <time>2014-05-01T08:42:58.000Z</time>
      </trkpt>
      <trkpt lat="47.51236" lon="6.72561">
        <ele>442.1</ele>
        <time>2014-05-01T08:42:59.000Z</time>
      </trkpt>
      <trkpt lat="47.51234" lon="6.72562">
        <ele>441.3</ele>
        <time>2014-05-01T08:43:00.000Z</time>
      </trkpt>
      <trkpt lat="47.51231" lon="6.72561">
        <ele>441.4</ele>
        <time>2014-05-01T08:43:00.999Z</time>
      </trkpt>
      <trkpt lat="47.51231" lon="6.72559">
        <ele>442.1</ele>
        <time>2014-05-01T08:43:02.000Z</time>
      </trkpt>
      <trkpt lat="47.51225" lon="6.72557">
        <ele>442.1</ele>
        <time>2014-05-01T08:43:03.000Z</time>
      </trkpt>
      <trkpt lat="47.51223" lon="6.72557">
        <ele>441.4</ele>
        <time>2014-05-01T08:43:04.000Z</time>
      </trkpt>
      <trkpt lat="47.51221" lon="6.72554">
        <ele>444.2</ele>
        <time>2014-05-01T08:43:05.000Z</time>
      </trkpt>
      <trkpt lat="47.51194" lon="6.72549">
        <ele>441.6</ele>
        <time>2014-05-01T08:43:13.000Z</time>
      </trkpt>
      <trkpt lat="47.51193" lon="6.72545">
        <ele>445.4</ele>
        <time>2014-05-01T08:43:17.000Z</time>
      </trkpt>
      <trkpt lat="47.51192" lon="6.72542">
        <ele>449.3</ele>
        <time>2014-05-01T08:43:18.000Z</time>
      </trkpt>
      <trkpt lat="47.51191" lon="6.7254">
        <ele>446.3</ele>
        <time>2014-05-01T08:43:19.000Z</time>
      </trkpt>
      <trkpt lat="47.51189" lon="6.72536">
        <ele>446.8</ele>
        <time>2014-05-01T08:43:20.000Z</time>
      </trkpt>
      <trkpt lat="47.5119" lon="6.7253">
        <ele>439.8</ele>
        <time>2014-05-01T08:44:59.000Z</time>
      </trkpt>
      <trkpt lat="47.5119" lon="6.7253">
        <ele>440.5</ele>
        <time>2014-05-01T08:45:00.000Z</time>
      </trkpt>
      <trkpt lat="47.51186" lon="6.72533">
        <ele>443.5</ele>
        <time>2014-05-01T08:45:45.000Z</time>
      </trkpt>
      <trkpt lat="47.51186" lon="6.72533">
        <ele>443.7</ele>
        <time>2014-05-01T08:45:46.000Z</time>
      </trkpt>
      <trkpt lat="47.51188" lon="6.72529">
        <ele>437.3</ele>
        <time>2014-05-01T08:45:58.000Z</time>
      </trkpt>
      <trkpt lat="47.51189" lon="6.72527">
        <ele>437.7</ele>
        <time>2014-05-01T08:45:58.999Z</time>
      </trkpt>
      <trkpt lat="47.51192" lon="6.72525">
        <ele>439</ele>
        <time>2014-05-01T08:46:01.000Z</time>
      </trkpt>
      <trkpt lat="47.51193" lon="6.72523">
        <ele>437.6</ele>
        <time>2014-05-01T08:46:02.000Z</time>
      </trkpt>
      <trkpt lat="47.51195" lon="6.72518">
        <ele>433.6</ele>
        <time>2014-05-01T08:46:04.000Z</time>
      </trkpt>
      <trkpt lat="47.51196" lon="6.72515">
        <ele>432.4</ele>
        <time>2014-05-01T08:46:05.000Z</time>
      </trkpt>
      <trkpt lat="47.51198" lon="6.72496">
        <ele>433.5</ele>
        <time>2014-05-01T08:46:13.000Z</time>
      </trkpt>
      <trkpt lat="47.51199" lon="6.7249">
        <ele>428</ele>
        <time>2014-05-01T08:46:15.000Z</time>
      </trkpt>
      <trkpt lat="47.51201" lon="6.72487">
        <ele>428.6</ele>
        <time>2014-05-01T08:46:16.000Z</time>
      </trkpt>
      <trkpt lat="47.51203" lon="6.72485">
        <ele>432.1</ele>
        <time>2014-05-01T08:46:17.000Z</time>
      </trkpt>
      <trkpt lat="47.51205" lon="6.72484">
        <ele>434.2</ele>
        <time>2014-05-01T08:46:18.000Z</time>
      </trkpt>
      <trkpt lat="47.51209" lon="6.7248">
        <ele>436.2</ele>
        <time>2014-05-01T08:46:20.000Z</time>
      </trkpt>
      <trkpt lat="47.5121" lon="6.72477">
        <ele>436.3</ele>
        <time>2014-05-01T08:46:21.000Z</time>
      </trkpt>
      <trkpt lat="47.51212" lon="6.72472">
        <ele>436.3</ele>
        <time>2014-05-01T08:46:23.000Z</time>
      </trkpt>
      <trkpt lat="47.51213" lon="6.72469">
        <ele>437.5</ele>
        <time>2014-05-01T08:46:24.000Z</time>
      </trkpt>
      <trkpt lat="47.51215" lon="6.72463">
        <ele>437.4</ele>
        <time>2014-05-01T08:46:26.000Z</time>
      </trkpt>
      <trkpt lat="47.51217" lon="6.72462">
        <ele>437.2</ele>
        <time>2014-05-01T08:46:27.000Z</time>
      </trkpt>
      <trkpt lat="47.5122" lon="6.72459">
        <ele>434.4</ele>
        <time>2014-05-01T08:46:29.000Z</time>
      </trkpt>
      <trkpt lat="47.51222" lon="6.72456">
        <ele>433.2</ele>
        <time>2014-05-01T08:46:30.000Z</time>
      </trkpt>
      <trkpt lat="47.51224" lon="6.72451">
        <ele>432</ele>
        <time>2014-05-01T08:46:31.000Z</time>
      </trkpt>
      <trkpt lat="47.51225" lon="6.72446">
        <ele>431</ele>
        <time>2014-05-01T08:46:32.000Z</time>
      </trkpt>
      <trkpt lat="47.51227" lon="6.72442">
        <ele>434</ele>
        <time>2014-05-01T08:46:33.000Z</time>
      </trkpt>
      <trkpt lat="47.51229" lon="6.72437">
        <ele>434.7</ele>
        <time>2014-05-01T08:46:34.000Z</time>
      </trkpt>
      <trkpt lat="47.51231" lon="6.72433">
        <ele>437.4</ele>
        <time>2014-05-01T08:46:35.000Z</time>
      </trkpt>
      <trkpt lat="47.51233" lon="6.72429">
        <ele>439.4</ele>
        <time>2014-05-01T08:46:36.000Z</time>
      </trkpt>
      <trkpt lat="47.51235" lon="6.72425">
        <ele>439.6</ele>
        <time>2014-05-01T08:46:37.000Z</time>
      </trkpt>
      <trkpt lat="47.51236" lon="6.7242">
        <ele>440.3</ele>
        <time>2014-05-01T08:46:38.000Z</time>
      </trkpt>
      <trkpt lat="47.51237" lon="6.72417">
        <ele>440.9</ele>
        <time>2014-05-01T08:46:38.999Z</time>
      </trkpt>
      <trkpt lat="47.51238" lon="6.72414">
        <ele>443.3</ele>
        <time>2014-05-01T08:46:40.000Z</time>
      </trkpt>
      <trkpt lat="47.51239" lon="6.72408">
        <ele>445.5</ele>
        <time>2014-05-01T08:46:42.000Z</time>
      </trkpt>
      <trkpt lat="47.51239" lon="6.72405">
        <ele>446.4</ele>
        <time>2014-05-01T08:46:43.000Z</time>
      </trkpt>
      <trkpt lat="47.5124" lon="6.72403">
        <ele>447.4</ele>
        <time>2014-05-01T08:46:44.000Z</time>
      </trkpt>
      <trkpt lat="47.51239" lon="6.72396">
        <ele>446.8</ele>
        <time>2014-05-01T08:46:45.000Z</time>
      </trkpt>
      <trkpt lat="47.5124" lon="6.72392">
        <ele>444.9</ele>
        <time>2014-05-01T08:46:46.000Z</time>
      </trkpt>
      <trkpt lat="47.51241" lon="6.72389">
        <ele>443.8</ele>
        <time>2014-05-01T08:46:47.002Z</time>
      </trkpt>
      <trkpt lat="47.51244" lon="6.72385">
        <ele>444.5</ele>
        <time>2014-05-01T08:46:48.000Z</time>
      </trkpt>
      <trkpt lat="47.51245" lon="6.72381">
        <ele>448.6</ele>
        <time>2014-05-01T08:46:49.000Z</time>
      </trkpt>
      <trkpt lat="47.51246" lon="6.72377">
        <ele>448.2</ele>
        <time>2014-05-01T08:46:50.000Z</time>
      </trkpt>
      <trkpt lat="47.51247" lon="6.72373">
        <ele>446.2</ele>
        <time>2014-05-01T08:46:51.000Z</time>
      </trkpt>
      <trkpt lat="47.51249" lon="6.72368">
        <ele>444.7</ele>
        <time>2014-05-01T08:46:52.000Z</time>
      </trkpt>
      <trkpt lat="47.5125" lon="6.72364">
        <ele>444.4</ele>
        <time>2014-05-01T08:46:53.000Z</time>
      </trkpt>
      <trkpt lat="47.51251" lon="6.72361">
        <ele>444</ele>
        <time>2014-05-01T08:46:53.998Z</time>
      </trkpt>
      <trkpt lat="47.51251" lon="6.72357">
        <ele>447.4</ele>
        <time>2014-05-01T08:46:55.000Z</time>
      </trkpt>
      <trkpt lat="47.5125" lon="6.72352">
        <ele>449.1</ele>
        <time>2014-05-01T08:46:57.000Z</time>
      </trkpt>
      <trkpt lat="47.51249" lon="6.72348">
        <ele>447.9</ele>
        <time>2014-05-01T08:46:58.000Z</time>
      </trkpt>
      <trkpt lat="47.51248" lon="6.72345">
        <ele>447.8</ele>
        <time>2014-05-01T08:46:59.000Z</time>
      </trkpt>
      <trkpt lat="47.51248" lon="6.72341">
        <ele>447.7</ele>
        <time>2014-05-01T08:47:00.000Z</time>
      </trkpt>
      <trkpt lat="47.51249" lon="6.72338">
        <ele>447.6</ele>
        <time>2014-05-01T08:47:01.000Z</time>
      </trkpt>
      <trkpt lat="47.51249" lon="6.72333">
        <ele>447</ele>
        <time>2014-05-01T08:47:02.000Z</time>
      </trkpt>
      <trkpt lat="47.51249" lon="6.72329">
        <ele>447</ele>
        <time>2014-05-01T08:47:03.001Z</time>
      </trkpt>
      <trkpt lat="47.51249" lon="6.72323">
        <ele>447.6</ele>
        <time>2014-05-01T08:47:04.000Z</time>
      </trkpt>
      <trkpt lat="47.51249" lon="6.72318">
        <ele>447.2</ele>
        <time>2014-05-01T08:47:05.000Z</time>
      </trkpt>
      <trkpt lat="47.51249" lon="6.72305">
        <ele>441</ele>
        <time>2014-05-01T08:47:08.000Z</time>
      </trkpt>
      <trkpt lat="47.51249" lon="6.72301">
        <ele>443.2</ele>
        <time>2014-05-01T08:47:09.000Z</time>
      </trkpt>
      <trkpt lat="47.5125" lon="6.72297">
        <ele>444.3</ele>
        <time>2014-05-01T08:47:10.000Z</time>
      </trkpt>
      <trkpt lat="47.51251" lon="6.72292">
        <ele>445</ele>
        <time>2014-05-01T08:47:11.000Z</time>
      </trkpt>
      <trkpt lat="47.51252" lon="6.72289">
        <ele>446.1</ele>
        <time>2014-05-01T08:47:12.000Z</time>
      </trkpt>
      <trkpt lat="47.51253" lon="6.72285">
        <ele>448.7</ele>
        <time>2014-05-01T08:47:13.000Z</time>
      </trkpt>
      <trkpt lat="47.51253" lon="6.72281">
        <ele>450</ele>
        <time>2014-05-01T08:47:14.000Z</time>
      </trkpt>
      <trkpt lat="47.51253" lon="6.72276">
        <ele>450.1</ele>
        <time>2014-05-01T08:47:15.000Z</time>
      </trkpt>
      <trkpt lat="47.51254" lon="6.72272">
        <ele>450.7</ele>
        <time>2014-05-01T08:47:16.001Z</time>
      </trkpt>
      <trkpt lat="47.51254" lon="6.72265">
        <ele>450.4</ele>
        <time>2014-05-01T08:47:17.000Z</time>
      </trkpt>
      <trkpt lat="47.51255" lon="6.7226">
        <ele>450.3</ele>
        <time>2014-05-01T08:47:18.000Z</time>
      </trkpt>
      <trkpt lat="47.51255" lon="6.72255">
        <ele>451.2</ele>
        <time>2014-05-01T08:47:19.000Z</time>
      </trkpt>
      <trkpt lat="47.51256" lon="6.72249">
        <ele>450.1</ele>
        <time>2014-05-01T08:47:20.000Z</time>
      </trkpt>
      <trkpt lat="47.51256" lon="6.72243">
        <ele>449.9</ele>
        <time>2014-05-01T08:47:21.000Z</time>
      </trkpt>
      <trkpt lat="47.51256" lon="6.72237">
        <ele>449.3</ele>
        <time>2014-05-01T08:47:22.000Z</time>
      </trkpt>
      <trkpt lat="47.51256" lon="6.72232">
        <ele>448.7</ele>
        <time>2014-05-01T08:47:23.000Z</time>
      </trkpt>
      <trkpt lat="47.51257" lon="6.72228">
        <ele>448.4</ele>
        <time>2014-05-01T08:47:23.999Z</time>
      </trkpt>
      <trkpt lat="47.51257" lon="6.72224">
        <ele>455.1</ele>
        <time>2014-05-01T08:47:25.000Z</time>
      </trkpt>
      <trkpt lat="47.51258" lon="6.72221">
        <ele>456.3</ele>
        <time>2014-05-01T08:47:26.000Z</time>
      </trkpt>
      <trkpt lat="47.51259" lon="6.72217">
        <ele>456.5</ele>
        <time>2014-05-01T08:47:27.000Z</time>
      </trkpt>
      <trkpt lat="47.5126" lon="6.72214">
        <ele>456.8</ele>
        <time>2014-05-01T08:47:28.000Z</time>
      </trkpt>
      <trkpt lat="47.51261" lon="6.7221">
        <ele>452</ele>
        <time>2014-05-01T08:47:29.000Z</time>
      </trkpt>
      <trkpt lat="47.51261" lon="6.72207">
        <ele>451</ele>
        <time>2014-05-01T08:47:30.000Z</time>
      </trkpt>
      <trkpt lat="47.5126" lon="6.72203">
        <ele>447.1</ele>
        <time>2014-05-01T08:47:31.000Z</time>
      </trkpt>
      <trkpt lat="47.51259" lon="6.722">
        <ele>447.4</ele>
        <time>2014-05-01T08:47:32.000Z</time>
      </trkpt>
      <trkpt lat="47.51258" lon="6.72196">
        <ele>448.8</ele>
        <time>2014-05-01T08:47:33.000Z</time>
      </trkpt>
      <trkpt lat="47.51257" lon="6.72193">
        <ele>448.9</ele>
        <time>2014-05-01T08:47:34.000Z</time>
      </trkpt>
      <trkpt lat="47.51257" lon="6.7219">
        <ele>446.8</ele>
        <time>2014-05-01T08:47:35.000Z</time>
      </trkpt>
      <trkpt lat="47.51258" lon="6.72185">
        <ele>446.8</ele>
        <time>2014-05-01T08:47:36.000Z</time>
      </trkpt>
      <trkpt lat="47.51259" lon="6.72182">
        <ele>447</ele>
        <time>2014-05-01T08:47:36.999Z</time>
      </trkpt>
      <trkpt lat="47.51259" lon="6.72176">
        <ele>449.6</ele>
        <time>2014-05-01T08:47:38.000Z</time>
      </trkpt>
      <trkpt lat="47.51259" lon="6.72171">
        <ele>450</ele>
        <time>2014-05-01T08:47:39.000Z</time>
      </trkpt>
      <trkpt lat="47.51259" lon="6.72166">
        <ele>449.8</ele>
        <time>2014-05-01T08:47:40.000Z</time>
      </trkpt>
      <trkpt lat="47.51258" lon="6.72162">
        <ele>448.9</ele>
        <time>2014-05-01T08:47:41.000Z</time>
      </trkpt>
      <trkpt lat="47.51257" lon="6.72158">
        <ele>449.3</ele>
        <time>2014-05-01T08:47:42.000Z</time>
      </trkpt>
      <trkpt lat="47.51256" lon="6.72154">
        <ele>451.2</ele>
        <time>2014-05-01T08:47:43.000Z</time>
      </trkpt>
      <trkpt lat="47.51257" lon="6.72148">
        <ele>454.5</ele>
        <time>2014-05-01T08:47:45.000Z</time>
      </trkpt>
      <trkpt lat="47.51259" lon="6.72145">
        <ele>456.1</ele>
        <time>2014-05-01T08:47:46.000Z</time>
      </trkpt>
      <trkpt lat="47.5126" lon="6.72142">
        <ele>456.3</ele>
        <time>2014-05-01T08:47:47.000Z</time>
      </trkpt>
      <trkpt lat="47.51261" lon="6.72138">
        <ele>456.1</ele>
        <time>2014-05-01T08:47:48.000Z</time>
      </trkpt>
      <trkpt lat="47.51261" lon="6.72132">
        <ele>461.7</ele>
        <time>2014-05-01T08:47:50.000Z</time>
      </trkpt>
      <trkpt lat="47.51261" lon="6.72129">
        <ele>461.5</ele>
        <time>2014-05-01T08:47:51.000Z</time>
      </trkpt>
      <trkpt lat="47.51263" lon="6.72123">
        <ele>462.3</ele>
        <time>2014-05-01T08:47:53.000Z</time>
      </trkpt>
      <trkpt lat="47.51263" lon="6.7212">
        <ele>462.6</ele>
        <time>2014-05-01T08:47:54.000Z</time>
      </trkpt>
      <trkpt lat="47.51264" lon="6.72115">
        <ele>461.3</ele>
        <time>2014-05-01T08:47:55.001Z</time>
      </trkpt>
      <trkpt lat="47.51264" lon="6.72111">
        <ele>460.8</ele>
        <time>2014-05-01T08:47:56.000Z</time>
      </trkpt>
      <trkpt lat="47.51263" lon="6.72105">
        <ele>467.6</ele>
        <time>2014-05-01T08:47:58.000Z</time>
      </trkpt>
      <trkpt lat="47.51263" lon="6.72101">
        <ele>467.5</ele>
        <time>2014-05-01T08:47:59.000Z</time>
      </trkpt>
      <trkpt lat="47.51262" lon="6.72098">
        <ele>467.3</ele>
        <time>2014-05-01T08:48:00.000Z</time>
      </trkpt>
      <trkpt lat="47.51261" lon="6.72093">
        <ele>465.2</ele>
        <time>2014-05-01T08:48:01.000Z</time>
      </trkpt>
      <trkpt lat="47.5126" lon="6.72089">
        <ele>468.4</ele>
        <time>2014-05-01T08:48:02.000Z</time>
      </trkpt>
      <trkpt lat="47.5126" lon="6.72086">
        <ele>471.1</ele>
        <time>2014-05-01T08:48:02.999Z</time>
      </trkpt>
      <trkpt lat="47.51258" lon="6.72083">
        <ele>472.4</ele>
        <time>2014-05-01T08:48:04.001Z</time>
      </trkpt>
      <trkpt lat="47.51255" lon="6.7208">
        <ele>470.7</ele>
        <time>2014-05-01T08:48:05.000Z</time>
      </trkpt>
      <trkpt lat="47.51251" lon="6.72049">
        <ele>467.6</ele>
        <time>2014-05-01T08:48:13.000Z</time>
      </trkpt>
      <trkpt lat="47.51251" lon="6.72044">
        <ele>465.5</ele>
        <time>2014-05-01T08:48:14.000Z</time>
      </trkpt>
      <trkpt lat="47.51251" lon="6.72039">
        <ele>463.2</ele>
        <time>2014-05-01T08:48:15.000Z</time>
      </trkpt>
      <trkpt lat="47.5125" lon="6.72035">
        <ele>462.6</ele>
        <time>2014-05-01T08:48:16.000Z</time>
      </trkpt>
      <trkpt lat="47.5125" lon="6.72032">
        <ele>461.8</ele>
        <time>2014-05-01T08:48:17.000Z</time>
      </trkpt>
      <trkpt lat="47.51249" lon="6.72028">
        <ele>465.6</ele>
        <time>2014-05-01T08:48:18.000Z</time>
      </trkpt>
      <trkpt lat="47.5125" lon="6.72025">
        <ele>466</ele>
        <time>2014-05-01T08:48:19.000Z</time>
      </trkpt>
      <trkpt lat="47.51251" lon="6.72021">
        <ele>463.6</ele>
        <time>2014-05-01T08:48:20.000Z</time>
      </trkpt>
      <trkpt lat="47.51252" lon="6.72019">
        <ele>462.8</ele>
        <time>2014-05-01T08:48:21.000Z</time>
      </trkpt>
      <trkpt lat="47.51254" lon="6.72013">
        <ele>461.8</ele>
        <time>2014-05-01T08:48:22.000Z</time>
      </trkpt>
      <trkpt lat="47.51253" lon="6.72008">
        <ele>463.3</ele>
        <time>2014-05-01T08:48:23.000Z</time>
      </trkpt>
      <trkpt lat="47.51252" lon="6.72003">
        <ele>465.1</ele>
        <time>2014-05-01T08:48:24.000Z</time>
      </trkpt>
      <trkpt lat="47.5125" lon="6.71998">
        <ele>465.5</ele>
        <time>2014-05-01T08:48:25.000Z</time>
      </trkpt>
      <trkpt lat="47.51248" lon="6.71994">
        <ele>466.8</ele>
        <time>2014-05-01T08:48:26.000Z</time>
      </trkpt>
      <trkpt lat="47.51246" lon="6.71988">
        <ele>465.4</ele>
        <time>2014-05-01T08:48:27.000Z</time>
      </trkpt>
      <trkpt lat="47.51245" lon="6.71982">
        <ele>464</ele>
        <time>2014-05-01T08:48:28.000Z</time>
      </trkpt>
      <trkpt lat="47.51245" lon="6.71977">
        <ele>463</ele>
        <time>2014-05-01T08:48:29.000Z</time>
      </trkpt>
      <trkpt lat="47.51244" lon="6.7197">
        <ele>461.3</ele>
        <time>2014-05-01T08:48:30.000Z</time>
      </trkpt>
      <trkpt lat="47.51244" lon="6.71965">
        <ele>464.3</ele>
        <time>2014-05-01T08:48:31.000Z</time>
      </trkpt>
      <trkpt lat="47.51244" lon="6.7196">
        <ele>466.4</ele>
        <time>2014-05-01T08:48:32.000Z</time>
      </trkpt>
      <trkpt lat="47.51244" lon="6.71955">
        <ele>468.1</ele>
        <time>2014-05-01T08:48:33.000Z</time>
      </trkpt>
      <trkpt lat="47.51244" lon="6.71952">
        <ele>470.3</ele>
        <time>2014-05-01T08:48:34.001Z</time>
      </trkpt>
      <trkpt lat="47.51246" lon="6.71948">
        <ele>469.2</ele>
        <time>2014-05-01T08:48:35.000Z</time>
      </trkpt>
      <trkpt lat="47.51243" lon="6.71943">
        <ele>475.1</ele>
        <time>2014-05-01T08:48:39.000Z</time>
      </trkpt>
      <trkpt lat="47.51241" lon="6.71942">
        <ele>476.5</ele>
        <time>2014-05-01T08:48:39.999Z</time>
      </trkpt>
      <trkpt lat="47.51239" lon="6.7194">
        <ele>475.3</ele>
        <time>2014-05-01T08:48:41.002Z</time>
      </trkpt>
      <trkpt lat="47.51239" lon="6.71935">
        <ele>473.1</ele>
        <time>2014-05-01T08:48:42.000Z</time>
      </trkpt>
      <trkpt lat="47.51239" lon="6.7193">
        <ele>473.7</ele>
        <time>2014-05-01T08:48:43.000Z</time>
      </trkpt>
      <trkpt lat="47.51239" lon="6.71926">
        <ele>473.2</ele>
        <time>2014-05-01T08:48:44.000Z</time>
      </trkpt>
      <trkpt lat="47.51239" lon="6.7192">
        <ele>472.2</ele>
        <time>2014-05-01T08:48:45.000Z</time>
      </trkpt>
      <trkpt lat="47.51239" lon="6.71917">
        <ele>472.5</ele>
        <time>2014-05-01T08:48:45.999Z</time>
      </trkpt>
      <trkpt lat="47.51239" lon="6.71912">
        <ele>472.2</ele>
        <time>2014-05-01T08:48:47.000Z</time>
      </trkpt>
      <trkpt lat="47.51239" lon="6.71907">
        <ele>470.7</ele>
        <time>2014-05-01T08:48:48.000Z</time>
      </trkpt>
      <trkpt lat="47.5124" lon="6.71902">
        <ele>470.1</ele>
        <time>2014-05-01T08:48:49.000Z</time>
      </trkpt>
      <trkpt lat="47.51239" lon="6.71899">
        <ele>470.3</ele>
        <time>2014-05-01T08:48:50.000Z</time>
      </trkpt>
      <trkpt lat="47.51237" lon="6.71895">
        <ele>470.6</ele>
        <time>2014-05-01T08:48:52.000Z</time>
      </trkpt>
      <trkpt lat="47.51235" lon="6.71893">
        <ele>469.9</ele>
        <time>2014-05-01T08:48:53.000Z</time>
      </trkpt>
      <trkpt lat="47.51234" lon="6.71887">
        <ele>470.9</ele>
        <time>2014-05-01T08:48:55.000Z</time>
      </trkpt>
      <trkpt lat="47.51234" lon="6.71884">
        <ele>470.2</ele>
        <time>2014-05-01T08:48:56.000Z</time>
      </trkpt>
      <trkpt lat="47.51234" lon="6.71879">
        <ele>470.2</ele>
        <time>2014-05-01T08:48:57.000Z</time>
      </trkpt>
      <trkpt lat="47.51234" lon="6.71874">
        <ele>468.8</ele>
        <time>2014-05-01T08:48:58.000Z</time>
      </trkpt>
      <trkpt lat="47.51234" lon="6.71868">
        <ele>468.5</ele>
        <time>2014-05-01T08:48:59.000Z</time>
      </trkpt>
      <trkpt lat="47.51233" lon="6.71862">
        <ele>470.1</ele>
        <time>2014-05-01T08:49:00.000Z</time>
      </trkpt>
      <trkpt lat="47.51233" lon="6.71856">
        <ele>469.6</ele>
        <time>2014-05-01T08:49:01.000Z</time>
      </trkpt>
      <trkpt lat="47.51232" lon="6.7185">
        <ele>467.8</ele>
        <time>2014-05-01T08:49:02.000Z</time>
      </trkpt>
      <trkpt lat="47.51231" lon="6.71844">
        <ele>468.4</ele>
        <time>2014-05-01T08:49:03.000Z</time>
      </trkpt>
      <trkpt lat="47.5123" lon="6.71839">
        <ele>466.1</ele>
        <time>2014-05-01T08:49:04.000Z</time>
      </trkpt>
      <trkpt lat="47.51229" lon="6.71833">
        <ele>462</ele>
        <time>2014-05-01T08:49:05.000Z</time>
      </trkpt>
      <trkpt lat="47.51226" lon="6.71792">
        <ele>452.5</ele>
        <time>2014-05-01T08:49:13.000Z</time>
      </trkpt>
      <trkpt lat="47.51228" lon="6.71786">
        <ele>453.7</ele>
        <time>2014-05-01T08:49:15.001Z</time>
      </trkpt>
      <trkpt lat="47.51227" lon="6.71785">
        <ele>451.6</ele>
        <time>2014-05-01T08:49:16.000Z</time>
      </trkpt>
      <trkpt lat="47.51226" lon="6.7178">
        <ele>451.7</ele>
        <time>2014-05-01T08:49:19.000Z</time>
      </trkpt>
      <trkpt lat="47.51225" lon="6.71776">
        <ele>456.1</ele>
        <time>2014-05-01T08:49:20.000Z</time>
      </trkpt>
      <trkpt lat="47.51225" lon="6.71772">
        <ele>456.8</ele>
        <time>2014-05-01T08:49:21.000Z</time>
      </trkpt>
      <trkpt lat="47.51226" lon="6.71767">
        <ele>455.1</ele>
        <time>2014-05-01T08:49:22.000Z</time>
      </trkpt>
      <trkpt lat="47.51226" lon="6.71764">
        <ele>455.2</ele>
        <time>2014-05-01T08:49:23.000Z</time>
      </trkpt>
      <trkpt lat="47.51227" lon="6.71757">
        <ele>457.3</ele>
        <time>2014-05-01T08:49:23.999Z</time>
      </trkpt>
      <trkpt lat="47.51227" lon="6.71752">
        <ele>458.2</ele>
        <time>2014-05-01T08:49:25.000Z</time>
      </trkpt>
      <trkpt lat="47.51227" lon="6.71749">
        <ele>459.2</ele>
        <time>2014-05-01T08:49:26.000Z</time>
      </trkpt>
      <trkpt lat="47.51226" lon="6.71746">
        <ele>459.5</ele>
        <time>2014-05-01T08:49:27.000Z</time>
      </trkpt>
      <trkpt lat="47.51225" lon="6.71742">
        <ele>460.9</ele>
        <time>2014-05-01T08:49:28.000Z</time>
      </trkpt>
      <trkpt lat="47.51225" lon="6.71738">
        <ele>461.4</ele>
        <time>2014-05-01T08:49:29.000Z</time>
      </trkpt>
      <trkpt lat="47.51225" lon="6.71733">
        <ele>461.2</ele>
        <time>2014-05-01T08:49:30.000Z</time>
      </trkpt>
      <trkpt lat="47.51226" lon="6.71728">
        <ele>462.5</ele>
        <time>2014-05-01T08:49:31.000Z</time>
      </trkpt>
      <trkpt lat="47.51227" lon="6.71722">
        <ele>464</ele>
        <time>2014-05-01T08:49:32.000Z</time>
      </trkpt>
      <trkpt lat="47.51227" lon="6.71716">
        <ele>464</ele>
        <time>2014-05-01T08:49:33.000Z</time>
      </trkpt>
      <trkpt lat="47.51227" lon="6.71712">
        <ele>464.9</ele>
        <time>2014-05-01T08:49:34.000Z</time>
      </trkpt>
      <trkpt lat="47.51226" lon="6.71708">
        <ele>465.4</ele>
        <time>2014-05-01T08:49:35.000Z</time>
      </trkpt>
      <trkpt lat="47.51225" lon="6.71705">
        <ele>465.3</ele>
        <time>2014-05-01T08:49:36.000Z</time>
      </trkpt>
      <trkpt lat="47.51225" lon="6.71701">
        <ele>462.6</ele>
        <time>2014-05-01T08:49:37.000Z</time>
      </trkpt>
      <trkpt lat="47.51225" lon="6.71697">
        <ele>462.3</ele>
        <time>2014-05-01T08:49:38.000Z</time>
      </trkpt>
      <trkpt lat="47.51224" lon="6.71693">
        <ele>461.7</ele>
        <time>2014-05-01T08:49:39.000Z</time>
      </trkpt>
      <trkpt lat="47.51224" lon="6.71688">
        <ele>463.4</ele>
        <time>2014-05-01T08:49:40.000Z</time>
      </trkpt>
      <trkpt lat="47.51224" lon="6.71685">
        <ele>464.8</ele>
        <time>2014-05-01T08:49:41.000Z</time>
      </trkpt>
      <trkpt lat="47.51225" lon="6.7168">
        <ele>463.8</ele>
        <time>2014-05-01T08:49:42.000Z</time>
      </trkpt>
      <trkpt lat="47.51227" lon="6.71676">
        <ele>465.5</ele>
        <time>2014-05-01T08:49:43.000Z</time>
      </trkpt>
      <trkpt lat="47.51229" lon="6.7167">
        <ele>463.8</ele>
        <time>2014-05-01T08:49:44.000Z</time>
      </trkpt>
      <trkpt lat="47.51231" lon="6.71665">
        <ele>462.9</ele>
        <time>2014-05-01T08:49:45.000Z</time>
      </trkpt>
      <trkpt lat="47.51232" lon="6.71661">
        <ele>463.1</ele>
        <time>2014-05-01T08:49:46.000Z</time>
      </trkpt>
      <trkpt lat="47.51234" lon="6.71657">
        <ele>463.6</ele>
        <time>2014-05-01T08:49:47.000Z</time>
      </trkpt>
      <trkpt lat="47.51234" lon="6.71652">
        <ele>463.1</ele>
        <time>2014-05-01T08:49:48.000Z</time>
      </trkpt>
      <trkpt lat="47.51234" lon="6.71647">
        <ele>462.8</ele>
        <time>2014-05-01T08:49:49.000Z</time>
      </trkpt>
      <trkpt lat="47.51234" lon="6.71642">
        <ele>463.1</ele>
        <time>2014-05-01T08:49:50.000Z</time>
      </trkpt>
      <trkpt lat="47.51232" lon="6.71638">
        <ele>464</ele>
        <time>2014-05-01T08:49:51.000Z</time>
      </trkpt>
      <trkpt lat="47.51229" lon="6.71636">
        <ele>463.4</ele>
        <time>2014-05-01T08:49:52.000Z</time>
      </trkpt>
      <trkpt lat="47.51227" lon="6.71631">
        <ele>467</ele>
        <time>2014-05-01T08:49:54.000Z</time>
      </trkpt>
      <trkpt lat="47.51227" lon="6.71628">
        <ele>467.4</ele>
        <time>2014-05-01T08:49:55.000Z</time>
      </trkpt>
      <trkpt lat="47.51229" lon="6.71622">
        <ele>468</ele>
        <time>2014-05-01T08:49:57.000Z</time>
      </trkpt>
      <trkpt lat="47.5123" lon="6.7162">
        <ele>468.9</ele>
        <time>2014-05-01T08:49:58.000Z</time>
      </trkpt>
      <trkpt lat="47.51231" lon="6.71615">
        <ele>465.1</ele>
        <time>2014-05-01T08:50:00.000Z</time>
      </trkpt>
      <trkpt lat="47.51231" lon="6.71613">
        <ele>464.2</ele>
        <time>2014-05-01T08:50:01.001Z</time>
      </trkpt>
      <trkpt lat="47.51231" lon="6.71609">
        <ele>464.5</ele>
        <time>2014-05-01T08:50:02.000Z</time>
      </trkpt>
      <trkpt lat="47.51232" lon="6.71606">
        <ele>464.5</ele>
        <time>2014-05-01T08:50:03.000Z</time>
      </trkpt>
      <trkpt lat="47.51232" lon="6.71602">
        <ele>462.3</ele>
        <time>2014-05-01T08:50:04.000Z</time>
      </trkpt>
      <trkpt lat="47.51232" lon="6.71599">
        <ele>461.1</ele>
        <time>2014-05-01T08:50:04.998Z</time>
      </trkpt>
      <trkpt lat="47.51232" lon="6.71592">
        <ele>460.6</ele>
        <time>2014-05-01T08:50:06.000Z</time>
      </trkpt>
      <trkpt lat="47.51231" lon="6.7156">
        <ele>454.3</ele>
        <time>2014-05-01T08:50:14.000Z</time>
      </trkpt>
      <trkpt lat="47.51231" lon="6.71556">
        <ele>457.4</ele>
        <time>2014-05-01T08:50:15.000Z</time>
      </trkpt>
      <trkpt lat="47.51232" lon="6.71551">
        <ele>458.5</ele>
        <time>2014-05-01T08:50:16.000Z</time>
      </trkpt>
      <trkpt lat="47.51234" lon="6.71548">
        <ele>459</ele>
        <time>2014-05-01T08:50:17.000Z</time>
      </trkpt>
      <trkpt lat="47.51235" lon="6.71546">
        <ele>462.4</ele>
        <time>2014-05-01T08:50:18.000Z</time>
      </trkpt>
      <trkpt lat="47.51238" lon="6.71541">
        <ele>463</ele>
        <time>2014-05-01T08:50:20.000Z</time>
      </trkpt>
      <trkpt lat="47.51238" lon="6.71536">
        <ele>461.5</ele>
        <time>2014-05-01T08:50:21.000Z</time>
      </trkpt>
      <trkpt lat="47.51238" lon="6.71532">
        <ele>460.4</ele>
        <time>2014-05-01T08:50:22.000Z</time>
      </trkpt>
      <trkpt lat="47.51239" lon="6.71529">
        <ele>460.6</ele>
        <time>2014-05-01T08:50:22.999Z</time>
      </trkpt>
      <trkpt lat="47.51239" lon="6.71523">
        <ele>460</ele>
        <time>2014-05-01T08:50:24.000Z</time>
      </trkpt>
      <trkpt lat="47.5124" lon="6.71517">
        <ele>459</ele>
        <time>2014-05-01T08:50:25.000Z</time>
      </trkpt>
      <trkpt lat="47.51241" lon="6.71513">
        <ele>463.4</ele>
        <time>2014-05-01T08:50:26.000Z</time>
      </trkpt>
      <trkpt lat="47.51241" lon="6.71508">
        <ele>459.8</ele>
        <time>2014-05-01T08:50:27.000Z</time>
      </trkpt>
      <trkpt lat="47.51243" lon="6.71504">
        <ele>458.8</ele>
        <time>2014-05-01T08:50:28.000Z</time>
      </trkpt>
      <trkpt lat="47.51243" lon="6.715">
        <ele>461.7</ele>
        <time>2014-05-01T08:50:29.000Z</time>
      </trkpt>
      <trkpt lat="47.51243" lon="6.71496">
        <ele>463.4</ele>
        <time>2014-05-01T08:50:30.000Z</time>
      </trkpt>
      <trkpt lat="47.51243" lon="6.71492">
        <ele>462.6</ele>
        <time>2014-05-01T08:50:31.000Z</time>
      </trkpt>
      <trkpt lat="47.51242" lon="6.71486">
        <ele>461.2</ele>
        <time>2014-05-01T08:50:32.000Z</time>
      </trkpt>
      <trkpt lat="47.51241" lon="6.71481">
        <ele>459.9</ele>
        <time>2014-05-01T08:50:33.000Z</time>
      </trkpt>
      <trkpt lat="47.51241" lon="6.71475">
        <ele>458.8</ele>
        <time>2014-05-01T08:50:34.000Z</time>
      </trkpt>
      <trkpt lat="47.51241" lon="6.71467">
        <ele>457.7</ele>
        <time>2014-05-01T08:50:35.000Z</time>
      </trkpt>
      <trkpt lat="47.51242" lon="6.7146">
        <ele>456</ele>
        <time>2014-05-01T08:50:36.000Z</time>
      </trkpt>
      <trkpt lat="47.51243" lon="6.71453">
        <ele>459.4</ele>
        <time>2014-05-01T08:50:37.000Z</time>
      </trkpt>
      <trkpt lat="47.51244" lon="6.71445">
        <ele>457.9</ele>
        <time>2014-05-01T08:50:38.000Z</time>
      </trkpt>
      <trkpt lat="47.51245" lon="6.7144">
        <ele>457.5</ele>
        <time>2014-05-01T08:50:39.000Z</time>
      </trkpt>
      <trkpt lat="47.51245" lon="6.7143">
        <ele>457.3</ele>
        <time>2014-05-01T08:50:39.999Z</time>
      </trkpt>
      <trkpt lat="47.51246" lon="6.71422">
        <ele>457.5</ele>
        <time>2014-05-01T08:50:41.000Z</time>
      </trkpt>
      <trkpt lat="47.51247" lon="6.71416">
        <ele>457.9</ele>
        <time>2014-05-01T08:50:42.000Z</time>
      </trkpt>
      <trkpt lat="47.51247" lon="6.71411">
        <ele>459.9</ele>
        <time>2014-05-01T08:50:43.000Z</time>
      </trkpt>
      <trkpt lat="47.51248" lon="6.71407">
        <ele>460.5</ele>
        <time>2014-05-01T08:50:44.000Z</time>
      </trkpt>
      <trkpt lat="47.51248" lon="6.71402">
        <ele>461.2</ele>
        <time>2014-05-01T08:50:45.000Z</time>
      </trkpt>
      <trkpt lat="47.51248" lon="6.71398">
        <ele>460.7</ele>
        <time>2014-05-01T08:50:46.000Z</time>
      </trkpt>
      <trkpt lat="47.51249" lon="6.71393">
        <ele>460.8</ele>
        <time>2014-05-01T08:50:47.000Z</time>
      </trkpt>
      <trkpt lat="47.5125" lon="6.71387">
        <ele>460.8</ele>
        <time>2014-05-01T08:50:48.000Z</time>
      </trkpt>
      <trkpt lat="47.51251" lon="6.71381">
        <ele>460.9</ele>
        <time>2014-05-01T08:50:49.000Z</time>
      </trkpt>
      <trkpt lat="47.51252" lon="6.71375">
        <ele>465</ele>
        <time>2014-05-01T08:50:50.000Z</time>
      </trkpt>
      <trkpt lat="47.51253" lon="6.7137">
        <ele>465.6</ele>
        <time>2014-05-01T08:50:51.000Z</time>
      </trkpt>
      <trkpt lat="47.51253" lon="6.71365">
        <ele>466.1</ele>
        <time>2014-05-01T08:50:52.000Z</time>
      </trkpt>
      <trkpt lat="47.51253" lon="6.7136">
        <ele>466.3</ele>
        <time>2014-05-01T08:50:53.000Z</time>
      </trkpt>
      <trkpt lat="47.51253" lon="6.71354">
        <ele>469.2</ele>
        <time>2014-05-01T08:50:54.000Z</time>
      </trkpt>
      <trkpt lat="47.51253" lon="6.71348">
        <ele>468.4</ele>
        <time>2014-05-01T08:50:55.000Z</time>
      </trkpt>
      <trkpt lat="47.51252" lon="6.71341">
        <ele>467.3</ele>
        <time>2014-05-01T08:50:56.000Z</time>
      </trkpt>
      <trkpt lat="47.51251" lon="6.71335">
        <ele>468.6</ele>
        <time>2014-05-01T08:50:57.000Z</time>
      </trkpt>
      <trkpt lat="47.5125" lon="6.71329">
        <ele>469.1</ele>
        <time>2014-05-01T08:50:58.000Z</time>
      </trkpt>
      <trkpt lat="47.5125" lon="6.71323">
        <ele>469.4</ele>
        <time>2014-05-01T08:50:59.000Z</time>
      </trkpt>
      <trkpt lat="47.5125" lon="6.71316">
        <ele>469.8</ele>
        <time>2014-05-01T08:51:00.000Z</time>
      </trkpt>
      <trkpt lat="47.51251" lon="6.7131">
        <ele>469.3</ele>
        <time>2014-05-01T08:51:01.000Z</time>
      </trkpt>
      <trkpt lat="47.51251" lon="6.71304">
        <ele>470.6</ele>
        <time>2014-05-01T08:51:02.000Z</time>
      </trkpt>
      <trkpt lat="47.51252" lon="6.71298">
        <ele>469.3</ele>
        <time>2014-05-01T08:51:03.000Z</time>
      </trkpt>
      <trkpt lat="47.51252" lon="6.71293">
        <ele>470.4</ele>
        <time>2014-05-01T08:51:04.000Z</time>
      </trkpt>
      <trkpt lat="47.51251" lon="6.71289">
        <ele>470.4</ele>
        <time>2014-05-01T08:51:05.000Z</time>
      </trkpt>
      <trkpt lat="47.51255" lon="6.7125">
        <ele>473.1</ele>
        <time>2014-05-01T08:51:13.000Z</time>
      </trkpt>
      <trkpt lat="47.51256" lon="6.71244">
        <ele>468.4</ele>
        <time>2014-05-01T08:51:14.000Z</time>
      </trkpt>
      <trkpt lat="47.51256" lon="6.71237">
        <ele>467.8</ele>
        <time>2014-05-01T08:51:15.000Z</time>
      </trkpt>
      <trkpt lat="47.51257" lon="6.71229">
        <ele>467</ele>
        <time>2014-05-01T08:51:16.000Z</time>
      </trkpt>
      <trkpt lat="47.51257" lon="6.71225">
        <ele>466.6</ele>
        <time>2014-05-01T08:51:17.001Z</time>
      </trkpt>
      <trkpt lat="47.51258" lon="6.71218">
        <ele>466.7</ele>
        <time>2014-05-01T08:51:18.000Z</time>
      </trkpt>
      <trkpt lat="47.51259" lon="6.71212">
        <ele>464.9</ele>
        <time>2014-05-01T08:51:19.000Z</time>
      </trkpt>
      <trkpt lat="47.51259" lon="6.71203">
        <ele>463</ele>
        <time>2014-05-01T08:51:20.000Z</time>
      </trkpt>
      <trkpt lat="47.51259" lon="6.71199">
        <ele>462.8</ele>
        <time>2014-05-01T08:51:20.998Z</time>
      </trkpt>
      <trkpt lat="47.5126" lon="6.71191">
        <ele>462.4</ele>
        <time>2014-05-01T08:51:22.000Z</time>
      </trkpt>
      <trkpt lat="47.5126" lon="6.71187">
        <ele>462</ele>
        <time>2014-05-01T08:51:23.000Z</time>
      </trkpt>
      <trkpt lat="47.51262" lon="6.71179">
        <ele>460.9</ele>
        <time>2014-05-01T08:51:24.000Z</time>
      </trkpt>
      <trkpt lat="47.51263" lon="6.71173">
        <ele>460.7</ele>
        <time>2014-05-01T08:51:25.000Z</time>
      </trkpt>
      <trkpt lat="47.51264" lon="6.71169">
        <ele>460.9</ele>
        <time>2014-05-01T08:51:26.000Z</time>
      </trkpt>
      <trkpt lat="47.51264" lon="6.71166">
        <ele>461.3</ele>
        <time>2014-05-01T08:51:27.000Z</time>
      </trkpt>
      <trkpt lat="47.51264" lon="6.71162">
        <ele>459.7</ele>
        <time>2014-05-01T08:51:28.000Z</time>
      </trkpt>
      <trkpt lat="47.51264" lon="6.71157">
        <ele>461.2</ele>
        <time>2014-05-01T08:51:29.000Z</time>
      </trkpt>
      <trkpt lat="47.51264" lon="6.71154">
        <ele>461.4</ele>
        <time>2014-05-01T08:51:30.000Z</time>
      </trkpt>
      <trkpt lat="47.51264" lon="6.7115">
        <ele>459.6</ele>
        <time>2014-05-01T08:51:31.000Z</time>
      </trkpt>
      <trkpt lat="47.51264" lon="6.71145">
        <ele>458.8</ele>
        <time>2014-05-01T08:51:32.000Z</time>
      </trkpt>
      <trkpt lat="47.51263" lon="6.71141">
        <ele>458.3</ele>
        <time>2014-05-01T08:51:33.000Z</time>
      </trkpt>
      <trkpt lat="47.51263" lon="6.71136">
        <ele>458.3</ele>
        <time>2014-05-01T08:51:34.000Z</time>
      </trkpt>
      <trkpt lat="47.51263" lon="6.71132">
        <ele>458.6</ele>
        <time>2014-05-01T08:51:34.999Z</time>
      </trkpt>
      <trkpt lat="47.51263" lon="6.71128">
        <ele>462.1</ele>
        <time>2014-05-01T08:51:36.000Z</time>
      </trkpt>
      <trkpt lat="47.51261" lon="6.71123">
        <ele>470.5</ele>
        <time>2014-05-01T08:51:39.001Z</time>
      </trkpt>
      <trkpt lat="47.51259" lon="6.71121">
        <ele>471</ele>
        <time>2014-05-01T08:51:39.999Z</time>
      </trkpt>
      <trkpt lat="47.51257" lon="6.71116">
        <ele>471.7</ele>
        <time>2014-05-01T08:51:42.000Z</time>
      </trkpt>
      <trkpt lat="47.51257" lon="6.71111">
        <ele>470.5</ele>
        <time>2014-05-01T08:51:43.000Z</time>
      </trkpt>
      <trkpt lat="47.51257" lon="6.71107">
        <ele>471.2</ele>
        <time>2014-05-01T08:51:44.000Z</time>
      </trkpt>
      <trkpt lat="47.51258" lon="6.71103">
        <ele>471.3</ele>
        <time>2014-05-01T08:51:45.000Z</time>
      </trkpt>
      <trkpt lat="47.51259" lon="6.71099">
        <ele>471.4</ele>
        <time>2014-05-01T08:51:46.000Z</time>
      </trkpt>
      <trkpt lat="47.51259" lon="6.71096">
        <ele>474.7</ele>
        <time>2014-05-01T08:51:47.000Z</time>
      </trkpt>
      <trkpt lat="47.5126" lon="6.71092">
        <ele>471.9</ele>
        <time>2014-05-01T08:51:48.000Z</time>
      </trkpt>
      <trkpt lat="47.51261" lon="6.71087">
        <ele>471.9</ele>
        <time>2014-05-01T08:51:49.000Z</time>
      </trkpt>
      <trkpt lat="47.51262" lon="6.71083">
        <ele>471.8</ele>
        <time>2014-05-01T08:51:50.000Z</time>
      </trkpt>
      <trkpt lat="47.51263" lon="6.7108">
        <ele>471.6</ele>
        <time>2014-05-01T08:51:51.000Z</time>
      </trkpt>
      <trkpt lat="47.51264" lon="6.71075">
        <ele>472.6</ele>
        <time>2014-05-01T08:51:52.000Z</time>
      </trkpt>
      <trkpt lat="47.51265" lon="6.71069">
        <ele>472.8</ele>
        <time>2014-05-01T08:51:53.000Z</time>
      </trkpt>
      <trkpt lat="47.51267" lon="6.71063">
        <ele>475.6</ele>
        <time>2014-05-01T08:51:54.000Z</time>
      </trkpt>
      <trkpt lat="47.51268" lon="6.71058">
        <ele>476.6</ele>
        <time>2014-05-01T08:51:55.000Z</time>
      </trkpt>
      <trkpt lat="47.51269" lon="6.71052">
        <ele>477.1</ele>
        <time>2014-05-01T08:51:56.000Z</time>
      </trkpt>
      <trkpt lat="47.5127" lon="6.71048">
        <ele>476.5</ele>
        <time>2014-05-01T08:51:57.000Z</time>
      </trkpt>
      <trkpt lat="47.51271" lon="6.71044">
        <ele>476.3</ele>
        <time>2014-05-01T08:51:58.000Z</time>
      </trkpt>
      <trkpt lat="47.51273" lon="6.71039">
        <ele>475.5</ele>
        <time>2014-05-01T08:51:59.000Z</time>
      </trkpt>
      <trkpt lat="47.51274" lon="6.71035">
        <ele>475.3</ele>
        <time>2014-05-01T08:52:00.000Z</time>
      </trkpt>
      <trkpt lat="47.51275" lon="6.7103">
        <ele>474.7</ele>
        <time>2014-05-01T08:52:01.000Z</time>
      </trkpt>
      <trkpt lat="47.51275" lon="6.71025">
        <ele>474.4</ele>
        <time>2014-05-01T08:52:02.000Z</time>
      </trkpt>
      <trkpt lat="47.51276" lon="6.71021">
        <ele>474.1</ele>
        <time>2014-05-01T08:52:03.000Z</time>
      </trkpt>
      <trkpt lat="47.51277" lon="6.71016">
        <ele>476.4</ele>
        <time>2014-05-01T08:52:04.000Z</time>
      </trkpt>
      <trkpt lat="47.51277" lon="6.71011">
        <ele>473.9</ele>
        <time>2014-05-01T08:52:05.000Z</time>
      </trkpt>
      <trkpt lat="47.5128" lon="6.70986">
        <ele>473.7</ele>
        <time>2014-05-01T08:52:13.000Z</time>
      </trkpt>
      <trkpt lat="47.51281" lon="6.70982">
        <ele>473</ele>
        <time>2014-05-01T08:52:14.000Z</time>
      </trkpt>
      <trkpt lat="47.51282" lon="6.70976">
        <ele>476.6</ele>
        <time>2014-05-01T08:52:15.000Z</time>
      </trkpt>
      <trkpt lat="47.51283" lon="6.70971">
        <ele>475.1</ele>
        <time>2014-05-01T08:52:16.000Z</time>
      </trkpt>
      <trkpt lat="47.51283" lon="6.70965">
        <ele>475.4</ele>
        <time>2014-05-01T08:52:17.000Z</time>
      </trkpt>
      <trkpt lat="47.51284" lon="6.7096">
        <ele>474.1</ele>
        <time>2014-05-01T08:52:18.000Z</time>
      </trkpt>
      <trkpt lat="47.51285" lon="6.70954">
        <ele>473.8</ele>
        <time>2014-05-01T08:52:19.000Z</time>
      </trkpt>
      <trkpt lat="47.51285" lon="6.70951">
        <ele>473.5</ele>
        <time>2014-05-01T08:52:19.999Z</time>
      </trkpt>
      <trkpt lat="47.51284" lon="6.70945">
        <ele>471.4</ele>
        <time>2014-05-01T08:52:21.000Z</time>
      </trkpt>
      <trkpt lat="47.51282" lon="6.70941">
        <ele>476.4</ele>
        <time>2014-05-01T08:52:22.999Z</time>
      </trkpt>
      <trkpt lat="47.51281" lon="6.7094">
        <ele>478.4</ele>
        <time>2014-05-01T08:52:24.000Z</time>
      </trkpt>
      <trkpt lat="47.51283" lon="6.70938">
        <ele>475.7</ele>
        <time>2014-05-01T08:52:26.001Z</time>
      </trkpt>
      <trkpt lat="47.51285" lon="6.70935">
        <ele>475.1</ele>
        <time>2014-05-01T08:52:27.000Z</time>
      </trkpt>
      <trkpt lat="47.51287" lon="6.70932">
        <ele>476.3</ele>
        <time>2014-05-01T08:52:28.000Z</time>
      </trkpt>
      <trkpt lat="47.5129" lon="6.70929">
        <ele>476.8</ele>
        <time>2014-05-01T08:52:29.000Z</time>
      </trkpt>
      <trkpt lat="47.51292" lon="6.70927">
        <ele>477.5</ele>
        <time>2014-05-01T08:52:30.000Z</time>
      </trkpt>
      <trkpt lat="47.51294" lon="6.70925">
        <ele>477</ele>
        <time>2014-05-01T08:52:31.000Z</time>
      </trkpt>
      <trkpt lat="47.51297" lon="6.70924">
        <ele>476.4</ele>
        <time>2014-05-01T08:52:32.000Z</time>
      </trkpt>
      <trkpt lat="47.51299" lon="6.70923">
        <ele>476.2</ele>
        <time>2014-05-01T08:52:33.000Z</time>
      </trkpt>
      <trkpt lat="47.51302" lon="6.70923">
        <ele>476.9</ele>
        <time>2014-05-01T08:52:34.000Z</time>
      </trkpt>
      <trkpt lat="47.51304" lon="6.70922">
        <ele>477.2</ele>
        <time>2014-05-01T08:52:35.000Z</time>
      </trkpt>
      <trkpt lat="47.51307" lon="6.70922">
        <ele>477.7</ele>
        <time>2014-05-01T08:52:35.999Z</time>
      </trkpt>
      <trkpt lat="47.5131" lon="6.7092">
        <ele>476.6</ele>
        <time>2014-05-01T08:52:37.000Z</time>
      </trkpt>
      <trkpt lat="47.51312" lon="6.70915">
        <ele>476.3</ele>
        <time>2014-05-01T08:52:39.000Z</time>
      </trkpt>
      <trkpt lat="47.51313" lon="6.70912">
        <ele>476.3</ele>
        <time>2014-05-01T08:52:40.000Z</time>
      </trkpt>
      <trkpt lat="47.51314" lon="6.70909">
        <ele>477.1</ele>
        <time>2014-05-01T08:52:40.999Z</time>
      </trkpt>
      <trkpt lat="47.51313" lon="6.70905">
        <ele>475.9</ele>
        <time>2014-05-01T08:52:42.000Z</time>
      </trkpt>
      <trkpt lat="47.51312" lon="6.709">
        <ele>479.3</ele>
        <time>2014-05-01T08:52:44.000Z</time>
      </trkpt>
      <trkpt lat="47.51311" lon="6.70897">
        <ele>480.1</ele>
        <time>2014-05-01T08:52:45.000Z</time>
      </trkpt>
      <trkpt lat="47.51307" lon="6.70895">
        <ele>484.1</ele>
        <time>2014-05-01T08:52:47.000Z</time>
      </trkpt>
      <trkpt lat="47.51305" lon="6.70894">
        <ele>484.5</ele>
        <time>2014-05-01T08:52:48.000Z</time>
      </trkpt>
      <trkpt lat="47.51302" lon="6.70891">
        <ele>486.7</ele>
        <time>2014-05-01T08:52:49.999Z</time>
      </trkpt>
      <trkpt lat="47.513" lon="6.70886">
        <ele>482.7</ele>
        <time>2014-05-01T08:52:51.000Z</time>
      </trkpt>
      <trkpt lat="47.51298" lon="6.70881">
        <ele>480.8</ele>
        <time>2014-05-01T08:52:52.000Z</time>
      </trkpt>
      <trkpt lat="47.51296" lon="6.70877">
        <ele>480</ele>
        <time>2014-05-01T08:52:53.000Z</time>
      </trkpt>
      <trkpt lat="47.51293" lon="6.70872">
        <ele>479.2</ele>
        <time>2014-05-01T08:52:54.000Z</time>
      </trkpt>
      <trkpt lat="47.51292" lon="6.70867">
        <ele>482.7</ele>
        <time>2014-05-01T08:52:55.000Z</time>
      </trkpt>
      <trkpt lat="47.51293" lon="6.70862">
        <ele>484.9</ele>
        <time>2014-05-01T08:52:56.000Z</time>
      </trkpt>
      <trkpt lat="47.51294" lon="6.70855">
        <ele>483.7</ele>
        <time>2014-05-01T08:52:57.000Z</time>
      </trkpt>
      <trkpt lat="47.51295" lon="6.70848">
        <ele>482.6</ele>
        <time>2014-05-01T08:52:58.000Z</time>
      </trkpt>
      <trkpt lat="47.51297" lon="6.70842">
        <ele>483.9</ele>
        <time>2014-05-01T08:52:59.000Z</time>
      </trkpt>
      <trkpt lat="47.51297" lon="6.70836">
        <ele>484</ele>
        <time>2014-05-01T08:53:00.000Z</time>
      </trkpt>
      <trkpt lat="47.51298" lon="6.70831">
        <ele>481.5</ele>
        <time>2014-05-01T08:53:01.000Z</time>
      </trkpt>
      <trkpt lat="47.51298" lon="6.70827">
        <ele>481</ele>
        <time>2014-05-01T08:53:02.000Z</time>
      </trkpt>
      <trkpt lat="47.51298" lon="6.70823">
        <ele>479.2</ele>
        <time>2014-05-01T08:53:03.000Z</time>
      </trkpt>
      <trkpt lat="47.51299" lon="6.70819">
        <ele>477.7</ele>
        <time>2014-05-01T08:53:04.000Z</time>
      </trkpt>
      <trkpt lat="47.513" lon="6.70815">
        <ele>476.2</ele>
        <time>2014-05-01T08:53:05.000Z</time>
      </trkpt>
      <trkpt lat="47.51302" lon="6.70796">
        <ele>464.7</ele>
        <time>2014-05-01T08:53:13.000Z</time>
      </trkpt>
      <trkpt lat="47.51299" lon="6.70794">
        <ele>462.8</ele>
        <time>2014-05-01T08:53:15.000Z</time>
      </trkpt>
      <trkpt lat="47.51296" lon="6.70793">
        <ele>463.9</ele>
        <time>2014-05-01T08:53:16.000Z</time>
      </trkpt>
      <trkpt lat="47.51293" lon="6.70792">
        <ele>460.6</ele>
        <time>2014-05-01T08:53:17.000Z</time>
      </trkpt>
      <trkpt lat="47.51289" lon="6.7079">
        <ele>458.6</ele>
        <time>2014-05-01T08:53:18.000Z</time>
      </trkpt>
      <trkpt lat="47.51285" lon="6.70788">
        <ele>455.2</ele>
        <time>2014-05-01T08:53:19.000Z</time>
      </trkpt>
      <trkpt lat="47.51281" lon="6.70787">
        <ele>452.5</ele>
        <time>2014-05-01T08:53:20.000Z</time>
      </trkpt>
      <trkpt lat="47.51279" lon="6.70787">
        <ele>451.4</ele>
        <time>2014-05-01T08:53:20.999Z</time>
      </trkpt>
      <trkpt lat="47.51275" lon="6.70786">
        <ele>449.6</ele>
        <time>2014-05-01T08:53:22.000Z</time>
      </trkpt>
      <trkpt lat="47.51273" lon="6.70786">
        <ele>448.7</ele>
        <time>2014-05-01T08:53:22.999Z</time>
      </trkpt>
      <trkpt lat="47.5127" lon="6.70784">
        <ele>445.8</ele>
        <time>2014-05-01T08:53:24.000Z</time>
      </trkpt>
      <trkpt lat="47.51268" lon="6.70783">
        <ele>444.1</ele>
        <time>2014-05-01T08:53:25.000Z</time>
      </trkpt>
      <trkpt lat="47.51266" lon="6.70781">
        <ele>443.3</ele>
        <time>2014-05-01T08:53:26.000Z</time>
      </trkpt>
      <trkpt lat="47.51264" lon="6.7078">
        <ele>442.4</ele>
        <time>2014-05-01T08:53:27.000Z</time>
      </trkpt>
      <trkpt lat="47.51261" lon="6.70778">
        <ele>441.5</ele>
        <time>2014-05-01T08:53:28.000Z</time>
      </trkpt>
      <trkpt lat="47.51259" lon="6.70776">
        <ele>441.4</ele>
        <time>2014-05-01T08:53:29.000Z</time>
      </trkpt>
      <trkpt lat="47.51256" lon="6.70773">
        <ele>440.6</ele>
        <time>2014-05-01T08:53:30.000Z</time>
      </trkpt>
      <trkpt lat="47.51254" lon="6.70772">
        <ele>440.5</ele>
        <time>2014-05-01T08:53:31.000Z</time>
      </trkpt>
      <trkpt lat="47.51248" lon="6.70766">
        <ele>438.5</ele>
        <time>2014-05-01T08:53:32.000Z</time>
      </trkpt>
      <trkpt lat="47.51245" lon="6.70763">
        <ele>433.9</ele>
        <time>2014-05-01T08:53:33.000Z</time>
      </trkpt>
      <trkpt lat="47.51241" lon="6.70761">
        <ele>432.1</ele>
        <time>2014-05-01T08:53:34.000Z</time>
      </trkpt>
      <trkpt lat="47.51237" lon="6.70758">
        <ele>434.5</ele>
        <time>2014-05-01T08:53:35.000Z</time>
      </trkpt>
      <trkpt lat="47.51232" lon="6.70754">
        <ele>433.8</ele>
        <time>2014-05-01T08:53:36.000Z</time>
      </trkpt>
      <trkpt lat="47.51228" lon="6.70751">
        <ele>434.2</ele>
        <time>2014-05-01T08:53:37.000Z</time>
      </trkpt>
      <trkpt lat="47.51223" lon="6.70747">
        <ele>435.2</ele>
        <time>2014-05-01T08:53:38.000Z</time>
      </trkpt>
      <trkpt lat="47.51219" lon="6.70744">
        <ele>436.5</ele>
        <time>2014-05-01T08:53:39.000Z</time>
      </trkpt>
      <trkpt lat="47.51214" lon="6.70741">
        <ele>437.2</ele>
        <time>2014-05-01T08:53:40.000Z</time>
      </trkpt>
      <trkpt lat="47.5121" lon="6.70739">
        <ele>436.8</ele>
        <time>2014-05-01T08:53:41.000Z</time>
      </trkpt>
      <trkpt lat="47.51206" lon="6.70737">
        <ele>437.5</ele>
        <time>2014-05-01T08:53:42.000Z</time>
      </trkpt>
      <trkpt lat="47.51203" lon="6.70735">
        <ele>437.2</ele>
        <time>2014-05-01T08:53:43.000Z</time>
      </trkpt>
      <trkpt lat="47.512" lon="6.70733">
        <ele>437.5</ele>
        <time>2014-05-01T08:53:44.000Z</time>
      </trkpt>
      <trkpt lat="47.51197" lon="6.70732">
        <ele>438</ele>
        <time>2014-05-01T08:53:45.000Z</time>
      </trkpt>
      <trkpt lat="47.51194" lon="6.7073">
        <ele>438.2</ele>
        <time>2014-05-01T08:53:46.000Z</time>
      </trkpt>
      <trkpt lat="47.5119" lon="6.70729">
        <ele>438.5</ele>
        <time>2014-05-01T08:53:47.000Z</time>
      </trkpt>
      <trkpt lat="47.51187" lon="6.70728">
        <ele>439</ele>
        <time>2014-05-01T08:53:48.000Z</time>
      </trkpt>
      <trkpt lat="47.51184" lon="6.70727">
        <ele>438.2</ele>
        <time>2014-05-01T08:53:49.000Z</time>
      </trkpt>
      <trkpt lat="47.51182" lon="6.70726">
        <ele>439.2</ele>
        <time>2014-05-01T08:53:50.000Z</time>
      </trkpt>
      <trkpt lat="47.51179" lon="6.70725">
        <ele>439.7</ele>
        <time>2014-05-01T08:53:51.000Z</time>
      </trkpt>
      <trkpt lat="47.51175" lon="6.70723">
        <ele>437.9</ele>
        <time>2014-05-01T08:53:52.000Z</time>
      </trkpt>
      <trkpt lat="47.51171" lon="6.70721">
        <ele>437.8</ele>
        <time>2014-05-01T08:53:53.000Z</time>
      </trkpt>
      <trkpt lat="47.51167" lon="6.70719">
        <ele>437.5</ele>
        <time>2014-05-01T08:53:54.000Z</time>
      </trkpt>
      <trkpt lat="47.51163" lon="6.70718">
        <ele>436.8</ele>
        <time>2014-05-01T08:53:55.000Z</time>
      </trkpt>
      <trkpt lat="47.51159" lon="6.70718">
        <ele>436.4</ele>
        <time>2014-05-01T08:53:56.000Z</time>
      </trkpt>
      <trkpt lat="47.51155" lon="6.70717">
        <ele>436.9</ele>
        <time>2014-05-01T08:53:57.000Z</time>
      </trkpt>
      <trkpt lat="47.51151" lon="6.70717">
        <ele>437.2</ele>
        <time>2014-05-01T08:53:58.000Z</time>
      </trkpt>
      <trkpt lat="47.51147" lon="6.70717">
        <ele>435.8</ele>
        <time>2014-05-01T08:53:59.000Z</time>
      </trkpt>
      <trkpt lat="47.51139" lon="6.70717">
        <ele>432.4</ele>
        <time>2014-05-01T08:54:00.000Z</time>
      </trkpt>
      <trkpt lat="47.51134" lon="6.70715">
        <ele>430.2</ele>
        <time>2014-05-01T08:54:01.000Z</time>
      </trkpt>
      <trkpt lat="47.5113" lon="6.70714">
        <ele>429.7</ele>
        <time>2014-05-01T08:54:02.000Z</time>
      </trkpt>
      <trkpt lat="47.51125" lon="6.70713">
        <ele>429.5</ele>
        <time>2014-05-01T08:54:03.000Z</time>
      </trkpt>
      <trkpt lat="47.51117" lon="6.70711">
        <ele>427.9</ele>
        <time>2014-05-01T08:54:04.000Z</time>
      </trkpt>
      <trkpt lat="47.51113" lon="6.7071">
        <ele>427.3</ele>
        <time>2014-05-01T08:54:05.000Z</time>
      </trkpt>
      <trkpt lat="47.51106" lon="6.70708">
        <ele>426.1</ele>
        <time>2014-05-01T08:54:08.000Z</time>
      </trkpt>
      <trkpt lat="47.51098" lon="6.70705">
        <ele>425.9</ele>
        <time>2014-05-01T08:54:09.000Z</time>
      </trkpt>
      <trkpt lat="47.51094" lon="6.70708">
        <ele>422.3</ele>
        <time>2014-05-01T08:54:10.000Z</time>
      </trkpt>
      <trkpt lat="47.51084" lon="6.70702">
        <ele>422.5</ele>
        <time>2014-05-01T08:54:11.000Z</time>
      </trkpt>
      <trkpt lat="47.51077" lon="6.707">
        <ele>422.4</ele>
        <time>2014-05-01T08:54:12.000Z</time>
      </trkpt>
      <trkpt lat="47.51069" lon="6.70696">
        <ele>420.7</ele>
        <time>2014-05-01T08:54:13.000Z</time>
      </trkpt>
      <trkpt lat="47.51065" lon="6.70697">
        <ele>419.2</ele>
        <time>2014-05-01T08:54:14.000Z</time>
      </trkpt>
      <trkpt lat="47.51061" lon="6.70693">
        <ele>419.8</ele>
        <time>2014-05-01T08:54:15.000Z</time>
      </trkpt>
      <trkpt lat="47.51057" lon="6.70688">
        <ele>420.9</ele>
        <time>2014-05-01T08:54:16.000Z</time>
      </trkpt>
      <trkpt lat="47.51053" lon="6.70684">
        <ele>421.7</ele>
        <time>2014-05-01T08:54:17.000Z</time>
      </trkpt>
      <trkpt lat="47.51053" lon="6.70684">
        <ele>420.9</ele>
        <time>2014-05-01T08:54:18.000Z</time>
      </trkpt>
      <trkpt lat="47.51052" lon="6.70683">
        <ele>420.9</ele>
        <time>2014-05-01T08:54:19.000Z</time>
      </trkpt>
      <trkpt lat="47.51049" lon="6.70678">
        <ele>420.8</ele>
        <time>2014-05-01T08:54:20.000Z</time>
      </trkpt>
      <trkpt lat="47.51043" lon="6.70672">
        <ele>420.3</ele>
        <time>2014-05-01T08:54:21.000Z</time>
      </trkpt>
      <trkpt lat="47.51036" lon="6.70668">
        <ele>417.2</ele>
        <time>2014-05-01T08:54:22.000Z</time>
      </trkpt>
      <trkpt lat="47.51032" lon="6.70663">
        <ele>416</ele>
        <time>2014-05-01T08:54:23.000Z</time>
      </trkpt>
      <trkpt lat="47.51029" lon="6.70658">
        <ele>415.8</ele>
        <time>2014-05-01T08:54:24.000Z</time>
      </trkpt>
      <trkpt lat="47.51026" lon="6.70654">
        <ele>415.7</ele>
        <time>2014-05-01T08:54:24.999Z</time>
      </trkpt>
      <trkpt lat="47.51027" lon="6.7065">
        <ele>416.5</ele>
        <time>2014-05-01T08:54:26.000Z</time>
      </trkpt>
      <trkpt lat="47.51026" lon="6.70645">
        <ele>415.9</ele>
        <time>2014-05-01T08:54:27.000Z</time>
      </trkpt>
      <trkpt lat="47.51022" lon="6.70644">
        <ele>417.4</ele>
        <time>2014-05-01T08:54:30.000Z</time>
      </trkpt>
      <trkpt lat="47.51021" lon="6.70643">
        <ele>418</ele>
        <time>2014-05-01T08:54:31.000Z</time>
      </trkpt>
      <trkpt lat="47.51024" lon="6.70639">
        <ele>417.5</ele>
        <time>2014-05-01T08:55:40.000Z</time>
      </trkpt>
      <trkpt lat="47.51025" lon="6.70638">
        <ele>418.4</ele>
        <time>2014-05-01T08:55:41.000Z</time>
      </trkpt>
      <trkpt lat="47.51029" lon="6.70638">
        <ele>416.3</ele>
        <time>2014-05-01T08:55:43.000Z</time>
      </trkpt>
      <trkpt lat="47.51031" lon="6.70636">
        <ele>411.5</ele>
        <time>2014-05-01T08:55:44.000Z</time>
      </trkpt>
      <trkpt lat="47.51033" lon="6.70634">
        <ele>408.8</ele>
        <time>2014-05-01T08:55:44.999Z</time>
      </trkpt>
      <trkpt lat="47.51034" lon="6.7063">
        <ele>408.3</ele>
        <time>2014-05-01T08:55:46.000Z</time>
      </trkpt>
      <trkpt lat="47.51035" lon="6.70627">
        <ele>407.4</ele>
        <time>2014-05-01T08:55:47.000Z</time>
      </trkpt>
      <trkpt lat="47.51037" lon="6.70624">
        <ele>408.8</ele>
        <time>2014-05-01T08:55:48.000Z</time>
      </trkpt>
      <trkpt lat="47.51039" lon="6.70619">
        <ele>410.6</ele>
        <time>2014-05-01T08:55:51.000Z</time>
      </trkpt>
      <trkpt lat="47.5104" lon="6.70618">
        <ele>411</ele>
        <time>2014-05-01T08:55:52.000Z</time>
      </trkpt>
      <trkpt lat="47.51043" lon="6.70615">
        <ele>412.1</ele>
        <time>2014-05-01T08:55:54.000Z</time>
      </trkpt>
      <trkpt lat="47.51045" lon="6.70612">
        <ele>411.6</ele>
        <time>2014-05-01T08:55:55.000Z</time>
      </trkpt>
      <trkpt lat="47.51047" lon="6.70611">
        <ele>411.7</ele>
        <time>2014-05-01T08:55:55.999Z</time>
      </trkpt>
      <trkpt lat="47.51049" lon="6.70605">
        <ele>410.9</ele>
        <time>2014-05-01T08:55:57.000Z</time>
      </trkpt>
      <trkpt lat="47.51052" lon="6.70601">
        <ele>411.4</ele>
        <time>2014-05-01T08:55:58.000Z</time>
      </trkpt>
      <trkpt lat="47.51053" lon="6.70598">
        <ele>411.4</ele>
        <time>2014-05-01T08:55:58.999Z</time>
      </trkpt>
      <trkpt lat="47.51056" lon="6.70589">
        <ele>411.6</ele>
        <time>2014-05-01T08:56:00.000Z</time>
      </trkpt>
      <trkpt lat="47.51059" lon="6.70582">
        <ele>412.7</ele>
        <time>2014-05-01T08:56:01.000Z</time>
      </trkpt>
      <trkpt lat="47.51061" lon="6.70579">
        <ele>412.9</ele>
        <time>2014-05-01T08:56:02.001Z</time>
      </trkpt>
      <trkpt lat="47.51064" lon="6.70569">
        <ele>409.7</ele>
        <time>2014-05-01T08:56:03.000Z</time>
      </trkpt>
      <trkpt lat="47.51066" lon="6.70562">
        <ele>410.8</ele>
        <time>2014-05-01T08:56:04.000Z</time>
      </trkpt>
      <trkpt lat="47.51069" lon="6.70555">
        <ele>412.6</ele>
        <time>2014-05-01T08:56:05.000Z</time>
      </trkpt>
      <trkpt lat="47.51069" lon="6.70517">
        <ele>410.6</ele>
        <time>2014-05-01T08:56:13.000Z</time>
      </trkpt>
      <trkpt lat="47.51067" lon="6.70514">
        <ele>411.7</ele>
        <time>2014-05-01T08:56:14.000Z</time>
      </trkpt>
      <trkpt lat="47.51067" lon="6.70509">
        <ele>408.2</ele>
        <time>2014-05-01T08:56:15.000Z</time>
      </trkpt>
      <trkpt lat="47.51068" lon="6.70504">
        <ele>407.5</ele>
        <time>2014-05-01T08:56:16.000Z</time>
      </trkpt>
      <trkpt lat="47.5107" lon="6.70499">
        <ele>411</ele>
        <time>2014-05-01T08:56:17.000Z</time>
      </trkpt>
      <trkpt lat="47.51071" lon="6.70496">
        <ele>412.5</ele>
        <time>2014-05-01T08:56:18.000Z</time>
      </trkpt>
      <trkpt lat="47.51076" lon="6.70491">
        <ele>410.6</ele>
        <time>2014-05-01T08:56:19.000Z</time>
      </trkpt>
      <trkpt lat="47.51079" lon="6.70489">
        <ele>411</ele>
        <time>2014-05-01T08:56:20.000Z</time>
      </trkpt>
      <trkpt lat="47.51082" lon="6.70488">
        <ele>417.7</ele>
        <time>2014-05-01T08:56:21.000Z</time>
      </trkpt>
      <trkpt lat="47.51085" lon="6.70487">
        <ele>419.8</ele>
        <time>2014-05-01T08:56:22.000Z</time>
      </trkpt>
      <trkpt lat="47.5109" lon="6.70486">
        <ele>423.5</ele>
        <time>2014-05-01T08:56:23.000Z</time>
      </trkpt>
      <trkpt lat="47.51094" lon="6.70487">
        <ele>427.2</ele>
        <time>2014-05-01T08:56:24.000Z</time>
      </trkpt>
      <trkpt lat="47.51097" lon="6.70485">
        <ele>422.5</ele>
        <time>2014-05-01T08:56:25.000Z</time>
      </trkpt>
      <trkpt lat="47.51098" lon="6.70485">
        <ele>420.5</ele>
        <time>2014-05-01T08:56:26.000Z</time>
      </trkpt>
      <trkpt lat="47.51101" lon="6.7048">
        <ele>420.1</ele>
        <time>2014-05-01T08:56:27.000Z</time>
      </trkpt>
      <trkpt lat="47.51104" lon="6.70481">
        <ele>417.5</ele>
        <time>2014-05-01T08:56:29.000Z</time>
      </trkpt>
      <trkpt lat="47.51107" lon="6.70479">
        <ele>416.1</ele>
        <time>2014-05-01T08:56:30.000Z</time>
      </trkpt>
      <trkpt lat="47.51109" lon="6.70479">
        <ele>416.6</ele>
        <time>2014-05-01T08:56:31.001Z</time>
      </trkpt>
      <trkpt lat="47.5111" lon="6.70474">
        <ele>415</ele>
        <time>2014-05-01T08:56:32.000Z</time>
      </trkpt>
      <trkpt lat="47.51114" lon="6.70472">
        <ele>409.7</ele>
        <time>2014-05-01T08:56:34.000Z</time>
      </trkpt>
      <trkpt lat="47.51116" lon="6.70471">
        <ele>408.3</ele>
        <time>2014-05-01T08:56:35.000Z</time>
      </trkpt>
      <trkpt lat="47.5112" lon="6.70468">
        <ele>406.5</ele>
        <time>2014-05-01T08:56:36.999Z</time>
      </trkpt>
      <trkpt lat="47.51122" lon="6.70462">
        <ele>408.4</ele>
        <time>2014-05-01T08:56:38.000Z</time>
      </trkpt>
      <trkpt lat="47.51123" lon="6.70459">
        <ele>409.4</ele>
        <time>2014-05-01T08:56:39.000Z</time>
      </trkpt>
      <trkpt lat="47.51124" lon="6.70455">
        <ele>409.6</ele>
        <time>2014-05-01T08:56:40.000Z</time>
      </trkpt>
      <trkpt lat="47.51126" lon="6.70453">
        <ele>409.6</ele>
        <time>2014-05-01T08:56:41.000Z</time>
      </trkpt>
      <trkpt lat="47.51128" lon="6.70451">
        <ele>409.1</ele>
        <time>2014-05-01T08:56:42.000Z</time>
      </trkpt>
      <trkpt lat="47.5113" lon="6.7045">
        <ele>407.6</ele>
        <time>2014-05-01T08:56:43.000Z</time>
      </trkpt>
      <trkpt lat="47.51132" lon="6.70449">
        <ele>406.3</ele>
        <time>2014-05-01T08:56:44.000Z</time>
      </trkpt>
      <trkpt lat="47.51137" lon="6.70449">
        <ele>405.7</ele>
        <time>2014-05-01T08:56:46.000Z</time>
      </trkpt>
      <trkpt lat="47.51139" lon="6.7045">
        <ele>403.3</ele>
        <time>2014-05-01T08:56:47.000Z</time>
      </trkpt>
      <trkpt lat="47.51141" lon="6.70453">
        <ele>399.6</ele>
        <time>2014-05-01T08:56:49.000Z</time>
      </trkpt>
      <trkpt lat="47.51143" lon="6.70454">
        <ele>399.7</ele>
        <time>2014-05-01T08:56:49.998Z</time>
      </trkpt>
      <trkpt lat="47.51146" lon="6.70455">
        <ele>398</ele>
        <time>2014-05-01T08:56:55.000Z</time>
      </trkpt>
      <trkpt lat="47.51148" lon="6.70455">
        <ele>398.1</ele>
        <time>2014-05-01T08:56:56.000Z</time>
      </trkpt>
      <trkpt lat="47.51151" lon="6.70453">
        <ele>401.7</ele>
        <time>2014-05-01T08:56:58.001Z</time>
      </trkpt>
      <trkpt lat="47.51153" lon="6.70451">
        <ele>401.4</ele>
        <time>2014-05-01T08:56:59.000Z</time>
      </trkpt>
      <trkpt lat="47.51155" lon="6.7045">
        <ele>400</ele>
        <time>2014-05-01T08:57:00.000Z</time>
      </trkpt>
      <trkpt lat="47.51159" lon="6.70448">
        <ele>401.3</ele>
        <time>2014-05-01T08:57:01.000Z</time>
      </trkpt>
      <trkpt lat="47.51162" lon="6.70447">
        <ele>403.2</ele>
        <time>2014-05-01T08:57:02.000Z</time>
      </trkpt>
      <trkpt lat="47.51165" lon="6.70447">
        <ele>405.5</ele>
        <time>2014-05-01T08:57:02.999Z</time>
      </trkpt>
      <trkpt lat="47.51168" lon="6.70444">
        <ele>402</ele>
        <time>2014-05-01T08:57:04.000Z</time>
      </trkpt>
      <trkpt lat="47.5117" lon="6.70441">
        <ele>401.7</ele>
        <time>2014-05-01T08:57:05.000Z</time>
      </trkpt>
      <trkpt lat="47.51191" lon="6.70427">
        <ele>396.2</ele>
        <time>2014-05-01T08:57:13.000Z</time>
      </trkpt>
      <trkpt lat="47.51193" lon="6.70427">
        <ele>395.7</ele>
        <time>2014-05-01T08:57:14.000Z</time>
      </trkpt>
      <trkpt lat="47.51196" lon="6.70428">
        <ele>395.5</ele>
        <time>2014-05-01T08:57:15.001Z</time>
      </trkpt>
      <trkpt lat="47.51199" lon="6.70428">
        <ele>396</ele>
        <time>2014-05-01T08:57:15.999Z</time>
      </trkpt>
      <trkpt lat="47.51202" lon="6.70428">
        <ele>395.9</ele>
        <time>2014-05-01T08:57:17.001Z</time>
      </trkpt>
      <trkpt lat="47.51205" lon="6.70428">
        <ele>397</ele>
        <time>2014-05-01T08:57:18.000Z</time>
      </trkpt>
      <trkpt lat="47.51207" lon="6.70427">
        <ele>396.4</ele>
        <time>2014-05-01T08:57:19.000Z</time>
      </trkpt>
      <trkpt lat="47.51209" lon="6.70425">
        <ele>396.4</ele>
        <time>2014-05-01T08:57:20.000Z</time>
      </trkpt>
      <trkpt lat="47.51211" lon="6.70424">
        <ele>396.8</ele>
        <time>2014-05-01T08:57:21.000Z</time>
      </trkpt>
      <trkpt lat="47.51216" lon="6.70423">
        <ele>391.4</ele>
        <time>2014-05-01T08:57:24.000Z</time>
      </trkpt>
      <trkpt lat="47.51217" lon="6.70423">
        <ele>391.7</ele>
        <time>2014-05-01T08:57:25.000Z</time>
      </trkpt>
      <trkpt lat="47.51221" lon="6.70424">
        <ele>400.1</ele>
        <time>2014-05-01T08:57:28.000Z</time>
      </trkpt>
      <trkpt lat="47.51222" lon="6.70423">
        <ele>399.6</ele>
        <time>2014-05-01T08:57:29.000Z</time>
      </trkpt>
      <trkpt lat="47.51225" lon="6.70418">
        <ele>402.2</ele>
        <time>2014-05-01T08:57:31.000Z</time>
      </trkpt>
      <trkpt lat="47.51226" lon="6.70415">
        <ele>402.9</ele>
        <time>2014-05-01T08:57:32.000Z</time>
      </trkpt>
      <trkpt lat="47.51228" lon="6.70412">
        <ele>403.2</ele>
        <time>2014-05-01T08:57:33.000Z</time>
      </trkpt>
      <trkpt lat="47.51228" lon="6.70409">
        <ele>405.8</ele>
        <time>2014-05-01T08:57:34.000Z</time>
      </trkpt>
      <trkpt lat="47.51228" lon="6.70403">
        <ele>404.9</ele>
        <time>2014-05-01T08:57:35.999Z</time>
      </trkpt>
      <trkpt lat="47.51226" lon="6.70399">
        <ele>408.8</ele>
        <time>2014-05-01T08:57:37.000Z</time>
      </trkpt>
      <trkpt lat="47.51227" lon="6.70393">
        <ele>406.3</ele>
        <time>2014-05-01T08:57:39.000Z</time>
      </trkpt>
      <trkpt lat="47.51227" lon="6.7039">
        <ele>405.2</ele>
        <time>2014-05-01T08:57:40.000Z</time>
      </trkpt>
      <trkpt lat="47.5123" lon="6.70386">
        <ele>405.2</ele>
        <time>2014-05-01T08:57:41.000Z</time>
      </trkpt>
      <trkpt lat="47.51231" lon="6.70383">
        <ele>404.7</ele>
        <time>2014-05-01T08:57:42.000Z</time>
      </trkpt>
      <trkpt lat="47.51234" lon="6.70382">
        <ele>406.7</ele>
        <time>2014-05-01T08:57:43.000Z</time>
      </trkpt>
      <trkpt lat="47.51237" lon="6.70381">
        <ele>407.6</ele>
        <time>2014-05-01T08:57:44.000Z</time>
      </trkpt>
      <trkpt lat="47.51241" lon="6.7038">
        <ele>404.8</ele>
        <time>2014-05-01T08:57:46.000Z</time>
      </trkpt>
      <trkpt lat="47.51243" lon="6.70379">
        <ele>405</ele>
        <time>2014-05-01T08:57:47.000Z</time>
      </trkpt>
      <trkpt lat="47.51247" lon="6.70379">
        <ele>404.5</ele>
        <time>2014-05-01T08:57:49.000Z</time>
      </trkpt>
      <trkpt lat="47.51249" lon="6.70379">
        <ele>403.1</ele>
        <time>2014-05-01T08:57:50.000Z</time>
      </trkpt>
      <trkpt lat="47.51253" lon="6.70378">
        <ele>402.5</ele>
        <time>2014-05-01T08:57:53.000Z</time>
      </trkpt>
      <trkpt lat="47.51254" lon="6.70378">
        <ele>402.1</ele>
        <time>2014-05-01T08:57:54.000Z</time>
      </trkpt>
      <trkpt lat="47.51257" lon="6.70377">
        <ele>398.5</ele>
        <time>2014-05-01T08:57:55.000Z</time>
      </trkpt>
      <trkpt lat="47.5126" lon="6.70376">
        <ele>397.2</ele>
        <time>2014-05-01T08:57:56.000Z</time>
      </trkpt>
      <trkpt lat="47.51262" lon="6.70376">
        <ele>395.8</ele>
        <time>2014-05-01T08:57:57.000Z</time>
      </trkpt>
      <trkpt lat="47.51266" lon="6.70374">
        <ele>395.9</ele>
        <time>2014-05-01T08:57:58.001Z</time>
      </trkpt>
      <trkpt lat="47.5127" lon="6.70372">
        <ele>396.1</ele>
        <time>2014-05-01T08:57:58.999Z</time>
      </trkpt>
      <trkpt lat="47.51273" lon="6.70371">
        <ele>397</ele>
        <time>2014-05-01T08:58:00.000Z</time>
      </trkpt>
      <trkpt lat="47.51276" lon="6.7037">
        <ele>397.3</ele>
        <time>2014-05-01T08:58:01.000Z</time>
      </trkpt>
      <trkpt lat="47.5128" lon="6.70369">
        <ele>396.3</ele>
        <time>2014-05-01T08:58:02.000Z</time>
      </trkpt>
      <trkpt lat="47.51282" lon="6.70369">
        <ele>396.6</ele>
        <time>2014-05-01T08:58:03.000Z</time>
      </trkpt>
      <trkpt lat="47.51287" lon="6.70366">
        <ele>396.4</ele>
        <time>2014-05-01T08:58:04.000Z</time>
      </trkpt>
      <trkpt lat="47.5129" lon="6.70363">
        <ele>396.1</ele>
        <time>2014-05-01T08:58:05.000Z</time>
      </trkpt>
      <trkpt lat="47.51298" lon="6.70358">
        <ele>397</ele>
        <time>2014-05-01T08:58:08.000Z</time>
      </trkpt>
      <trkpt lat="47.513" lon="6.70357">
        <ele>395</ele>
        <time>2014-05-01T08:58:09.000Z</time>
      </trkpt>
      <trkpt lat="47.51302" lon="6.70357">
        <ele>394.9</ele>
        <time>2014-05-01T08:58:10.000Z</time>
      </trkpt>
      <trkpt lat="47.51306" lon="6.70356">
        <ele>394.4</ele>
        <time>2014-05-01T08:58:11.000Z</time>
      </trkpt>
      <trkpt lat="47.51315" lon="6.70357">
        <ele>391.1</ele>
        <time>2014-05-01T08:58:12.000Z</time>
      </trkpt>
      <trkpt lat="47.5132" lon="6.70356">
        <ele>390.9</ele>
        <time>2014-05-01T08:58:13.000Z</time>
      </trkpt>
      <trkpt lat="47.51324" lon="6.70355">
        <ele>391.1</ele>
        <time>2014-05-01T08:58:14.000Z</time>
      </trkpt>
      <trkpt lat="47.51328" lon="6.70355">
        <ele>390.8</ele>
        <time>2014-05-01T08:58:15.000Z</time>
      </trkpt>
      <trkpt lat="47.51331" lon="6.70347">
        <ele>389.9</ele>
        <time>2014-05-01T08:58:16.000Z</time>
      </trkpt>
      <trkpt lat="47.51334" lon="6.70347">
        <ele>390</ele>
        <time>2014-05-01T08:58:17.000Z</time>
      </trkpt>
      <trkpt lat="47.51337" lon="6.70346">
        <ele>389.9</ele>
        <time>2014-05-01T08:58:17.999Z</time>
      </trkpt>
      <trkpt lat="47.51344" lon="6.70345">
        <ele>386</ele>
        <time>2014-05-01T08:58:19.000Z</time>
      </trkpt>
      <trkpt lat="47.51349" lon="6.70344">
        <ele>387</ele>
        <time>2014-05-01T08:58:20.000Z</time>
      </trkpt>
      <trkpt lat="47.51353" lon="6.70339">
        <ele>389.9</ele>
        <time>2014-05-01T08:58:21.000Z</time>
      </trkpt>
      <trkpt lat="47.51355" lon="6.70334">
        <ele>392.3</ele>
        <time>2014-05-01T08:58:22.000Z</time>
      </trkpt>
      <trkpt lat="47.51357" lon="6.70331">
        <ele>388.5</ele>
        <time>2014-05-01T08:58:23.000Z</time>
      </trkpt>
      <trkpt lat="47.51359" lon="6.70326">
        <ele>387.5</ele>
        <time>2014-05-01T08:58:25.000Z</time>
      </trkpt>
      <trkpt lat="47.5136" lon="6.70324">
        <ele>386.9</ele>
        <time>2014-05-01T08:58:26.000Z</time>
      </trkpt>
      <trkpt lat="47.51361" lon="6.70322">
        <ele>386.9</ele>
        <time>2014-05-01T08:58:27.000Z</time>
      </trkpt>
      <trkpt lat="47.51363" lon="6.70318">
        <ele>386.2</ele>
        <time>2014-05-01T08:58:28.000Z</time>
      </trkpt>
      <trkpt lat="47.51365" lon="6.70313">
        <ele>386.9</ele>
        <time>2014-05-01T08:58:29.999Z</time>
      </trkpt>
      <trkpt lat="47.51364" lon="6.70309">
        <ele>387.3</ele>
        <time>2014-05-01T08:58:31.000Z</time>
      </trkpt>
      <trkpt lat="47.51363" lon="6.70305">
        <ele>387.2</ele>
        <time>2014-05-01T08:58:32.000Z</time>
      </trkpt>
      <trkpt lat="47.51363" lon="6.70302">
        <ele>388.7</ele>
        <time>2014-05-01T08:58:33.000Z</time>
      </trkpt>
      <trkpt lat="47.51363" lon="6.70299">
        <ele>391</ele>
        <time>2014-05-01T08:58:34.000Z</time>
      </trkpt>
      <trkpt lat="47.51363" lon="6.70295">
        <ele>392.1</ele>
        <time>2014-05-01T08:58:35.000Z</time>
      </trkpt>
      <trkpt lat="47.51363" lon="6.70291">
        <ele>391</ele>
        <time>2014-05-01T08:58:36.000Z</time>
      </trkpt>
      <trkpt lat="47.51363" lon="6.70288">
        <ele>389.1</ele>
        <time>2014-05-01T08:58:37.000Z</time>
      </trkpt>
      <trkpt lat="47.51363" lon="6.70285">
        <ele>387.4</ele>
        <time>2014-05-01T08:58:38.000Z</time>
      </trkpt>
      <trkpt lat="47.51362" lon="6.70281">
        <ele>385.5</ele>
        <time>2014-05-01T08:58:39.000Z</time>
      </trkpt>
      <trkpt lat="47.51361" lon="6.70274">
        <ele>385.1</ele>
        <time>2014-05-01T08:58:41.000Z</time>
      </trkpt>
      <trkpt lat="47.5136" lon="6.70271">
        <ele>384.6</ele>
        <time>2014-05-01T08:58:42.000Z</time>
      </trkpt>
      <trkpt lat="47.51359" lon="6.70268">
        <ele>384.2</ele>
        <time>2014-05-01T08:58:43.000Z</time>
      </trkpt>
      <trkpt lat="47.51358" lon="6.70265">
        <ele>383.6</ele>
        <time>2014-05-01T08:58:44.000Z</time>
      </trkpt>
      <trkpt lat="47.51357" lon="6.70261">
        <ele>383.6</ele>
        <time>2014-05-01T08:58:45.000Z</time>
      </trkpt>
      <trkpt lat="47.51356" lon="6.70257">
        <ele>383.3</ele>
        <time>2014-05-01T08:58:46.000Z</time>
      </trkpt>
      <trkpt lat="47.51355" lon="6.70253">
        <ele>383.3</ele>
        <time>2014-05-01T08:58:47.000Z</time>
      </trkpt>
      <trkpt lat="47.51353" lon="6.70249">
        <ele>382.8</ele>
        <time>2014-05-01T08:58:48.000Z</time>
      </trkpt>
      <trkpt lat="47.51352" lon="6.70244">
        <ele>384.3</ele>
        <time>2014-05-01T08:58:49.000Z</time>
      </trkpt>
      <trkpt lat="47.51351" lon="6.7024">
        <ele>381.3</ele>
        <time>2014-05-01T08:58:50.000Z</time>
      </trkpt>
      <trkpt lat="47.51349" lon="6.70236">
        <ele>381.2</ele>
        <time>2014-05-01T08:58:51.000Z</time>
      </trkpt>
      <trkpt lat="47.51347" lon="6.70232">
        <ele>380.9</ele>
        <time>2014-05-01T08:58:52.000Z</time>
      </trkpt>
      <trkpt lat="47.51345" lon="6.70228">
        <ele>381.4</ele>
        <time>2014-05-01T08:58:53.000Z</time>
      </trkpt>
      <trkpt lat="47.51344" lon="6.70224">
        <ele>381.5</ele>
        <time>2014-05-01T08:58:54.000Z</time>
      </trkpt>
      <trkpt lat="47.51342" lon="6.70221">
        <ele>381</ele>
        <time>2014-05-01T08:58:55.000Z</time>
      </trkpt>
      <trkpt lat="47.5134" lon="6.70217">
        <ele>378.5</ele>
        <time>2014-05-01T08:58:56.000Z</time>
      </trkpt>
      <trkpt lat="47.51337" lon="6.70214">
        <ele>378.2</ele>
        <time>2014-05-01T08:58:57.000Z</time>
      </trkpt>
      <trkpt lat="47.51335" lon="6.70211">
        <ele>377.4</ele>
        <time>2014-05-01T08:58:58.000Z</time>
      </trkpt>
      <trkpt lat="47.51333" lon="6.70208">
        <ele>377</ele>
        <time>2014-05-01T08:58:59.000Z</time>
      </trkpt>
      <trkpt lat="47.5133" lon="6.70205">
        <ele>376.7</ele>
        <time>2014-05-01T08:59:00.000Z</time>
      </trkpt>
      <trkpt lat="47.51328" lon="6.70202">
        <ele>376.7</ele>
        <time>2014-05-01T08:59:01.000Z</time>
      </trkpt>
      <trkpt lat="47.51325" lon="6.70199">
        <ele>375.5</ele>
        <time>2014-05-01T08:59:02.000Z</time>
      </trkpt>
      <trkpt lat="47.51323" lon="6.70195">
        <ele>374.8</ele>
        <time>2014-05-01T08:59:03.000Z</time>
      </trkpt>
      <trkpt lat="47.5132" lon="6.70192">
        <ele>374.8</ele>
        <time>2014-05-01T08:59:04.000Z</time>
      </trkpt>
      <trkpt lat="47.51318" lon="6.70189">
        <ele>373.9</ele>
        <time>2014-05-01T08:59:05.000Z</time>
      </trkpt>
      <trkpt lat="47.5131" lon="6.7018">
        <ele>372.7</ele>
        <time>2014-05-01T08:59:08.000Z</time>
      </trkpt>
      <trkpt lat="47.51308" lon="6.70176">
        <ele>373.4</ele>
        <time>2014-05-01T08:59:09.000Z</time>
      </trkpt>
      <trkpt lat="47.51305" lon="6.70173">
        <ele>372.5</ele>
        <time>2014-05-01T08:59:10.000Z</time>
      </trkpt>
      <trkpt lat="47.51303" lon="6.7017">
        <ele>372.5</ele>
        <time>2014-05-01T08:59:11.000Z</time>
      </trkpt>
      <trkpt lat="47.51301" lon="6.70166">
        <ele>372.5</ele>
        <time>2014-05-01T08:59:12.000Z</time>
      </trkpt>
      <trkpt lat="47.51298" lon="6.70163">
        <ele>373.1</ele>
        <time>2014-05-01T08:59:13.000Z</time>
      </trkpt>
      <trkpt lat="47.51296" lon="6.7016">
        <ele>373.2</ele>
        <time>2014-05-01T08:59:14.000Z</time>
      </trkpt>
      <trkpt lat="47.51293" lon="6.70157">
        <ele>372.7</ele>
        <time>2014-05-01T08:59:15.000Z</time>
      </trkpt>
      <trkpt lat="47.51291" lon="6.70154">
        <ele>371.8</ele>
        <time>2014-05-01T08:59:16.000Z</time>
      </trkpt>
      <trkpt lat="47.51289" lon="6.7015">
        <ele>372.3</ele>
        <time>2014-05-01T08:59:17.000Z</time>
      </trkpt>
      <trkpt lat="47.51287" lon="6.70147">
        <ele>371.9</ele>
        <time>2014-05-01T08:59:18.000Z</time>
      </trkpt>
      <trkpt lat="47.51285" lon="6.70145">
        <ele>370</ele>
        <time>2014-05-01T08:59:19.000Z</time>
      </trkpt>
      <trkpt lat="47.51283" lon="6.70142">
        <ele>368.3</ele>
        <time>2014-05-01T08:59:20.000Z</time>
      </trkpt>
      <trkpt lat="47.51281" lon="6.70139">
        <ele>369.2</ele>
        <time>2014-05-01T08:59:21.000Z</time>
      </trkpt>
      <trkpt lat="47.51279" lon="6.70136">
        <ele>369.8</ele>
        <time>2014-05-01T08:59:22.000Z</time>
      </trkpt>
      <trkpt lat="47.51276" lon="6.70132">
        <ele>371.1</ele>
        <time>2014-05-01T08:59:23.000Z</time>
      </trkpt>
      <trkpt lat="47.51273" lon="6.70129">
        <ele>371.7</ele>
        <time>2014-05-01T08:59:24.000Z</time>
      </trkpt>
      <trkpt lat="47.51271" lon="6.70126">
        <ele>372.1</ele>
        <time>2014-05-01T08:59:25.000Z</time>
      </trkpt>
      <trkpt lat="47.51268" lon="6.70123">
        <ele>372.2</ele>
        <time>2014-05-01T08:59:26.000Z</time>
      </trkpt>
      <trkpt lat="47.51266" lon="6.7012">
        <ele>372.3</ele>
        <time>2014-05-01T08:59:27.000Z</time>
      </trkpt>
      <trkpt lat="47.51264" lon="6.70116">
        <ele>372.8</ele>
        <time>2014-05-01T08:59:28.000Z</time>
      </trkpt>
      <trkpt lat="47.51261" lon="6.70113">
        <ele>373.1</ele>
        <time>2014-05-01T08:59:29.000Z</time>
      </trkpt>
      <trkpt lat="47.51259" lon="6.70109">
        <ele>373.1</ele>
        <time>2014-05-01T08:59:30.000Z</time>
      </trkpt>
      <trkpt lat="47.51257" lon="6.70105">
        <ele>373</ele>
        <time>2014-05-01T08:59:31.000Z</time>
      </trkpt>
      <trkpt lat="47.51254" lon="6.70102">
        <ele>373.1</ele>
        <time>2014-05-01T08:59:32.000Z</time>
      </trkpt>
      <trkpt lat="47.51252" lon="6.70098">
        <ele>373.2</ele>
        <time>2014-05-01T08:59:33.000Z</time>
      </trkpt>
      <trkpt lat="47.5125" lon="6.70094">
        <ele>373.7</ele>
        <time>2014-05-01T08:59:34.000Z</time>
      </trkpt>
      <trkpt lat="47.51247" lon="6.7009">
        <ele>374</ele>
        <time>2014-05-01T08:59:35.000Z</time>
      </trkpt>
      <trkpt lat="47.51244" lon="6.70086">
        <ele>374.2</ele>
        <time>2014-05-01T08:59:36.000Z</time>
      </trkpt>
      <trkpt lat="47.51242" lon="6.70082">
        <ele>374.3</ele>
        <time>2014-05-01T08:59:37.000Z</time>
      </trkpt>
      <trkpt lat="47.51239" lon="6.70078">
        <ele>374.4</ele>
        <time>2014-05-01T08:59:38.000Z</time>
      </trkpt>
      <trkpt lat="47.51237" lon="6.70074">
        <ele>374.6</ele>
        <time>2014-05-01T08:59:39.000Z</time>
      </trkpt>
      <trkpt lat="47.51234" lon="6.7007">
        <ele>374.9</ele>
        <time>2014-05-01T08:59:40.000Z</time>
      </trkpt>
      <trkpt lat="47.51232" lon="6.70066">
        <ele>375.1</ele>
        <time>2014-05-01T08:59:41.000Z</time>
      </trkpt>
      <trkpt lat="47.51229" lon="6.70062">
        <ele>374.8</ele>
        <time>2014-05-01T08:59:42.000Z</time>
      </trkpt>
      <trkpt lat="47.51227" lon="6.70058">
        <ele>374.5</ele>
        <time>2014-05-01T08:59:43.000Z</time>
      </trkpt>
      <trkpt lat="47.51224" lon="6.70054">
        <ele>374.8</ele>
        <time>2014-05-01T08:59:44.000Z</time>
      </trkpt>
      <trkpt lat="47.51222" lon="6.7005">
        <ele>375</ele>
        <time>2014-05-01T08:59:45.000Z</time>
      </trkpt>
      <trkpt lat="47.5122" lon="6.70046">
        <ele>375.6</ele>
        <time>2014-05-01T08:59:46.000Z</time>
      </trkpt>
      <trkpt lat="47.51217" lon="6.70042">
        <ele>376</ele>
        <time>2014-05-01T08:59:47.000Z</time>
      </trkpt>
      <trkpt lat="47.51215" lon="6.70038">
        <ele>376.2</ele>
        <time>2014-05-01T08:59:48.000Z</time>
      </trkpt>
      <trkpt lat="47.51213" lon="6.70033">
        <ele>376.5</ele>
        <time>2014-05-01T08:59:49.000Z</time>
      </trkpt>
      <trkpt lat="47.5121" lon="6.70029">
        <ele>376.5</ele>
        <time>2014-05-01T08:59:50.000Z</time>
      </trkpt>
      <trkpt lat="47.51208" lon="6.70025">
        <ele>376.4</ele>
        <time>2014-05-01T08:59:51.000Z</time>
      </trkpt>
      <trkpt lat="47.51206" lon="6.70021">
        <ele>376.7</ele>
        <time>2014-05-01T08:59:52.000Z</time>
      </trkpt>
      <trkpt lat="47.51204" lon="6.70017">
        <ele>376.9</ele>
        <time>2014-05-01T08:59:53.000Z</time>
      </trkpt>
      <trkpt lat="47.51201" lon="6.70012">
        <ele>377.7</ele>
        <time>2014-05-01T08:59:54.000Z</time>
      </trkpt>
      <trkpt lat="47.51199" lon="6.70008">
        <ele>378.1</ele>
        <time>2014-05-01T08:59:55.000Z</time>
      </trkpt>
      <trkpt lat="47.51197" lon="6.70005">
        <ele>378.4</ele>
        <time>2014-05-01T08:59:56.000Z</time>
      </trkpt>
      <trkpt lat="47.51195" lon="6.70001">
        <ele>378.9</ele>
        <time>2014-05-01T08:59:57.000Z</time>
      </trkpt>
      <trkpt lat="47.51193" lon="6.69997">
        <ele>379.2</ele>
        <time>2014-05-01T08:59:58.000Z</time>
      </trkpt>
      <trkpt lat="47.51191" lon="6.69993">
        <ele>379.4</ele>
        <time>2014-05-01T08:59:59.000Z</time>
      </trkpt>
      <trkpt lat="47.5119" lon="6.69989">
        <ele>379.5</ele>
        <time>2014-05-01T09:00:00.000Z</time>
      </trkpt>
      <trkpt lat="47.51188" lon="6.69985">
        <ele>383.9</ele>
        <time>2014-05-01T09:00:01.000Z</time>
      </trkpt>
      <trkpt lat="47.51187" lon="6.6998">
        <ele>384.8</ele>
        <time>2014-05-01T09:00:02.000Z</time>
      </trkpt>
      <trkpt lat="47.51185" lon="6.69977">
        <ele>384.8</ele>
        <time>2014-05-01T09:00:03.000Z</time>
      </trkpt>
      <trkpt lat="47.51183" lon="6.69974">
        <ele>384.8</ele>
        <time>2014-05-01T09:00:04.000Z</time>
      </trkpt>
      <trkpt lat="47.51181" lon="6.69971">
        <ele>383.6</ele>
        <time>2014-05-01T09:00:05.000Z</time>
      </trkpt>
      <trkpt lat="47.51176" lon="6.69962">
        <ele>381.7</ele>
        <time>2014-05-01T09:00:08.000Z</time>
      </trkpt>
      <trkpt lat="47.51174" lon="6.69959">
        <ele>381.2</ele>
        <time>2014-05-01T09:00:09.000Z</time>
      </trkpt>
      <trkpt lat="47.51173" lon="6.69956">
        <ele>381.8</ele>
        <time>2014-05-01T09:00:10.000Z</time>
      </trkpt>
      <trkpt lat="47.51171" lon="6.69953">
        <ele>382.6</ele>
        <time>2014-05-01T09:00:11.000Z</time>
      </trkpt>
      <trkpt lat="47.51169" lon="6.6995">
        <ele>383.2</ele>
        <time>2014-05-01T09:00:12.000Z</time>
      </trkpt>
      <trkpt lat="47.51167" lon="6.69947">
        <ele>384</ele>
        <time>2014-05-01T09:00:13.000Z</time>
      </trkpt>
      <trkpt lat="47.51166" lon="6.69944">
        <ele>385.1</ele>
        <time>2014-05-01T09:00:14.000Z</time>
      </trkpt>
      <trkpt lat="47.51166" lon="6.69941">
        <ele>385.9</ele>
        <time>2014-05-01T09:00:15.000Z</time>
      </trkpt>
      <trkpt lat="47.51165" lon="6.69937">
        <ele>386</ele>
        <time>2014-05-01T09:00:16.000Z</time>
      </trkpt>
      <trkpt lat="47.51164" lon="6.69933">
        <ele>386.8</ele>
        <time>2014-05-01T09:00:17.000Z</time>
      </trkpt>
      <trkpt lat="47.51163" lon="6.6993">
        <ele>386.5</ele>
        <time>2014-05-01T09:00:18.000Z</time>
      </trkpt>
      <trkpt lat="47.51162" lon="6.69926">
        <ele>387</ele>
        <time>2014-05-01T09:00:19.000Z</time>
      </trkpt>
      <trkpt lat="47.51161" lon="6.69922">
        <ele>387.7</ele>
        <time>2014-05-01T09:00:20.000Z</time>
      </trkpt>
      <trkpt lat="47.51159" lon="6.69918">
        <ele>387.6</ele>
        <time>2014-05-01T09:00:21.000Z</time>
      </trkpt>
      <trkpt lat="47.51158" lon="6.69914">
        <ele>387.8</ele>
        <time>2014-05-01T09:00:22.000Z</time>
      </trkpt>
      <trkpt lat="47.51157" lon="6.6991">
        <ele>387.9</ele>
        <time>2014-05-01T09:00:23.000Z</time>
      </trkpt>
      <trkpt lat="47.51155" lon="6.69906">
        <ele>387.4</ele>
        <time>2014-05-01T09:00:24.000Z</time>
      </trkpt>
      <trkpt lat="47.51153" lon="6.69902">
        <ele>388.3</ele>
        <time>2014-05-01T09:00:25.000Z</time>
      </trkpt>
      <trkpt lat="47.51152" lon="6.69898">
        <ele>388.8</ele>
        <time>2014-05-01T09:00:26.000Z</time>
      </trkpt>
      <trkpt lat="47.5115" lon="6.69893">
        <ele>388.9</ele>
        <time>2014-05-01T09:00:27.000Z</time>
      </trkpt>
      <trkpt lat="47.51148" lon="6.69889">
        <ele>389.3</ele>
        <time>2014-05-01T09:00:28.000Z</time>
      </trkpt>
      <trkpt lat="47.51146" lon="6.69885">
        <ele>390</ele>
        <time>2014-05-01T09:00:29.000Z</time>
      </trkpt>
      <trkpt lat="47.51145" lon="6.69882">
        <ele>389.9</ele>
        <time>2014-05-01T09:00:30.000Z</time>
      </trkpt>
      <trkpt lat="47.51143" lon="6.69878">
        <ele>389.6</ele>
        <time>2014-05-01T09:00:31.000Z</time>
      </trkpt>
      <trkpt lat="47.5114" lon="6.69874">
        <ele>390.1</ele>
        <time>2014-05-01T09:00:32.000Z</time>
      </trkpt>
      <trkpt lat="47.51138" lon="6.6987">
        <ele>389.7</ele>
        <time>2014-05-01T09:00:33.000Z</time>
      </trkpt>
      <trkpt lat="47.51136" lon="6.69866">
        <ele>389.6</ele>
        <time>2014-05-01T09:00:34.000Z</time>
      </trkpt>
      <trkpt lat="47.51135" lon="6.69863">
        <ele>389.6</ele>
        <time>2014-05-01T09:00:35.000Z</time>
      </trkpt>
      <trkpt lat="47.51132" lon="6.69859">
        <ele>389.8</ele>
        <time>2014-05-01T09:00:36.000Z</time>
      </trkpt>
      <trkpt lat="47.5113" lon="6.69855">
        <ele>389.4</ele>
        <time>2014-05-01T09:00:37.000Z</time>
      </trkpt>
      <trkpt lat="47.51128" lon="6.69851">
        <ele>389.4</ele>
        <time>2014-05-01T09:00:38.000Z</time>
      </trkpt>
      <trkpt lat="47.51126" lon="6.69848">
        <ele>388.7</ele>
        <time>2014-05-01T09:00:39.000Z</time>
      </trkpt>
      <trkpt lat="47.51123" lon="6.69844">
        <ele>386.9</ele>
        <time>2014-05-01T09:00:40.000Z</time>
      </trkpt>
      <trkpt lat="47.51121" lon="6.6984">
        <ele>387.2</ele>
        <time>2014-05-01T09:00:41.000Z</time>
      </trkpt>
      <trkpt lat="47.51119" lon="6.69837">
        <ele>386.7</ele>
        <time>2014-05-01T09:00:42.000Z</time>
      </trkpt>
      <trkpt lat="47.51116" lon="6.69834">
        <ele>386.5</ele>
        <time>2014-05-01T09:00:43.000Z</time>
      </trkpt>
      <trkpt lat="47.51114" lon="6.6983">
        <ele>386.5</ele>
        <time>2014-05-01T09:00:43.999Z</time>
      </trkpt>
      <trkpt lat="47.51112" lon="6.69827">
        <ele>388.7</ele>
        <time>2014-05-01T09:00:45.000Z</time>
      </trkpt>
      <trkpt lat="47.5111" lon="6.69824">
        <ele>389.5</ele>
        <time>2014-05-01T09:00:46.000Z</time>
      </trkpt>
      <trkpt lat="47.51108" lon="6.69821">
        <ele>390.3</ele>
        <time>2014-05-01T09:00:47.000Z</time>
      </trkpt>
      <trkpt lat="47.51106" lon="6.69817">
        <ele>390.9</ele>
        <time>2014-05-01T09:00:48.000Z</time>
      </trkpt>
      <trkpt lat="47.51104" lon="6.69814">
        <ele>392.9</ele>
        <time>2014-05-01T09:00:49.000Z</time>
      </trkpt>
      <trkpt lat="47.51103" lon="6.6981">
        <ele>394.3</ele>
        <time>2014-05-01T09:00:50.000Z</time>
      </trkpt>
      <trkpt lat="47.51101" lon="6.69806">
        <ele>392.8</ele>
        <time>2014-05-01T09:00:51.000Z</time>
      </trkpt>
      <trkpt lat="47.511" lon="6.69802">
        <ele>392.1</ele>
        <time>2014-05-01T09:00:52.000Z</time>
      </trkpt>
      <trkpt lat="47.51098" lon="6.69798">
        <ele>394.1</ele>
        <time>2014-05-01T09:00:53.000Z</time>
      </trkpt>
      <trkpt lat="47.51097" lon="6.69794">
        <ele>394.5</ele>
        <time>2014-05-01T09:00:54.000Z</time>
      </trkpt>
      <trkpt lat="47.51091" lon="6.69789">
        <ele>395.5</ele>
        <time>2014-05-01T09:00:55.000Z</time>
      </trkpt>
      <trkpt lat="47.51088" lon="6.69785">
        <ele>396.3</ele>
        <time>2014-05-01T09:00:56.000Z</time>
      </trkpt>
      <trkpt lat="47.51085" lon="6.69781">
        <ele>396.5</ele>
        <time>2014-05-01T09:00:57.000Z</time>
      </trkpt>
      <trkpt lat="47.51084" lon="6.69777">
        <ele>396.4</ele>
        <time>2014-05-01T09:00:58.000Z</time>
      </trkpt>
      <trkpt lat="47.51082" lon="6.69773">
        <ele>396.7</ele>
        <time>2014-05-01T09:00:59.000Z</time>
      </trkpt>
      <trkpt lat="47.5108" lon="6.6977">
        <ele>396.6</ele>
        <time>2014-05-01T09:01:00.000Z</time>
      </trkpt>
      <trkpt lat="47.51078" lon="6.69765">
        <ele>396.2</ele>
        <time>2014-05-01T09:01:01.000Z</time>
      </trkpt>
      <trkpt lat="47.51075" lon="6.69761">
        <ele>396.3</ele>
        <time>2014-05-01T09:01:02.000Z</time>
      </trkpt>
      <trkpt lat="47.51072" lon="6.69756">
        <ele>397.1</ele>
        <time>2014-05-01T09:01:03.000Z</time>
      </trkpt>
      <trkpt lat="47.51069" lon="6.69753">
        <ele>396.2</ele>
        <time>2014-05-01T09:01:04.000Z</time>
      </trkpt>
      <trkpt lat="47.51066" lon="6.6975">
        <ele>393.8</ele>
        <time>2014-05-01T09:01:05.000Z</time>
      </trkpt>
      <trkpt lat="47.51053" lon="6.69753">
        <ele>386.1</ele>
        <time>2014-05-01T09:01:13.000Z</time>
      </trkpt>
      <trkpt lat="47.5105" lon="6.69758">
        <ele>384.9</ele>
        <time>2014-05-01T09:01:15.000Z</time>
      </trkpt>
      <trkpt lat="47.51048" lon="6.6976">
        <ele>386.8</ele>
        <time>2014-05-01T09:01:16.000Z</time>
      </trkpt>
      <trkpt lat="47.51045" lon="6.69763">
        <ele>388.8</ele>
        <time>2014-05-01T09:01:18.000Z</time>
      </trkpt>
      <trkpt lat="47.51043" lon="6.69763">
        <ele>390.8</ele>
        <time>2014-05-01T09:01:19.000Z</time>
      </trkpt>
      <trkpt lat="47.51041" lon="6.69764">
        <ele>391</ele>
        <time>2014-05-01T09:01:20.000Z</time>
      </trkpt>
      <trkpt lat="47.51039" lon="6.69765">
        <ele>391.3</ele>
        <time>2014-05-01T09:01:21.000Z</time>
      </trkpt>
      <trkpt lat="47.51036" lon="6.69766">
        <ele>393</ele>
        <time>2014-05-01T09:01:22.000Z</time>
      </trkpt>
      <trkpt lat="47.51033" lon="6.69767">
        <ele>393.4</ele>
        <time>2014-05-01T09:01:23.000Z</time>
      </trkpt>
      <trkpt lat="47.5103" lon="6.69769">
        <ele>393.6</ele>
        <time>2014-05-01T09:01:24.000Z</time>
      </trkpt>
      <trkpt lat="47.51027" lon="6.69771">
        <ele>392.5</ele>
        <time>2014-05-01T09:01:25.000Z</time>
      </trkpt>
      <trkpt lat="47.51023" lon="6.69773">
        <ele>391.6</ele>
        <time>2014-05-01T09:01:26.000Z</time>
      </trkpt>
      <trkpt lat="47.5102" lon="6.69775">
        <ele>391.3</ele>
        <time>2014-05-01T09:01:27.000Z</time>
      </trkpt>
      <trkpt lat="47.51016" lon="6.69776">
        <ele>391.1</ele>
        <time>2014-05-01T09:01:28.000Z</time>
      </trkpt>
      <trkpt lat="47.51012" lon="6.69778">
        <ele>390.7</ele>
        <time>2014-05-01T09:01:29.000Z</time>
      </trkpt>
      <trkpt lat="47.51009" lon="6.69779">
        <ele>390.2</ele>
        <time>2014-05-01T09:01:30.000Z</time>
      </trkpt>
      <trkpt lat="47.51005" lon="6.69781">
        <ele>388.2</ele>
        <time>2014-05-01T09:01:31.000Z</time>
      </trkpt>
      <trkpt lat="47.51001" lon="6.69782">
        <ele>387.5</ele>
        <time>2014-05-01T09:01:32.000Z</time>
      </trkpt>
      <trkpt lat="47.50998" lon="6.69783">
        <ele>388.2</ele>
        <time>2014-05-01T09:01:33.000Z</time>
      </trkpt>
      <trkpt lat="47.50994" lon="6.69784">
        <ele>387.9</ele>
        <time>2014-05-01T09:01:34.000Z</time>
      </trkpt>
      <trkpt lat="47.5099" lon="6.69786">
        <ele>387.5</ele>
        <time>2014-05-01T09:01:35.000Z</time>
      </trkpt>
      <trkpt lat="47.50986" lon="6.69788">
        <ele>386.7</ele>
        <time>2014-05-01T09:01:36.000Z</time>
      </trkpt>
      <trkpt lat="47.50982" lon="6.6979">
        <ele>386.2</ele>
        <time>2014-05-01T09:01:37.000Z</time>
      </trkpt>
      <trkpt lat="47.50978" lon="6.69792">
        <ele>386.9</ele>
        <time>2014-05-01T09:01:38.000Z</time>
      </trkpt>
      <trkpt lat="47.50975" lon="6.69795">
        <ele>386.6</ele>
        <time>2014-05-01T09:01:39.000Z</time>
      </trkpt>
      <trkpt lat="47.50971" lon="6.69798">
        <ele>385.6</ele>
        <time>2014-05-01T09:01:40.000Z</time>
      </trkpt>
      <trkpt lat="47.50968" lon="6.69802">
        <ele>384</ele>
        <time>2014-05-01T09:01:41.000Z</time>
      </trkpt>
      <trkpt lat="47.50964" lon="6.69806">
        <ele>383.7</ele>
        <time>2014-05-01T09:01:42.000Z</time>
      </trkpt>
      <trkpt lat="47.50961" lon="6.6981">
        <ele>383.7</ele>
        <time>2014-05-01T09:01:43.000Z</time>
      </trkpt>
      <trkpt lat="47.50958" lon="6.69814">
        <ele>383.1</ele>
        <time>2014-05-01T09:01:44.000Z</time>
      </trkpt>
      <trkpt lat="47.50955" lon="6.69818">
        <ele>382.9</ele>
        <time>2014-05-01T09:01:45.000Z</time>
      </trkpt>
      <trkpt lat="47.50952" lon="6.69823">
        <ele>381.4</ele>
        <time>2014-05-01T09:01:46.000Z</time>
      </trkpt>
      <trkpt lat="47.5095" lon="6.69827">
        <ele>381.6</ele>
        <time>2014-05-01T09:01:47.000Z</time>
      </trkpt>
      <trkpt lat="47.50947" lon="6.69832">
        <ele>382.7</ele>
        <time>2014-05-01T09:01:48.000Z</time>
      </trkpt>
      <trkpt lat="47.50944" lon="6.69836">
        <ele>382.3</ele>
        <time>2014-05-01T09:01:49.000Z</time>
      </trkpt>
      <trkpt lat="47.50941" lon="6.69841">
        <ele>382.4</ele>
        <time>2014-05-01T09:01:50.000Z</time>
      </trkpt>
      <trkpt lat="47.50939" lon="6.69845">
        <ele>382</ele>
        <time>2014-05-01T09:01:51.000Z</time>
      </trkpt>
      <trkpt lat="47.50936" lon="6.6985">
        <ele>381</ele>
        <time>2014-05-01T09:01:52.000Z</time>
      </trkpt>
      <trkpt lat="47.50934" lon="6.69855">
        <ele>380.6</ele>
        <time>2014-05-01T09:01:53.000Z</time>
      </trkpt>
      <trkpt lat="47.50931" lon="6.69859">
        <ele>380.2</ele>
        <time>2014-05-01T09:01:54.000Z</time>
      </trkpt>
      <trkpt lat="47.50929" lon="6.69863">
        <ele>380.1</ele>
        <time>2014-05-01T09:01:55.000Z</time>
      </trkpt>
      <trkpt lat="47.50926" lon="6.69867">
        <ele>379.5</ele>
        <time>2014-05-01T09:01:56.000Z</time>
      </trkpt>
      <trkpt lat="47.50923" lon="6.6987">
        <ele>379.3</ele>
        <time>2014-05-01T09:01:57.000Z</time>
      </trkpt>
      <trkpt lat="47.5092" lon="6.69874">
        <ele>379.3</ele>
        <time>2014-05-01T09:01:58.000Z</time>
      </trkpt>
      <trkpt lat="47.50917" lon="6.69877">
        <ele>378</ele>
        <time>2014-05-01T09:01:59.000Z</time>
      </trkpt>
      <trkpt lat="47.50914" lon="6.69881">
        <ele>377.6</ele>
        <time>2014-05-01T09:02:00.000Z</time>
      </trkpt>
      <trkpt lat="47.50912" lon="6.69885">
        <ele>375.9</ele>
        <time>2014-05-01T09:02:01.000Z</time>
      </trkpt>
      <trkpt lat="47.50909" lon="6.69888">
        <ele>374.4</ele>
        <time>2014-05-01T09:02:02.000Z</time>
      </trkpt>
      <trkpt lat="47.50906" lon="6.69892">
        <ele>373.6</ele>
        <time>2014-05-01T09:02:03.000Z</time>
      </trkpt>
      <trkpt lat="47.50902" lon="6.69896">
        <ele>372.8</ele>
        <time>2014-05-01T09:02:04.000Z</time>
      </trkpt>
      <trkpt lat="47.50899" lon="6.69902">
        <ele>375.9</ele>
        <time>2014-05-01T09:02:05.000Z</time>
      </trkpt>
      <trkpt lat="47.50873" lon="6.69932">
        <ele>373.9</ele>
        <time>2014-05-01T09:02:13.000Z</time>
      </trkpt>
      <trkpt lat="47.5087" lon="6.69935">
        <ele>375.1</ele>
        <time>2014-05-01T09:02:14.000Z</time>
      </trkpt>
      <trkpt lat="47.50867" lon="6.69938">
        <ele>376.4</ele>
        <time>2014-05-01T09:02:15.000Z</time>
      </trkpt>
      <trkpt lat="47.50864" lon="6.69941">
        <ele>376.9</ele>
        <time>2014-05-01T09:02:16.000Z</time>
      </trkpt>
      <trkpt lat="47.50861" lon="6.69943">
        <ele>378</ele>
        <time>2014-05-01T09:02:17.000Z</time>
      </trkpt>
      <trkpt lat="47.50857" lon="6.69945">
        <ele>378.4</ele>
        <time>2014-05-01T09:02:18.000Z</time>
      </trkpt>
      <trkpt lat="47.50855" lon="6.69948">
        <ele>379</ele>
        <time>2014-05-01T09:02:19.000Z</time>
      </trkpt>
      <trkpt lat="47.50851" lon="6.6995">
        <ele>378.7</ele>
        <time>2014-05-01T09:02:20.000Z</time>
      </trkpt>
      <trkpt lat="47.50848" lon="6.69953">
        <ele>378.4</ele>
        <time>2014-05-01T09:02:21.000Z</time>
      </trkpt>
      <trkpt lat="47.50845" lon="6.69955">
        <ele>379.6</ele>
        <time>2014-05-01T09:02:22.000Z</time>
      </trkpt>
      <trkpt lat="47.50841" lon="6.69957">
        <ele>380.3</ele>
        <time>2014-05-01T09:02:23.000Z</time>
      </trkpt>
      <trkpt lat="47.50838" lon="6.69959">
        <ele>380.4</ele>
        <time>2014-05-01T09:02:24.000Z</time>
      </trkpt>
      <trkpt lat="47.50834" lon="6.69961">
        <ele>380.9</ele>
        <time>2014-05-01T09:02:25.000Z</time>
      </trkpt>
      <trkpt lat="47.50831" lon="6.69963">
        <ele>381.1</ele>
        <time>2014-05-01T09:02:26.000Z</time>
      </trkpt>
      <trkpt lat="47.50829" lon="6.69965">
        <ele>380.3</ele>
        <time>2014-05-01T09:02:27.000Z</time>
      </trkpt>
      <trkpt lat="47.50826" lon="6.69966">
        <ele>380.9</ele>
        <time>2014-05-01T09:02:28.000Z</time>
      </trkpt>
      <trkpt lat="47.50823" lon="6.69967">
        <ele>381.1</ele>
        <time>2014-05-01T09:02:29.000Z</time>
      </trkpt>
      <trkpt lat="47.5082" lon="6.69968">
        <ele>380.4</ele>
        <time>2014-05-01T09:02:30.000Z</time>
      </trkpt>
      <trkpt lat="47.50818" lon="6.69968">
        <ele>379.8</ele>
        <time>2014-05-01T09:02:31.000Z</time>
      </trkpt>
      <trkpt lat="47.50813" lon="6.69965">
        <ele>380.4</ele>
        <time>2014-05-01T09:02:34.000Z</time>
      </trkpt>
      <trkpt lat="47.50813" lon="6.69962">
        <ele>381.7</ele>
        <time>2014-05-01T09:02:35.000Z</time>
      </trkpt>
      <trkpt lat="47.50813" lon="6.69959">
        <ele>381.2</ele>
        <time>2014-05-01T09:02:36.000Z</time>
      </trkpt>
      <trkpt lat="47.50812" lon="6.69954">
        <ele>381.8</ele>
        <time>2014-05-01T09:02:37.000Z</time>
      </trkpt>
      <trkpt lat="47.50812" lon="6.69949">
        <ele>381.2</ele>
        <time>2014-05-01T09:02:38.000Z</time>
      </trkpt>
      <trkpt lat="47.50812" lon="6.69944">
        <ele>381.5</ele>
        <time>2014-05-01T09:02:39.000Z</time>
      </trkpt>
      <trkpt lat="47.50811" lon="6.69938">
        <ele>382</ele>
        <time>2014-05-01T09:02:40.000Z</time>
      </trkpt>
      <trkpt lat="47.50811" lon="6.69933">
        <ele>382.4</ele>
        <time>2014-05-01T09:02:41.000Z</time>
      </trkpt>
      <trkpt lat="47.50811" lon="6.69928">
        <ele>382.6</ele>
        <time>2014-05-01T09:02:42.000Z</time>
      </trkpt>
      <trkpt lat="47.5081" lon="6.69923">
        <ele>382.8</ele>
        <time>2014-05-01T09:02:43.000Z</time>
      </trkpt>
      <trkpt lat="47.50809" lon="6.69918">
        <ele>382.9</ele>
        <time>2014-05-01T09:02:44.000Z</time>
      </trkpt>
      <trkpt lat="47.50808" lon="6.69913">
        <ele>383.2</ele>
        <time>2014-05-01T09:02:45.000Z</time>
      </trkpt>
      <trkpt lat="47.50807" lon="6.69909">
        <ele>383.4</ele>
        <time>2014-05-01T09:02:46.000Z</time>
      </trkpt>
      <trkpt lat="47.50806" lon="6.69904">
        <ele>382.2</ele>
        <time>2014-05-01T09:02:47.000Z</time>
      </trkpt>
      <trkpt lat="47.50805" lon="6.69898">
        <ele>382.1</ele>
        <time>2014-05-01T09:02:48.000Z</time>
      </trkpt>
      <trkpt lat="47.50804" lon="6.69894">
        <ele>382.5</ele>
        <time>2014-05-01T09:02:49.000Z</time>
      </trkpt>
      <trkpt lat="47.50803" lon="6.6989">
        <ele>382.1</ele>
        <time>2014-05-01T09:02:50.000Z</time>
      </trkpt>
      <trkpt lat="47.50802" lon="6.69885">
        <ele>381.7</ele>
        <time>2014-05-01T09:02:51.000Z</time>
      </trkpt>
      <trkpt lat="47.50802" lon="6.6988">
        <ele>381.9</ele>
        <time>2014-05-01T09:02:52.000Z</time>
      </trkpt>
      <trkpt lat="47.50803" lon="6.69872">
        <ele>381.6</ele>
        <time>2014-05-01T09:02:53.000Z</time>
      </trkpt>
      <trkpt lat="47.50802" lon="6.69865">
        <ele>381.7</ele>
        <time>2014-05-01T09:02:54.000Z</time>
      </trkpt>
      <trkpt lat="47.50802" lon="6.69858">
        <ele>381.1</ele>
        <time>2014-05-01T09:02:55.000Z</time>
      </trkpt>
      <trkpt lat="47.50801" lon="6.69851">
        <ele>381.4</ele>
        <time>2014-05-01T09:02:56.000Z</time>
      </trkpt>
      <trkpt lat="47.50801" lon="6.69844">
        <ele>381.4</ele>
        <time>2014-05-01T09:02:57.000Z</time>
      </trkpt>
      <trkpt lat="47.508" lon="6.69837">
        <ele>381.8</ele>
        <time>2014-05-01T09:02:58.000Z</time>
      </trkpt>
      <trkpt lat="47.508" lon="6.6983">
        <ele>381.6</ele>
        <time>2014-05-01T09:02:59.000Z</time>
      </trkpt>
      <trkpt lat="47.50799" lon="6.69822">
        <ele>381.9</ele>
        <time>2014-05-01T09:03:00.000Z</time>
      </trkpt>
      <trkpt lat="47.50799" lon="6.69816">
        <ele>382.5</ele>
        <time>2014-05-01T09:03:01.000Z</time>
      </trkpt>
      <trkpt lat="47.50798" lon="6.69809">
        <ele>382.6</ele>
        <time>2014-05-01T09:03:02.000Z</time>
      </trkpt>
      <trkpt lat="47.50797" lon="6.69802">
        <ele>382.4</ele>
        <time>2014-05-01T09:03:03.000Z</time>
      </trkpt>
      <trkpt lat="47.50797" lon="6.69795">
        <ele>382.4</ele>
        <time>2014-05-01T09:03:04.000Z</time>
      </trkpt>
      <trkpt lat="47.50796" lon="6.69789">
        <ele>382.4</ele>
        <time>2014-05-01T09:03:05.000Z</time>
      </trkpt>
      <trkpt lat="47.50793" lon="6.69771">
        <ele>381.9</ele>
        <time>2014-05-01T09:03:08.000Z</time>
      </trkpt>
      <trkpt lat="47.5079" lon="6.69763">
        <ele>382.1</ele>
        <time>2014-05-01T09:03:09.000Z</time>
      </trkpt>
      <trkpt lat="47.50789" lon="6.69756">
        <ele>382.8</ele>
        <time>2014-05-01T09:03:10.000Z</time>
      </trkpt>
      <trkpt lat="47.50787" lon="6.69749">
        <ele>383.2</ele>
        <time>2014-05-01T09:03:11.000Z</time>
      </trkpt>
      <trkpt lat="47.50785" lon="6.69743">
        <ele>382.9</ele>
        <time>2014-05-01T09:03:12.000Z</time>
      </trkpt>
      <trkpt lat="47.50783" lon="6.69737">
        <ele>382.8</ele>
        <time>2014-05-01T09:03:13.000Z</time>
      </trkpt>
      <trkpt lat="47.50781" lon="6.69731">
        <ele>382.9</ele>
        <time>2014-05-01T09:03:14.000Z</time>
      </trkpt>
      <trkpt lat="47.5078" lon="6.69726">
        <ele>382.4</ele>
        <time>2014-05-01T09:03:15.000Z</time>
      </trkpt>
      <trkpt lat="47.50778" lon="6.69721">
        <ele>382.1</ele>
        <time>2014-05-01T09:03:16.000Z</time>
      </trkpt>
      <trkpt lat="47.50776" lon="6.69716">
        <ele>382.9</ele>
        <time>2014-05-01T09:03:17.000Z</time>
      </trkpt>
      <trkpt lat="47.50775" lon="6.69712">
        <ele>382.8</ele>
        <time>2014-05-01T09:03:18.000Z</time>
      </trkpt>
      <trkpt lat="47.50774" lon="6.69707">
        <ele>382.8</ele>
        <time>2014-05-01T09:03:19.000Z</time>
      </trkpt>
      <trkpt lat="47.50772" lon="6.69701">
        <ele>382.5</ele>
        <time>2014-05-01T09:03:20.000Z</time>
      </trkpt>
      <trkpt lat="47.50771" lon="6.69697">
        <ele>382.1</ele>
        <time>2014-05-01T09:03:21.000Z</time>
      </trkpt>
      <trkpt lat="47.50769" lon="6.69693">
        <ele>381.8</ele>
        <time>2014-05-01T09:03:22.000Z</time>
      </trkpt>
      <trkpt lat="47.50767" lon="6.69689">
        <ele>381.7</ele>
        <time>2014-05-01T09:03:23.000Z</time>
      </trkpt>
      <trkpt lat="47.50763" lon="6.69687">
        <ele>381.4</ele>
        <time>2014-05-01T09:03:24.000Z</time>
      </trkpt>
      <trkpt lat="47.5076" lon="6.69687">
        <ele>380</ele>
        <time>2014-05-01T09:03:25.000Z</time>
      </trkpt>
      <trkpt lat="47.50756" lon="6.69688">
        <ele>379.5</ele>
        <time>2014-05-01T09:03:26.000Z</time>
      </trkpt>
      <trkpt lat="47.50752" lon="6.6969">
        <ele>379.2</ele>
        <time>2014-05-01T09:03:27.000Z</time>
      </trkpt>
      <trkpt lat="47.50748" lon="6.69694">
        <ele>379.5</ele>
        <time>2014-05-01T09:03:28.000Z</time>
      </trkpt>
      <trkpt lat="47.50744" lon="6.69697">
        <ele>379.9</ele>
        <time>2014-05-01T09:03:29.000Z</time>
      </trkpt>
      <trkpt lat="47.50741" lon="6.69701">
        <ele>380.3</ele>
        <time>2014-05-01T09:03:30.000Z</time>
      </trkpt>
      <trkpt lat="47.50738" lon="6.69704">
        <ele>380.8</ele>
        <time>2014-05-01T09:03:31.000Z</time>
      </trkpt>
      <trkpt lat="47.50735" lon="6.69707">
        <ele>380.7</ele>
        <time>2014-05-01T09:03:32.000Z</time>
      </trkpt>
      <trkpt lat="47.50732" lon="6.6971">
        <ele>380.3</ele>
        <time>2014-05-01T09:03:33.000Z</time>
      </trkpt>
      <trkpt lat="47.50729" lon="6.69713">
        <ele>379.2</ele>
        <time>2014-05-01T09:03:34.000Z</time>
      </trkpt>
      <trkpt lat="47.50726" lon="6.69715">
        <ele>378.7</ele>
        <time>2014-05-01T09:03:35.000Z</time>
      </trkpt>
      <trkpt lat="47.50722" lon="6.69718">
        <ele>378.4</ele>
        <time>2014-05-01T09:03:36.000Z</time>
      </trkpt>
      <trkpt lat="47.50719" lon="6.69721">
        <ele>378.2</ele>
        <time>2014-05-01T09:03:37.000Z</time>
      </trkpt>
      <trkpt lat="47.50716" lon="6.69724">
        <ele>376.5</ele>
        <time>2014-05-01T09:03:38.000Z</time>
      </trkpt>
      <trkpt lat="47.50714" lon="6.69727">
        <ele>376.1</ele>
        <time>2014-05-01T09:03:39.000Z</time>
      </trkpt>
      <trkpt lat="47.50711" lon="6.6973">
        <ele>376.2</ele>
        <time>2014-05-01T09:03:40.000Z</time>
      </trkpt>
      <trkpt lat="47.50708" lon="6.69733">
        <ele>376.2</ele>
        <time>2014-05-01T09:03:41.000Z</time>
      </trkpt>
      <trkpt lat="47.50706" lon="6.69736">
        <ele>376.6</ele>
        <time>2014-05-01T09:03:42.000Z</time>
      </trkpt>
      <trkpt lat="47.50703" lon="6.69738">
        <ele>376.9</ele>
        <time>2014-05-01T09:03:43.000Z</time>
      </trkpt>
      <trkpt lat="47.50701" lon="6.69741">
        <ele>377.5</ele>
        <time>2014-05-01T09:03:44.000Z</time>
      </trkpt>
      <trkpt lat="47.50699" lon="6.69743">
        <ele>376.9</ele>
        <time>2014-05-01T09:03:45.000Z</time>
      </trkpt>
      <trkpt lat="47.50696" lon="6.69745">
        <ele>376.7</ele>
        <time>2014-05-01T09:03:46.000Z</time>
      </trkpt>
      <trkpt lat="47.50694" lon="6.69748">
        <ele>376.4</ele>
        <time>2014-05-01T09:03:47.000Z</time>
      </trkpt>
      <trkpt lat="47.50692" lon="6.6975">
        <ele>376.5</ele>
        <time>2014-05-01T09:03:48.000Z</time>
      </trkpt>
      <trkpt lat="47.50689" lon="6.69753">
        <ele>376.6</ele>
        <time>2014-05-01T09:03:49.000Z</time>
      </trkpt>
      <trkpt lat="47.50687" lon="6.69755">
        <ele>376.6</ele>
        <time>2014-05-01T09:03:50.000Z</time>
      </trkpt>
      <trkpt lat="47.50685" lon="6.69757">
        <ele>376.6</ele>
        <time>2014-05-01T09:03:51.000Z</time>
      </trkpt>
      <trkpt lat="47.50682" lon="6.6976">
        <ele>377.4</ele>
        <time>2014-05-01T09:03:52.000Z</time>
      </trkpt>
      <trkpt lat="47.5068" lon="6.69762">
        <ele>378</ele>
        <time>2014-05-01T09:03:53.000Z</time>
      </trkpt>
      <trkpt lat="47.50677" lon="6.69764">
        <ele>378.7</ele>
        <time>2014-05-01T09:03:54.000Z</time>
      </trkpt>
      <trkpt lat="47.50674" lon="6.69766">
        <ele>378.7</ele>
        <time>2014-05-01T09:03:55.000Z</time>
      </trkpt>
      <trkpt lat="47.50672" lon="6.69768">
        <ele>378.9</ele>
        <time>2014-05-01T09:03:56.000Z</time>
      </trkpt>
      <trkpt lat="47.50669" lon="6.6977">
        <ele>379.4</ele>
        <time>2014-05-01T09:03:57.000Z</time>
      </trkpt>
      <trkpt lat="47.50667" lon="6.69772">
        <ele>379.1</ele>
        <time>2014-05-01T09:03:58.000Z</time>
      </trkpt>
      <trkpt lat="47.50665" lon="6.69774">
        <ele>378.1</ele>
        <time>2014-05-01T09:03:59.000Z</time>
      </trkpt>
      <trkpt lat="47.50662" lon="6.69777">
        <ele>378</ele>
        <time>2014-05-01T09:04:00.000Z</time>
      </trkpt>
      <trkpt lat="47.5066" lon="6.69779">
        <ele>378.7</ele>
        <time>2014-05-01T09:04:01.000Z</time>
      </trkpt>
      <trkpt lat="47.50657" lon="6.69782">
        <ele>377.8</ele>
        <time>2014-05-01T09:04:02.000Z</time>
      </trkpt>
      <trkpt lat="47.50655" lon="6.69785">
        <ele>377.5</ele>
        <time>2014-05-01T09:04:03.000Z</time>
      </trkpt>
      <trkpt lat="47.50652" lon="6.69787">
        <ele>377.7</ele>
        <time>2014-05-01T09:04:04.000Z</time>
      </trkpt>
      <trkpt lat="47.50649" lon="6.6979">
        <ele>377</ele>
        <time>2014-05-01T09:04:05.000Z</time>
      </trkpt>
      <trkpt lat="47.50642" lon="6.69798">
        <ele>377.8</ele>
        <time>2014-05-01T09:04:08.000Z</time>
      </trkpt>
      <trkpt lat="47.50639" lon="6.698">
        <ele>377.5</ele>
        <time>2014-05-01T09:04:09.000Z</time>
      </trkpt>
      <trkpt lat="47.50636" lon="6.69803">
        <ele>377.8</ele>
        <time>2014-05-01T09:04:10.000Z</time>
      </trkpt>
      <trkpt lat="47.50633" lon="6.69805">
        <ele>378.5</ele>
        <time>2014-05-01T09:04:11.000Z</time>
      </trkpt>
      <trkpt lat="47.5063" lon="6.69808">
        <ele>379</ele>
        <time>2014-05-01T09:04:12.000Z</time>
      </trkpt>
      <trkpt lat="47.50628" lon="6.6981">
        <ele>379.5</ele>
        <time>2014-05-01T09:04:13.000Z</time>
      </trkpt>
      <trkpt lat="47.50625" lon="6.69813">
        <ele>379.5</ele>
        <time>2014-05-01T09:04:14.000Z</time>
      </trkpt>
      <trkpt lat="47.50622" lon="6.69815">
        <ele>379.5</ele>
        <time>2014-05-01T09:04:15.000Z</time>
      </trkpt>
      <trkpt lat="47.50619" lon="6.69818">
        <ele>380</ele>
        <time>2014-05-01T09:04:16.000Z</time>
      </trkpt>
      <trkpt lat="47.50617" lon="6.69821">
        <ele>379.7</ele>
        <time>2014-05-01T09:04:17.000Z</time>
      </trkpt>
      <trkpt lat="47.50614" lon="6.69824">
        <ele>379</ele>
        <time>2014-05-01T09:04:18.000Z</time>
      </trkpt>
      <trkpt lat="47.50611" lon="6.69827">
        <ele>380.3</ele>
        <time>2014-05-01T09:04:19.000Z</time>
      </trkpt>
      <trkpt lat="47.50608" lon="6.6983">
        <ele>380.2</ele>
        <time>2014-05-01T09:04:20.000Z</time>
      </trkpt>
      <trkpt lat="47.50605" lon="6.69832">
        <ele>380.3</ele>
        <time>2014-05-01T09:04:21.000Z</time>
      </trkpt>
      <trkpt lat="47.50602" lon="6.69835">
        <ele>380.8</ele>
        <time>2014-05-01T09:04:22.000Z</time>
      </trkpt>
      <trkpt lat="47.506" lon="6.69837">
        <ele>381</ele>
        <time>2014-05-01T09:04:23.000Z</time>
      </trkpt>
      <trkpt lat="47.50597" lon="6.6984">
        <ele>380.9</ele>
        <time>2014-05-01T09:04:24.000Z</time>
      </trkpt>
      <trkpt lat="47.50594" lon="6.69842">
        <ele>381.3</ele>
        <time>2014-05-01T09:04:25.000Z</time>
      </trkpt>
      <trkpt lat="47.50591" lon="6.69845">
        <ele>380.3</ele>
        <time>2014-05-01T09:04:26.000Z</time>
      </trkpt>
      <trkpt lat="47.50588" lon="6.69848">
        <ele>380.9</ele>
        <time>2014-05-01T09:04:27.000Z</time>
      </trkpt>
      <trkpt lat="47.50585" lon="6.6985">
        <ele>380.8</ele>
        <time>2014-05-01T09:04:28.000Z</time>
      </trkpt>
      <trkpt lat="47.50583" lon="6.69852">
        <ele>381</ele>
        <time>2014-05-01T09:04:29.000Z</time>
      </trkpt>
      <trkpt lat="47.5058" lon="6.69855">
        <ele>381.4</ele>
        <time>2014-05-01T09:04:30.000Z</time>
      </trkpt>
      <trkpt lat="47.50577" lon="6.69857">
        <ele>380.9</ele>
        <time>2014-05-01T09:04:31.000Z</time>
      </trkpt>
      <trkpt lat="47.50574" lon="6.6986">
        <ele>381.3</ele>
        <time>2014-05-01T09:04:32.000Z</time>
      </trkpt>
      <trkpt lat="47.50571" lon="6.69863">
        <ele>380.8</ele>
        <time>2014-05-01T09:04:33.000Z</time>
      </trkpt>
      <trkpt lat="47.50568" lon="6.69866">
        <ele>380.2</ele>
        <time>2014-05-01T09:04:34.000Z</time>
      </trkpt>
      <trkpt lat="47.50566" lon="6.69869">
        <ele>380.1</ele>
        <time>2014-05-01T09:04:35.000Z</time>
      </trkpt>
      <trkpt lat="47.50563" lon="6.69872">
        <ele>380.1</ele>
        <time>2014-05-01T09:04:36.000Z</time>
      </trkpt>
      <trkpt lat="47.5056" lon="6.69874">
        <ele>380.2</ele>
        <time>2014-05-01T09:04:37.000Z</time>
      </trkpt>
      <trkpt lat="47.50557" lon="6.69877">
        <ele>380.6</ele>
        <time>2014-05-01T09:04:38.000Z</time>
      </trkpt>
      <trkpt lat="47.50554" lon="6.6988">
        <ele>381.8</ele>
        <time>2014-05-01T09:04:39.000Z</time>
      </trkpt>
      <trkpt lat="47.50551" lon="6.69882">
        <ele>381.6</ele>
        <time>2014-05-01T09:04:40.000Z</time>
      </trkpt>
      <trkpt lat="47.50548" lon="6.69885">
        <ele>383</ele>
        <time>2014-05-01T09:04:41.000Z</time>
      </trkpt>
      <trkpt lat="47.50545" lon="6.69887">
        <ele>383.4</ele>
        <time>2014-05-01T09:04:42.000Z</time>
      </trkpt>
      <trkpt lat="47.50542" lon="6.6989">
        <ele>383</ele>
        <time>2014-05-01T09:04:43.000Z</time>
      </trkpt>
      <trkpt lat="47.5054" lon="6.69893">
        <ele>383.2</ele>
        <time>2014-05-01T09:04:44.000Z</time>
      </trkpt>
      <trkpt lat="47.50537" lon="6.69896">
        <ele>382.8</ele>
        <time>2014-05-01T09:04:45.000Z</time>
      </trkpt>
      <trkpt lat="47.50535" lon="6.69899">
        <ele>383.1</ele>
        <time>2014-05-01T09:04:46.000Z</time>
      </trkpt>
      <trkpt lat="47.50532" lon="6.69902">
        <ele>382.5</ele>
        <time>2014-05-01T09:04:47.000Z</time>
      </trkpt>
      <trkpt lat="47.50529" lon="6.69905">
        <ele>383.5</ele>
        <time>2014-05-01T09:04:48.000Z</time>
      </trkpt>
      <trkpt lat="47.50527" lon="6.69908">
        <ele>383.8</ele>
        <time>2014-05-01T09:04:49.000Z</time>
      </trkpt>
      <trkpt lat="47.50524" lon="6.6991">
        <ele>384.3</ele>
        <time>2014-05-01T09:04:50.000Z</time>
      </trkpt>
      <trkpt lat="47.50521" lon="6.69913">
        <ele>384.5</ele>
        <time>2014-05-01T09:04:51.000Z</time>
      </trkpt>
      <trkpt lat="47.50518" lon="6.69916">
        <ele>384.3</ele>
        <time>2014-05-01T09:04:52.000Z</time>
      </trkpt>
      <trkpt lat="47.50516" lon="6.69918">
        <ele>384.7</ele>
        <time>2014-05-01T09:04:53.000Z</time>
      </trkpt>
      <trkpt lat="47.50513" lon="6.69921">
        <ele>384.6</ele>
        <time>2014-05-01T09:04:54.000Z</time>
      </trkpt>
      <trkpt lat="47.5051" lon="6.69924">
        <ele>384.6</ele>
        <time>2014-05-01T09:04:55.000Z</time>
      </trkpt>
      <trkpt lat="47.50507" lon="6.69926">
        <ele>384.7</ele>
        <time>2014-05-01T09:04:56.000Z</time>
      </trkpt>
      <trkpt lat="47.50504" lon="6.69929">
        <ele>384.9</ele>
        <time>2014-05-01T09:04:57.000Z</time>
      </trkpt>
      <trkpt lat="47.50501" lon="6.69931">
        <ele>385.1</ele>
        <time>2014-05-01T09:04:58.000Z</time>
      </trkpt>
      <trkpt lat="47.50498" lon="6.69934">
        <ele>385.2</ele>
        <time>2014-05-01T09:04:59.000Z</time>
      </trkpt>
      <trkpt lat="47.50495" lon="6.69936">
        <ele>385.8</ele>
        <time>2014-05-01T09:05:00.000Z</time>
      </trkpt>
      <trkpt lat="47.50492" lon="6.69939">
        <ele>386.3</ele>
        <time>2014-05-01T09:05:01.000Z</time>
      </trkpt>
      <trkpt lat="47.50489" lon="6.6994">
        <ele>384.9</ele>
        <time>2014-05-01T09:05:02.000Z</time>
      </trkpt>
      <trkpt lat="47.50486" lon="6.69942">
        <ele>384.7</ele>
        <time>2014-05-01T09:05:03.000Z</time>
      </trkpt>
      <trkpt lat="47.50482" lon="6.69943">
        <ele>384.6</ele>
        <time>2014-05-01T09:05:04.000Z</time>
      </trkpt>
      <trkpt lat="47.50479" lon="6.69944">
        <ele>384.8</ele>
        <time>2014-05-01T09:05:05.000Z</time>
      </trkpt>
      <trkpt lat="47.50456" lon="6.69955">
        <ele>381.9</ele>
        <time>2014-05-01T09:05:13.000Z</time>
      </trkpt>
      <trkpt lat="47.50453" lon="6.69957">
        <ele>382.1</ele>
        <time>2014-05-01T09:05:14.000Z</time>
      </trkpt>
      <trkpt lat="47.50449" lon="6.69959">
        <ele>381.9</ele>
        <time>2014-05-01T09:05:15.000Z</time>
      </trkpt>
      <trkpt lat="47.50446" lon="6.6996">
        <ele>382.1</ele>
        <time>2014-05-01T09:05:16.000Z</time>
      </trkpt>
      <trkpt lat="47.50442" lon="6.69961">
        <ele>381.8</ele>
        <time>2014-05-01T09:05:17.000Z</time>
      </trkpt>
      <trkpt lat="47.50438" lon="6.69963">
        <ele>382.1</ele>
        <time>2014-05-01T09:05:18.000Z</time>
      </trkpt>
      <trkpt lat="47.50435" lon="6.69964">
        <ele>382.4</ele>
        <time>2014-05-01T09:05:19.000Z</time>
      </trkpt>
      <trkpt lat="47.50431" lon="6.69965">
        <ele>382.5</ele>
        <time>2014-05-01T09:05:20.000Z</time>
      </trkpt>
      <trkpt lat="47.50427" lon="6.69967">
        <ele>382.6</ele>
        <time>2014-05-01T09:05:21.000Z</time>
      </trkpt>
      <trkpt lat="47.50424" lon="6.69968">
        <ele>383.1</ele>
        <time>2014-05-01T09:05:22.000Z</time>
      </trkpt>
      <trkpt lat="47.5042" lon="6.6997">
        <ele>382.8</ele>
        <time>2014-05-01T09:05:23.000Z</time>
      </trkpt>
      <trkpt lat="47.50416" lon="6.69971">
        <ele>383</ele>
        <time>2014-05-01T09:05:24.000Z</time>
      </trkpt>
      <trkpt lat="47.50412" lon="6.69972">
        <ele>383.3</ele>
        <time>2014-05-01T09:05:25.000Z</time>
      </trkpt>
      <trkpt lat="47.50409" lon="6.69974">
        <ele>383.2</ele>
        <time>2014-05-01T09:05:26.000Z</time>
      </trkpt>
      <trkpt lat="47.50405" lon="6.69975">
        <ele>383.3</ele>
        <time>2014-05-01T09:05:27.000Z</time>
      </trkpt>
      <trkpt lat="47.50401" lon="6.69977">
        <ele>383.3</ele>
        <time>2014-05-01T09:05:28.000Z</time>
      </trkpt>
      <trkpt lat="47.50397" lon="6.69978">
        <ele>383.5</ele>
        <time>2014-05-01T09:05:29.000Z</time>
      </trkpt>
      <trkpt lat="47.50393" lon="6.6998">
        <ele>383.5</ele>
        <time>2014-05-01T09:05:30.000Z</time>
      </trkpt>
      <trkpt lat="47.5039" lon="6.69981">
        <ele>383.2</ele>
        <time>2014-05-01T09:05:31.000Z</time>
      </trkpt>
      <trkpt lat="47.50386" lon="6.69983">
        <ele>383.1</ele>
        <time>2014-05-01T09:05:32.000Z</time>
      </trkpt>
      <trkpt lat="47.50383" lon="6.69985">
        <ele>383.1</ele>
        <time>2014-05-01T09:05:33.000Z</time>
      </trkpt>
      <trkpt lat="47.50379" lon="6.69986">
        <ele>383.6</ele>
        <time>2014-05-01T09:05:34.000Z</time>
      </trkpt>
      <trkpt lat="47.50376" lon="6.69988">
        <ele>383.6</ele>
        <time>2014-05-01T09:05:35.000Z</time>
      </trkpt>
      <trkpt lat="47.50373" lon="6.6999">
        <ele>384.5</ele>
        <time>2014-05-01T09:05:36.000Z</time>
      </trkpt>
      <trkpt lat="47.50369" lon="6.69992">
        <ele>384.7</ele>
        <time>2014-05-01T09:05:37.000Z</time>
      </trkpt>
      <trkpt lat="47.50366" lon="6.69993">
        <ele>385</ele>
        <time>2014-05-01T09:05:38.000Z</time>
      </trkpt>
      <trkpt lat="47.50362" lon="6.69995">
        <ele>384.9</ele>
        <time>2014-05-01T09:05:39.000Z</time>
      </trkpt>
      <trkpt lat="47.50358" lon="6.69996">
        <ele>385</ele>
        <time>2014-05-01T09:05:40.000Z</time>
      </trkpt>
      <trkpt lat="47.50355" lon="6.69997">
        <ele>385.3</ele>
        <time>2014-05-01T09:05:41.000Z</time>
      </trkpt>
      <trkpt lat="47.50351" lon="6.69998">
        <ele>384.8</ele>
        <time>2014-05-01T09:05:42.000Z</time>
      </trkpt>
      <trkpt lat="47.50347" lon="6.69999">
        <ele>384.6</ele>
        <time>2014-05-01T09:05:43.000Z</time>
      </trkpt>
      <trkpt lat="47.50343" lon="6.7">
        <ele>384.6</ele>
        <time>2014-05-01T09:05:44.000Z</time>
      </trkpt>
      <trkpt lat="47.5034" lon="6.70002">
        <ele>384.2</ele>
        <time>2014-05-01T09:05:45.000Z</time>
      </trkpt>
      <trkpt lat="47.50336" lon="6.70003">
        <ele>384.2</ele>
        <time>2014-05-01T09:05:46.000Z</time>
      </trkpt>
      <trkpt lat="47.50333" lon="6.70003">
        <ele>385.3</ele>
        <time>2014-05-01T09:05:47.000Z</time>
      </trkpt>
      <trkpt lat="47.50329" lon="6.70004">
        <ele>385.3</ele>
        <time>2014-05-01T09:05:48.000Z</time>
      </trkpt>
      <trkpt lat="47.50325" lon="6.70005">
        <ele>385.3</ele>
        <time>2014-05-01T09:05:49.000Z</time>
      </trkpt>
      <trkpt lat="47.50321" lon="6.70006">
        <ele>385.9</ele>
        <time>2014-05-01T09:05:50.000Z</time>
      </trkpt>
      <trkpt lat="47.50317" lon="6.70006">
        <ele>386</ele>
        <time>2014-05-01T09:05:51.000Z</time>
      </trkpt>
      <trkpt lat="47.50313" lon="6.70007">
        <ele>385.4</ele>
        <time>2014-05-01T09:05:52.000Z</time>
      </trkpt>
      <trkpt lat="47.50309" lon="6.70008">
        <ele>385.3</ele>
        <time>2014-05-01T09:05:53.000Z</time>
      </trkpt>
      <trkpt lat="47.50305" lon="6.70009">
        <ele>385.1</ele>
        <time>2014-05-01T09:05:54.000Z</time>
      </trkpt>
      <trkpt lat="47.50302" lon="6.7001">
        <ele>384.4</ele>
        <time>2014-05-01T09:05:55.000Z</time>
      </trkpt>
      <trkpt lat="47.50298" lon="6.70011">
        <ele>383.7</ele>
        <time>2014-05-01T09:05:56.000Z</time>
      </trkpt>
      <trkpt lat="47.50294" lon="6.70012">
        <ele>383.9</ele>
        <time>2014-05-01T09:05:57.000Z</time>
      </trkpt>
      <trkpt lat="47.50291" lon="6.70012">
        <ele>384.1</ele>
        <time>2014-05-01T09:05:58.000Z</time>
      </trkpt>
      <trkpt lat="47.50288" lon="6.70013">
        <ele>385.1</ele>
        <time>2014-05-01T09:05:59.000Z</time>
      </trkpt>
      <trkpt lat="47.50284" lon="6.70014">
        <ele>384.2</ele>
        <time>2014-05-01T09:06:00.000Z</time>
      </trkpt>
      <trkpt lat="47.50281" lon="6.70015">
        <ele>384.1</ele>
        <time>2014-05-01T09:06:01.000Z</time>
      </trkpt>
      <trkpt lat="47.50277" lon="6.70017">
        <ele>384.1</ele>
        <time>2014-05-01T09:06:02.000Z</time>
      </trkpt>
      <trkpt lat="47.50273" lon="6.70018">
        <ele>384.5</ele>
        <time>2014-05-01T09:06:03.000Z</time>
      </trkpt>
      <trkpt lat="47.50268" lon="6.7002">
        <ele>384.5</ele>
        <time>2014-05-01T09:06:04.000Z</time>
      </trkpt>
      <trkpt lat="47.50264" lon="6.70022">
        <ele>384.5</ele>
        <time>2014-05-01T09:06:05.000Z</time>
      </trkpt>
      <trkpt lat="47.50252" lon="6.70028">
        <ele>383.7</ele>
        <time>2014-05-01T09:06:08.000Z</time>
      </trkpt>
      <trkpt lat="47.50248" lon="6.70031">
        <ele>383.2</ele>
        <time>2014-05-01T09:06:09.000Z</time>
      </trkpt>
      <trkpt lat="47.50245" lon="6.70034">
        <ele>383.4</ele>
        <time>2014-05-01T09:06:10.000Z</time>
      </trkpt>
      <trkpt lat="47.50241" lon="6.70037">
        <ele>383.4</ele>
        <time>2014-05-01T09:06:11.000Z</time>
      </trkpt>
      <trkpt lat="47.50238" lon="6.7004">
        <ele>382.4</ele>
        <time>2014-05-01T09:06:12.000Z</time>
      </trkpt>
      <trkpt lat="47.50234" lon="6.70043">
        <ele>381.2</ele>
        <time>2014-05-01T09:06:13.000Z</time>
      </trkpt>
      <trkpt lat="47.50231" lon="6.70047">
        <ele>379.8</ele>
        <time>2014-05-01T09:06:14.000Z</time>
      </trkpt>
      <trkpt lat="47.50229" lon="6.70051">
        <ele>379</ele>
        <time>2014-05-01T09:06:15.000Z</time>
      </trkpt>
      <trkpt lat="47.50226" lon="6.70056">
        <ele>379.4</ele>
        <time>2014-05-01T09:06:16.000Z</time>
      </trkpt>
      <trkpt lat="47.50224" lon="6.70061">
        <ele>379.6</ele>
        <time>2014-05-01T09:06:17.000Z</time>
      </trkpt>
      <trkpt lat="47.50222" lon="6.70066">
        <ele>378.9</ele>
        <time>2014-05-01T09:06:18.000Z</time>
      </trkpt>
      <trkpt lat="47.5022" lon="6.70071">
        <ele>379.2</ele>
        <time>2014-05-01T09:06:19.000Z</time>
      </trkpt>
      <trkpt lat="47.50218" lon="6.70076">
        <ele>379</ele>
        <time>2014-05-01T09:06:20.000Z</time>
      </trkpt>
      <trkpt lat="47.50216" lon="6.70081">
        <ele>378.5</ele>
        <time>2014-05-01T09:06:21.000Z</time>
      </trkpt>
      <trkpt lat="47.50214" lon="6.70086">
        <ele>378.5</ele>
        <time>2014-05-01T09:06:22.000Z</time>
      </trkpt>
      <trkpt lat="47.50212" lon="6.70091">
        <ele>377.9</ele>
        <time>2014-05-01T09:06:23.000Z</time>
      </trkpt>
      <trkpt lat="47.50209" lon="6.70097">
        <ele>377.9</ele>
        <time>2014-05-01T09:06:24.000Z</time>
      </trkpt>
      <trkpt lat="47.50206" lon="6.70102">
        <ele>378</ele>
        <time>2014-05-01T09:06:25.000Z</time>
      </trkpt>
      <trkpt lat="47.50203" lon="6.70106">
        <ele>378</ele>
        <time>2014-05-01T09:06:26.000Z</time>
      </trkpt>
      <trkpt lat="47.50199" lon="6.70111">
        <ele>378.8</ele>
        <time>2014-05-01T09:06:27.000Z</time>
      </trkpt>
      <trkpt lat="47.50196" lon="6.70115">
        <ele>379.9</ele>
        <time>2014-05-01T09:06:28.000Z</time>
      </trkpt>
      <trkpt lat="47.50193" lon="6.70119">
        <ele>379.4</ele>
        <time>2014-05-01T09:06:29.000Z</time>
      </trkpt>
      <trkpt lat="47.5019" lon="6.70123">
        <ele>379.6</ele>
        <time>2014-05-01T09:06:30.000Z</time>
      </trkpt>
      <trkpt lat="47.50184" lon="6.7013">
        <ele>379</ele>
        <time>2014-05-01T09:06:31.000Z</time>
      </trkpt>
      <trkpt lat="47.5018" lon="6.70135">
        <ele>378.4</ele>
        <time>2014-05-01T09:06:32.000Z</time>
      </trkpt>
      <trkpt lat="47.50175" lon="6.7014">
        <ele>378.9</ele>
        <time>2014-05-01T09:06:33.000Z</time>
      </trkpt>
      <trkpt lat="47.5017" lon="6.70144">
        <ele>377.9</ele>
        <time>2014-05-01T09:06:34.000Z</time>
      </trkpt>
      <trkpt lat="47.50166" lon="6.70149">
        <ele>376.9</ele>
        <time>2014-05-01T09:06:35.000Z</time>
      </trkpt>
      <trkpt lat="47.50161" lon="6.70152">
        <ele>376</ele>
        <time>2014-05-01T09:06:36.000Z</time>
      </trkpt>
      <trkpt lat="47.50156" lon="6.70158">
        <ele>374.9</ele>
        <time>2014-05-01T09:06:37.000Z</time>
      </trkpt>
      <trkpt lat="47.50151" lon="6.70162">
        <ele>374.9</ele>
        <time>2014-05-01T09:06:38.000Z</time>
      </trkpt>
      <trkpt lat="47.50146" lon="6.70166">
        <ele>376.9</ele>
        <time>2014-05-01T09:06:39.000Z</time>
      </trkpt>
      <trkpt lat="47.50141" lon="6.70171">
        <ele>377.6</ele>
        <time>2014-05-01T09:06:40.000Z</time>
      </trkpt>
      <trkpt lat="47.50136" lon="6.70174">
        <ele>377.7</ele>
        <time>2014-05-01T09:06:41.000Z</time>
      </trkpt>
      <trkpt lat="47.50131" lon="6.70178">
        <ele>377.9</ele>
        <time>2014-05-01T09:06:41.999Z</time>
      </trkpt>
      <trkpt lat="47.50127" lon="6.70188">
        <ele>378</ele>
        <time>2014-05-01T09:06:43.000Z</time>
      </trkpt>
      <trkpt lat="47.50122" lon="6.70196">
        <ele>377.8</ele>
        <time>2014-05-01T09:06:44.000Z</time>
      </trkpt>
      <trkpt lat="47.50117" lon="6.70202">
        <ele>378</ele>
        <time>2014-05-01T09:06:45.000Z</time>
      </trkpt>
      <trkpt lat="47.50113" lon="6.70208">
        <ele>378.7</ele>
        <time>2014-05-01T09:06:46.000Z</time>
      </trkpt>
      <trkpt lat="47.50108" lon="6.70214">
        <ele>377.9</ele>
        <time>2014-05-01T09:06:47.000Z</time>
      </trkpt>
      <trkpt lat="47.50101" lon="6.70218">
        <ele>377.3</ele>
        <time>2014-05-01T09:06:48.000Z</time>
      </trkpt>
      <trkpt lat="47.50096" lon="6.70224">
        <ele>375.6</ele>
        <time>2014-05-01T09:06:49.000Z</time>
      </trkpt>
      <trkpt lat="47.50091" lon="6.70229">
        <ele>374.9</ele>
        <time>2014-05-01T09:06:50.000Z</time>
      </trkpt>
      <trkpt lat="47.50086" lon="6.70233">
        <ele>374.1</ele>
        <time>2014-05-01T09:06:51.000Z</time>
      </trkpt>
      <trkpt lat="47.5008" lon="6.70238">
        <ele>373.7</ele>
        <time>2014-05-01T09:06:52.000Z</time>
      </trkpt>
      <trkpt lat="47.50075" lon="6.70242">
        <ele>374.3</ele>
        <time>2014-05-01T09:06:53.000Z</time>
      </trkpt>
      <trkpt lat="47.5007" lon="6.70245">
        <ele>374.6</ele>
        <time>2014-05-01T09:06:54.000Z</time>
      </trkpt>
      <trkpt lat="47.50066" lon="6.70249">
        <ele>374.7</ele>
        <time>2014-05-01T09:06:55.000Z</time>
      </trkpt>
      <trkpt lat="47.50062" lon="6.70253">
        <ele>375</ele>
        <time>2014-05-01T09:06:56.000Z</time>
      </trkpt>
      <trkpt lat="47.50058" lon="6.70257">
        <ele>374.9</ele>
        <time>2014-05-01T09:06:57.000Z</time>
      </trkpt>
      <trkpt lat="47.50053" lon="6.70261">
        <ele>375.6</ele>
        <time>2014-05-01T09:06:58.000Z</time>
      </trkpt>
      <trkpt lat="47.50052" lon="6.70269">
        <ele>371.4</ele>
        <time>2014-05-01T09:06:59.000Z</time>
      </trkpt>
      <trkpt lat="47.50048" lon="6.70273">
        <ele>372</ele>
        <time>2014-05-01T09:07:00.000Z</time>
      </trkpt>
      <trkpt lat="47.50046" lon="6.7028">
        <ele>372.2</ele>
        <time>2014-05-01T09:07:01.000Z</time>
      </trkpt>
      <trkpt lat="47.50043" lon="6.70287">
        <ele>371.1</ele>
        <time>2014-05-01T09:07:02.000Z</time>
      </trkpt>
      <trkpt lat="47.5004" lon="6.70293">
        <ele>371</ele>
        <time>2014-05-01T09:07:03.000Z</time>
      </trkpt>
      <trkpt lat="47.50037" lon="6.70299">
        <ele>371.9</ele>
        <time>2014-05-01T09:07:04.000Z</time>
      </trkpt>
      <trkpt lat="47.50035" lon="6.70307">
        <ele>370</ele>
        <time>2014-05-01T09:07:05.000Z</time>
      </trkpt>
      <trkpt lat="47.50011" lon="6.70354">
        <ele>367.8</ele>
        <time>2014-05-01T09:07:13.000Z</time>
      </trkpt>
      <trkpt lat="47.50007" lon="6.70358">
        <ele>367.3</ele>
        <time>2014-05-01T09:07:14.000Z</time>
      </trkpt>
      <trkpt lat="47.50004" lon="6.70364">
        <ele>366.4</ele>
        <time>2014-05-01T09:07:15.000Z</time>
      </trkpt>
      <trkpt lat="47.5" lon="6.70367">
        <ele>366.1</ele>
        <time>2014-05-01T09:07:16.000Z</time>
      </trkpt>
      <trkpt lat="47.49996" lon="6.7037">
        <ele>366.5</ele>
        <time>2014-05-01T09:07:17.000Z</time>
      </trkpt>
      <trkpt lat="47.49993" lon="6.70374">
        <ele>366.8</ele>
        <time>2014-05-01T09:07:18.000Z</time>
      </trkpt>
      <trkpt lat="47.4999" lon="6.70378">
        <ele>366.2</ele>
        <time>2014-05-01T09:07:19.000Z</time>
      </trkpt>
      <trkpt lat="47.49986" lon="6.70382">
        <ele>366.4</ele>
        <time>2014-05-01T09:07:20.000Z</time>
      </trkpt>
      <trkpt lat="47.49982" lon="6.70386">
        <ele>366.5</ele>
        <time>2014-05-01T09:07:21.000Z</time>
      </trkpt>
      <trkpt lat="47.49979" lon="6.7039">
        <ele>367.2</ele>
        <time>2014-05-01T09:07:22.000Z</time>
      </trkpt>
      <trkpt lat="47.49975" lon="6.70393">
        <ele>368.6</ele>
        <time>2014-05-01T09:07:23.000Z</time>
      </trkpt>
      <trkpt lat="47.49972" lon="6.70397">
        <ele>368.2</ele>
        <time>2014-05-01T09:07:24.000Z</time>
      </trkpt>
      <trkpt lat="47.49969" lon="6.704">
        <ele>368.4</ele>
        <time>2014-05-01T09:07:25.000Z</time>
      </trkpt>
      <trkpt lat="47.49966" lon="6.70404">
        <ele>368.4</ele>
        <time>2014-05-01T09:07:26.000Z</time>
      </trkpt>
      <trkpt lat="47.49963" lon="6.70408">
        <ele>367.8</ele>
        <time>2014-05-01T09:07:27.000Z</time>
      </trkpt>
      <trkpt lat="47.49959" lon="6.70412">
        <ele>368.3</ele>
        <time>2014-05-01T09:07:28.000Z</time>
      </trkpt>
      <trkpt lat="47.49956" lon="6.70416">
        <ele>369.3</ele>
        <time>2014-05-01T09:07:29.000Z</time>
      </trkpt>
      <trkpt lat="47.49953" lon="6.7042">
        <ele>369.6</ele>
        <time>2014-05-01T09:07:30.000Z</time>
      </trkpt>
      <trkpt lat="47.49949" lon="6.70424">
        <ele>369.5</ele>
        <time>2014-05-01T09:07:31.000Z</time>
      </trkpt>
      <trkpt lat="47.49945" lon="6.70427">
        <ele>369.7</ele>
        <time>2014-05-01T09:07:32.000Z</time>
      </trkpt>
      <trkpt lat="47.49941" lon="6.70431">
        <ele>370.4</ele>
        <time>2014-05-01T09:07:33.000Z</time>
      </trkpt>
      <trkpt lat="47.49938" lon="6.70435">
        <ele>370.9</ele>
        <time>2014-05-01T09:07:34.000Z</time>
      </trkpt>
      <trkpt lat="47.49934" lon="6.7044">
        <ele>371.4</ele>
        <time>2014-05-01T09:07:35.000Z</time>
      </trkpt>
      <trkpt lat="47.49931" lon="6.70445">
        <ele>370.4</ele>
        <time>2014-05-01T09:07:36.000Z</time>
      </trkpt>
      <trkpt lat="47.49928" lon="6.70449">
        <ele>370.3</ele>
        <time>2014-05-01T09:07:37.000Z</time>
      </trkpt>
      <trkpt lat="47.49924" lon="6.70454">
        <ele>370.6</ele>
        <time>2014-05-01T09:07:38.000Z</time>
      </trkpt>
      <trkpt lat="47.49921" lon="6.70459">
        <ele>371.2</ele>
        <time>2014-05-01T09:07:39.000Z</time>
      </trkpt>
      <trkpt lat="47.49918" lon="6.70464">
        <ele>371.4</ele>
        <time>2014-05-01T09:07:40.000Z</time>
      </trkpt>
      <trkpt lat="47.49915" lon="6.70469">
        <ele>369.9</ele>
        <time>2014-05-01T09:07:41.000Z</time>
      </trkpt>
      <trkpt lat="47.49912" lon="6.70474">
        <ele>369.6</ele>
        <time>2014-05-01T09:07:42.000Z</time>
      </trkpt>
      <trkpt lat="47.4991" lon="6.70479">
        <ele>370.2</ele>
        <time>2014-05-01T09:07:43.000Z</time>
      </trkpt>
      <trkpt lat="47.49908" lon="6.70483">
        <ele>370.7</ele>
        <time>2014-05-01T09:07:44.000Z</time>
      </trkpt>
      <trkpt lat="47.49905" lon="6.70488">
        <ele>370.7</ele>
        <time>2014-05-01T09:07:45.000Z</time>
      </trkpt>
      <trkpt lat="47.49901" lon="6.70492">
        <ele>370.7</ele>
        <time>2014-05-01T09:07:46.000Z</time>
      </trkpt>
      <trkpt lat="47.49897" lon="6.70496">
        <ele>370.6</ele>
        <time>2014-05-01T09:07:47.000Z</time>
      </trkpt>
      <trkpt lat="47.49894" lon="6.70503">
        <ele>370.5</ele>
        <time>2014-05-01T09:07:48.000Z</time>
      </trkpt>
      <trkpt lat="47.49891" lon="6.70508">
        <ele>370</ele>
        <time>2014-05-01T09:07:49.000Z</time>
      </trkpt>
      <trkpt lat="47.49888" lon="6.70512">
        <ele>370.4</ele>
        <time>2014-05-01T09:07:50.000Z</time>
      </trkpt>
      <trkpt lat="47.49885" lon="6.70517">
        <ele>370</ele>
        <time>2014-05-01T09:07:51.000Z</time>
      </trkpt>
      <trkpt lat="47.49881" lon="6.70521">
        <ele>368.8</ele>
        <time>2014-05-01T09:07:52.000Z</time>
      </trkpt>
      <trkpt lat="47.49878" lon="6.70525">
        <ele>368.7</ele>
        <time>2014-05-01T09:07:53.000Z</time>
      </trkpt>
      <trkpt lat="47.49875" lon="6.70531">
        <ele>368.7</ele>
        <time>2014-05-01T09:07:54.000Z</time>
      </trkpt>
      <trkpt lat="47.49871" lon="6.70535">
        <ele>368.7</ele>
        <time>2014-05-01T09:07:55.000Z</time>
      </trkpt>
      <trkpt lat="47.49868" lon="6.70541">
        <ele>369</ele>
        <time>2014-05-01T09:07:56.000Z</time>
      </trkpt>
      <trkpt lat="47.49866" lon="6.70545">
        <ele>369.3</ele>
        <time>2014-05-01T09:07:57.000Z</time>
      </trkpt>
      <trkpt lat="47.49863" lon="6.70549">
        <ele>369</ele>
        <time>2014-05-01T09:07:58.000Z</time>
      </trkpt>
      <trkpt lat="47.4986" lon="6.70553">
        <ele>368.6</ele>
        <time>2014-05-01T09:07:59.000Z</time>
      </trkpt>
      <trkpt lat="47.49857" lon="6.70558">
        <ele>368.9</ele>
        <time>2014-05-01T09:08:00.000Z</time>
      </trkpt>
      <trkpt lat="47.49854" lon="6.70562">
        <ele>368</ele>
        <time>2014-05-01T09:08:01.000Z</time>
      </trkpt>
      <trkpt lat="47.49851" lon="6.70566">
        <ele>368</ele>
        <time>2014-05-01T09:08:02.000Z</time>
      </trkpt>
      <trkpt lat="47.49847" lon="6.70571">
        <ele>367.7</ele>
        <time>2014-05-01T09:08:03.000Z</time>
      </trkpt>
      <trkpt lat="47.49844" lon="6.70576">
        <ele>368</ele>
        <time>2014-05-01T09:08:04.000Z</time>
      </trkpt>
      <trkpt lat="47.49841" lon="6.70581">
        <ele>367.2</ele>
        <time>2014-05-01T09:08:05.000Z</time>
      </trkpt>
      <trkpt lat="47.49814" lon="6.7061">
        <ele>367</ele>
        <time>2014-05-01T09:08:13.000Z</time>
      </trkpt>
      <trkpt lat="47.4981" lon="6.70613">
        <ele>367.9</ele>
        <time>2014-05-01T09:08:14.000Z</time>
      </trkpt>
      <trkpt lat="47.49806" lon="6.70616">
        <ele>369.7</ele>
        <time>2014-05-01T09:08:15.000Z</time>
      </trkpt>
      <trkpt lat="47.49802" lon="6.70619">
        <ele>369.6</ele>
        <time>2014-05-01T09:08:16.000Z</time>
      </trkpt>
      <trkpt lat="47.49799" lon="6.70622">
        <ele>369.2</ele>
        <time>2014-05-01T09:08:17.000Z</time>
      </trkpt>
      <trkpt lat="47.49795" lon="6.70626">
        <ele>368.7</ele>
        <time>2014-05-01T09:08:18.000Z</time>
      </trkpt>
      <trkpt lat="47.49792" lon="6.70629">
        <ele>368.6</ele>
        <time>2014-05-01T09:08:19.000Z</time>
      </trkpt>
      <trkpt lat="47.49789" lon="6.70632">
        <ele>369.1</ele>
        <time>2014-05-01T09:08:20.000Z</time>
      </trkpt>
      <trkpt lat="47.49785" lon="6.70634">
        <ele>369.5</ele>
        <time>2014-05-01T09:08:21.000Z</time>
      </trkpt>
      <trkpt lat="47.49782" lon="6.70637">
        <ele>369.5</ele>
        <time>2014-05-01T09:08:22.000Z</time>
      </trkpt>
      <trkpt lat="47.49779" lon="6.70639">
        <ele>370.5</ele>
        <time>2014-05-01T09:08:23.000Z</time>
      </trkpt>
      <trkpt lat="47.49776" lon="6.70641">
        <ele>369.7</ele>
        <time>2014-05-01T09:08:24.000Z</time>
      </trkpt>
      <trkpt lat="47.49773" lon="6.70643">
        <ele>370.3</ele>
        <time>2014-05-01T09:08:25.000Z</time>
      </trkpt>
      <trkpt lat="47.49769" lon="6.70645">
        <ele>369.7</ele>
        <time>2014-05-01T09:08:26.000Z</time>
      </trkpt>
      <trkpt lat="47.49766" lon="6.70648">
        <ele>369.9</ele>
        <time>2014-05-01T09:08:27.000Z</time>
      </trkpt>
      <trkpt lat="47.49764" lon="6.70651">
        <ele>369.8</ele>
        <time>2014-05-01T09:08:28.000Z</time>
      </trkpt>
      <trkpt lat="47.49761" lon="6.70653">
        <ele>369.5</ele>
        <time>2014-05-01T09:08:29.000Z</time>
      </trkpt>
      <trkpt lat="47.49758" lon="6.70656">
        <ele>369</ele>
        <time>2014-05-01T09:08:30.000Z</time>
      </trkpt>
      <trkpt lat="47.49755" lon="6.70658">
        <ele>368</ele>
        <time>2014-05-01T09:08:31.000Z</time>
      </trkpt>
      <trkpt lat="47.49751" lon="6.7066">
        <ele>367.9</ele>
        <time>2014-05-01T09:08:32.000Z</time>
      </trkpt>
      <trkpt lat="47.49748" lon="6.70662">
        <ele>367.3</ele>
        <time>2014-05-01T09:08:33.000Z</time>
      </trkpt>
      <trkpt lat="47.49745" lon="6.70664">
        <ele>367.8</ele>
        <time>2014-05-01T09:08:34.000Z</time>
      </trkpt>
      <trkpt lat="47.49743" lon="6.70666">
        <ele>367.5</ele>
        <time>2014-05-01T09:08:35.000Z</time>
      </trkpt>
      <trkpt lat="47.4974" lon="6.70668">
        <ele>368.3</ele>
        <time>2014-05-01T09:08:36.000Z</time>
      </trkpt>
      <trkpt lat="47.49737" lon="6.7067">
        <ele>368.9</ele>
        <time>2014-05-01T09:08:37.000Z</time>
      </trkpt>
      <trkpt lat="47.49734" lon="6.70672">
        <ele>369.7</ele>
        <time>2014-05-01T09:08:38.000Z</time>
      </trkpt>
      <trkpt lat="47.49732" lon="6.70674">
        <ele>368.1</ele>
        <time>2014-05-01T09:08:39.000Z</time>
      </trkpt>
      <trkpt lat="47.49728" lon="6.70676">
        <ele>369.3</ele>
        <time>2014-05-01T09:08:40.000Z</time>
      </trkpt>
      <trkpt lat="47.49725" lon="6.70677">
        <ele>370.4</ele>
        <time>2014-05-01T09:08:41.000Z</time>
      </trkpt>
      <trkpt lat="47.49722" lon="6.70679">
        <ele>371.1</ele>
        <time>2014-05-01T09:08:42.000Z</time>
      </trkpt>
      <trkpt lat="47.49719" lon="6.70681">
        <ele>370.9</ele>
        <time>2014-05-01T09:08:43.000Z</time>
      </trkpt>
      <trkpt lat="47.49716" lon="6.70683">
        <ele>371.6</ele>
        <time>2014-05-01T09:08:44.000Z</time>
      </trkpt>
      <trkpt lat="47.49713" lon="6.70684">
        <ele>372.3</ele>
        <time>2014-05-01T09:08:45.000Z</time>
      </trkpt>
      <trkpt lat="47.49711" lon="6.70686">
        <ele>372.7</ele>
        <time>2014-05-01T09:08:46.000Z</time>
      </trkpt>
      <trkpt lat="47.49708" lon="6.70687">
        <ele>372.7</ele>
        <time>2014-05-01T09:08:47.000Z</time>
      </trkpt>
      <trkpt lat="47.49706" lon="6.70688">
        <ele>372.9</ele>
        <time>2014-05-01T09:08:48.000Z</time>
      </trkpt>
      <trkpt lat="47.49703" lon="6.70689">
        <ele>373.8</ele>
        <time>2014-05-01T09:08:49.000Z</time>
      </trkpt>
      <trkpt lat="47.49701" lon="6.7069">
        <ele>374.2</ele>
        <time>2014-05-01T09:08:50.000Z</time>
      </trkpt>
      <trkpt lat="47.49698" lon="6.70691">
        <ele>375.2</ele>
        <time>2014-05-01T09:08:51.000Z</time>
      </trkpt>
      <trkpt lat="47.49696" lon="6.70692">
        <ele>375.7</ele>
        <time>2014-05-01T09:08:52.000Z</time>
      </trkpt>
      <trkpt lat="47.49693" lon="6.70693">
        <ele>376.4</ele>
        <time>2014-05-01T09:08:53.000Z</time>
      </trkpt>
      <trkpt lat="47.49691" lon="6.70694">
        <ele>377.3</ele>
        <time>2014-05-01T09:08:54.000Z</time>
      </trkpt>
      <trkpt lat="47.49687" lon="6.70696">
        <ele>376.9</ele>
        <time>2014-05-01T09:08:56.000Z</time>
      </trkpt>
      <trkpt lat="47.49685" lon="6.70698">
        <ele>377.2</ele>
        <time>2014-05-01T09:08:57.000Z</time>
      </trkpt>
      <trkpt lat="47.49684" lon="6.70701">
        <ele>376.7</ele>
        <time>2014-05-01T09:08:58.000Z</time>
      </trkpt>
      <trkpt lat="47.49683" lon="6.70704">
        <ele>376.7</ele>
        <time>2014-05-01T09:08:59.000Z</time>
      </trkpt>
      <trkpt lat="47.49683" lon="6.70708">
        <ele>376.3</ele>
        <time>2014-05-01T09:09:00.000Z</time>
      </trkpt>
      <trkpt lat="47.49683" lon="6.70712">
        <ele>376.5</ele>
        <time>2014-05-01T09:09:01.000Z</time>
      </trkpt>
      <trkpt lat="47.49684" lon="6.70717">
        <ele>376.2</ele>
        <time>2014-05-01T09:09:02.000Z</time>
      </trkpt>
      <trkpt lat="47.49685" lon="6.70721">
        <ele>376.5</ele>
        <time>2014-05-01T09:09:03.000Z</time>
      </trkpt>
      <trkpt lat="47.49685" lon="6.70725">
        <ele>377.4</ele>
        <time>2014-05-01T09:09:04.000Z</time>
      </trkpt>
      <trkpt lat="47.49686" lon="6.70729">
        <ele>378</ele>
        <time>2014-05-01T09:09:05.000Z</time>
      </trkpt>
      <trkpt lat="47.49688" lon="6.70761">
        <ele>378.2</ele>
        <time>2014-05-01T09:09:13.000Z</time>
      </trkpt>
      <trkpt lat="47.49688" lon="6.70764">
        <ele>379.1</ele>
        <time>2014-05-01T09:09:14.000Z</time>
      </trkpt>
      <trkpt lat="47.49689" lon="6.70768">
        <ele>380.1</ele>
        <time>2014-05-01T09:09:15.000Z</time>
      </trkpt>
      <trkpt lat="47.49688" lon="6.70774">
        <ele>382.8</ele>
        <time>2014-05-01T09:09:17.000Z</time>
      </trkpt>
      <trkpt lat="47.49687" lon="6.70776">
        <ele>383.1</ele>
        <time>2014-05-01T09:09:18.000Z</time>
      </trkpt>
      <trkpt lat="47.49684" lon="6.70778">
        <ele>382.2</ele>
        <time>2014-05-01T09:09:20.000Z</time>
      </trkpt>
      <trkpt lat="47.49682" lon="6.70777">
        <ele>382.4</ele>
        <time>2014-05-01T09:09:21.000Z</time>
      </trkpt>
      <trkpt lat="47.49678" lon="6.70773">
        <ele>382.7</ele>
        <time>2014-05-01T09:09:23.000Z</time>
      </trkpt>
      <trkpt lat="47.49676" lon="6.7077">
        <ele>382.4</ele>
        <time>2014-05-01T09:09:24.000Z</time>
      </trkpt>
      <trkpt lat="47.49675" lon="6.70767">
        <ele>383.2</ele>
        <time>2014-05-01T09:09:25.000Z</time>
      </trkpt>
      <trkpt lat="47.49673" lon="6.70765">
        <ele>383.8</ele>
        <time>2014-05-01T09:09:26.000Z</time>
      </trkpt>
      <trkpt lat="47.49672" lon="6.70761">
        <ele>384.1</ele>
        <time>2014-05-01T09:09:27.000Z</time>
      </trkpt>
      <trkpt lat="47.49671" lon="6.70758">
        <ele>384.9</ele>
        <time>2014-05-01T09:09:28.000Z</time>
      </trkpt>
      <trkpt lat="47.49668" lon="6.70753">
        <ele>385.2</ele>
        <time>2014-05-01T09:09:30.000Z</time>
      </trkpt>
      <trkpt lat="47.49667" lon="6.7075">
        <ele>385.6</ele>
        <time>2014-05-01T09:09:31.000Z</time>
      </trkpt>
      <trkpt lat="47.49665" lon="6.70747">
        <ele>386.6</ele>
        <time>2014-05-01T09:09:32.000Z</time>
      </trkpt>
      <trkpt lat="47.49664" lon="6.70744">
        <ele>387</ele>
        <time>2014-05-01T09:09:33.000Z</time>
      </trkpt>
      <trkpt lat="47.49663" lon="6.70741">
        <ele>385.4</ele>
        <time>2014-05-01T09:09:34.000Z</time>
      </trkpt>
      <trkpt lat="47.49661" lon="6.70738">
        <ele>385.1</ele>
        <time>2014-05-01T09:09:35.000Z</time>
      </trkpt>
      <trkpt lat="47.49658" lon="6.70733">
        <ele>385.3</ele>
        <time>2014-05-01T09:09:37.000Z</time>
      </trkpt>
      <trkpt lat="47.49657" lon="6.70731">
        <ele>385.6</ele>
        <time>2014-05-01T09:09:38.000Z</time>
      </trkpt>
      <trkpt lat="47.49656" lon="6.70728">
        <ele>386.2</ele>
        <time>2014-05-01T09:09:39.000Z</time>
      </trkpt>
      <trkpt lat="47.49655" lon="6.70725">
        <ele>387.5</ele>
        <time>2014-05-01T09:09:40.000Z</time>
      </trkpt>
      <trkpt lat="47.49653" lon="6.70722">
        <ele>388.7</ele>
        <time>2014-05-01T09:09:41.000Z</time>
      </trkpt>
      <trkpt lat="47.49651" lon="6.70718">
        <ele>388.8</ele>
        <time>2014-05-01T09:09:42.000Z</time>
      </trkpt>
      <trkpt lat="47.49649" lon="6.70716">
        <ele>388</ele>
        <time>2014-05-01T09:09:43.001Z</time>
      </trkpt>
      <trkpt lat="47.49648" lon="6.70713">
        <ele>389.3</ele>
        <time>2014-05-01T09:09:44.000Z</time>
      </trkpt>
      <trkpt lat="47.49644" lon="6.7071">
        <ele>391.2</ele>
        <time>2014-05-01T09:09:46.000Z</time>
      </trkpt>
      <trkpt lat="47.49642" lon="6.70708">
        <ele>391.6</ele>
        <time>2014-05-01T09:09:47.000Z</time>
      </trkpt>
      <trkpt lat="47.4964" lon="6.70707">
        <ele>391.5</ele>
        <time>2014-05-01T09:09:48.000Z</time>
      </trkpt>
      <trkpt lat="47.49638" lon="6.70705">
        <ele>392.5</ele>
        <time>2014-05-01T09:09:49.000Z</time>
      </trkpt>
      <trkpt lat="47.49635" lon="6.70701">
        <ele>394.6</ele>
        <time>2014-05-01T09:09:51.000Z</time>
      </trkpt>
      <trkpt lat="47.49634" lon="6.70699">
        <ele>399.1</ele>
        <time>2014-05-01T09:09:52.000Z</time>
      </trkpt>
      <trkpt lat="47.49631" lon="6.70696">
        <ele>402.5</ele>
        <time>2014-05-01T09:09:55.000Z</time>
      </trkpt>
      <trkpt lat="47.49629" lon="6.70694">
        <ele>402.4</ele>
        <time>2014-05-01T09:09:56.000Z</time>
      </trkpt>
      <trkpt lat="47.49626" lon="6.7069">
        <ele>398.8</ele>
        <time>2014-05-01T09:09:58.000Z</time>
      </trkpt>
      <trkpt lat="47.49624" lon="6.70689">
        <ele>395.8</ele>
        <time>2014-05-01T09:09:59.000Z</time>
      </trkpt>
      <trkpt lat="47.4962" lon="6.70685">
        <ele>391.6</ele>
        <time>2014-05-01T09:10:01.000Z</time>
      </trkpt>
      <trkpt lat="47.49618" lon="6.70684">
        <ele>390.9</ele>
        <time>2014-05-01T09:10:02.000Z</time>
      </trkpt>
      <trkpt lat="47.49617" lon="6.70681">
        <ele>394.7</ele>
        <time>2014-05-01T09:10:03.000Z</time>
      </trkpt>
      <trkpt lat="47.49616" lon="6.70677">
        <ele>395.4</ele>
        <time>2014-05-01T09:10:04.000Z</time>
      </trkpt>
      <trkpt lat="47.49615" lon="6.70674">
        <ele>395.3</ele>
        <time>2014-05-01T09:10:05.000Z</time>
      </trkpt>
      <trkpt lat="47.49615" lon="6.70658">
        <ele>395.3</ele>
        <time>2014-05-01T09:10:13.000Z</time>
      </trkpt>
      <trkpt lat="47.49613" lon="6.70654">
        <ele>391.1</ele>
        <time>2014-05-01T09:10:15.000Z</time>
      </trkpt>
      <trkpt lat="47.49611" lon="6.70651">
        <ele>393.2</ele>
        <time>2014-05-01T09:10:16.000Z</time>
      </trkpt>
      <trkpt lat="47.49609" lon="6.70648">
        <ele>393.9</ele>
        <time>2014-05-01T09:10:17.000Z</time>
      </trkpt>
      <trkpt lat="47.49607" lon="6.70645">
        <ele>394</ele>
        <time>2014-05-01T09:10:18.000Z</time>
      </trkpt>
      <trkpt lat="47.49604" lon="6.70642">
        <ele>390.6</ele>
        <time>2014-05-01T09:10:19.000Z</time>
      </trkpt>
      <trkpt lat="47.49602" lon="6.70639">
        <ele>391.8</ele>
        <time>2014-05-01T09:10:20.000Z</time>
      </trkpt>
      <trkpt lat="47.496" lon="6.70636">
        <ele>392.5</ele>
        <time>2014-05-01T09:10:21.000Z</time>
      </trkpt>
      <trkpt lat="47.49599" lon="6.70634">
        <ele>397</ele>
        <time>2014-05-01T09:10:22.000Z</time>
      </trkpt>
      <trkpt lat="47.49596" lon="6.70629">
        <ele>400.2</ele>
        <time>2014-05-01T09:10:24.000Z</time>
      </trkpt>
      <trkpt lat="47.49595" lon="6.70627">
        <ele>401.2</ele>
        <time>2014-05-01T09:10:24.999Z</time>
      </trkpt>
      <trkpt lat="47.49595" lon="6.70624">
        <ele>400.9</ele>
        <time>2014-05-01T09:10:26.000Z</time>
      </trkpt>
      <trkpt lat="47.49594" lon="6.70621">
        <ele>401.2</ele>
        <time>2014-05-01T09:10:27.000Z</time>
      </trkpt>
      <trkpt lat="47.49592" lon="6.70615">
        <ele>411.2</ele>
        <time>2014-05-01T09:10:29.001Z</time>
      </trkpt>
      <trkpt lat="47.4959" lon="6.70611">
        <ele>409.1</ele>
        <time>2014-05-01T09:10:30.000Z</time>
      </trkpt>
      <trkpt lat="47.49588" lon="6.70606">
        <ele>411.5</ele>
        <time>2014-05-01T09:10:32.000Z</time>
      </trkpt>
      <trkpt lat="47.49587" lon="6.70603">
        <ele>412.7</ele>
        <time>2014-05-01T09:10:33.000Z</time>
      </trkpt>
      <trkpt lat="47.49585" lon="6.70601">
        <ele>413.8</ele>
        <time>2014-05-01T09:10:34.000Z</time>
      </trkpt>
      <trkpt lat="47.49583" lon="6.70598">
        <ele>415.4</ele>
        <time>2014-05-01T09:10:35.000Z</time>
      </trkpt>
      <trkpt lat="47.49581" lon="6.70595">
        <ele>417</ele>
        <time>2014-05-01T09:10:36.000Z</time>
      </trkpt>
      <trkpt lat="47.49579" lon="6.70593">
        <ele>417.8</ele>
        <time>2014-05-01T09:10:37.000Z</time>
      </trkpt>
      <trkpt lat="47.49575" lon="6.7059">
        <ele>420</ele>
        <time>2014-05-01T09:10:38.999Z</time>
      </trkpt>
      <trkpt lat="47.49573" lon="6.70588">
        <ele>420.2</ele>
        <time>2014-05-01T09:10:40.000Z</time>
      </trkpt>
      <trkpt lat="47.4957" lon="6.70587">
        <ele>420</ele>
        <time>2014-05-01T09:10:41.000Z</time>
      </trkpt>
      <trkpt lat="47.49569" lon="6.70585">
        <ele>422</ele>
        <time>2014-05-01T09:10:42.000Z</time>
      </trkpt>
      <trkpt lat="47.49566" lon="6.70583">
        <ele>423</ele>
        <time>2014-05-01T09:10:43.000Z</time>
      </trkpt>
      <trkpt lat="47.49564" lon="6.70581">
        <ele>423</ele>
        <time>2014-05-01T09:10:44.000Z</time>
      </trkpt>
      <trkpt lat="47.49562" lon="6.7058">
        <ele>423.1</ele>
        <time>2014-05-01T09:10:45.000Z</time>
      </trkpt>
      <trkpt lat="47.4956" lon="6.70579">
        <ele>423</ele>
        <time>2014-05-01T09:10:46.000Z</time>
      </trkpt>
      <trkpt lat="47.49558" lon="6.70577">
        <ele>422.9</ele>
        <time>2014-05-01T09:10:47.000Z</time>
      </trkpt>
      <trkpt lat="47.49556" lon="6.70576">
        <ele>423.2</ele>
        <time>2014-05-01T09:10:48.000Z</time>
      </trkpt>
      <trkpt lat="47.49552" lon="6.70573">
        <ele>425.1</ele>
        <time>2014-05-01T09:10:50.000Z</time>
      </trkpt>
      <trkpt lat="47.49551" lon="6.70571">
        <ele>426.3</ele>
        <time>2014-05-01T09:10:51.000Z</time>
      </trkpt>
      <trkpt lat="47.49548" lon="6.70567">
        <ele>427.9</ele>
        <time>2014-05-01T09:10:54.000Z</time>
      </trkpt>
      <trkpt lat="47.49547" lon="6.70565">
        <ele>431.4</ele>
        <time>2014-05-01T09:10:55.000Z</time>
      </trkpt>
      <trkpt lat="47.49544" lon="6.70563">
        <ele>436</ele>
        <time>2014-05-01T09:10:57.000Z</time>
      </trkpt>
      <trkpt lat="47.49543" lon="6.70561">
        <ele>435.8</ele>
        <time>2014-05-01T09:10:58.000Z</time>
      </trkpt>
      <trkpt lat="47.4954" lon="6.70558">
        <ele>430.6</ele>
        <time>2014-05-01T09:11:00.000Z</time>
      </trkpt>
      <trkpt lat="47.49538" lon="6.70557">
        <ele>430.1</ele>
        <time>2014-05-01T09:11:01.000Z</time>
      </trkpt>
      <trkpt lat="47.49536" lon="6.70556">
        <ele>429.6</ele>
        <time>2014-05-01T09:11:02.000Z</time>
      </trkpt>
      <trkpt lat="47.49534" lon="6.70554">
        <ele>432.5</ele>
        <time>2014-05-01T09:11:03.000Z</time>
      </trkpt>
      <trkpt lat="47.49532" lon="6.70552">
        <ele>432.7</ele>
        <time>2014-05-01T09:11:04.000Z</time>
      </trkpt>
      <trkpt lat="47.49529" lon="6.7055">
        <ele>432.9</ele>
        <time>2014-05-01T09:11:05.000Z</time>
      </trkpt>
      <trkpt lat="47.49512" lon="6.70541">
        <ele>436.2</ele>
        <time>2014-05-01T09:11:13.000Z</time>
      </trkpt>
      <trkpt lat="47.4951" lon="6.7054">
        <ele>435.8</ele>
        <time>2014-05-01T09:11:14.000Z</time>
      </trkpt>
      <trkpt lat="47.49507" lon="6.70539">
        <ele>434.8</ele>
        <time>2014-05-01T09:11:15.000Z</time>
      </trkpt>
      <trkpt lat="47.49505" lon="6.70538">
        <ele>434.9</ele>
        <time>2014-05-01T09:11:16.000Z</time>
      </trkpt>
      <trkpt lat="47.49503" lon="6.70536">
        <ele>435.6</ele>
        <time>2014-05-01T09:11:17.000Z</time>
      </trkpt>
      <trkpt lat="47.495" lon="6.70533">
        <ele>436.1</ele>
        <time>2014-05-01T09:11:19.000Z</time>
      </trkpt>
      <trkpt lat="47.49497" lon="6.70531">
        <ele>435.8</ele>
        <time>2014-05-01T09:11:20.000Z</time>
      </trkpt>
      <trkpt lat="47.49495" lon="6.7053">
        <ele>435.3</ele>
        <time>2014-05-01T09:11:21.000Z</time>
      </trkpt>
      <trkpt lat="47.49493" lon="6.70528">
        <ele>434.7</ele>
        <time>2014-05-01T09:11:22.000Z</time>
      </trkpt>
      <trkpt lat="47.49489" lon="6.70526">
        <ele>438.4</ele>
        <time>2014-05-01T09:11:24.000Z</time>
      </trkpt>
      <trkpt lat="47.49488" lon="6.70525">
        <ele>438.4</ele>
        <time>2014-05-01T09:11:25.000Z</time>
      </trkpt>
      <trkpt lat="47.49484" lon="6.70523">
        <ele>439.3</ele>
        <time>2014-05-01T09:11:27.000Z</time>
      </trkpt>
      <trkpt lat="47.49482" lon="6.70522">
        <ele>438.7</ele>
        <time>2014-05-01T09:11:28.000Z</time>
      </trkpt>
      <trkpt lat="47.49479" lon="6.70522">
        <ele>436.6</ele>
        <time>2014-05-01T09:11:29.000Z</time>
      </trkpt>
      <trkpt lat="47.49476" lon="6.70521">
        <ele>436.6</ele>
        <time>2014-05-01T09:11:30.000Z</time>
      </trkpt>
      <trkpt lat="47.49473" lon="6.7052">
        <ele>438.2</ele>
        <time>2014-05-01T09:11:31.000Z</time>
      </trkpt>
      <trkpt lat="47.4947" lon="6.70519">
        <ele>436.2</ele>
        <time>2014-05-01T09:11:32.000Z</time>
      </trkpt>
      <trkpt lat="47.49467" lon="6.70517">
        <ele>434.5</ele>
        <time>2014-05-01T09:11:33.000Z</time>
      </trkpt>
      <trkpt lat="47.49465" lon="6.70516">
        <ele>435</ele>
        <time>2014-05-01T09:11:34.000Z</time>
      </trkpt>
      <trkpt lat="47.49461" lon="6.70515">
        <ele>437.1</ele>
        <time>2014-05-01T09:11:36.000Z</time>
      </trkpt>
      <trkpt lat="47.49459" lon="6.70514">
        <ele>438.5</ele>
        <time>2014-05-01T09:11:37.000Z</time>
      </trkpt>
      <trkpt lat="47.49457" lon="6.70514">
        <ele>438.2</ele>
        <time>2014-05-01T09:11:38.000Z</time>
      </trkpt>
      <trkpt lat="47.49454" lon="6.70514">
        <ele>438.6</ele>
        <time>2014-05-01T09:11:39.000Z</time>
      </trkpt>
      <trkpt lat="47.49451" lon="6.70515">
        <ele>439.2</ele>
        <time>2014-05-01T09:11:40.000Z</time>
      </trkpt>
      <trkpt lat="47.49448" lon="6.70515">
        <ele>436.3</ele>
        <time>2014-05-01T09:11:41.000Z</time>
      </trkpt>
      <trkpt lat="47.49446" lon="6.70517">
        <ele>436.2</ele>
        <time>2014-05-01T09:11:42.000Z</time>
      </trkpt>
      <trkpt lat="47.49444" lon="6.7052">
        <ele>435.8</ele>
        <time>2014-05-01T09:11:43.000Z</time>
      </trkpt>
      <trkpt lat="47.49443" lon="6.70523">
        <ele>436.1</ele>
        <time>2014-05-01T09:11:44.000Z</time>
      </trkpt>
      <trkpt lat="47.49442" lon="6.70526">
        <ele>435.7</ele>
        <time>2014-05-01T09:11:45.000Z</time>
      </trkpt>
      <trkpt lat="47.49442" lon="6.70532">
        <ele>435.9</ele>
        <time>2014-05-01T09:11:47.000Z</time>
      </trkpt>
      <trkpt lat="47.49442" lon="6.70535">
        <ele>436</ele>
        <time>2014-05-01T09:11:47.999Z</time>
      </trkpt>
      <trkpt lat="47.49442" lon="6.70541">
        <ele>437.3</ele>
        <time>2014-05-01T09:11:50.000Z</time>
      </trkpt>
      <trkpt lat="47.49442" lon="6.70543">
        <ele>437.8</ele>
        <time>2014-05-01T09:11:51.000Z</time>
      </trkpt>
      <trkpt lat="47.49442" lon="6.70548">
        <ele>436.7</ele>
        <time>2014-05-01T09:11:53.000Z</time>
      </trkpt>
      <trkpt lat="47.49442" lon="6.7055">
        <ele>435.2</ele>
        <time>2014-05-01T09:11:54.000Z</time>
      </trkpt>
      <trkpt lat="47.49443" lon="6.70556">
        <ele>433.6</ele>
        <time>2014-05-01T09:11:56.000Z</time>
      </trkpt>
      <trkpt lat="47.49443" lon="6.70559">
        <ele>432.8</ele>
        <time>2014-05-01T09:11:57.000Z</time>
      </trkpt>
      <trkpt lat="47.49444" lon="6.70562">
        <ele>432.5</ele>
        <time>2014-05-01T09:11:58.000Z</time>
      </trkpt>
      <trkpt lat="47.49445" lon="6.70565">
        <ele>433.3</ele>
        <time>2014-05-01T09:11:59.000Z</time>
      </trkpt>
      <trkpt lat="47.49447" lon="6.70571">
        <ele>432.9</ele>
        <time>2014-05-01T09:12:01.000Z</time>
      </trkpt>
      <trkpt lat="47.49447" lon="6.70575">
        <ele>431</ele>
        <time>2014-05-01T09:12:02.000Z</time>
      </trkpt>
      <trkpt lat="47.49448" lon="6.70578">
        <ele>430.6</ele>
        <time>2014-05-01T09:12:03.000Z</time>
      </trkpt>
      <trkpt lat="47.49449" lon="6.70582">
        <ele>430.6</ele>
        <time>2014-05-01T09:12:04.000Z</time>
      </trkpt>
      <trkpt lat="47.4945" lon="6.70585">
        <ele>431.4</ele>
        <time>2014-05-01T09:12:05.000Z</time>
      </trkpt>
      <trkpt lat="47.49454" lon="6.70608">
        <ele>435.2</ele>
        <time>2014-05-01T09:12:13.000Z</time>
      </trkpt>
      <trkpt lat="47.49455" lon="6.70613">
        <ele>436.4</ele>
        <time>2014-05-01T09:12:15.000Z</time>
      </trkpt>
      <trkpt lat="47.49456" lon="6.70615">
        <ele>438.5</ele>
        <time>2014-05-01T09:12:16.000Z</time>
      </trkpt>
      <trkpt lat="47.49456" lon="6.70622">
        <ele>441</ele>
        <time>2014-05-01T09:12:19.000Z</time>
      </trkpt>
      <trkpt lat="47.49457" lon="6.70626">
        <ele>440.9</ele>
        <time>2014-05-01T09:12:20.000Z</time>
      </trkpt>
      <trkpt lat="47.49458" lon="6.7063">
        <ele>442.5</ele>
        <time>2014-05-01T09:12:21.000Z</time>
      </trkpt>
      <trkpt lat="47.49458" lon="6.70633">
        <ele>442.8</ele>
        <time>2014-05-01T09:12:22.000Z</time>
      </trkpt>
      <trkpt lat="47.49459" lon="6.70638">
        <ele>441.9</ele>
        <time>2014-05-01T09:12:24.000Z</time>
      </trkpt>
      <trkpt lat="47.4946" lon="6.7064">
        <ele>441.4</ele>
        <time>2014-05-01T09:12:25.000Z</time>
      </trkpt>
      <trkpt lat="47.49461" lon="6.70643">
        <ele>441</ele>
        <time>2014-05-01T09:12:26.000Z</time>
      </trkpt>
      <trkpt lat="47.49463" lon="6.70646">
        <ele>440.9</ele>
        <time>2014-05-01T09:12:27.000Z</time>
      </trkpt>
      <trkpt lat="47.49464" lon="6.7065">
        <ele>440.2</ele>
        <time>2014-05-01T09:12:28.000Z</time>
      </trkpt>
      <trkpt lat="47.49465" lon="6.70654">
        <ele>439.9</ele>
        <time>2014-05-01T09:12:29.000Z</time>
      </trkpt>
      <trkpt lat="47.49466" lon="6.70658">
        <ele>440.4</ele>
        <time>2014-05-01T09:12:30.000Z</time>
      </trkpt>
      <trkpt lat="47.49467" lon="6.70662">
        <ele>440</ele>
        <time>2014-05-01T09:12:31.000Z</time>
      </trkpt>
      <trkpt lat="47.49469" lon="6.70667">
        <ele>440.6</ele>
        <time>2014-05-01T09:12:32.000Z</time>
      </trkpt>
      <trkpt lat="47.49471" lon="6.70671">
        <ele>441</ele>
        <time>2014-05-01T09:12:33.000Z</time>
      </trkpt>
      <trkpt lat="47.49472" lon="6.70675">
        <ele>439.3</ele>
        <time>2014-05-01T09:12:34.000Z</time>
      </trkpt>
      <trkpt lat="47.49474" lon="6.7068">
        <ele>439.3</ele>
        <time>2014-05-01T09:12:35.000Z</time>
      </trkpt>
      <trkpt lat="47.49475" lon="6.70684">
        <ele>439.9</ele>
        <time>2014-05-01T09:12:36.000Z</time>
      </trkpt>
      <trkpt lat="47.49477" lon="6.70688">
        <ele>440.8</ele>
        <time>2014-05-01T09:12:37.000Z</time>
      </trkpt>
      <trkpt lat="47.49478" lon="6.70693">
        <ele>439.3</ele>
        <time>2014-05-01T09:12:38.000Z</time>
      </trkpt>
      <trkpt lat="47.4948" lon="6.70697">
        <ele>439.4</ele>
        <time>2014-05-01T09:12:39.000Z</time>
      </trkpt>
      <trkpt lat="47.49481" lon="6.70701">
        <ele>440.7</ele>
        <time>2014-05-01T09:12:40.000Z</time>
      </trkpt>
      <trkpt lat="47.49481" lon="6.70704">
        <ele>441.2</ele>
        <time>2014-05-01T09:12:41.000Z</time>
      </trkpt>
      <trkpt lat="47.49482" lon="6.70707">
        <ele>441.6</ele>
        <time>2014-05-01T09:12:42.000Z</time>
      </trkpt>
      <trkpt lat="47.49482" lon="6.70711">
        <ele>441.6</ele>
        <time>2014-05-01T09:12:43.000Z</time>
      </trkpt>
      <trkpt lat="47.49483" lon="6.70715">
        <ele>441.7</ele>
        <time>2014-05-01T09:12:44.000Z</time>
      </trkpt>
      <trkpt lat="47.49484" lon="6.70718">
        <ele>441.8</ele>
        <time>2014-05-01T09:12:45.000Z</time>
      </trkpt>
      <trkpt lat="47.49484" lon="6.70722">
        <ele>441.5</ele>
        <time>2014-05-01T09:12:46.000Z</time>
      </trkpt>
      <trkpt lat="47.49485" lon="6.70726">
        <ele>440.1</ele>
        <time>2014-05-01T09:12:47.000Z</time>
      </trkpt>
      <trkpt lat="47.49485" lon="6.7073">
        <ele>440.3</ele>
        <time>2014-05-01T09:12:48.000Z</time>
      </trkpt>
      <trkpt lat="47.49485" lon="6.70733">
        <ele>440.6</ele>
        <time>2014-05-01T09:12:49.000Z</time>
      </trkpt>
      <trkpt lat="47.49485" lon="6.7074">
        <ele>441.5</ele>
        <time>2014-05-01T09:12:51.000Z</time>
      </trkpt>
      <trkpt lat="47.49486" lon="6.70744">
        <ele>441.3</ele>
        <time>2014-05-01T09:12:52.000Z</time>
      </trkpt>
      <trkpt lat="47.49486" lon="6.7075">
        <ele>442</ele>
        <time>2014-05-01T09:12:54.000Z</time>
      </trkpt>
      <trkpt lat="47.49486" lon="6.70753">
        <ele>443.7</ele>
        <time>2014-05-01T09:12:55.000Z</time>
      </trkpt>
      <trkpt lat="47.49487" lon="6.70757">
        <ele>445</ele>
        <time>2014-05-01T09:12:56.000Z</time>
      </trkpt>
      <trkpt lat="47.49487" lon="6.7076">
        <ele>445.6</ele>
        <time>2014-05-01T09:12:57.000Z</time>
      </trkpt>
      <trkpt lat="47.49487" lon="6.70764">
        <ele>444.5</ele>
        <time>2014-05-01T09:12:58.000Z</time>
      </trkpt>
      <trkpt lat="47.49487" lon="6.70767">
        <ele>443.5</ele>
        <time>2014-05-01T09:12:59.000Z</time>
      </trkpt>
      <trkpt lat="47.49487" lon="6.70771">
        <ele>442.9</ele>
        <time>2014-05-01T09:13:00.000Z</time>
      </trkpt>
      <trkpt lat="47.49487" lon="6.70774">
        <ele>444.8</ele>
        <time>2014-05-01T09:13:01.000Z</time>
      </trkpt>
      <trkpt lat="47.49486" lon="6.7078">
        <ele>446.3</ele>
        <time>2014-05-01T09:13:03.000Z</time>
      </trkpt>
      <trkpt lat="47.49485" lon="6.70783">
        <ele>447.5</ele>
        <time>2014-05-01T09:13:04.000Z</time>
      </trkpt>
      <trkpt lat="47.49484" lon="6.70786">
        <ele>447.3</ele>
        <time>2014-05-01T09:13:05.000Z</time>
      </trkpt>
      <trkpt lat="47.49483" lon="6.70796">
        <ele>444.3</ele>
        <time>2014-05-01T09:13:08.000Z</time>
      </trkpt>
      <trkpt lat="47.4948" lon="6.708">
        <ele>450.4</ele>
        <time>2014-05-01T09:13:10.000Z</time>
      </trkpt>
      <trkpt lat="47.49478" lon="6.708">
        <ele>452.5</ele>
        <time>2014-05-01T09:13:11.000Z</time>
      </trkpt>
      <trkpt lat="47.49475" lon="6.70804">
        <ele>450.3</ele>
        <time>2014-05-01T09:13:13.000Z</time>
      </trkpt>
      <trkpt lat="47.49474" lon="6.70807">
        <ele>448.2</ele>
        <time>2014-05-01T09:13:14.000Z</time>
      </trkpt>
      <trkpt lat="47.49474" lon="6.70812">
        <ele>445.8</ele>
        <time>2014-05-01T09:13:15.000Z</time>
      </trkpt>
      <trkpt lat="47.49474" lon="6.70816">
        <ele>443.5</ele>
        <time>2014-05-01T09:13:16.000Z</time>
      </trkpt>
      <trkpt lat="47.49475" lon="6.70821">
        <ele>445.9</ele>
        <time>2014-05-01T09:13:17.000Z</time>
      </trkpt>
      <trkpt lat="47.49475" lon="6.70825">
        <ele>447.2</ele>
        <time>2014-05-01T09:13:18.000Z</time>
      </trkpt>
      <trkpt lat="47.49474" lon="6.70828">
        <ele>448.2</ele>
        <time>2014-05-01T09:13:19.000Z</time>
      </trkpt>
      <trkpt lat="47.49474" lon="6.70832">
        <ele>448.8</ele>
        <time>2014-05-01T09:13:20.000Z</time>
      </trkpt>
      <trkpt lat="47.49474" lon="6.70835">
        <ele>448.6</ele>
        <time>2014-05-01T09:13:21.000Z</time>
      </trkpt>
      <trkpt lat="47.49474" lon="6.70839">
        <ele>448.9</ele>
        <time>2014-05-01T09:13:22.000Z</time>
      </trkpt>
      <trkpt lat="47.49473" lon="6.70843">
        <ele>448.7</ele>
        <time>2014-05-01T09:13:23.000Z</time>
      </trkpt>
      <trkpt lat="47.49472" lon="6.70846">
        <ele>448.8</ele>
        <time>2014-05-01T09:13:24.000Z</time>
      </trkpt>
      <trkpt lat="47.49472" lon="6.70849">
        <ele>448.8</ele>
        <time>2014-05-01T09:13:25.000Z</time>
      </trkpt>
      <trkpt lat="47.49471" lon="6.70853">
        <ele>449.5</ele>
        <time>2014-05-01T09:13:26.000Z</time>
      </trkpt>
      <trkpt lat="47.49471" lon="6.70856">
        <ele>449.6</ele>
        <time>2014-05-01T09:13:27.000Z</time>
      </trkpt>
      <trkpt lat="47.4947" lon="6.7086">
        <ele>449.8</ele>
        <time>2014-05-01T09:13:28.000Z</time>
      </trkpt>
      <trkpt lat="47.4947" lon="6.70863">
        <ele>451</ele>
        <time>2014-05-01T09:13:29.000Z</time>
      </trkpt>
      <trkpt lat="47.49469" lon="6.70867">
        <ele>452.3</ele>
        <time>2014-05-01T09:13:30.000Z</time>
      </trkpt>
      <trkpt lat="47.49468" lon="6.70872">
        <ele>455.2</ele>
        <time>2014-05-01T09:13:32.000Z</time>
      </trkpt>
      <trkpt lat="47.49468" lon="6.70874">
        <ele>455.1</ele>
        <time>2014-05-01T09:13:33.000Z</time>
      </trkpt>
      <trkpt lat="47.49465" lon="6.70878">
        <ele>456.1</ele>
        <time>2014-05-01T09:13:35.000Z</time>
      </trkpt>
      <trkpt lat="47.49464" lon="6.7088">
        <ele>456.9</ele>
        <time>2014-05-01T09:13:36.001Z</time>
      </trkpt>
      <trkpt lat="47.49462" lon="6.70884">
        <ele>460.7</ele>
        <time>2014-05-01T09:13:38.000Z</time>
      </trkpt>
      <trkpt lat="47.4946" lon="6.70886">
        <ele>461.5</ele>
        <time>2014-05-01T09:13:39.000Z</time>
      </trkpt>
      <trkpt lat="47.49457" lon="6.7089">
        <ele>464.1</ele>
        <time>2014-05-01T09:13:41.000Z</time>
      </trkpt>
      <trkpt lat="47.49456" lon="6.70892">
        <ele>463.2</ele>
        <time>2014-05-01T09:13:42.000Z</time>
      </trkpt>
      <trkpt lat="47.49455" lon="6.70897">
        <ele>463.7</ele>
        <time>2014-05-01T09:13:44.000Z</time>
      </trkpt>
      <trkpt lat="47.49454" lon="6.70899">
        <ele>464.5</ele>
        <time>2014-05-01T09:13:45.000Z</time>
      </trkpt>
      <trkpt lat="47.49452" lon="6.70904">
        <ele>465.3</ele>
        <time>2014-05-01T09:13:47.000Z</time>
      </trkpt>
      <trkpt lat="47.49451" lon="6.70907">
        <ele>465.3</ele>
        <time>2014-05-01T09:13:47.999Z</time>
      </trkpt>
      <trkpt lat="47.4945" lon="6.70913">
        <ele>465.7</ele>
        <time>2014-05-01T09:13:50.000Z</time>
      </trkpt>
      <trkpt lat="47.4945" lon="6.70916">
        <ele>466</ele>
        <time>2014-05-01T09:13:51.000Z</time>
      </trkpt>
      <trkpt lat="47.4945" lon="6.7092">
        <ele>465.8</ele>
        <time>2014-05-01T09:13:52.000Z</time>
      </trkpt>
      <trkpt lat="47.4945" lon="6.70923">
        <ele>465.5</ele>
        <time>2014-05-01T09:13:53.000Z</time>
      </trkpt>
      <trkpt lat="47.4945" lon="6.70926">
        <ele>464.8</ele>
        <time>2014-05-01T09:13:54.000Z</time>
      </trkpt>
      <trkpt lat="47.4945" lon="6.7093">
        <ele>465.1</ele>
        <time>2014-05-01T09:13:55.000Z</time>
      </trkpt>
      <trkpt lat="47.49451" lon="6.70933">
        <ele>464.3</ele>
        <time>2014-05-01T09:13:56.000Z</time>
      </trkpt>
      <trkpt lat="47.49452" lon="6.70936">
        <ele>462.7</ele>
        <time>2014-05-01T09:13:57.000Z</time>
      </trkpt>
      <trkpt lat="47.49453" lon="6.70942">
        <ele>462.9</ele>
        <time>2014-05-01T09:13:59.000Z</time>
      </trkpt>
      <trkpt lat="47.49453" lon="6.70945">
        <ele>461.5</ele>
        <time>2014-05-01T09:14:00.000Z</time>
      </trkpt>
      <trkpt lat="47.49452" lon="6.70951">
        <ele>462.2</ele>
        <time>2014-05-01T09:14:02.000Z</time>
      </trkpt>
      <trkpt lat="47.49452" lon="6.70954">
        <ele>462</ele>
        <time>2014-05-01T09:14:03.000Z</time>
      </trkpt>
      <trkpt lat="47.49451" lon="6.70958">
        <ele>460.4</ele>
        <time>2014-05-01T09:14:04.000Z</time>
      </trkpt>
      <trkpt lat="47.49451" lon="6.70961">
        <ele>460.5</ele>
        <time>2014-05-01T09:14:04.999Z</time>
      </trkpt>
      <trkpt lat="47.49445" lon="6.70985">
        <ele>454.2</ele>
        <time>2014-05-01T09:14:13.000Z</time>
      </trkpt>
      <trkpt lat="47.49442" lon="6.70988">
        <ele>453.9</ele>
        <time>2014-05-01T09:14:14.000Z</time>
      </trkpt>
      <trkpt lat="47.49442" lon="6.70991">
        <ele>457.3</ele>
        <time>2014-05-01T09:14:14.999Z</time>
      </trkpt>
      <trkpt lat="47.49441" lon="6.70996">
        <ele>456.3</ele>
        <time>2014-05-01T09:14:17.000Z</time>
      </trkpt>
      <trkpt lat="47.4944" lon="6.70999">
        <ele>457.6</ele>
        <time>2014-05-01T09:14:18.000Z</time>
      </trkpt>
      <trkpt lat="47.49438" lon="6.71004">
        <ele>456.7</ele>
        <time>2014-05-01T09:14:20.000Z</time>
      </trkpt>
      <trkpt lat="47.49437" lon="6.71008">
        <ele>456.1</ele>
        <time>2014-05-01T09:14:21.000Z</time>
      </trkpt>
      <trkpt lat="47.49437" lon="6.71011">
        <ele>456</ele>
        <time>2014-05-01T09:14:22.000Z</time>
      </trkpt>
      <trkpt lat="47.49436" lon="6.71014">
        <ele>455.7</ele>
        <time>2014-05-01T09:14:23.000Z</time>
      </trkpt>
      <trkpt lat="47.49435" lon="6.7102">
        <ele>457.5</ele>
        <time>2014-05-01T09:14:25.000Z</time>
      </trkpt>
      <trkpt lat="47.49435" lon="6.71023">
        <ele>457.4</ele>
        <time>2014-05-01T09:14:26.000Z</time>
      </trkpt>
      <trkpt lat="47.49434" lon="6.71027">
        <ele>457.3</ele>
        <time>2014-05-01T09:14:27.000Z</time>
      </trkpt>
      <trkpt lat="47.49434" lon="6.7103">
        <ele>457.6</ele>
        <time>2014-05-01T09:14:28.000Z</time>
      </trkpt>
      <trkpt lat="47.49432" lon="6.71035">
        <ele>459.9</ele>
        <time>2014-05-01T09:14:30.000Z</time>
      </trkpt>
      <trkpt lat="47.49431" lon="6.71038">
        <ele>461</ele>
        <time>2014-05-01T09:14:30.999Z</time>
      </trkpt>
      <trkpt lat="47.49427" lon="6.71042">
        <ele>461.6</ele>
        <time>2014-05-01T09:14:33.000Z</time>
      </trkpt>
      <trkpt lat="47.49426" lon="6.71044">
        <ele>461.3</ele>
        <time>2014-05-01T09:14:34.000Z</time>
      </trkpt>
      <trkpt lat="47.49424" lon="6.71047">
        <ele>460.7</ele>
        <time>2014-05-01T09:14:35.000Z</time>
      </trkpt>
      <trkpt lat="47.49423" lon="6.7105">
        <ele>460.6</ele>
        <time>2014-05-01T09:14:36.000Z</time>
      </trkpt>
      <trkpt lat="47.49422" lon="6.71054">
        <ele>462.7</ele>
        <time>2014-05-01T09:14:37.000Z</time>
      </trkpt>
      <trkpt lat="47.49421" lon="6.71057">
        <ele>463.9</ele>
        <time>2014-05-01T09:14:38.000Z</time>
      </trkpt>
      <trkpt lat="47.49419" lon="6.71062">
        <ele>463.9</ele>
        <time>2014-05-01T09:14:40.000Z</time>
      </trkpt>
      <trkpt lat="47.49418" lon="6.71065">
        <ele>465.1</ele>
        <time>2014-05-01T09:14:41.000Z</time>
      </trkpt>
      <trkpt lat="47.49416" lon="6.71067">
        <ele>465.3</ele>
        <time>2014-05-01T09:14:42.000Z</time>
      </trkpt>
      <trkpt lat="47.49415" lon="6.7107">
        <ele>464</ele>
        <time>2014-05-01T09:14:43.000Z</time>
      </trkpt>
      <trkpt lat="47.49413" lon="6.71074">
        <ele>463.2</ele>
        <time>2014-05-01T09:14:44.000Z</time>
      </trkpt>
      <trkpt lat="47.49412" lon="6.71078">
        <ele>463</ele>
        <time>2014-05-01T09:14:45.000Z</time>
      </trkpt>
      <trkpt lat="47.49411" lon="6.71081">
        <ele>463.6</ele>
        <time>2014-05-01T09:14:46.000Z</time>
      </trkpt>
      <trkpt lat="47.4941" lon="6.71084">
        <ele>461.9</ele>
        <time>2014-05-01T09:14:47.000Z</time>
      </trkpt>
      <trkpt lat="47.49408" lon="6.7109">
        <ele>461.8</ele>
        <time>2014-05-01T09:14:49.000Z</time>
      </trkpt>
      <trkpt lat="47.49406" lon="6.71092">
        <ele>461.9</ele>
        <time>2014-05-01T09:14:50.000Z</time>
      </trkpt>
      <trkpt lat="47.49405" lon="6.71094">
        <ele>463.1</ele>
        <time>2014-05-01T09:14:51.000Z</time>
      </trkpt>
      <trkpt lat="47.49403" lon="6.71097">
        <ele>463.1</ele>
        <time>2014-05-01T09:14:52.000Z</time>
      </trkpt>
      <trkpt lat="47.49402" lon="6.711">
        <ele>462.5</ele>
        <time>2014-05-01T09:14:53.000Z</time>
      </trkpt>
      <trkpt lat="47.494" lon="6.71103">
        <ele>462.9</ele>
        <time>2014-05-01T09:14:54.000Z</time>
      </trkpt>
      <trkpt lat="47.49399" lon="6.71106">
        <ele>462.9</ele>
        <time>2014-05-01T09:14:55.000Z</time>
      </trkpt>
      <trkpt lat="47.49397" lon="6.71109">
        <ele>462.9</ele>
        <time>2014-05-01T09:14:56.000Z</time>
      </trkpt>
      <trkpt lat="47.49395" lon="6.71112">
        <ele>463.3</ele>
        <time>2014-05-01T09:14:57.000Z</time>
      </trkpt>
      <trkpt lat="47.49394" lon="6.71114">
        <ele>463.7</ele>
        <time>2014-05-01T09:14:58.000Z</time>
      </trkpt>
      <trkpt lat="47.49392" lon="6.71116">
        <ele>464.8</ele>
        <time>2014-05-01T09:14:59.000Z</time>
      </trkpt>
      <trkpt lat="47.49391" lon="6.71119">
        <ele>467.1</ele>
        <time>2014-05-01T09:15:00.000Z</time>
      </trkpt>
      <trkpt lat="47.49389" lon="6.71121">
        <ele>467.6</ele>
        <time>2014-05-01T09:15:01.000Z</time>
      </trkpt>
      <trkpt lat="47.49387" lon="6.71123">
        <ele>468.5</ele>
        <time>2014-05-01T09:15:02.000Z</time>
      </trkpt>
      <trkpt lat="47.49385" lon="6.71125">
        <ele>469.1</ele>
        <time>2014-05-01T09:15:02.999Z</time>
      </trkpt>
      <trkpt lat="47.49382" lon="6.71128">
        <ele>470.2</ele>
        <time>2014-05-01T09:15:04.000Z</time>
      </trkpt>
      <trkpt lat="47.49379" lon="6.71129">
        <ele>470.9</ele>
        <time>2014-05-01T09:15:05.000Z</time>
      </trkpt>
      <trkpt lat="47.49366" lon="6.71138">
        <ele>464.3</ele>
        <time>2014-05-01T09:15:13.000Z</time>
      </trkpt>
      <trkpt lat="47.49371" lon="6.71138">
        <ele>456.8</ele>
        <time>2014-05-01T09:16:14.000Z</time>
      </trkpt>
      <trkpt lat="47.49371" lon="6.71138">
        <ele>457.4</ele>
        <time>2014-05-01T09:16:15.000Z</time>
      </trkpt>
      <trkpt lat="47.49372" lon="6.71132">
        <ele>456.2</ele>
        <time>2014-05-01T09:17:27.000Z</time>
      </trkpt>
      <trkpt lat="47.49371" lon="6.71131">
        <ele>456</ele>
        <time>2014-05-01T09:17:28.000Z</time>
      </trkpt>
      <trkpt lat="47.49367" lon="6.71128">
        <ele>457.5</ele>
        <time>2014-05-01T09:17:45.000Z</time>
      </trkpt>
      <trkpt lat="47.49367" lon="6.71128">
        <ele>457.6</ele>
        <time>2014-05-01T09:17:46.000Z</time>
      </trkpt>
      <trkpt lat="47.49366" lon="6.71134">
        <ele>459.8</ele>
        <time>2014-05-01T09:18:43.000Z</time>
      </trkpt>
      <trkpt lat="47.49367" lon="6.71136">
        <ele>459</ele>
        <time>2014-05-01T09:18:44.000Z</time>
      </trkpt>
      <trkpt lat="47.49369" lon="6.71141">
        <ele>459.3</ele>
        <time>2014-05-01T09:18:46.000Z</time>
      </trkpt>
      <trkpt lat="47.4937" lon="6.71144">
        <ele>460</ele>
        <time>2014-05-01T09:18:47.000Z</time>
      </trkpt>
      <trkpt lat="47.4937" lon="6.71149">
        <ele>460.1</ele>
        <time>2014-05-01T09:18:48.000Z</time>
      </trkpt>
      <trkpt lat="47.49371" lon="6.71152">
        <ele>460.2</ele>
        <time>2014-05-01T09:18:49.000Z</time>
      </trkpt>
      <trkpt lat="47.49371" lon="6.71157">
        <ele>460.6</ele>
        <time>2014-05-01T09:18:50.000Z</time>
      </trkpt>
      <trkpt lat="47.49371" lon="6.71162">
        <ele>460.5</ele>
        <time>2014-05-01T09:18:51.000Z</time>
      </trkpt>
      <trkpt lat="47.49372" lon="6.71166">
        <ele>460.5</ele>
        <time>2014-05-01T09:18:52.000Z</time>
      </trkpt>
      <trkpt lat="47.49372" lon="6.71171">
        <ele>460.4</ele>
        <time>2014-05-01T09:18:53.000Z</time>
      </trkpt>
      <trkpt lat="47.49373" lon="6.71175">
        <ele>460.1</ele>
        <time>2014-05-01T09:18:54.000Z</time>
      </trkpt>
      <trkpt lat="47.49373" lon="6.71179">
        <ele>457.3</ele>
        <time>2014-05-01T09:18:55.000Z</time>
      </trkpt>
      <trkpt lat="47.49375" lon="6.71184">
        <ele>456.3</ele>
        <time>2014-05-01T09:18:56.000Z</time>
      </trkpt>
      <trkpt lat="47.49376" lon="6.71188">
        <ele>458.4</ele>
        <time>2014-05-01T09:18:57.000Z</time>
      </trkpt>
      <trkpt lat="47.49377" lon="6.71192">
        <ele>459.4</ele>
        <time>2014-05-01T09:18:58.000Z</time>
      </trkpt>
      <trkpt lat="47.49378" lon="6.71195">
        <ele>460.3</ele>
        <time>2014-05-01T09:18:59.000Z</time>
      </trkpt>
      <trkpt lat="47.4938" lon="6.712">
        <ele>458.9</ele>
        <time>2014-05-01T09:19:00.000Z</time>
      </trkpt>
      <trkpt lat="47.4938" lon="6.71205">
        <ele>458.6</ele>
        <time>2014-05-01T09:19:01.000Z</time>
      </trkpt>
      <trkpt lat="47.49381" lon="6.7121">
        <ele>459.3</ele>
        <time>2014-05-01T09:19:02.000Z</time>
      </trkpt>
      <trkpt lat="47.49382" lon="6.71216">
        <ele>459.9</ele>
        <time>2014-05-01T09:19:03.000Z</time>
      </trkpt>
      <trkpt lat="47.49383" lon="6.71221">
        <ele>460.5</ele>
        <time>2014-05-01T09:19:04.000Z</time>
      </trkpt>
      <trkpt lat="47.49384" lon="6.71227">
        <ele>461</ele>
        <time>2014-05-01T09:19:05.000Z</time>
      </trkpt>
      <trkpt lat="47.49386" lon="6.71257">
        <ele>473.2</ele>
        <time>2014-05-01T09:19:13.000Z</time>
      </trkpt>
      <trkpt lat="47.49387" lon="6.71262">
        <ele>471.8</ele>
        <time>2014-05-01T09:19:14.000Z</time>
      </trkpt>
      <trkpt lat="47.49389" lon="6.71283">
        <ele>466.9</ele>
        <time>2014-05-01T09:19:15.000Z</time>
      </trkpt>
      <trkpt lat="47.49388" lon="6.71295">
        <ele>465.5</ele>
        <time>2014-05-01T09:19:16.000Z</time>
      </trkpt>
      <trkpt lat="47.49387" lon="6.71303">
        <ele>464.3</ele>
        <time>2014-05-01T09:19:17.000Z</time>
      </trkpt>
      <trkpt lat="47.49388" lon="6.71312">
        <ele>464.6</ele>
        <time>2014-05-01T09:19:18.000Z</time>
      </trkpt>
      <trkpt lat="47.49389" lon="6.71318">
        <ele>464.3</ele>
        <time>2014-05-01T09:19:19.000Z</time>
      </trkpt>
      <trkpt lat="47.49394" lon="6.71328">
        <ele>461</ele>
        <time>2014-05-01T09:19:20.000Z</time>
      </trkpt>
      <trkpt lat="47.49396" lon="6.71334">
        <ele>460.4</ele>
        <time>2014-05-01T09:19:21.000Z</time>
      </trkpt>
      <trkpt lat="47.49398" lon="6.71339">
        <ele>462</ele>
        <time>2014-05-01T09:19:22.000Z</time>
      </trkpt>
      <trkpt lat="47.49402" lon="6.71345">
        <ele>462.4</ele>
        <time>2014-05-01T09:19:23.000Z</time>
      </trkpt>
      <trkpt lat="47.49405" lon="6.71351">
        <ele>462.9</ele>
        <time>2014-05-01T09:19:24.000Z</time>
      </trkpt>
      <trkpt lat="47.49405" lon="6.71355">
        <ele>464.1</ele>
        <time>2014-05-01T09:19:25.000Z</time>
      </trkpt>
      <trkpt lat="47.49406" lon="6.71359">
        <ele>463.8</ele>
        <time>2014-05-01T09:19:26.000Z</time>
      </trkpt>
      <trkpt lat="47.49406" lon="6.71366">
        <ele>468</ele>
        <time>2014-05-01T09:19:27.000Z</time>
      </trkpt>
      <trkpt lat="47.49405" lon="6.71369">
        <ele>470.9</ele>
        <time>2014-05-01T09:19:28.000Z</time>
      </trkpt>
      <trkpt lat="47.49406" lon="6.71373">
        <ele>471.3</ele>
        <time>2014-05-01T09:19:29.000Z</time>
      </trkpt>
      <trkpt lat="47.49411" lon="6.71376">
        <ele>462.8</ele>
        <time>2014-05-01T09:19:30.000Z</time>
      </trkpt>
      <trkpt lat="47.49411" lon="6.71382">
        <ele>460</ele>
        <time>2014-05-01T09:19:32.000Z</time>
      </trkpt>
      <trkpt lat="47.4941" lon="6.71389">
        <ele>459.2</ele>
        <time>2014-05-01T09:19:33.000Z</time>
      </trkpt>
      <trkpt lat="47.49408" lon="6.71394">
        <ele>457.7</ele>
        <time>2014-05-01T09:19:34.000Z</time>
      </trkpt>
      <trkpt lat="47.49407" lon="6.71398">
        <ele>460</ele>
        <time>2014-05-01T09:19:35.000Z</time>
      </trkpt>
      <trkpt lat="47.49406" lon="6.71401">
        <ele>461.1</ele>
        <time>2014-05-01T09:19:36.000Z</time>
      </trkpt>
      <trkpt lat="47.49406" lon="6.71405">
        <ele>461.5</ele>
        <time>2014-05-01T09:19:37.000Z</time>
      </trkpt>
      <trkpt lat="47.49408" lon="6.7141">
        <ele>462.4</ele>
        <time>2014-05-01T09:19:38.000Z</time>
      </trkpt>
      <trkpt lat="47.49409" lon="6.71413">
        <ele>462.7</ele>
        <time>2014-05-01T09:19:39.000Z</time>
      </trkpt>
      <trkpt lat="47.49411" lon="6.71417">
        <ele>460.2</ele>
        <time>2014-05-01T09:19:40.000Z</time>
      </trkpt>
      <trkpt lat="47.49412" lon="6.71422">
        <ele>458.1</ele>
        <time>2014-05-01T09:19:41.000Z</time>
      </trkpt>
      <trkpt lat="47.49412" lon="6.71426">
        <ele>458.6</ele>
        <time>2014-05-01T09:19:42.000Z</time>
      </trkpt>
      <trkpt lat="47.49412" lon="6.71429">
        <ele>458.8</ele>
        <time>2014-05-01T09:19:43.000Z</time>
      </trkpt>
      <trkpt lat="47.49411" lon="6.71435">
        <ele>458.4</ele>
        <time>2014-05-01T09:19:45.000Z</time>
      </trkpt>
      <trkpt lat="47.49411" lon="6.7144">
        <ele>458.8</ele>
        <time>2014-05-01T09:19:46.000Z</time>
      </trkpt>
      <trkpt lat="47.49411" lon="6.71443">
        <ele>458.4</ele>
        <time>2014-05-01T09:19:46.999Z</time>
      </trkpt>
      <trkpt lat="47.49412" lon="6.7145">
        <ele>460.7</ele>
        <time>2014-05-01T09:19:48.000Z</time>
      </trkpt>
      <trkpt lat="47.49412" lon="6.71454">
        <ele>461.3</ele>
        <time>2014-05-01T09:19:49.000Z</time>
      </trkpt>
      <trkpt lat="47.49413" lon="6.71458">
        <ele>462.3</ele>
        <time>2014-05-01T09:19:50.000Z</time>
      </trkpt>
      <trkpt lat="47.49414" lon="6.71462">
        <ele>462.9</ele>
        <time>2014-05-01T09:19:50.999Z</time>
      </trkpt>
      <trkpt lat="47.49414" lon="6.71466">
        <ele>461.8</ele>
        <time>2014-05-01T09:19:52.000Z</time>
      </trkpt>
      <trkpt lat="47.49415" lon="6.71469">
        <ele>462.3</ele>
        <time>2014-05-01T09:19:53.000Z</time>
      </trkpt>
      <trkpt lat="47.49415" lon="6.71472">
        <ele>468.2</ele>
        <time>2014-05-01T09:19:54.000Z</time>
      </trkpt>
      <trkpt lat="47.49414" lon="6.71478">
        <ele>468.2</ele>
        <time>2014-05-01T09:19:56.000Z</time>
      </trkpt>
      <trkpt lat="47.49413" lon="6.71482">
        <ele>467.8</ele>
        <time>2014-05-01T09:19:57.000Z</time>
      </trkpt>
      <trkpt lat="47.49412" lon="6.71487">
        <ele>466.7</ele>
        <time>2014-05-01T09:19:58.000Z</time>
      </trkpt>
      <trkpt lat="47.49412" lon="6.71491">
        <ele>472.3</ele>
        <time>2014-05-01T09:19:59.000Z</time>
      </trkpt>
      <trkpt lat="47.49411" lon="6.71497">
        <ele>473.3</ele>
        <time>2014-05-01T09:20:01.000Z</time>
      </trkpt>
      <trkpt lat="47.4941" lon="6.71499">
        <ele>473.5</ele>
        <time>2014-05-01T09:20:02.000Z</time>
      </trkpt>
      <trkpt lat="47.49409" lon="6.71502">
        <ele>473.3</ele>
        <time>2014-05-01T09:20:03.000Z</time>
      </trkpt>
      <trkpt lat="47.49407" lon="6.71505">
        <ele>473.6</ele>
        <time>2014-05-01T09:20:04.000Z</time>
      </trkpt>
      <trkpt lat="47.49406" lon="6.71508">
        <ele>474.1</ele>
        <time>2014-05-01T09:20:05.000Z</time>
      </trkpt>
      <trkpt lat="47.49402" lon="6.71516">
        <ele>469.7</ele>
        <time>2014-05-01T09:20:08.000Z</time>
      </trkpt>
      <trkpt lat="47.49402" lon="6.71521">
        <ele>469.5</ele>
        <time>2014-05-01T09:20:09.000Z</time>
      </trkpt>
      <trkpt lat="47.49403" lon="6.71528">
        <ele>467.5</ele>
        <time>2014-05-01T09:20:09.999Z</time>
      </trkpt>
      <trkpt lat="47.49404" lon="6.71534">
        <ele>467.3</ele>
        <time>2014-05-01T09:20:11.001Z</time>
      </trkpt>
      <trkpt lat="47.49408" lon="6.71543">
        <ele>465.6</ele>
        <time>2014-05-01T09:20:12.001Z</time>
      </trkpt>
      <trkpt lat="47.4941" lon="6.71549">
        <ele>469.4</ele>
        <time>2014-05-01T09:20:13.000Z</time>
      </trkpt>
      <trkpt lat="47.49412" lon="6.71554">
        <ele>471</ele>
        <time>2014-05-01T09:20:14.000Z</time>
      </trkpt>
      <trkpt lat="47.49414" lon="6.7156">
        <ele>470.7</ele>
        <time>2014-05-01T09:20:15.000Z</time>
      </trkpt>
      <trkpt lat="47.49415" lon="6.71566">
        <ele>469.4</ele>
        <time>2014-05-01T09:20:16.000Z</time>
      </trkpt>
      <trkpt lat="47.49416" lon="6.71571">
        <ele>468.4</ele>
        <time>2014-05-01T09:20:17.000Z</time>
      </trkpt>
      <trkpt lat="47.49417" lon="6.71579">
        <ele>465.6</ele>
        <time>2014-05-01T09:20:18.000Z</time>
      </trkpt>
      <trkpt lat="47.49418" lon="6.71588">
        <ele>465.1</ele>
        <time>2014-05-01T09:20:19.000Z</time>
      </trkpt>
      <trkpt lat="47.49418" lon="6.71596">
        <ele>465.8</ele>
        <time>2014-05-01T09:20:20.000Z</time>
      </trkpt>
      <trkpt lat="47.49418" lon="6.71604">
        <ele>465.5</ele>
        <time>2014-05-01T09:20:21.000Z</time>
      </trkpt>
      <trkpt lat="47.49419" lon="6.71613">
        <ele>466.4</ele>
        <time>2014-05-01T09:20:22.000Z</time>
      </trkpt>
      <trkpt lat="47.49419" lon="6.71621">
        <ele>465.9</ele>
        <time>2014-05-01T09:20:23.000Z</time>
      </trkpt>
      <trkpt lat="47.4942" lon="6.71629">
        <ele>467.5</ele>
        <time>2014-05-01T09:20:24.000Z</time>
      </trkpt>
      <trkpt lat="47.49419" lon="6.71636">
        <ele>467</ele>
        <time>2014-05-01T09:20:25.000Z</time>
      </trkpt>
      <trkpt lat="47.49419" lon="6.71644">
        <ele>466.3</ele>
        <time>2014-05-01T09:20:26.000Z</time>
      </trkpt>
      <trkpt lat="47.49418" lon="6.71651">
        <ele>465.6</ele>
        <time>2014-05-01T09:20:27.000Z</time>
      </trkpt>
      <trkpt lat="47.49418" lon="6.71659">
        <ele>465.7</ele>
        <time>2014-05-01T09:20:28.000Z</time>
      </trkpt>
      <trkpt lat="47.49418" lon="6.71667">
        <ele>465.2</ele>
        <time>2014-05-01T09:20:29.000Z</time>
      </trkpt>
      <trkpt lat="47.49419" lon="6.71675">
        <ele>463.8</ele>
        <time>2014-05-01T09:20:30.000Z</time>
      </trkpt>
      <trkpt lat="47.4942" lon="6.71683">
        <ele>462.7</ele>
        <time>2014-05-01T09:20:31.000Z</time>
      </trkpt>
      <trkpt lat="47.4942" lon="6.7169">
        <ele>462.9</ele>
        <time>2014-05-01T09:20:32.000Z</time>
      </trkpt>
      <trkpt lat="47.49421" lon="6.71697">
        <ele>462.5</ele>
        <time>2014-05-01T09:20:33.000Z</time>
      </trkpt>
      <trkpt lat="47.49421" lon="6.71704">
        <ele>463.2</ele>
        <time>2014-05-01T09:20:34.000Z</time>
      </trkpt>
      <trkpt lat="47.49421" lon="6.71711">
        <ele>460.3</ele>
        <time>2014-05-01T09:20:35.000Z</time>
      </trkpt>
      <trkpt lat="47.49421" lon="6.71717">
        <ele>458.5</ele>
        <time>2014-05-01T09:20:36.000Z</time>
      </trkpt>
      <trkpt lat="47.49421" lon="6.71723">
        <ele>457.8</ele>
        <time>2014-05-01T09:20:37.000Z</time>
      </trkpt>
      <trkpt lat="47.49421" lon="6.71728">
        <ele>456.4</ele>
        <time>2014-05-01T09:20:38.000Z</time>
      </trkpt>
      <trkpt lat="47.49421" lon="6.71732">
        <ele>455.3</ele>
        <time>2014-05-01T09:20:39.000Z</time>
      </trkpt>
      <trkpt lat="47.49422" lon="6.71737">
        <ele>453.5</ele>
        <time>2014-05-01T09:20:40.000Z</time>
      </trkpt>
      <trkpt lat="47.49423" lon="6.71741">
        <ele>453.1</ele>
        <time>2014-05-01T09:20:41.000Z</time>
      </trkpt>
      <trkpt lat="47.49424" lon="6.71744">
        <ele>454</ele>
        <time>2014-05-01T09:20:42.000Z</time>
      </trkpt>
      <trkpt lat="47.49426" lon="6.71749">
        <ele>454.6</ele>
        <time>2014-05-01T09:20:44.000Z</time>
      </trkpt>
      <trkpt lat="47.49427" lon="6.71753">
        <ele>454.6</ele>
        <time>2014-05-01T09:20:45.000Z</time>
      </trkpt>
      <trkpt lat="47.49428" lon="6.71756">
        <ele>455</ele>
        <time>2014-05-01T09:20:46.000Z</time>
      </trkpt>
      <trkpt lat="47.49428" lon="6.7176">
        <ele>455.4</ele>
        <time>2014-05-01T09:20:47.000Z</time>
      </trkpt>
      <trkpt lat="47.49429" lon="6.71763">
        <ele>456</ele>
        <time>2014-05-01T09:20:48.000Z</time>
      </trkpt>
      <trkpt lat="47.49429" lon="6.71767">
        <ele>456.6</ele>
        <time>2014-05-01T09:20:49.000Z</time>
      </trkpt>
      <trkpt lat="47.49429" lon="6.7177">
        <ele>456.8</ele>
        <time>2014-05-01T09:20:50.000Z</time>
      </trkpt>
      <trkpt lat="47.49429" lon="6.71774">
        <ele>457.5</ele>
        <time>2014-05-01T09:20:51.000Z</time>
      </trkpt>
      <trkpt lat="47.4943" lon="6.71777">
        <ele>458.5</ele>
        <time>2014-05-01T09:20:51.999Z</time>
      </trkpt>
      <trkpt lat="47.4943" lon="6.71781">
        <ele>457.5</ele>
        <time>2014-05-01T09:20:53.000Z</time>
      </trkpt>
      <trkpt lat="47.4943" lon="6.71784">
        <ele>456.9</ele>
        <time>2014-05-01T09:20:54.000Z</time>
      </trkpt>
      <trkpt lat="47.49429" lon="6.71789">
        <ele>458.1</ele>
        <time>2014-05-01T09:20:55.000Z</time>
      </trkpt>
      <trkpt lat="47.49429" lon="6.71793">
        <ele>459.6</ele>
        <time>2014-05-01T09:20:56.000Z</time>
      </trkpt>
      <trkpt lat="47.49428" lon="6.71797">
        <ele>458</ele>
        <time>2014-05-01T09:20:57.000Z</time>
      </trkpt>
      <trkpt lat="47.49427" lon="6.71802">
        <ele>458.2</ele>
        <time>2014-05-01T09:20:58.000Z</time>
      </trkpt>
      <trkpt lat="47.49426" lon="6.71806">
        <ele>459.4</ele>
        <time>2014-05-01T09:20:59.000Z</time>
      </trkpt>
      <trkpt lat="47.49424" lon="6.7181">
        <ele>460.6</ele>
        <time>2014-05-01T09:21:00.000Z</time>
      </trkpt>
      <trkpt lat="47.49422" lon="6.71813">
        <ele>461.8</ele>
        <time>2014-05-01T09:21:01.000Z</time>
      </trkpt>
      <trkpt lat="47.4942" lon="6.71816">
        <ele>462.7</ele>
        <time>2014-05-01T09:21:02.000Z</time>
      </trkpt>
      <trkpt lat="47.49417" lon="6.71819">
        <ele>458.7</ele>
        <time>2014-05-01T09:21:03.000Z</time>
      </trkpt>
      <trkpt lat="47.49415" lon="6.71821">
        <ele>458.6</ele>
        <time>2014-05-01T09:21:04.000Z</time>
      </trkpt>
      <trkpt lat="47.49413" lon="6.71824">
        <ele>458.9</ele>
        <time>2014-05-01T09:21:05.001Z</time>
      </trkpt>
      <trkpt lat="47.49404" lon="6.71859">
        <ele>449.1</ele>
        <time>2014-05-01T09:21:13.000Z</time>
      </trkpt>
      <trkpt lat="47.49404" lon="6.71864">
        <ele>445.4</ele>
        <time>2014-05-01T09:21:14.000Z</time>
      </trkpt>
      <trkpt lat="47.49404" lon="6.71869">
        <ele>442.4</ele>
        <time>2014-05-01T09:21:15.000Z</time>
      </trkpt>
      <trkpt lat="47.49404" lon="6.71875">
        <ele>438.8</ele>
        <time>2014-05-01T09:21:16.000Z</time>
      </trkpt>
      <trkpt lat="47.49405" lon="6.71881">
        <ele>440.7</ele>
        <time>2014-05-01T09:21:17.000Z</time>
      </trkpt>
      <trkpt lat="47.49406" lon="6.71887">
        <ele>442.4</ele>
        <time>2014-05-01T09:21:18.000Z</time>
      </trkpt>
      <trkpt lat="47.49406" lon="6.71892">
        <ele>442.6</ele>
        <time>2014-05-01T09:21:19.000Z</time>
      </trkpt>
      <trkpt lat="47.49407" lon="6.71897">
        <ele>441.6</ele>
        <time>2014-05-01T09:21:20.000Z</time>
      </trkpt>
      <trkpt lat="47.49407" lon="6.71902">
        <ele>443.3</ele>
        <time>2014-05-01T09:21:21.000Z</time>
      </trkpt>
      <trkpt lat="47.49407" lon="6.71907">
        <ele>444.5</ele>
        <time>2014-05-01T09:21:22.000Z</time>
      </trkpt>
      <trkpt lat="47.49407" lon="6.71912">
        <ele>444.8</ele>
        <time>2014-05-01T09:21:23.000Z</time>
      </trkpt>
      <trkpt lat="47.49406" lon="6.7192">
        <ele>445.7</ele>
        <time>2014-05-01T09:21:24.000Z</time>
      </trkpt>
      <trkpt lat="47.49404" lon="6.71926">
        <ele>445</ele>
        <time>2014-05-01T09:21:25.000Z</time>
      </trkpt>
      <trkpt lat="47.49402" lon="6.7193">
        <ele>444.2</ele>
        <time>2014-05-01T09:21:26.000Z</time>
      </trkpt>
      <trkpt lat="47.49401" lon="6.71935">
        <ele>442.6</ele>
        <time>2014-05-01T09:21:27.000Z</time>
      </trkpt>
      <trkpt lat="47.49401" lon="6.7194">
        <ele>441.1</ele>
        <time>2014-05-01T09:21:28.000Z</time>
      </trkpt>
      <trkpt lat="47.49401" lon="6.71946">
        <ele>440.1</ele>
        <time>2014-05-01T09:21:29.000Z</time>
      </trkpt>
      <trkpt lat="47.49399" lon="6.71953">
        <ele>438.7</ele>
        <time>2014-05-01T09:21:30.000Z</time>
      </trkpt>
      <trkpt lat="47.49398" lon="6.71959">
        <ele>436</ele>
        <time>2014-05-01T09:21:31.000Z</time>
      </trkpt>
      <trkpt lat="47.49397" lon="6.71966">
        <ele>435</ele>
        <time>2014-05-01T09:21:32.000Z</time>
      </trkpt>
      <trkpt lat="47.49396" lon="6.71972">
        <ele>434.8</ele>
        <time>2014-05-01T09:21:33.000Z</time>
      </trkpt>
      <trkpt lat="47.49395" lon="6.71978">
        <ele>434</ele>
        <time>2014-05-01T09:21:34.000Z</time>
      </trkpt>
      <trkpt lat="47.49393" lon="6.71983">
        <ele>432.9</ele>
        <time>2014-05-01T09:21:35.000Z</time>
      </trkpt>
      <trkpt lat="47.49391" lon="6.71989">
        <ele>432.3</ele>
        <time>2014-05-01T09:21:36.000Z</time>
      </trkpt>
      <trkpt lat="47.4939" lon="6.71994">
        <ele>433.3</ele>
        <time>2014-05-01T09:21:37.000Z</time>
      </trkpt>
      <trkpt lat="47.49389" lon="6.72">
        <ele>433.5</ele>
        <time>2014-05-01T09:21:38.000Z</time>
      </trkpt>
      <trkpt lat="47.49388" lon="6.72006">
        <ele>434.1</ele>
        <time>2014-05-01T09:21:39.000Z</time>
      </trkpt>
      <trkpt lat="47.49388" lon="6.72012">
        <ele>434.3</ele>
        <time>2014-05-01T09:21:40.000Z</time>
      </trkpt>
      <trkpt lat="47.49388" lon="6.72018">
        <ele>434.5</ele>
        <time>2014-05-01T09:21:41.000Z</time>
      </trkpt>
      <trkpt lat="47.49387" lon="6.72024">
        <ele>435</ele>
        <time>2014-05-01T09:21:42.000Z</time>
      </trkpt>
      <trkpt lat="47.49387" lon="6.7203">
        <ele>433.8</ele>
        <time>2014-05-01T09:21:43.000Z</time>
      </trkpt>
      <trkpt lat="47.49386" lon="6.72036">
        <ele>434.1</ele>
        <time>2014-05-01T09:21:44.000Z</time>
      </trkpt>
      <trkpt lat="47.49386" lon="6.72042">
        <ele>432.1</ele>
        <time>2014-05-01T09:21:45.000Z</time>
      </trkpt>
      <trkpt lat="47.49386" lon="6.72048">
        <ele>429.8</ele>
        <time>2014-05-01T09:21:46.000Z</time>
      </trkpt>
      <trkpt lat="47.49386" lon="6.72054">
        <ele>429.2</ele>
        <time>2014-05-01T09:21:47.000Z</time>
      </trkpt>
      <trkpt lat="47.49387" lon="6.72061">
        <ele>433.4</ele>
        <time>2014-05-01T09:21:48.000Z</time>
      </trkpt>
      <trkpt lat="47.49387" lon="6.72067">
        <ele>435.4</ele>
        <time>2014-05-01T09:21:49.000Z</time>
      </trkpt>
      <trkpt lat="47.49386" lon="6.72073">
        <ele>436.6</ele>
        <time>2014-05-01T09:21:50.000Z</time>
      </trkpt>
      <trkpt lat="47.49385" lon="6.72078">
        <ele>438.1</ele>
        <time>2014-05-01T09:21:51.000Z</time>
      </trkpt>
      <trkpt lat="47.49384" lon="6.72084">
        <ele>437.2</ele>
        <time>2014-05-01T09:21:52.000Z</time>
      </trkpt>
      <trkpt lat="47.49382" lon="6.7209">
        <ele>435.7</ele>
        <time>2014-05-01T09:21:53.000Z</time>
      </trkpt>
      <trkpt lat="47.4938" lon="6.72094">
        <ele>434.6</ele>
        <time>2014-05-01T09:21:54.000Z</time>
      </trkpt>
      <trkpt lat="47.49379" lon="6.72099">
        <ele>435.3</ele>
        <time>2014-05-01T09:21:55.000Z</time>
      </trkpt>
      <trkpt lat="47.49377" lon="6.72103">
        <ele>435.7</ele>
        <time>2014-05-01T09:21:56.000Z</time>
      </trkpt>
      <trkpt lat="47.49375" lon="6.72107">
        <ele>433.5</ele>
        <time>2014-05-01T09:21:57.000Z</time>
      </trkpt>
      <trkpt lat="47.49373" lon="6.72112">
        <ele>432.9</ele>
        <time>2014-05-01T09:21:58.000Z</time>
      </trkpt>
      <trkpt lat="47.49372" lon="6.72117">
        <ele>429.5</ele>
        <time>2014-05-01T09:21:59.000Z</time>
      </trkpt>
      <trkpt lat="47.49371" lon="6.72123">
        <ele>428.6</ele>
        <time>2014-05-01T09:22:00.000Z</time>
      </trkpt>
      <trkpt lat="47.49371" lon="6.72129">
        <ele>426.9</ele>
        <time>2014-05-01T09:22:01.000Z</time>
      </trkpt>
      <trkpt lat="47.49371" lon="6.72135">
        <ele>425.9</ele>
        <time>2014-05-01T09:22:02.000Z</time>
      </trkpt>
      <trkpt lat="47.49371" lon="6.72141">
        <ele>425.4</ele>
        <time>2014-05-01T09:22:03.000Z</time>
      </trkpt>
      <trkpt lat="47.49371" lon="6.72148">
        <ele>424</ele>
        <time>2014-05-01T09:22:04.000Z</time>
      </trkpt>
      <trkpt lat="47.49371" lon="6.72154">
        <ele>423.8</ele>
        <time>2014-05-01T09:22:05.000Z</time>
      </trkpt>
      <trkpt lat="47.49368" lon="6.72173">
        <ele>422.4</ele>
        <time>2014-05-01T09:22:08.000Z</time>
      </trkpt>
      <trkpt lat="47.49368" lon="6.7218">
        <ele>426.3</ele>
        <time>2014-05-01T09:22:09.000Z</time>
      </trkpt>
      <trkpt lat="47.49366" lon="6.72189">
        <ele>425.7</ele>
        <time>2014-05-01T09:22:10.000Z</time>
      </trkpt>
      <trkpt lat="47.49364" lon="6.72196">
        <ele>425.3</ele>
        <time>2014-05-01T09:22:11.000Z</time>
      </trkpt>
      <trkpt lat="47.49361" lon="6.72203">
        <ele>426.5</ele>
        <time>2014-05-01T09:22:12.000Z</time>
      </trkpt>
      <trkpt lat="47.49359" lon="6.72209">
        <ele>426.2</ele>
        <time>2014-05-01T09:22:13.000Z</time>
      </trkpt>
      <trkpt lat="47.4936" lon="6.72227">
        <ele>420.6</ele>
        <time>2014-05-01T09:22:14.000Z</time>
      </trkpt>
      <trkpt lat="47.49358" lon="6.72236">
        <ele>417.4</ele>
        <time>2014-05-01T09:22:15.000Z</time>
      </trkpt>
      <trkpt lat="47.49355" lon="6.72246">
        <ele>414.9</ele>
        <time>2014-05-01T09:22:16.000Z</time>
      </trkpt>
      <trkpt lat="47.49352" lon="6.72254">
        <ele>414.8</ele>
        <time>2014-05-01T09:22:17.000Z</time>
      </trkpt>
      <trkpt lat="47.4935" lon="6.7226">
        <ele>415.4</ele>
        <time>2014-05-01T09:22:18.000Z</time>
      </trkpt>
      <trkpt lat="47.49347" lon="6.72266">
        <ele>415.6</ele>
        <time>2014-05-01T09:22:19.000Z</time>
      </trkpt>
      <trkpt lat="47.49345" lon="6.72272">
        <ele>416.2</ele>
        <time>2014-05-01T09:22:20.000Z</time>
      </trkpt>
      <trkpt lat="47.49344" lon="6.72279">
        <ele>419</ele>
        <time>2014-05-01T09:22:21.000Z</time>
      </trkpt>
      <trkpt lat="47.4934" lon="6.72284">
        <ele>420.4</ele>
        <time>2014-05-01T09:22:22.000Z</time>
      </trkpt>
      <trkpt lat="47.49338" lon="6.7229">
        <ele>421.8</ele>
        <time>2014-05-01T09:22:23.000Z</time>
      </trkpt>
      <trkpt lat="47.49333" lon="6.72294">
        <ele>421.2</ele>
        <time>2014-05-01T09:22:24.000Z</time>
      </trkpt>
      <trkpt lat="47.4933" lon="6.72299">
        <ele>420.4</ele>
        <time>2014-05-01T09:22:25.000Z</time>
      </trkpt>
      <trkpt lat="47.49328" lon="6.72299">
        <ele>423.3</ele>
        <time>2014-05-01T09:22:26.000Z</time>
      </trkpt>
      <trkpt lat="47.49327" lon="6.72304">
        <ele>424.2</ele>
        <time>2014-05-01T09:22:27.000Z</time>
      </trkpt>
      <trkpt lat="47.49326" lon="6.72309">
        <ele>424.3</ele>
        <time>2014-05-01T09:22:28.000Z</time>
      </trkpt>
      <trkpt lat="47.49326" lon="6.72314">
        <ele>425.2</ele>
        <time>2014-05-01T09:22:29.000Z</time>
      </trkpt>
      <trkpt lat="47.49326" lon="6.72319">
        <ele>425.2</ele>
        <time>2014-05-01T09:22:30.000Z</time>
      </trkpt>
      <trkpt lat="47.49325" lon="6.72324">
        <ele>425.5</ele>
        <time>2014-05-01T09:22:31.000Z</time>
      </trkpt>
      <trkpt lat="47.49326" lon="6.7233">
        <ele>424.8</ele>
        <time>2014-05-01T09:22:32.000Z</time>
      </trkpt>
      <trkpt lat="47.49329" lon="6.72335">
        <ele>432</ele>
        <time>2014-05-01T09:22:33.000Z</time>
      </trkpt>
      <trkpt lat="47.49332" lon="6.72344">
        <ele>432.8</ele>
        <time>2014-05-01T09:22:34.000Z</time>
      </trkpt>
      <trkpt lat="47.49333" lon="6.72351">
        <ele>433.2</ele>
        <time>2014-05-01T09:22:35.000Z</time>
      </trkpt>
      <trkpt lat="47.49333" lon="6.72358">
        <ele>434.3</ele>
        <time>2014-05-01T09:22:36.000Z</time>
      </trkpt>
      <trkpt lat="47.49333" lon="6.72364">
        <ele>435.4</ele>
        <time>2014-05-01T09:22:37.000Z</time>
      </trkpt>
      <trkpt lat="47.49334" lon="6.72371">
        <ele>435.1</ele>
        <time>2014-05-01T09:22:38.000Z</time>
      </trkpt>
      <trkpt lat="47.49334" lon="6.72378">
        <ele>433.4</ele>
        <time>2014-05-01T09:22:39.000Z</time>
      </trkpt>
      <trkpt lat="47.49332" lon="6.72387">
        <ele>432</ele>
        <time>2014-05-01T09:22:40.000Z</time>
      </trkpt>
      <trkpt lat="47.4933" lon="6.72393">
        <ele>430.6</ele>
        <time>2014-05-01T09:22:41.000Z</time>
      </trkpt>
      <trkpt lat="47.49328" lon="6.72404">
        <ele>429.1</ele>
        <time>2014-05-01T09:22:42.000Z</time>
      </trkpt>
      <trkpt lat="47.49327" lon="6.72412">
        <ele>428.3</ele>
        <time>2014-05-01T09:22:43.000Z</time>
      </trkpt>
      <trkpt lat="47.49326" lon="6.72419">
        <ele>428.6</ele>
        <time>2014-05-01T09:22:44.000Z</time>
      </trkpt>
      <trkpt lat="47.49326" lon="6.72425">
        <ele>428.8</ele>
        <time>2014-05-01T09:22:45.000Z</time>
      </trkpt>
      <trkpt lat="47.49326" lon="6.72431">
        <ele>428.7</ele>
        <time>2014-05-01T09:22:46.001Z</time>
      </trkpt>
      <trkpt lat="47.49328" lon="6.72437">
        <ele>429.4</ele>
        <time>2014-05-01T09:22:47.000Z</time>
      </trkpt>
      <trkpt lat="47.4933" lon="6.72443">
        <ele>429.7</ele>
        <time>2014-05-01T09:22:48.000Z</time>
      </trkpt>
      <trkpt lat="47.49332" lon="6.7245">
        <ele>429.6</ele>
        <time>2014-05-01T09:22:49.000Z</time>
      </trkpt>
      <trkpt lat="47.49333" lon="6.72456">
        <ele>431.3</ele>
        <time>2014-05-01T09:22:50.000Z</time>
      </trkpt>
      <trkpt lat="47.49334" lon="6.72462">
        <ele>433.2</ele>
        <time>2014-05-01T09:22:51.000Z</time>
      </trkpt>
      <trkpt lat="47.49334" lon="6.72467">
        <ele>435</ele>
        <time>2014-05-01T09:22:52.000Z</time>
      </trkpt>
      <trkpt lat="47.49334" lon="6.72472">
        <ele>435.7</ele>
        <time>2014-05-01T09:22:53.000Z</time>
      </trkpt>
      <trkpt lat="47.49334" lon="6.72477">
        <ele>435.5</ele>
        <time>2014-05-01T09:22:54.000Z</time>
      </trkpt>
      <trkpt lat="47.49333" lon="6.72482">
        <ele>434.1</ele>
        <time>2014-05-01T09:22:55.000Z</time>
      </trkpt>
      <trkpt lat="47.49334" lon="6.72491">
        <ele>432.8</ele>
        <time>2014-05-01T09:22:56.000Z</time>
      </trkpt>
      <trkpt lat="47.49333" lon="6.72495">
        <ele>431.2</ele>
        <time>2014-05-01T09:22:57.000Z</time>
      </trkpt>
      <trkpt lat="47.49331" lon="6.725">
        <ele>431.2</ele>
        <time>2014-05-01T09:22:58.000Z</time>
      </trkpt>
      <trkpt lat="47.49331" lon="6.72508">
        <ele>429.5</ele>
        <time>2014-05-01T09:22:59.000Z</time>
      </trkpt>
      <trkpt lat="47.49332" lon="6.72517">
        <ele>428.4</ele>
        <time>2014-05-01T09:23:00.000Z</time>
      </trkpt>
      <trkpt lat="47.49331" lon="6.72522">
        <ele>428</ele>
        <time>2014-05-01T09:23:01.000Z</time>
      </trkpt>
      <trkpt lat="47.49331" lon="6.72528">
        <ele>427.9</ele>
        <time>2014-05-01T09:23:02.000Z</time>
      </trkpt>
      <trkpt lat="47.4933" lon="6.72535">
        <ele>427.1</ele>
        <time>2014-05-01T09:23:03.000Z</time>
      </trkpt>
      <trkpt lat="47.4933" lon="6.72542">
        <ele>425</ele>
        <time>2014-05-01T09:23:04.000Z</time>
      </trkpt>
      <trkpt lat="47.4933" lon="6.7255">
        <ele>422.3</ele>
        <time>2014-05-01T09:23:05.000Z</time>
      </trkpt>
      <trkpt lat="47.49321" lon="6.72598">
        <ele>414.9</ele>
        <time>2014-05-01T09:23:13.000Z</time>
      </trkpt>
      <trkpt lat="47.49318" lon="6.72608">
        <ele>413.3</ele>
        <time>2014-05-01T09:23:14.000Z</time>
      </trkpt>
      <trkpt lat="47.49317" lon="6.72616">
        <ele>414</ele>
        <time>2014-05-01T09:23:15.000Z</time>
      </trkpt>
      <trkpt lat="47.49317" lon="6.72623">
        <ele>414.9</ele>
        <time>2014-05-01T09:23:16.000Z</time>
      </trkpt>
      <trkpt lat="47.49315" lon="6.72629">
        <ele>415.1</ele>
        <time>2014-05-01T09:23:17.000Z</time>
      </trkpt>
      <trkpt lat="47.49314" lon="6.72634">
        <ele>414.8</ele>
        <time>2014-05-01T09:23:18.000Z</time>
      </trkpt>
      <trkpt lat="47.49312" lon="6.72638">
        <ele>415.9</ele>
        <time>2014-05-01T09:23:19.000Z</time>
      </trkpt>
      <trkpt lat="47.4931" lon="6.72643">
        <ele>417.8</ele>
        <time>2014-05-01T09:23:20.000Z</time>
      </trkpt>
      <trkpt lat="47.49309" lon="6.72649">
        <ele>419.7</ele>
        <time>2014-05-01T09:23:21.000Z</time>
      </trkpt>
      <trkpt lat="47.49307" lon="6.72653">
        <ele>421.2</ele>
        <time>2014-05-01T09:23:22.000Z</time>
      </trkpt>
      <trkpt lat="47.49307" lon="6.72659">
        <ele>421.3</ele>
        <time>2014-05-01T09:23:23.000Z</time>
      </trkpt>
      <trkpt lat="47.49307" lon="6.72666">
        <ele>419.9</ele>
        <time>2014-05-01T09:23:24.000Z</time>
      </trkpt>
      <trkpt lat="47.49307" lon="6.72671">
        <ele>420</ele>
        <time>2014-05-01T09:23:25.000Z</time>
      </trkpt>
      <trkpt lat="47.49308" lon="6.72677">
        <ele>419.2</ele>
        <time>2014-05-01T09:23:26.000Z</time>
      </trkpt>
      <trkpt lat="47.49309" lon="6.72683">
        <ele>418.2</ele>
        <time>2014-05-01T09:23:27.000Z</time>
      </trkpt>
      <trkpt lat="47.49309" lon="6.72688">
        <ele>418.1</ele>
        <time>2014-05-01T09:23:28.001Z</time>
      </trkpt>
      <trkpt lat="47.49312" lon="6.72695">
        <ele>417.9</ele>
        <time>2014-05-01T09:23:29.000Z</time>
      </trkpt>
      <trkpt lat="47.49315" lon="6.72708">
        <ele>416.9</ele>
        <time>2014-05-01T09:23:30.000Z</time>
      </trkpt>
      <trkpt lat="47.49315" lon="6.72715">
        <ele>416.1</ele>
        <time>2014-05-01T09:23:31.000Z</time>
      </trkpt>
      <trkpt lat="47.49315" lon="6.72724">
        <ele>415.5</ele>
        <time>2014-05-01T09:23:32.000Z</time>
      </trkpt>
      <trkpt lat="47.49315" lon="6.72732">
        <ele>415</ele>
        <time>2014-05-01T09:23:33.000Z</time>
      </trkpt>
      <trkpt lat="47.49316" lon="6.72739">
        <ele>413.4</ele>
        <time>2014-05-01T09:23:34.000Z</time>
      </trkpt>
      <trkpt lat="47.49317" lon="6.72744">
        <ele>412.4</ele>
        <time>2014-05-01T09:23:35.000Z</time>
      </trkpt>
      <trkpt lat="47.49318" lon="6.72753">
        <ele>414.3</ele>
        <time>2014-05-01T09:23:36.000Z</time>
      </trkpt>
      <trkpt lat="47.49317" lon="6.72758">
        <ele>412.3</ele>
        <time>2014-05-01T09:23:37.000Z</time>
      </trkpt>
      <trkpt lat="47.49313" lon="6.72764">
        <ele>412.5</ele>
        <time>2014-05-01T09:23:38.000Z</time>
      </trkpt>
      <trkpt lat="47.49311" lon="6.72768">
        <ele>412.8</ele>
        <time>2014-05-01T09:23:39.000Z</time>
      </trkpt>
      <trkpt lat="47.49309" lon="6.72772">
        <ele>413.3</ele>
        <time>2014-05-01T09:23:40.000Z</time>
      </trkpt>
      <trkpt lat="47.49306" lon="6.72775">
        <ele>412.2</ele>
        <time>2014-05-01T09:23:41.000Z</time>
      </trkpt>
      <trkpt lat="47.49303" lon="6.72777">
        <ele>410.3</ele>
        <time>2014-05-01T09:23:42.000Z</time>
      </trkpt>
      <trkpt lat="47.49299" lon="6.72778">
        <ele>407.3</ele>
        <time>2014-05-01T09:23:43.000Z</time>
      </trkpt>
      <trkpt lat="47.49297" lon="6.72782">
        <ele>407.1</ele>
        <time>2014-05-01T09:23:44.000Z</time>
      </trkpt>
      <trkpt lat="47.49295" lon="6.72787">
        <ele>408.4</ele>
        <time>2014-05-01T09:23:46.000Z</time>
      </trkpt>
      <trkpt lat="47.49294" lon="6.72788">
        <ele>408.3</ele>
        <time>2014-05-01T09:23:47.000Z</time>
      </trkpt>
      <trkpt lat="47.4929" lon="6.7279">
        <ele>410.1</ele>
        <time>2014-05-01T09:23:57.000Z</time>
      </trkpt>
      <trkpt lat="47.4929" lon="6.72789">
        <ele>410.3</ele>
        <time>2014-05-01T09:23:58.000Z</time>
      </trkpt>
      <trkpt lat="47.49288" lon="6.72793">
        <ele>408</ele>
        <time>2014-05-01T09:24:56.000Z</time>
      </trkpt>
      <trkpt lat="47.49286" lon="6.72796">
        <ele>404.7</ele>
        <time>2014-05-01T09:24:57.000Z</time>
      </trkpt>
      <trkpt lat="47.49279" lon="6.72807">
        <ele>402.7</ele>
        <time>2014-05-01T09:24:58.000Z</time>
      </trkpt>
      <trkpt lat="47.49277" lon="6.72812">
        <ele>401.4</ele>
        <time>2014-05-01T09:24:59.000Z</time>
      </trkpt>
      <trkpt lat="47.49275" lon="6.72816">
        <ele>401.5</ele>
        <time>2014-05-01T09:25:00.000Z</time>
      </trkpt>
      <trkpt lat="47.49272" lon="6.72819">
        <ele>401.4</ele>
        <time>2014-05-01T09:25:01.000Z</time>
      </trkpt>
      <trkpt lat="47.49268" lon="6.72822">
        <ele>400.1</ele>
        <time>2014-05-01T09:25:02.000Z</time>
      </trkpt>
      <trkpt lat="47.49265" lon="6.72826">
        <ele>400.3</ele>
        <time>2014-05-01T09:25:03.000Z</time>
      </trkpt>
      <trkpt lat="47.49263" lon="6.72831">
        <ele>405</ele>
        <time>2014-05-01T09:25:04.000Z</time>
      </trkpt>
      <trkpt lat="47.49259" lon="6.72836">
        <ele>405.9</ele>
        <time>2014-05-01T09:25:05.000Z</time>
      </trkpt>
      <trkpt lat="47.4924" lon="6.72861">
        <ele>405.2</ele>
        <time>2014-05-01T09:25:13.000Z</time>
      </trkpt>
      <trkpt lat="47.49239" lon="6.72864">
        <ele>405.1</ele>
        <time>2014-05-01T09:25:14.000Z</time>
      </trkpt>
      <trkpt lat="47.49238" lon="6.72869">
        <ele>400.2</ele>
        <time>2014-05-01T09:25:15.000Z</time>
      </trkpt>
      <trkpt lat="47.49236" lon="6.72872">
        <ele>400.7</ele>
        <time>2014-05-01T09:25:16.000Z</time>
      </trkpt>
      <trkpt lat="47.49233" lon="6.72874">
        <ele>400.3</ele>
        <time>2014-05-01T09:25:17.000Z</time>
      </trkpt>
      <trkpt lat="47.49231" lon="6.72877">
        <ele>400.9</ele>
        <time>2014-05-01T09:25:18.000Z</time>
      </trkpt>
      <trkpt lat="47.49228" lon="6.7288">
        <ele>401.4</ele>
        <time>2014-05-01T09:25:19.000Z</time>
      </trkpt>
      <trkpt lat="47.49225" lon="6.72883">
        <ele>403.7</ele>
        <time>2014-05-01T09:25:20.000Z</time>
      </trkpt>
      <trkpt lat="47.49221" lon="6.72886">
        <ele>402.8</ele>
        <time>2014-05-01T09:25:21.000Z</time>
      </trkpt>
      <trkpt lat="47.49219" lon="6.72889">
        <ele>403.3</ele>
        <time>2014-05-01T09:25:22.000Z</time>
      </trkpt>
      <trkpt lat="47.49217" lon="6.72891">
        <ele>401.8</ele>
        <time>2014-05-01T09:25:23.000Z</time>
      </trkpt>
      <trkpt lat="47.49216" lon="6.72895">
        <ele>400.2</ele>
        <time>2014-05-01T09:25:24.000Z</time>
      </trkpt>
      <trkpt lat="47.49215" lon="6.72898">
        <ele>398.9</ele>
        <time>2014-05-01T09:25:25.000Z</time>
      </trkpt>
      <trkpt lat="47.49214" lon="6.72901">
        <ele>401.4</ele>
        <time>2014-05-01T09:25:26.000Z</time>
      </trkpt>
      <trkpt lat="47.49213" lon="6.72905">
        <ele>402.5</ele>
        <time>2014-05-01T09:25:27.000Z</time>
      </trkpt>
      <trkpt lat="47.49211" lon="6.72908">
        <ele>403.7</ele>
        <time>2014-05-01T09:25:28.000Z</time>
      </trkpt>
      <trkpt lat="47.49209" lon="6.72911">
        <ele>405.1</ele>
        <time>2014-05-01T09:25:29.000Z</time>
      </trkpt>
      <trkpt lat="47.49207" lon="6.72913">
        <ele>406.4</ele>
        <time>2014-05-01T09:25:30.000Z</time>
      </trkpt>
      <trkpt lat="47.49205" lon="6.72916">
        <ele>405.7</ele>
        <time>2014-05-01T09:25:31.000Z</time>
      </trkpt>
      <trkpt lat="47.49203" lon="6.72919">
        <ele>406.5</ele>
        <time>2014-05-01T09:25:32.000Z</time>
      </trkpt>
      <trkpt lat="47.49201" lon="6.72923">
        <ele>406.7</ele>
        <time>2014-05-01T09:25:33.000Z</time>
      </trkpt>
      <trkpt lat="47.49199" lon="6.72927">
        <ele>410</ele>
        <time>2014-05-01T09:25:34.000Z</time>
      </trkpt>
      <trkpt lat="47.49197" lon="6.72931">
        <ele>411.1</ele>
        <time>2014-05-01T09:25:35.000Z</time>
      </trkpt>
      <trkpt lat="47.49194" lon="6.72934">
        <ele>412.3</ele>
        <time>2014-05-01T09:25:36.000Z</time>
      </trkpt>
      <trkpt lat="47.49192" lon="6.72938">
        <ele>411.8</ele>
        <time>2014-05-01T09:25:37.000Z</time>
      </trkpt>
      <trkpt lat="47.4919" lon="6.72942">
        <ele>412.3</ele>
        <time>2014-05-01T09:25:38.000Z</time>
      </trkpt>
      <trkpt lat="47.49188" lon="6.72947">
        <ele>411.9</ele>
        <time>2014-05-01T09:25:39.000Z</time>
      </trkpt>
      <trkpt lat="47.49188" lon="6.72953">
        <ele>411.8</ele>
        <time>2014-05-01T09:25:40.000Z</time>
      </trkpt>
      <trkpt lat="47.49187" lon="6.72959">
        <ele>412.2</ele>
        <time>2014-05-01T09:25:41.000Z</time>
      </trkpt>
      <trkpt lat="47.49186" lon="6.72964">
        <ele>414.8</ele>
        <time>2014-05-01T09:25:42.000Z</time>
      </trkpt>
      <trkpt lat="47.49184" lon="6.72969">
        <ele>416.7</ele>
        <time>2014-05-01T09:25:43.000Z</time>
      </trkpt>
      <trkpt lat="47.49183" lon="6.72973">
        <ele>419.3</ele>
        <time>2014-05-01T09:25:44.000Z</time>
      </trkpt>
      <trkpt lat="47.49182" lon="6.72977">
        <ele>418.7</ele>
        <time>2014-05-01T09:25:45.000Z</time>
      </trkpt>
      <trkpt lat="47.49182" lon="6.72982">
        <ele>417.3</ele>
        <time>2014-05-01T09:25:46.000Z</time>
      </trkpt>
      <trkpt lat="47.49183" lon="6.72987">
        <ele>417.3</ele>
        <time>2014-05-01T09:25:47.000Z</time>
      </trkpt>
      <trkpt lat="47.49185" lon="6.72993">
        <ele>415.7</ele>
        <time>2014-05-01T09:25:48.000Z</time>
      </trkpt>
      <trkpt lat="47.49186" lon="6.72997">
        <ele>418.1</ele>
        <time>2014-05-01T09:25:49.000Z</time>
      </trkpt>
      <trkpt lat="47.49187" lon="6.73001">
        <ele>419</ele>
        <time>2014-05-01T09:25:50.000Z</time>
      </trkpt>
      <trkpt lat="47.49186" lon="6.73005">
        <ele>417.8</ele>
        <time>2014-05-01T09:25:51.000Z</time>
      </trkpt>
      <trkpt lat="47.49185" lon="6.73009">
        <ele>416.7</ele>
        <time>2014-05-01T09:25:52.000Z</time>
      </trkpt>
      <trkpt lat="47.49184" lon="6.73012">
        <ele>416.5</ele>
        <time>2014-05-01T09:25:53.000Z</time>
      </trkpt>
      <trkpt lat="47.49182" lon="6.73019">
        <ele>416.5</ele>
        <time>2014-05-01T09:25:54.000Z</time>
      </trkpt>
      <trkpt lat="47.49181" lon="6.73024">
        <ele>419.1</ele>
        <time>2014-05-01T09:25:55.000Z</time>
      </trkpt>
      <trkpt lat="47.49181" lon="6.73029">
        <ele>419.2</ele>
        <time>2014-05-01T09:25:56.000Z</time>
      </trkpt>
      <trkpt lat="47.49181" lon="6.73034">
        <ele>418.8</ele>
        <time>2014-05-01T09:25:57.000Z</time>
      </trkpt>
      <trkpt lat="47.49181" lon="6.73039">
        <ele>419.1</ele>
        <time>2014-05-01T09:25:58.000Z</time>
      </trkpt>
      <trkpt lat="47.4918" lon="6.73045">
        <ele>418.6</ele>
        <time>2014-05-01T09:25:59.000Z</time>
      </trkpt>
      <trkpt lat="47.4918" lon="6.73052">
        <ele>416.7</ele>
        <time>2014-05-01T09:26:00.000Z</time>
      </trkpt>
      <trkpt lat="47.49178" lon="6.73065">
        <ele>417.1</ele>
        <time>2014-05-01T09:26:01.000Z</time>
      </trkpt>
      <trkpt lat="47.49177" lon="6.73072">
        <ele>417.6</ele>
        <time>2014-05-01T09:26:02.000Z</time>
      </trkpt>
      <trkpt lat="47.49176" lon="6.73079">
        <ele>417.6</ele>
        <time>2014-05-01T09:26:03.000Z</time>
      </trkpt>
      <trkpt lat="47.49174" lon="6.73087">
        <ele>416.2</ele>
        <time>2014-05-01T09:26:04.000Z</time>
      </trkpt>
      <trkpt lat="47.49173" lon="6.73093">
        <ele>416</ele>
        <time>2014-05-01T09:26:05.000Z</time>
      </trkpt>
      <trkpt lat="47.49169" lon="6.73108">
        <ele>420.5</ele>
        <time>2014-05-01T09:26:08.000Z</time>
      </trkpt>
      <trkpt lat="47.49169" lon="6.73118">
        <ele>422.2</ele>
        <time>2014-05-01T09:26:09.000Z</time>
      </trkpt>
      <trkpt lat="47.49168" lon="6.73125">
        <ele>420.7</ele>
        <time>2014-05-01T09:26:10.000Z</time>
      </trkpt>
      <trkpt lat="47.49169" lon="6.73133">
        <ele>417.9</ele>
        <time>2014-05-01T09:26:11.000Z</time>
      </trkpt>
      <trkpt lat="47.49168" lon="6.73141">
        <ele>417.8</ele>
        <time>2014-05-01T09:26:12.000Z</time>
      </trkpt>
      <trkpt lat="47.49167" lon="6.73146">
        <ele>415.4</ele>
        <time>2014-05-01T09:26:13.000Z</time>
      </trkpt>
      <trkpt lat="47.49166" lon="6.73153">
        <ele>413.7</ele>
        <time>2014-05-01T09:26:14.000Z</time>
      </trkpt>
      <trkpt lat="47.49166" lon="6.73161">
        <ele>411.6</ele>
        <time>2014-05-01T09:26:15.000Z</time>
      </trkpt>
      <trkpt lat="47.49164" lon="6.73166">
        <ele>410.7</ele>
        <time>2014-05-01T09:26:16.000Z</time>
      </trkpt>
      <trkpt lat="47.49162" lon="6.7317">
        <ele>409.8</ele>
        <time>2014-05-01T09:26:17.001Z</time>
      </trkpt>
      <trkpt lat="47.49159" lon="6.7318">
        <ele>412.1</ele>
        <time>2014-05-01T09:26:18.000Z</time>
      </trkpt>
      <trkpt lat="47.49156" lon="6.73187">
        <ele>412.8</ele>
        <time>2014-05-01T09:26:19.000Z</time>
      </trkpt>
      <trkpt lat="47.49152" lon="6.73193">
        <ele>412.7</ele>
        <time>2014-05-01T09:26:20.000Z</time>
      </trkpt>
      <trkpt lat="47.49148" lon="6.73201">
        <ele>412.8</ele>
        <time>2014-05-01T09:26:21.000Z</time>
      </trkpt>
      <trkpt lat="47.49146" lon="6.73208">
        <ele>412</ele>
        <time>2014-05-01T09:26:22.000Z</time>
      </trkpt>
      <trkpt lat="47.49145" lon="6.73215">
        <ele>411.8</ele>
        <time>2014-05-01T09:26:23.000Z</time>
      </trkpt>
      <trkpt lat="47.49137" lon="6.73224">
        <ele>410.5</ele>
        <time>2014-05-01T09:26:24.000Z</time>
      </trkpt>
      <trkpt lat="47.49134" lon="6.73231">
        <ele>410</ele>
        <time>2014-05-01T09:26:25.000Z</time>
      </trkpt>
      <trkpt lat="47.49129" lon="6.73239">
        <ele>409.4</ele>
        <time>2014-05-01T09:26:26.000Z</time>
      </trkpt>
      <trkpt lat="47.49124" lon="6.73246">
        <ele>409.7</ele>
        <time>2014-05-01T09:26:27.000Z</time>
      </trkpt>
      <trkpt lat="47.49121" lon="6.73256">
        <ele>409.8</ele>
        <time>2014-05-01T09:26:28.000Z</time>
      </trkpt>
      <trkpt lat="47.49119" lon="6.73265">
        <ele>410.8</ele>
        <time>2014-05-01T09:26:29.000Z</time>
      </trkpt>
      <trkpt lat="47.49117" lon="6.73275">
        <ele>411.6</ele>
        <time>2014-05-01T09:26:30.000Z</time>
      </trkpt>
      <trkpt lat="47.49113" lon="6.73285">
        <ele>409.9</ele>
        <time>2014-05-01T09:26:31.000Z</time>
      </trkpt>
      <trkpt lat="47.49112" lon="6.73298">
        <ele>407.5</ele>
        <time>2014-05-01T09:26:32.000Z</time>
      </trkpt>
      <trkpt lat="47.49111" lon="6.73307">
        <ele>408</ele>
        <time>2014-05-01T09:26:33.000Z</time>
      </trkpt>
      <trkpt lat="47.4911" lon="6.73315">
        <ele>409.9</ele>
        <time>2014-05-01T09:26:34.000Z</time>
      </trkpt>
      <trkpt lat="47.49108" lon="6.73323">
        <ele>411</ele>
        <time>2014-05-01T09:26:35.000Z</time>
      </trkpt>
      <trkpt lat="47.49106" lon="6.73331">
        <ele>410.9</ele>
        <time>2014-05-01T09:26:36.000Z</time>
      </trkpt>
      <trkpt lat="47.49104" lon="6.73339">
        <ele>410.5</ele>
        <time>2014-05-01T09:26:37.000Z</time>
      </trkpt>
      <trkpt lat="47.49101" lon="6.73346">
        <ele>410.9</ele>
        <time>2014-05-01T09:26:38.000Z</time>
      </trkpt>
      <trkpt lat="47.49099" lon="6.73355">
        <ele>410.5</ele>
        <time>2014-05-01T09:26:39.000Z</time>
      </trkpt>
      <trkpt lat="47.49096" lon="6.73362">
        <ele>410.5</ele>
        <time>2014-05-01T09:26:40.000Z</time>
      </trkpt>
      <trkpt lat="47.49093" lon="6.73368">
        <ele>410.4</ele>
        <time>2014-05-01T09:26:41.000Z</time>
      </trkpt>
      <trkpt lat="47.4909" lon="6.73371">
        <ele>412</ele>
        <time>2014-05-01T09:26:42.000Z</time>
      </trkpt>
      <trkpt lat="47.49086" lon="6.73377">
        <ele>410.5</ele>
        <time>2014-05-01T09:26:43.000Z</time>
      </trkpt>
      <trkpt lat="47.49081" lon="6.73383">
        <ele>407.2</ele>
        <time>2014-05-01T09:26:44.000Z</time>
      </trkpt>
      <trkpt lat="47.49074" lon="6.73387">
        <ele>402.9</ele>
        <time>2014-05-01T09:26:45.000Z</time>
      </trkpt>
      <trkpt lat="47.49072" lon="6.73393">
        <ele>400.4</ele>
        <time>2014-05-01T09:26:46.000Z</time>
      </trkpt>
      <trkpt lat="47.49068" lon="6.734">
        <ele>399.1</ele>
        <time>2014-05-01T09:26:47.000Z</time>
      </trkpt>
      <trkpt lat="47.49065" lon="6.73408">
        <ele>392.5</ele>
        <time>2014-05-01T09:26:48.000Z</time>
      </trkpt>
      <trkpt lat="47.49062" lon="6.73414">
        <ele>391</ele>
        <time>2014-05-01T09:26:49.000Z</time>
      </trkpt>
      <trkpt lat="47.49059" lon="6.73422">
        <ele>389.8</ele>
        <time>2014-05-01T09:26:50.000Z</time>
      </trkpt>
      <trkpt lat="47.49058" lon="6.73427">
        <ele>390.3</ele>
        <time>2014-05-01T09:26:51.000Z</time>
      </trkpt>
      <trkpt lat="47.49055" lon="6.73431">
        <ele>391.5</ele>
        <time>2014-05-01T09:26:52.000Z</time>
      </trkpt>
      <trkpt lat="47.49053" lon="6.73435">
        <ele>390.6</ele>
        <time>2014-05-01T09:26:53.000Z</time>
      </trkpt>
      <trkpt lat="47.49051" lon="6.73439">
        <ele>390.5</ele>
        <time>2014-05-01T09:26:54.000Z</time>
      </trkpt>
      <trkpt lat="47.4905" lon="6.73447">
        <ele>388.6</ele>
        <time>2014-05-01T09:26:55.000Z</time>
      </trkpt>
      <trkpt lat="47.49049" lon="6.73454">
        <ele>390.2</ele>
        <time>2014-05-01T09:26:56.000Z</time>
      </trkpt>
      <trkpt lat="47.49045" lon="6.7346">
        <ele>391.1</ele>
        <time>2014-05-01T09:26:57.000Z</time>
      </trkpt>
      <trkpt lat="47.49041" lon="6.73466">
        <ele>390.3</ele>
        <time>2014-05-01T09:26:58.000Z</time>
      </trkpt>
      <trkpt lat="47.49037" lon="6.7347">
        <ele>390.9</ele>
        <time>2014-05-01T09:26:59.000Z</time>
      </trkpt>
      <trkpt lat="47.49035" lon="6.73475">
        <ele>391</ele>
        <time>2014-05-01T09:27:00.000Z</time>
      </trkpt>
      <trkpt lat="47.49031" lon="6.73481">
        <ele>391</ele>
        <time>2014-05-01T09:27:01.000Z</time>
      </trkpt>
      <trkpt lat="47.49029" lon="6.73486">
        <ele>390.7</ele>
        <time>2014-05-01T09:27:02.000Z</time>
      </trkpt>
      <trkpt lat="47.49024" lon="6.73487">
        <ele>391.1</ele>
        <time>2014-05-01T09:27:03.000Z</time>
      </trkpt>
      <trkpt lat="47.49022" lon="6.73492">
        <ele>390.6</ele>
        <time>2014-05-01T09:27:04.000Z</time>
      </trkpt>
      <trkpt lat="47.49019" lon="6.73494">
        <ele>390.9</ele>
        <time>2014-05-01T09:27:05.000Z</time>
      </trkpt>
      <trkpt lat="47.4901" lon="6.73501">
        <ele>390.8</ele>
        <time>2014-05-01T09:27:08.000Z</time>
      </trkpt>
      <trkpt lat="47.49004" lon="6.73504">
        <ele>391</ele>
        <time>2014-05-01T09:27:09.000Z</time>
      </trkpt>
      <trkpt lat="47.48999" lon="6.73506">
        <ele>392.5</ele>
        <time>2014-05-01T09:27:10.000Z</time>
      </trkpt>
      <trkpt lat="47.48994" lon="6.73508">
        <ele>392.8</ele>
        <time>2014-05-01T09:27:11.000Z</time>
      </trkpt>
      <trkpt lat="47.4899" lon="6.7351">
        <ele>392.4</ele>
        <time>2014-05-01T09:27:12.000Z</time>
      </trkpt>
      <trkpt lat="47.48986" lon="6.73513">
        <ele>392.2</ele>
        <time>2014-05-01T09:27:13.000Z</time>
      </trkpt>
      <trkpt lat="47.48981" lon="6.73515">
        <ele>392.8</ele>
        <time>2014-05-01T09:27:14.000Z</time>
      </trkpt>
      <trkpt lat="47.48977" lon="6.73518">
        <ele>393.4</ele>
        <time>2014-05-01T09:27:15.000Z</time>
      </trkpt>
      <trkpt lat="47.48973" lon="6.73522">
        <ele>392.8</ele>
        <time>2014-05-01T09:27:16.000Z</time>
      </trkpt>
      <trkpt lat="47.48969" lon="6.73526">
        <ele>392.9</ele>
        <time>2014-05-01T09:27:17.000Z</time>
      </trkpt>
      <trkpt lat="47.48964" lon="6.7353">
        <ele>393.8</ele>
        <time>2014-05-01T09:27:18.000Z</time>
      </trkpt>
      <trkpt lat="47.48961" lon="6.73535">
        <ele>393.8</ele>
        <time>2014-05-01T09:27:19.000Z</time>
      </trkpt>
      <trkpt lat="47.48956" lon="6.73541">
        <ele>392.6</ele>
        <time>2014-05-01T09:27:20.000Z</time>
      </trkpt>
      <trkpt lat="47.48952" lon="6.73547">
        <ele>391.2</ele>
        <time>2014-05-01T09:27:21.000Z</time>
      </trkpt>
      <trkpt lat="47.48949" lon="6.73551">
        <ele>391.5</ele>
        <time>2014-05-01T09:27:22.000Z</time>
      </trkpt>
      <trkpt lat="47.48946" lon="6.73555">
        <ele>392.4</ele>
        <time>2014-05-01T09:27:23.000Z</time>
      </trkpt>
      <trkpt lat="47.48943" lon="6.7356">
        <ele>392.4</ele>
        <time>2014-05-01T09:27:24.000Z</time>
      </trkpt>
      <trkpt lat="47.48938" lon="6.73564">
        <ele>392.9</ele>
        <time>2014-05-01T09:27:25.000Z</time>
      </trkpt>
      <trkpt lat="47.48934" lon="6.73567">
        <ele>392.9</ele>
        <time>2014-05-01T09:27:26.000Z</time>
      </trkpt>
      <trkpt lat="47.48931" lon="6.73571">
        <ele>393.2</ele>
        <time>2014-05-01T09:27:27.000Z</time>
      </trkpt>
      <trkpt lat="47.48926" lon="6.73576">
        <ele>393.9</ele>
        <time>2014-05-01T09:27:28.000Z</time>
      </trkpt>
      <trkpt lat="47.48922" lon="6.73582">
        <ele>393.4</ele>
        <time>2014-05-01T09:27:29.000Z</time>
      </trkpt>
      <trkpt lat="47.48918" lon="6.73587">
        <ele>393.6</ele>
        <time>2014-05-01T09:27:29.999Z</time>
      </trkpt>
      <trkpt lat="47.48914" lon="6.73593">
        <ele>392.3</ele>
        <time>2014-05-01T09:27:31.000Z</time>
      </trkpt>
      <trkpt lat="47.4891" lon="6.73597">
        <ele>392.4</ele>
        <time>2014-05-01T09:27:32.000Z</time>
      </trkpt>
      <trkpt lat="47.48907" lon="6.736">
        <ele>392.5</ele>
        <time>2014-05-01T09:27:33.000Z</time>
      </trkpt>
      <trkpt lat="47.48905" lon="6.73603">
        <ele>392.4</ele>
        <time>2014-05-01T09:27:34.000Z</time>
      </trkpt>
      <trkpt lat="47.489" lon="6.73604">
        <ele>394</ele>
        <time>2014-05-01T09:27:35.000Z</time>
      </trkpt>
      <trkpt lat="47.48897" lon="6.73605">
        <ele>394.9</ele>
        <time>2014-05-01T09:27:36.000Z</time>
      </trkpt>
      <trkpt lat="47.48895" lon="6.73608">
        <ele>394.7</ele>
        <time>2014-05-01T09:27:37.000Z</time>
      </trkpt>
      <trkpt lat="47.48892" lon="6.7361">
        <ele>393.5</ele>
        <time>2014-05-01T09:27:38.000Z</time>
      </trkpt>
      <trkpt lat="47.4889" lon="6.73612">
        <ele>393</ele>
        <time>2014-05-01T09:27:39.000Z</time>
      </trkpt>
      <trkpt lat="47.48888" lon="6.73615">
        <ele>393</ele>
        <time>2014-05-01T09:27:41.000Z</time>
      </trkpt>
      <trkpt lat="47.48887" lon="6.73617">
        <ele>392.9</ele>
        <time>2014-05-01T09:27:42.000Z</time>
      </trkpt>
      <trkpt lat="47.4889" lon="6.73621">
        <ele>393.8</ele>
        <time>2014-05-01T09:27:45.000Z</time>
      </trkpt>
      <trkpt lat="47.48892" lon="6.73623">
        <ele>393.6</ele>
        <time>2014-05-01T09:27:46.000Z</time>
      </trkpt>
      <trkpt lat="47.48895" lon="6.73624">
        <ele>392.8</ele>
        <time>2014-05-01T09:27:47.000Z</time>
      </trkpt>
      <trkpt lat="47.48898" lon="6.73625">
        <ele>391.6</ele>
        <time>2014-05-01T09:27:48.000Z</time>
      </trkpt>
      <trkpt lat="47.48901" lon="6.73626">
        <ele>390.9</ele>
        <time>2014-05-01T09:27:49.000Z</time>
      </trkpt>
      <trkpt lat="47.48904" lon="6.73627">
        <ele>390.1</ele>
        <time>2014-05-01T09:27:50.000Z</time>
      </trkpt>
      <trkpt lat="47.48907" lon="6.73627">
        <ele>390.2</ele>
        <time>2014-05-01T09:27:51.000Z</time>
      </trkpt>
      <trkpt lat="47.4891" lon="6.73628">
        <ele>390</ele>
        <time>2014-05-01T09:27:52.000Z</time>
      </trkpt>
      <trkpt lat="47.48913" lon="6.73629">
        <ele>389.4</ele>
        <time>2014-05-01T09:27:53.000Z</time>
      </trkpt>
      <trkpt lat="47.48915" lon="6.7363">
        <ele>388.3</ele>
        <time>2014-05-01T09:27:54.000Z</time>
      </trkpt>
      <trkpt lat="47.48918" lon="6.73632">
        <ele>386.3</ele>
        <time>2014-05-01T09:27:55.000Z</time>
      </trkpt>
      <trkpt lat="47.48922" lon="6.73633">
        <ele>385.4</ele>
        <time>2014-05-01T09:27:56.000Z</time>
      </trkpt>
      <trkpt lat="47.48925" lon="6.73635">
        <ele>384.8</ele>
        <time>2014-05-01T09:27:57.000Z</time>
      </trkpt>
      <trkpt lat="47.48929" lon="6.73636">
        <ele>384.1</ele>
        <time>2014-05-01T09:27:58.000Z</time>
      </trkpt>
      <trkpt lat="47.48932" lon="6.73638">
        <ele>383.7</ele>
        <time>2014-05-01T09:27:59.000Z</time>
      </trkpt>
      <trkpt lat="47.48936" lon="6.73639">
        <ele>383.5</ele>
        <time>2014-05-01T09:28:00.000Z</time>
      </trkpt>
      <trkpt lat="47.48939" lon="6.7364">
        <ele>383.3</ele>
        <time>2014-05-01T09:28:01.000Z</time>
      </trkpt>
      <trkpt lat="47.48942" lon="6.73641">
        <ele>383.2</ele>
        <time>2014-05-01T09:28:02.000Z</time>
      </trkpt>
      <trkpt lat="47.48944" lon="6.73646">
        <ele>381.1</ele>
        <time>2014-05-01T09:28:29.000Z</time>
      </trkpt>
      <trkpt lat="47.48947" lon="6.73647">
        <ele>380.4</ele>
        <time>2014-05-01T09:28:30.000Z</time>
      </trkpt>
      <trkpt lat="47.4895" lon="6.73648">
        <ele>379.3</ele>
        <time>2014-05-01T09:28:31.000Z</time>
      </trkpt>
      <trkpt lat="47.48953" lon="6.73648">
        <ele>378.7</ele>
        <time>2014-05-01T09:28:32.000Z</time>
      </trkpt>
      <trkpt lat="47.48957" lon="6.73649">
        <ele>378.4</ele>
        <time>2014-05-01T09:28:33.000Z</time>
      </trkpt>
      <trkpt lat="47.4896" lon="6.7365">
        <ele>376.9</ele>
        <time>2014-05-01T09:28:34.000Z</time>
      </trkpt>
      <trkpt lat="47.48963" lon="6.73651">
        <ele>377</ele>
        <time>2014-05-01T09:28:35.000Z</time>
      </trkpt>
      <trkpt lat="47.48967" lon="6.73652">
        <ele>376.8</ele>
        <time>2014-05-01T09:28:36.000Z</time>
      </trkpt>
      <trkpt lat="47.48969" lon="6.73653">
        <ele>376.6</ele>
        <time>2014-05-01T09:28:37.000Z</time>
      </trkpt>
      <trkpt lat="47.48972" lon="6.73654">
        <ele>376.3</ele>
        <time>2014-05-01T09:28:38.000Z</time>
      </trkpt>
      <trkpt lat="47.48975" lon="6.73654">
        <ele>375.1</ele>
        <time>2014-05-01T09:28:39.000Z</time>
      </trkpt>
      <trkpt lat="47.48978" lon="6.73654">
        <ele>375.3</ele>
        <time>2014-05-01T09:28:40.000Z</time>
      </trkpt>
      <trkpt lat="47.48981" lon="6.73655">
        <ele>375.7</ele>
        <time>2014-05-01T09:28:41.000Z</time>
      </trkpt>
      <trkpt lat="47.48985" lon="6.73655">
        <ele>374.6</ele>
        <time>2014-05-01T09:28:42.000Z</time>
      </trkpt>
      <trkpt lat="47.48989" lon="6.73657">
        <ele>372.8</ele>
        <time>2014-05-01T09:28:43.000Z</time>
      </trkpt>
      <trkpt lat="47.48992" lon="6.73658">
        <ele>373.4</ele>
        <time>2014-05-01T09:28:44.000Z</time>
      </trkpt>
      <trkpt lat="47.48995" lon="6.73661">
        <ele>378.4</ele>
        <time>2014-05-01T09:28:46.000Z</time>
      </trkpt>
      <trkpt lat="47.48997" lon="6.73661">
        <ele>379.7</ele>
        <time>2014-05-01T09:28:47.000Z</time>
      </trkpt>
      <trkpt lat="47.49" lon="6.73662">
        <ele>379</ele>
        <time>2014-05-01T09:28:48.000Z</time>
      </trkpt>
      <trkpt lat="47.49003" lon="6.73662">
        <ele>378.3</ele>
        <time>2014-05-01T09:28:49.000Z</time>
      </trkpt>
      <trkpt lat="47.49005" lon="6.73663">
        <ele>378.4</ele>
        <time>2014-05-01T09:28:50.000Z</time>
      </trkpt>
      <trkpt lat="47.49008" lon="6.73663">
        <ele>378.4</ele>
        <time>2014-05-01T09:28:51.000Z</time>
      </trkpt>
      <trkpt lat="47.4901" lon="6.73664">
        <ele>378.3</ele>
        <time>2014-05-01T09:28:51.999Z</time>
      </trkpt>
      <trkpt lat="47.49012" lon="6.73666">
        <ele>378.2</ele>
        <time>2014-05-01T09:28:53.000Z</time>
      </trkpt>
      <trkpt lat="47.49015" lon="6.73669">
        <ele>378.2</ele>
        <time>2014-05-01T09:28:54.000Z</time>
      </trkpt>
      <trkpt lat="47.49018" lon="6.73671">
        <ele>377.6</ele>
        <time>2014-05-01T09:28:55.000Z</time>
      </trkpt>
      <trkpt lat="47.49022" lon="6.73672">
        <ele>376.7</ele>
        <time>2014-05-01T09:28:56.000Z</time>
      </trkpt>
      <trkpt lat="47.49026" lon="6.73673">
        <ele>376.4</ele>
        <time>2014-05-01T09:28:57.000Z</time>
      </trkpt>
      <trkpt lat="47.4903" lon="6.73673">
        <ele>377.3</ele>
        <time>2014-05-01T09:28:58.000Z</time>
      </trkpt>
      <trkpt lat="47.49033" lon="6.73674">
        <ele>377.6</ele>
        <time>2014-05-01T09:28:59.000Z</time>
      </trkpt>
      <trkpt lat="47.49038" lon="6.73675">
        <ele>375.8</ele>
        <time>2014-05-01T09:29:00.000Z</time>
      </trkpt>
      <trkpt lat="47.49043" lon="6.73676">
        <ele>379.2</ele>
        <time>2014-05-01T09:29:01.000Z</time>
      </trkpt>
      <trkpt lat="47.49047" lon="6.73677">
        <ele>377.5</ele>
        <time>2014-05-01T09:29:02.000Z</time>
      </trkpt>
      <trkpt lat="47.49052" lon="6.73678">
        <ele>376.3</ele>
        <time>2014-05-01T09:29:03.000Z</time>
      </trkpt>
      <trkpt lat="47.49057" lon="6.73679">
        <ele>376</ele>
        <time>2014-05-01T09:29:04.000Z</time>
      </trkpt>
      <trkpt lat="47.49061" lon="6.7368">
        <ele>375.4</ele>
        <time>2014-05-01T09:29:05.000Z</time>
      </trkpt>
      <trkpt lat="47.49068" lon="6.73687">
        <ele>329.8</ele>
        <time>2014-05-01T09:29:13.000Z</time>
      </trkpt>
      <trkpt lat="47.49072" lon="6.73693">
        <ele>328.2</ele>
        <time>2014-05-01T09:29:14.000Z</time>
      </trkpt>
      <trkpt lat="47.49076" lon="6.73697">
        <ele>330.7</ele>
        <time>2014-05-01T09:29:15.000Z</time>
      </trkpt>
      <trkpt lat="47.4908" lon="6.73702">
        <ele>330.3</ele>
        <time>2014-05-01T09:29:16.000Z</time>
      </trkpt>
      <trkpt lat="47.49083" lon="6.73706">
        <ele>330.4</ele>
        <time>2014-05-01T09:29:17.000Z</time>
      </trkpt>
      <trkpt lat="47.49088" lon="6.73711">
        <ele>330.8</ele>
        <time>2014-05-01T09:29:18.000Z</time>
      </trkpt>
      <trkpt lat="47.49093" lon="6.73713">
        <ele>331.8</ele>
        <time>2014-05-01T09:29:19.000Z</time>
      </trkpt>
      <trkpt lat="47.49097" lon="6.73715">
        <ele>331.7</ele>
        <time>2014-05-01T09:29:20.000Z</time>
      </trkpt>
      <trkpt lat="47.49102" lon="6.73716">
        <ele>332.2</ele>
        <time>2014-05-01T09:29:21.000Z</time>
      </trkpt>
      <trkpt lat="47.49107" lon="6.73718">
        <ele>331.4</ele>
        <time>2014-05-01T09:29:22.000Z</time>
      </trkpt>
      <trkpt lat="47.49111" lon="6.7372">
        <ele>331.9</ele>
        <time>2014-05-01T09:29:23.000Z</time>
      </trkpt>
      <trkpt lat="47.49116" lon="6.73722">
        <ele>335.1</ele>
        <time>2014-05-01T09:29:24.000Z</time>
      </trkpt>
      <trkpt lat="47.49121" lon="6.73723">
        <ele>336.3</ele>
        <time>2014-05-01T09:29:25.000Z</time>
      </trkpt>
      <trkpt lat="47.49126" lon="6.73725">
        <ele>338.2</ele>
        <time>2014-05-01T09:29:26.000Z</time>
      </trkpt>
      <trkpt lat="47.49131" lon="6.73726">
        <ele>340.2</ele>
        <time>2014-05-01T09:29:27.000Z</time>
      </trkpt>
      <trkpt lat="47.49136" lon="6.73728">
        <ele>340.4</ele>
        <time>2014-05-01T09:29:28.000Z</time>
      </trkpt>
      <trkpt lat="47.49141" lon="6.73728">
        <ele>340.3</ele>
        <time>2014-05-01T09:29:29.000Z</time>
      </trkpt>
      <trkpt lat="47.49156" lon="6.73728">
        <ele>341.8</ele>
        <time>2014-05-01T09:29:30.000Z</time>
      </trkpt>
      <trkpt lat="47.49161" lon="6.7373">
        <ele>342.9</ele>
        <time>2014-05-01T09:29:31.000Z</time>
      </trkpt>
      <trkpt lat="47.49167" lon="6.73732">
        <ele>343.1</ele>
        <time>2014-05-01T09:29:32.000Z</time>
      </trkpt>
      <trkpt lat="47.49173" lon="6.73734">
        <ele>343.4</ele>
        <time>2014-05-01T09:29:33.000Z</time>
      </trkpt>
      <trkpt lat="47.49178" lon="6.73736">
        <ele>343.2</ele>
        <time>2014-05-01T09:29:34.000Z</time>
      </trkpt>
      <trkpt lat="47.49183" lon="6.73739">
        <ele>343.9</ele>
        <time>2014-05-01T09:29:35.000Z</time>
      </trkpt>
      <trkpt lat="47.49189" lon="6.73739">
        <ele>343.6</ele>
        <time>2014-05-01T09:29:36.000Z</time>
      </trkpt>
      <trkpt lat="47.49194" lon="6.73742">
        <ele>343.8</ele>
        <time>2014-05-01T09:29:37.000Z</time>
      </trkpt>
      <trkpt lat="47.49199" lon="6.73745">
        <ele>344.3</ele>
        <time>2014-05-01T09:29:38.000Z</time>
      </trkpt>
      <trkpt lat="47.49203" lon="6.73747">
        <ele>344.6</ele>
        <time>2014-05-01T09:29:39.000Z</time>
      </trkpt>
      <trkpt lat="47.49208" lon="6.7375">
        <ele>344.8</ele>
        <time>2014-05-01T09:29:40.000Z</time>
      </trkpt>
      <trkpt lat="47.49213" lon="6.7375">
        <ele>343.5</ele>
        <time>2014-05-01T09:29:41.000Z</time>
      </trkpt>
      <trkpt lat="47.49217" lon="6.73752">
        <ele>343.2</ele>
        <time>2014-05-01T09:29:42.000Z</time>
      </trkpt>
      <trkpt lat="47.49221" lon="6.73755">
        <ele>343.3</ele>
        <time>2014-05-01T09:29:43.000Z</time>
      </trkpt>
      <trkpt lat="47.49226" lon="6.73757">
        <ele>343.1</ele>
        <time>2014-05-01T09:29:44.000Z</time>
      </trkpt>
      <trkpt lat="47.4923" lon="6.7376">
        <ele>343.5</ele>
        <time>2014-05-01T09:29:45.000Z</time>
      </trkpt>
      <trkpt lat="47.49235" lon="6.73762">
        <ele>343.7</ele>
        <time>2014-05-01T09:29:46.000Z</time>
      </trkpt>
      <trkpt lat="47.49239" lon="6.73763">
        <ele>342.8</ele>
        <time>2014-05-01T09:29:47.000Z</time>
      </trkpt>
      <trkpt lat="47.49243" lon="6.73766">
        <ele>343.3</ele>
        <time>2014-05-01T09:29:48.000Z</time>
      </trkpt>
      <trkpt lat="47.49247" lon="6.73768">
        <ele>343.5</ele>
        <time>2014-05-01T09:29:49.000Z</time>
      </trkpt>
      <trkpt lat="47.4925" lon="6.7377">
        <ele>343.4</ele>
        <time>2014-05-01T09:29:50.000Z</time>
      </trkpt>
      <trkpt lat="47.49254" lon="6.73773">
        <ele>343.7</ele>
        <time>2014-05-01T09:29:51.000Z</time>
      </trkpt>
      <trkpt lat="47.49257" lon="6.73776">
        <ele>344</ele>
        <time>2014-05-01T09:29:52.000Z</time>
      </trkpt>
      <trkpt lat="47.49261" lon="6.73778">
        <ele>344</ele>
        <time>2014-05-01T09:29:53.000Z</time>
      </trkpt>
      <trkpt lat="47.49264" lon="6.73781">
        <ele>344.3</ele>
        <time>2014-05-01T09:29:54.000Z</time>
      </trkpt>
      <trkpt lat="47.49268" lon="6.73784">
        <ele>344.3</ele>
        <time>2014-05-01T09:29:55.000Z</time>
      </trkpt>
      <trkpt lat="47.49272" lon="6.73787">
        <ele>343.8</ele>
        <time>2014-05-01T09:29:56.000Z</time>
      </trkpt>
      <trkpt lat="47.49276" lon="6.73789">
        <ele>343.4</ele>
        <time>2014-05-01T09:29:57.000Z</time>
      </trkpt>
      <trkpt lat="47.49279" lon="6.73793">
        <ele>343.1</ele>
        <time>2014-05-01T09:29:58.000Z</time>
      </trkpt>
      <trkpt lat="47.49283" lon="6.73796">
        <ele>342.9</ele>
        <time>2014-05-01T09:29:59.000Z</time>
      </trkpt>
      <trkpt lat="47.49287" lon="6.738">
        <ele>343.5</ele>
        <time>2014-05-01T09:30:00.000Z</time>
      </trkpt>
      <trkpt lat="47.49291" lon="6.73803">
        <ele>343.9</ele>
        <time>2014-05-01T09:30:01.000Z</time>
      </trkpt>
      <trkpt lat="47.49296" lon="6.73807">
        <ele>342</ele>
        <time>2014-05-01T09:30:02.000Z</time>
      </trkpt>
      <trkpt lat="47.49301" lon="6.7381">
        <ele>341.2</ele>
        <time>2014-05-01T09:30:03.000Z</time>
      </trkpt>
      <trkpt lat="47.49306" lon="6.73812">
        <ele>339.8</ele>
        <time>2014-05-01T09:30:04.000Z</time>
      </trkpt>
      <trkpt lat="47.49311" lon="6.73815">
        <ele>338.9</ele>
        <time>2014-05-01T09:30:05.000Z</time>
      </trkpt>
      <trkpt lat="47.49337" lon="6.73837">
        <ele>339.4</ele>
        <time>2014-05-01T09:30:13.000Z</time>
      </trkpt>
      <trkpt lat="47.49338" lon="6.73841">
        <ele>339.7</ele>
        <time>2014-05-01T09:30:14.000Z</time>
      </trkpt>
      <trkpt lat="47.49343" lon="6.73848">
        <ele>336.6</ele>
        <time>2014-05-01T09:30:15.000Z</time>
      </trkpt>
      <trkpt lat="47.49346" lon="6.73851">
        <ele>336</ele>
        <time>2014-05-01T09:30:16.000Z</time>
      </trkpt>
      <trkpt lat="47.49348" lon="6.73858">
        <ele>337.1</ele>
        <time>2014-05-01T09:30:17.000Z</time>
      </trkpt>
      <trkpt lat="47.49351" lon="6.73862">
        <ele>337.5</ele>
        <time>2014-05-01T09:30:18.000Z</time>
      </trkpt>
      <trkpt lat="47.49353" lon="6.73866">
        <ele>337.9</ele>
        <time>2014-05-01T09:30:19.000Z</time>
      </trkpt>
      <trkpt lat="47.49355" lon="6.7387">
        <ele>339</ele>
        <time>2014-05-01T09:30:20.000Z</time>
      </trkpt>
      <trkpt lat="47.49357" lon="6.73872">
        <ele>339.9</ele>
        <time>2014-05-01T09:30:21.000Z</time>
      </trkpt>
      <trkpt lat="47.4936" lon="6.73875">
        <ele>346.1</ele>
        <time>2014-05-01T09:30:26.000Z</time>
      </trkpt>
      <trkpt lat="47.4936" lon="6.73877">
        <ele>348</ele>
        <time>2014-05-01T09:30:27.000Z</time>
      </trkpt>
      <trkpt lat="47.49361" lon="6.73881">
        <ele>348.5</ele>
        <time>2014-05-01T09:30:29.000Z</time>
      </trkpt>
      <trkpt lat="47.49362" lon="6.73883">
        <ele>349.2</ele>
        <time>2014-05-01T09:30:30.000Z</time>
      </trkpt>
      <trkpt lat="47.49364" lon="6.73888">
        <ele>347.7</ele>
        <time>2014-05-01T09:30:32.000Z</time>
      </trkpt>
      <trkpt lat="47.49365" lon="6.73892">
        <ele>347.3</ele>
        <time>2014-05-01T09:30:33.000Z</time>
      </trkpt>
      <trkpt lat="47.49366" lon="6.73895">
        <ele>346.8</ele>
        <time>2014-05-01T09:30:34.000Z</time>
      </trkpt>
      <trkpt lat="47.49367" lon="6.73899">
        <ele>347.1</ele>
        <time>2014-05-01T09:30:35.000Z</time>
      </trkpt>
      <trkpt lat="47.49369" lon="6.73903">
        <ele>349.2</ele>
        <time>2014-05-01T09:30:36.000Z</time>
      </trkpt>
      <trkpt lat="47.4937" lon="6.73908">
        <ele>350.6</ele>
        <time>2014-05-01T09:30:37.000Z</time>
      </trkpt>
      <trkpt lat="47.4937" lon="6.73912">
        <ele>350.7</ele>
        <time>2014-05-01T09:30:38.000Z</time>
      </trkpt>
      <trkpt lat="47.49371" lon="6.73916">
        <ele>351.1</ele>
        <time>2014-05-01T09:30:39.000Z</time>
      </trkpt>
      <trkpt lat="47.49371" lon="6.73919">
        <ele>351.6</ele>
        <time>2014-05-01T09:30:40.000Z</time>
      </trkpt>
      <trkpt lat="47.49372" lon="6.73923">
        <ele>350.8</ele>
        <time>2014-05-01T09:30:41.000Z</time>
      </trkpt>
      <trkpt lat="47.49373" lon="6.73927">
        <ele>351</ele>
        <time>2014-05-01T09:30:42.000Z</time>
      </trkpt>
      <trkpt lat="47.49375" lon="6.73931">
        <ele>349.4</ele>
        <time>2014-05-01T09:30:43.000Z</time>
      </trkpt>
      <trkpt lat="47.49377" lon="6.73935">
        <ele>348.5</ele>
        <time>2014-05-01T09:30:44.000Z</time>
      </trkpt>
      <trkpt lat="47.49379" lon="6.73939">
        <ele>348.3</ele>
        <time>2014-05-01T09:30:45.000Z</time>
      </trkpt>
      <trkpt lat="47.49382" lon="6.73943">
        <ele>348.1</ele>
        <time>2014-05-01T09:30:46.000Z</time>
      </trkpt>
      <trkpt lat="47.49384" lon="6.73948">
        <ele>349.7</ele>
        <time>2014-05-01T09:30:47.000Z</time>
      </trkpt>
      <trkpt lat="47.49386" lon="6.73952">
        <ele>350.4</ele>
        <time>2014-05-01T09:30:48.000Z</time>
      </trkpt>
      <trkpt lat="47.49388" lon="6.73957">
        <ele>350.6</ele>
        <time>2014-05-01T09:30:49.000Z</time>
      </trkpt>
      <trkpt lat="47.49389" lon="6.73961">
        <ele>350.4</ele>
        <time>2014-05-01T09:30:50.000Z</time>
      </trkpt>
      <trkpt lat="47.4939" lon="6.73965">
        <ele>352</ele>
        <time>2014-05-01T09:30:51.000Z</time>
      </trkpt>
      <trkpt lat="47.49391" lon="6.73969">
        <ele>352.9</ele>
        <time>2014-05-01T09:30:52.000Z</time>
      </trkpt>
      <trkpt lat="47.49391" lon="6.73972">
        <ele>354.7</ele>
        <time>2014-05-01T09:30:53.000Z</time>
      </trkpt>
      <trkpt lat="47.49391" lon="6.73978">
        <ele>354.8</ele>
        <time>2014-05-01T09:30:55.000Z</time>
      </trkpt>
      <trkpt lat="47.49392" lon="6.73982">
        <ele>355.5</ele>
        <time>2014-05-01T09:30:56.000Z</time>
      </trkpt>
      <trkpt lat="47.49393" lon="6.73987">
        <ele>355.5</ele>
        <time>2014-05-01T09:30:57.000Z</time>
      </trkpt>
      <trkpt lat="47.49394" lon="6.73992">
        <ele>355.9</ele>
        <time>2014-05-01T09:30:58.000Z</time>
      </trkpt>
      <trkpt lat="47.49395" lon="6.73998">
        <ele>353.8</ele>
        <time>2014-05-01T09:30:59.000Z</time>
      </trkpt>
      <trkpt lat="47.49396" lon="6.74003">
        <ele>352.6</ele>
        <time>2014-05-01T09:31:00.000Z</time>
      </trkpt>
      <trkpt lat="47.49397" lon="6.74008">
        <ele>353.8</ele>
        <time>2014-05-01T09:31:01.000Z</time>
      </trkpt>
      <trkpt lat="47.49398" lon="6.74013">
        <ele>354.5</ele>
        <time>2014-05-01T09:31:02.000Z</time>
      </trkpt>
      <trkpt lat="47.49398" lon="6.74017">
        <ele>354.4</ele>
        <time>2014-05-01T09:31:03.000Z</time>
      </trkpt>
      <trkpt lat="47.49399" lon="6.74021">
        <ele>355</ele>
        <time>2014-05-01T09:31:04.000Z</time>
      </trkpt>
      <trkpt lat="47.494" lon="6.74024">
        <ele>355.6</ele>
        <time>2014-05-01T09:31:05.000Z</time>
      </trkpt>
      <trkpt lat="47.49405" lon="6.7405">
        <ele>355.4</ele>
        <time>2014-05-01T09:31:13.000Z</time>
      </trkpt>
      <trkpt lat="47.49405" lon="6.74053">
        <ele>355.9</ele>
        <time>2014-05-01T09:31:14.000Z</time>
      </trkpt>
      <trkpt lat="47.49404" lon="6.74057">
        <ele>356</ele>
        <time>2014-05-01T09:31:15.000Z</time>
      </trkpt>
      <trkpt lat="47.49404" lon="6.74061">
        <ele>356.1</ele>
        <time>2014-05-01T09:31:16.000Z</time>
      </trkpt>
      <trkpt lat="47.49403" lon="6.74064">
        <ele>356.3</ele>
        <time>2014-05-01T09:31:17.000Z</time>
      </trkpt>
      <trkpt lat="47.494" lon="6.74069">
        <ele>356.7</ele>
        <time>2014-05-01T09:31:19.000Z</time>
      </trkpt>
      <trkpt lat="47.49399" lon="6.74071">
        <ele>358.3</ele>
        <time>2014-05-01T09:31:20.000Z</time>
      </trkpt>
      <trkpt lat="47.49395" lon="6.74076">
        <ele>363.1</ele>
        <time>2014-05-01T09:31:22.000Z</time>
      </trkpt>
      <trkpt lat="47.49394" lon="6.74079">
        <ele>364.2</ele>
        <time>2014-05-01T09:31:23.000Z</time>
      </trkpt>
      <trkpt lat="47.49393" lon="6.74082">
        <ele>364.1</ele>
        <time>2014-05-01T09:31:24.000Z</time>
      </trkpt>
      <trkpt lat="47.49393" lon="6.74086">
        <ele>366.3</ele>
        <time>2014-05-01T09:31:25.000Z</time>
      </trkpt>
      <trkpt lat="47.49394" lon="6.74089">
        <ele>367.8</ele>
        <time>2014-05-01T09:31:26.000Z</time>
      </trkpt>
      <trkpt lat="47.49395" lon="6.74093">
        <ele>368.7</ele>
        <time>2014-05-01T09:31:27.000Z</time>
      </trkpt>
      <trkpt lat="47.49395" lon="6.74096">
        <ele>369.9</ele>
        <time>2014-05-01T09:31:28.000Z</time>
      </trkpt>
      <trkpt lat="47.49395" lon="6.741">
        <ele>369.5</ele>
        <time>2014-05-01T09:31:29.000Z</time>
      </trkpt>
      <trkpt lat="47.49395" lon="6.74104">
        <ele>370.5</ele>
        <time>2014-05-01T09:31:30.000Z</time>
      </trkpt>
      <trkpt lat="47.49395" lon="6.74107">
        <ele>370.7</ele>
        <time>2014-05-01T09:31:31.000Z</time>
      </trkpt>
      <trkpt lat="47.49395" lon="6.74111">
        <ele>366.8</ele>
        <time>2014-05-01T09:31:32.000Z</time>
      </trkpt>
      <trkpt lat="47.49394" lon="6.74115">
        <ele>367.8</ele>
        <time>2014-05-01T09:31:33.000Z</time>
      </trkpt>
      <trkpt lat="47.49392" lon="6.7412">
        <ele>367.9</ele>
        <time>2014-05-01T09:31:35.000Z</time>
      </trkpt>
      <trkpt lat="47.49392" lon="6.74122">
        <ele>370.6</ele>
        <time>2014-05-01T09:31:36.000Z</time>
      </trkpt>
      <trkpt lat="47.49391" lon="6.74127">
        <ele>372.7</ele>
        <time>2014-05-01T09:31:38.000Z</time>
      </trkpt>
      <trkpt lat="47.49392" lon="6.7413">
        <ele>373</ele>
        <time>2014-05-01T09:31:39.000Z</time>
      </trkpt>
      <trkpt lat="47.49392" lon="6.74135">
        <ele>375.7</ele>
        <time>2014-05-01T09:31:41.001Z</time>
      </trkpt>
      <trkpt lat="47.4939" lon="6.74137">
        <ele>376.7</ele>
        <time>2014-05-01T09:31:42.000Z</time>
      </trkpt>
      <trkpt lat="47.49388" lon="6.74139">
        <ele>377.5</ele>
        <time>2014-05-01T09:31:43.000Z</time>
      </trkpt>
      <trkpt lat="47.49387" lon="6.74142">
        <ele>379</ele>
        <time>2014-05-01T09:31:44.000Z</time>
      </trkpt>
      <trkpt lat="47.49386" lon="6.74146">
        <ele>380.4</ele>
        <time>2014-05-01T09:31:45.999Z</time>
      </trkpt>
      <trkpt lat="47.49385" lon="6.74149">
        <ele>383.9</ele>
        <time>2014-05-01T09:31:47.000Z</time>
      </trkpt>
      <trkpt lat="47.49384" lon="6.74156">
        <ele>384.2</ele>
        <time>2014-05-01T09:31:49.000Z</time>
      </trkpt>
      <trkpt lat="47.49384" lon="6.74159">
        <ele>382</ele>
        <time>2014-05-01T09:31:50.000Z</time>
      </trkpt>
      <trkpt lat="47.49383" lon="6.74162">
        <ele>382.2</ele>
        <time>2014-05-01T09:31:51.000Z</time>
      </trkpt>
      <trkpt lat="47.49382" lon="6.74165">
        <ele>382.7</ele>
        <time>2014-05-01T09:31:52.000Z</time>
      </trkpt>
      <trkpt lat="47.49382" lon="6.74171">
        <ele>384.9</ele>
        <time>2014-05-01T09:31:54.000Z</time>
      </trkpt>
      <trkpt lat="47.49381" lon="6.74174">
        <ele>386.2</ele>
        <time>2014-05-01T09:31:55.000Z</time>
      </trkpt>
      <trkpt lat="47.4938" lon="6.7418">
        <ele>381.6</ele>
        <time>2014-05-01T09:31:57.000Z</time>
      </trkpt>
      <trkpt lat="47.49378" lon="6.74184">
        <ele>382.7</ele>
        <time>2014-05-01T09:31:58.000Z</time>
      </trkpt>
      <trkpt lat="47.49379" lon="6.74189">
        <ele>385.9</ele>
        <time>2014-05-01T09:32:00.000Z</time>
      </trkpt>
      <trkpt lat="47.4938" lon="6.74191">
        <ele>386.2</ele>
        <time>2014-05-01T09:32:01.000Z</time>
      </trkpt>
      <trkpt lat="47.49381" lon="6.74195">
        <ele>388.7</ele>
        <time>2014-05-01T09:32:03.000Z</time>
      </trkpt>
      <trkpt lat="47.49381" lon="6.74198">
        <ele>387</ele>
        <time>2014-05-01T09:32:04.000Z</time>
      </trkpt>
      <trkpt lat="47.4938" lon="6.742">
        <ele>386.8</ele>
        <time>2014-05-01T09:32:05.000Z</time>
      </trkpt>
      <trkpt lat="47.49378" lon="6.74208">
        <ele>383.3</ele>
        <time>2014-05-01T09:32:08.000Z</time>
      </trkpt>
      <trkpt lat="47.49377" lon="6.74214">
        <ele>386.2</ele>
        <time>2014-05-01T09:32:09.999Z</time>
      </trkpt>
      <trkpt lat="47.49378" lon="6.74216">
        <ele>386.7</ele>
        <time>2014-05-01T09:32:11.000Z</time>
      </trkpt>
      <trkpt lat="47.49378" lon="6.74222">
        <ele>389.7</ele>
        <time>2014-05-01T09:32:14.000Z</time>
      </trkpt>
      <trkpt lat="47.49378" lon="6.74224">
        <ele>391.1</ele>
        <time>2014-05-01T09:32:15.000Z</time>
      </trkpt>
      <trkpt lat="47.49378" lon="6.7423">
        <ele>395.8</ele>
        <time>2014-05-01T09:32:17.000Z</time>
      </trkpt>
      <trkpt lat="47.49379" lon="6.74232">
        <ele>397.5</ele>
        <time>2014-05-01T09:32:18.000Z</time>
      </trkpt>
      <trkpt lat="47.49379" lon="6.74236">
        <ele>396.7</ele>
        <time>2014-05-01T09:32:19.000Z</time>
      </trkpt>
      <trkpt lat="47.49379" lon="6.74239">
        <ele>398</ele>
        <time>2014-05-01T09:32:20.000Z</time>
      </trkpt>
      <trkpt lat="47.49378" lon="6.74242">
        <ele>395.9</ele>
        <time>2014-05-01T09:32:21.000Z</time>
      </trkpt>
      <trkpt lat="47.49376" lon="6.74246">
        <ele>396.6</ele>
        <time>2014-05-01T09:32:22.000Z</time>
      </trkpt>
      <trkpt lat="47.49375" lon="6.74249">
        <ele>396.2</ele>
        <time>2014-05-01T09:32:23.000Z</time>
      </trkpt>
      <trkpt lat="47.49374" lon="6.74252">
        <ele>396.5</ele>
        <time>2014-05-01T09:32:24.000Z</time>
      </trkpt>
      <trkpt lat="47.49372" lon="6.74257">
        <ele>396.9</ele>
        <time>2014-05-01T09:32:25.999Z</time>
      </trkpt>
      <trkpt lat="47.49371" lon="6.7426">
        <ele>397.1</ele>
        <time>2014-05-01T09:32:27.000Z</time>
      </trkpt>
      <trkpt lat="47.49368" lon="6.74265">
        <ele>397.3</ele>
        <time>2014-05-01T09:32:29.000Z</time>
      </trkpt>
      <trkpt lat="47.49367" lon="6.74267">
        <ele>396.7</ele>
        <time>2014-05-01T09:32:30.000Z</time>
      </trkpt>
      <trkpt lat="47.49364" lon="6.7427">
        <ele>395.6</ele>
        <time>2014-05-01T09:32:32.000Z</time>
      </trkpt>
      <trkpt lat="47.49363" lon="6.74272">
        <ele>395.4</ele>
        <time>2014-05-01T09:32:33.000Z</time>
      </trkpt>
      <trkpt lat="47.4936" lon="6.74277">
        <ele>392.7</ele>
        <time>2014-05-01T09:32:35.000Z</time>
      </trkpt>
      <trkpt lat="47.49359" lon="6.7428">
        <ele>392.5</ele>
        <time>2014-05-01T09:32:36.000Z</time>
      </trkpt>
      <trkpt lat="47.49358" lon="6.74284">
        <ele>392.4</ele>
        <time>2014-05-01T09:32:37.000Z</time>
      </trkpt>
      <trkpt lat="47.49358" lon="6.74287">
        <ele>393.1</ele>
        <time>2014-05-01T09:32:38.000Z</time>
      </trkpt>
      <trkpt lat="47.49356" lon="6.74293">
        <ele>391.7</ele>
        <time>2014-05-01T09:32:40.000Z</time>
      </trkpt>
      <trkpt lat="47.49355" lon="6.74296">
        <ele>392.5</ele>
        <time>2014-05-01T09:32:41.000Z</time>
      </trkpt>
      <trkpt lat="47.49353" lon="6.74301">
        <ele>394.4</ele>
        <time>2014-05-01T09:32:43.000Z</time>
      </trkpt>
      <trkpt lat="47.49353" lon="6.74303">
        <ele>395.2</ele>
        <time>2014-05-01T09:32:44.000Z</time>
      </trkpt>
      <trkpt lat="47.49352" lon="6.74308">
        <ele>385.5</ele>
        <time>2014-05-01T09:32:46.000Z</time>
      </trkpt>
      <trkpt lat="47.49352" lon="6.74311">
        <ele>383.2</ele>
        <time>2014-05-01T09:32:47.000Z</time>
      </trkpt>
      <trkpt lat="47.49352" lon="6.74317">
        <ele>382.9</ele>
        <time>2014-05-01T09:32:49.000Z</time>
      </trkpt>
      <trkpt lat="47.49352" lon="6.74321">
        <ele>382.9</ele>
        <time>2014-05-01T09:32:50.000Z</time>
      </trkpt>
      <trkpt lat="47.49352" lon="6.74324">
        <ele>382.2</ele>
        <time>2014-05-01T09:32:51.000Z</time>
      </trkpt>
      <trkpt lat="47.49352" lon="6.74327">
        <ele>382.9</ele>
        <time>2014-05-01T09:32:52.000Z</time>
      </trkpt>
      <trkpt lat="47.49351" lon="6.74331">
        <ele>382.6</ele>
        <time>2014-05-01T09:32:53.000Z</time>
      </trkpt>
      <trkpt lat="47.49351" lon="6.74334">
        <ele>381.9</ele>
        <time>2014-05-01T09:32:54.000Z</time>
      </trkpt>
      <trkpt lat="47.4935" lon="6.74337">
        <ele>382</ele>
        <time>2014-05-01T09:32:55.000Z</time>
      </trkpt>
      <trkpt lat="47.49349" lon="6.74341">
        <ele>381.1</ele>
        <time>2014-05-01T09:32:56.000Z</time>
      </trkpt>
      <trkpt lat="47.49349" lon="6.74345">
        <ele>381.2</ele>
        <time>2014-05-01T09:32:57.000Z</time>
      </trkpt>
      <trkpt lat="47.49349" lon="6.74349">
        <ele>381.3</ele>
        <time>2014-05-01T09:32:58.000Z</time>
      </trkpt>
      <trkpt lat="47.49348" lon="6.74353">
        <ele>378.6</ele>
        <time>2014-05-01T09:32:59.000Z</time>
      </trkpt>
      <trkpt lat="47.49348" lon="6.74356">
        <ele>377.1</ele>
        <time>2014-05-01T09:33:00.000Z</time>
      </trkpt>
      <trkpt lat="47.49347" lon="6.74363">
        <ele>375.1</ele>
        <time>2014-05-01T09:33:02.000Z</time>
      </trkpt>
      <trkpt lat="47.49347" lon="6.74366">
        <ele>374.1</ele>
        <time>2014-05-01T09:33:03.000Z</time>
      </trkpt>
      <trkpt lat="47.49346" lon="6.74371">
        <ele>384.5</ele>
        <time>2014-05-01T09:33:05.000Z</time>
      </trkpt>
      <trkpt lat="47.49343" lon="6.74399">
        <ele>382.7</ele>
        <time>2014-05-01T09:33:13.000Z</time>
      </trkpt>
      <trkpt lat="47.49343" lon="6.74403">
        <ele>379.5</ele>
        <time>2014-05-01T09:33:14.000Z</time>
      </trkpt>
      <trkpt lat="47.49345" lon="6.74407">
        <ele>379.7</ele>
        <time>2014-05-01T09:33:15.000Z</time>
      </trkpt>
      <trkpt lat="47.49345" lon="6.74413">
        <ele>377.7</ele>
        <time>2014-05-01T09:33:17.000Z</time>
      </trkpt>
      <trkpt lat="47.49344" lon="6.74415">
        <ele>377.4</ele>
        <time>2014-05-01T09:33:18.000Z</time>
      </trkpt>
      <trkpt lat="47.49345" lon="6.74421">
        <ele>378.8</ele>
        <time>2014-05-01T09:33:20.000Z</time>
      </trkpt>
      <trkpt lat="47.49345" lon="6.74425">
        <ele>377.8</ele>
        <time>2014-05-01T09:33:21.000Z</time>
      </trkpt>
      <trkpt lat="47.49346" lon="6.7443">
        <ele>377.8</ele>
        <time>2014-05-01T09:33:23.000Z</time>
      </trkpt>
      <trkpt lat="47.49346" lon="6.74433">
        <ele>377.8</ele>
        <time>2014-05-01T09:33:24.000Z</time>
      </trkpt>
      <trkpt lat="47.49345" lon="6.74438">
        <ele>377.9</ele>
        <time>2014-05-01T09:33:26.000Z</time>
      </trkpt>
      <trkpt lat="47.49345" lon="6.74441">
        <ele>378.2</ele>
        <time>2014-05-01T09:33:27.000Z</time>
      </trkpt>
      <trkpt lat="47.49344" lon="6.74445">
        <ele>378</ele>
        <time>2014-05-01T09:33:28.000Z</time>
      </trkpt>
      <trkpt lat="47.49344" lon="6.74449">
        <ele>378.4</ele>
        <time>2014-05-01T09:33:29.000Z</time>
      </trkpt>
      <trkpt lat="47.49344" lon="6.74452">
        <ele>373.4</ele>
        <time>2014-05-01T09:33:30.000Z</time>
      </trkpt>
      <trkpt lat="47.49344" lon="6.74456">
        <ele>374.5</ele>
        <time>2014-05-01T09:33:31.000Z</time>
      </trkpt>
      <trkpt lat="47.49345" lon="6.74462">
        <ele>377.4</ele>
        <time>2014-05-01T09:33:33.001Z</time>
      </trkpt>
      <trkpt lat="47.49345" lon="6.74464">
        <ele>376.4</ele>
        <time>2014-05-01T09:33:34.000Z</time>
      </trkpt>
      <trkpt lat="47.49344" lon="6.74469">
        <ele>376.4</ele>
        <time>2014-05-01T09:33:36.000Z</time>
      </trkpt>
      <trkpt lat="47.49344" lon="6.74471">
        <ele>376.7</ele>
        <time>2014-05-01T09:33:37.000Z</time>
      </trkpt>
      <trkpt lat="47.49343" lon="6.74475">
        <ele>378.5</ele>
        <time>2014-05-01T09:33:39.000Z</time>
      </trkpt>
      <trkpt lat="47.49343" lon="6.74478">
        <ele>378.9</ele>
        <time>2014-05-01T09:33:40.000Z</time>
      </trkpt>
      <trkpt lat="47.49342" lon="6.74481">
        <ele>378.9</ele>
        <time>2014-05-01T09:33:41.000Z</time>
      </trkpt>
      <trkpt lat="47.49341" lon="6.74485">
        <ele>377.8</ele>
        <time>2014-05-01T09:33:42.000Z</time>
      </trkpt>
      <trkpt lat="47.49341" lon="6.74488">
        <ele>377.9</ele>
        <time>2014-05-01T09:33:43.000Z</time>
      </trkpt>
      <trkpt lat="47.4934" lon="6.74492">
        <ele>378.2</ele>
        <time>2014-05-01T09:33:44.000Z</time>
      </trkpt>
      <trkpt lat="47.49339" lon="6.74495">
        <ele>379.8</ele>
        <time>2014-05-01T09:33:45.000Z</time>
      </trkpt>
      <trkpt lat="47.49339" lon="6.74499">
        <ele>380.4</ele>
        <time>2014-05-01T09:33:46.000Z</time>
      </trkpt>
      <trkpt lat="47.49338" lon="6.74503">
        <ele>380.9</ele>
        <time>2014-05-01T09:33:47.000Z</time>
      </trkpt>
      <trkpt lat="47.49337" lon="6.74506">
        <ele>380.7</ele>
        <time>2014-05-01T09:33:48.000Z</time>
      </trkpt>
      <trkpt lat="47.49337" lon="6.7451">
        <ele>380.6</ele>
        <time>2014-05-01T09:33:49.000Z</time>
      </trkpt>
      <trkpt lat="47.49337" lon="6.74515">
        <ele>380.3</ele>
        <time>2014-05-01T09:33:50.000Z</time>
      </trkpt>
      <trkpt lat="47.49337" lon="6.7452">
        <ele>382.8</ele>
        <time>2014-05-01T09:33:51.000Z</time>
      </trkpt>
      <trkpt lat="47.49336" lon="6.74525">
        <ele>383</ele>
        <time>2014-05-01T09:33:52.000Z</time>
      </trkpt>
      <trkpt lat="47.49336" lon="6.74529">
        <ele>383.3</ele>
        <time>2014-05-01T09:33:53.000Z</time>
      </trkpt>
      <trkpt lat="47.49335" lon="6.74533">
        <ele>384</ele>
        <time>2014-05-01T09:33:54.000Z</time>
      </trkpt>
      <trkpt lat="47.49334" lon="6.74537">
        <ele>385.2</ele>
        <time>2014-05-01T09:33:55.000Z</time>
      </trkpt>
      <trkpt lat="47.49334" lon="6.74541">
        <ele>384.7</ele>
        <time>2014-05-01T09:33:56.000Z</time>
      </trkpt>
      <trkpt lat="47.49334" lon="6.74545">
        <ele>385.2</ele>
        <time>2014-05-01T09:33:57.000Z</time>
      </trkpt>
      <trkpt lat="47.49334" lon="6.74549">
        <ele>385.4</ele>
        <time>2014-05-01T09:33:58.000Z</time>
      </trkpt>
      <trkpt lat="47.49334" lon="6.74553">
        <ele>385.5</ele>
        <time>2014-05-01T09:33:59.000Z</time>
      </trkpt>
      <trkpt lat="47.49334" lon="6.74557">
        <ele>385.3</ele>
        <time>2014-05-01T09:34:00.000Z</time>
      </trkpt>
      <trkpt lat="47.49334" lon="6.74563">
        <ele>386</ele>
        <time>2014-05-01T09:34:02.000Z</time>
      </trkpt>
      <trkpt lat="47.49334" lon="6.74566">
        <ele>382.1</ele>
        <time>2014-05-01T09:34:03.000Z</time>
      </trkpt>
      <trkpt lat="47.49334" lon="6.7457">
        <ele>382</ele>
        <time>2014-05-01T09:34:04.000Z</time>
      </trkpt>
      <trkpt lat="47.49333" lon="6.74574">
        <ele>381.9</ele>
        <time>2014-05-01T09:34:05.000Z</time>
      </trkpt>
      <trkpt lat="47.49329" lon="6.74609">
        <ele>379.4</ele>
        <time>2014-05-01T09:34:13.000Z</time>
      </trkpt>
      <trkpt lat="47.49327" lon="6.74615">
        <ele>379</ele>
        <time>2014-05-01T09:34:14.000Z</time>
      </trkpt>
      <trkpt lat="47.49326" lon="6.74621">
        <ele>378.8</ele>
        <time>2014-05-01T09:34:15.000Z</time>
      </trkpt>
      <trkpt lat="47.49325" lon="6.74628">
        <ele>375</ele>
        <time>2014-05-01T09:34:16.000Z</time>
      </trkpt>
      <trkpt lat="47.49326" lon="6.74634">
        <ele>374</ele>
        <time>2014-05-01T09:34:17.000Z</time>
      </trkpt>
      <trkpt lat="47.49326" lon="6.7464">
        <ele>372.7</ele>
        <time>2014-05-01T09:34:18.000Z</time>
      </trkpt>
      <trkpt lat="47.49327" lon="6.74646">
        <ele>372.1</ele>
        <time>2014-05-01T09:34:19.000Z</time>
      </trkpt>
      <trkpt lat="47.49328" lon="6.74652">
        <ele>371.8</ele>
        <time>2014-05-01T09:34:20.000Z</time>
      </trkpt>
      <trkpt lat="47.49328" lon="6.74658">
        <ele>371.4</ele>
        <time>2014-05-01T09:34:21.000Z</time>
      </trkpt>
      <trkpt lat="47.49328" lon="6.74664">
        <ele>370.9</ele>
        <time>2014-05-01T09:34:22.000Z</time>
      </trkpt>
      <trkpt lat="47.49329" lon="6.7467">
        <ele>370</ele>
        <time>2014-05-01T09:34:23.000Z</time>
      </trkpt>
      <trkpt lat="47.4933" lon="6.74677">
        <ele>370.3</ele>
        <time>2014-05-01T09:34:24.000Z</time>
      </trkpt>
      <trkpt lat="47.4933" lon="6.74683">
        <ele>370.4</ele>
        <time>2014-05-01T09:34:25.000Z</time>
      </trkpt>
      <trkpt lat="47.49329" lon="6.74689">
        <ele>370.7</ele>
        <time>2014-05-01T09:34:26.000Z</time>
      </trkpt>
      <trkpt lat="47.49329" lon="6.74695">
        <ele>369.8</ele>
        <time>2014-05-01T09:34:27.000Z</time>
      </trkpt>
      <trkpt lat="47.49328" lon="6.747">
        <ele>369.8</ele>
        <time>2014-05-01T09:34:28.000Z</time>
      </trkpt>
      <trkpt lat="47.49327" lon="6.74705">
        <ele>369.6</ele>
        <time>2014-05-01T09:34:29.000Z</time>
      </trkpt>
      <trkpt lat="47.49326" lon="6.74709">
        <ele>370.9</ele>
        <time>2014-05-01T09:34:30.000Z</time>
      </trkpt>
      <trkpt lat="47.49326" lon="6.74714">
        <ele>372.1</ele>
        <time>2014-05-01T09:34:31.000Z</time>
      </trkpt>
      <trkpt lat="47.49327" lon="6.74719">
        <ele>373.1</ele>
        <time>2014-05-01T09:34:32.000Z</time>
      </trkpt>
      <trkpt lat="47.49327" lon="6.74723">
        <ele>374.4</ele>
        <time>2014-05-01T09:34:33.000Z</time>
      </trkpt>
      <trkpt lat="47.49327" lon="6.74727">
        <ele>373.8</ele>
        <time>2014-05-01T09:34:34.000Z</time>
      </trkpt>
      <trkpt lat="47.49329" lon="6.74731">
        <ele>373.1</ele>
        <time>2014-05-01T09:34:35.000Z</time>
      </trkpt>
      <trkpt lat="47.4933" lon="6.74735">
        <ele>376</ele>
        <time>2014-05-01T09:34:36.000Z</time>
      </trkpt>
      <trkpt lat="47.49331" lon="6.74739">
        <ele>377.4</ele>
        <time>2014-05-01T09:34:37.000Z</time>
      </trkpt>
      <trkpt lat="47.49331" lon="6.74743">
        <ele>378.6</ele>
        <time>2014-05-01T09:34:38.000Z</time>
      </trkpt>
      <trkpt lat="47.49331" lon="6.74748">
        <ele>378.7</ele>
        <time>2014-05-01T09:34:39.000Z</time>
      </trkpt>
      <trkpt lat="47.49332" lon="6.74753">
        <ele>378.8</ele>
        <time>2014-05-01T09:34:40.000Z</time>
      </trkpt>
      <trkpt lat="47.49332" lon="6.74759">
        <ele>376.6</ele>
        <time>2014-05-01T09:34:41.000Z</time>
      </trkpt>
      <trkpt lat="47.49333" lon="6.74765">
        <ele>375.7</ele>
        <time>2014-05-01T09:34:42.000Z</time>
      </trkpt>
      <trkpt lat="47.49334" lon="6.74771">
        <ele>374.3</ele>
        <time>2014-05-01T09:34:43.000Z</time>
      </trkpt>
      <trkpt lat="47.49335" lon="6.74777">
        <ele>373.4</ele>
        <time>2014-05-01T09:34:44.000Z</time>
      </trkpt>
      <trkpt lat="47.49336" lon="6.74783">
        <ele>372.4</ele>
        <time>2014-05-01T09:34:45.000Z</time>
      </trkpt>
      <trkpt lat="47.49336" lon="6.74789">
        <ele>371.8</ele>
        <time>2014-05-01T09:34:46.000Z</time>
      </trkpt>
      <trkpt lat="47.49336" lon="6.74794">
        <ele>371.4</ele>
        <time>2014-05-01T09:34:47.000Z</time>
      </trkpt>
      <trkpt lat="47.49335" lon="6.74799">
        <ele>371</ele>
        <time>2014-05-01T09:34:48.000Z</time>
      </trkpt>
      <trkpt lat="47.49335" lon="6.74804">
        <ele>370.8</ele>
        <time>2014-05-01T09:34:49.000Z</time>
      </trkpt>
      <trkpt lat="47.49334" lon="6.7481">
        <ele>371.2</ele>
        <time>2014-05-01T09:34:50.000Z</time>
      </trkpt>
      <trkpt lat="47.49333" lon="6.74815">
        <ele>369.5</ele>
        <time>2014-05-01T09:34:51.000Z</time>
      </trkpt>
      <trkpt lat="47.49332" lon="6.7482">
        <ele>370.3</ele>
        <time>2014-05-01T09:34:52.000Z</time>
      </trkpt>
      <trkpt lat="47.49331" lon="6.74828">
        <ele>371.3</ele>
        <time>2014-05-01T09:34:53.000Z</time>
      </trkpt>
      <trkpt lat="47.4933" lon="6.74835">
        <ele>372.1</ele>
        <time>2014-05-01T09:34:53.999Z</time>
      </trkpt>
      <trkpt lat="47.49333" lon="6.74841">
        <ele>370.1</ele>
        <time>2014-05-01T09:34:55.000Z</time>
      </trkpt>
      <trkpt lat="47.49332" lon="6.74848">
        <ele>369.2</ele>
        <time>2014-05-01T09:34:56.000Z</time>
      </trkpt>
      <trkpt lat="47.49332" lon="6.74854">
        <ele>368.3</ele>
        <time>2014-05-01T09:34:57.000Z</time>
      </trkpt>
      <trkpt lat="47.49332" lon="6.7486">
        <ele>368.2</ele>
        <time>2014-05-01T09:34:58.000Z</time>
      </trkpt>
      <trkpt lat="47.49331" lon="6.74868">
        <ele>368.5</ele>
        <time>2014-05-01T09:34:59.000Z</time>
      </trkpt>
      <trkpt lat="47.49331" lon="6.74875">
        <ele>368.9</ele>
        <time>2014-05-01T09:35:00.000Z</time>
      </trkpt>
      <trkpt lat="47.49331" lon="6.74882">
        <ele>368.8</ele>
        <time>2014-05-01T09:35:01.000Z</time>
      </trkpt>
      <trkpt lat="47.49331" lon="6.74889">
        <ele>368.6</ele>
        <time>2014-05-01T09:35:02.000Z</time>
      </trkpt>
      <trkpt lat="47.49331" lon="6.74896">
        <ele>369.3</ele>
        <time>2014-05-01T09:35:03.000Z</time>
      </trkpt>
      <trkpt lat="47.49334" lon="6.74904">
        <ele>370</ele>
        <time>2014-05-01T09:35:04.000Z</time>
      </trkpt>
      <trkpt lat="47.49335" lon="6.74912">
        <ele>369.5</ele>
        <time>2014-05-01T09:35:05.000Z</time>
      </trkpt>
      <trkpt lat="47.49336" lon="6.74939">
        <ele>368.9</ele>
        <time>2014-05-01T09:35:13.000Z</time>
      </trkpt>
      <trkpt lat="47.49337" lon="6.74942">
        <ele>368.9</ele>
        <time>2014-05-01T09:35:14.000Z</time>
      </trkpt>
      <trkpt lat="47.49336" lon="6.74946">
        <ele>369.2</ele>
        <time>2014-05-01T09:35:15.000Z</time>
      </trkpt>
      <trkpt lat="47.49336" lon="6.7495">
        <ele>368.4</ele>
        <time>2014-05-01T09:35:16.000Z</time>
      </trkpt>
      <trkpt lat="47.49335" lon="6.74954">
        <ele>367.8</ele>
        <time>2014-05-01T09:35:17.000Z</time>
      </trkpt>
      <trkpt lat="47.49335" lon="6.74957">
        <ele>368.7</ele>
        <time>2014-05-01T09:35:18.000Z</time>
      </trkpt>
      <trkpt lat="47.49335" lon="6.74961">
        <ele>368.4</ele>
        <time>2014-05-01T09:35:19.000Z</time>
      </trkpt>
      <trkpt lat="47.49334" lon="6.74965">
        <ele>367.5</ele>
        <time>2014-05-01T09:35:20.000Z</time>
      </trkpt>
      <trkpt lat="47.49332" lon="6.7498">
        <ele>372.3</ele>
        <time>2014-05-01T09:35:21.000Z</time>
      </trkpt>
      <trkpt lat="47.49332" lon="6.74992">
        <ele>371.9</ele>
        <time>2014-05-01T09:35:22.000Z</time>
      </trkpt>
      <trkpt lat="47.4933" lon="6.74996">
        <ele>372.3</ele>
        <time>2014-05-01T09:35:23.000Z</time>
      </trkpt>
      <trkpt lat="47.49331" lon="6.75003">
        <ele>372.2</ele>
        <time>2014-05-01T09:35:24.000Z</time>
      </trkpt>
      <trkpt lat="47.49329" lon="6.75006">
        <ele>374.8</ele>
        <time>2014-05-01T09:35:25.000Z</time>
      </trkpt>
      <trkpt lat="47.49329" lon="6.75012">
        <ele>373.1</ele>
        <time>2014-05-01T09:35:26.000Z</time>
      </trkpt>
      <trkpt lat="47.49329" lon="6.75017">
        <ele>373.1</ele>
        <time>2014-05-01T09:35:27.000Z</time>
      </trkpt>
      <trkpt lat="47.49328" lon="6.75023">
        <ele>371.8</ele>
        <time>2014-05-01T09:35:28.000Z</time>
      </trkpt>
      <trkpt lat="47.49326" lon="6.7503">
        <ele>369.3</ele>
        <time>2014-05-01T09:35:29.000Z</time>
      </trkpt>
      <trkpt lat="47.49322" lon="6.75035">
        <ele>369.3</ele>
        <time>2014-05-01T09:35:30.000Z</time>
      </trkpt>
      <trkpt lat="47.4932" lon="6.7504">
        <ele>368.6</ele>
        <time>2014-05-01T09:35:31.000Z</time>
      </trkpt>
      <trkpt lat="47.49319" lon="6.75048">
        <ele>367.5</ele>
        <time>2014-05-01T09:35:32.000Z</time>
      </trkpt>
      <trkpt lat="47.49318" lon="6.75054">
        <ele>366.9</ele>
        <time>2014-05-01T09:35:33.000Z</time>
      </trkpt>
      <trkpt lat="47.49316" lon="6.75056">
        <ele>368.7</ele>
        <time>2014-05-01T09:35:34.000Z</time>
      </trkpt>
      <trkpt lat="47.49315" lon="6.7506">
        <ele>368.7</ele>
        <time>2014-05-01T09:35:35.000Z</time>
      </trkpt>
      <trkpt lat="47.49313" lon="6.75062">
        <ele>370.4</ele>
        <time>2014-05-01T09:35:36.000Z</time>
      </trkpt>
      <trkpt lat="47.49309" lon="6.75066">
        <ele>369.4</ele>
        <time>2014-05-01T09:35:37.000Z</time>
      </trkpt>
      <trkpt lat="47.49308" lon="6.7507">
        <ele>369.5</ele>
        <time>2014-05-01T09:35:38.000Z</time>
      </trkpt>
      <trkpt lat="47.49307" lon="6.75075">
        <ele>370.4</ele>
        <time>2014-05-01T09:35:39.000Z</time>
      </trkpt>
      <trkpt lat="47.49305" lon="6.7508">
        <ele>371.2</ele>
        <time>2014-05-01T09:35:40.000Z</time>
      </trkpt>
      <trkpt lat="47.49303" lon="6.75085">
        <ele>370.2</ele>
        <time>2014-05-01T09:35:41.000Z</time>
      </trkpt>
      <trkpt lat="47.49301" lon="6.7509">
        <ele>371.6</ele>
        <time>2014-05-01T09:35:42.000Z</time>
      </trkpt>
      <trkpt lat="47.493" lon="6.75095">
        <ele>371.5</ele>
        <time>2014-05-01T09:35:43.000Z</time>
      </trkpt>
      <trkpt lat="47.49299" lon="6.75101">
        <ele>372.1</ele>
        <time>2014-05-01T09:35:44.000Z</time>
      </trkpt>
      <trkpt lat="47.49298" lon="6.75107">
        <ele>371.2</ele>
        <time>2014-05-01T09:35:45.000Z</time>
      </trkpt>
      <trkpt lat="47.49296" lon="6.75114">
        <ele>371.5</ele>
        <time>2014-05-01T09:35:46.000Z</time>
      </trkpt>
      <trkpt lat="47.49295" lon="6.7512">
        <ele>371</ele>
        <time>2014-05-01T09:35:47.000Z</time>
      </trkpt>
      <trkpt lat="47.49293" lon="6.75126">
        <ele>369.1</ele>
        <time>2014-05-01T09:35:48.000Z</time>
      </trkpt>
      <trkpt lat="47.49292" lon="6.75132">
        <ele>366.9</ele>
        <time>2014-05-01T09:35:49.000Z</time>
      </trkpt>
      <trkpt lat="47.49292" lon="6.75138">
        <ele>365.7</ele>
        <time>2014-05-01T09:35:50.000Z</time>
      </trkpt>
      <trkpt lat="47.49291" lon="6.75145">
        <ele>367.8</ele>
        <time>2014-05-01T09:35:51.000Z</time>
      </trkpt>
      <trkpt lat="47.49291" lon="6.75151">
        <ele>367.5</ele>
        <time>2014-05-01T09:35:52.000Z</time>
      </trkpt>
      <trkpt lat="47.49291" lon="6.75158">
        <ele>368</ele>
        <time>2014-05-01T09:35:53.000Z</time>
      </trkpt>
      <trkpt lat="47.4929" lon="6.75163">
        <ele>367.4</ele>
        <time>2014-05-01T09:35:54.000Z</time>
      </trkpt>
      <trkpt lat="47.49291" lon="6.75169">
        <ele>367.8</ele>
        <time>2014-05-01T09:35:55.000Z</time>
      </trkpt>
      <trkpt lat="47.4929" lon="6.75174">
        <ele>368</ele>
        <time>2014-05-01T09:35:56.000Z</time>
      </trkpt>
      <trkpt lat="47.4929" lon="6.75179">
        <ele>367.5</ele>
        <time>2014-05-01T09:35:57.000Z</time>
      </trkpt>
      <trkpt lat="47.4929" lon="6.75184">
        <ele>367</ele>
        <time>2014-05-01T09:35:58.000Z</time>
      </trkpt>
      <trkpt lat="47.49289" lon="6.7519">
        <ele>366.4</ele>
        <time>2014-05-01T09:35:59.000Z</time>
      </trkpt>
      <trkpt lat="47.49289" lon="6.75195">
        <ele>366.3</ele>
        <time>2014-05-01T09:35:59.999Z</time>
      </trkpt>
      <trkpt lat="47.49282" lon="6.75202">
        <ele>374.2</ele>
        <time>2014-05-01T09:36:01.000Z</time>
      </trkpt>
      <trkpt lat="47.49283" lon="6.75209">
        <ele>373.8</ele>
        <time>2014-05-01T09:36:02.000Z</time>
      </trkpt>
      <trkpt lat="47.49283" lon="6.75216">
        <ele>373.4</ele>
        <time>2014-05-01T09:36:03.000Z</time>
      </trkpt>
      <trkpt lat="47.49283" lon="6.75224">
        <ele>372.5</ele>
        <time>2014-05-01T09:36:04.000Z</time>
      </trkpt>
      <trkpt lat="47.49283" lon="6.7523">
        <ele>372.7</ele>
        <time>2014-05-01T09:36:04.999Z</time>
      </trkpt>
      <trkpt lat="47.49275" lon="6.75276">
        <ele>378.6</ele>
        <time>2014-05-01T09:36:13.000Z</time>
      </trkpt>
      <trkpt lat="47.49277" lon="6.75287">
        <ele>379</ele>
        <time>2014-05-01T09:36:14.000Z</time>
      </trkpt>
      <trkpt lat="47.49278" lon="6.75294">
        <ele>379.3</ele>
        <time>2014-05-01T09:36:15.000Z</time>
      </trkpt>
      <trkpt lat="47.49279" lon="6.75302">
        <ele>378.7</ele>
        <time>2014-05-01T09:36:16.000Z</time>
      </trkpt>
      <trkpt lat="47.49279" lon="6.7531">
        <ele>377.9</ele>
        <time>2014-05-01T09:36:17.000Z</time>
      </trkpt>
      <trkpt lat="47.49279" lon="6.75315">
        <ele>377.6</ele>
        <time>2014-05-01T09:36:18.000Z</time>
      </trkpt>
      <trkpt lat="47.4928" lon="6.75325">
        <ele>377.2</ele>
        <time>2014-05-01T09:36:19.000Z</time>
      </trkpt>
      <trkpt lat="47.49278" lon="6.75331">
        <ele>377.1</ele>
        <time>2014-05-01T09:36:20.000Z</time>
      </trkpt>
      <trkpt lat="47.49277" lon="6.7534">
        <ele>375.9</ele>
        <time>2014-05-01T09:36:21.000Z</time>
      </trkpt>
      <trkpt lat="47.49276" lon="6.75347">
        <ele>374.2</ele>
        <time>2014-05-01T09:36:22.000Z</time>
      </trkpt>
      <trkpt lat="47.49275" lon="6.75352">
        <ele>373.1</ele>
        <time>2014-05-01T09:36:23.000Z</time>
      </trkpt>
      <trkpt lat="47.49272" lon="6.75361">
        <ele>374.4</ele>
        <time>2014-05-01T09:36:24.000Z</time>
      </trkpt>
      <trkpt lat="47.4927" lon="6.75368">
        <ele>374.8</ele>
        <time>2014-05-01T09:36:24.999Z</time>
      </trkpt>
      <trkpt lat="47.4927" lon="6.75376">
        <ele>373.2</ele>
        <time>2014-05-01T09:36:26.000Z</time>
      </trkpt>
      <trkpt lat="47.49269" lon="6.75382">
        <ele>372.7</ele>
        <time>2014-05-01T09:36:27.000Z</time>
      </trkpt>
      <trkpt lat="47.49272" lon="6.75393">
        <ele>371.3</ele>
        <time>2014-05-01T09:36:28.000Z</time>
      </trkpt>
      <trkpt lat="47.4927" lon="6.75402">
        <ele>372.1</ele>
        <time>2014-05-01T09:36:29.000Z</time>
      </trkpt>
      <trkpt lat="47.49269" lon="6.75407">
        <ele>372.4</ele>
        <time>2014-05-01T09:36:30.000Z</time>
      </trkpt>
      <trkpt lat="47.49267" lon="6.75413">
        <ele>372.8</ele>
        <time>2014-05-01T09:36:31.000Z</time>
      </trkpt>
      <trkpt lat="47.49265" lon="6.75421">
        <ele>372.4</ele>
        <time>2014-05-01T09:36:32.000Z</time>
      </trkpt>
      <trkpt lat="47.49264" lon="6.75427">
        <ele>373.4</ele>
        <time>2014-05-01T09:36:33.000Z</time>
      </trkpt>
      <trkpt lat="47.49262" lon="6.75433">
        <ele>374.5</ele>
        <time>2014-05-01T09:36:33.999Z</time>
      </trkpt>
      <trkpt lat="47.49261" lon="6.75443">
        <ele>371.7</ele>
        <time>2014-05-01T09:36:35.000Z</time>
      </trkpt>
      <trkpt lat="47.4926" lon="6.75451">
        <ele>371</ele>
        <time>2014-05-01T09:36:36.000Z</time>
      </trkpt>
      <trkpt lat="47.49259" lon="6.75458">
        <ele>371</ele>
        <time>2014-05-01T09:36:37.000Z</time>
      </trkpt>
      <trkpt lat="47.49257" lon="6.75463">
        <ele>374.6</ele>
        <time>2014-05-01T09:36:39.000Z</time>
      </trkpt>
      <trkpt lat="47.49259" lon="6.75469">
        <ele>374</ele>
        <time>2014-05-01T09:36:40.000Z</time>
      </trkpt>
      <trkpt lat="47.49259" lon="6.75474">
        <ele>373.2</ele>
        <time>2014-05-01T09:36:41.000Z</time>
      </trkpt>
      <trkpt lat="47.4926" lon="6.7548">
        <ele>372.2</ele>
        <time>2014-05-01T09:36:42.000Z</time>
      </trkpt>
      <trkpt lat="47.4926" lon="6.75485">
        <ele>372.4</ele>
        <time>2014-05-01T09:36:43.000Z</time>
      </trkpt>
      <trkpt lat="47.49258" lon="6.75489">
        <ele>372.4</ele>
        <time>2014-05-01T09:36:44.000Z</time>
      </trkpt>
      <trkpt lat="47.49258" lon="6.75493">
        <ele>371.9</ele>
        <time>2014-05-01T09:36:45.000Z</time>
      </trkpt>
      <trkpt lat="47.49255" lon="6.75495">
        <ele>370.8</ele>
        <time>2014-05-01T09:36:46.000Z</time>
      </trkpt>
      <trkpt lat="47.49253" lon="6.75498">
        <ele>371.6</ele>
        <time>2014-05-01T09:36:47.000Z</time>
      </trkpt>
      <trkpt lat="47.49251" lon="6.75501">
        <ele>372.4</ele>
        <time>2014-05-01T09:36:48.000Z</time>
      </trkpt>
      <trkpt lat="47.49249" lon="6.75503">
        <ele>370.6</ele>
        <time>2014-05-01T09:36:49.000Z</time>
      </trkpt>
      <trkpt lat="47.49249" lon="6.75507">
        <ele>369.8</ele>
        <time>2014-05-01T09:36:50.000Z</time>
      </trkpt>
      <trkpt lat="47.49249" lon="6.75511">
        <ele>370.1</ele>
        <time>2014-05-01T09:36:51.000Z</time>
      </trkpt>
      <trkpt lat="47.49248" lon="6.75514">
        <ele>370.3</ele>
        <time>2014-05-01T09:36:52.000Z</time>
      </trkpt>
      <trkpt lat="47.4925" lon="6.75518">
        <ele>372.6</ele>
        <time>2014-05-01T09:36:53.000Z</time>
      </trkpt>
      <trkpt lat="47.4925" lon="6.75521">
        <ele>372.9</ele>
        <time>2014-05-01T09:36:54.000Z</time>
      </trkpt>
      <trkpt lat="47.49248" lon="6.7553">
        <ele>371</ele>
        <time>2014-05-01T09:36:55.000Z</time>
      </trkpt>
      <trkpt lat="47.49245" lon="6.75535">
        <ele>370.1</ele>
        <time>2014-05-01T09:36:56.000Z</time>
      </trkpt>
      <trkpt lat="47.49243" lon="6.75542">
        <ele>369.5</ele>
        <time>2014-05-01T09:36:57.000Z</time>
      </trkpt>
      <trkpt lat="47.49241" lon="6.75548">
        <ele>369.7</ele>
        <time>2014-05-01T09:36:58.000Z</time>
      </trkpt>
      <trkpt lat="47.49241" lon="6.75554">
        <ele>372.2</ele>
        <time>2014-05-01T09:36:59.000Z</time>
      </trkpt>
      <trkpt lat="47.49239" lon="6.75561">
        <ele>372.7</ele>
        <time>2014-05-01T09:37:00.000Z</time>
      </trkpt>
      <trkpt lat="47.49238" lon="6.75567">
        <ele>373.1</ele>
        <time>2014-05-01T09:37:01.000Z</time>
      </trkpt>
      <trkpt lat="47.49237" lon="6.75571">
        <ele>373.3</ele>
        <time>2014-05-01T09:37:02.000Z</time>
      </trkpt>
      <trkpt lat="47.49235" lon="6.75577">
        <ele>373.5</ele>
        <time>2014-05-01T09:37:03.000Z</time>
      </trkpt>
      <trkpt lat="47.49233" lon="6.75582">
        <ele>374</ele>
        <time>2014-05-01T09:37:04.000Z</time>
      </trkpt>
      <trkpt lat="47.49233" lon="6.75589">
        <ele>373.5</ele>
        <time>2014-05-01T09:37:05.000Z</time>
      </trkpt>
      <trkpt lat="47.4923" lon="6.75595">
        <ele>373.6</ele>
        <time>2014-05-01T09:37:06.000Z</time>
      </trkpt>
      <trkpt lat="47.49222" lon="6.75639">
        <ele>375.4</ele>
        <time>2014-05-01T09:37:14.000Z</time>
      </trkpt>
      <trkpt lat="47.49221" lon="6.75652">
        <ele>376.5</ele>
        <time>2014-05-01T09:37:15.000Z</time>
      </trkpt>
      <trkpt lat="47.49215" lon="6.75662">
        <ele>372</ele>
        <time>2014-05-01T09:37:16.000Z</time>
      </trkpt>
      <trkpt lat="47.49213" lon="6.75672">
        <ele>369</ele>
        <time>2014-05-01T09:37:17.000Z</time>
      </trkpt>
      <trkpt lat="47.4921" lon="6.75678">
        <ele>367.1</ele>
        <time>2014-05-01T09:37:18.000Z</time>
      </trkpt>
      <trkpt lat="47.49206" lon="6.75684">
        <ele>365.3</ele>
        <time>2014-05-01T09:37:19.000Z</time>
      </trkpt>
      <trkpt lat="47.49205" lon="6.75691">
        <ele>364.9</ele>
        <time>2014-05-01T09:37:20.000Z</time>
      </trkpt>
      <trkpt lat="47.49204" lon="6.75697">
        <ele>370.7</ele>
        <time>2014-05-01T09:37:22.000Z</time>
      </trkpt>
      <trkpt lat="47.49203" lon="6.75703">
        <ele>372</ele>
        <time>2014-05-01T09:37:23.000Z</time>
      </trkpt>
      <trkpt lat="47.49202" lon="6.75706">
        <ele>374.1</ele>
        <time>2014-05-01T09:37:23.999Z</time>
      </trkpt>
      <trkpt lat="47.49201" lon="6.75714">
        <ele>370.2</ele>
        <time>2014-05-01T09:37:25.000Z</time>
      </trkpt>
      <trkpt lat="47.49199" lon="6.75719">
        <ele>368.6</ele>
        <time>2014-05-01T09:37:26.000Z</time>
      </trkpt>
      <trkpt lat="47.49198" lon="6.75724">
        <ele>368.5</ele>
        <time>2014-05-01T09:37:27.000Z</time>
      </trkpt>
      <trkpt lat="47.49196" lon="6.7573">
        <ele>367.3</ele>
        <time>2014-05-01T09:37:28.000Z</time>
      </trkpt>
      <trkpt lat="47.49194" lon="6.75736">
        <ele>366.5</ele>
        <time>2014-05-01T09:37:29.000Z</time>
      </trkpt>
      <trkpt lat="47.49191" lon="6.75742">
        <ele>364.7</ele>
        <time>2014-05-01T09:37:30.000Z</time>
      </trkpt>
      <trkpt lat="47.49189" lon="6.75748">
        <ele>365.6</ele>
        <time>2014-05-01T09:37:31.000Z</time>
      </trkpt>
      <trkpt lat="47.49187" lon="6.75754">
        <ele>365.1</ele>
        <time>2014-05-01T09:37:32.000Z</time>
      </trkpt>
      <trkpt lat="47.49186" lon="6.75759">
        <ele>365</ele>
        <time>2014-05-01T09:37:33.000Z</time>
      </trkpt>
      <trkpt lat="47.49185" lon="6.75764">
        <ele>364.7</ele>
        <time>2014-05-01T09:37:34.000Z</time>
      </trkpt>
      <trkpt lat="47.49185" lon="6.7577">
        <ele>364.1</ele>
        <time>2014-05-01T09:37:35.000Z</time>
      </trkpt>
      <trkpt lat="47.49184" lon="6.75776">
        <ele>363.6</ele>
        <time>2014-05-01T09:37:36.000Z</time>
      </trkpt>
      <trkpt lat="47.49183" lon="6.75783">
        <ele>363.2</ele>
        <time>2014-05-01T09:37:37.000Z</time>
      </trkpt>
      <trkpt lat="47.49182" lon="6.75787">
        <ele>363.4</ele>
        <time>2014-05-01T09:37:37.999Z</time>
      </trkpt>
      <trkpt lat="47.49183" lon="6.75805">
        <ele>372.4</ele>
        <time>2014-05-01T09:37:39.000Z</time>
      </trkpt>
      <trkpt lat="47.49179" lon="6.75807">
        <ele>375</ele>
        <time>2014-05-01T09:37:40.000Z</time>
      </trkpt>
      <trkpt lat="47.49175" lon="6.75812">
        <ele>376.1</ele>
        <time>2014-05-01T09:37:41.000Z</time>
      </trkpt>
      <trkpt lat="47.49172" lon="6.75816">
        <ele>376.1</ele>
        <time>2014-05-01T09:37:42.000Z</time>
      </trkpt>
      <trkpt lat="47.49168" lon="6.7582">
        <ele>375.2</ele>
        <time>2014-05-01T09:37:43.000Z</time>
      </trkpt>
      <trkpt lat="47.49163" lon="6.75826">
        <ele>374.6</ele>
        <time>2014-05-01T09:37:44.000Z</time>
      </trkpt>
      <trkpt lat="47.4916" lon="6.75832">
        <ele>373.5</ele>
        <time>2014-05-01T09:37:45.000Z</time>
      </trkpt>
      <trkpt lat="47.49158" lon="6.75838">
        <ele>374.1</ele>
        <time>2014-05-01T09:37:46.000Z</time>
      </trkpt>
      <trkpt lat="47.49155" lon="6.75842">
        <ele>374.4</ele>
        <time>2014-05-01T09:37:47.000Z</time>
      </trkpt>
      <trkpt lat="47.49154" lon="6.75848">
        <ele>377.2</ele>
        <time>2014-05-01T09:37:48.000Z</time>
      </trkpt>
      <trkpt lat="47.49153" lon="6.75854">
        <ele>378</ele>
        <time>2014-05-01T09:37:49.000Z</time>
      </trkpt>
      <trkpt lat="47.49153" lon="6.7586">
        <ele>377.5</ele>
        <time>2014-05-01T09:37:50.000Z</time>
      </trkpt>
      <trkpt lat="47.49151" lon="6.75867">
        <ele>375.2</ele>
        <time>2014-05-01T09:37:51.000Z</time>
      </trkpt>
      <trkpt lat="47.49149" lon="6.75873">
        <ele>376.7</ele>
        <time>2014-05-01T09:37:52.000Z</time>
      </trkpt>
      <trkpt lat="47.49147" lon="6.75879">
        <ele>377.2</ele>
        <time>2014-05-01T09:37:53.000Z</time>
      </trkpt>
      <trkpt lat="47.4914" lon="6.75891">
        <ele>380.3</ele>
        <time>2014-05-01T09:37:54.000Z</time>
      </trkpt>
      <trkpt lat="47.49139" lon="6.75897">
        <ele>379.7</ele>
        <time>2014-05-01T09:37:55.000Z</time>
      </trkpt>
      <trkpt lat="47.49139" lon="6.75902">
        <ele>380.2</ele>
        <time>2014-05-01T09:37:56.000Z</time>
      </trkpt>
      <trkpt lat="47.49138" lon="6.75908">
        <ele>381.1</ele>
        <time>2014-05-01T09:37:57.000Z</time>
      </trkpt>
      <trkpt lat="47.49137" lon="6.75914">
        <ele>380.4</ele>
        <time>2014-05-01T09:37:58.000Z</time>
      </trkpt>
      <trkpt lat="47.49137" lon="6.7592">
        <ele>382.6</ele>
        <time>2014-05-01T09:37:59.000Z</time>
      </trkpt>
      <trkpt lat="47.49137" lon="6.75925">
        <ele>383.8</ele>
        <time>2014-05-01T09:38:00.000Z</time>
      </trkpt>
      <trkpt lat="47.49135" lon="6.75931">
        <ele>383.7</ele>
        <time>2014-05-01T09:38:01.000Z</time>
      </trkpt>
      <trkpt lat="47.49133" lon="6.75937">
        <ele>382</ele>
        <time>2014-05-01T09:38:02.000Z</time>
      </trkpt>
      <trkpt lat="47.49131" lon="6.75942">
        <ele>381.5</ele>
        <time>2014-05-01T09:38:03.000Z</time>
      </trkpt>
      <trkpt lat="47.4913" lon="6.75946">
        <ele>381.5</ele>
        <time>2014-05-01T09:38:04.000Z</time>
      </trkpt>
      <trkpt lat="47.4913" lon="6.75951">
        <ele>383.9</ele>
        <time>2014-05-01T09:38:05.000Z</time>
      </trkpt>
      <trkpt lat="47.49126" lon="6.75993">
        <ele>385.8</ele>
        <time>2014-05-01T09:38:13.000Z</time>
      </trkpt>
      <trkpt lat="47.49123" lon="6.76003">
        <ele>387</ele>
        <time>2014-05-01T09:38:14.000Z</time>
      </trkpt>
      <trkpt lat="47.49122" lon="6.76008">
        <ele>386.5</ele>
        <time>2014-05-01T09:38:14.999Z</time>
      </trkpt>
      <trkpt lat="47.49116" lon="6.76016">
        <ele>387.2</ele>
        <time>2014-05-01T09:38:16.000Z</time>
      </trkpt>
      <trkpt lat="47.49117" lon="6.76023">
        <ele>389.1</ele>
        <time>2014-05-01T09:38:17.000Z</time>
      </trkpt>
      <trkpt lat="47.49119" lon="6.76032">
        <ele>388</ele>
        <time>2014-05-01T09:38:18.000Z</time>
      </trkpt>
      <trkpt lat="47.49119" lon="6.76037">
        <ele>388.6</ele>
        <time>2014-05-01T09:38:19.000Z</time>
      </trkpt>
      <trkpt lat="47.49117" lon="6.76044">
        <ele>390.4</ele>
        <time>2014-05-01T09:38:20.000Z</time>
      </trkpt>
      <trkpt lat="47.49115" lon="6.76049">
        <ele>392.7</ele>
        <time>2014-05-01T09:38:21.000Z</time>
      </trkpt>
      <trkpt lat="47.49119" lon="6.76056">
        <ele>397</ele>
        <time>2014-05-01T09:38:22.000Z</time>
      </trkpt>
      <trkpt lat="47.49119" lon="6.76062">
        <ele>399.3</ele>
        <time>2014-05-01T09:38:23.000Z</time>
      </trkpt>
      <trkpt lat="47.49114" lon="6.7607">
        <ele>396.9</ele>
        <time>2014-05-01T09:38:24.000Z</time>
      </trkpt>
      <trkpt lat="47.49106" lon="6.7608">
        <ele>396.1</ele>
        <time>2014-05-01T09:38:25.000Z</time>
      </trkpt>
      <trkpt lat="47.49102" lon="6.76089">
        <ele>393.5</ele>
        <time>2014-05-01T09:38:26.000Z</time>
      </trkpt>
      <trkpt lat="47.49097" lon="6.76099">
        <ele>392.4</ele>
        <time>2014-05-01T09:38:27.000Z</time>
      </trkpt>
      <trkpt lat="47.49095" lon="6.76108">
        <ele>390.2</ele>
        <time>2014-05-01T09:38:28.000Z</time>
      </trkpt>
      <trkpt lat="47.49094" lon="6.76115">
        <ele>385.2</ele>
        <time>2014-05-01T09:38:29.000Z</time>
      </trkpt>
      <trkpt lat="47.49094" lon="6.7612">
        <ele>384</ele>
        <time>2014-05-01T09:38:30.000Z</time>
      </trkpt>
      <trkpt lat="47.49096" lon="6.76128">
        <ele>381.6</ele>
        <time>2014-05-01T09:38:31.000Z</time>
      </trkpt>
      <trkpt lat="47.49095" lon="6.76138">
        <ele>378.6</ele>
        <time>2014-05-01T09:38:32.000Z</time>
      </trkpt>
      <trkpt lat="47.49094" lon="6.76146">
        <ele>382.5</ele>
        <time>2014-05-01T09:38:33.000Z</time>
      </trkpt>
      <trkpt lat="47.49091" lon="6.76153">
        <ele>382.5</ele>
        <time>2014-05-01T09:38:34.000Z</time>
      </trkpt>
      <trkpt lat="47.49089" lon="6.76158">
        <ele>382.7</ele>
        <time>2014-05-01T09:38:35.000Z</time>
      </trkpt>
      <trkpt lat="47.49088" lon="6.76163">
        <ele>383.2</ele>
        <time>2014-05-01T09:38:36.000Z</time>
      </trkpt>
      <trkpt lat="47.49088" lon="6.76169">
        <ele>382.7</ele>
        <time>2014-05-01T09:38:37.000Z</time>
      </trkpt>
      <trkpt lat="47.49088" lon="6.76173">
        <ele>380.6</ele>
        <time>2014-05-01T09:38:38.000Z</time>
      </trkpt>
      <trkpt lat="47.49086" lon="6.76187">
        <ele>379.4</ele>
        <time>2014-05-01T09:38:39.000Z</time>
      </trkpt>
      <trkpt lat="47.49085" lon="6.76196">
        <ele>378.8</ele>
        <time>2014-05-01T09:38:40.000Z</time>
      </trkpt>
      <trkpt lat="47.49084" lon="6.76204">
        <ele>378.6</ele>
        <time>2014-05-01T09:38:41.000Z</time>
      </trkpt>
      <trkpt lat="47.49085" lon="6.76211">
        <ele>377.9</ele>
        <time>2014-05-01T09:38:42.000Z</time>
      </trkpt>
      <trkpt lat="47.49086" lon="6.76212">
        <ele>373.2</ele>
        <time>2014-05-01T09:38:43.000Z</time>
      </trkpt>
      <trkpt lat="47.49084" lon="6.76222">
        <ele>371.9</ele>
        <time>2014-05-01T09:38:44.000Z</time>
      </trkpt>
      <trkpt lat="47.49084" lon="6.76233">
        <ele>370.3</ele>
        <time>2014-05-01T09:38:45.000Z</time>
      </trkpt>
      <trkpt lat="47.49085" lon="6.76237">
        <ele>367.9</ele>
        <time>2014-05-01T09:38:46.000Z</time>
      </trkpt>
      <trkpt lat="47.49088" lon="6.76249">
        <ele>368.4</ele>
        <time>2014-05-01T09:38:47.000Z</time>
      </trkpt>
      <trkpt lat="47.49089" lon="6.76258">
        <ele>365.9</ele>
        <time>2014-05-01T09:38:48.000Z</time>
      </trkpt>
      <trkpt lat="47.49091" lon="6.76267">
        <ele>364.6</ele>
        <time>2014-05-01T09:38:49.000Z</time>
      </trkpt>
      <trkpt lat="47.49091" lon="6.76277">
        <ele>362.2</ele>
        <time>2014-05-01T09:38:50.000Z</time>
      </trkpt>
      <trkpt lat="47.4909" lon="6.76286">
        <ele>359.5</ele>
        <time>2014-05-01T09:38:51.000Z</time>
      </trkpt>
      <trkpt lat="47.4909" lon="6.76293">
        <ele>358.3</ele>
        <time>2014-05-01T09:38:52.000Z</time>
      </trkpt>
      <trkpt lat="47.49089" lon="6.76302">
        <ele>356.6</ele>
        <time>2014-05-01T09:38:53.000Z</time>
      </trkpt>
      <trkpt lat="47.49091" lon="6.76308">
        <ele>358.8</ele>
        <time>2014-05-01T09:38:54.000Z</time>
      </trkpt>
      <trkpt lat="47.49093" lon="6.76318">
        <ele>358.2</ele>
        <time>2014-05-01T09:38:55.000Z</time>
      </trkpt>
      <trkpt lat="47.49094" lon="6.76326">
        <ele>358.2</ele>
        <time>2014-05-01T09:38:56.000Z</time>
      </trkpt>
      <trkpt lat="47.49094" lon="6.76334">
        <ele>357.9</ele>
        <time>2014-05-01T09:38:57.000Z</time>
      </trkpt>
      <trkpt lat="47.49095" lon="6.76341">
        <ele>357.5</ele>
        <time>2014-05-01T09:38:58.000Z</time>
      </trkpt>
      <trkpt lat="47.49096" lon="6.76346">
        <ele>357.3</ele>
        <time>2014-05-01T09:38:59.000Z</time>
      </trkpt>
      <trkpt lat="47.49096" lon="6.76358">
        <ele>356.3</ele>
        <time>2014-05-01T09:39:00.000Z</time>
      </trkpt>
      <trkpt lat="47.49096" lon="6.76368">
        <ele>355.3</ele>
        <time>2014-05-01T09:39:01.000Z</time>
      </trkpt>
      <trkpt lat="47.49098" lon="6.76378">
        <ele>354.3</ele>
        <time>2014-05-01T09:39:02.000Z</time>
      </trkpt>
      <trkpt lat="47.49098" lon="6.76384">
        <ele>353.9</ele>
        <time>2014-05-01T09:39:03.000Z</time>
      </trkpt>
      <trkpt lat="47.49097" lon="6.76389">
        <ele>352.9</ele>
        <time>2014-05-01T09:39:04.000Z</time>
      </trkpt>
      <trkpt lat="47.49099" lon="6.76395">
        <ele>351.6</ele>
        <time>2014-05-01T09:39:05.000Z</time>
      </trkpt>
      <trkpt lat="47.49096" lon="6.76425">
        <ele>345</ele>
        <time>2014-05-01T09:39:13.000Z</time>
      </trkpt>
      <trkpt lat="47.49097" lon="6.76428">
        <ele>344.6</ele>
        <time>2014-05-01T09:39:14.000Z</time>
      </trkpt>
      <trkpt lat="47.491" lon="6.76429">
        <ele>342.8</ele>
        <time>2014-05-01T09:39:15.000Z</time>
      </trkpt>
      <trkpt lat="47.49104" lon="6.7643">
        <ele>342.4</ele>
        <time>2014-05-01T09:39:16.000Z</time>
      </trkpt>
      <trkpt lat="47.49107" lon="6.76431">
        <ele>342.6</ele>
        <time>2014-05-01T09:39:17.000Z</time>
      </trkpt>
      <trkpt lat="47.49111" lon="6.76432">
        <ele>344.5</ele>
        <time>2014-05-01T09:39:18.000Z</time>
      </trkpt>
      <trkpt lat="47.49114" lon="6.76433">
        <ele>345</ele>
        <time>2014-05-01T09:39:19.000Z</time>
      </trkpt>
      <trkpt lat="47.49117" lon="6.76433">
        <ele>344.7</ele>
        <time>2014-05-01T09:39:20.000Z</time>
      </trkpt>
      <trkpt lat="47.49119" lon="6.76432">
        <ele>341.6</ele>
        <time>2014-05-01T09:39:21.000Z</time>
      </trkpt>
      <trkpt lat="47.49121" lon="6.76429">
        <ele>338.3</ele>
        <time>2014-05-01T09:39:22.000Z</time>
      </trkpt>
      <trkpt lat="47.49121" lon="6.76426">
        <ele>337.9</ele>
        <time>2014-05-01T09:39:23.000Z</time>
      </trkpt>
      <trkpt lat="47.49122" lon="6.76421">
        <ele>337.9</ele>
        <time>2014-05-01T09:39:24.000Z</time>
      </trkpt>
      <trkpt lat="47.49122" lon="6.76417">
        <ele>338.3</ele>
        <time>2014-05-01T09:39:25.000Z</time>
      </trkpt>
      <trkpt lat="47.49122" lon="6.76413">
        <ele>338.1</ele>
        <time>2014-05-01T09:39:26.000Z</time>
      </trkpt>
      <trkpt lat="47.49121" lon="6.76409">
        <ele>338.3</ele>
        <time>2014-05-01T09:39:27.000Z</time>
      </trkpt>
      <trkpt lat="47.49121" lon="6.76404">
        <ele>337.2</ele>
        <time>2014-05-01T09:39:28.000Z</time>
      </trkpt>
      <trkpt lat="47.49121" lon="6.76399">
        <ele>337.1</ele>
        <time>2014-05-01T09:39:29.000Z</time>
      </trkpt>
      <trkpt lat="47.49121" lon="6.76394">
        <ele>336.9</ele>
        <time>2014-05-01T09:39:30.000Z</time>
      </trkpt>
      <trkpt lat="47.49121" lon="6.76389">
        <ele>336.2</ele>
        <time>2014-05-01T09:39:31.000Z</time>
      </trkpt>
      <trkpt lat="47.49121" lon="6.76383">
        <ele>335</ele>
        <time>2014-05-01T09:39:32.000Z</time>
      </trkpt>
      <trkpt lat="47.49121" lon="6.76377">
        <ele>334.5</ele>
        <time>2014-05-01T09:39:33.000Z</time>
      </trkpt>
      <trkpt lat="47.49121" lon="6.76371">
        <ele>334.6</ele>
        <time>2014-05-01T09:39:34.000Z</time>
      </trkpt>
      <trkpt lat="47.49121" lon="6.76365">
        <ele>334.8</ele>
        <time>2014-05-01T09:39:35.000Z</time>
      </trkpt>
      <trkpt lat="47.49122" lon="6.76359">
        <ele>334.1</ele>
        <time>2014-05-01T09:39:36.000Z</time>
      </trkpt>
      <trkpt lat="47.49122" lon="6.76354">
        <ele>334.7</ele>
        <time>2014-05-01T09:39:37.000Z</time>
      </trkpt>
      <trkpt lat="47.49122" lon="6.76348">
        <ele>333.5</ele>
        <time>2014-05-01T09:39:38.000Z</time>
      </trkpt>
      <trkpt lat="47.49122" lon="6.76342">
        <ele>333.5</ele>
        <time>2014-05-01T09:39:39.000Z</time>
      </trkpt>
      <trkpt lat="47.49122" lon="6.76336">
        <ele>332.4</ele>
        <time>2014-05-01T09:39:40.000Z</time>
      </trkpt>
      <trkpt lat="47.49122" lon="6.7633">
        <ele>331.8</ele>
        <time>2014-05-01T09:39:41.000Z</time>
      </trkpt>
      <trkpt lat="47.49123" lon="6.76324">
        <ele>333.3</ele>
        <time>2014-05-01T09:39:42.000Z</time>
      </trkpt>
      <trkpt lat="47.49123" lon="6.76319">
        <ele>333.4</ele>
        <time>2014-05-01T09:39:43.000Z</time>
      </trkpt>
      <trkpt lat="47.49124" lon="6.76314">
        <ele>333.1</ele>
        <time>2014-05-01T09:39:44.000Z</time>
      </trkpt>
      <trkpt lat="47.49124" lon="6.76309">
        <ele>333.5</ele>
        <time>2014-05-01T09:39:45.000Z</time>
      </trkpt>
      <trkpt lat="47.49125" lon="6.76304">
        <ele>333.7</ele>
        <time>2014-05-01T09:39:46.000Z</time>
      </trkpt>
      <trkpt lat="47.49125" lon="6.76299">
        <ele>333.9</ele>
        <time>2014-05-01T09:39:47.000Z</time>
      </trkpt>
      <trkpt lat="47.49125" lon="6.76294">
        <ele>334.8</ele>
        <time>2014-05-01T09:39:48.000Z</time>
      </trkpt>
      <trkpt lat="47.49125" lon="6.76289">
        <ele>335.6</ele>
        <time>2014-05-01T09:39:49.001Z</time>
      </trkpt>
      <trkpt lat="47.49125" lon="6.76283">
        <ele>335.2</ele>
        <time>2014-05-01T09:39:50.000Z</time>
      </trkpt>
      <trkpt lat="47.49125" lon="6.76277">
        <ele>334.9</ele>
        <time>2014-05-01T09:39:51.000Z</time>
      </trkpt>
      <trkpt lat="47.49125" lon="6.76271">
        <ele>333</ele>
        <time>2014-05-01T09:39:52.000Z</time>
      </trkpt>
      <trkpt lat="47.49125" lon="6.76265">
        <ele>332.3</ele>
        <time>2014-05-01T09:39:53.000Z</time>
      </trkpt>
      <trkpt lat="47.49126" lon="6.7626">
        <ele>332.8</ele>
        <time>2014-05-01T09:39:54.000Z</time>
      </trkpt>
      <trkpt lat="47.49126" lon="6.76254">
        <ele>333</ele>
        <time>2014-05-01T09:39:55.000Z</time>
      </trkpt>
      <trkpt lat="47.49126" lon="6.76248">
        <ele>333.4</ele>
        <time>2014-05-01T09:39:56.000Z</time>
      </trkpt>
      <trkpt lat="47.49126" lon="6.76242">
        <ele>333</ele>
        <time>2014-05-01T09:39:57.000Z</time>
      </trkpt>
      <trkpt lat="47.49126" lon="6.76236">
        <ele>332.7</ele>
        <time>2014-05-01T09:39:58.000Z</time>
      </trkpt>
      <trkpt lat="47.49127" lon="6.7623">
        <ele>331.9</ele>
        <time>2014-05-01T09:39:59.000Z</time>
      </trkpt>
      <trkpt lat="47.49127" lon="6.76224">
        <ele>331.4</ele>
        <time>2014-05-01T09:40:00.000Z</time>
      </trkpt>
      <trkpt lat="47.49127" lon="6.76218">
        <ele>331.4</ele>
        <time>2014-05-01T09:40:01.000Z</time>
      </trkpt>
      <trkpt lat="47.49127" lon="6.76213">
        <ele>331.8</ele>
        <time>2014-05-01T09:40:02.000Z</time>
      </trkpt>
      <trkpt lat="47.49128" lon="6.76207">
        <ele>330.9</ele>
        <time>2014-05-01T09:40:03.000Z</time>
      </trkpt>
      <trkpt lat="47.49128" lon="6.76201">
        <ele>330.9</ele>
        <time>2014-05-01T09:40:04.000Z</time>
      </trkpt>
      <trkpt lat="47.49128" lon="6.76195">
        <ele>331</ele>
        <time>2014-05-01T09:40:05.000Z</time>
      </trkpt>
      <trkpt lat="47.49136" lon="6.76152">
        <ele>334.3</ele>
        <time>2014-05-01T09:40:13.000Z</time>
      </trkpt>
      <trkpt lat="47.49138" lon="6.76146">
        <ele>333.3</ele>
        <time>2014-05-01T09:40:14.000Z</time>
      </trkpt>
      <trkpt lat="47.49139" lon="6.76139">
        <ele>334.3</ele>
        <time>2014-05-01T09:40:15.000Z</time>
      </trkpt>
      <trkpt lat="47.49139" lon="6.76133">
        <ele>334.3</ele>
        <time>2014-05-01T09:40:16.000Z</time>
      </trkpt>
      <trkpt lat="47.4914" lon="6.76126">
        <ele>334.8</ele>
        <time>2014-05-01T09:40:17.000Z</time>
      </trkpt>
      <trkpt lat="47.49141" lon="6.7612">
        <ele>335.7</ele>
        <time>2014-05-01T09:40:18.000Z</time>
      </trkpt>
      <trkpt lat="47.49142" lon="6.76113">
        <ele>335.7</ele>
        <time>2014-05-01T09:40:19.000Z</time>
      </trkpt>
      <trkpt lat="47.49144" lon="6.76107">
        <ele>335.6</ele>
        <time>2014-05-01T09:40:20.000Z</time>
      </trkpt>
      <trkpt lat="47.49145" lon="6.761">
        <ele>334.6</ele>
        <time>2014-05-01T09:40:21.000Z</time>
      </trkpt>
      <trkpt lat="47.49146" lon="6.76094">
        <ele>334.6</ele>
        <time>2014-05-01T09:40:22.000Z</time>
      </trkpt>
      <trkpt lat="47.49148" lon="6.76088">
        <ele>333.8</ele>
        <time>2014-05-01T09:40:23.000Z</time>
      </trkpt>
      <trkpt lat="47.4915" lon="6.76081">
        <ele>333.7</ele>
        <time>2014-05-01T09:40:24.000Z</time>
      </trkpt>
      <trkpt lat="47.49152" lon="6.76075">
        <ele>333.8</ele>
        <time>2014-05-01T09:40:25.000Z</time>
      </trkpt>
      <trkpt lat="47.49154" lon="6.76069">
        <ele>333.2</ele>
        <time>2014-05-01T09:40:26.000Z</time>
      </trkpt>
      <trkpt lat="47.49157" lon="6.76061">
        <ele>330.9</ele>
        <time>2014-05-01T09:40:27.000Z</time>
      </trkpt>
      <trkpt lat="47.49159" lon="6.76054">
        <ele>330</ele>
        <time>2014-05-01T09:40:28.000Z</time>
      </trkpt>
      <trkpt lat="47.49161" lon="6.76048">
        <ele>329</ele>
        <time>2014-05-01T09:40:29.000Z</time>
      </trkpt>
      <trkpt lat="47.49163" lon="6.76042">
        <ele>329.2</ele>
        <time>2014-05-01T09:40:30.000Z</time>
      </trkpt>
      <trkpt lat="47.49165" lon="6.76036">
        <ele>328.9</ele>
        <time>2014-05-01T09:40:31.000Z</time>
      </trkpt>
      <trkpt lat="47.49167" lon="6.76029">
        <ele>328.4</ele>
        <time>2014-05-01T09:40:32.000Z</time>
      </trkpt>
      <trkpt lat="47.49169" lon="6.76024">
        <ele>328.3</ele>
        <time>2014-05-01T09:40:33.000Z</time>
      </trkpt>
      <trkpt lat="47.49171" lon="6.76018">
        <ele>328.4</ele>
        <time>2014-05-01T09:40:34.000Z</time>
      </trkpt>
      <trkpt lat="47.49173" lon="6.76014">
        <ele>328.8</ele>
        <time>2014-05-01T09:40:35.000Z</time>
      </trkpt>
      <trkpt lat="47.49175" lon="6.76009">
        <ele>329.2</ele>
        <time>2014-05-01T09:40:36.000Z</time>
      </trkpt>
      <trkpt lat="47.49177" lon="6.76004">
        <ele>329.4</ele>
        <time>2014-05-01T09:40:37.000Z</time>
      </trkpt>
      <trkpt lat="47.49179" lon="6.76002">
        <ele>330.6</ele>
        <time>2014-05-01T09:40:38.000Z</time>
      </trkpt>
      <trkpt lat="47.49181" lon="6.75999">
        <ele>332.2</ele>
        <time>2014-05-01T09:40:39.000Z</time>
      </trkpt>
      <trkpt lat="47.49183" lon="6.75995">
        <ele>332.7</ele>
        <time>2014-05-01T09:40:40.000Z</time>
      </trkpt>
      <trkpt lat="47.49184" lon="6.7599">
        <ele>332.3</ele>
        <time>2014-05-01T09:40:41.000Z</time>
      </trkpt>
      <trkpt lat="47.49186" lon="6.75986">
        <ele>331.6</ele>
        <time>2014-05-01T09:40:42.000Z</time>
      </trkpt>
      <trkpt lat="47.49187" lon="6.75982">
        <ele>330.7</ele>
        <time>2014-05-01T09:40:43.001Z</time>
      </trkpt>
      <trkpt lat="47.4919" lon="6.75975">
        <ele>330.4</ele>
        <time>2014-05-01T09:40:44.000Z</time>
      </trkpt>
      <trkpt lat="47.49192" lon="6.7597">
        <ele>331</ele>
        <time>2014-05-01T09:40:45.000Z</time>
      </trkpt>
      <trkpt lat="47.49195" lon="6.75966">
        <ele>332.3</ele>
        <time>2014-05-01T09:40:46.000Z</time>
      </trkpt>
      <trkpt lat="47.49199" lon="6.75963">
        <ele>333.4</ele>
        <time>2014-05-01T09:40:47.000Z</time>
      </trkpt>
      <trkpt lat="47.49202" lon="6.75958">
        <ele>334.5</ele>
        <time>2014-05-01T09:40:48.000Z</time>
      </trkpt>
      <trkpt lat="47.49205" lon="6.75954">
        <ele>335</ele>
        <time>2014-05-01T09:40:49.000Z</time>
      </trkpt>
      <trkpt lat="47.49208" lon="6.7595">
        <ele>335.4</ele>
        <time>2014-05-01T09:40:49.999Z</time>
      </trkpt>
      <trkpt lat="47.49211" lon="6.75945">
        <ele>335.1</ele>
        <time>2014-05-01T09:40:51.000Z</time>
      </trkpt>
      <trkpt lat="47.49212" lon="6.75941">
        <ele>336</ele>
        <time>2014-05-01T09:40:52.000Z</time>
      </trkpt>
      <trkpt lat="47.49214" lon="6.75939">
        <ele>337.3</ele>
        <time>2014-05-01T09:40:53.000Z</time>
      </trkpt>
      <trkpt lat="47.49216" lon="6.75936">
        <ele>339</ele>
        <time>2014-05-01T09:40:54.000Z</time>
      </trkpt>
      <trkpt lat="47.49218" lon="6.75934">
        <ele>340.2</ele>
        <time>2014-05-01T09:40:55.000Z</time>
      </trkpt>
      <trkpt lat="47.4922" lon="6.75928">
        <ele>341.2</ele>
        <time>2014-05-01T09:40:56.000Z</time>
      </trkpt>
      <trkpt lat="47.4922" lon="6.75923">
        <ele>340.2</ele>
        <time>2014-05-01T09:40:57.000Z</time>
      </trkpt>
      <trkpt lat="47.49219" lon="6.75919">
        <ele>338.6</ele>
        <time>2014-05-01T09:40:58.000Z</time>
      </trkpt>
      <trkpt lat="47.4922" lon="6.75914">
        <ele>337.5</ele>
        <time>2014-05-01T09:40:59.000Z</time>
      </trkpt>
      <trkpt lat="47.49222" lon="6.75908">
        <ele>338.1</ele>
        <time>2014-05-01T09:41:00.000Z</time>
      </trkpt>
      <trkpt lat="47.49225" lon="6.75902">
        <ele>338.2</ele>
        <time>2014-05-01T09:41:01.000Z</time>
      </trkpt>
      <trkpt lat="47.49231" lon="6.75892">
        <ele>338.2</ele>
        <time>2014-05-01T09:41:02.000Z</time>
      </trkpt>
      <trkpt lat="47.49234" lon="6.75885">
        <ele>337.9</ele>
        <time>2014-05-01T09:41:03.000Z</time>
      </trkpt>
      <trkpt lat="47.49237" lon="6.75879">
        <ele>338.3</ele>
        <time>2014-05-01T09:41:04.000Z</time>
      </trkpt>
      <trkpt lat="47.49239" lon="6.75873">
        <ele>338.6</ele>
        <time>2014-05-01T09:41:04.999Z</time>
      </trkpt>
      <trkpt lat="47.49266" lon="6.75827">
        <ele>338.8</ele>
        <time>2014-05-01T09:41:13.000Z</time>
      </trkpt>
      <trkpt lat="47.4927" lon="6.7582">
        <ele>338.5</ele>
        <time>2014-05-01T09:41:14.000Z</time>
      </trkpt>
      <trkpt lat="47.49274" lon="6.75815">
        <ele>338.9</ele>
        <time>2014-05-01T09:41:15.000Z</time>
      </trkpt>
      <trkpt lat="47.49277" lon="6.75811">
        <ele>338.9</ele>
        <time>2014-05-01T09:41:16.000Z</time>
      </trkpt>
      <trkpt lat="47.4928" lon="6.75807">
        <ele>339.3</ele>
        <time>2014-05-01T09:41:17.000Z</time>
      </trkpt>
      <trkpt lat="47.49283" lon="6.75803">
        <ele>339.1</ele>
        <time>2014-05-01T09:41:18.000Z</time>
      </trkpt>
      <trkpt lat="47.49286" lon="6.75798">
        <ele>338.8</ele>
        <time>2014-05-01T09:41:19.000Z</time>
      </trkpt>
      <trkpt lat="47.4929" lon="6.75792">
        <ele>336.6</ele>
        <time>2014-05-01T09:41:20.000Z</time>
      </trkpt>
      <trkpt lat="47.49293" lon="6.75787">
        <ele>335.6</ele>
        <time>2014-05-01T09:41:21.000Z</time>
      </trkpt>
      <trkpt lat="47.49296" lon="6.75783">
        <ele>334.7</ele>
        <time>2014-05-01T09:41:22.000Z</time>
      </trkpt>
      <trkpt lat="47.49299" lon="6.75778">
        <ele>334.2</ele>
        <time>2014-05-01T09:41:23.000Z</time>
      </trkpt>
      <trkpt lat="47.49303" lon="6.75773">
        <ele>334.1</ele>
        <time>2014-05-01T09:41:24.000Z</time>
      </trkpt>
      <trkpt lat="47.49306" lon="6.75768">
        <ele>334.1</ele>
        <time>2014-05-01T09:41:25.000Z</time>
      </trkpt>
      <trkpt lat="47.4931" lon="6.75767">
        <ele>335.5</ele>
        <time>2014-05-01T09:41:26.000Z</time>
      </trkpt>
      <trkpt lat="47.49314" lon="6.75763">
        <ele>335.8</ele>
        <time>2014-05-01T09:41:27.000Z</time>
      </trkpt>
      <trkpt lat="47.49317" lon="6.7576">
        <ele>336.3</ele>
        <time>2014-05-01T09:41:28.000Z</time>
      </trkpt>
      <trkpt lat="47.49321" lon="6.75757">
        <ele>335.3</ele>
        <time>2014-05-01T09:41:29.000Z</time>
      </trkpt>
      <trkpt lat="47.49325" lon="6.75753">
        <ele>335</ele>
        <time>2014-05-01T09:41:30.000Z</time>
      </trkpt>
      <trkpt lat="47.49329" lon="6.75751">
        <ele>336.2</ele>
        <time>2014-05-01T09:41:31.000Z</time>
      </trkpt>
      <trkpt lat="47.49333" lon="6.75748">
        <ele>336.2</ele>
        <time>2014-05-01T09:41:32.000Z</time>
      </trkpt>
      <trkpt lat="47.49336" lon="6.75745">
        <ele>337.2</ele>
        <time>2014-05-01T09:41:33.000Z</time>
      </trkpt>
      <trkpt lat="47.4934" lon="6.75742">
        <ele>337.5</ele>
        <time>2014-05-01T09:41:34.000Z</time>
      </trkpt>
      <trkpt lat="47.49342" lon="6.7574">
        <ele>337.7</ele>
        <time>2014-05-01T09:41:35.000Z</time>
      </trkpt>
      <trkpt lat="47.49345" lon="6.75738">
        <ele>338</ele>
        <time>2014-05-01T09:41:36.000Z</time>
      </trkpt>
      <trkpt lat="47.49348" lon="6.75735">
        <ele>338.2</ele>
        <time>2014-05-01T09:41:37.000Z</time>
      </trkpt>
      <trkpt lat="47.4935" lon="6.75734">
        <ele>338.4</ele>
        <time>2014-05-01T09:41:38.000Z</time>
      </trkpt>
      <trkpt lat="47.49354" lon="6.75733">
        <ele>340</ele>
        <time>2014-05-01T09:41:40.000Z</time>
      </trkpt>
      <trkpt lat="47.49355" lon="6.75733">
        <ele>339.6</ele>
        <time>2014-05-01T09:41:41.000Z</time>
      </trkpt>
      <trkpt lat="47.49358" lon="6.75732">
        <ele>338.2</ele>
        <time>2014-05-01T09:41:44.000Z</time>
      </trkpt>
      <trkpt lat="47.4936" lon="6.75731">
        <ele>338.6</ele>
        <time>2014-05-01T09:41:45.000Z</time>
      </trkpt>
      <trkpt lat="47.49363" lon="6.75729">
        <ele>338.6</ele>
        <time>2014-05-01T09:41:46.000Z</time>
      </trkpt>
      <trkpt lat="47.49367" lon="6.75726">
        <ele>337.9</ele>
        <time>2014-05-01T09:41:47.000Z</time>
      </trkpt>
      <trkpt lat="47.49371" lon="6.75723">
        <ele>338</ele>
        <time>2014-05-01T09:41:48.000Z</time>
      </trkpt>
      <trkpt lat="47.49375" lon="6.7572">
        <ele>338.2</ele>
        <time>2014-05-01T09:41:49.000Z</time>
      </trkpt>
      <trkpt lat="47.49379" lon="6.75717">
        <ele>338.2</ele>
        <time>2014-05-01T09:41:50.000Z</time>
      </trkpt>
      <trkpt lat="47.49383" lon="6.75713">
        <ele>339</ele>
        <time>2014-05-01T09:41:51.000Z</time>
      </trkpt>
      <trkpt lat="47.49387" lon="6.7571">
        <ele>339.8</ele>
        <time>2014-05-01T09:41:52.000Z</time>
      </trkpt>
      <trkpt lat="47.49391" lon="6.75707">
        <ele>339.5</ele>
        <time>2014-05-01T09:41:53.000Z</time>
      </trkpt>
      <trkpt lat="47.49395" lon="6.75704">
        <ele>339.7</ele>
        <time>2014-05-01T09:41:54.000Z</time>
      </trkpt>
      <trkpt lat="47.49399" lon="6.75701">
        <ele>339.5</ele>
        <time>2014-05-01T09:41:55.000Z</time>
      </trkpt>
      <trkpt lat="47.49402" lon="6.75698">
        <ele>339.6</ele>
        <time>2014-05-01T09:41:56.000Z</time>
      </trkpt>
      <trkpt lat="47.49405" lon="6.75696">
        <ele>339.4</ele>
        <time>2014-05-01T09:41:57.000Z</time>
      </trkpt>
      <trkpt lat="47.49408" lon="6.75693">
        <ele>339</ele>
        <time>2014-05-01T09:41:58.000Z</time>
      </trkpt>
      <trkpt lat="47.49411" lon="6.7569">
        <ele>340.1</ele>
        <time>2014-05-01T09:41:59.000Z</time>
      </trkpt>
      <trkpt lat="47.49413" lon="6.75688">
        <ele>340.4</ele>
        <time>2014-05-01T09:42:00.000Z</time>
      </trkpt>
      <trkpt lat="47.49415" lon="6.75685">
        <ele>340.3</ele>
        <time>2014-05-01T09:42:01.000Z</time>
      </trkpt>
      <trkpt lat="47.49418" lon="6.75683">
        <ele>339.6</ele>
        <time>2014-05-01T09:42:02.000Z</time>
      </trkpt>
      <trkpt lat="47.4942" lon="6.75681">
        <ele>339.6</ele>
        <time>2014-05-01T09:42:03.000Z</time>
      </trkpt>
      <trkpt lat="47.49422" lon="6.7568">
        <ele>340.1</ele>
        <time>2014-05-01T09:42:04.000Z</time>
      </trkpt>
      <trkpt lat="47.49424" lon="6.75678">
        <ele>340.5</ele>
        <time>2014-05-01T09:42:05.000Z</time>
      </trkpt>
      <trkpt lat="47.4944" lon="6.75689">
        <ele>334.7</ele>
        <time>2014-05-01T09:42:13.000Z</time>
      </trkpt>
      <trkpt lat="47.49441" lon="6.75693">
        <ele>335.3</ele>
        <time>2014-05-01T09:42:14.000Z</time>
      </trkpt>
      <trkpt lat="47.49442" lon="6.75696">
        <ele>335.3</ele>
        <time>2014-05-01T09:42:15.000Z</time>
      </trkpt>
      <trkpt lat="47.49444" lon="6.75699">
        <ele>334.7</ele>
        <time>2014-05-01T09:42:16.000Z</time>
      </trkpt>
      <trkpt lat="47.49446" lon="6.75702">
        <ele>334.2</ele>
        <time>2014-05-01T09:42:17.000Z</time>
      </trkpt>
      <trkpt lat="47.49448" lon="6.75703">
        <ele>334.3</ele>
        <time>2014-05-01T09:42:18.000Z</time>
      </trkpt>
      <trkpt lat="47.49451" lon="6.75703">
        <ele>334.3</ele>
        <time>2014-05-01T09:42:19.000Z</time>
      </trkpt>
      <trkpt lat="47.49455" lon="6.75701">
        <ele>335.2</ele>
        <time>2014-05-01T09:42:20.000Z</time>
      </trkpt>
      <trkpt lat="47.49458" lon="6.75699">
        <ele>335.3</ele>
        <time>2014-05-01T09:42:21.000Z</time>
      </trkpt>
      <trkpt lat="47.49461" lon="6.75698">
        <ele>333.8</ele>
        <time>2014-05-01T09:42:22.000Z</time>
      </trkpt>
      <trkpt lat="47.49465" lon="6.75697">
        <ele>333.2</ele>
        <time>2014-05-01T09:42:23.000Z</time>
      </trkpt>
      <trkpt lat="47.49468" lon="6.75698">
        <ele>332.6</ele>
        <time>2014-05-01T09:42:24.000Z</time>
      </trkpt>
      <trkpt lat="47.49471" lon="6.757">
        <ele>332.5</ele>
        <time>2014-05-01T09:42:25.000Z</time>
      </trkpt>
      <trkpt lat="47.49474" lon="6.75704">
        <ele>332.5</ele>
        <time>2014-05-01T09:42:26.000Z</time>
      </trkpt>
      <trkpt lat="47.49476" lon="6.75709">
        <ele>328.9</ele>
        <time>2014-05-01T09:42:27.000Z</time>
      </trkpt>
      <trkpt lat="47.49478" lon="6.75714">
        <ele>328.7</ele>
        <time>2014-05-01T09:42:28.000Z</time>
      </trkpt>
      <trkpt lat="47.4948" lon="6.7572">
        <ele>328.8</ele>
        <time>2014-05-01T09:42:29.000Z</time>
      </trkpt>
      <trkpt lat="47.49482" lon="6.75726">
        <ele>326.5</ele>
        <time>2014-05-01T09:42:30.000Z</time>
      </trkpt>
      <trkpt lat="47.49484" lon="6.75731">
        <ele>327</ele>
        <time>2014-05-01T09:42:31.000Z</time>
      </trkpt>
      <trkpt lat="47.49486" lon="6.75737">
        <ele>326.5</ele>
        <time>2014-05-01T09:42:32.000Z</time>
      </trkpt>
      <trkpt lat="47.49489" lon="6.75741">
        <ele>326</ele>
        <time>2014-05-01T09:42:33.000Z</time>
      </trkpt>
      <trkpt lat="47.49492" lon="6.75743">
        <ele>325.5</ele>
        <time>2014-05-01T09:42:34.000Z</time>
      </trkpt>
      <trkpt lat="47.49496" lon="6.75744">
        <ele>325.7</ele>
        <time>2014-05-01T09:42:35.000Z</time>
      </trkpt>
      <trkpt lat="47.49499" lon="6.75743">
        <ele>326.2</ele>
        <time>2014-05-01T09:42:36.000Z</time>
      </trkpt>
      <trkpt lat="47.49503" lon="6.75742">
        <ele>325.7</ele>
        <time>2014-05-01T09:42:37.000Z</time>
      </trkpt>
      <trkpt lat="47.49507" lon="6.75741">
        <ele>325.3</ele>
        <time>2014-05-01T09:42:38.000Z</time>
      </trkpt>
      <trkpt lat="47.49511" lon="6.75739">
        <ele>324.6</ele>
        <time>2014-05-01T09:42:39.000Z</time>
      </trkpt>
      <trkpt lat="47.49515" lon="6.75737">
        <ele>323.4</ele>
        <time>2014-05-01T09:42:40.000Z</time>
      </trkpt>
      <trkpt lat="47.49519" lon="6.75735">
        <ele>323</ele>
        <time>2014-05-01T09:42:41.000Z</time>
      </trkpt>
      <trkpt lat="47.49523" lon="6.75733">
        <ele>322.9</ele>
        <time>2014-05-01T09:42:42.000Z</time>
      </trkpt>
      <trkpt lat="47.49526" lon="6.75731">
        <ele>322.4</ele>
        <time>2014-05-01T09:42:43.000Z</time>
      </trkpt>
      <trkpt lat="47.4953" lon="6.75728">
        <ele>322.9</ele>
        <time>2014-05-01T09:42:44.000Z</time>
      </trkpt>
      <trkpt lat="47.49533" lon="6.75725">
        <ele>322.9</ele>
        <time>2014-05-01T09:42:45.000Z</time>
      </trkpt>
      <trkpt lat="47.49536" lon="6.75723">
        <ele>323.1</ele>
        <time>2014-05-01T09:42:46.000Z</time>
      </trkpt>
      <trkpt lat="47.49539" lon="6.7572">
        <ele>323.7</ele>
        <time>2014-05-01T09:42:47.000Z</time>
      </trkpt>
      <trkpt lat="47.49542" lon="6.75716">
        <ele>323.4</ele>
        <time>2014-05-01T09:42:48.000Z</time>
      </trkpt>
      <trkpt lat="47.49545" lon="6.75713">
        <ele>323.1</ele>
        <time>2014-05-01T09:42:49.000Z</time>
      </trkpt>
      <trkpt lat="47.49548" lon="6.75709">
        <ele>322.8</ele>
        <time>2014-05-01T09:42:50.000Z</time>
      </trkpt>
      <trkpt lat="47.49552" lon="6.75705">
        <ele>322.4</ele>
        <time>2014-05-01T09:42:51.000Z</time>
      </trkpt>
      <trkpt lat="47.49555" lon="6.75701">
        <ele>322.3</ele>
        <time>2014-05-01T09:42:52.000Z</time>
      </trkpt>
      <trkpt lat="47.49557" lon="6.75697">
        <ele>322.3</ele>
        <time>2014-05-01T09:42:53.000Z</time>
      </trkpt>
      <trkpt lat="47.4956" lon="6.75693">
        <ele>323.1</ele>
        <time>2014-05-01T09:42:54.000Z</time>
      </trkpt>
      <trkpt lat="47.49563" lon="6.75689">
        <ele>323.2</ele>
        <time>2014-05-01T09:42:55.000Z</time>
      </trkpt>
      <trkpt lat="47.49565" lon="6.75685">
        <ele>322.9</ele>
        <time>2014-05-01T09:42:56.000Z</time>
      </trkpt>
      <trkpt lat="47.49568" lon="6.75681">
        <ele>322.8</ele>
        <time>2014-05-01T09:42:57.000Z</time>
      </trkpt>
      <trkpt lat="47.4957" lon="6.75677">
        <ele>322.7</ele>
        <time>2014-05-01T09:42:58.000Z</time>
      </trkpt>
      <trkpt lat="47.49573" lon="6.75672">
        <ele>322.9</ele>
        <time>2014-05-01T09:42:59.000Z</time>
      </trkpt>
      <trkpt lat="47.49576" lon="6.75669">
        <ele>322.2</ele>
        <time>2014-05-01T09:43:00.000Z</time>
      </trkpt>
      <trkpt lat="47.49579" lon="6.75667">
        <ele>322</ele>
        <time>2014-05-01T09:43:01.000Z</time>
      </trkpt>
      <trkpt lat="47.49582" lon="6.75668">
        <ele>323.1</ele>
        <time>2014-05-01T09:43:02.000Z</time>
      </trkpt>
      <trkpt lat="47.49585" lon="6.7567">
        <ele>323.4</ele>
        <time>2014-05-01T09:43:03.000Z</time>
      </trkpt>
      <trkpt lat="47.49589" lon="6.75674">
        <ele>323.7</ele>
        <time>2014-05-01T09:43:04.000Z</time>
      </trkpt>
      <trkpt lat="47.49591" lon="6.75678">
        <ele>323.7</ele>
        <time>2014-05-01T09:43:05.000Z</time>
      </trkpt>
      <trkpt lat="47.496" lon="6.75711">
        <ele>323.1</ele>
        <time>2014-05-01T09:43:13.000Z</time>
      </trkpt>
      <trkpt lat="47.49598" lon="6.75715">
        <ele>324.2</ele>
        <time>2014-05-01T09:43:14.000Z</time>
      </trkpt>
      <trkpt lat="47.49594" lon="6.75718">
        <ele>324.6</ele>
        <time>2014-05-01T09:43:15.000Z</time>
      </trkpt>
      <trkpt lat="47.49591" lon="6.75721">
        <ele>325.2</ele>
        <time>2014-05-01T09:43:16.000Z</time>
      </trkpt>
      <trkpt lat="47.49589" lon="6.75723">
        <ele>325.2</ele>
        <time>2014-05-01T09:43:17.000Z</time>
      </trkpt>
      <trkpt lat="47.49586" lon="6.75725">
        <ele>325.3</ele>
        <time>2014-05-01T09:43:18.000Z</time>
      </trkpt>
      <trkpt lat="47.49583" lon="6.75727">
        <ele>325.6</ele>
        <time>2014-05-01T09:43:19.000Z</time>
      </trkpt>
      <trkpt lat="47.4958" lon="6.75729">
        <ele>326.4</ele>
        <time>2014-05-01T09:43:20.000Z</time>
      </trkpt>
      <trkpt lat="47.49577" lon="6.75731">
        <ele>326.7</ele>
        <time>2014-05-01T09:43:21.000Z</time>
      </trkpt>
      <trkpt lat="47.49574" lon="6.75733">
        <ele>327.3</ele>
        <time>2014-05-01T09:43:22.000Z</time>
      </trkpt>
      <trkpt lat="47.49572" lon="6.75735">
        <ele>327.4</ele>
        <time>2014-05-01T09:43:23.000Z</time>
      </trkpt>
      <trkpt lat="47.49569" lon="6.75738">
        <ele>328.5</ele>
        <time>2014-05-01T09:43:24.000Z</time>
      </trkpt>
      <trkpt lat="47.49567" lon="6.7574">
        <ele>328.8</ele>
        <time>2014-05-01T09:43:25.000Z</time>
      </trkpt>
      <trkpt lat="47.49565" lon="6.75742">
        <ele>328.5</ele>
        <time>2014-05-01T09:43:26.000Z</time>
      </trkpt>
      <trkpt lat="47.49563" lon="6.75744">
        <ele>328.6</ele>
        <time>2014-05-01T09:43:27.000Z</time>
      </trkpt>
      <trkpt lat="47.4956" lon="6.75746">
        <ele>328.6</ele>
        <time>2014-05-01T09:43:28.000Z</time>
      </trkpt>
      <trkpt lat="47.49558" lon="6.75748">
        <ele>328</ele>
        <time>2014-05-01T09:43:29.000Z</time>
      </trkpt>
      <trkpt lat="47.49556" lon="6.75751">
        <ele>328.1</ele>
        <time>2014-05-01T09:43:30.000Z</time>
      </trkpt>
      <trkpt lat="47.49555" lon="6.75754">
        <ele>328.4</ele>
        <time>2014-05-01T09:43:31.000Z</time>
      </trkpt>
      <trkpt lat="47.49554" lon="6.75759">
        <ele>329.1</ele>
        <time>2014-05-01T09:43:33.000Z</time>
      </trkpt>
      <trkpt lat="47.49555" lon="6.75761">
        <ele>329.5</ele>
        <time>2014-05-01T09:43:34.000Z</time>
      </trkpt>
      <trkpt lat="47.49557" lon="6.75765">
        <ele>330.6</ele>
        <time>2014-05-01T09:43:36.000Z</time>
      </trkpt>
      <trkpt lat="47.49558" lon="6.75766">
        <ele>331.1</ele>
        <time>2014-05-01T09:43:37.000Z</time>
      </trkpt>
      <trkpt lat="47.49561" lon="6.75768">
        <ele>329.2</ele>
        <time>2014-05-01T09:43:39.000Z</time>
      </trkpt>
      <trkpt lat="47.49562" lon="6.75769">
        <ele>330.8</ele>
        <time>2014-05-01T09:43:40.000Z</time>
      </trkpt>
      <trkpt lat="47.49565" lon="6.75771">
        <ele>330.3</ele>
        <time>2014-05-01T09:43:44.999Z</time>
      </trkpt>
      <trkpt lat="47.49566" lon="6.75772">
        <ele>328.7</ele>
        <time>2014-05-01T09:43:46.000Z</time>
      </trkpt>
      <trkpt lat="47.4957" lon="6.75772">
        <ele>329.5</ele>
        <time>2014-05-01T09:43:50.000Z</time>
      </trkpt>
      <trkpt lat="47.49571" lon="6.75772">
        <ele>330</ele>
        <time>2014-05-01T09:43:51.000Z</time>
      </trkpt>
      <trkpt lat="47.49574" lon="6.75769">
        <ele>331.3</ele>
        <time>2014-05-01T09:43:55.000Z</time>
      </trkpt>
      <trkpt lat="47.49575" lon="6.75769">
        <ele>331</ele>
        <time>2014-05-01T09:43:56.000Z</time>
      </trkpt>
      <trkpt lat="47.49579" lon="6.75771">
        <ele>334.1</ele>
        <time>2014-05-01T09:43:59.000Z</time>
      </trkpt>
      <trkpt lat="47.4958" lon="6.75772">
        <ele>334.6</ele>
        <time>2014-05-01T09:44:00.000Z</time>
      </trkpt>
      <trkpt lat="47.49583" lon="6.75775">
        <ele>334.4</ele>
        <time>2014-05-01T09:44:02.000Z</time>
      </trkpt>
      <trkpt lat="47.49584" lon="6.75776">
        <ele>334.6</ele>
        <time>2014-05-01T09:44:03.000Z</time>
      </trkpt>
      <trkpt lat="47.49586" lon="6.75777">
        <ele>337.7</ele>
        <time>2014-05-01T09:44:04.999Z</time>
      </trkpt>
      <trkpt lat="47.49595" lon="6.75785">
        <ele>342.9</ele>
        <time>2014-05-01T09:44:13.000Z</time>
      </trkpt>
      <trkpt lat="47.49599" lon="6.75786">
        <ele>344</ele>
        <time>2014-05-01T09:44:15.000Z</time>
      </trkpt>
      <trkpt lat="47.49601" lon="6.75785">
        <ele>344.1</ele>
        <time>2014-05-01T09:44:16.000Z</time>
      </trkpt>
      <trkpt lat="47.49604" lon="6.75785">
        <ele>343.9</ele>
        <time>2014-05-01T09:44:18.000Z</time>
      </trkpt>
      <trkpt lat="47.49605" lon="6.75785">
        <ele>343.9</ele>
        <time>2014-05-01T09:44:19.000Z</time>
      </trkpt>
      <trkpt lat="47.49608" lon="6.75785">
        <ele>344.3</ele>
        <time>2014-05-01T09:44:21.000Z</time>
      </trkpt>
      <trkpt lat="47.4961" lon="6.75785">
        <ele>344.8</ele>
        <time>2014-05-01T09:44:22.000Z</time>
      </trkpt>
      <trkpt lat="47.49614" lon="6.75785">
        <ele>345.7</ele>
        <time>2014-05-01T09:44:24.000Z</time>
      </trkpt>
      <trkpt lat="47.49617" lon="6.75785">
        <ele>345.9</ele>
        <time>2014-05-01T09:44:25.000Z</time>
      </trkpt>
      <trkpt lat="47.4962" lon="6.75786">
        <ele>349.6</ele>
        <time>2014-05-01T09:44:27.000Z</time>
      </trkpt>
      <trkpt lat="47.49622" lon="6.75786">
        <ele>351.9</ele>
        <time>2014-05-01T09:44:28.000Z</time>
      </trkpt>
      <trkpt lat="47.49626" lon="6.75786">
        <ele>353.3</ele>
        <time>2014-05-01T09:44:30.000Z</time>
      </trkpt>
      <trkpt lat="47.49627" lon="6.75787">
        <ele>353.7</ele>
        <time>2014-05-01T09:44:31.000Z</time>
      </trkpt>
      <trkpt lat="47.4963" lon="6.7579">
        <ele>360</ele>
        <time>2014-05-01T09:44:34.000Z</time>
      </trkpt>
      <trkpt lat="47.49631" lon="6.75791">
        <ele>359.4</ele>
        <time>2014-05-01T09:44:35.000Z</time>
      </trkpt>
      <trkpt lat="47.49635" lon="6.75793">
        <ele>357</ele>
        <time>2014-05-01T09:44:37.000Z</time>
      </trkpt>
      <trkpt lat="47.49637" lon="6.75794">
        <ele>356.2</ele>
        <time>2014-05-01T09:44:38.000Z</time>
      </trkpt>
      <trkpt lat="47.49639" lon="6.75794">
        <ele>357.9</ele>
        <time>2014-05-01T09:44:39.000Z</time>
      </trkpt>
      <trkpt lat="47.49641" lon="6.75795">
        <ele>358.9</ele>
        <time>2014-05-01T09:44:40.000Z</time>
      </trkpt>
      <trkpt lat="47.49645" lon="6.75797">
        <ele>358.3</ele>
        <time>2014-05-01T09:44:42.000Z</time>
      </trkpt>
      <trkpt lat="47.49647" lon="6.75797">
        <ele>358</ele>
        <time>2014-05-01T09:44:43.000Z</time>
      </trkpt>
      <trkpt lat="47.49649" lon="6.75797">
        <ele>356.6</ele>
        <time>2014-05-01T09:44:44.000Z</time>
      </trkpt>
      <trkpt lat="47.49652" lon="6.75796">
        <ele>355.9</ele>
        <time>2014-05-01T09:44:45.000Z</time>
      </trkpt>
      <trkpt lat="47.49654" lon="6.75794">
        <ele>355.9</ele>
        <time>2014-05-01T09:44:46.000Z</time>
      </trkpt>
      <trkpt lat="47.49656" lon="6.75793">
        <ele>356.4</ele>
        <time>2014-05-01T09:44:47.000Z</time>
      </trkpt>
      <trkpt lat="47.4966" lon="6.75792">
        <ele>356.6</ele>
        <time>2014-05-01T09:44:49.000Z</time>
      </trkpt>
      <trkpt lat="47.49662" lon="6.75792">
        <ele>357</ele>
        <time>2014-05-01T09:44:50.000Z</time>
      </trkpt>
      <trkpt lat="47.49665" lon="6.75791">
        <ele>358.8</ele>
        <time>2014-05-01T09:44:52.000Z</time>
      </trkpt>
      <trkpt lat="47.49667" lon="6.75791">
        <ele>360.2</ele>
        <time>2014-05-01T09:44:53.000Z</time>
      </trkpt>
      <trkpt lat="47.49669" lon="6.75791">
        <ele>362</ele>
        <time>2014-05-01T09:44:54.000Z</time>
      </trkpt>
      <trkpt lat="47.49672" lon="6.75792">
        <ele>362.5</ele>
        <time>2014-05-01T09:44:55.000Z</time>
      </trkpt>
      <trkpt lat="47.49674" lon="6.75791">
        <ele>363.2</ele>
        <time>2014-05-01T09:44:56.000Z</time>
      </trkpt>
      <trkpt lat="47.49676" lon="6.75791">
        <ele>364.1</ele>
        <time>2014-05-01T09:44:57.000Z</time>
      </trkpt>
      <trkpt lat="47.49681" lon="6.7579">
        <ele>365.5</ele>
        <time>2014-05-01T09:44:59.000Z</time>
      </trkpt>
      <trkpt lat="47.49683" lon="6.75789">
        <ele>366</ele>
        <time>2014-05-01T09:45:00.000Z</time>
      </trkpt>
      <trkpt lat="47.49685" lon="6.75788">
        <ele>366.3</ele>
        <time>2014-05-01T09:45:01.000Z</time>
      </trkpt>
      <trkpt lat="47.49687" lon="6.75788">
        <ele>366.9</ele>
        <time>2014-05-01T09:45:02.000Z</time>
      </trkpt>
      <trkpt lat="47.4969" lon="6.75787">
        <ele>366.7</ele>
        <time>2014-05-01T09:45:03.000Z</time>
      </trkpt>
      <trkpt lat="47.49692" lon="6.75787">
        <ele>366.4</ele>
        <time>2014-05-01T09:45:04.000Z</time>
      </trkpt>
      <trkpt lat="47.49695" lon="6.75787">
        <ele>366.3</ele>
        <time>2014-05-01T09:45:05.000Z</time>
      </trkpt>
      <trkpt lat="47.49714" lon="6.75783">
        <ele>369.1</ele>
        <time>2014-05-01T09:45:13.000Z</time>
      </trkpt>
      <trkpt lat="47.49717" lon="6.75783">
        <ele>368.6</ele>
        <time>2014-05-01T09:45:14.000Z</time>
      </trkpt>
      <trkpt lat="47.4972" lon="6.75781">
        <ele>372</ele>
        <time>2014-05-01T09:45:15.000Z</time>
      </trkpt>
      <trkpt lat="47.49723" lon="6.7578">
        <ele>371.3</ele>
        <time>2014-05-01T09:45:16.000Z</time>
      </trkpt>
      <trkpt lat="47.49725" lon="6.75779">
        <ele>372.1</ele>
        <time>2014-05-01T09:45:17.000Z</time>
      </trkpt>
      <trkpt lat="47.49728" lon="6.75778">
        <ele>372.3</ele>
        <time>2014-05-01T09:45:18.000Z</time>
      </trkpt>
      <trkpt lat="47.49731" lon="6.75778">
        <ele>372</ele>
        <time>2014-05-01T09:45:19.000Z</time>
      </trkpt>
      <trkpt lat="47.49734" lon="6.75777">
        <ele>370.9</ele>
        <time>2014-05-01T09:45:20.000Z</time>
      </trkpt>
      <trkpt lat="47.49737" lon="6.75776">
        <ele>371.6</ele>
        <time>2014-05-01T09:45:21.000Z</time>
      </trkpt>
      <trkpt lat="47.49739" lon="6.75775">
        <ele>372</ele>
        <time>2014-05-01T09:45:22.000Z</time>
      </trkpt>
      <trkpt lat="47.49742" lon="6.75774">
        <ele>371.8</ele>
        <time>2014-05-01T09:45:23.000Z</time>
      </trkpt>
      <trkpt lat="47.49745" lon="6.75772">
        <ele>371.3</ele>
        <time>2014-05-01T09:45:24.000Z</time>
      </trkpt>
      <trkpt lat="47.49748" lon="6.75771">
        <ele>370.4</ele>
        <time>2014-05-01T09:45:25.000Z</time>
      </trkpt>
      <trkpt lat="47.49751" lon="6.7577">
        <ele>370.4</ele>
        <time>2014-05-01T09:45:26.000Z</time>
      </trkpt>
      <trkpt lat="47.49753" lon="6.75769">
        <ele>370.9</ele>
        <time>2014-05-01T09:45:27.000Z</time>
      </trkpt>
      <trkpt lat="47.49756" lon="6.75768">
        <ele>370.5</ele>
        <time>2014-05-01T09:45:28.000Z</time>
      </trkpt>
      <trkpt lat="47.49759" lon="6.75768">
        <ele>371.9</ele>
        <time>2014-05-01T09:45:29.000Z</time>
      </trkpt>
      <trkpt lat="47.49761" lon="6.75768">
        <ele>373.1</ele>
        <time>2014-05-01T09:45:30.000Z</time>
      </trkpt>
      <trkpt lat="47.49764" lon="6.75768">
        <ele>373.7</ele>
        <time>2014-05-01T09:45:31.000Z</time>
      </trkpt>
      <trkpt lat="47.49768" lon="6.75768">
        <ele>375</ele>
        <time>2014-05-01T09:45:33.000Z</time>
      </trkpt>
      <trkpt lat="47.4977" lon="6.75768">
        <ele>375</ele>
        <time>2014-05-01T09:45:34.000Z</time>
      </trkpt>
      <trkpt lat="47.49773" lon="6.75768">
        <ele>375.1</ele>
        <time>2014-05-01T09:45:35.000Z</time>
      </trkpt>
      <trkpt lat="47.49775" lon="6.75767">
        <ele>374.1</ele>
        <time>2014-05-01T09:45:36.000Z</time>
      </trkpt>
      <trkpt lat="47.49778" lon="6.75767">
        <ele>374.3</ele>
        <time>2014-05-01T09:45:37.000Z</time>
      </trkpt>
      <trkpt lat="47.4978" lon="6.75766">
        <ele>374.3</ele>
        <time>2014-05-01T09:45:38.000Z</time>
      </trkpt>
      <trkpt lat="47.49782" lon="6.75764">
        <ele>374.4</ele>
        <time>2014-05-01T09:45:39.000Z</time>
      </trkpt>
      <trkpt lat="47.49785" lon="6.75763">
        <ele>374.3</ele>
        <time>2014-05-01T09:45:40.000Z</time>
      </trkpt>
      <trkpt lat="47.49787" lon="6.75762">
        <ele>376</ele>
        <time>2014-05-01T09:45:41.000Z</time>
      </trkpt>
      <trkpt lat="47.49789" lon="6.7576">
        <ele>376.5</ele>
        <time>2014-05-01T09:45:42.000Z</time>
      </trkpt>
      <trkpt lat="47.49792" lon="6.75759">
        <ele>376.3</ele>
        <time>2014-05-01T09:45:43.000Z</time>
      </trkpt>
      <trkpt lat="47.49794" lon="6.75759">
        <ele>378.4</ele>
        <time>2014-05-01T09:45:44.000Z</time>
      </trkpt>
      <trkpt lat="47.49797" lon="6.75758">
        <ele>380.3</ele>
        <time>2014-05-01T09:45:46.000Z</time>
      </trkpt>
      <trkpt lat="47.49798" lon="6.75758">
        <ele>379.6</ele>
        <time>2014-05-01T09:45:47.000Z</time>
      </trkpt>
      <trkpt lat="47.49802" lon="6.75758">
        <ele>379.4</ele>
        <time>2014-05-01T09:45:49.000Z</time>
      </trkpt>
      <trkpt lat="47.49804" lon="6.75757">
        <ele>378.1</ele>
        <time>2014-05-01T09:45:50.000Z</time>
      </trkpt>
      <trkpt lat="47.49807" lon="6.75756">
        <ele>377.7</ele>
        <time>2014-05-01T09:45:51.000Z</time>
      </trkpt>
      <trkpt lat="47.49809" lon="6.75755">
        <ele>377.5</ele>
        <time>2014-05-01T09:45:52.000Z</time>
      </trkpt>
      <trkpt lat="47.49812" lon="6.75754">
        <ele>377.1</ele>
        <time>2014-05-01T09:45:53.000Z</time>
      </trkpt>
      <trkpt lat="47.49814" lon="6.75753">
        <ele>377.5</ele>
        <time>2014-05-01T09:45:54.000Z</time>
      </trkpt>
      <trkpt lat="47.49816" lon="6.75753">
        <ele>377.6</ele>
        <time>2014-05-01T09:45:55.000Z</time>
      </trkpt>
      <trkpt lat="47.49819" lon="6.75752">
        <ele>378.3</ele>
        <time>2014-05-01T09:45:56.000Z</time>
      </trkpt>
      <trkpt lat="47.49822" lon="6.75751">
        <ele>378.3</ele>
        <time>2014-05-01T09:45:58.000Z</time>
      </trkpt>
      <trkpt lat="47.49824" lon="6.7575">
        <ele>379</ele>
        <time>2014-05-01T09:45:59.000Z</time>
      </trkpt>
      <trkpt lat="47.49828" lon="6.75748">
        <ele>380.2</ele>
        <time>2014-05-01T09:46:01.000Z</time>
      </trkpt>
      <trkpt lat="47.4983" lon="6.75748">
        <ele>380.6</ele>
        <time>2014-05-01T09:46:02.000Z</time>
      </trkpt>
      <trkpt lat="47.49834" lon="6.75746">
        <ele>379.6</ele>
        <time>2014-05-01T09:46:04.000Z</time>
      </trkpt>
      <trkpt lat="47.49836" lon="6.75745">
        <ele>379.6</ele>
        <time>2014-05-01T09:46:05.000Z</time>
      </trkpt>
      <trkpt lat="47.49849" lon="6.75742">
        <ele>378.8</ele>
        <time>2014-05-01T09:46:13.000Z</time>
      </trkpt>
      <trkpt lat="47.49852" lon="6.75741">
        <ele>380.2</ele>
        <time>2014-05-01T09:46:15.000Z</time>
      </trkpt>
      <trkpt lat="47.49854" lon="6.7574">
        <ele>380.7</ele>
        <time>2014-05-01T09:46:16.000Z</time>
      </trkpt>
      <trkpt lat="47.49856" lon="6.75737">
        <ele>379.7</ele>
        <time>2014-05-01T09:46:18.000Z</time>
      </trkpt>
      <trkpt lat="47.49858" lon="6.75737">
        <ele>380</ele>
        <time>2014-05-01T09:46:19.000Z</time>
      </trkpt>
      <trkpt lat="47.49862" lon="6.75736">
        <ele>378.9</ele>
        <time>2014-05-01T09:46:21.000Z</time>
      </trkpt>
      <trkpt lat="47.49864" lon="6.75735">
        <ele>378.8</ele>
        <time>2014-05-01T09:46:22.000Z</time>
      </trkpt>
      <trkpt lat="47.49866" lon="6.75734">
        <ele>379</ele>
        <time>2014-05-01T09:46:23.000Z</time>
      </trkpt>
      <trkpt lat="47.49869" lon="6.75732">
        <ele>378.4</ele>
        <time>2014-05-01T09:46:24.000Z</time>
      </trkpt>
      <trkpt lat="47.49871" lon="6.7573">
        <ele>378.7</ele>
        <time>2014-05-01T09:46:25.000Z</time>
      </trkpt>
      <trkpt lat="47.49873" lon="6.75729">
        <ele>380</ele>
        <time>2014-05-01T09:46:26.000Z</time>
      </trkpt>
      <trkpt lat="47.49876" lon="6.75729">
        <ele>381.5</ele>
        <time>2014-05-01T09:46:28.000Z</time>
      </trkpt>
      <trkpt lat="47.49878" lon="6.75729">
        <ele>379.2</ele>
        <time>2014-05-01T09:46:29.000Z</time>
      </trkpt>
      <trkpt lat="47.49882" lon="6.75729">
        <ele>379.9</ele>
        <time>2014-05-01T09:46:31.000Z</time>
      </trkpt>
      <trkpt lat="47.49885" lon="6.75729">
        <ele>378.8</ele>
        <time>2014-05-01T09:46:32.000Z</time>
      </trkpt>
      <trkpt lat="47.49888" lon="6.75729">
        <ele>378.6</ele>
        <time>2014-05-01T09:46:33.000Z</time>
      </trkpt>
      <trkpt lat="47.4989" lon="6.75728">
        <ele>378.1</ele>
        <time>2014-05-01T09:46:34.000Z</time>
      </trkpt>
      <trkpt lat="47.49892" lon="6.75727">
        <ele>377.9</ele>
        <time>2014-05-01T09:46:35.000Z</time>
      </trkpt>
      <trkpt lat="47.49895" lon="6.75726">
        <ele>377.4</ele>
        <time>2014-05-01T09:46:36.000Z</time>
      </trkpt>
      <trkpt lat="47.49897" lon="6.75726">
        <ele>377.5</ele>
        <time>2014-05-01T09:46:37.000Z</time>
      </trkpt>
      <trkpt lat="47.49899" lon="6.75725">
        <ele>377.6</ele>
        <time>2014-05-01T09:46:38.000Z</time>
      </trkpt>
      <trkpt lat="47.49903" lon="6.75726">
        <ele>378.7</ele>
        <time>2014-05-01T09:46:40.000Z</time>
      </trkpt>
      <trkpt lat="47.49905" lon="6.75727">
        <ele>378.5</ele>
        <time>2014-05-01T09:46:41.000Z</time>
      </trkpt>
      <trkpt lat="47.49909" lon="6.75729">
        <ele>379.6</ele>
        <time>2014-05-01T09:46:43.000Z</time>
      </trkpt>
      <trkpt lat="47.49911" lon="6.7573">
        <ele>374.5</ele>
        <time>2014-05-01T09:46:44.000Z</time>
      </trkpt>
      <trkpt lat="47.49914" lon="6.75732">
        <ele>374.1</ele>
        <time>2014-05-01T09:46:46.000Z</time>
      </trkpt>
      <trkpt lat="47.49915" lon="6.75732">
        <ele>372.5</ele>
        <time>2014-05-01T09:46:47.000Z</time>
      </trkpt>
      <trkpt lat="47.49918" lon="6.75734">
        <ele>371.7</ele>
        <time>2014-05-01T09:46:49.000Z</time>
      </trkpt>
      <trkpt lat="47.4992" lon="6.75735">
        <ele>371.3</ele>
        <time>2014-05-01T09:46:50.000Z</time>
      </trkpt>
      <trkpt lat="47.49923" lon="6.75738">
        <ele>370</ele>
        <time>2014-05-01T09:46:52.000Z</time>
      </trkpt>
      <trkpt lat="47.49924" lon="6.7574">
        <ele>371.1</ele>
        <time>2014-05-01T09:46:53.000Z</time>
      </trkpt>
      <trkpt lat="47.49927" lon="6.75743">
        <ele>372.2</ele>
        <time>2014-05-01T09:46:55.000Z</time>
      </trkpt>
      <trkpt lat="47.49929" lon="6.75745">
        <ele>372.8</ele>
        <time>2014-05-01T09:46:56.000Z</time>
      </trkpt>
      <trkpt lat="47.49932" lon="6.75749">
        <ele>374.3</ele>
        <time>2014-05-01T09:46:59.000Z</time>
      </trkpt>
      <trkpt lat="47.49933" lon="6.7575">
        <ele>375.8</ele>
        <time>2014-05-01T09:47:00.000Z</time>
      </trkpt>
      <trkpt lat="47.49936" lon="6.75754">
        <ele>378.2</ele>
        <time>2014-05-01T09:47:02.000Z</time>
      </trkpt>
      <trkpt lat="47.49937" lon="6.75756">
        <ele>379.1</ele>
        <time>2014-05-01T09:47:03.000Z</time>
      </trkpt>
      <trkpt lat="47.4994" lon="6.75759">
        <ele>379.6</ele>
        <time>2014-05-01T09:47:05.000Z</time>
      </trkpt>
      <trkpt lat="47.49947" lon="6.75771">
        <ele>375.2</ele>
        <time>2014-05-01T09:47:13.000Z</time>
      </trkpt>
      <trkpt lat="47.4995" lon="6.75774">
        <ele>380.8</ele>
        <time>2014-05-01T09:47:15.000Z</time>
      </trkpt>
      <trkpt lat="47.49952" lon="6.75775">
        <ele>381.6</ele>
        <time>2014-05-01T09:47:16.000Z</time>
      </trkpt>
      <trkpt lat="47.49955" lon="6.75777">
        <ele>382.5</ele>
        <time>2014-05-01T09:47:18.000Z</time>
      </trkpt>
      <trkpt lat="47.49957" lon="6.75778">
        <ele>381.1</ele>
        <time>2014-05-01T09:47:19.000Z</time>
      </trkpt>
      <trkpt lat="47.4996" lon="6.75782">
        <ele>380.5</ele>
        <time>2014-05-01T09:47:21.000Z</time>
      </trkpt>
      <trkpt lat="47.49962" lon="6.75783">
        <ele>380.8</ele>
        <time>2014-05-01T09:47:22.000Z</time>
      </trkpt>
      <trkpt lat="47.49965" lon="6.75787">
        <ele>381.1</ele>
        <time>2014-05-01T09:47:24.000Z</time>
      </trkpt>
      <trkpt lat="47.49967" lon="6.75789">
        <ele>380.8</ele>
        <time>2014-05-01T09:47:25.000Z</time>
      </trkpt>
      <trkpt lat="47.49969" lon="6.75794">
        <ele>380.7</ele>
        <time>2014-05-01T09:47:28.000Z</time>
      </trkpt>
      <trkpt lat="47.4997" lon="6.75797">
        <ele>382.4</ele>
        <time>2014-05-01T09:47:29.000Z</time>
      </trkpt>
      <trkpt lat="47.49971" lon="6.758">
        <ele>384.7</ele>
        <time>2014-05-01T09:47:30.000Z</time>
      </trkpt>
      <trkpt lat="47.49972" lon="6.75804">
        <ele>386.4</ele>
        <time>2014-05-01T09:47:31.000Z</time>
      </trkpt>
      <trkpt lat="47.49974" lon="6.75808">
        <ele>386.7</ele>
        <time>2014-05-01T09:47:32.000Z</time>
      </trkpt>
      <trkpt lat="47.49976" lon="6.75812">
        <ele>387.1</ele>
        <time>2014-05-01T09:47:33.000Z</time>
      </trkpt>
      <trkpt lat="47.49977" lon="6.75815">
        <ele>387.7</ele>
        <time>2014-05-01T09:47:34.000Z</time>
      </trkpt>
      <trkpt lat="47.49979" lon="6.75818">
        <ele>386</ele>
        <time>2014-05-01T09:47:35.000Z</time>
      </trkpt>
      <trkpt lat="47.49981" lon="6.75819">
        <ele>382.9</ele>
        <time>2014-05-01T09:47:36.000Z</time>
      </trkpt>
      <trkpt lat="47.49984" lon="6.7582">
        <ele>381.2</ele>
        <time>2014-05-01T09:47:37.000Z</time>
      </trkpt>
      <trkpt lat="47.49988" lon="6.75821">
        <ele>380.8</ele>
        <time>2014-05-01T09:47:39.000Z</time>
      </trkpt>
      <trkpt lat="47.49989" lon="6.75822">
        <ele>380.4</ele>
        <time>2014-05-01T09:47:40.000Z</time>
      </trkpt>
      <trkpt lat="47.49992" lon="6.75825">
        <ele>380.3</ele>
        <time>2014-05-01T09:47:42.000Z</time>
      </trkpt>
      <trkpt lat="47.49993" lon="6.75826">
        <ele>379.6</ele>
        <time>2014-05-01T09:47:43.000Z</time>
      </trkpt>
      <trkpt lat="47.49994" lon="6.75831">
        <ele>378.5</ele>
        <time>2014-05-01T09:47:46.000Z</time>
      </trkpt>
      <trkpt lat="47.49994" lon="6.75834">
        <ele>378.7</ele>
        <time>2014-05-01T09:47:47.000Z</time>
      </trkpt>
      <trkpt lat="47.49995" lon="6.75838">
        <ele>380</ele>
        <time>2014-05-01T09:47:49.000Z</time>
      </trkpt>
      <trkpt lat="47.49995" lon="6.75841">
        <ele>382.6</ele>
        <time>2014-05-01T09:47:50.000Z</time>
      </trkpt>
      <trkpt lat="47.49995" lon="6.75846">
        <ele>385.4</ele>
        <time>2014-05-01T09:47:53.000Z</time>
      </trkpt>
      <trkpt lat="47.49996" lon="6.75848">
        <ele>383.7</ele>
        <time>2014-05-01T09:47:54.000Z</time>
      </trkpt>
      <trkpt lat="47.49998" lon="6.75852">
        <ele>384.4</ele>
        <time>2014-05-01T09:47:56.000Z</time>
      </trkpt>
      <trkpt lat="47.5" lon="6.75854">
        <ele>384.4</ele>
        <time>2014-05-01T09:47:57.000Z</time>
      </trkpt>
      <trkpt lat="47.50001" lon="6.75856">
        <ele>384.5</ele>
        <time>2014-05-01T09:47:58.000Z</time>
      </trkpt>
      <trkpt lat="47.50003" lon="6.7586">
        <ele>379.7</ele>
        <time>2014-05-01T09:47:59.000Z</time>
      </trkpt>
      <trkpt lat="47.50005" lon="6.75862">
        <ele>381.2</ele>
        <time>2014-05-01T09:48:00.000Z</time>
      </trkpt>
      <trkpt lat="47.50007" lon="6.75866">
        <ele>382.7</ele>
        <time>2014-05-01T09:48:01.000Z</time>
      </trkpt>
      <trkpt lat="47.50008" lon="6.7587">
        <ele>384.8</ele>
        <time>2014-05-01T09:48:02.000Z</time>
      </trkpt>
      <trkpt lat="47.5001" lon="6.75873">
        <ele>386.1</ele>
        <time>2014-05-01T09:48:03.000Z</time>
      </trkpt>
      <trkpt lat="47.50012" lon="6.75878">
        <ele>385.2</ele>
        <time>2014-05-01T09:48:05.000Z</time>
      </trkpt>
      <trkpt lat="47.50026" lon="6.75898">
        <ele>376.4</ele>
        <time>2014-05-01T09:48:13.000Z</time>
      </trkpt>
      <trkpt lat="47.50028" lon="6.759">
        <ele>379.6</ele>
        <time>2014-05-01T09:48:14.000Z</time>
      </trkpt>
      <trkpt lat="47.50032" lon="6.75904">
        <ele>375.5</ele>
        <time>2014-05-01T09:48:15.000Z</time>
      </trkpt>
      <trkpt lat="47.50035" lon="6.75907">
        <ele>376.1</ele>
        <time>2014-05-01T09:48:16.000Z</time>
      </trkpt>
      <trkpt lat="47.50038" lon="6.7591">
        <ele>376</ele>
        <time>2014-05-01T09:48:17.000Z</time>
      </trkpt>
      <trkpt lat="47.50041" lon="6.75914">
        <ele>376.8</ele>
        <time>2014-05-01T09:48:18.000Z</time>
      </trkpt>
      <trkpt lat="47.50044" lon="6.75918">
        <ele>377.1</ele>
        <time>2014-05-01T09:48:19.000Z</time>
      </trkpt>
      <trkpt lat="47.50047" lon="6.75922">
        <ele>377.4</ele>
        <time>2014-05-01T09:48:20.000Z</time>
      </trkpt>
      <trkpt lat="47.50051" lon="6.75925">
        <ele>375.8</ele>
        <time>2014-05-01T09:48:21.000Z</time>
      </trkpt>
      <trkpt lat="47.50054" lon="6.75928">
        <ele>376.2</ele>
        <time>2014-05-01T09:48:22.000Z</time>
      </trkpt>
      <trkpt lat="47.50057" lon="6.75931">
        <ele>375.9</ele>
        <time>2014-05-01T09:48:23.000Z</time>
      </trkpt>
      <trkpt lat="47.5006" lon="6.75934">
        <ele>376.1</ele>
        <time>2014-05-01T09:48:24.000Z</time>
      </trkpt>
      <trkpt lat="47.50063" lon="6.75938">
        <ele>378.4</ele>
        <time>2014-05-01T09:48:25.000Z</time>
      </trkpt>
      <trkpt lat="47.50065" lon="6.75942">
        <ele>379.7</ele>
        <time>2014-05-01T09:48:26.000Z</time>
      </trkpt>
      <trkpt lat="47.50067" lon="6.75947">
        <ele>380.4</ele>
        <time>2014-05-01T09:48:27.000Z</time>
      </trkpt>
      <trkpt lat="47.50069" lon="6.75951">
        <ele>380.8</ele>
        <time>2014-05-01T09:48:28.000Z</time>
      </trkpt>
      <trkpt lat="47.5007" lon="6.75955">
        <ele>381.6</ele>
        <time>2014-05-01T09:48:29.000Z</time>
      </trkpt>
      <trkpt lat="47.50072" lon="6.75959">
        <ele>379.6</ele>
        <time>2014-05-01T09:48:30.000Z</time>
      </trkpt>
      <trkpt lat="47.50074" lon="6.75963">
        <ele>379</ele>
        <time>2014-05-01T09:48:31.000Z</time>
      </trkpt>
      <trkpt lat="47.50076" lon="6.75967">
        <ele>378.3</ele>
        <time>2014-05-01T09:48:32.000Z</time>
      </trkpt>
      <trkpt lat="47.50078" lon="6.75971">
        <ele>377.8</ele>
        <time>2014-05-01T09:48:33.000Z</time>
      </trkpt>
      <trkpt lat="47.5008" lon="6.75976">
        <ele>378</ele>
        <time>2014-05-01T09:48:34.000Z</time>
      </trkpt>
      <trkpt lat="47.50082" lon="6.7598">
        <ele>378.9</ele>
        <time>2014-05-01T09:48:35.000Z</time>
      </trkpt>
      <trkpt lat="47.50084" lon="6.75984">
        <ele>379.3</ele>
        <time>2014-05-01T09:48:36.000Z</time>
      </trkpt>
      <trkpt lat="47.50086" lon="6.75988">
        <ele>380.1</ele>
        <time>2014-05-01T09:48:37.000Z</time>
      </trkpt>
      <trkpt lat="47.50088" lon="6.75992">
        <ele>380.5</ele>
        <time>2014-05-01T09:48:38.000Z</time>
      </trkpt>
      <trkpt lat="47.5009" lon="6.75996">
        <ele>380.9</ele>
        <time>2014-05-01T09:48:39.000Z</time>
      </trkpt>
      <trkpt lat="47.50091" lon="6.76">
        <ele>381.3</ele>
        <time>2014-05-01T09:48:40.000Z</time>
      </trkpt>
      <trkpt lat="47.50092" lon="6.76004">
        <ele>385.3</ele>
        <time>2014-05-01T09:48:41.000Z</time>
      </trkpt>
      <trkpt lat="47.50093" lon="6.76009">
        <ele>386.7</ele>
        <time>2014-05-01T09:48:42.000Z</time>
      </trkpt>
      <trkpt lat="47.50093" lon="6.76013">
        <ele>387.3</ele>
        <time>2014-05-01T09:48:43.000Z</time>
      </trkpt>
      <trkpt lat="47.50094" lon="6.76017">
        <ele>388.8</ele>
        <time>2014-05-01T09:48:44.000Z</time>
      </trkpt>
      <trkpt lat="47.50094" lon="6.76021">
        <ele>389</ele>
        <time>2014-05-01T09:48:45.000Z</time>
      </trkpt>
      <trkpt lat="47.50095" lon="6.76026">
        <ele>386.8</ele>
        <time>2014-05-01T09:48:46.000Z</time>
      </trkpt>
      <trkpt lat="47.50096" lon="6.7603">
        <ele>386.6</ele>
        <time>2014-05-01T09:48:47.000Z</time>
      </trkpt>
      <trkpt lat="47.50097" lon="6.76034">
        <ele>386.7</ele>
        <time>2014-05-01T09:48:47.999Z</time>
      </trkpt>
      <trkpt lat="47.50099" lon="6.76038">
        <ele>387.8</ele>
        <time>2014-05-01T09:48:49.000Z</time>
      </trkpt>
      <trkpt lat="47.501" lon="6.76042">
        <ele>388.8</ele>
        <time>2014-05-01T09:48:50.000Z</time>
      </trkpt>
      <trkpt lat="47.50102" lon="6.76046">
        <ele>391.2</ele>
        <time>2014-05-01T09:48:51.000Z</time>
      </trkpt>
      <trkpt lat="47.50103" lon="6.7605">
        <ele>392.7</ele>
        <time>2014-05-01T09:48:52.000Z</time>
      </trkpt>
      <trkpt lat="47.50104" lon="6.76053">
        <ele>390.7</ele>
        <time>2014-05-01T09:48:53.000Z</time>
      </trkpt>
      <trkpt lat="47.50106" lon="6.76057">
        <ele>389.5</ele>
        <time>2014-05-01T09:48:54.000Z</time>
      </trkpt>
      <trkpt lat="47.50107" lon="6.76061">
        <ele>389.7</ele>
        <time>2014-05-01T09:48:55.000Z</time>
      </trkpt>
      <trkpt lat="47.50108" lon="6.76064">
        <ele>392.7</ele>
        <time>2014-05-01T09:48:56.000Z</time>
      </trkpt>
      <trkpt lat="47.50108" lon="6.76068">
        <ele>393.5</ele>
        <time>2014-05-01T09:48:57.000Z</time>
      </trkpt>
      <trkpt lat="47.50108" lon="6.76072">
        <ele>394.6</ele>
        <time>2014-05-01T09:48:58.000Z</time>
      </trkpt>
      <trkpt lat="47.50108" lon="6.76075">
        <ele>395</ele>
        <time>2014-05-01T09:48:59.000Z</time>
      </trkpt>
      <trkpt lat="47.50108" lon="6.76079">
        <ele>394.8</ele>
        <time>2014-05-01T09:49:00.000Z</time>
      </trkpt>
      <trkpt lat="47.50109" lon="6.76082">
        <ele>395.3</ele>
        <time>2014-05-01T09:49:01.000Z</time>
      </trkpt>
      <trkpt lat="47.50109" lon="6.76085">
        <ele>395.4</ele>
        <time>2014-05-01T09:49:01.999Z</time>
      </trkpt>
      <trkpt lat="47.5011" lon="6.76088">
        <ele>395.6</ele>
        <time>2014-05-01T09:49:03.000Z</time>
      </trkpt>
      <trkpt lat="47.50111" lon="6.76092">
        <ele>395.6</ele>
        <time>2014-05-01T09:49:04.000Z</time>
      </trkpt>
      <trkpt lat="47.50113" lon="6.76097">
        <ele>395.5</ele>
        <time>2014-05-01T09:49:05.000Z</time>
      </trkpt>
      <trkpt lat="47.5012" lon="6.76129">
        <ele>390.4</ele>
        <time>2014-05-01T09:49:13.000Z</time>
      </trkpt>
      <trkpt lat="47.5012" lon="6.76133">
        <ele>386.2</ele>
        <time>2014-05-01T09:49:14.000Z</time>
      </trkpt>
      <trkpt lat="47.50121" lon="6.76138">
        <ele>384.4</ele>
        <time>2014-05-01T09:49:15.000Z</time>
      </trkpt>
      <trkpt lat="47.50122" lon="6.76143">
        <ele>382.8</ele>
        <time>2014-05-01T09:49:16.000Z</time>
      </trkpt>
      <trkpt lat="47.50123" lon="6.76147">
        <ele>382.5</ele>
        <time>2014-05-01T09:49:17.000Z</time>
      </trkpt>
      <trkpt lat="47.50124" lon="6.76152">
        <ele>383.7</ele>
        <time>2014-05-01T09:49:18.000Z</time>
      </trkpt>
      <trkpt lat="47.50125" lon="6.76157">
        <ele>383.4</ele>
        <time>2014-05-01T09:49:19.000Z</time>
      </trkpt>
      <trkpt lat="47.50125" lon="6.76162">
        <ele>383.9</ele>
        <time>2014-05-01T09:49:20.000Z</time>
      </trkpt>
      <trkpt lat="47.50125" lon="6.76168">
        <ele>385.1</ele>
        <time>2014-05-01T09:49:21.000Z</time>
      </trkpt>
      <trkpt lat="47.50125" lon="6.76173">
        <ele>384.8</ele>
        <time>2014-05-01T09:49:22.000Z</time>
      </trkpt>
      <trkpt lat="47.50128" lon="6.76184">
        <ele>390.9</ele>
        <time>2014-05-01T09:49:23.000Z</time>
      </trkpt>
      <trkpt lat="47.50128" lon="6.76189">
        <ele>394.5</ele>
        <time>2014-05-01T09:49:24.000Z</time>
      </trkpt>
      <trkpt lat="47.5013" lon="6.76193">
        <ele>396</ele>
        <time>2014-05-01T09:49:25.000Z</time>
      </trkpt>
      <trkpt lat="47.5013" lon="6.76198">
        <ele>394.4</ele>
        <time>2014-05-01T09:49:26.000Z</time>
      </trkpt>
      <trkpt lat="47.50131" lon="6.76202">
        <ele>395.9</ele>
        <time>2014-05-01T09:49:27.000Z</time>
      </trkpt>
      <trkpt lat="47.50131" lon="6.76207">
        <ele>397.9</ele>
        <time>2014-05-01T09:49:28.000Z</time>
      </trkpt>
      <trkpt lat="47.50132" lon="6.76211">
        <ele>400.2</ele>
        <time>2014-05-01T09:49:29.000Z</time>
      </trkpt>
      <trkpt lat="47.50134" lon="6.76214">
        <ele>403.9</ele>
        <time>2014-05-01T09:49:30.000Z</time>
      </trkpt>
      <trkpt lat="47.50136" lon="6.76218">
        <ele>406.8</ele>
        <time>2014-05-01T09:49:31.001Z</time>
      </trkpt>
      <trkpt lat="47.50137" lon="6.76223">
        <ele>409.3</ele>
        <time>2014-05-01T09:49:32.000Z</time>
      </trkpt>
      <trkpt lat="47.50138" lon="6.76227">
        <ele>410.4</ele>
        <time>2014-05-01T09:49:33.000Z</time>
      </trkpt>
      <trkpt lat="47.50139" lon="6.76231">
        <ele>410.5</ele>
        <time>2014-05-01T09:49:34.000Z</time>
      </trkpt>
      <trkpt lat="47.50139" lon="6.76235">
        <ele>412</ele>
        <time>2014-05-01T09:49:35.000Z</time>
      </trkpt>
      <trkpt lat="47.5014" lon="6.7624">
        <ele>411.8</ele>
        <time>2014-05-01T09:49:36.000Z</time>
      </trkpt>
      <trkpt lat="47.5014" lon="6.76244">
        <ele>411.8</ele>
        <time>2014-05-01T09:49:37.000Z</time>
      </trkpt>
      <trkpt lat="47.5014" lon="6.76248">
        <ele>412.9</ele>
        <time>2014-05-01T09:49:38.000Z</time>
      </trkpt>
      <trkpt lat="47.5014" lon="6.76252">
        <ele>414.4</ele>
        <time>2014-05-01T09:49:39.000Z</time>
      </trkpt>
      <trkpt lat="47.50141" lon="6.76255">
        <ele>414.6</ele>
        <time>2014-05-01T09:49:40.000Z</time>
      </trkpt>
      <trkpt lat="47.50141" lon="6.76259">
        <ele>416</ele>
        <time>2014-05-01T09:49:41.000Z</time>
      </trkpt>
      <trkpt lat="47.50142" lon="6.76262">
        <ele>415.1</ele>
        <time>2014-05-01T09:49:42.000Z</time>
      </trkpt>
      <trkpt lat="47.50143" lon="6.76267">
        <ele>414.4</ele>
        <time>2014-05-01T09:49:43.000Z</time>
      </trkpt>
      <trkpt lat="47.50144" lon="6.76272">
        <ele>414.7</ele>
        <time>2014-05-01T09:49:44.000Z</time>
      </trkpt>
      <trkpt lat="47.50145" lon="6.76276">
        <ele>415.2</ele>
        <time>2014-05-01T09:49:45.000Z</time>
      </trkpt>
      <trkpt lat="47.50145" lon="6.7628">
        <ele>416.4</ele>
        <time>2014-05-01T09:49:46.000Z</time>
      </trkpt>
      <trkpt lat="47.50146" lon="6.76284">
        <ele>416.9</ele>
        <time>2014-05-01T09:49:47.000Z</time>
      </trkpt>
      <trkpt lat="47.50146" lon="6.76288">
        <ele>417.7</ele>
        <time>2014-05-01T09:49:48.000Z</time>
      </trkpt>
      <trkpt lat="47.50147" lon="6.76292">
        <ele>419.2</ele>
        <time>2014-05-01T09:49:49.000Z</time>
      </trkpt>
      <trkpt lat="47.50146" lon="6.76295">
        <ele>419.8</ele>
        <time>2014-05-01T09:49:50.000Z</time>
      </trkpt>
      <trkpt lat="47.50147" lon="6.76299">
        <ele>421.4</ele>
        <time>2014-05-01T09:49:51.000Z</time>
      </trkpt>
      <trkpt lat="47.50147" lon="6.76303">
        <ele>422.4</ele>
        <time>2014-05-01T09:49:52.000Z</time>
      </trkpt>
      <trkpt lat="47.50148" lon="6.76307">
        <ele>423</ele>
        <time>2014-05-01T09:49:53.000Z</time>
      </trkpt>
      <trkpt lat="47.50149" lon="6.76311">
        <ele>423.1</ele>
        <time>2014-05-01T09:49:54.000Z</time>
      </trkpt>
      <trkpt lat="47.5015" lon="6.76316">
        <ele>419.9</ele>
        <time>2014-05-01T09:49:55.000Z</time>
      </trkpt>
      <trkpt lat="47.50152" lon="6.76321">
        <ele>421.8</ele>
        <time>2014-05-01T09:49:56.000Z</time>
      </trkpt>
      <trkpt lat="47.50153" lon="6.76326">
        <ele>422.1</ele>
        <time>2014-05-01T09:49:57.000Z</time>
      </trkpt>
      <trkpt lat="47.50155" lon="6.76332">
        <ele>420.5</ele>
        <time>2014-05-01T09:49:58.000Z</time>
      </trkpt>
      <trkpt lat="47.50157" lon="6.76337">
        <ele>419.7</ele>
        <time>2014-05-01T09:49:59.000Z</time>
      </trkpt>
      <trkpt lat="47.50159" lon="6.76342">
        <ele>422.6</ele>
        <time>2014-05-01T09:50:00.000Z</time>
      </trkpt>
      <trkpt lat="47.5016" lon="6.76347">
        <ele>424.9</ele>
        <time>2014-05-01T09:50:01.000Z</time>
      </trkpt>
      <trkpt lat="47.50161" lon="6.76352">
        <ele>424.9</ele>
        <time>2014-05-01T09:50:02.000Z</time>
      </trkpt>
      <trkpt lat="47.50163" lon="6.76356">
        <ele>427.1</ele>
        <time>2014-05-01T09:50:03.000Z</time>
      </trkpt>
      <trkpt lat="47.50165" lon="6.76361">
        <ele>427.5</ele>
        <time>2014-05-01T09:50:04.000Z</time>
      </trkpt>
      <trkpt lat="47.50166" lon="6.76365">
        <ele>427.5</ele>
        <time>2014-05-01T09:50:04.998Z</time>
      </trkpt>
      <trkpt lat="47.50181" lon="6.76404">
        <ele>421.2</ele>
        <time>2014-05-01T09:50:13.000Z</time>
      </trkpt>
      <trkpt lat="47.50182" lon="6.76408">
        <ele>421.1</ele>
        <time>2014-05-01T09:50:14.000Z</time>
      </trkpt>
      <trkpt lat="47.50182" lon="6.76412">
        <ele>421.6</ele>
        <time>2014-05-01T09:50:15.000Z</time>
      </trkpt>
      <trkpt lat="47.50183" lon="6.76417">
        <ele>421.2</ele>
        <time>2014-05-01T09:50:16.000Z</time>
      </trkpt>
      <trkpt lat="47.50184" lon="6.76421">
        <ele>421.6</ele>
        <time>2014-05-01T09:50:17.000Z</time>
      </trkpt>
      <trkpt lat="47.50185" lon="6.76427">
        <ele>420.9</ele>
        <time>2014-05-01T09:50:18.000Z</time>
      </trkpt>
      <trkpt lat="47.50186" lon="6.76431">
        <ele>420.3</ele>
        <time>2014-05-01T09:50:18.999Z</time>
      </trkpt>
      <trkpt lat="47.50188" lon="6.76438">
        <ele>419.6</ele>
        <time>2014-05-01T09:50:20.000Z</time>
      </trkpt>
      <trkpt lat="47.5019" lon="6.76443">
        <ele>418.8</ele>
        <time>2014-05-01T09:50:21.000Z</time>
      </trkpt>
      <trkpt lat="47.50192" lon="6.76448">
        <ele>421.2</ele>
        <time>2014-05-01T09:50:22.000Z</time>
      </trkpt>
      <trkpt lat="47.50193" lon="6.76453">
        <ele>421.8</ele>
        <time>2014-05-01T09:50:23.000Z</time>
      </trkpt>
      <trkpt lat="47.50195" lon="6.76457">
        <ele>422.9</ele>
        <time>2014-05-01T09:50:24.000Z</time>
      </trkpt>
      <trkpt lat="47.50196" lon="6.76461">
        <ele>424.1</ele>
        <time>2014-05-01T09:50:25.000Z</time>
      </trkpt>
      <trkpt lat="47.50197" lon="6.76466">
        <ele>422.7</ele>
        <time>2014-05-01T09:50:26.000Z</time>
      </trkpt>
      <trkpt lat="47.50199" lon="6.7647">
        <ele>424</ele>
        <time>2014-05-01T09:50:27.000Z</time>
      </trkpt>
      <trkpt lat="47.502" lon="6.76475">
        <ele>424.9</ele>
        <time>2014-05-01T09:50:28.000Z</time>
      </trkpt>
      <trkpt lat="47.50201" lon="6.76479">
        <ele>426.2</ele>
        <time>2014-05-01T09:50:29.000Z</time>
      </trkpt>
      <trkpt lat="47.50202" lon="6.76483">
        <ele>426.4</ele>
        <time>2014-05-01T09:50:30.000Z</time>
      </trkpt>
      <trkpt lat="47.50203" lon="6.76487">
        <ele>426.7</ele>
        <time>2014-05-01T09:50:31.000Z</time>
      </trkpt>
      <trkpt lat="47.50203" lon="6.76491">
        <ele>426.5</ele>
        <time>2014-05-01T09:50:32.000Z</time>
      </trkpt>
      <trkpt lat="47.50204" lon="6.76495">
        <ele>427.6</ele>
        <time>2014-05-01T09:50:33.000Z</time>
      </trkpt>
      <trkpt lat="47.50205" lon="6.76498">
        <ele>431.4</ele>
        <time>2014-05-01T09:50:34.000Z</time>
      </trkpt>
      <trkpt lat="47.50209" lon="6.76499">
        <ele>434.7</ele>
        <time>2014-05-01T09:50:35.000Z</time>
      </trkpt>
      <trkpt lat="47.5021" lon="6.76502">
        <ele>436.6</ele>
        <time>2014-05-01T09:50:36.000Z</time>
      </trkpt>
      <trkpt lat="47.50212" lon="6.76505">
        <ele>437.1</ele>
        <time>2014-05-01T09:50:37.000Z</time>
      </trkpt>
      <trkpt lat="47.50213" lon="6.76509">
        <ele>437.6</ele>
        <time>2014-05-01T09:50:38.000Z</time>
      </trkpt>
      <trkpt lat="47.50215" lon="6.76512">
        <ele>438.9</ele>
        <time>2014-05-01T09:50:39.000Z</time>
      </trkpt>
      <trkpt lat="47.50216" lon="6.76517">
        <ele>438.8</ele>
        <time>2014-05-01T09:50:40.000Z</time>
      </trkpt>
      <trkpt lat="47.50217" lon="6.76521">
        <ele>439.1</ele>
        <time>2014-05-01T09:50:41.000Z</time>
      </trkpt>
      <trkpt lat="47.50217" lon="6.76524">
        <ele>438.8</ele>
        <time>2014-05-01T09:50:42.000Z</time>
      </trkpt>
      <trkpt lat="47.50219" lon="6.76528">
        <ele>438.1</ele>
        <time>2014-05-01T09:50:44.000Z</time>
      </trkpt>
      <trkpt lat="47.50219" lon="6.7653">
        <ele>438.7</ele>
        <time>2014-05-01T09:50:45.000Z</time>
      </trkpt>
      <trkpt lat="47.5022" lon="6.76536">
        <ele>438.4</ele>
        <time>2014-05-01T09:50:48.000Z</time>
      </trkpt>
      <trkpt lat="47.5022" lon="6.76537">
        <ele>436.8</ele>
        <time>2014-05-01T09:50:49.000Z</time>
      </trkpt>
      <trkpt lat="47.50221" lon="6.76541">
        <ele>434</ele>
        <time>2014-05-01T09:50:51.001Z</time>
      </trkpt>
      <trkpt lat="47.50221" lon="6.76544">
        <ele>433.1</ele>
        <time>2014-05-01T09:50:52.000Z</time>
      </trkpt>
      <trkpt lat="47.5022" lon="6.76548">
        <ele>433.7</ele>
        <time>2014-05-01T09:50:53.999Z</time>
      </trkpt>
      <trkpt lat="47.50218" lon="6.7655">
        <ele>428.9</ele>
        <time>2014-05-01T09:50:55.000Z</time>
      </trkpt>
      <trkpt lat="47.50215" lon="6.76552">
        <ele>426.4</ele>
        <time>2014-05-01T09:50:56.000Z</time>
      </trkpt>
      <trkpt lat="47.50213" lon="6.76554">
        <ele>423.9</ele>
        <time>2014-05-01T09:50:57.000Z</time>
      </trkpt>
      <trkpt lat="47.50209" lon="6.76555">
        <ele>423.7</ele>
        <time>2014-05-01T09:50:59.000Z</time>
      </trkpt>
      <trkpt lat="47.50208" lon="6.76555">
        <ele>426.6</ele>
        <time>2014-05-01T09:51:00.000Z</time>
      </trkpt>
      <trkpt lat="47.50203" lon="6.76556">
        <ele>430.1</ele>
        <time>2014-05-01T09:51:04.000Z</time>
      </trkpt>
      <trkpt lat="47.50202" lon="6.76557">
        <ele>431.3</ele>
        <time>2014-05-01T09:51:05.000Z</time>
      </trkpt>
      <trkpt lat="47.502" lon="6.76584">
        <ele>428.6</ele>
        <time>2014-05-01T09:51:14.000Z</time>
      </trkpt>
      <trkpt lat="47.502" lon="6.7659">
        <ele>425.4</ele>
        <time>2014-05-01T09:51:15.000Z</time>
      </trkpt>
      <trkpt lat="47.502" lon="6.76595">
        <ele>424.8</ele>
        <time>2014-05-01T09:51:16.000Z</time>
      </trkpt>
      <trkpt lat="47.50201" lon="6.76599">
        <ele>423.9</ele>
        <time>2014-05-01T09:51:17.000Z</time>
      </trkpt>
      <trkpt lat="47.50201" lon="6.76603">
        <ele>423.5</ele>
        <time>2014-05-01T09:51:18.000Z</time>
      </trkpt>
      <trkpt lat="47.50202" lon="6.76607">
        <ele>423.4</ele>
        <time>2014-05-01T09:51:19.000Z</time>
      </trkpt>
      <trkpt lat="47.50203" lon="6.7661">
        <ele>423</ele>
        <time>2014-05-01T09:51:20.000Z</time>
      </trkpt>
      <trkpt lat="47.50204" lon="6.76616">
        <ele>421.7</ele>
        <time>2014-05-01T09:51:22.000Z</time>
      </trkpt>
      <trkpt lat="47.50204" lon="6.76618">
        <ele>421.9</ele>
        <time>2014-05-01T09:51:23.000Z</time>
      </trkpt>
      <trkpt lat="47.50205" lon="6.76623">
        <ele>421.7</ele>
        <time>2014-05-01T09:51:25.000Z</time>
      </trkpt>
      <trkpt lat="47.50205" lon="6.76626">
        <ele>421.6</ele>
        <time>2014-05-01T09:51:26.000Z</time>
      </trkpt>
      <trkpt lat="47.50206" lon="6.7663">
        <ele>420</ele>
        <time>2014-05-01T09:51:28.000Z</time>
      </trkpt>
      <trkpt lat="47.50207" lon="6.76633">
        <ele>420.6</ele>
        <time>2014-05-01T09:51:29.000Z</time>
      </trkpt>
      <trkpt lat="47.50208" lon="6.76638">
        <ele>421.2</ele>
        <time>2014-05-01T09:51:31.000Z</time>
      </trkpt>
      <trkpt lat="47.50209" lon="6.76641">
        <ele>420.8</ele>
        <time>2014-05-01T09:51:32.000Z</time>
      </trkpt>
      <trkpt lat="47.5021" lon="6.76647">
        <ele>421.6</ele>
        <time>2014-05-01T09:51:34.000Z</time>
      </trkpt>
      <trkpt lat="47.50211" lon="6.76649">
        <ele>421.4</ele>
        <time>2014-05-01T09:51:35.000Z</time>
      </trkpt>
      <trkpt lat="47.50213" lon="6.76654">
        <ele>422</ele>
        <time>2014-05-01T09:51:37.000Z</time>
      </trkpt>
      <trkpt lat="47.50214" lon="6.76657">
        <ele>420.7</ele>
        <time>2014-05-01T09:51:38.000Z</time>
      </trkpt>
      <trkpt lat="47.50216" lon="6.76662">
        <ele>417.9</ele>
        <time>2014-05-01T09:51:40.000Z</time>
      </trkpt>
      <trkpt lat="47.50217" lon="6.76665">
        <ele>417.7</ele>
        <time>2014-05-01T09:51:41.000Z</time>
      </trkpt>
      <trkpt lat="47.50218" lon="6.76668">
        <ele>416.9</ele>
        <time>2014-05-01T09:51:42.000Z</time>
      </trkpt>
      <trkpt lat="47.50219" lon="6.76671">
        <ele>417.1</ele>
        <time>2014-05-01T09:51:43.000Z</time>
      </trkpt>
      <trkpt lat="47.5022" lon="6.76677">
        <ele>417.6</ele>
        <time>2014-05-01T09:51:45.000Z</time>
      </trkpt>
      <trkpt lat="47.50221" lon="6.7668">
        <ele>417.2</ele>
        <time>2014-05-01T09:51:46.000Z</time>
      </trkpt>
      <trkpt lat="47.50222" lon="6.76685">
        <ele>418.3</ele>
        <time>2014-05-01T09:51:48.000Z</time>
      </trkpt>
      <trkpt lat="47.50223" lon="6.76688">
        <ele>418.1</ele>
        <time>2014-05-01T09:51:49.000Z</time>
      </trkpt>
      <trkpt lat="47.50224" lon="6.76691">
        <ele>417.5</ele>
        <time>2014-05-01T09:51:50.000Z</time>
      </trkpt>
      <trkpt lat="47.50226" lon="6.76694">
        <ele>417.8</ele>
        <time>2014-05-01T09:51:51.000Z</time>
      </trkpt>
      <trkpt lat="47.50227" lon="6.76698">
        <ele>418.2</ele>
        <time>2014-05-01T09:51:52.000Z</time>
      </trkpt>
      <trkpt lat="47.50228" lon="6.76701">
        <ele>418.7</ele>
        <time>2014-05-01T09:51:53.000Z</time>
      </trkpt>
      <trkpt lat="47.50229" lon="6.76704">
        <ele>418.6</ele>
        <time>2014-05-01T09:51:54.000Z</time>
      </trkpt>
      <trkpt lat="47.5023" lon="6.76707">
        <ele>418.4</ele>
        <time>2014-05-01T09:51:55.000Z</time>
      </trkpt>
      <trkpt lat="47.50232" lon="6.7671">
        <ele>418.9</ele>
        <time>2014-05-01T09:51:56.000Z</time>
      </trkpt>
      <trkpt lat="47.50233" lon="6.76713">
        <ele>417.8</ele>
        <time>2014-05-01T09:51:57.000Z</time>
      </trkpt>
      <trkpt lat="47.50234" lon="6.76716">
        <ele>417.7</ele>
        <time>2014-05-01T09:51:58.000Z</time>
      </trkpt>
      <trkpt lat="47.50236" lon="6.76719">
        <ele>417.7</ele>
        <time>2014-05-01T09:51:59.000Z</time>
      </trkpt>
      <trkpt lat="47.50237" lon="6.76722">
        <ele>418</ele>
        <time>2014-05-01T09:52:00.000Z</time>
      </trkpt>
      <trkpt lat="47.50239" lon="6.76726">
        <ele>417.1</ele>
        <time>2014-05-01T09:52:01.000Z</time>
      </trkpt>
      <trkpt lat="47.5024" lon="6.76729">
        <ele>416.4</ele>
        <time>2014-05-01T09:52:02.000Z</time>
      </trkpt>
      <trkpt lat="47.50242" lon="6.76731">
        <ele>416.3</ele>
        <time>2014-05-01T09:52:03.000Z</time>
      </trkpt>
      <trkpt lat="47.50243" lon="6.76734">
        <ele>415.4</ele>
        <time>2014-05-01T09:52:04.000Z</time>
      </trkpt>
      <trkpt lat="47.50245" lon="6.76737">
        <ele>415</ele>
        <time>2014-05-01T09:52:05.000Z</time>
      </trkpt>
      <trkpt lat="47.50265" lon="6.76752">
        <ele>413.3</ele>
        <time>2014-05-01T09:52:13.000Z</time>
      </trkpt>
      <trkpt lat="47.50268" lon="6.76751">
        <ele>412.6</ele>
        <time>2014-05-01T09:52:14.000Z</time>
      </trkpt>
      <trkpt lat="47.50271" lon="6.76749">
        <ele>412</ele>
        <time>2014-05-01T09:52:15.000Z</time>
      </trkpt>
      <trkpt lat="47.50274" lon="6.76748">
        <ele>412.1</ele>
        <time>2014-05-01T09:52:16.000Z</time>
      </trkpt>
      <trkpt lat="47.50276" lon="6.76747">
        <ele>412.4</ele>
        <time>2014-05-01T09:52:17.000Z</time>
      </trkpt>
      <trkpt lat="47.50279" lon="6.76745">
        <ele>408.9</ele>
        <time>2014-05-01T09:52:18.000Z</time>
      </trkpt>
      <trkpt lat="47.50283" lon="6.76743">
        <ele>409</ele>
        <time>2014-05-01T09:52:19.000Z</time>
      </trkpt>
      <trkpt lat="47.50287" lon="6.76742">
        <ele>409.5</ele>
        <time>2014-05-01T09:52:20.000Z</time>
      </trkpt>
      <trkpt lat="47.5029" lon="6.76741">
        <ele>409.3</ele>
        <time>2014-05-01T09:52:21.000Z</time>
      </trkpt>
      <trkpt lat="47.50294" lon="6.7674">
        <ele>409.2</ele>
        <time>2014-05-01T09:52:22.000Z</time>
      </trkpt>
      <trkpt lat="47.50298" lon="6.76739">
        <ele>409.5</ele>
        <time>2014-05-01T09:52:23.000Z</time>
      </trkpt>
      <trkpt lat="47.50301" lon="6.76738">
        <ele>409.3</ele>
        <time>2014-05-01T09:52:24.000Z</time>
      </trkpt>
      <trkpt lat="47.50305" lon="6.76737">
        <ele>409.7</ele>
        <time>2014-05-01T09:52:25.000Z</time>
      </trkpt>
      <trkpt lat="47.50308" lon="6.76736">
        <ele>409.2</ele>
        <time>2014-05-01T09:52:26.000Z</time>
      </trkpt>
      <trkpt lat="47.50312" lon="6.76736">
        <ele>408.8</ele>
        <time>2014-05-01T09:52:27.000Z</time>
      </trkpt>
      <trkpt lat="47.50315" lon="6.76735">
        <ele>409.2</ele>
        <time>2014-05-01T09:52:28.000Z</time>
      </trkpt>
      <trkpt lat="47.50319" lon="6.76734">
        <ele>410.4</ele>
        <time>2014-05-01T09:52:29.000Z</time>
      </trkpt>
      <trkpt lat="47.50322" lon="6.76733">
        <ele>411</ele>
        <time>2014-05-01T09:52:30.000Z</time>
      </trkpt>
      <trkpt lat="47.50325" lon="6.76731">
        <ele>411.4</ele>
        <time>2014-05-01T09:52:31.000Z</time>
      </trkpt>
      <trkpt lat="47.50329" lon="6.76729">
        <ele>412.2</ele>
        <time>2014-05-01T09:52:32.000Z</time>
      </trkpt>
      <trkpt lat="47.50332" lon="6.76727">
        <ele>411.9</ele>
        <time>2014-05-01T09:52:33.000Z</time>
      </trkpt>
      <trkpt lat="47.50335" lon="6.76725">
        <ele>412.3</ele>
        <time>2014-05-01T09:52:34.000Z</time>
      </trkpt>
      <trkpt lat="47.50339" lon="6.76724">
        <ele>412.5</ele>
        <time>2014-05-01T09:52:35.000Z</time>
      </trkpt>
      <trkpt lat="47.50342" lon="6.76723">
        <ele>412.5</ele>
        <time>2014-05-01T09:52:36.000Z</time>
      </trkpt>
      <trkpt lat="47.50346" lon="6.76722">
        <ele>412.2</ele>
        <time>2014-05-01T09:52:37.000Z</time>
      </trkpt>
      <trkpt lat="47.50349" lon="6.76721">
        <ele>411.4</ele>
        <time>2014-05-01T09:52:38.000Z</time>
      </trkpt>
      <trkpt lat="47.50352" lon="6.7672">
        <ele>413.1</ele>
        <time>2014-05-01T09:52:39.000Z</time>
      </trkpt>
      <trkpt lat="47.50355" lon="6.76718">
        <ele>412.8</ele>
        <time>2014-05-01T09:52:40.000Z</time>
      </trkpt>
      <trkpt lat="47.50359" lon="6.76717">
        <ele>412.6</ele>
        <time>2014-05-01T09:52:41.000Z</time>
      </trkpt>
      <trkpt lat="47.50362" lon="6.76716">
        <ele>412.6</ele>
        <time>2014-05-01T09:52:42.000Z</time>
      </trkpt>
      <trkpt lat="47.50365" lon="6.76714">
        <ele>412.4</ele>
        <time>2014-05-01T09:52:43.000Z</time>
      </trkpt>
      <trkpt lat="47.50369" lon="6.76713">
        <ele>412.2</ele>
        <time>2014-05-01T09:52:44.000Z</time>
      </trkpt>
      <trkpt lat="47.50372" lon="6.76711">
        <ele>412.3</ele>
        <time>2014-05-01T09:52:45.000Z</time>
      </trkpt>
      <trkpt lat="47.50376" lon="6.76709">
        <ele>412.2</ele>
        <time>2014-05-01T09:52:46.000Z</time>
      </trkpt>
      <trkpt lat="47.50379" lon="6.76707">
        <ele>412.8</ele>
        <time>2014-05-01T09:52:47.000Z</time>
      </trkpt>
      <trkpt lat="47.50383" lon="6.76705">
        <ele>413.2</ele>
        <time>2014-05-01T09:52:48.000Z</time>
      </trkpt>
      <trkpt lat="47.50386" lon="6.76703">
        <ele>412.4</ele>
        <time>2014-05-01T09:52:49.000Z</time>
      </trkpt>
      <trkpt lat="47.50389" lon="6.76701">
        <ele>412.3</ele>
        <time>2014-05-01T09:52:50.000Z</time>
      </trkpt>
      <trkpt lat="47.50393" lon="6.767">
        <ele>412.6</ele>
        <time>2014-05-01T09:52:51.000Z</time>
      </trkpt>
      <trkpt lat="47.50396" lon="6.76698">
        <ele>413</ele>
        <time>2014-05-01T09:52:52.000Z</time>
      </trkpt>
      <trkpt lat="47.50399" lon="6.76697">
        <ele>412.8</ele>
        <time>2014-05-01T09:52:53.000Z</time>
      </trkpt>
      <trkpt lat="47.50402" lon="6.76695">
        <ele>412.7</ele>
        <time>2014-05-01T09:52:54.000Z</time>
      </trkpt>
      <trkpt lat="47.50405" lon="6.76694">
        <ele>413.2</ele>
        <time>2014-05-01T09:52:55.000Z</time>
      </trkpt>
      <trkpt lat="47.50408" lon="6.76693">
        <ele>412.7</ele>
        <time>2014-05-01T09:52:56.000Z</time>
      </trkpt>
      <trkpt lat="47.50412" lon="6.76692">
        <ele>412.6</ele>
        <time>2014-05-01T09:52:57.000Z</time>
      </trkpt>
      <trkpt lat="47.50415" lon="6.76691">
        <ele>412.5</ele>
        <time>2014-05-01T09:52:58.000Z</time>
      </trkpt>
      <trkpt lat="47.50418" lon="6.7669">
        <ele>412.9</ele>
        <time>2014-05-01T09:52:59.000Z</time>
      </trkpt>
      <trkpt lat="47.50422" lon="6.76688">
        <ele>412.8</ele>
        <time>2014-05-01T09:53:00.000Z</time>
      </trkpt>
      <trkpt lat="47.50425" lon="6.76687">
        <ele>413.3</ele>
        <time>2014-05-01T09:53:01.000Z</time>
      </trkpt>
      <trkpt lat="47.50428" lon="6.76686">
        <ele>413.4</ele>
        <time>2014-05-01T09:53:02.000Z</time>
      </trkpt>
      <trkpt lat="47.50431" lon="6.76684">
        <ele>413.8</ele>
        <time>2014-05-01T09:53:03.000Z</time>
      </trkpt>
      <trkpt lat="47.50434" lon="6.76683">
        <ele>414.5</ele>
        <time>2014-05-01T09:53:04.000Z</time>
      </trkpt>
      <trkpt lat="47.50437" lon="6.76681">
        <ele>414.3</ele>
        <time>2014-05-01T09:53:05.000Z</time>
      </trkpt>
      <trkpt lat="47.50463" lon="6.76673">
        <ele>410.9</ele>
        <time>2014-05-01T09:53:13.000Z</time>
      </trkpt>
      <trkpt lat="47.50467" lon="6.76672">
        <ele>412</ele>
        <time>2014-05-01T09:53:14.000Z</time>
      </trkpt>
      <trkpt lat="47.5047" lon="6.7667">
        <ele>411.1</ele>
        <time>2014-05-01T09:53:15.000Z</time>
      </trkpt>
      <trkpt lat="47.50474" lon="6.76668">
        <ele>411.2</ele>
        <time>2014-05-01T09:53:16.000Z</time>
      </trkpt>
      <trkpt lat="47.50478" lon="6.76667">
        <ele>411.1</ele>
        <time>2014-05-01T09:53:17.000Z</time>
      </trkpt>
      <trkpt lat="47.50481" lon="6.76665">
        <ele>411.6</ele>
        <time>2014-05-01T09:53:18.000Z</time>
      </trkpt>
      <trkpt lat="47.50485" lon="6.76664">
        <ele>411.5</ele>
        <time>2014-05-01T09:53:19.000Z</time>
      </trkpt>
      <trkpt lat="47.50489" lon="6.76663">
        <ele>411.5</ele>
        <time>2014-05-01T09:53:20.000Z</time>
      </trkpt>
      <trkpt lat="47.50492" lon="6.76661">
        <ele>411.4</ele>
        <time>2014-05-01T09:53:21.000Z</time>
      </trkpt>
      <trkpt lat="47.50495" lon="6.7666">
        <ele>411.7</ele>
        <time>2014-05-01T09:53:22.000Z</time>
      </trkpt>
      <trkpt lat="47.50498" lon="6.76659">
        <ele>412.1</ele>
        <time>2014-05-01T09:53:23.000Z</time>
      </trkpt>
      <trkpt lat="47.50502" lon="6.76658">
        <ele>411.8</ele>
        <time>2014-05-01T09:53:24.000Z</time>
      </trkpt>
      <trkpt lat="47.50505" lon="6.76657">
        <ele>411.7</ele>
        <time>2014-05-01T09:53:25.000Z</time>
      </trkpt>
      <trkpt lat="47.50509" lon="6.76656">
        <ele>411.8</ele>
        <time>2014-05-01T09:53:26.000Z</time>
      </trkpt>
      <trkpt lat="47.50512" lon="6.76655">
        <ele>411.6</ele>
        <time>2014-05-01T09:53:27.000Z</time>
      </trkpt>
      <trkpt lat="47.50516" lon="6.76653">
        <ele>411.6</ele>
        <time>2014-05-01T09:53:28.000Z</time>
      </trkpt>
      <trkpt lat="47.5052" lon="6.76652">
        <ele>412.1</ele>
        <time>2014-05-01T09:53:29.000Z</time>
      </trkpt>
      <trkpt lat="47.50523" lon="6.76651">
        <ele>414.4</ele>
        <time>2014-05-01T09:53:30.000Z</time>
      </trkpt>
      <trkpt lat="47.50526" lon="6.7665">
        <ele>413.7</ele>
        <time>2014-05-01T09:53:31.000Z</time>
      </trkpt>
      <trkpt lat="47.5053" lon="6.76648">
        <ele>412</ele>
        <time>2014-05-01T09:53:32.000Z</time>
      </trkpt>
      <trkpt lat="47.50533" lon="6.76647">
        <ele>412.9</ele>
        <time>2014-05-01T09:53:33.000Z</time>
      </trkpt>
      <trkpt lat="47.50537" lon="6.76646">
        <ele>412.9</ele>
        <time>2014-05-01T09:53:34.000Z</time>
      </trkpt>
      <trkpt lat="47.5054" lon="6.76645">
        <ele>413</ele>
        <time>2014-05-01T09:53:35.000Z</time>
      </trkpt>
      <trkpt lat="47.50543" lon="6.76644">
        <ele>412.6</ele>
        <time>2014-05-01T09:53:36.000Z</time>
      </trkpt>
      <trkpt lat="47.50547" lon="6.76643">
        <ele>412.5</ele>
        <time>2014-05-01T09:53:37.000Z</time>
      </trkpt>
      <trkpt lat="47.5055" lon="6.76641">
        <ele>412.8</ele>
        <time>2014-05-01T09:53:38.000Z</time>
      </trkpt>
      <trkpt lat="47.50554" lon="6.7664">
        <ele>412.9</ele>
        <time>2014-05-01T09:53:39.000Z</time>
      </trkpt>
      <trkpt lat="47.50557" lon="6.76639">
        <ele>413.1</ele>
        <time>2014-05-01T09:53:40.000Z</time>
      </trkpt>
      <trkpt lat="47.50561" lon="6.76638">
        <ele>413.6</ele>
        <time>2014-05-01T09:53:41.000Z</time>
      </trkpt>
      <trkpt lat="47.50564" lon="6.76637">
        <ele>413.6</ele>
        <time>2014-05-01T09:53:42.000Z</time>
      </trkpt>
      <trkpt lat="47.50567" lon="6.76636">
        <ele>413.5</ele>
        <time>2014-05-01T09:53:43.000Z</time>
      </trkpt>
      <trkpt lat="47.50571" lon="6.76635">
        <ele>412.8</ele>
        <time>2014-05-01T09:53:44.000Z</time>
      </trkpt>
      <trkpt lat="47.50575" lon="6.76635">
        <ele>413.6</ele>
        <time>2014-05-01T09:53:45.000Z</time>
      </trkpt>
      <trkpt lat="47.50579" lon="6.76634">
        <ele>413.4</ele>
        <time>2014-05-01T09:53:46.000Z</time>
      </trkpt>
      <trkpt lat="47.50583" lon="6.76633">
        <ele>413.1</ele>
        <time>2014-05-01T09:53:47.000Z</time>
      </trkpt>
      <trkpt lat="47.50587" lon="6.76631">
        <ele>413.4</ele>
        <time>2014-05-01T09:53:48.000Z</time>
      </trkpt>
      <trkpt lat="47.50592" lon="6.7663">
        <ele>413.8</ele>
        <time>2014-05-01T09:53:49.000Z</time>
      </trkpt>
      <trkpt lat="47.50597" lon="6.76628">
        <ele>413.9</ele>
        <time>2014-05-01T09:53:50.000Z</time>
      </trkpt>
      <trkpt lat="47.50601" lon="6.76626">
        <ele>414.1</ele>
        <time>2014-05-01T09:53:51.000Z</time>
      </trkpt>
      <trkpt lat="47.50606" lon="6.76624">
        <ele>414.3</ele>
        <time>2014-05-01T09:53:52.000Z</time>
      </trkpt>
      <trkpt lat="47.5061" lon="6.76623">
        <ele>414</ele>
        <time>2014-05-01T09:53:53.000Z</time>
      </trkpt>
      <trkpt lat="47.50614" lon="6.76621">
        <ele>414.2</ele>
        <time>2014-05-01T09:53:54.000Z</time>
      </trkpt>
      <trkpt lat="47.50619" lon="6.76618">
        <ele>414.6</ele>
        <time>2014-05-01T09:53:55.000Z</time>
      </trkpt>
      <trkpt lat="47.50624" lon="6.76616">
        <ele>413.5</ele>
        <time>2014-05-01T09:53:56.000Z</time>
      </trkpt>
      <trkpt lat="47.50629" lon="6.76614">
        <ele>412.9</ele>
        <time>2014-05-01T09:53:57.000Z</time>
      </trkpt>
      <trkpt lat="47.50633" lon="6.7661">
        <ele>413.4</ele>
        <time>2014-05-01T09:53:58.000Z</time>
      </trkpt>
      <trkpt lat="47.50637" lon="6.76608">
        <ele>414</ele>
        <time>2014-05-01T09:53:59.000Z</time>
      </trkpt>
      <trkpt lat="47.50641" lon="6.76605">
        <ele>413.4</ele>
        <time>2014-05-01T09:54:00.000Z</time>
      </trkpt>
      <trkpt lat="47.50646" lon="6.76603">
        <ele>413.5</ele>
        <time>2014-05-01T09:54:01.000Z</time>
      </trkpt>
      <trkpt lat="47.5065" lon="6.76601">
        <ele>413.7</ele>
        <time>2014-05-01T09:54:02.000Z</time>
      </trkpt>
      <trkpt lat="47.50654" lon="6.76599">
        <ele>413.9</ele>
        <time>2014-05-01T09:54:03.000Z</time>
      </trkpt>
      <trkpt lat="47.5066" lon="6.76597">
        <ele>413.3</ele>
        <time>2014-05-01T09:54:04.000Z</time>
      </trkpt>
      <trkpt lat="47.50664" lon="6.76596">
        <ele>413.2</ele>
        <time>2014-05-01T09:54:05.000Z</time>
      </trkpt>
      <trkpt lat="47.50703" lon="6.76591">
        <ele>410.7</ele>
        <time>2014-05-01T09:54:13.000Z</time>
      </trkpt>
      <trkpt lat="47.50708" lon="6.76591">
        <ele>410.3</ele>
        <time>2014-05-01T09:54:14.000Z</time>
      </trkpt>
      <trkpt lat="47.50714" lon="6.76588">
        <ele>405.2</ele>
        <time>2014-05-01T09:54:15.000Z</time>
      </trkpt>
      <trkpt lat="47.50719" lon="6.76588">
        <ele>405</ele>
        <time>2014-05-01T09:54:16.000Z</time>
      </trkpt>
      <trkpt lat="47.50724" lon="6.76589">
        <ele>404.9</ele>
        <time>2014-05-01T09:54:17.000Z</time>
      </trkpt>
      <trkpt lat="47.50729" lon="6.7659">
        <ele>405.1</ele>
        <time>2014-05-01T09:54:18.000Z</time>
      </trkpt>
      <trkpt lat="47.50734" lon="6.76591">
        <ele>404.9</ele>
        <time>2014-05-01T09:54:19.000Z</time>
      </trkpt>
      <trkpt lat="47.50739" lon="6.76591">
        <ele>404.4</ele>
        <time>2014-05-01T09:54:20.000Z</time>
      </trkpt>
      <trkpt lat="47.50742" lon="6.76594">
        <ele>405</ele>
        <time>2014-05-01T09:54:21.000Z</time>
      </trkpt>
      <trkpt lat="47.50747" lon="6.76595">
        <ele>405.2</ele>
        <time>2014-05-01T09:54:22.000Z</time>
      </trkpt>
      <trkpt lat="47.50752" lon="6.76595">
        <ele>403.6</ele>
        <time>2014-05-01T09:54:23.000Z</time>
      </trkpt>
      <trkpt lat="47.50756" lon="6.76595">
        <ele>403.7</ele>
        <time>2014-05-01T09:54:24.000Z</time>
      </trkpt>
      <trkpt lat="47.5076" lon="6.76596">
        <ele>404.5</ele>
        <time>2014-05-01T09:54:25.000Z</time>
      </trkpt>
      <trkpt lat="47.50763" lon="6.76595">
        <ele>403.9</ele>
        <time>2014-05-01T09:54:26.000Z</time>
      </trkpt>
      <trkpt lat="47.50767" lon="6.76595">
        <ele>404</ele>
        <time>2014-05-01T09:54:27.000Z</time>
      </trkpt>
      <trkpt lat="47.50772" lon="6.76595">
        <ele>404</ele>
        <time>2014-05-01T09:54:28.000Z</time>
      </trkpt>
      <trkpt lat="47.50775" lon="6.76594">
        <ele>405.6</ele>
        <time>2014-05-01T09:54:29.000Z</time>
      </trkpt>
      <trkpt lat="47.50778" lon="6.76593">
        <ele>405.2</ele>
        <time>2014-05-01T09:54:30.000Z</time>
      </trkpt>
      <trkpt lat="47.50782" lon="6.76592">
        <ele>405.7</ele>
        <time>2014-05-01T09:54:31.000Z</time>
      </trkpt>
      <trkpt lat="47.50786" lon="6.76592">
        <ele>405.7</ele>
        <time>2014-05-01T09:54:32.000Z</time>
      </trkpt>
      <trkpt lat="47.50789" lon="6.76591">
        <ele>405.7</ele>
        <time>2014-05-01T09:54:33.000Z</time>
      </trkpt>
      <trkpt lat="47.50792" lon="6.76591">
        <ele>406</ele>
        <time>2014-05-01T09:54:34.000Z</time>
      </trkpt>
      <trkpt lat="47.50795" lon="6.76591">
        <ele>404.9</ele>
        <time>2014-05-01T09:54:35.000Z</time>
      </trkpt>
      <trkpt lat="47.50798" lon="6.76591">
        <ele>404.4</ele>
        <time>2014-05-01T09:54:36.000Z</time>
      </trkpt>
      <trkpt lat="47.50801" lon="6.7659">
        <ele>404.2</ele>
        <time>2014-05-01T09:54:37.000Z</time>
      </trkpt>
      <trkpt lat="47.50804" lon="6.76589">
        <ele>404.1</ele>
        <time>2014-05-01T09:54:38.000Z</time>
      </trkpt>
      <trkpt lat="47.50808" lon="6.76587">
        <ele>404.4</ele>
        <time>2014-05-01T09:54:39.000Z</time>
      </trkpt>
      <trkpt lat="47.50811" lon="6.76586">
        <ele>403.3</ele>
        <time>2014-05-01T09:54:40.000Z</time>
      </trkpt>
      <trkpt lat="47.50813" lon="6.76586">
        <ele>403.6</ele>
        <time>2014-05-01T09:54:41.000Z</time>
      </trkpt>
      <trkpt lat="47.50815" lon="6.76589">
        <ele>403.6</ele>
        <time>2014-05-01T09:54:43.000Z</time>
      </trkpt>
      <trkpt lat="47.50816" lon="6.76591">
        <ele>403.6</ele>
        <time>2014-05-01T09:54:44.000Z</time>
      </trkpt>
      <trkpt lat="47.50817" lon="6.76598">
        <ele>403.5</ele>
        <time>2014-05-01T09:54:46.000Z</time>
      </trkpt>
      <trkpt lat="47.50819" lon="6.76599">
        <ele>403</ele>
        <time>2014-05-01T09:54:47.000Z</time>
      </trkpt>
      <trkpt lat="47.50822" lon="6.766">
        <ele>402.3</ele>
        <time>2014-05-01T09:54:49.000Z</time>
      </trkpt>
      <trkpt lat="47.50824" lon="6.76598">
        <ele>402.2</ele>
        <time>2014-05-01T09:54:50.000Z</time>
      </trkpt>
      <trkpt lat="47.50828" lon="6.76598">
        <ele>400.3</ele>
        <time>2014-05-01T09:54:52.000Z</time>
      </trkpt>
      <trkpt lat="47.50829" lon="6.76601">
        <ele>401</ele>
        <time>2014-05-01T09:54:53.000Z</time>
      </trkpt>
      <trkpt lat="47.5083" lon="6.76605">
        <ele>401.3</ele>
        <time>2014-05-01T09:54:54.000Z</time>
      </trkpt>
      <trkpt lat="47.50832" lon="6.7661">
        <ele>400.1</ele>
        <time>2014-05-01T09:54:55.000Z</time>
      </trkpt>
      <trkpt lat="47.50834" lon="6.76616">
        <ele>399.5</ele>
        <time>2014-05-01T09:54:56.000Z</time>
      </trkpt>
      <trkpt lat="47.50836" lon="6.76622">
        <ele>399.1</ele>
        <time>2014-05-01T09:54:57.000Z</time>
      </trkpt>
      <trkpt lat="47.50838" lon="6.76627">
        <ele>399.1</ele>
        <time>2014-05-01T09:54:58.000Z</time>
      </trkpt>
      <trkpt lat="47.5084" lon="6.76632">
        <ele>399.1</ele>
        <time>2014-05-01T09:54:59.000Z</time>
      </trkpt>
      <trkpt lat="47.50844" lon="6.7664">
        <ele>398</ele>
        <time>2014-05-01T09:55:00.000Z</time>
      </trkpt>
      <trkpt lat="47.50848" lon="6.76646">
        <ele>397.2</ele>
        <time>2014-05-01T09:55:01.000Z</time>
      </trkpt>
      <trkpt lat="47.5085" lon="6.76652">
        <ele>397.2</ele>
        <time>2014-05-01T09:55:02.000Z</time>
      </trkpt>
      <trkpt lat="47.50853" lon="6.76656">
        <ele>395.2</ele>
        <time>2014-05-01T09:55:03.000Z</time>
      </trkpt>
      <trkpt lat="47.50856" lon="6.76663">
        <ele>394.7</ele>
        <time>2014-05-01T09:55:04.000Z</time>
      </trkpt>
      <trkpt lat="47.50859" lon="6.7667">
        <ele>394.4</ele>
        <time>2014-05-01T09:55:05.000Z</time>
      </trkpt>
      <trkpt lat="47.5088" lon="6.7673">
        <ele>396.7</ele>
        <time>2014-05-01T09:55:13.000Z</time>
      </trkpt>
      <trkpt lat="47.50882" lon="6.76737">
        <ele>396.2</ele>
        <time>2014-05-01T09:55:14.000Z</time>
      </trkpt>
      <trkpt lat="47.50885" lon="6.76745">
        <ele>395.7</ele>
        <time>2014-05-01T09:55:15.000Z</time>
      </trkpt>
      <trkpt lat="47.50887" lon="6.76752">
        <ele>396.2</ele>
        <time>2014-05-01T09:55:16.000Z</time>
      </trkpt>
      <trkpt lat="47.5089" lon="6.76758">
        <ele>396.2</ele>
        <time>2014-05-01T09:55:17.000Z</time>
      </trkpt>
      <trkpt lat="47.50893" lon="6.76766">
        <ele>396</ele>
        <time>2014-05-01T09:55:18.000Z</time>
      </trkpt>
      <trkpt lat="47.50896" lon="6.76773">
        <ele>395.9</ele>
        <time>2014-05-01T09:55:19.000Z</time>
      </trkpt>
      <trkpt lat="47.509" lon="6.76781">
        <ele>394.5</ele>
        <time>2014-05-01T09:55:20.000Z</time>
      </trkpt>
      <trkpt lat="47.50903" lon="6.76789">
        <ele>394.2</ele>
        <time>2014-05-01T09:55:21.000Z</time>
      </trkpt>
      <trkpt lat="47.50906" lon="6.76797">
        <ele>394.2</ele>
        <time>2014-05-01T09:55:22.000Z</time>
      </trkpt>
      <trkpt lat="47.50909" lon="6.76804">
        <ele>394.5</ele>
        <time>2014-05-01T09:55:23.000Z</time>
      </trkpt>
      <trkpt lat="47.50911" lon="6.76812">
        <ele>394.2</ele>
        <time>2014-05-01T09:55:24.000Z</time>
      </trkpt>
      <trkpt lat="47.50916" lon="6.76819">
        <ele>392.5</ele>
        <time>2014-05-01T09:55:25.000Z</time>
      </trkpt>
      <trkpt lat="47.50919" lon="6.76827">
        <ele>392.7</ele>
        <time>2014-05-01T09:55:26.000Z</time>
      </trkpt>
      <trkpt lat="47.50922" lon="6.76835">
        <ele>392.9</ele>
        <time>2014-05-01T09:55:27.000Z</time>
      </trkpt>
      <trkpt lat="47.50924" lon="6.76843">
        <ele>392.4</ele>
        <time>2014-05-01T09:55:28.000Z</time>
      </trkpt>
      <trkpt lat="47.50927" lon="6.7685">
        <ele>392.3</ele>
        <time>2014-05-01T09:55:29.000Z</time>
      </trkpt>
      <trkpt lat="47.5093" lon="6.76857">
        <ele>393.1</ele>
        <time>2014-05-01T09:55:30.000Z</time>
      </trkpt>
      <trkpt lat="47.50934" lon="6.76863">
        <ele>393.4</ele>
        <time>2014-05-01T09:55:31.000Z</time>
      </trkpt>
      <trkpt lat="47.5094" lon="6.76868">
        <ele>391.5</ele>
        <time>2014-05-01T09:55:32.000Z</time>
      </trkpt>
      <trkpt lat="47.50945" lon="6.76875">
        <ele>391.8</ele>
        <time>2014-05-01T09:55:33.000Z</time>
      </trkpt>
      <trkpt lat="47.50949" lon="6.76879">
        <ele>392</ele>
        <time>2014-05-01T09:55:34.000Z</time>
      </trkpt>
      <trkpt lat="47.50953" lon="6.76883">
        <ele>391.7</ele>
        <time>2014-05-01T09:55:35.000Z</time>
      </trkpt>
      <trkpt lat="47.50956" lon="6.76888">
        <ele>392.4</ele>
        <time>2014-05-01T09:55:36.000Z</time>
      </trkpt>
      <trkpt lat="47.5096" lon="6.76889">
        <ele>391.3</ele>
        <time>2014-05-01T09:55:37.000Z</time>
      </trkpt>
      <trkpt lat="47.50963" lon="6.76892">
        <ele>391.2</ele>
        <time>2014-05-01T09:55:38.000Z</time>
      </trkpt>
      <trkpt lat="47.50967" lon="6.76892">
        <ele>391</ele>
        <time>2014-05-01T09:55:39.000Z</time>
      </trkpt>
      <trkpt lat="47.50971" lon="6.76894">
        <ele>390.7</ele>
        <time>2014-05-01T09:55:40.000Z</time>
      </trkpt>
      <trkpt lat="47.50975" lon="6.76894">
        <ele>391.2</ele>
        <time>2014-05-01T09:55:41.000Z</time>
      </trkpt>
      <trkpt lat="47.50979" lon="6.76894">
        <ele>391.6</ele>
        <time>2014-05-01T09:55:42.000Z</time>
      </trkpt>
      <trkpt lat="47.50984" lon="6.76895">
        <ele>391.9</ele>
        <time>2014-05-01T09:55:43.000Z</time>
      </trkpt>
      <trkpt lat="47.50988" lon="6.76896">
        <ele>391.6</ele>
        <time>2014-05-01T09:55:44.000Z</time>
      </trkpt>
      <trkpt lat="47.50993" lon="6.76898">
        <ele>389.2</ele>
        <time>2014-05-01T09:55:45.000Z</time>
      </trkpt>
      <trkpt lat="47.50996" lon="6.769">
        <ele>389.1</ele>
        <time>2014-05-01T09:55:46.000Z</time>
      </trkpt>
      <trkpt lat="47.50999" lon="6.76904">
        <ele>385.7</ele>
        <time>2014-05-01T09:55:47.000Z</time>
      </trkpt>
      <trkpt lat="47.51" lon="6.76909">
        <ele>384.4</ele>
        <time>2014-05-01T09:55:48.000Z</time>
      </trkpt>
      <trkpt lat="47.51001" lon="6.76913">
        <ele>385.1</ele>
        <time>2014-05-01T09:55:49.000Z</time>
      </trkpt>
      <trkpt lat="47.51002" lon="6.76917">
        <ele>385.4</ele>
        <time>2014-05-01T09:55:50.000Z</time>
      </trkpt>
      <trkpt lat="47.51004" lon="6.76919">
        <ele>384.4</ele>
        <time>2014-05-01T09:55:51.000Z</time>
      </trkpt>
      <trkpt lat="47.51006" lon="6.76923">
        <ele>385.3</ele>
        <time>2014-05-01T09:55:52.000Z</time>
      </trkpt>
      <trkpt lat="47.51009" lon="6.76925">
        <ele>385</ele>
        <time>2014-05-01T09:55:53.000Z</time>
      </trkpt>
      <trkpt lat="47.51011" lon="6.76927">
        <ele>385.2</ele>
        <time>2014-05-01T09:55:54.000Z</time>
      </trkpt>
      <trkpt lat="47.51014" lon="6.76928">
        <ele>384.7</ele>
        <time>2014-05-01T09:55:55.000Z</time>
      </trkpt>
      <trkpt lat="47.51017" lon="6.7693">
        <ele>384.3</ele>
        <time>2014-05-01T09:55:56.000Z</time>
      </trkpt>
      <trkpt lat="47.5102" lon="6.76932">
        <ele>384.7</ele>
        <time>2014-05-01T09:55:57.000Z</time>
      </trkpt>
      <trkpt lat="47.51023" lon="6.76934">
        <ele>384.8</ele>
        <time>2014-05-01T09:55:58.000Z</time>
      </trkpt>
      <trkpt lat="47.51027" lon="6.76936">
        <ele>385</ele>
        <time>2014-05-01T09:55:59.000Z</time>
      </trkpt>
      <trkpt lat="47.5103" lon="6.76939">
        <ele>384.7</ele>
        <time>2014-05-01T09:56:00.000Z</time>
      </trkpt>
      <trkpt lat="47.51034" lon="6.76942">
        <ele>385.4</ele>
        <time>2014-05-01T09:56:01.000Z</time>
      </trkpt>
      <trkpt lat="47.51037" lon="6.76946">
        <ele>384.8</ele>
        <time>2014-05-01T09:56:02.000Z</time>
      </trkpt>
      <trkpt lat="47.51041" lon="6.76949">
        <ele>384.2</ele>
        <time>2014-05-01T09:56:03.000Z</time>
      </trkpt>
      <trkpt lat="47.51044" lon="6.76952">
        <ele>384.2</ele>
        <time>2014-05-01T09:56:04.000Z</time>
      </trkpt>
      <trkpt lat="47.51048" lon="6.76955">
        <ele>384.1</ele>
        <time>2014-05-01T09:56:05.000Z</time>
      </trkpt>
      <trkpt lat="47.51074" lon="6.7698">
        <ele>390.1</ele>
        <time>2014-05-01T09:56:13.000Z</time>
      </trkpt>
      <trkpt lat="47.51077" lon="6.76982">
        <ele>389.4</ele>
        <time>2014-05-01T09:56:14.000Z</time>
      </trkpt>
      <trkpt lat="47.51081" lon="6.76986">
        <ele>389.4</ele>
        <time>2014-05-01T09:56:15.000Z</time>
      </trkpt>
      <trkpt lat="47.51085" lon="6.76989">
        <ele>389.1</ele>
        <time>2014-05-01T09:56:16.000Z</time>
      </trkpt>
      <trkpt lat="47.51089" lon="6.76993">
        <ele>393</ele>
        <time>2014-05-01T09:56:17.000Z</time>
      </trkpt>
      <trkpt lat="47.51092" lon="6.76997">
        <ele>394</ele>
        <time>2014-05-01T09:56:18.000Z</time>
      </trkpt>
      <trkpt lat="47.51096" lon="6.77001">
        <ele>393.9</ele>
        <time>2014-05-01T09:56:19.000Z</time>
      </trkpt>
      <trkpt lat="47.511" lon="6.77005">
        <ele>394.2</ele>
        <time>2014-05-01T09:56:20.000Z</time>
      </trkpt>
      <trkpt lat="47.51104" lon="6.77009">
        <ele>395.1</ele>
        <time>2014-05-01T09:56:21.000Z</time>
      </trkpt>
      <trkpt lat="47.51107" lon="6.77012">
        <ele>395.5</ele>
        <time>2014-05-01T09:56:22.000Z</time>
      </trkpt>
      <trkpt lat="47.5111" lon="6.77015">
        <ele>394.6</ele>
        <time>2014-05-01T09:56:23.000Z</time>
      </trkpt>
      <trkpt lat="47.51113" lon="6.77017">
        <ele>393.8</ele>
        <time>2014-05-01T09:56:24.000Z</time>
      </trkpt>
      <trkpt lat="47.51116" lon="6.77019">
        <ele>393.3</ele>
        <time>2014-05-01T09:56:25.000Z</time>
      </trkpt>
      <trkpt lat="47.51119" lon="6.77018">
        <ele>394</ele>
        <time>2014-05-01T09:56:26.000Z</time>
      </trkpt>
      <trkpt lat="47.51121" lon="6.77017">
        <ele>394.1</ele>
        <time>2014-05-01T09:56:27.000Z</time>
      </trkpt>
      <trkpt lat="47.51124" lon="6.77016">
        <ele>393.8</ele>
        <time>2014-05-01T09:56:28.000Z</time>
      </trkpt>
      <trkpt lat="47.51127" lon="6.77019">
        <ele>394</ele>
        <time>2014-05-01T09:56:30.000Z</time>
      </trkpt>
      <trkpt lat="47.51128" lon="6.77022">
        <ele>392.8</ele>
        <time>2014-05-01T09:56:31.000Z</time>
      </trkpt>
      <trkpt lat="47.5113" lon="6.77025">
        <ele>393.6</ele>
        <time>2014-05-01T09:56:32.000Z</time>
      </trkpt>
      <trkpt lat="47.51131" lon="6.77027">
        <ele>393.5</ele>
        <time>2014-05-01T09:56:33.000Z</time>
      </trkpt>
      <trkpt lat="47.51133" lon="6.7703">
        <ele>392.5</ele>
        <time>2014-05-01T09:56:34.000Z</time>
      </trkpt>
      <trkpt lat="47.51135" lon="6.77032">
        <ele>390.1</ele>
        <time>2014-05-01T09:56:35.000Z</time>
      </trkpt>
      <trkpt lat="47.51137" lon="6.77034">
        <ele>388.5</ele>
        <time>2014-05-01T09:56:36.000Z</time>
      </trkpt>
      <trkpt lat="47.51139" lon="6.77035">
        <ele>388.8</ele>
        <time>2014-05-01T09:56:37.000Z</time>
      </trkpt>
      <trkpt lat="47.51141" lon="6.77037">
        <ele>389.2</ele>
        <time>2014-05-01T09:56:38.000Z</time>
      </trkpt>
      <trkpt lat="47.51144" lon="6.77039">
        <ele>390.9</ele>
        <time>2014-05-01T09:56:39.000Z</time>
      </trkpt>
      <trkpt lat="47.51146" lon="6.7704">
        <ele>391.4</ele>
        <time>2014-05-01T09:56:40.000Z</time>
      </trkpt>
      <trkpt lat="47.51148" lon="6.77042">
        <ele>391.9</ele>
        <time>2014-05-01T09:56:41.000Z</time>
      </trkpt>
      <trkpt lat="47.51152" lon="6.77045">
        <ele>392.5</ele>
        <time>2014-05-01T09:56:43.000Z</time>
      </trkpt>
      <trkpt lat="47.51153" lon="6.77046">
        <ele>391.9</ele>
        <time>2014-05-01T09:56:44.000Z</time>
      </trkpt>
      <trkpt lat="47.51155" lon="6.77053">
        <ele>392.5</ele>
        <time>2014-05-01T09:57:21.000Z</time>
      </trkpt>
      <trkpt lat="47.51155" lon="6.77056">
        <ele>392.6</ele>
        <time>2014-05-01T09:57:22.000Z</time>
      </trkpt>
      <trkpt lat="47.51156" lon="6.77059">
        <ele>392</ele>
        <time>2014-05-01T09:57:23.000Z</time>
      </trkpt>
      <trkpt lat="47.51158" lon="6.77062">
        <ele>389.8</ele>
        <time>2014-05-01T09:57:24.000Z</time>
      </trkpt>
      <trkpt lat="47.51161" lon="6.77066">
        <ele>390.2</ele>
        <time>2014-05-01T09:57:25.000Z</time>
      </trkpt>
      <trkpt lat="47.51163" lon="6.77069">
        <ele>390.9</ele>
        <time>2014-05-01T09:57:26.000Z</time>
      </trkpt>
      <trkpt lat="47.51166" lon="6.77073">
        <ele>390.9</ele>
        <time>2014-05-01T09:57:27.000Z</time>
      </trkpt>
      <trkpt lat="47.51169" lon="6.77077">
        <ele>391.3</ele>
        <time>2014-05-01T09:57:28.000Z</time>
      </trkpt>
      <trkpt lat="47.51172" lon="6.77081">
        <ele>392.1</ele>
        <time>2014-05-01T09:57:29.000Z</time>
      </trkpt>
      <trkpt lat="47.51175" lon="6.77086">
        <ele>390.6</ele>
        <time>2014-05-01T09:57:30.000Z</time>
      </trkpt>
      <trkpt lat="47.51177" lon="6.7709">
        <ele>391</ele>
        <time>2014-05-01T09:57:31.000Z</time>
      </trkpt>
      <trkpt lat="47.5118" lon="6.77094">
        <ele>391.4</ele>
        <time>2014-05-01T09:57:32.000Z</time>
      </trkpt>
      <trkpt lat="47.51182" lon="6.77099">
        <ele>391.6</ele>
        <time>2014-05-01T09:57:33.000Z</time>
      </trkpt>
      <trkpt lat="47.51185" lon="6.77103">
        <ele>391.3</ele>
        <time>2014-05-01T09:57:34.000Z</time>
      </trkpt>
      <trkpt lat="47.51187" lon="6.77107">
        <ele>391.2</ele>
        <time>2014-05-01T09:57:35.000Z</time>
      </trkpt>
      <trkpt lat="47.5119" lon="6.77112">
        <ele>391.3</ele>
        <time>2014-05-01T09:57:36.000Z</time>
      </trkpt>
      <trkpt lat="47.51192" lon="6.77117">
        <ele>391.1</ele>
        <time>2014-05-01T09:57:37.000Z</time>
      </trkpt>
      <trkpt lat="47.51194" lon="6.77121">
        <ele>390.1</ele>
        <time>2014-05-01T09:57:38.000Z</time>
      </trkpt>
      <trkpt lat="47.51196" lon="6.77125">
        <ele>390.2</ele>
        <time>2014-05-01T09:57:39.000Z</time>
      </trkpt>
      <trkpt lat="47.51199" lon="6.7713">
        <ele>390</ele>
        <time>2014-05-01T09:57:40.000Z</time>
      </trkpt>
      <trkpt lat="47.51201" lon="6.77134">
        <ele>389.8</ele>
        <time>2014-05-01T09:57:41.000Z</time>
      </trkpt>
      <trkpt lat="47.51202" lon="6.77138">
        <ele>390</ele>
        <time>2014-05-01T09:57:42.000Z</time>
      </trkpt>
      <trkpt lat="47.51204" lon="6.77142">
        <ele>389.6</ele>
        <time>2014-05-01T09:57:43.000Z</time>
      </trkpt>
      <trkpt lat="47.51207" lon="6.77146">
        <ele>389.2</ele>
        <time>2014-05-01T09:57:44.000Z</time>
      </trkpt>
      <trkpt lat="47.51209" lon="6.7715">
        <ele>388.6</ele>
        <time>2014-05-01T09:57:45.000Z</time>
      </trkpt>
      <trkpt lat="47.5121" lon="6.77153">
        <ele>389.3</ele>
        <time>2014-05-01T09:57:46.000Z</time>
      </trkpt>
      <trkpt lat="47.51212" lon="6.77157">
        <ele>389.3</ele>
        <time>2014-05-01T09:57:47.000Z</time>
      </trkpt>
      <trkpt lat="47.51214" lon="6.77161">
        <ele>390.1</ele>
        <time>2014-05-01T09:57:48.000Z</time>
      </trkpt>
      <trkpt lat="47.51216" lon="6.77165">
        <ele>390.7</ele>
        <time>2014-05-01T09:57:49.000Z</time>
      </trkpt>
      <trkpt lat="47.51218" lon="6.7717">
        <ele>390.5</ele>
        <time>2014-05-01T09:57:50.000Z</time>
      </trkpt>
      <trkpt lat="47.5122" lon="6.77174">
        <ele>390.7</ele>
        <time>2014-05-01T09:57:51.000Z</time>
      </trkpt>
      <trkpt lat="47.51223" lon="6.77179">
        <ele>391.4</ele>
        <time>2014-05-01T09:57:52.000Z</time>
      </trkpt>
      <trkpt lat="47.51225" lon="6.77184">
        <ele>391.4</ele>
        <time>2014-05-01T09:57:53.000Z</time>
      </trkpt>
      <trkpt lat="47.51227" lon="6.77188">
        <ele>391.6</ele>
        <time>2014-05-01T09:57:54.000Z</time>
      </trkpt>
      <trkpt lat="47.5123" lon="6.77193">
        <ele>392.1</ele>
        <time>2014-05-01T09:57:55.000Z</time>
      </trkpt>
      <trkpt lat="47.51232" lon="6.77198">
        <ele>391.8</ele>
        <time>2014-05-01T09:57:56.000Z</time>
      </trkpt>
      <trkpt lat="47.51235" lon="6.77203">
        <ele>392.7</ele>
        <time>2014-05-01T09:57:57.000Z</time>
      </trkpt>
      <trkpt lat="47.51237" lon="6.77208">
        <ele>392.7</ele>
        <time>2014-05-01T09:57:58.000Z</time>
      </trkpt>
      <trkpt lat="47.5124" lon="6.77212">
        <ele>392.9</ele>
        <time>2014-05-01T09:57:59.000Z</time>
      </trkpt>
      <trkpt lat="47.51242" lon="6.77217">
        <ele>393.3</ele>
        <time>2014-05-01T09:58:00.000Z</time>
      </trkpt>
      <trkpt lat="47.51245" lon="6.77222">
        <ele>393.5</ele>
        <time>2014-05-01T09:58:01.000Z</time>
      </trkpt>
      <trkpt lat="47.51247" lon="6.77227">
        <ele>393.3</ele>
        <time>2014-05-01T09:58:02.000Z</time>
      </trkpt>
      <trkpt lat="47.5125" lon="6.77232">
        <ele>394</ele>
        <time>2014-05-01T09:58:03.000Z</time>
      </trkpt>
      <trkpt lat="47.51253" lon="6.77237">
        <ele>393.7</ele>
        <time>2014-05-01T09:58:04.000Z</time>
      </trkpt>
      <trkpt lat="47.51255" lon="6.77242">
        <ele>393.6</ele>
        <time>2014-05-01T09:58:05.000Z</time>
      </trkpt>
      <trkpt lat="47.51285" lon="6.77269">
        <ele>391.7</ele>
        <time>2014-05-01T09:58:13.000Z</time>
      </trkpt>
      <trkpt lat="47.5129" lon="6.77271">
        <ele>390.7</ele>
        <time>2014-05-01T09:58:14.000Z</time>
      </trkpt>
      <trkpt lat="47.51294" lon="6.77273">
        <ele>390.3</ele>
        <time>2014-05-01T09:58:15.000Z</time>
      </trkpt>
      <trkpt lat="47.51299" lon="6.77275">
        <ele>390.3</ele>
        <time>2014-05-01T09:58:16.000Z</time>
      </trkpt>
      <trkpt lat="47.51303" lon="6.77277">
        <ele>389.6</ele>
        <time>2014-05-01T09:58:17.000Z</time>
      </trkpt>
      <trkpt lat="47.51308" lon="6.77278">
        <ele>389</ele>
        <time>2014-05-01T09:58:18.000Z</time>
      </trkpt>
      <trkpt lat="47.51313" lon="6.77281">
        <ele>390.1</ele>
        <time>2014-05-01T09:58:19.000Z</time>
      </trkpt>
      <trkpt lat="47.51319" lon="6.77283">
        <ele>390.1</ele>
        <time>2014-05-01T09:58:20.000Z</time>
      </trkpt>
      <trkpt lat="47.51325" lon="6.77285">
        <ele>389.8</ele>
        <time>2014-05-01T09:58:21.000Z</time>
      </trkpt>
      <trkpt lat="47.5133" lon="6.77286">
        <ele>389.7</ele>
        <time>2014-05-01T09:58:22.000Z</time>
      </trkpt>
      <trkpt lat="47.51336" lon="6.77285">
        <ele>389.3</ele>
        <time>2014-05-01T09:58:23.000Z</time>
      </trkpt>
      <trkpt lat="47.51343" lon="6.77283">
        <ele>388.7</ele>
        <time>2014-05-01T09:58:24.000Z</time>
      </trkpt>
      <trkpt lat="47.51349" lon="6.77278">
        <ele>388.3</ele>
        <time>2014-05-01T09:58:25.000Z</time>
      </trkpt>
      <trkpt lat="47.51355" lon="6.77274">
        <ele>387.1</ele>
        <time>2014-05-01T09:58:26.000Z</time>
      </trkpt>
      <trkpt lat="47.51362" lon="6.77269">
        <ele>386.6</ele>
        <time>2014-05-01T09:58:27.000Z</time>
      </trkpt>
      <trkpt lat="47.51369" lon="6.77263">
        <ele>386.3</ele>
        <time>2014-05-01T09:58:28.000Z</time>
      </trkpt>
      <trkpt lat="47.51376" lon="6.77258">
        <ele>385.4</ele>
        <time>2014-05-01T09:58:29.000Z</time>
      </trkpt>
      <trkpt lat="47.51384" lon="6.77252">
        <ele>385.2</ele>
        <time>2014-05-01T09:58:30.000Z</time>
      </trkpt>
      <trkpt lat="47.51391" lon="6.77247">
        <ele>385.5</ele>
        <time>2014-05-01T09:58:31.000Z</time>
      </trkpt>
      <trkpt lat="47.51399" lon="6.77242">
        <ele>385.8</ele>
        <time>2014-05-01T09:58:32.000Z</time>
      </trkpt>
      <trkpt lat="47.51407" lon="6.77237">
        <ele>385.5</ele>
        <time>2014-05-01T09:58:33.000Z</time>
      </trkpt>
      <trkpt lat="47.51415" lon="6.77233">
        <ele>385.4</ele>
        <time>2014-05-01T09:58:34.000Z</time>
      </trkpt>
      <trkpt lat="47.51424" lon="6.77229">
        <ele>385.3</ele>
        <time>2014-05-01T09:58:35.000Z</time>
      </trkpt>
      <trkpt lat="47.51432" lon="6.77226">
        <ele>385.1</ele>
        <time>2014-05-01T09:58:36.000Z</time>
      </trkpt>
      <trkpt lat="47.51441" lon="6.77221">
        <ele>385.4</ele>
        <time>2014-05-01T09:58:37.000Z</time>
      </trkpt>
      <trkpt lat="47.51449" lon="6.77217">
        <ele>385.4</ele>
        <time>2014-05-01T09:58:38.000Z</time>
      </trkpt>
      <trkpt lat="47.51456" lon="6.77213">
        <ele>385.8</ele>
        <time>2014-05-01T09:58:39.000Z</time>
      </trkpt>
      <trkpt lat="47.51463" lon="6.77209">
        <ele>386.4</ele>
        <time>2014-05-01T09:58:40.000Z</time>
      </trkpt>
      <trkpt lat="47.51469" lon="6.77208">
        <ele>386.8</ele>
        <time>2014-05-01T09:58:41.000Z</time>
      </trkpt>
      <trkpt lat="47.51474" lon="6.77206">
        <ele>387.2</ele>
        <time>2014-05-01T09:58:42.000Z</time>
      </trkpt>
      <trkpt lat="47.51478" lon="6.77206">
        <ele>385.5</ele>
        <time>2014-05-01T09:58:43.000Z</time>
      </trkpt>
      <trkpt lat="47.51483" lon="6.77206">
        <ele>382.5</ele>
        <time>2014-05-01T09:58:44.000Z</time>
      </trkpt>
      <trkpt lat="47.51485" lon="6.77211">
        <ele>381.7</ele>
        <time>2014-05-01T09:58:45.000Z</time>
      </trkpt>
      <trkpt lat="47.51486" lon="6.77218">
        <ele>382.6</ele>
        <time>2014-05-01T09:58:46.000Z</time>
      </trkpt>
      <trkpt lat="47.51486" lon="6.77226">
        <ele>383</ele>
        <time>2014-05-01T09:58:47.000Z</time>
      </trkpt>
      <trkpt lat="47.51487" lon="6.77233">
        <ele>383.2</ele>
        <time>2014-05-01T09:58:48.000Z</time>
      </trkpt>
      <trkpt lat="47.51488" lon="6.77242">
        <ele>384.1</ele>
        <time>2014-05-01T09:58:49.000Z</time>
      </trkpt>
      <trkpt lat="47.51488" lon="6.7725">
        <ele>383.5</ele>
        <time>2014-05-01T09:58:50.000Z</time>
      </trkpt>
      <trkpt lat="47.51489" lon="6.77257">
        <ele>383</ele>
        <time>2014-05-01T09:58:51.000Z</time>
      </trkpt>
      <trkpt lat="47.5149" lon="6.77265">
        <ele>382.4</ele>
        <time>2014-05-01T09:58:52.000Z</time>
      </trkpt>
      <trkpt lat="47.5149" lon="6.77272">
        <ele>383.7</ele>
        <time>2014-05-01T09:58:53.000Z</time>
      </trkpt>
      <trkpt lat="47.51491" lon="6.77279">
        <ele>384.4</ele>
        <time>2014-05-01T09:58:54.000Z</time>
      </trkpt>
      <trkpt lat="47.51491" lon="6.77285">
        <ele>383.7</ele>
        <time>2014-05-01T09:58:55.000Z</time>
      </trkpt>
      <trkpt lat="47.51491" lon="6.77294">
        <ele>384.2</ele>
        <time>2014-05-01T09:58:56.000Z</time>
      </trkpt>
      <trkpt lat="47.51492" lon="6.77303">
        <ele>384.7</ele>
        <time>2014-05-01T09:58:57.000Z</time>
      </trkpt>
      <trkpt lat="47.51495" lon="6.7731">
        <ele>384.9</ele>
        <time>2014-05-01T09:58:58.000Z</time>
      </trkpt>
      <trkpt lat="47.51499" lon="6.77316">
        <ele>385.4</ele>
        <time>2014-05-01T09:58:59.000Z</time>
      </trkpt>
      <trkpt lat="47.51504" lon="6.7732">
        <ele>387.1</ele>
        <time>2014-05-01T09:59:00.000Z</time>
      </trkpt>
      <trkpt lat="47.5151" lon="6.77325">
        <ele>387.5</ele>
        <time>2014-05-01T09:59:01.000Z</time>
      </trkpt>
      <trkpt lat="47.51514" lon="6.77329">
        <ele>387.2</ele>
        <time>2014-05-01T09:59:02.000Z</time>
      </trkpt>
      <trkpt lat="47.51519" lon="6.77334">
        <ele>387.6</ele>
        <time>2014-05-01T09:59:03.000Z</time>
      </trkpt>
      <trkpt lat="47.51524" lon="6.77338">
        <ele>387.8</ele>
        <time>2014-05-01T09:59:04.000Z</time>
      </trkpt>
      <trkpt lat="47.51528" lon="6.77341">
        <ele>387.7</ele>
        <time>2014-05-01T09:59:05.000Z</time>
      </trkpt>
      <trkpt lat="47.5156" lon="6.77383">
        <ele>389.8</ele>
        <time>2014-05-01T09:59:13.000Z</time>
      </trkpt>
      <trkpt lat="47.51564" lon="6.77388">
        <ele>389.7</ele>
        <time>2014-05-01T09:59:14.000Z</time>
      </trkpt>
      <trkpt lat="47.51568" lon="6.77393">
        <ele>389.1</ele>
        <time>2014-05-01T09:59:15.000Z</time>
      </trkpt>
      <trkpt lat="47.51572" lon="6.77397">
        <ele>389.9</ele>
        <time>2014-05-01T09:59:16.000Z</time>
      </trkpt>
      <trkpt lat="47.51575" lon="6.77402">
        <ele>390.8</ele>
        <time>2014-05-01T09:59:17.000Z</time>
      </trkpt>
      <trkpt lat="47.51581" lon="6.77408">
        <ele>390.6</ele>
        <time>2014-05-01T09:59:18.000Z</time>
      </trkpt>
      <trkpt lat="47.51585" lon="6.77414">
        <ele>391</ele>
        <time>2014-05-01T09:59:19.000Z</time>
      </trkpt>
      <trkpt lat="47.51588" lon="6.7742">
        <ele>391.9</ele>
        <time>2014-05-01T09:59:20.000Z</time>
      </trkpt>
      <trkpt lat="47.51593" lon="6.77424">
        <ele>391.2</ele>
        <time>2014-05-01T09:59:21.000Z</time>
      </trkpt>
      <trkpt lat="47.51597" lon="6.77428">
        <ele>391.5</ele>
        <time>2014-05-01T09:59:22.000Z</time>
      </trkpt>
      <trkpt lat="47.51601" lon="6.77433">
        <ele>393</ele>
        <time>2014-05-01T09:59:23.000Z</time>
      </trkpt>
      <trkpt lat="47.51606" lon="6.77439">
        <ele>393</ele>
        <time>2014-05-01T09:59:24.000Z</time>
      </trkpt>
      <trkpt lat="47.5161" lon="6.77444">
        <ele>393.8</ele>
        <time>2014-05-01T09:59:25.000Z</time>
      </trkpt>
      <trkpt lat="47.51615" lon="6.77448">
        <ele>393.5</ele>
        <time>2014-05-01T09:59:26.000Z</time>
      </trkpt>
      <trkpt lat="47.51619" lon="6.77451">
        <ele>393.1</ele>
        <time>2014-05-01T09:59:27.000Z</time>
      </trkpt>
      <trkpt lat="47.51623" lon="6.77457">
        <ele>393.5</ele>
        <time>2014-05-01T09:59:28.000Z</time>
      </trkpt>
      <trkpt lat="47.51628" lon="6.77463">
        <ele>393.6</ele>
        <time>2014-05-01T09:59:29.000Z</time>
      </trkpt>
      <trkpt lat="47.51632" lon="6.77468">
        <ele>394</ele>
        <time>2014-05-01T09:59:30.000Z</time>
      </trkpt>
      <trkpt lat="47.51635" lon="6.77473">
        <ele>394.7</ele>
        <time>2014-05-01T09:59:31.000Z</time>
      </trkpt>
      <trkpt lat="47.5164" lon="6.77479">
        <ele>394.8</ele>
        <time>2014-05-01T09:59:32.000Z</time>
      </trkpt>
      <trkpt lat="47.51644" lon="6.77484">
        <ele>395</ele>
        <time>2014-05-01T09:59:33.000Z</time>
      </trkpt>
      <trkpt lat="47.51648" lon="6.77488">
        <ele>396.2</ele>
        <time>2014-05-01T09:59:34.000Z</time>
      </trkpt>
      <trkpt lat="47.51652" lon="6.77492">
        <ele>395.6</ele>
        <time>2014-05-01T09:59:35.000Z</time>
      </trkpt>
      <trkpt lat="47.51657" lon="6.77498">
        <ele>396.1</ele>
        <time>2014-05-01T09:59:36.000Z</time>
      </trkpt>
      <trkpt lat="47.51661" lon="6.77502">
        <ele>395</ele>
        <time>2014-05-01T09:59:37.000Z</time>
      </trkpt>
      <trkpt lat="47.51665" lon="6.77507">
        <ele>395.9</ele>
        <time>2014-05-01T09:59:38.000Z</time>
      </trkpt>
      <trkpt lat="47.51669" lon="6.77512">
        <ele>396.5</ele>
        <time>2014-05-01T09:59:39.000Z</time>
      </trkpt>
      <trkpt lat="47.51673" lon="6.77517">
        <ele>397.1</ele>
        <time>2014-05-01T09:59:40.000Z</time>
      </trkpt>
      <trkpt lat="47.51676" lon="6.77522">
        <ele>397.9</ele>
        <time>2014-05-01T09:59:41.000Z</time>
      </trkpt>
      <trkpt lat="47.51679" lon="6.77525">
        <ele>397.6</ele>
        <time>2014-05-01T09:59:42.000Z</time>
      </trkpt>
      <trkpt lat="47.51682" lon="6.77529">
        <ele>397.6</ele>
        <time>2014-05-01T09:59:43.000Z</time>
      </trkpt>
      <trkpt lat="47.51685" lon="6.77532">
        <ele>397.6</ele>
        <time>2014-05-01T09:59:44.000Z</time>
      </trkpt>
      <trkpt lat="47.51689" lon="6.77534">
        <ele>397.6</ele>
        <time>2014-05-01T09:59:45.000Z</time>
      </trkpt>
      <trkpt lat="47.51691" lon="6.77534">
        <ele>398.9</ele>
        <time>2014-05-01T09:59:46.000Z</time>
      </trkpt>
      <trkpt lat="47.51694" lon="6.77534">
        <ele>399.5</ele>
        <time>2014-05-01T09:59:47.000Z</time>
      </trkpt>
      <trkpt lat="47.51697" lon="6.77537">
        <ele>399.6</ele>
        <time>2014-05-01T09:59:48.000Z</time>
      </trkpt>
      <trkpt lat="47.517" lon="6.77539">
        <ele>399.6</ele>
        <time>2014-05-01T09:59:49.000Z</time>
      </trkpt>
      <trkpt lat="47.51702" lon="6.77542">
        <ele>400.1</ele>
        <time>2014-05-01T09:59:50.000Z</time>
      </trkpt>
      <trkpt lat="47.51705" lon="6.77545">
        <ele>400.4</ele>
        <time>2014-05-01T09:59:51.000Z</time>
      </trkpt>
      <trkpt lat="47.51707" lon="6.77548">
        <ele>400.4</ele>
        <time>2014-05-01T09:59:52.000Z</time>
      </trkpt>
      <trkpt lat="47.51709" lon="6.77551">
        <ele>400.5</ele>
        <time>2014-05-01T09:59:53.000Z</time>
      </trkpt>
      <trkpt lat="47.51711" lon="6.77552">
        <ele>401.5</ele>
        <time>2014-05-01T09:59:54.000Z</time>
      </trkpt>
      <trkpt lat="47.51715" lon="6.77553">
        <ele>400.8</ele>
        <time>2014-05-01T09:59:56.000Z</time>
      </trkpt>
      <trkpt lat="47.51717" lon="6.77552">
        <ele>401</ele>
        <time>2014-05-01T09:59:57.000Z</time>
      </trkpt>
      <trkpt lat="47.5172" lon="6.77547">
        <ele>401.2</ele>
        <time>2014-05-01T09:59:59.000Z</time>
      </trkpt>
      <trkpt lat="47.51721" lon="6.77543">
        <ele>400.8</ele>
        <time>2014-05-01T10:00:00.000Z</time>
      </trkpt>
      <trkpt lat="47.51721" lon="6.77539">
        <ele>400.1</ele>
        <time>2014-05-01T10:00:01.000Z</time>
      </trkpt>
      <trkpt lat="47.51722" lon="6.77534">
        <ele>399.9</ele>
        <time>2014-05-01T10:00:02.000Z</time>
      </trkpt>
      <trkpt lat="47.51722" lon="6.7753">
        <ele>398.4</ele>
        <time>2014-05-01T10:00:03.000Z</time>
      </trkpt>
      <trkpt lat="47.51722" lon="6.77525">
        <ele>397.6</ele>
        <time>2014-05-01T10:00:04.000Z</time>
      </trkpt>
      <trkpt lat="47.51722" lon="6.77521">
        <ele>397.9</ele>
        <time>2014-05-01T10:00:05.000Z</time>
      </trkpt>
      <trkpt lat="47.51723" lon="6.77517">
        <ele>397.8</ele>
        <time>2014-05-01T10:00:06.000Z</time>
      </trkpt>
      <trkpt lat="47.51725" lon="6.77488">
        <ele>400.4</ele>
        <time>2014-05-01T10:00:14.000Z</time>
      </trkpt>
      <trkpt lat="47.51728" lon="6.77485">
        <ele>400.1</ele>
        <time>2014-05-01T10:00:15.000Z</time>
      </trkpt>
      <trkpt lat="47.51732" lon="6.77483">
        <ele>400.8</ele>
        <time>2014-05-01T10:00:16.000Z</time>
      </trkpt>
      <trkpt lat="47.51736" lon="6.77482">
        <ele>400.6</ele>
        <time>2014-05-01T10:00:17.000Z</time>
      </trkpt>
      <trkpt lat="47.5174" lon="6.77481">
        <ele>400.8</ele>
        <time>2014-05-01T10:00:18.000Z</time>
      </trkpt>
      <trkpt lat="47.51743" lon="6.77481">
        <ele>399.8</ele>
        <time>2014-05-01T10:00:19.000Z</time>
      </trkpt>
      <trkpt lat="47.51746" lon="6.7748">
        <ele>399</ele>
        <time>2014-05-01T10:00:20.000Z</time>
      </trkpt>
      <trkpt lat="47.51749" lon="6.7748">
        <ele>400.2</ele>
        <time>2014-05-01T10:00:21.000Z</time>
      </trkpt>
      <trkpt lat="47.51751" lon="6.77481">
        <ele>398.4</ele>
        <time>2014-05-01T10:00:22.000Z</time>
      </trkpt>
      <trkpt lat="47.51754" lon="6.77481">
        <ele>398.9</ele>
        <time>2014-05-01T10:00:23.000Z</time>
      </trkpt>
      <trkpt lat="47.51757" lon="6.77482">
        <ele>398.5</ele>
        <time>2014-05-01T10:00:24.000Z</time>
      </trkpt>
      <trkpt lat="47.5176" lon="6.77482">
        <ele>399</ele>
        <time>2014-05-01T10:00:25.000Z</time>
      </trkpt>
      <trkpt lat="47.51763" lon="6.77483">
        <ele>398.1</ele>
        <time>2014-05-01T10:00:26.000Z</time>
      </trkpt>
      <trkpt lat="47.51766" lon="6.77484">
        <ele>398.1</ele>
        <time>2014-05-01T10:00:27.000Z</time>
      </trkpt>
      <trkpt lat="47.51769" lon="6.77485">
        <ele>398.2</ele>
        <time>2014-05-01T10:00:28.000Z</time>
      </trkpt>
      <trkpt lat="47.51773" lon="6.77485">
        <ele>397.6</ele>
        <time>2014-05-01T10:00:29.000Z</time>
      </trkpt>
      <trkpt lat="47.51776" lon="6.77486">
        <ele>397.5</ele>
        <time>2014-05-01T10:00:30.000Z</time>
      </trkpt>
      <trkpt lat="47.5178" lon="6.77486">
        <ele>397.8</ele>
        <time>2014-05-01T10:00:31.000Z</time>
      </trkpt>
      <trkpt lat="47.51783" lon="6.77487">
        <ele>397.7</ele>
        <time>2014-05-01T10:00:32.000Z</time>
      </trkpt>
      <trkpt lat="47.51787" lon="6.77488">
        <ele>397.5</ele>
        <time>2014-05-01T10:00:33.000Z</time>
      </trkpt>
      <trkpt lat="47.5179" lon="6.77489">
        <ele>396.7</ele>
        <time>2014-05-01T10:00:34.000Z</time>
      </trkpt>
      <trkpt lat="47.51793" lon="6.7749">
        <ele>395.8</ele>
        <time>2014-05-01T10:00:35.000Z</time>
      </trkpt>
      <trkpt lat="47.51796" lon="6.77492">
        <ele>395.9</ele>
        <time>2014-05-01T10:00:36.000Z</time>
      </trkpt>
      <trkpt lat="47.51799" lon="6.77493">
        <ele>396</ele>
        <time>2014-05-01T10:00:37.000Z</time>
      </trkpt>
      <trkpt lat="47.51802" lon="6.77495">
        <ele>396.5</ele>
        <time>2014-05-01T10:00:38.000Z</time>
      </trkpt>
      <trkpt lat="47.51806" lon="6.77496">
        <ele>397</ele>
        <time>2014-05-01T10:00:39.000Z</time>
      </trkpt>
      <trkpt lat="47.51809" lon="6.77496">
        <ele>397</ele>
        <time>2014-05-01T10:00:40.000Z</time>
      </trkpt>
      <trkpt lat="47.5181" lon="6.77494">
        <ele>402.5</ele>
        <time>2014-05-01T10:02:05.000Z</time>
      </trkpt>
      <trkpt lat="47.51811" lon="6.77489">
        <ele>402.6</ele>
        <time>2014-05-01T10:02:13.000Z</time>
      </trkpt>
      <trkpt lat="47.5181" lon="6.77483">
        <ele>401.9</ele>
        <time>2014-05-01T10:02:18.000Z</time>
      </trkpt>
      <trkpt lat="47.5181" lon="6.77482">
        <ele>401.2</ele>
        <time>2014-05-01T10:02:19.000Z</time>
      </trkpt>
      <trkpt lat="47.51807" lon="6.77478">
        <ele>398.5</ele>
        <time>2014-05-01T10:03:05.000Z</time>
      </trkpt>
      <trkpt lat="47.51808" lon="6.77468">
        <ele>400.9</ele>
        <time>2014-05-01T10:03:13.000Z</time>
      </trkpt>
      <trkpt lat="47.51806" lon="6.77463">
        <ele>399.6</ele>
        <time>2014-05-01T10:03:18.000Z</time>
      </trkpt>
      <trkpt lat="47.51805" lon="6.77463">
        <ele>399.1</ele>
        <time>2014-05-01T10:03:19.000Z</time>
      </trkpt>
      <trkpt lat="47.51805" lon="6.77469">
        <ele>395.3</ele>
        <time>2014-05-01T10:03:44.000Z</time>
      </trkpt>
      <trkpt lat="47.51805" lon="6.7747">
        <ele>395.5</ele>
        <time>2014-05-01T10:03:45.000Z</time>
      </trkpt>
      <trkpt lat="47.51808" lon="6.77474">
        <ele>396.3</ele>
        <time>2014-05-01T10:05:05.000Z</time>
      </trkpt>
      <trkpt lat="47.51809" lon="6.77477">
        <ele>396.5</ele>
        <time>2014-05-01T10:05:13.000Z</time>
      </trkpt>
      <trkpt lat="47.5181" lon="6.77483">
        <ele>396.6</ele>
        <time>2014-05-01T10:05:46.000Z</time>
      </trkpt>
      <trkpt lat="47.5181" lon="6.77483">
        <ele>396.2</ele>
        <time>2014-05-01T10:05:47.000Z</time>
      </trkpt>
      <trkpt lat="47.51808" lon="6.77478">
        <ele>392.3</ele>
        <time>2014-05-01T10:06:52.000Z</time>
      </trkpt>
      <trkpt lat="47.51806" lon="6.77478">
        <ele>392.5</ele>
        <time>2014-05-01T10:06:53.001Z</time>
      </trkpt>
      <trkpt lat="47.51809" lon="6.77479">
        <ele>394.9</ele>
        <time>2014-05-01T10:07:05.000Z</time>
      </trkpt>
      <trkpt lat="47.51811" lon="6.7748">
        <ele>395.7</ele>
        <time>2014-05-01T10:07:13.000Z</time>
      </trkpt>
      <trkpt lat="47.51809" lon="6.77474">
        <ele>392.6</ele>
        <time>2014-05-01T10:10:14.000Z</time>
      </trkpt>
      <trkpt lat="47.51809" lon="6.77474">
        <ele>392.5</ele>
        <time>2014-05-01T10:10:15.000Z</time>
      </trkpt>
      <trkpt lat="47.51805" lon="6.77476">
        <ele>388.7</ele>
        <time>2014-05-01T10:12:21.000Z</time>
      </trkpt>
      <trkpt lat="47.51805" lon="6.77477">
        <ele>389.5</ele>
        <time>2014-05-01T10:12:22.000Z</time>
      </trkpt>
      <trkpt lat="47.51807" lon="6.77476">
        <ele>392.8</ele>
        <time>2014-05-01T10:15:57.000Z</time>
      </trkpt>
    </trkseg>
  </trk>
</gpx>